<?xml version="1.0" encoding="UTF-8" standalone="yes"?>
<gpx version="1.1" creator="outdooractive - http://www.outdooractive.com" xmlns="http://www.topografix.com/GPX/1/1" xmlns:xsi="http://www.w3.org/2001/XMLSchema-instance" xsi:schemaLocation="http://www.topografix.com/GPX/1/1 http://www.topografix.com/GPX/1/1/gpx.xsd" xmlns:oa="http://www.outdooractive.com/GPX/Extensions/1">
  <metadata>
    <name>Settimo Vittone Trovinasse</name>
    <author>
      <name>Davide Vottero Reis - Community</name>
    </author>
    <link href="https://www.outdooractive.com/r/303931422"/>
    <time>2024-10-15T12:50:43.281Z</time>
    <extensions>
      <oa:oaCategory>trackHikingTourTrail</oa:oaCategory>
    </extensions>
  </metadata>
  <trk>
    <name>Settimo Vittone Trovinasse</name>
    <type>trackHikingTourTrail</type>
    <trkseg>
      <trkpt lat="45.546093" lon="7.833485">
        <ele>309.39999</ele>
        <time>2024-10-15T05:57:59.136Z</time>
        <name>Via Strada Statale, Settimo Vittone</name>
        <extensions>
          <oa:address>{
  &quot;title&quot; : &quot;Via Strada Statale, Settimo Vittone&quot;
}</oa:address>
        </extensions>
      </trkpt>
      <trkpt lat="45.546127" lon="7.833585">
        <ele>317.54999</ele>
        <time>2024-10-15T05:58:01.153Z</time>
      </trkpt>
      <trkpt lat="45.546143" lon="7.833645">
        <ele>321.76666</ele>
        <time>2024-10-15T05:58:02.161Z</time>
      </trkpt>
      <trkpt lat="45.54615" lon="7.833595">
        <ele>323.375</ele>
        <time>2024-10-15T05:58:05.000Z</time>
      </trkpt>
      <trkpt lat="45.546162" lon="7.833548">
        <ele>324.28</ele>
        <time>2024-10-15T05:58:07.000Z</time>
      </trkpt>
      <trkpt lat="45.546165" lon="7.833517">
        <ele>325.13333</ele>
        <time>2024-10-15T05:58:08.000Z</time>
      </trkpt>
      <trkpt lat="45.546183" lon="7.833512">
        <ele>325.71429</ele>
        <time>2024-10-15T05:58:10.000Z</time>
      </trkpt>
      <trkpt lat="45.546205" lon="7.833503">
        <ele>326.3125</ele>
        <time>2024-10-15T05:58:12.000Z</time>
      </trkpt>
      <trkpt lat="45.546233" lon="7.833493">
        <ele>326.87778</ele>
        <time>2024-10-15T05:58:14.000Z</time>
      </trkpt>
      <trkpt lat="45.546257" lon="7.83346">
        <ele>327.45001</ele>
        <time>2024-10-15T05:58:16.000Z</time>
      </trkpt>
      <trkpt lat="45.546277" lon="7.833425">
        <ele>327.94543</ele>
        <time>2024-10-15T05:58:18.000Z</time>
      </trkpt>
      <trkpt lat="45.546297" lon="7.833392">
        <ele>328.40833</ele>
        <time>2024-10-15T05:58:20.000Z</time>
      </trkpt>
      <trkpt lat="45.54632" lon="7.833363">
        <ele>328.8692</ele>
        <time>2024-10-15T05:58:22.000Z</time>
      </trkpt>
      <trkpt lat="45.546345" lon="7.833332">
        <ele>329.33569</ele>
        <time>2024-10-15T05:58:24.000Z</time>
      </trkpt>
      <trkpt lat="45.546377" lon="7.833303">
        <ele>329.81998</ele>
        <time>2024-10-15T05:58:26.000Z</time>
      </trkpt>
      <trkpt lat="45.546395" lon="7.833285">
        <ele>330.30624</ele>
        <time>2024-10-15T05:58:27.000Z</time>
      </trkpt>
      <trkpt lat="45.546412" lon="7.83327">
        <ele>330.75882</ele>
        <time>2024-10-15T05:58:28.000Z</time>
      </trkpt>
      <trkpt lat="45.546433" lon="7.833252">
        <ele>331.16666</ele>
        <time>2024-10-15T05:58:30.000Z</time>
      </trkpt>
      <trkpt lat="45.546458" lon="7.833217">
        <ele>331.54208</ele>
        <time>2024-10-15T05:58:32.000Z</time>
      </trkpt>
      <trkpt lat="45.546478" lon="7.83318">
        <ele>331.88498</ele>
        <time>2024-10-15T05:58:34.000Z</time>
      </trkpt>
      <trkpt lat="45.546492" lon="7.833158">
        <ele>333.35999</ele>
        <time>2024-10-15T05:58:35.000Z</time>
      </trkpt>
      <trkpt lat="45.546517" lon="7.833127">
        <ele>334.06497</ele>
        <time>2024-10-15T05:58:37.000Z</time>
      </trkpt>
      <trkpt lat="45.546542" lon="7.833105">
        <ele>334.61496</ele>
        <time>2024-10-15T05:58:39.000Z</time>
      </trkpt>
      <trkpt lat="45.546572" lon="7.83309">
        <ele>335.32495</ele>
        <time>2024-10-15T05:58:41.000Z</time>
      </trkpt>
      <trkpt lat="45.546592" lon="7.83308">
        <ele>336.08997</ele>
        <time>2024-10-15T05:58:42.000Z</time>
      </trkpt>
      <trkpt lat="45.54662" lon="7.83306">
        <ele>336.83997</ele>
        <time>2024-10-15T05:58:44.000Z</time>
      </trkpt>
      <trkpt lat="45.546635" lon="7.833037">
        <ele>337.59995</ele>
        <time>2024-10-15T05:58:46.000Z</time>
      </trkpt>
      <trkpt lat="45.546655" lon="7.83302">
        <ele>338.38495</ele>
        <time>2024-10-15T05:58:48.000Z</time>
      </trkpt>
      <trkpt lat="45.546675" lon="7.83301">
        <ele>339.18997</ele>
        <time>2024-10-15T05:58:50.000Z</time>
      </trkpt>
      <trkpt lat="45.546695" lon="7.833003">
        <ele>339.97995</ele>
        <time>2024-10-15T05:58:52.000Z</time>
      </trkpt>
      <trkpt lat="45.546718" lon="7.833002">
        <ele>340.76996</ele>
        <time>2024-10-15T05:58:54.000Z</time>
      </trkpt>
      <trkpt lat="45.546748" lon="7.833005">
        <ele>341.56497</ele>
        <time>2024-10-15T05:58:57.000Z</time>
      </trkpt>
      <trkpt lat="45.546777" lon="7.833005">
        <ele>342.31998</ele>
        <time>2024-10-15T05:58:59.000Z</time>
      </trkpt>
      <trkpt lat="45.546797" lon="7.832992">
        <ele>343.03998</ele>
        <time>2024-10-15T05:59:02.000Z</time>
      </trkpt>
      <trkpt lat="45.546808" lon="7.832968">
        <ele>343.66998</ele>
        <time>2024-10-15T05:59:04.000Z</time>
      </trkpt>
      <trkpt lat="45.546827" lon="7.832945">
        <ele>344.23495</ele>
        <time>2024-10-15T05:59:06.000Z</time>
      </trkpt>
      <trkpt lat="45.546847" lon="7.832918">
        <ele>344.73495</ele>
        <time>2024-10-15T05:59:08.000Z</time>
      </trkpt>
      <trkpt lat="45.54686" lon="7.832892">
        <ele>345.20996</ele>
        <time>2024-10-15T05:59:10.000Z</time>
      </trkpt>
      <trkpt lat="45.546878" lon="7.832875">
        <ele>345.64996</ele>
        <time>2024-10-15T05:59:12.000Z</time>
      </trkpt>
      <trkpt lat="45.546883" lon="7.832848">
        <ele>346.04999</ele>
        <time>2024-10-15T05:59:15.000Z</time>
      </trkpt>
      <trkpt lat="45.546908" lon="7.832863">
        <ele>346.35498</ele>
        <time>2024-10-15T05:59:19.000Z</time>
      </trkpt>
      <trkpt lat="45.546918" lon="7.832887">
        <ele>346.62</ele>
        <time>2024-10-15T05:59:21.000Z</time>
      </trkpt>
      <trkpt lat="45.546937" lon="7.83288">
        <ele>346.81</ele>
        <time>2024-10-15T05:59:23.000Z</time>
      </trkpt>
      <trkpt lat="45.546965" lon="7.832873">
        <ele>346.95001</ele>
        <time>2024-10-15T05:59:25.000Z</time>
      </trkpt>
      <trkpt lat="45.546983" lon="7.832865">
        <ele>347.03998</ele>
        <time>2024-10-15T05:59:26.000Z</time>
      </trkpt>
      <trkpt lat="45.547003" lon="7.832862">
        <ele>347.065</ele>
        <time>2024-10-15T05:59:27.000Z</time>
      </trkpt>
      <trkpt lat="45.547027" lon="7.832858">
        <ele>347.09</ele>
        <time>2024-10-15T05:59:29.000Z</time>
      </trkpt>
      <trkpt lat="45.547052" lon="7.832853">
        <ele>347.02496</ele>
        <time>2024-10-15T05:59:31.000Z</time>
      </trkpt>
      <trkpt lat="45.54707" lon="7.832845">
        <ele>346.89496</ele>
        <time>2024-10-15T05:59:32.000Z</time>
      </trkpt>
      <trkpt lat="45.547108" lon="7.832832">
        <ele>346.71997</ele>
        <time>2024-10-15T05:59:34.000Z</time>
      </trkpt>
      <trkpt lat="45.547132" lon="7.832817">
        <ele>346.53998</ele>
        <time>2024-10-15T05:59:35.000Z</time>
      </trkpt>
      <trkpt lat="45.547153" lon="7.832807">
        <ele>346.33496</ele>
        <time>2024-10-15T05:59:36.000Z</time>
      </trkpt>
      <trkpt lat="45.547177" lon="7.832797">
        <ele>346.13995</ele>
        <time>2024-10-15T05:59:37.000Z</time>
      </trkpt>
      <trkpt lat="45.547193" lon="7.832785">
        <ele>345.94998</ele>
        <time>2024-10-15T05:59:38.000Z</time>
      </trkpt>
      <trkpt lat="45.547213" lon="7.832772">
        <ele>345.79999</ele>
        <time>2024-10-15T05:59:39.000Z</time>
      </trkpt>
      <trkpt lat="45.547243" lon="7.832748">
        <ele>345.69</ele>
        <time>2024-10-15T05:59:41.000Z</time>
      </trkpt>
      <trkpt lat="45.547272" lon="7.832725">
        <ele>345.64999</ele>
        <time>2024-10-15T05:59:43.000Z</time>
      </trkpt>
      <trkpt lat="45.547288" lon="7.832695">
        <ele>345.655</ele>
        <time>2024-10-15T05:59:45.000Z</time>
      </trkpt>
      <trkpt lat="45.547312" lon="7.832673">
        <ele>345.71002</ele>
        <time>2024-10-15T05:59:47.000Z</time>
      </trkpt>
      <trkpt lat="45.54734" lon="7.83266">
        <ele>345.77502</ele>
        <time>2024-10-15T05:59:50.000Z</time>
      </trkpt>
      <trkpt lat="45.547363" lon="7.832645">
        <ele>345.90503</ele>
        <time>2024-10-15T05:59:52.000Z</time>
      </trkpt>
      <trkpt lat="45.547385" lon="7.832638">
        <ele>346.00504</ele>
        <time>2024-10-15T05:59:54.000Z</time>
      </trkpt>
      <trkpt lat="45.547403" lon="7.832632">
        <ele>346.07501</ele>
        <time>2024-10-15T05:59:56.000Z</time>
      </trkpt>
      <trkpt lat="45.547433" lon="7.832615">
        <ele>346.05499</ele>
        <time>2024-10-15T05:59:59.000Z</time>
      </trkpt>
      <trkpt lat="45.54745" lon="7.832603">
        <ele>346.035</ele>
        <time>2024-10-15T06:00:00.000Z</time>
      </trkpt>
      <trkpt lat="45.547478" lon="7.832583">
        <ele>346.01001</ele>
        <time>2024-10-15T06:00:02.000Z</time>
      </trkpt>
      <trkpt lat="45.547505" lon="7.832568">
        <ele>346.005</ele>
        <time>2024-10-15T06:00:04.000Z</time>
      </trkpt>
      <trkpt lat="45.547532" lon="7.832548">
        <ele>346.02002</ele>
        <time>2024-10-15T06:00:07.000Z</time>
      </trkpt>
      <trkpt lat="45.54756" lon="7.832528">
        <ele>346.06003</ele>
        <time>2024-10-15T06:00:09.000Z</time>
      </trkpt>
      <trkpt lat="45.547577" lon="7.832517">
        <ele>346.12006</ele>
        <time>2024-10-15T06:00:10.000Z</time>
      </trkpt>
      <trkpt lat="45.5476" lon="7.832497">
        <ele>346.19003</ele>
        <time>2024-10-15T06:00:12.000Z</time>
      </trkpt>
      <trkpt lat="45.547615" lon="7.832472">
        <ele>346.27005</ele>
        <time>2024-10-15T06:00:14.000Z</time>
      </trkpt>
      <trkpt lat="45.547637" lon="7.832452">
        <ele>346.32004</ele>
        <time>2024-10-15T06:00:17.000Z</time>
      </trkpt>
      <trkpt lat="45.54765" lon="7.832433">
        <ele>346.35004</ele>
        <time>2024-10-15T06:00:20.000Z</time>
        <name>Piazza Vittorio Emanuele, Settimo Vittone</name>
        <extensions>
          <oa:locType>tourGap</oa:locType>
          <oa:address>{
  &quot;title&quot; : &quot;Piazza Vittorio Emanuele, Settimo Vittone&quot;
}</oa:address>
        </extensions>
      </trkpt>
      <trkpt lat="45.54763" lon="7.832477">
        <ele>346.39505</ele>
        <time>2024-10-15T06:02:03.000Z</time>
        <name>Carta dei sentieri, Settimo Vittone</name>
        <extensions>
          <oa:address>{
  &quot;title&quot; : &quot;Carta dei sentieri, Settimo Vittone&quot;
}</oa:address>
        </extensions>
      </trkpt>
      <trkpt lat="45.547658" lon="7.83246">
        <ele>346.49005</ele>
        <time>2024-10-15T06:02:05.000Z</time>
      </trkpt>
      <trkpt lat="45.54768" lon="7.832435">
        <ele>346.62003</ele>
        <time>2024-10-15T06:02:07.000Z</time>
      </trkpt>
      <trkpt lat="45.5477" lon="7.832422">
        <ele>346.72003</ele>
        <time>2024-10-15T06:02:08.000Z</time>
      </trkpt>
      <trkpt lat="45.547727" lon="7.832402">
        <ele>346.79501</ele>
        <time>2024-10-15T06:02:10.000Z</time>
      </trkpt>
      <trkpt lat="45.547745" lon="7.832387">
        <ele>346.91</ele>
        <time>2024-10-15T06:02:12.000Z</time>
      </trkpt>
      <trkpt lat="45.547762" lon="7.832373">
        <ele>347.03</ele>
        <time>2024-10-15T06:02:14.000Z</time>
      </trkpt>
      <trkpt lat="45.547788" lon="7.832363">
        <ele>347.215</ele>
        <time>2024-10-15T06:02:16.000Z</time>
      </trkpt>
      <trkpt lat="45.54781" lon="7.832355">
        <ele>347.45502</ele>
        <time>2024-10-15T06:02:18.000Z</time>
      </trkpt>
      <trkpt lat="45.54783" lon="7.83235">
        <ele>347.77502</ele>
        <time>2024-10-15T06:02:21.000Z</time>
      </trkpt>
      <trkpt lat="45.547863" lon="7.832338">
        <ele>348.07501</ele>
        <time>2024-10-15T06:02:24.000Z</time>
      </trkpt>
      <trkpt lat="45.547882" lon="7.832343">
        <ele>348.35004</ele>
        <time>2024-10-15T06:02:25.000Z</time>
      </trkpt>
      <trkpt lat="45.547902" lon="7.832342">
        <ele>348.58002</ele>
        <time>2024-10-15T06:02:26.000Z</time>
      </trkpt>
      <trkpt lat="45.547932" lon="7.83231">
        <ele>348.72504</ele>
        <time>2024-10-15T06:02:27.000Z</time>
      </trkpt>
      <trkpt lat="45.547953" lon="7.832278">
        <ele>348.78</ele>
        <time>2024-10-15T06:02:28.000Z</time>
      </trkpt>
      <trkpt lat="45.54797" lon="7.832257">
        <ele>348.79999</ele>
        <time>2024-10-15T06:02:29.000Z</time>
      </trkpt>
      <trkpt lat="45.547985" lon="7.832238">
        <ele>348.79999</ele>
        <time>2024-10-15T06:02:30.000Z</time>
      </trkpt>
      <trkpt lat="45.548003" lon="7.8322">
        <ele>348.79999</ele>
        <time>2024-10-15T06:02:32.000Z</time>
      </trkpt>
      <trkpt lat="45.548028" lon="7.832177">
        <ele>348.82001</ele>
        <time>2024-10-15T06:02:34.000Z</time>
      </trkpt>
      <trkpt lat="45.548045" lon="7.832162">
        <ele>348.82999</ele>
        <time>2024-10-15T06:02:36.000Z</time>
      </trkpt>
      <trkpt lat="45.54807" lon="7.83214">
        <ele>348.82498</ele>
        <time>2024-10-15T06:02:38.000Z</time>
      </trkpt>
      <trkpt lat="45.548098" lon="7.832115">
        <ele>348.73495</ele>
        <time>2024-10-15T06:02:40.000Z</time>
      </trkpt>
      <trkpt lat="45.548122" lon="7.83208">
        <ele>348.58496</ele>
        <time>2024-10-15T06:02:42.000Z</time>
      </trkpt>
      <trkpt lat="45.548138" lon="7.832053">
        <ele>348.46994</ele>
        <time>2024-10-15T06:02:43.000Z</time>
      </trkpt>
      <trkpt lat="45.548148" lon="7.832023">
        <ele>348.37994</ele>
        <time>2024-10-15T06:02:44.000Z</time>
      </trkpt>
      <trkpt lat="45.54816" lon="7.831977">
        <ele>348.33493</ele>
        <time>2024-10-15T06:02:46.000Z</time>
      </trkpt>
      <trkpt lat="45.548177" lon="7.831933">
        <ele>348.32492</ele>
        <time>2024-10-15T06:02:48.000Z</time>
      </trkpt>
      <trkpt lat="45.548177" lon="7.83188">
        <ele>348.24493</ele>
        <time>2024-10-15T06:02:50.000Z</time>
      </trkpt>
      <trkpt lat="45.548173" lon="7.831833">
        <ele>348.11993</ele>
        <time>2024-10-15T06:02:52.000Z</time>
      </trkpt>
      <trkpt lat="45.548183" lon="7.831798">
        <ele>347.97992</ele>
        <time>2024-10-15T06:02:54.000Z</time>
      </trkpt>
      <trkpt lat="45.548198" lon="7.831762">
        <ele>347.81992</ele>
        <time>2024-10-15T06:02:56.000Z</time>
      </trkpt>
      <trkpt lat="45.548215" lon="7.831733">
        <ele>347.67993</ele>
        <time>2024-10-15T06:02:58.000Z</time>
      </trkpt>
      <trkpt lat="45.54825" lon="7.831718">
        <ele>347.58994</ele>
        <time>2024-10-15T06:03:00.000Z</time>
      </trkpt>
      <trkpt lat="45.548275" lon="7.83172">
        <ele>347.57492</ele>
        <time>2024-10-15T06:03:01.000Z</time>
      </trkpt>
      <trkpt lat="45.548298" lon="7.83172">
        <ele>347.63495</ele>
        <time>2024-10-15T06:03:02.000Z</time>
      </trkpt>
      <trkpt lat="45.548328" lon="7.831707">
        <ele>347.74493</ele>
        <time>2024-10-15T06:03:04.000Z</time>
      </trkpt>
      <trkpt lat="45.54835" lon="7.831667">
        <ele>347.89496</ele>
        <time>2024-10-15T06:03:06.000Z</time>
      </trkpt>
      <trkpt lat="45.54836" lon="7.83164">
        <ele>348.02997</ele>
        <time>2024-10-15T06:03:07.000Z</time>
      </trkpt>
      <trkpt lat="45.54837" lon="7.831615">
        <ele>348.20496</ele>
        <time>2024-10-15T06:03:09.000Z</time>
      </trkpt>
      <trkpt lat="45.548385" lon="7.831597">
        <ele>348.42499</ele>
        <time>2024-10-15T06:03:11.000Z</time>
      </trkpt>
      <trkpt lat="45.548405" lon="7.83158">
        <ele>348.65997</ele>
        <time>2024-10-15T06:03:13.000Z</time>
      </trkpt>
      <trkpt lat="45.548417" lon="7.831558">
        <ele>348.91998</ele>
        <time>2024-10-15T06:03:14.000Z</time>
      </trkpt>
      <trkpt lat="45.548445" lon="7.831525">
        <ele>349.20502</ele>
        <time>2024-10-15T06:03:16.000Z</time>
      </trkpt>
      <trkpt lat="45.54846" lon="7.83151">
        <ele>349.47003</ele>
        <time>2024-10-15T06:03:17.000Z</time>
      </trkpt>
      <trkpt lat="45.54849" lon="7.831498">
        <ele>349.67001</ele>
        <time>2024-10-15T06:03:19.000Z</time>
      </trkpt>
      <trkpt lat="45.548508" lon="7.83149">
        <ele>349.80499</ele>
        <time>2024-10-15T06:03:20.000Z</time>
      </trkpt>
      <trkpt lat="45.54854" lon="7.831468">
        <ele>349.86502</ele>
        <time>2024-10-15T06:03:22.000Z</time>
      </trkpt>
      <trkpt lat="45.548553" lon="7.831445">
        <ele>349.95502</ele>
        <time>2024-10-15T06:03:23.000Z</time>
      </trkpt>
      <trkpt lat="45.548562" lon="7.831417">
        <ele>350.07001</ele>
        <time>2024-10-15T06:03:24.000Z</time>
      </trkpt>
      <trkpt lat="45.54859" lon="7.831395">
        <ele>350.16498</ele>
        <time>2024-10-15T06:03:26.000Z</time>
      </trkpt>
      <trkpt lat="45.5486" lon="7.831372">
        <ele>350.30499</ele>
        <time>2024-10-15T06:03:27.000Z</time>
      </trkpt>
      <trkpt lat="45.548612" lon="7.831345">
        <ele>350.47</ele>
        <time>2024-10-15T06:03:29.000Z</time>
      </trkpt>
      <trkpt lat="45.54863" lon="7.831328">
        <ele>350.625</ele>
        <time>2024-10-15T06:03:31.000Z</time>
      </trkpt>
      <trkpt lat="45.548653" lon="7.83131">
        <ele>350.77002</ele>
        <time>2024-10-15T06:03:33.000Z</time>
      </trkpt>
      <trkpt lat="45.548672" lon="7.8313">
        <ele>350.92502</ele>
        <time>2024-10-15T06:03:34.000Z</time>
      </trkpt>
      <trkpt lat="45.548698" lon="7.831295">
        <ele>351.08502</ele>
        <time>2024-10-15T06:03:36.000Z</time>
      </trkpt>
      <trkpt lat="45.54873" lon="7.83128">
        <ele>351.16501</ele>
        <time>2024-10-15T06:03:38.000Z</time>
      </trkpt>
      <trkpt lat="45.548742" lon="7.831247">
        <ele>351.21002</ele>
        <time>2024-10-15T06:03:40.000Z</time>
      </trkpt>
      <trkpt lat="45.548752" lon="7.831215">
        <ele>351.185</ele>
        <time>2024-10-15T06:03:42.000Z</time>
      </trkpt>
      <trkpt lat="45.548765" lon="7.83119">
        <ele>351.12</ele>
        <time>2024-10-15T06:03:44.000Z</time>
      </trkpt>
      <trkpt lat="45.548785" lon="7.831203">
        <ele>351.03497</ele>
        <time>2024-10-15T06:03:45.000Z</time>
      </trkpt>
      <trkpt lat="45.54881" lon="7.831212">
        <ele>350.94</ele>
        <time>2024-10-15T06:03:46.000Z</time>
      </trkpt>
      <trkpt lat="45.548837" lon="7.831222">
        <ele>350.83499</ele>
        <time>2024-10-15T06:03:47.000Z</time>
      </trkpt>
      <trkpt lat="45.548863" lon="7.831227">
        <ele>350.72498</ele>
        <time>2024-10-15T06:03:48.000Z</time>
      </trkpt>
      <trkpt lat="45.548885" lon="7.831227">
        <ele>350.66498</ele>
        <time>2024-10-15T06:03:49.000Z</time>
      </trkpt>
      <trkpt lat="45.548903" lon="7.831227">
        <ele>350.625</ele>
        <time>2024-10-15T06:03:50.000Z</time>
      </trkpt>
      <trkpt lat="45.548935" lon="7.8312">
        <ele>350.61499</ele>
        <time>2024-10-15T06:03:52.000Z</time>
      </trkpt>
      <trkpt lat="45.548955" lon="7.83117">
        <ele>350.61499</ele>
        <time>2024-10-15T06:03:54.000Z</time>
      </trkpt>
      <trkpt lat="45.54896" lon="7.83114">
        <ele>350.625</ele>
        <time>2024-10-15T06:03:55.000Z</time>
      </trkpt>
      <trkpt lat="45.548962" lon="7.83111">
        <ele>350.69501</ele>
        <time>2024-10-15T06:03:56.000Z</time>
      </trkpt>
      <trkpt lat="45.548965" lon="7.831082">
        <ele>350.78</ele>
        <time>2024-10-15T06:03:57.000Z</time>
      </trkpt>
      <trkpt lat="45.54898" lon="7.83105">
        <ele>350.87003</ele>
        <time>2024-10-15T06:03:59.000Z</time>
      </trkpt>
      <trkpt lat="45.549007" lon="7.831023">
        <ele>350.96503</ele>
        <time>2024-10-15T06:04:01.000Z</time>
      </trkpt>
      <trkpt lat="45.549032" lon="7.831">
        <ele>351.07501</ele>
        <time>2024-10-15T06:04:03.000Z</time>
      </trkpt>
      <trkpt lat="45.549052" lon="7.831025">
        <ele>351.20502</ele>
        <time>2024-10-15T06:04:05.000Z</time>
      </trkpt>
      <trkpt lat="45.549065" lon="7.831002">
        <ele>351.33002</ele>
        <time>2024-10-15T06:04:07.000Z</time>
      </trkpt>
      <trkpt lat="45.549068" lon="7.83095">
        <ele>351.52499</ele>
        <time>2024-10-15T06:04:09.000Z</time>
      </trkpt>
      <trkpt lat="45.549067" lon="7.830907">
        <ele>351.76498</ele>
        <time>2024-10-15T06:04:10.000Z</time>
      </trkpt>
      <trkpt lat="45.549073" lon="7.83086">
        <ele>352.04999</ele>
        <time>2024-10-15T06:04:12.000Z</time>
      </trkpt>
      <trkpt lat="45.549088" lon="7.830845">
        <ele>352.345</ele>
        <time>2024-10-15T06:04:13.000Z</time>
      </trkpt>
      <trkpt lat="45.549093" lon="7.830787">
        <ele>352.62</ele>
        <time>2024-10-15T06:04:15.000Z</time>
      </trkpt>
      <trkpt lat="45.549125" lon="7.830778">
        <ele>352.845</ele>
        <time>2024-10-15T06:04:19.000Z</time>
      </trkpt>
      <trkpt lat="45.54915" lon="7.830783">
        <ele>353.095</ele>
        <time>2024-10-15T06:04:20.000Z</time>
      </trkpt>
      <trkpt lat="45.549168" lon="7.830775">
        <ele>353.36499</ele>
        <time>2024-10-15T06:04:22.000Z</time>
      </trkpt>
      <trkpt lat="45.549185" lon="7.83076">
        <ele>353.63498</ele>
        <time>2024-10-15T06:04:23.000Z</time>
      </trkpt>
      <trkpt lat="45.549203" lon="7.830737">
        <ele>353.90497</ele>
        <time>2024-10-15T06:04:24.000Z</time>
      </trkpt>
      <trkpt lat="45.549228" lon="7.830722">
        <ele>354.19501</ele>
        <time>2024-10-15T06:04:26.000Z</time>
      </trkpt>
      <trkpt lat="45.549262" lon="7.830715">
        <ele>354.47</ele>
        <time>2024-10-15T06:04:28.000Z</time>
      </trkpt>
      <trkpt lat="45.549297" lon="7.830725">
        <ele>354.745</ele>
        <time>2024-10-15T06:04:30.000Z</time>
      </trkpt>
      <trkpt lat="45.549322" lon="7.830723">
        <ele>355.00998</ele>
        <time>2024-10-15T06:04:32.000Z</time>
      </trkpt>
      <trkpt lat="45.549342" lon="7.830708">
        <ele>355.28998</ele>
        <time>2024-10-15T06:04:34.000Z</time>
      </trkpt>
      <trkpt lat="45.549367" lon="7.83071">
        <ele>355.565</ele>
        <time>2024-10-15T06:04:36.000Z</time>
      </trkpt>
      <trkpt lat="45.549405" lon="7.83069">
        <ele>355.79498</ele>
        <time>2024-10-15T06:04:38.000Z</time>
      </trkpt>
      <trkpt lat="45.549425" lon="7.830688">
        <ele>355.995</ele>
        <time>2024-10-15T06:04:39.000Z</time>
      </trkpt>
      <trkpt lat="45.549457" lon="7.830695">
        <ele>356.15497</ele>
        <time>2024-10-15T06:04:40.000Z</time>
      </trkpt>
      <trkpt lat="45.549483" lon="7.830705">
        <ele>356.245</ele>
        <time>2024-10-15T06:04:41.000Z</time>
      </trkpt>
      <trkpt lat="45.549513" lon="7.83069">
        <ele>356.29498</ele>
        <time>2024-10-15T06:04:43.000Z</time>
      </trkpt>
      <trkpt lat="45.54954" lon="7.830695">
        <ele>356.32001</ele>
        <time>2024-10-15T06:04:45.000Z</time>
      </trkpt>
      <trkpt lat="45.549562" lon="7.830697">
        <ele>356.32999</ele>
        <time>2024-10-15T06:04:46.000Z</time>
      </trkpt>
      <trkpt lat="45.549587" lon="7.830697">
        <ele>356.25998</ele>
        <time>2024-10-15T06:04:49.000Z</time>
      </trkpt>
      <trkpt lat="45.549635" lon="7.8307">
        <ele>356.185</ele>
        <time>2024-10-15T06:04:50.000Z</time>
      </trkpt>
      <trkpt lat="45.54966" lon="7.83069">
        <ele>356.17499</ele>
        <time>2024-10-15T06:04:51.000Z</time>
      </trkpt>
      <trkpt lat="45.549683" lon="7.830678">
        <ele>356.12997</ele>
        <time>2024-10-15T06:04:52.000Z</time>
      </trkpt>
      <trkpt lat="45.549702" lon="7.830667">
        <ele>356.07001</ele>
        <time>2024-10-15T06:04:53.000Z</time>
      </trkpt>
      <trkpt lat="45.549718" lon="7.830622">
        <ele>356.07501</ele>
        <time>2024-10-15T06:04:55.000Z</time>
      </trkpt>
      <trkpt lat="45.549725" lon="7.83059">
        <ele>356.08502</ele>
        <time>2024-10-15T06:04:56.000Z</time>
      </trkpt>
      <trkpt lat="45.549738" lon="7.830572">
        <ele>356.11502</ele>
        <time>2024-10-15T06:04:57.000Z</time>
      </trkpt>
      <trkpt lat="45.549762" lon="7.830552">
        <ele>356.21503</ele>
        <time>2024-10-15T06:04:59.000Z</time>
      </trkpt>
      <trkpt lat="45.54979" lon="7.830528">
        <ele>356.33502</ele>
        <time>2024-10-15T06:05:01.000Z</time>
      </trkpt>
      <trkpt lat="45.549808" lon="7.830522">
        <ele>356.44</ele>
        <time>2024-10-15T06:05:02.000Z</time>
      </trkpt>
      <trkpt lat="45.549837" lon="7.830512">
        <ele>356.505</ele>
        <time>2024-10-15T06:05:04.000Z</time>
      </trkpt>
      <trkpt lat="45.549867" lon="7.830495">
        <ele>356.55499</ele>
        <time>2024-10-15T06:05:06.000Z</time>
      </trkpt>
      <trkpt lat="45.549893" lon="7.830483">
        <ele>356.62</ele>
        <time>2024-10-15T06:05:08.000Z</time>
      </trkpt>
      <trkpt lat="45.549922" lon="7.830472">
        <ele>356.72</ele>
        <time>2024-10-15T06:05:10.000Z</time>
      </trkpt>
      <trkpt lat="45.549942" lon="7.830453">
        <ele>356.85001</ele>
        <time>2024-10-15T06:05:12.000Z</time>
      </trkpt>
      <trkpt lat="45.549963" lon="7.830435">
        <ele>357.03497</ele>
        <time>2024-10-15T06:05:14.000Z</time>
      </trkpt>
      <trkpt lat="45.549985" lon="7.830402">
        <ele>357.245</ele>
        <time>2024-10-15T06:05:16.000Z</time>
      </trkpt>
      <trkpt lat="45.549995" lon="7.830375">
        <ele>357.47501</ele>
        <time>2024-10-15T06:05:18.000Z</time>
      </trkpt>
      <trkpt lat="45.550022" lon="7.83036">
        <ele>357.76501</ele>
        <time>2024-10-15T06:05:21.000Z</time>
      </trkpt>
      <trkpt lat="45.550043" lon="7.830352">
        <ele>358.16501</ele>
        <time>2024-10-15T06:05:23.000Z</time>
      </trkpt>
      <trkpt lat="45.55007" lon="7.830335">
        <ele>358.61502</ele>
        <time>2024-10-15T06:05:25.000Z</time>
      </trkpt>
      <trkpt lat="45.550093" lon="7.83031">
        <ele>358.98004</ele>
        <time>2024-10-15T06:05:26.000Z</time>
      </trkpt>
      <trkpt lat="45.550118" lon="7.830297">
        <ele>359.30002</ele>
        <time>2024-10-15T06:05:27.000Z</time>
      </trkpt>
      <trkpt lat="45.55014" lon="7.830292">
        <ele>359.56</ele>
        <time>2024-10-15T06:05:28.000Z</time>
      </trkpt>
      <trkpt lat="45.550175" lon="7.83028">
        <ele>359.69</ele>
        <time>2024-10-15T06:05:30.000Z</time>
      </trkpt>
      <trkpt lat="45.550195" lon="7.830273">
        <ele>359.78497</ele>
        <time>2024-10-15T06:05:31.000Z</time>
      </trkpt>
      <trkpt lat="45.550217" lon="7.830273">
        <ele>359.85498</ele>
        <time>2024-10-15T06:05:32.000Z</time>
      </trkpt>
      <trkpt lat="45.550237" lon="7.83027">
        <ele>359.86499</ele>
        <time>2024-10-15T06:05:33.000Z</time>
      </trkpt>
      <trkpt lat="45.55026" lon="7.83027">
        <ele>359.85999</ele>
        <time>2024-10-15T06:05:34.000Z</time>
      </trkpt>
      <trkpt lat="45.550285" lon="7.830268">
        <ele>359.86996</ele>
        <time>2024-10-15T06:05:35.000Z</time>
      </trkpt>
      <trkpt lat="45.550307" lon="7.830265">
        <ele>359.90997</ele>
        <time>2024-10-15T06:05:36.000Z</time>
      </trkpt>
      <trkpt lat="45.550332" lon="7.830262">
        <ele>359.95999</ele>
        <time>2024-10-15T06:05:37.000Z</time>
      </trkpt>
      <trkpt lat="45.55035" lon="7.830265">
        <ele>360.02496</ele>
        <time>2024-10-15T06:05:38.000Z</time>
      </trkpt>
      <trkpt lat="45.550368" lon="7.830262">
        <ele>360.07498</ele>
        <time>2024-10-15T06:05:39.000Z</time>
      </trkpt>
      <trkpt lat="45.5504" lon="7.830262">
        <ele>360.09998</ele>
        <time>2024-10-15T06:05:41.000Z</time>
      </trkpt>
      <trkpt lat="45.55042" lon="7.830262">
        <ele>360.10999</ele>
        <time>2024-10-15T06:05:42.000Z</time>
      </trkpt>
      <trkpt lat="45.550453" lon="7.830248">
        <ele>360.09998</ele>
        <time>2024-10-15T06:05:44.000Z</time>
      </trkpt>
      <trkpt lat="45.550472" lon="7.830247">
        <ele>360.06998</ele>
        <time>2024-10-15T06:05:45.000Z</time>
      </trkpt>
      <trkpt lat="45.5505" lon="7.830237">
        <ele>359.94995</ele>
        <time>2024-10-15T06:05:47.000Z</time>
      </trkpt>
      <trkpt lat="45.550525" lon="7.830218">
        <ele>359.81995</ele>
        <time>2024-10-15T06:05:49.000Z</time>
      </trkpt>
      <trkpt lat="45.550552" lon="7.830215">
        <ele>359.63495</ele>
        <time>2024-10-15T06:05:51.000Z</time>
      </trkpt>
      <trkpt lat="45.550577" lon="7.830193">
        <ele>359.49493</ele>
        <time>2024-10-15T06:05:53.000Z</time>
      </trkpt>
      <trkpt lat="45.550602" lon="7.830182">
        <ele>359.36993</ele>
        <time>2024-10-15T06:05:55.000Z</time>
      </trkpt>
      <trkpt lat="45.550625" lon="7.830167">
        <ele>359.27493</ele>
        <time>2024-10-15T06:05:57.000Z</time>
      </trkpt>
      <trkpt lat="45.550647" lon="7.830147">
        <ele>359.23993</ele>
        <time>2024-10-15T06:05:59.000Z</time>
      </trkpt>
      <trkpt lat="45.550673" lon="7.830137">
        <ele>359.24994</ele>
        <time>2024-10-15T06:06:01.000Z</time>
      </trkpt>
      <trkpt lat="45.550695" lon="7.830138">
        <ele>359.22995</ele>
        <time>2024-10-15T06:06:03.000Z</time>
      </trkpt>
      <trkpt lat="45.550713" lon="7.830147">
        <ele>359.21494</ele>
        <time>2024-10-15T06:06:05.000Z</time>
      </trkpt>
      <trkpt lat="45.550732" lon="7.830155">
        <ele>359.21994</ele>
        <time>2024-10-15T06:06:07.000Z</time>
      </trkpt>
      <trkpt lat="45.550755" lon="7.83017">
        <ele>359.27496</ele>
        <time>2024-10-15T06:06:09.000Z</time>
      </trkpt>
      <trkpt lat="45.55079" lon="7.830177">
        <ele>359.33994</ele>
        <time>2024-10-15T06:06:11.000Z</time>
      </trkpt>
      <trkpt lat="45.550815" lon="7.830177">
        <ele>359.40494</ele>
        <time>2024-10-15T06:06:12.000Z</time>
      </trkpt>
      <trkpt lat="45.550838" lon="7.830182">
        <ele>359.44995</ele>
        <time>2024-10-15T06:06:13.000Z</time>
      </trkpt>
      <trkpt lat="45.55086" lon="7.830187">
        <ele>359.46994</ele>
        <time>2024-10-15T06:06:14.000Z</time>
      </trkpt>
      <trkpt lat="45.550882" lon="7.830187">
        <ele>359.45993</ele>
        <time>2024-10-15T06:06:15.000Z</time>
      </trkpt>
      <trkpt lat="45.550902" lon="7.830192">
        <ele>359.41992</ele>
        <time>2024-10-15T06:06:16.000Z</time>
      </trkpt>
      <trkpt lat="45.550927" lon="7.830197">
        <ele>359.36993</ele>
        <time>2024-10-15T06:06:17.000Z</time>
      </trkpt>
      <trkpt lat="45.550947" lon="7.830197">
        <ele>359.30994</ele>
        <time>2024-10-15T06:06:18.000Z</time>
      </trkpt>
      <trkpt lat="45.550968" lon="7.830188">
        <ele>359.28494</ele>
        <time>2024-10-15T06:06:19.000Z</time>
      </trkpt>
      <trkpt lat="45.550997" lon="7.830192">
        <ele>359.22495</ele>
        <time>2024-10-15T06:06:21.000Z</time>
      </trkpt>
      <trkpt lat="45.551023" lon="7.830203">
        <ele>359.16998</ele>
        <time>2024-10-15T06:06:23.000Z</time>
      </trkpt>
      <trkpt lat="45.551045" lon="7.830192">
        <ele>359.10999</ele>
        <time>2024-10-15T06:06:25.000Z</time>
      </trkpt>
      <trkpt lat="45.551067" lon="7.830178">
        <ele>359.03998</ele>
        <time>2024-10-15T06:06:27.000Z</time>
      </trkpt>
      <trkpt lat="45.55108" lon="7.830147">
        <ele>359.0</ele>
        <time>2024-10-15T06:06:29.000Z</time>
      </trkpt>
      <trkpt lat="45.5511" lon="7.830132">
        <ele>358.965</ele>
        <time>2024-10-15T06:06:31.000Z</time>
      </trkpt>
      <trkpt lat="45.551127" lon="7.83011">
        <ele>358.90997</ele>
        <time>2024-10-15T06:06:33.000Z</time>
      </trkpt>
      <trkpt lat="45.551142" lon="7.830092">
        <ele>358.88995</ele>
        <time>2024-10-15T06:06:34.000Z</time>
      </trkpt>
      <trkpt lat="45.551153" lon="7.830067">
        <ele>358.87997</ele>
        <time>2024-10-15T06:06:35.000Z</time>
      </trkpt>
      <trkpt lat="45.551167" lon="7.830043">
        <ele>358.84998</ele>
        <time>2024-10-15T06:06:36.000Z</time>
      </trkpt>
      <trkpt lat="45.551192" lon="7.830028">
        <ele>358.77496</ele>
        <time>2024-10-15T06:06:38.000Z</time>
      </trkpt>
      <trkpt lat="45.551223" lon="7.830027">
        <ele>358.66498</ele>
        <time>2024-10-15T06:06:40.000Z</time>
      </trkpt>
      <trkpt lat="45.551242" lon="7.830032">
        <ele>358.54999</ele>
        <time>2024-10-15T06:06:41.000Z</time>
      </trkpt>
      <trkpt lat="45.55126" lon="7.830017">
        <ele>358.45999</ele>
        <time>2024-10-15T06:06:43.000Z</time>
      </trkpt>
      <trkpt lat="45.551283" lon="7.830017">
        <ele>358.35999</ele>
        <time>2024-10-15T06:06:45.000Z</time>
      </trkpt>
      <trkpt lat="45.551303" lon="7.830018">
        <ele>358.255</ele>
        <time>2024-10-15T06:06:48.000Z</time>
      </trkpt>
      <trkpt lat="45.551327" lon="7.829998">
        <ele>358.20001</ele>
        <time>2024-10-15T06:06:51.000Z</time>
      </trkpt>
      <trkpt lat="45.551338" lon="7.829972">
        <ele>358.16003</ele>
        <time>2024-10-15T06:06:54.000Z</time>
      </trkpt>
      <trkpt lat="45.551345" lon="7.829945">
        <ele>358.12003</ele>
        <time>2024-10-15T06:06:56.000Z</time>
      </trkpt>
      <trkpt lat="45.55137" lon="7.829918">
        <ele>358.04501</ele>
        <time>2024-10-15T06:06:58.000Z</time>
      </trkpt>
      <trkpt lat="45.551388" lon="7.829895">
        <ele>357.98502</ele>
        <time>2024-10-15T06:07:00.000Z</time>
      </trkpt>
      <trkpt lat="45.551405" lon="7.82986">
        <ele>357.91</ele>
        <time>2024-10-15T06:07:02.000Z</time>
      </trkpt>
      <trkpt lat="45.55143" lon="7.829828">
        <ele>357.78998</ele>
        <time>2024-10-15T06:07:04.000Z</time>
      </trkpt>
      <trkpt lat="45.551453" lon="7.829798">
        <ele>357.65997</ele>
        <time>2024-10-15T06:07:06.000Z</time>
      </trkpt>
      <trkpt lat="45.551475" lon="7.82977">
        <ele>357.47498</ele>
        <time>2024-10-15T06:07:08.000Z</time>
      </trkpt>
      <trkpt lat="45.551493" lon="7.829747">
        <ele>357.23499</ele>
        <time>2024-10-15T06:07:16.000Z</time>
      </trkpt>
      <trkpt lat="45.551515" lon="7.829718">
        <ele>357.00998</ele>
        <time>2024-10-15T06:07:18.000Z</time>
      </trkpt>
      <trkpt lat="45.551545" lon="7.829697">
        <ele>356.78998</ele>
        <time>2024-10-15T06:07:20.000Z</time>
      </trkpt>
      <trkpt lat="45.551575" lon="7.829675">
        <ele>356.54498</ele>
        <time>2024-10-15T06:07:22.000Z</time>
      </trkpt>
      <trkpt lat="45.551593" lon="7.829665">
        <ele>356.30499</ele>
        <time>2024-10-15T06:07:23.000Z</time>
      </trkpt>
      <trkpt lat="45.55162" lon="7.829658">
        <ele>356.07498</ele>
        <time>2024-10-15T06:07:25.000Z</time>
      </trkpt>
      <trkpt lat="45.551655" lon="7.82965">
        <ele>355.86496</ele>
        <time>2024-10-15T06:07:27.000Z</time>
      </trkpt>
      <trkpt lat="45.551673" lon="7.829648">
        <ele>355.67496</ele>
        <time>2024-10-15T06:07:28.000Z</time>
      </trkpt>
      <trkpt lat="45.551695" lon="7.829648">
        <ele>355.49493</ele>
        <time>2024-10-15T06:07:29.000Z</time>
      </trkpt>
      <trkpt lat="45.551713" lon="7.829647">
        <ele>355.35495</ele>
        <time>2024-10-15T06:07:30.000Z</time>
      </trkpt>
      <trkpt lat="45.551733" lon="7.829647">
        <ele>355.24994</ele>
        <time>2024-10-15T06:07:31.000Z</time>
      </trkpt>
      <trkpt lat="45.55176" lon="7.829647">
        <ele>355.11993</ele>
        <time>2024-10-15T06:07:33.000Z</time>
      </trkpt>
      <trkpt lat="45.551777" lon="7.829635">
        <ele>354.96994</ele>
        <time>2024-10-15T06:07:35.000Z</time>
      </trkpt>
      <trkpt lat="45.551808" lon="7.829635">
        <ele>354.84494</ele>
        <time>2024-10-15T06:07:37.000Z</time>
      </trkpt>
      <trkpt lat="45.55184" lon="7.829617">
        <ele>354.76495</ele>
        <time>2024-10-15T06:07:39.000Z</time>
      </trkpt>
      <trkpt lat="45.551857" lon="7.829603">
        <ele>354.67999</ele>
        <time>2024-10-15T06:07:40.000Z</time>
      </trkpt>
      <trkpt lat="45.551877" lon="7.829587">
        <ele>354.62997</ele>
        <time>2024-10-15T06:07:41.000Z</time>
      </trkpt>
      <trkpt lat="45.551893" lon="7.82957">
        <ele>354.625</ele>
        <time>2024-10-15T06:07:42.000Z</time>
      </trkpt>
      <trkpt lat="45.551918" lon="7.829548">
        <ele>354.66501</ele>
        <time>2024-10-15T06:07:44.000Z</time>
      </trkpt>
      <trkpt lat="45.551943" lon="7.829513">
        <ele>354.73001</ele>
        <time>2024-10-15T06:07:46.000Z</time>
      </trkpt>
      <trkpt lat="45.551962" lon="7.82951">
        <ele>354.83002</ele>
        <time>2024-10-15T06:07:47.000Z</time>
      </trkpt>
      <trkpt lat="45.551998" lon="7.829517">
        <ele>354.85501</ele>
        <time>2024-10-15T06:07:49.000Z</time>
      </trkpt>
      <trkpt lat="45.552017" lon="7.829515">
        <ele>354.85501</ele>
        <time>2024-10-15T06:07:50.000Z</time>
      </trkpt>
      <trkpt lat="45.552043" lon="7.8295">
        <ele>354.81</ele>
        <time>2024-10-15T06:07:52.000Z</time>
      </trkpt>
      <trkpt lat="45.55207" lon="7.829493">
        <ele>354.73999</ele>
        <time>2024-10-15T06:07:54.000Z</time>
      </trkpt>
      <trkpt lat="45.552097" lon="7.82948">
        <ele>354.66498</ele>
        <time>2024-10-15T06:07:56.000Z</time>
      </trkpt>
      <trkpt lat="45.55212" lon="7.829455">
        <ele>354.55499</ele>
        <time>2024-10-15T06:07:58.000Z</time>
      </trkpt>
      <trkpt lat="45.552143" lon="7.829437">
        <ele>354.42999</ele>
        <time>2024-10-15T06:08:00.000Z</time>
      </trkpt>
      <trkpt lat="45.552167" lon="7.829422">
        <ele>354.28998</ele>
        <time>2024-10-15T06:08:05.000Z</time>
      </trkpt>
      <trkpt lat="45.55219" lon="7.8294">
        <ele>354.12</ele>
        <time>2024-10-15T06:08:07.000Z</time>
      </trkpt>
      <trkpt lat="45.552213" lon="7.829387">
        <ele>353.94</ele>
        <time>2024-10-15T06:08:09.000Z</time>
      </trkpt>
      <trkpt lat="45.552237" lon="7.82938">
        <ele>353.75497</ele>
        <time>2024-10-15T06:08:11.000Z</time>
      </trkpt>
      <trkpt lat="45.552255" lon="7.82937">
        <ele>353.57999</ele>
        <time>2024-10-15T06:08:13.000Z</time>
      </trkpt>
      <trkpt lat="45.552277" lon="7.829348">
        <ele>353.38498</ele>
        <time>2024-10-15T06:08:15.000Z</time>
      </trkpt>
      <trkpt lat="45.552305" lon="7.829328">
        <ele>353.14996</ele>
        <time>2024-10-15T06:08:17.000Z</time>
      </trkpt>
      <trkpt lat="45.552327" lon="7.82931">
        <ele>352.90497</ele>
        <time>2024-10-15T06:08:19.000Z</time>
      </trkpt>
      <trkpt lat="45.55235" lon="7.829293">
        <ele>352.66495</ele>
        <time>2024-10-15T06:08:21.000Z</time>
      </trkpt>
      <trkpt lat="45.552373" lon="7.82927">
        <ele>352.45993</ele>
        <time>2024-10-15T06:08:23.000Z</time>
      </trkpt>
      <trkpt lat="45.552402" lon="7.829255">
        <ele>352.25995</ele>
        <time>2024-10-15T06:08:25.000Z</time>
      </trkpt>
      <trkpt lat="45.552428" lon="7.82924">
        <ele>352.06995</ele>
        <time>2024-10-15T06:08:27.000Z</time>
      </trkpt>
      <trkpt lat="45.55245" lon="7.829228">
        <ele>351.89496</ele>
        <time>2024-10-15T06:08:29.000Z</time>
      </trkpt>
      <trkpt lat="45.552477" lon="7.829213">
        <ele>351.68494</ele>
        <time>2024-10-15T06:08:40.000Z</time>
      </trkpt>
      <trkpt lat="45.552505" lon="7.829203">
        <ele>351.44495</ele>
        <time>2024-10-15T06:08:42.000Z</time>
      </trkpt>
      <trkpt lat="45.552533" lon="7.829192">
        <ele>351.23495</ele>
        <time>2024-10-15T06:08:44.000Z</time>
      </trkpt>
      <trkpt lat="45.552563" lon="7.829187">
        <ele>351.03998</ele>
        <time>2024-10-15T06:08:46.000Z</time>
      </trkpt>
      <trkpt lat="45.552582" lon="7.829187">
        <ele>350.81998</ele>
        <time>2024-10-15T06:08:47.000Z</time>
      </trkpt>
      <trkpt lat="45.552607" lon="7.829185">
        <ele>350.61996</ele>
        <time>2024-10-15T06:08:49.000Z</time>
      </trkpt>
      <trkpt lat="45.552625" lon="7.829168">
        <ele>350.41998</ele>
        <time>2024-10-15T06:08:51.000Z</time>
      </trkpt>
      <trkpt lat="45.55264" lon="7.829153">
        <ele>350.22498</ele>
        <time>2024-10-15T06:08:52.000Z</time>
      </trkpt>
      <trkpt lat="45.552668" lon="7.829128">
        <ele>350.07498</ele>
        <time>2024-10-15T06:08:54.000Z</time>
      </trkpt>
      <trkpt lat="45.552693" lon="7.829112">
        <ele>349.94998</ele>
        <time>2024-10-15T06:08:56.000Z</time>
      </trkpt>
      <trkpt lat="45.552715" lon="7.829108">
        <ele>349.815</ele>
        <time>2024-10-15T06:08:58.000Z</time>
      </trkpt>
      <trkpt lat="45.55274" lon="7.829098">
        <ele>349.685</ele>
        <time>2024-10-15T06:09:00.000Z</time>
      </trkpt>
      <trkpt lat="45.552762" lon="7.829085">
        <ele>349.56</ele>
        <time>2024-10-15T06:09:02.000Z</time>
      </trkpt>
      <trkpt lat="45.552798" lon="7.829067">
        <ele>349.45499</ele>
        <time>2024-10-15T06:09:04.000Z</time>
      </trkpt>
      <trkpt lat="45.55282" lon="7.829058">
        <ele>349.35498</ele>
        <time>2024-10-15T06:09:05.000Z</time>
      </trkpt>
      <trkpt lat="45.552845" lon="7.829053">
        <ele>349.26999</ele>
        <time>2024-10-15T06:09:06.000Z</time>
      </trkpt>
      <trkpt lat="45.552863" lon="7.829048">
        <ele>349.20001</ele>
        <time>2024-10-15T06:09:07.000Z</time>
      </trkpt>
      <trkpt lat="45.552883" lon="7.829045">
        <ele>349.12997</ele>
        <time>2024-10-15T06:09:08.000Z</time>
      </trkpt>
      <trkpt lat="45.552902" lon="7.829037">
        <ele>349.06998</ele>
        <time>2024-10-15T06:09:09.000Z</time>
      </trkpt>
      <trkpt lat="45.552923" lon="7.829043">
        <ele>348.96497</ele>
        <time>2024-10-15T06:09:10.000Z</time>
      </trkpt>
      <trkpt lat="45.552942" lon="7.829047">
        <ele>348.93497</ele>
        <time>2024-10-15T06:09:11.000Z</time>
      </trkpt>
      <trkpt lat="45.552962" lon="7.829053">
        <ele>348.92996</ele>
        <time>2024-10-15T06:09:12.000Z</time>
      </trkpt>
      <trkpt lat="45.552983" lon="7.829045">
        <ele>348.94995</ele>
        <time>2024-10-15T06:09:14.000Z</time>
      </trkpt>
      <trkpt lat="45.553" lon="7.829035">
        <ele>348.97495</ele>
        <time>2024-10-15T06:09:16.000Z</time>
      </trkpt>
      <trkpt lat="45.55302" lon="7.829023">
        <ele>348.98495</ele>
        <time>2024-10-15T06:09:18.000Z</time>
      </trkpt>
      <trkpt lat="45.553053" lon="7.82902">
        <ele>348.99496</ele>
        <time>2024-10-15T06:09:20.000Z</time>
      </trkpt>
      <trkpt lat="45.553082" lon="7.82901">
        <ele>348.99496</ele>
        <time>2024-10-15T06:09:22.000Z</time>
      </trkpt>
      <trkpt lat="45.553105" lon="7.828993">
        <ele>348.98996</ele>
        <time>2024-10-15T06:09:24.000Z</time>
      </trkpt>
      <trkpt lat="45.55313" lon="7.828972">
        <ele>348.96997</ele>
        <time>2024-10-15T06:09:26.000Z</time>
      </trkpt>
      <trkpt lat="45.553163" lon="7.82897">
        <ele>348.97498</ele>
        <time>2024-10-15T06:09:28.000Z</time>
      </trkpt>
      <trkpt lat="45.553198" lon="7.828972">
        <ele>349.04498</ele>
        <time>2024-10-15T06:09:30.000Z</time>
      </trkpt>
      <trkpt lat="45.553218" lon="7.828977">
        <ele>349.17499</ele>
        <time>2024-10-15T06:09:31.000Z</time>
      </trkpt>
      <trkpt lat="45.553247" lon="7.828977">
        <ele>349.42499</ele>
        <time>2024-10-15T06:09:33.000Z</time>
      </trkpt>
      <trkpt lat="45.553243" lon="7.829003">
        <ele>349.715</ele>
        <time>2024-10-15T06:09:36.000Z</time>
      </trkpt>
      <trkpt lat="45.553263" lon="7.82899">
        <ele>349.95502</ele>
        <time>2024-10-15T06:09:39.000Z</time>
      </trkpt>
      <trkpt lat="45.553285" lon="7.828988">
        <ele>350.125</ele>
        <time>2024-10-15T06:09:41.000Z</time>
      </trkpt>
      <trkpt lat="45.55331" lon="7.828998">
        <ele>350.26999</ele>
        <time>2024-10-15T06:09:43.000Z</time>
      </trkpt>
      <trkpt lat="45.553342" lon="7.82902">
        <ele>350.405</ele>
        <time>2024-10-15T06:09:45.000Z</time>
      </trkpt>
      <trkpt lat="45.553375" lon="7.829032">
        <ele>350.55499</ele>
        <time>2024-10-15T06:09:47.000Z</time>
      </trkpt>
      <trkpt lat="45.553407" lon="7.829038">
        <ele>350.73502</ele>
        <time>2024-10-15T06:09:49.000Z</time>
      </trkpt>
      <trkpt lat="45.553435" lon="7.829052">
        <ele>350.90503</ele>
        <time>2024-10-15T06:09:51.000Z</time>
      </trkpt>
      <trkpt lat="45.553467" lon="7.829075">
        <ele>351.09003</ele>
        <time>2024-10-15T06:09:53.000Z</time>
      </trkpt>
      <trkpt lat="45.553495" lon="7.829095">
        <ele>351.25504</ele>
        <time>2024-10-15T06:09:55.000Z</time>
      </trkpt>
      <trkpt lat="45.553523" lon="7.829105">
        <ele>351.41003</ele>
        <time>2024-10-15T06:09:57.000Z</time>
      </trkpt>
      <trkpt lat="45.553548" lon="7.829132">
        <ele>351.60504</ele>
        <time>2024-10-15T06:09:59.000Z</time>
      </trkpt>
      <trkpt lat="45.553572" lon="7.829157">
        <ele>351.81503</ele>
        <time>2024-10-15T06:10:01.000Z</time>
      </trkpt>
      <trkpt lat="45.553598" lon="7.829178">
        <ele>352.02505</ele>
        <time>2024-10-15T06:10:03.000Z</time>
      </trkpt>
      <trkpt lat="45.55362" lon="7.829193">
        <ele>352.21503</ele>
        <time>2024-10-15T06:10:04.000Z</time>
      </trkpt>
      <trkpt lat="45.553653" lon="7.829202">
        <ele>352.40503</ele>
        <time>2024-10-15T06:10:06.000Z</time>
      </trkpt>
      <trkpt lat="45.553683" lon="7.829215">
        <ele>352.55002</ele>
        <time>2024-10-15T06:10:08.000Z</time>
      </trkpt>
      <trkpt lat="45.553702" lon="7.829217">
        <ele>352.65002</ele>
        <time>2024-10-15T06:10:09.000Z</time>
      </trkpt>
      <trkpt lat="45.553725" lon="7.829223">
        <ele>352.67502</ele>
        <time>2024-10-15T06:10:11.000Z</time>
      </trkpt>
      <trkpt lat="45.553745" lon="7.829245">
        <ele>352.55502</ele>
        <time>2024-10-15T06:10:13.000Z</time>
      </trkpt>
      <trkpt lat="45.553765" lon="7.829265">
        <ele>352.41</ele>
        <time>2024-10-15T06:10:15.000Z</time>
      </trkpt>
      <trkpt lat="45.553788" lon="7.82929">
        <ele>352.33502</ele>
        <time>2024-10-15T06:10:17.000Z</time>
      </trkpt>
      <trkpt lat="45.553815" lon="7.829313">
        <ele>352.26999</ele>
        <time>2024-10-15T06:10:19.000Z</time>
      </trkpt>
      <trkpt lat="45.553842" lon="7.829332">
        <ele>352.185</ele>
        <time>2024-10-15T06:10:21.000Z</time>
      </trkpt>
      <trkpt lat="45.553863" lon="7.829352">
        <ele>352.10498</ele>
        <time>2024-10-15T06:10:23.000Z</time>
      </trkpt>
      <trkpt lat="45.55389" lon="7.82937">
        <ele>352.00497</ele>
        <time>2024-10-15T06:10:25.000Z</time>
      </trkpt>
      <trkpt lat="45.553917" lon="7.829378">
        <ele>351.89496</ele>
        <time>2024-10-15T06:10:27.000Z</time>
      </trkpt>
      <trkpt lat="45.553952" lon="7.829378">
        <ele>351.76495</ele>
        <time>2024-10-15T06:10:29.000Z</time>
      </trkpt>
      <trkpt lat="45.553978" lon="7.829385">
        <ele>351.61993</ele>
        <time>2024-10-15T06:10:31.000Z</time>
      </trkpt>
      <trkpt lat="45.554" lon="7.829395">
        <ele>351.48993</ele>
        <time>2024-10-15T06:10:33.000Z</time>
      </trkpt>
      <trkpt lat="45.554023" lon="7.829398">
        <ele>351.38995</ele>
        <time>2024-10-15T06:10:35.000Z</time>
      </trkpt>
      <trkpt lat="45.554048" lon="7.829403">
        <ele>351.28494</ele>
        <time>2024-10-15T06:10:37.000Z</time>
      </trkpt>
      <trkpt lat="45.554063" lon="7.829383">
        <ele>351.17993</ele>
        <time>2024-10-15T06:10:42.000Z</time>
      </trkpt>
      <trkpt lat="45.554082" lon="7.829383">
        <ele>351.06491</ele>
        <time>2024-10-15T06:10:45.000Z</time>
      </trkpt>
      <trkpt lat="45.554102" lon="7.829382">
        <ele>350.96991</ele>
        <time>2024-10-15T06:10:47.000Z</time>
      </trkpt>
      <trkpt lat="45.554127" lon="7.829383">
        <ele>350.87494</ele>
        <time>2024-10-15T06:10:49.000Z</time>
      </trkpt>
      <trkpt lat="45.55415" lon="7.829397">
        <ele>350.76492</ele>
        <time>2024-10-15T06:10:51.000Z</time>
      </trkpt>
      <trkpt lat="45.554182" lon="7.82941">
        <ele>350.64493</ele>
        <time>2024-10-15T06:10:53.000Z</time>
      </trkpt>
      <trkpt lat="45.554202" lon="7.829422">
        <ele>350.51993</ele>
        <time>2024-10-15T06:10:57.000Z</time>
      </trkpt>
      <trkpt lat="45.554228" lon="7.829397">
        <ele>350.29492</ele>
        <time>2024-10-15T06:11:12.000Z</time>
      </trkpt>
      <trkpt lat="45.554253" lon="7.829377">
        <ele>350.05994</ele>
        <time>2024-10-15T06:11:14.000Z</time>
      </trkpt>
      <trkpt lat="45.554272" lon="7.82935">
        <ele>349.77994</ele>
        <time>2024-10-15T06:11:16.000Z</time>
      </trkpt>
      <trkpt lat="45.554295" lon="7.829325">
        <ele>349.54495</ele>
        <time>2024-10-15T06:11:18.000Z</time>
      </trkpt>
      <trkpt lat="45.554318" lon="7.829315">
        <ele>349.35995</ele>
        <time>2024-10-15T06:11:20.000Z</time>
      </trkpt>
      <trkpt lat="45.554318" lon="7.829347">
        <ele>349.21997</ele>
        <time>2024-10-15T06:11:29.000Z</time>
      </trkpt>
      <trkpt lat="45.554303" lon="7.829362">
        <ele>349.09</ele>
        <time>2024-10-15T06:11:31.000Z</time>
      </trkpt>
      <trkpt lat="45.554322" lon="7.82937">
        <ele>348.89999</ele>
        <time>2024-10-15T06:11:39.000Z</time>
      </trkpt>
      <trkpt lat="45.554307" lon="7.829328">
        <ele>349.10501</ele>
        <time>2024-10-15T06:12:28.000Z</time>
      </trkpt>
      <trkpt lat="45.554322" lon="7.829313">
        <ele>349.31</ele>
        <time>2024-10-15T06:12:36.000Z</time>
      </trkpt>
      <trkpt lat="45.554332" lon="7.82928">
        <ele>349.48502</ele>
        <time>2024-10-15T06:12:38.000Z</time>
      </trkpt>
      <trkpt lat="45.554353" lon="7.829243">
        <ele>349.57501</ele>
        <time>2024-10-15T06:12:41.000Z</time>
      </trkpt>
      <trkpt lat="45.554365" lon="7.829212">
        <ele>349.59003</ele>
        <time>2024-10-15T06:12:43.000Z</time>
      </trkpt>
      <trkpt lat="45.554377" lon="7.829187">
        <ele>349.58502</ele>
        <time>2024-10-15T06:12:44.000Z</time>
      </trkpt>
      <trkpt lat="45.554393" lon="7.829143">
        <ele>349.56</ele>
        <time>2024-10-15T06:12:46.000Z</time>
      </trkpt>
      <trkpt lat="45.554408" lon="7.829118">
        <ele>349.52502</ele>
        <time>2024-10-15T06:12:48.000Z</time>
      </trkpt>
      <trkpt lat="45.55442" lon="7.829092">
        <ele>349.47504</ele>
        <time>2024-10-15T06:12:50.000Z</time>
      </trkpt>
      <trkpt lat="45.554427" lon="7.829067">
        <ele>349.40503</ele>
        <time>2024-10-15T06:12:52.000Z</time>
      </trkpt>
      <trkpt lat="45.554432" lon="7.829038">
        <ele>349.315</ele>
        <time>2024-10-15T06:12:54.000Z</time>
      </trkpt>
      <trkpt lat="45.55445" lon="7.829008">
        <ele>349.245</ele>
        <time>2024-10-15T06:12:56.000Z</time>
      </trkpt>
      <trkpt lat="45.55447" lon="7.82899">
        <ele>349.29999</ele>
        <time>2024-10-15T06:12:58.000Z</time>
      </trkpt>
      <trkpt lat="45.554487" lon="7.828972">
        <ele>349.32001</ele>
        <time>2024-10-15T06:13:00.000Z</time>
      </trkpt>
      <trkpt lat="45.554503" lon="7.828948">
        <ele>349.345</ele>
        <time>2024-10-15T06:13:02.000Z</time>
      </trkpt>
      <trkpt lat="45.554523" lon="7.828928">
        <ele>349.32501</ele>
        <time>2024-10-15T06:13:04.000Z</time>
      </trkpt>
      <trkpt lat="45.554547" lon="7.828917">
        <ele>349.25</ele>
        <time>2024-10-15T06:13:06.000Z</time>
      </trkpt>
      <trkpt lat="45.554565" lon="7.828902">
        <ele>349.03998</ele>
        <time>2024-10-15T06:13:11.000Z</time>
      </trkpt>
      <trkpt lat="45.554583" lon="7.828915">
        <ele>348.81998</ele>
        <time>2024-10-15T06:13:13.000Z</time>
      </trkpt>
      <trkpt lat="45.554602" lon="7.82892">
        <ele>348.67996</ele>
        <time>2024-10-15T06:13:14.000Z</time>
      </trkpt>
      <trkpt lat="45.55462" lon="7.82892">
        <ele>348.21994</ele>
        <time>2024-10-15T06:13:15.000Z</time>
      </trkpt>
      <trkpt lat="45.554647" lon="7.82892">
        <ele>347.80997</ele>
        <time>2024-10-15T06:13:17.000Z</time>
      </trkpt>
      <trkpt lat="45.554668" lon="7.82892">
        <ele>347.46497</ele>
        <time>2024-10-15T06:13:19.000Z</time>
      </trkpt>
      <trkpt lat="45.554698" lon="7.828915">
        <ele>347.17499</ele>
        <time>2024-10-15T06:13:21.000Z</time>
      </trkpt>
      <trkpt lat="45.554725" lon="7.828913">
        <ele>346.87994</ele>
        <time>2024-10-15T06:13:23.000Z</time>
      </trkpt>
      <trkpt lat="45.554728" lon="7.828883">
        <ele>346.62994</ele>
        <time>2024-10-15T06:13:25.000Z</time>
      </trkpt>
      <trkpt lat="45.554717" lon="7.828863">
        <ele>346.45496</ele>
        <time>2024-10-15T06:13:28.000Z</time>
      </trkpt>
      <trkpt lat="45.554735" lon="7.828877">
        <ele>346.35992</ele>
        <time>2024-10-15T06:13:33.000Z</time>
      </trkpt>
      <trkpt lat="45.554752" lon="7.828903">
        <ele>346.25494</ele>
        <time>2024-10-15T06:13:39.000Z</time>
      </trkpt>
      <trkpt lat="45.554772" lon="7.828897">
        <ele>346.19495</ele>
        <time>2024-10-15T06:13:41.000Z</time>
      </trkpt>
      <trkpt lat="45.554792" lon="7.82888">
        <ele>346.12494</ele>
        <time>2024-10-15T06:13:44.000Z</time>
      </trkpt>
      <trkpt lat="45.554815" lon="7.828887">
        <ele>346.05997</ele>
        <time>2024-10-15T06:13:53.000Z</time>
      </trkpt>
      <trkpt lat="45.554837" lon="7.828885">
        <ele>345.98996</ele>
        <time>2024-10-15T06:13:56.000Z</time>
      </trkpt>
      <trkpt lat="45.554837" lon="7.828853">
        <ele>345.95496</ele>
        <time>2024-10-15T06:14:04.000Z</time>
      </trkpt>
      <trkpt lat="45.554815" lon="7.828842">
        <ele>345.91498</ele>
        <time>2024-10-15T06:14:06.000Z</time>
      </trkpt>
      <trkpt lat="45.554823" lon="7.828902">
        <ele>345.95496</ele>
        <time>2024-10-15T06:14:17.000Z</time>
      </trkpt>
      <trkpt lat="45.554848" lon="7.828922">
        <ele>346.03995</ele>
        <time>2024-10-15T06:14:19.000Z</time>
      </trkpt>
      <trkpt lat="45.554872" lon="7.82892">
        <ele>346.20993</ele>
        <time>2024-10-15T06:14:21.000Z</time>
      </trkpt>
      <trkpt lat="45.554893" lon="7.828918">
        <ele>346.39996</ele>
        <time>2024-10-15T06:14:23.000Z</time>
      </trkpt>
      <trkpt lat="45.554915" lon="7.82892">
        <ele>346.55997</ele>
        <time>2024-10-15T06:14:25.000Z</time>
      </trkpt>
      <trkpt lat="45.554933" lon="7.828928">
        <ele>346.66998</ele>
        <time>2024-10-15T06:14:26.000Z</time>
      </trkpt>
      <trkpt lat="45.55495" lon="7.828938">
        <ele>346.73996</ele>
        <time>2024-10-15T06:14:27.000Z</time>
      </trkpt>
      <trkpt lat="45.554967" lon="7.828953">
        <ele>346.78497</ele>
        <time>2024-10-15T06:14:28.000Z</time>
      </trkpt>
      <trkpt lat="45.554985" lon="7.82899">
        <ele>346.78497</ele>
        <time>2024-10-15T06:14:30.000Z</time>
      </trkpt>
      <trkpt lat="45.555" lon="7.829022">
        <ele>346.80499</ele>
        <time>2024-10-15T06:14:32.000Z</time>
      </trkpt>
      <trkpt lat="45.555025" lon="7.829053">
        <ele>346.78998</ele>
        <time>2024-10-15T06:14:34.000Z</time>
      </trkpt>
      <trkpt lat="45.555048" lon="7.82909">
        <ele>346.76001</ele>
        <time>2024-10-15T06:14:36.000Z</time>
      </trkpt>
      <trkpt lat="45.555063" lon="7.829133">
        <ele>346.63501</ele>
        <time>2024-10-15T06:14:38.000Z</time>
      </trkpt>
      <trkpt lat="45.55508" lon="7.829168">
        <ele>346.53</ele>
        <time>2024-10-15T06:14:40.000Z</time>
      </trkpt>
      <trkpt lat="45.555095" lon="7.829203">
        <ele>346.45001</ele>
        <time>2024-10-15T06:14:42.000Z</time>
      </trkpt>
      <trkpt lat="45.555112" lon="7.829235">
        <ele>346.39499</ele>
        <time>2024-10-15T06:14:44.000Z</time>
      </trkpt>
      <trkpt lat="45.555132" lon="7.829265">
        <ele>346.345</ele>
        <time>2024-10-15T06:14:46.000Z</time>
      </trkpt>
      <trkpt lat="45.555155" lon="7.829285">
        <ele>346.31</ele>
        <time>2024-10-15T06:14:48.000Z</time>
      </trkpt>
      <trkpt lat="45.555173" lon="7.8293">
        <ele>346.26999</ele>
        <time>2024-10-15T06:14:50.000Z</time>
      </trkpt>
      <trkpt lat="45.5552" lon="7.829332">
        <ele>346.27997</ele>
        <time>2024-10-15T06:14:52.000Z</time>
      </trkpt>
      <trkpt lat="45.555222" lon="7.829357">
        <ele>346.23499</ele>
        <time>2024-10-15T06:14:54.000Z</time>
      </trkpt>
      <trkpt lat="45.555245" lon="7.829363">
        <ele>346.14499</ele>
        <time>2024-10-15T06:14:56.000Z</time>
      </trkpt>
      <trkpt lat="45.555265" lon="7.829368">
        <ele>346.07001</ele>
        <time>2024-10-15T06:14:58.000Z</time>
      </trkpt>
      <trkpt lat="45.555287" lon="7.829372">
        <ele>345.95499</ele>
        <time>2024-10-15T06:15:00.000Z</time>
      </trkpt>
      <trkpt lat="45.555312" lon="7.829385">
        <ele>345.82999</ele>
        <time>2024-10-15T06:15:02.000Z</time>
      </trkpt>
      <trkpt lat="45.555342" lon="7.829398">
        <ele>345.70996</ele>
        <time>2024-10-15T06:15:04.000Z</time>
      </trkpt>
      <trkpt lat="45.55537" lon="7.829405">
        <ele>345.58496</ele>
        <time>2024-10-15T06:15:06.000Z</time>
      </trkpt>
      <trkpt lat="45.555398" lon="7.829412">
        <ele>345.46997</ele>
        <time>2024-10-15T06:15:08.000Z</time>
      </trkpt>
      <trkpt lat="45.555428" lon="7.829412">
        <ele>345.36996</ele>
        <time>2024-10-15T06:15:10.000Z</time>
      </trkpt>
      <trkpt lat="45.555447" lon="7.829418">
        <ele>345.28497</ele>
        <time>2024-10-15T06:15:11.000Z</time>
      </trkpt>
      <trkpt lat="45.555465" lon="7.829427">
        <ele>345.18497</ele>
        <time>2024-10-15T06:15:12.000Z</time>
      </trkpt>
      <trkpt lat="45.555482" lon="7.829442">
        <ele>345.03995</ele>
        <time>2024-10-15T06:15:13.000Z</time>
      </trkpt>
      <trkpt lat="45.555497" lon="7.829458">
        <ele>344.90997</ele>
        <time>2024-10-15T06:15:14.000Z</time>
      </trkpt>
      <trkpt lat="45.555527" lon="7.829485">
        <ele>344.77997</ele>
        <time>2024-10-15T06:15:16.000Z</time>
      </trkpt>
      <trkpt lat="45.555555" lon="7.829502">
        <ele>344.60995</ele>
        <time>2024-10-15T06:15:18.000Z</time>
      </trkpt>
      <trkpt lat="45.555578" lon="7.829505">
        <ele>344.42499</ele>
        <time>2024-10-15T06:15:20.000Z</time>
      </trkpt>
      <trkpt lat="45.555603" lon="7.829513">
        <ele>344.22498</ele>
        <time>2024-10-15T06:15:22.000Z</time>
      </trkpt>
      <trkpt lat="45.555633" lon="7.829512">
        <ele>344.06</ele>
        <time>2024-10-15T06:15:24.000Z</time>
      </trkpt>
      <trkpt lat="45.555663" lon="7.829517">
        <ele>343.92499</ele>
        <time>2024-10-15T06:15:26.000Z</time>
      </trkpt>
      <trkpt lat="45.555683" lon="7.829522">
        <ele>343.78497</ele>
        <time>2024-10-15T06:15:27.000Z</time>
      </trkpt>
      <trkpt lat="45.555703" lon="7.829528">
        <ele>343.66998</ele>
        <time>2024-10-15T06:15:28.000Z</time>
      </trkpt>
      <trkpt lat="45.555723" lon="7.829537">
        <ele>343.58997</ele>
        <time>2024-10-15T06:15:29.000Z</time>
      </trkpt>
      <trkpt lat="45.555742" lon="7.829538">
        <ele>343.50497</ele>
        <time>2024-10-15T06:15:30.000Z</time>
      </trkpt>
      <trkpt lat="45.555775" lon="7.829548">
        <ele>343.45499</ele>
        <time>2024-10-15T06:15:32.000Z</time>
      </trkpt>
      <trkpt lat="45.555793" lon="7.829552">
        <ele>343.45999</ele>
        <time>2024-10-15T06:15:33.000Z</time>
      </trkpt>
      <trkpt lat="45.555808" lon="7.829567">
        <ele>343.465</ele>
        <time>2024-10-15T06:15:34.000Z</time>
      </trkpt>
      <trkpt lat="45.555822" lon="7.829592">
        <ele>343.47498</ele>
        <time>2024-10-15T06:15:35.000Z</time>
      </trkpt>
      <trkpt lat="45.555845" lon="7.829622">
        <ele>343.47998</ele>
        <time>2024-10-15T06:15:37.000Z</time>
      </trkpt>
      <trkpt lat="45.555873" lon="7.829628">
        <ele>343.52997</ele>
        <time>2024-10-15T06:15:39.000Z</time>
      </trkpt>
      <trkpt lat="45.555895" lon="7.829638">
        <ele>343.63998</ele>
        <time>2024-10-15T06:15:41.000Z</time>
      </trkpt>
      <trkpt lat="45.555922" lon="7.829647">
        <ele>343.74997</ele>
        <time>2024-10-15T06:15:43.000Z</time>
      </trkpt>
      <trkpt lat="45.55595" lon="7.829643">
        <ele>343.82001</ele>
        <time>2024-10-15T06:15:45.000Z</time>
      </trkpt>
      <trkpt lat="45.555975" lon="7.829642">
        <ele>343.90497</ele>
        <time>2024-10-15T06:15:47.000Z</time>
      </trkpt>
      <trkpt lat="45.556007" lon="7.829652">
        <ele>344.00497</ele>
        <time>2024-10-15T06:15:49.000Z</time>
      </trkpt>
      <trkpt lat="45.556042" lon="7.829662">
        <ele>344.09998</ele>
        <time>2024-10-15T06:15:51.000Z</time>
      </trkpt>
      <trkpt lat="45.55607" lon="7.829677">
        <ele>344.17499</ele>
        <time>2024-10-15T06:15:53.000Z</time>
      </trkpt>
      <trkpt lat="45.556102" lon="7.829685">
        <ele>344.24496</ele>
        <time>2024-10-15T06:15:55.000Z</time>
      </trkpt>
      <trkpt lat="45.556128" lon="7.829692">
        <ele>344.27997</ele>
        <time>2024-10-15T06:15:57.000Z</time>
      </trkpt>
      <trkpt lat="45.556147" lon="7.829697">
        <ele>344.23996</ele>
        <time>2024-10-15T06:15:59.000Z</time>
      </trkpt>
      <trkpt lat="45.556167" lon="7.8297">
        <ele>344.18497</ele>
        <time>2024-10-15T06:16:02.000Z</time>
      </trkpt>
      <trkpt lat="45.556188" lon="7.82971">
        <ele>344.11996</ele>
        <time>2024-10-15T06:16:20.000Z</time>
      </trkpt>
      <trkpt lat="45.556203" lon="7.829727">
        <ele>344.03998</ele>
        <time>2024-10-15T06:16:21.000Z</time>
      </trkpt>
      <trkpt lat="45.556228" lon="7.829728">
        <ele>343.93497</ele>
        <time>2024-10-15T06:16:23.000Z</time>
      </trkpt>
      <trkpt lat="45.556252" lon="7.82973">
        <ele>343.81497</ele>
        <time>2024-10-15T06:16:25.000Z</time>
      </trkpt>
      <trkpt lat="45.556278" lon="7.829735">
        <ele>343.65497</ele>
        <time>2024-10-15T06:16:27.000Z</time>
      </trkpt>
      <trkpt lat="45.556303" lon="7.829755">
        <ele>343.48495</ele>
        <time>2024-10-15T06:16:29.000Z</time>
      </trkpt>
      <trkpt lat="45.556328" lon="7.829768">
        <ele>343.29498</ele>
        <time>2024-10-15T06:16:31.000Z</time>
      </trkpt>
      <trkpt lat="45.556355" lon="7.829773">
        <ele>343.09998</ele>
        <time>2024-10-15T06:16:33.000Z</time>
      </trkpt>
      <trkpt lat="45.556383" lon="7.829783">
        <ele>342.90497</ele>
        <time>2024-10-15T06:16:35.000Z</time>
      </trkpt>
      <trkpt lat="45.556412" lon="7.829777">
        <ele>342.65497</ele>
        <time>2024-10-15T06:16:37.000Z</time>
      </trkpt>
      <trkpt lat="45.55643" lon="7.829765">
        <ele>342.40997</ele>
        <time>2024-10-15T06:16:39.000Z</time>
      </trkpt>
      <trkpt lat="45.556453" lon="7.829792">
        <ele>342.19998</ele>
        <time>2024-10-15T06:16:42.000Z</time>
      </trkpt>
      <trkpt lat="45.556468" lon="7.82981">
        <ele>342.03998</ele>
        <time>2024-10-15T06:16:49.000Z</time>
      </trkpt>
      <trkpt lat="45.556493" lon="7.82979">
        <ele>341.91998</ele>
        <time>2024-10-15T06:16:53.000Z</time>
      </trkpt>
      <trkpt lat="45.55652" lon="7.829798">
        <ele>341.82501</ele>
        <time>2024-10-15T06:16:55.000Z</time>
      </trkpt>
      <trkpt lat="45.556547" lon="7.82981">
        <ele>341.77499</ele>
        <time>2024-10-15T06:16:57.000Z</time>
      </trkpt>
      <trkpt lat="45.556573" lon="7.829832">
        <ele>341.73502</ele>
        <time>2024-10-15T06:16:59.000Z</time>
      </trkpt>
      <trkpt lat="45.556597" lon="7.829838">
        <ele>341.71503</ele>
        <time>2024-10-15T06:17:01.000Z</time>
      </trkpt>
      <trkpt lat="45.55662" lon="7.829835">
        <ele>341.73001</ele>
        <time>2024-10-15T06:17:03.000Z</time>
      </trkpt>
      <trkpt lat="45.556653" lon="7.829847">
        <ele>341.73001</ele>
        <time>2024-10-15T06:17:05.000Z</time>
      </trkpt>
      <trkpt lat="45.556678" lon="7.82986">
        <ele>341.67999</ele>
        <time>2024-10-15T06:17:07.000Z</time>
      </trkpt>
      <trkpt lat="45.556703" lon="7.829872">
        <ele>341.655</ele>
        <time>2024-10-15T06:17:09.000Z</time>
      </trkpt>
      <trkpt lat="45.556723" lon="7.82989">
        <ele>341.63</ele>
        <time>2024-10-15T06:17:11.000Z</time>
      </trkpt>
      <trkpt lat="45.556743" lon="7.829902">
        <ele>341.58502</ele>
        <time>2024-10-15T06:17:13.000Z</time>
      </trkpt>
      <trkpt lat="45.55677" lon="7.82992">
        <ele>341.55499</ele>
        <time>2024-10-15T06:17:16.000Z</time>
      </trkpt>
      <trkpt lat="45.556793" lon="7.82994">
        <ele>341.56</ele>
        <time>2024-10-15T06:17:18.000Z</time>
      </trkpt>
      <trkpt lat="45.55681" lon="7.829967">
        <ele>341.59503</ele>
        <time>2024-10-15T06:17:20.000Z</time>
      </trkpt>
      <trkpt lat="45.556827" lon="7.830007">
        <ele>341.64001</ele>
        <time>2024-10-15T06:17:22.000Z</time>
      </trkpt>
      <trkpt lat="45.556843" lon="7.830052">
        <ele>341.66</ele>
        <time>2024-10-15T06:17:24.000Z</time>
      </trkpt>
      <trkpt lat="45.556853" lon="7.830077">
        <ele>341.72</ele>
        <time>2024-10-15T06:17:25.000Z</time>
      </trkpt>
      <trkpt lat="45.556868" lon="7.830115">
        <ele>341.79999</ele>
        <time>2024-10-15T06:17:27.000Z</time>
      </trkpt>
      <trkpt lat="45.556887" lon="7.830152">
        <ele>341.88501</ele>
        <time>2024-10-15T06:17:29.000Z</time>
      </trkpt>
      <trkpt lat="45.556912" lon="7.83017">
        <ele>341.92499</ele>
        <time>2024-10-15T06:17:31.000Z</time>
      </trkpt>
      <trkpt lat="45.556945" lon="7.830172">
        <ele>341.91501</ele>
        <time>2024-10-15T06:17:33.000Z</time>
      </trkpt>
      <trkpt lat="45.55698" lon="7.830168">
        <ele>341.92499</ele>
        <time>2024-10-15T06:17:35.000Z</time>
      </trkpt>
      <trkpt lat="45.557" lon="7.830177">
        <ele>341.95999</ele>
        <time>2024-10-15T06:17:36.000Z</time>
      </trkpt>
      <trkpt lat="45.557018" lon="7.830182">
        <ele>342.01996</ele>
        <time>2024-10-15T06:17:37.000Z</time>
      </trkpt>
      <trkpt lat="45.557038" lon="7.830188">
        <ele>342.07498</ele>
        <time>2024-10-15T06:17:38.000Z</time>
      </trkpt>
      <trkpt lat="45.557058" lon="7.830188">
        <ele>342.14996</ele>
        <time>2024-10-15T06:17:39.000Z</time>
      </trkpt>
      <trkpt lat="45.557077" lon="7.830188">
        <ele>342.24496</ele>
        <time>2024-10-15T06:17:40.000Z</time>
      </trkpt>
      <trkpt lat="45.557107" lon="7.830177">
        <ele>342.37497</ele>
        <time>2024-10-15T06:17:42.000Z</time>
      </trkpt>
      <trkpt lat="45.557133" lon="7.830173">
        <ele>342.48999</ele>
        <time>2024-10-15T06:17:44.000Z</time>
      </trkpt>
      <trkpt lat="45.557153" lon="7.830165">
        <ele>342.60999</ele>
        <time>2024-10-15T06:17:46.000Z</time>
      </trkpt>
      <trkpt lat="45.557177" lon="7.83017">
        <ele>342.745</ele>
        <time>2024-10-15T06:17:48.000Z</time>
      </trkpt>
      <trkpt lat="45.557208" lon="7.830165">
        <ele>342.91501</ele>
        <time>2024-10-15T06:17:50.000Z</time>
      </trkpt>
      <trkpt lat="45.55723" lon="7.830177">
        <ele>343.12003</ele>
        <time>2024-10-15T06:17:52.000Z</time>
      </trkpt>
      <trkpt lat="45.55726" lon="7.830205">
        <ele>343.39001</ele>
        <time>2024-10-15T06:17:54.000Z</time>
      </trkpt>
      <trkpt lat="45.55728" lon="7.83023">
        <ele>343.64999</ele>
        <time>2024-10-15T06:17:56.000Z</time>
      </trkpt>
      <trkpt lat="45.557285" lon="7.830258">
        <ele>343.91998</ele>
        <time>2024-10-15T06:17:58.000Z</time>
      </trkpt>
      <trkpt lat="45.557298" lon="7.83029">
        <ele>344.17999</ele>
        <time>2024-10-15T06:18:00.000Z</time>
      </trkpt>
      <trkpt lat="45.557323" lon="7.830303">
        <ele>344.48001</ele>
        <time>2024-10-15T06:18:02.000Z</time>
      </trkpt>
      <trkpt lat="45.557347" lon="7.83034">
        <ele>344.85001</ele>
        <time>2024-10-15T06:18:04.000Z</time>
      </trkpt>
      <trkpt lat="45.557358" lon="7.830362">
        <ele>345.23999</ele>
        <time>2024-10-15T06:18:06.000Z</time>
      </trkpt>
      <trkpt lat="45.557393" lon="7.830328">
        <ele>345.63498</ele>
        <time>2024-10-15T06:18:09.000Z</time>
      </trkpt>
      <trkpt lat="45.557417" lon="7.830322">
        <ele>345.995</ele>
        <time>2024-10-15T06:18:10.000Z</time>
      </trkpt>
      <trkpt lat="45.557435" lon="7.83032">
        <ele>346.32501</ele>
        <time>2024-10-15T06:18:11.000Z</time>
      </trkpt>
      <trkpt lat="45.557462" lon="7.830325">
        <ele>346.64999</ele>
        <time>2024-10-15T06:18:13.000Z</time>
      </trkpt>
      <trkpt lat="45.557485" lon="7.830342">
        <ele>346.98999</ele>
        <time>2024-10-15T06:18:15.000Z</time>
      </trkpt>
      <trkpt lat="45.557515" lon="7.830368">
        <ele>347.34</ele>
        <time>2024-10-15T06:18:17.000Z</time>
      </trkpt>
      <trkpt lat="45.557525" lon="7.830392">
        <ele>347.67499</ele>
        <time>2024-10-15T06:18:18.000Z</time>
      </trkpt>
      <trkpt lat="45.557538" lon="7.830422">
        <ele>348.04999</ele>
        <time>2024-10-15T06:18:19.000Z</time>
      </trkpt>
      <trkpt lat="45.55755" lon="7.830448">
        <ele>348.42999</ele>
        <time>2024-10-15T06:18:20.000Z</time>
      </trkpt>
      <trkpt lat="45.557548" lon="7.83048">
        <ele>348.82999</ele>
        <time>2024-10-15T06:18:21.000Z</time>
      </trkpt>
      <trkpt lat="45.557547" lon="7.830527">
        <ele>349.24496</ele>
        <time>2024-10-15T06:18:23.000Z</time>
      </trkpt>
      <trkpt lat="45.557552" lon="7.830563">
        <ele>349.64496</ele>
        <time>2024-10-15T06:18:25.000Z</time>
      </trkpt>
      <trkpt lat="45.557558" lon="7.830602">
        <ele>350.00494</ele>
        <time>2024-10-15T06:18:27.000Z</time>
      </trkpt>
      <trkpt lat="45.557565" lon="7.830638">
        <ele>350.30496</ele>
        <time>2024-10-15T06:18:29.000Z</time>
      </trkpt>
      <trkpt lat="45.557573" lon="7.830663">
        <ele>350.58997</ele>
        <time>2024-10-15T06:18:31.000Z</time>
      </trkpt>
      <trkpt lat="45.557575" lon="7.8307">
        <ele>350.87997</ele>
        <time>2024-10-15T06:18:33.000Z</time>
      </trkpt>
      <trkpt lat="45.557575" lon="7.830737">
        <ele>351.185</ele>
        <time>2024-10-15T06:18:35.000Z</time>
      </trkpt>
      <trkpt lat="45.557577" lon="7.830773">
        <ele>351.45999</ele>
        <time>2024-10-15T06:18:37.000Z</time>
      </trkpt>
      <trkpt lat="45.55758" lon="7.830812">
        <ele>351.67499</ele>
        <time>2024-10-15T06:18:40.000Z</time>
      </trkpt>
      <trkpt lat="45.557585" lon="7.830848">
        <ele>351.85498</ele>
        <time>2024-10-15T06:18:42.000Z</time>
      </trkpt>
      <trkpt lat="45.557592" lon="7.830882">
        <ele>352.01996</ele>
        <time>2024-10-15T06:18:44.000Z</time>
      </trkpt>
      <trkpt lat="45.5576" lon="7.830905">
        <ele>352.18997</ele>
        <time>2024-10-15T06:18:45.000Z</time>
      </trkpt>
      <trkpt lat="45.557615" lon="7.830953">
        <ele>352.37994</ele>
        <time>2024-10-15T06:18:47.000Z</time>
      </trkpt>
      <trkpt lat="45.557625" lon="7.830997">
        <ele>352.55997</ele>
        <time>2024-10-15T06:18:49.000Z</time>
      </trkpt>
      <trkpt lat="45.557635" lon="7.831037">
        <ele>352.69998</ele>
        <time>2024-10-15T06:18:51.000Z</time>
      </trkpt>
      <trkpt lat="45.557643" lon="7.831063">
        <ele>352.81</ele>
        <time>2024-10-15T06:18:53.000Z</time>
      </trkpt>
      <trkpt lat="45.557645" lon="7.831092">
        <ele>352.91998</ele>
        <time>2024-10-15T06:18:56.000Z</time>
      </trkpt>
      <trkpt lat="45.557667" lon="7.831117">
        <ele>352.96997</ele>
        <time>2024-10-15T06:18:59.000Z</time>
      </trkpt>
      <trkpt lat="45.557685" lon="7.831118">
        <ele>352.99997</ele>
        <time>2024-10-15T06:19:01.000Z</time>
      </trkpt>
      <trkpt lat="45.557703" lon="7.83114">
        <ele>353.03497</ele>
        <time>2024-10-15T06:19:03.000Z</time>
      </trkpt>
      <trkpt lat="45.557718" lon="7.83116">
        <ele>353.08499</ele>
        <time>2024-10-15T06:19:05.000Z</time>
      </trkpt>
      <trkpt lat="45.557737" lon="7.831167">
        <ele>353.14496</ele>
        <time>2024-10-15T06:19:07.000Z</time>
      </trkpt>
      <trkpt lat="45.557765" lon="7.831188">
        <ele>353.20499</ele>
        <time>2024-10-15T06:19:09.000Z</time>
      </trkpt>
      <trkpt lat="45.557787" lon="7.831208">
        <ele>353.30499</ele>
        <time>2024-10-15T06:19:11.000Z</time>
      </trkpt>
      <trkpt lat="45.557802" lon="7.831238">
        <ele>353.42999</ele>
        <time>2024-10-15T06:19:13.000Z</time>
      </trkpt>
      <trkpt lat="45.557815" lon="7.831282">
        <ele>353.56998</ele>
        <time>2024-10-15T06:19:15.000Z</time>
      </trkpt>
      <trkpt lat="45.557828" lon="7.831302">
        <ele>353.68997</ele>
        <time>2024-10-15T06:19:16.000Z</time>
      </trkpt>
      <trkpt lat="45.55784" lon="7.831323">
        <ele>353.79996</ele>
        <time>2024-10-15T06:19:17.000Z</time>
      </trkpt>
      <trkpt lat="45.557845" lon="7.831348">
        <ele>353.92996</ele>
        <time>2024-10-15T06:19:18.000Z</time>
      </trkpt>
      <trkpt lat="45.557862" lon="7.831368">
        <ele>354.06998</ele>
        <time>2024-10-15T06:19:20.000Z</time>
      </trkpt>
      <trkpt lat="45.557878" lon="7.831385">
        <ele>354.23499</ele>
        <time>2024-10-15T06:19:22.000Z</time>
      </trkpt>
      <trkpt lat="45.557897" lon="7.831403">
        <ele>354.44501</ele>
        <time>2024-10-15T06:19:25.000Z</time>
      </trkpt>
      <trkpt lat="45.557902" lon="7.831435">
        <ele>354.67499</ele>
        <time>2024-10-15T06:19:27.000Z</time>
      </trkpt>
      <trkpt lat="45.557882" lon="7.831453">
        <ele>354.95502</ele>
        <time>2024-10-15T06:19:30.000Z</time>
      </trkpt>
      <trkpt lat="45.557867" lon="7.83148">
        <ele>355.37</ele>
        <time>2024-10-15T06:19:36.000Z</time>
      </trkpt>
      <trkpt lat="45.557883" lon="7.831502">
        <ele>355.84</ele>
        <time>2024-10-15T06:19:40.000Z</time>
      </trkpt>
      <trkpt lat="45.5579" lon="7.83152">
        <ele>356.33502</ele>
        <time>2024-10-15T06:19:42.000Z</time>
      </trkpt>
      <trkpt lat="45.557923" lon="7.83153">
        <ele>356.905</ele>
        <time>2024-10-15T06:19:45.000Z</time>
      </trkpt>
      <trkpt lat="45.55794" lon="7.831518">
        <ele>357.49002</ele>
        <time>2024-10-15T06:19:46.000Z</time>
      </trkpt>
      <trkpt lat="45.557962" lon="7.831497">
        <ele>358.04999</ele>
        <time>2024-10-15T06:19:47.000Z</time>
      </trkpt>
      <trkpt lat="45.55798" lon="7.83148">
        <ele>358.56</ele>
        <time>2024-10-15T06:19:48.000Z</time>
      </trkpt>
      <trkpt lat="45.558" lon="7.831473">
        <ele>359.06</ele>
        <time>2024-10-15T06:19:50.000Z</time>
      </trkpt>
      <trkpt lat="45.558022" lon="7.83147">
        <ele>359.60001</ele>
        <time>2024-10-15T06:19:53.000Z</time>
      </trkpt>
      <trkpt lat="45.558057" lon="7.83148">
        <ele>360.08002</ele>
        <time>2024-10-15T06:19:55.000Z</time>
      </trkpt>
      <trkpt lat="45.558092" lon="7.831475">
        <ele>360.53</ele>
        <time>2024-10-15T06:19:57.000Z</time>
      </trkpt>
      <trkpt lat="45.55812" lon="7.831458">
        <ele>360.94</ele>
        <time>2024-10-15T06:19:59.000Z</time>
      </trkpt>
      <trkpt lat="45.558138" lon="7.831458">
        <ele>361.34503</ele>
        <time>2024-10-15T06:20:00.000Z</time>
      </trkpt>
      <trkpt lat="45.558172" lon="7.831443">
        <ele>361.75003</ele>
        <time>2024-10-15T06:20:02.000Z</time>
      </trkpt>
      <trkpt lat="45.558198" lon="7.831435">
        <ele>362.14001</ele>
        <time>2024-10-15T06:20:04.000Z</time>
      </trkpt>
      <trkpt lat="45.558218" lon="7.831435">
        <ele>362.5</ele>
        <time>2024-10-15T06:20:06.000Z</time>
      </trkpt>
      <trkpt lat="45.558235" lon="7.831412">
        <ele>362.84</ele>
        <time>2024-10-15T06:20:09.000Z</time>
      </trkpt>
      <trkpt lat="45.558255" lon="7.831412">
        <ele>363.11996</ele>
        <time>2024-10-15T06:20:10.000Z</time>
      </trkpt>
      <trkpt lat="45.55829" lon="7.8314">
        <ele>363.36996</ele>
        <time>2024-10-15T06:20:12.000Z</time>
      </trkpt>
      <trkpt lat="45.558315" lon="7.831363">
        <ele>363.53497</ele>
        <time>2024-10-15T06:20:14.000Z</time>
      </trkpt>
      <trkpt lat="45.558348" lon="7.831335">
        <ele>363.52997</ele>
        <time>2024-10-15T06:20:16.000Z</time>
      </trkpt>
      <trkpt lat="45.558365" lon="7.831323">
        <ele>363.42996</ele>
        <time>2024-10-15T06:20:17.000Z</time>
      </trkpt>
      <trkpt lat="45.558378" lon="7.831305">
        <ele>363.26495</ele>
        <time>2024-10-15T06:20:18.000Z</time>
      </trkpt>
      <trkpt lat="45.558415" lon="7.831292">
        <ele>362.99493</ele>
        <time>2024-10-15T06:20:20.000Z</time>
      </trkpt>
      <trkpt lat="45.558442" lon="7.83128">
        <ele>362.73993</ele>
        <time>2024-10-15T06:20:22.000Z</time>
      </trkpt>
      <trkpt lat="45.558467" lon="7.831253">
        <ele>362.52997</ele>
        <time>2024-10-15T06:20:24.000Z</time>
      </trkpt>
      <trkpt lat="45.558497" lon="7.831227">
        <ele>362.36493</ele>
        <time>2024-10-15T06:20:26.000Z</time>
      </trkpt>
      <trkpt lat="45.55852" lon="7.8312">
        <ele>362.16995</ele>
        <time>2024-10-15T06:20:28.000Z</time>
      </trkpt>
      <trkpt lat="45.558537" lon="7.831177">
        <ele>361.88495</ele>
        <time>2024-10-15T06:20:30.000Z</time>
      </trkpt>
      <trkpt lat="45.558563" lon="7.831167">
        <ele>361.56995</ele>
        <time>2024-10-15T06:20:32.000Z</time>
      </trkpt>
      <trkpt lat="45.558592" lon="7.831153">
        <ele>361.22995</ele>
        <time>2024-10-15T06:20:34.000Z</time>
      </trkpt>
      <trkpt lat="45.558608" lon="7.831135">
        <ele>360.88995</ele>
        <time>2024-10-15T06:20:37.000Z</time>
      </trkpt>
      <trkpt lat="45.558627" lon="7.831135">
        <ele>360.53494</ele>
        <time>2024-10-15T06:20:38.000Z</time>
      </trkpt>
      <trkpt lat="45.558643" lon="7.831148">
        <ele>360.16495</ele>
        <time>2024-10-15T06:20:39.000Z</time>
      </trkpt>
      <trkpt lat="45.55866" lon="7.831135">
        <ele>359.77997</ele>
        <time>2024-10-15T06:20:43.000Z</time>
      </trkpt>
      <trkpt lat="45.558682" lon="7.831117">
        <ele>359.41498</ele>
        <time>2024-10-15T06:20:44.000Z</time>
      </trkpt>
      <trkpt lat="45.558705" lon="7.831125">
        <ele>359.06497</ele>
        <time>2024-10-15T06:20:45.000Z</time>
      </trkpt>
      <trkpt lat="45.558727" lon="7.831137">
        <ele>358.72498</ele>
        <time>2024-10-15T06:20:46.000Z</time>
      </trkpt>
      <trkpt lat="45.558742" lon="7.831152">
        <ele>358.36499</ele>
        <time>2024-10-15T06:20:47.000Z</time>
      </trkpt>
      <trkpt lat="45.558763" lon="7.831168">
        <ele>358.005</ele>
        <time>2024-10-15T06:20:48.000Z</time>
      </trkpt>
      <trkpt lat="45.55879" lon="7.831177">
        <ele>357.685</ele>
        <time>2024-10-15T06:20:49.000Z</time>
      </trkpt>
      <trkpt lat="45.55882" lon="7.831182">
        <ele>357.45502</ele>
        <time>2024-10-15T06:20:50.000Z</time>
      </trkpt>
      <trkpt lat="45.558842" lon="7.83118">
        <ele>357.31</ele>
        <time>2024-10-15T06:20:51.000Z</time>
      </trkpt>
      <trkpt lat="45.55886" lon="7.831172">
        <ele>357.26501</ele>
        <time>2024-10-15T06:20:52.000Z</time>
      </trkpt>
      <trkpt lat="45.558885" lon="7.831157">
        <ele>357.23502</ele>
        <time>2024-10-15T06:20:54.000Z</time>
      </trkpt>
      <trkpt lat="45.558912" lon="7.831177">
        <ele>357.185</ele>
        <time>2024-10-15T06:20:58.000Z</time>
      </trkpt>
      <trkpt lat="45.558928" lon="7.83119">
        <ele>357.13</ele>
        <time>2024-10-15T06:20:59.000Z</time>
      </trkpt>
      <trkpt lat="45.558957" lon="7.831182">
        <ele>357.12</ele>
        <time>2024-10-15T06:21:01.000Z</time>
      </trkpt>
      <trkpt lat="45.558977" lon="7.831183">
        <ele>357.16998</ele>
        <time>2024-10-15T06:21:03.000Z</time>
      </trkpt>
      <trkpt lat="45.558995" lon="7.831193">
        <ele>357.36002</ele>
        <time>2024-10-15T06:21:13.000Z</time>
      </trkpt>
      <trkpt lat="45.559015" lon="7.831217">
        <ele>357.58502</ele>
        <time>2024-10-15T06:21:15.000Z</time>
      </trkpt>
      <trkpt lat="45.55903" lon="7.831258">
        <ele>357.81</ele>
        <time>2024-10-15T06:21:17.000Z</time>
      </trkpt>
      <trkpt lat="45.559033" lon="7.83129">
        <ele>358.01999</ele>
        <time>2024-10-15T06:21:19.000Z</time>
      </trkpt>
      <trkpt lat="45.559022" lon="7.831337">
        <ele>358.17999</ele>
        <time>2024-10-15T06:21:21.000Z</time>
      </trkpt>
      <trkpt lat="45.559022" lon="7.831375">
        <ele>358.34</ele>
        <time>2024-10-15T06:21:23.000Z</time>
      </trkpt>
      <trkpt lat="45.559027" lon="7.831408">
        <ele>358.52997</ele>
        <time>2024-10-15T06:21:25.000Z</time>
      </trkpt>
      <trkpt lat="45.559027" lon="7.83144">
        <ele>358.75998</ele>
        <time>2024-10-15T06:21:27.000Z</time>
      </trkpt>
      <trkpt lat="45.559015" lon="7.83147">
        <ele>359.02496</ele>
        <time>2024-10-15T06:21:29.000Z</time>
      </trkpt>
      <trkpt lat="45.559012" lon="7.831522">
        <ele>359.37497</ele>
        <time>2024-10-15T06:21:32.000Z</time>
      </trkpt>
      <trkpt lat="45.55902" lon="7.83156">
        <ele>359.80997</ele>
        <time>2024-10-15T06:21:34.000Z</time>
      </trkpt>
      <trkpt lat="45.559018" lon="7.831598">
        <ele>360.29498</ele>
        <time>2024-10-15T06:21:36.000Z</time>
      </trkpt>
      <trkpt lat="45.559013" lon="7.831635">
        <ele>360.79498</ele>
        <time>2024-10-15T06:21:39.000Z</time>
      </trkpt>
      <trkpt lat="45.559007" lon="7.831668">
        <ele>361.24496</ele>
        <time>2024-10-15T06:21:42.000Z</time>
      </trkpt>
      <trkpt lat="45.558998" lon="7.8317">
        <ele>361.68497</ele>
        <time>2024-10-15T06:21:44.000Z</time>
      </trkpt>
      <trkpt lat="45.558997" lon="7.831737">
        <ele>362.08496</ele>
        <time>2024-10-15T06:21:46.000Z</time>
      </trkpt>
      <trkpt lat="45.558997" lon="7.831782">
        <ele>362.45496</ele>
        <time>2024-10-15T06:21:49.000Z</time>
      </trkpt>
      <trkpt lat="45.559003" lon="7.831815">
        <ele>362.80496</ele>
        <time>2024-10-15T06:21:52.000Z</time>
      </trkpt>
      <trkpt lat="45.559025" lon="7.831832">
        <ele>363.14996</ele>
        <time>2024-10-15T06:21:54.000Z</time>
      </trkpt>
      <trkpt lat="45.55905" lon="7.831847">
        <ele>363.45496</ele>
        <time>2024-10-15T06:21:56.000Z</time>
      </trkpt>
      <trkpt lat="45.559077" lon="7.83186">
        <ele>363.66495</ele>
        <time>2024-10-15T06:21:58.000Z</time>
      </trkpt>
      <trkpt lat="45.559102" lon="7.831852">
        <ele>363.87494</ele>
        <time>2024-10-15T06:22:01.000Z</time>
      </trkpt>
      <trkpt lat="45.559123" lon="7.831862">
        <ele>364.07492</ele>
        <time>2024-10-15T06:22:03.000Z</time>
      </trkpt>
      <trkpt lat="45.559148" lon="7.831865">
        <ele>364.29495</ele>
        <time>2024-10-15T06:22:05.000Z</time>
      </trkpt>
      <trkpt lat="45.55917" lon="7.831843">
        <ele>364.55994</ele>
        <time>2024-10-15T06:22:08.000Z</time>
      </trkpt>
      <trkpt lat="45.55919" lon="7.831825">
        <ele>364.85992</ele>
        <time>2024-10-15T06:22:10.000Z</time>
      </trkpt>
      <trkpt lat="45.55922" lon="7.831813">
        <ele>365.15994</ele>
        <time>2024-10-15T06:22:12.000Z</time>
      </trkpt>
      <trkpt lat="45.55925" lon="7.831808">
        <ele>365.39993</ele>
        <time>2024-10-15T06:22:14.000Z</time>
      </trkpt>
      <trkpt lat="45.559277" lon="7.831798">
        <ele>365.61493</ele>
        <time>2024-10-15T06:22:16.000Z</time>
      </trkpt>
      <trkpt lat="45.559307" lon="7.831788">
        <ele>365.72992</ele>
        <time>2024-10-15T06:22:18.000Z</time>
      </trkpt>
      <trkpt lat="45.559327" lon="7.831762">
        <ele>365.75494</ele>
        <time>2024-10-15T06:22:20.000Z</time>
      </trkpt>
      <trkpt lat="45.559355" lon="7.831763">
        <ele>365.74994</ele>
        <time>2024-10-15T06:22:22.000Z</time>
      </trkpt>
      <trkpt lat="45.559382" lon="7.831773">
        <ele>365.71494</ele>
        <time>2024-10-15T06:22:24.000Z</time>
      </trkpt>
      <trkpt lat="45.559408" lon="7.831782">
        <ele>365.71494</ele>
        <time>2024-10-15T06:22:26.000Z</time>
      </trkpt>
      <trkpt lat="45.559433" lon="7.831782">
        <ele>365.72495</ele>
        <time>2024-10-15T06:22:28.000Z</time>
      </trkpt>
      <trkpt lat="45.559468" lon="7.831795">
        <ele>365.79495</ele>
        <time>2024-10-15T06:22:30.000Z</time>
      </trkpt>
      <trkpt lat="45.559493" lon="7.83179">
        <ele>365.91495</ele>
        <time>2024-10-15T06:22:32.000Z</time>
      </trkpt>
      <trkpt lat="45.559515" lon="7.831788">
        <ele>366.10495</ele>
        <time>2024-10-15T06:22:34.000Z</time>
      </trkpt>
      <trkpt lat="45.559545" lon="7.831787">
        <ele>366.35495</ele>
        <time>2024-10-15T06:22:36.000Z</time>
      </trkpt>
      <trkpt lat="45.559575" lon="7.831783">
        <ele>366.71497</ele>
        <time>2024-10-15T06:22:38.000Z</time>
      </trkpt>
      <trkpt lat="45.559602" lon="7.831785">
        <ele>367.12997</ele>
        <time>2024-10-15T06:22:40.000Z</time>
      </trkpt>
      <trkpt lat="45.559627" lon="7.831797">
        <ele>367.595</ele>
        <time>2024-10-15T06:22:42.000Z</time>
      </trkpt>
      <trkpt lat="45.559657" lon="7.831823">
        <ele>368.11002</ele>
        <time>2024-10-15T06:22:44.000Z</time>
      </trkpt>
      <trkpt lat="45.559685" lon="7.831852">
        <ele>368.64499</ele>
        <time>2024-10-15T06:22:46.000Z</time>
      </trkpt>
      <trkpt lat="45.559698" lon="7.83187">
        <ele>369.17499</ele>
        <time>2024-10-15T06:22:47.000Z</time>
      </trkpt>
      <trkpt lat="45.559718" lon="7.83187">
        <ele>369.61502</ele>
        <time>2024-10-15T06:22:50.000Z</time>
      </trkpt>
      <trkpt lat="45.559742" lon="7.831858">
        <ele>370.04001</ele>
        <time>2024-10-15T06:22:52.000Z</time>
      </trkpt>
      <trkpt lat="45.559757" lon="7.831838">
        <ele>370.48502</ele>
        <time>2024-10-15T06:22:54.000Z</time>
      </trkpt>
      <trkpt lat="45.559753" lon="7.831807">
        <ele>370.92499</ele>
        <time>2024-10-15T06:22:56.000Z</time>
      </trkpt>
      <trkpt lat="45.559748" lon="7.831778">
        <ele>371.41498</ele>
        <time>2024-10-15T06:22:58.000Z</time>
      </trkpt>
      <trkpt lat="45.559748" lon="7.831748">
        <ele>372.005</ele>
        <time>2024-10-15T06:23:01.000Z</time>
      </trkpt>
      <trkpt lat="45.559762" lon="7.83173">
        <ele>372.61499</ele>
        <time>2024-10-15T06:23:03.000Z</time>
      </trkpt>
      <trkpt lat="45.55977" lon="7.831693">
        <ele>373.22</ele>
        <time>2024-10-15T06:23:06.000Z</time>
      </trkpt>
      <trkpt lat="45.559782" lon="7.831667">
        <ele>373.79498</ele>
        <time>2024-10-15T06:23:08.000Z</time>
      </trkpt>
      <trkpt lat="45.559792" lon="7.831632">
        <ele>374.345</ele>
        <time>2024-10-15T06:23:10.000Z</time>
      </trkpt>
      <trkpt lat="45.5598" lon="7.831598">
        <ele>374.85501</ele>
        <time>2024-10-15T06:23:12.000Z</time>
      </trkpt>
      <trkpt lat="45.559822" lon="7.83157">
        <ele>375.34003</ele>
        <time>2024-10-15T06:23:15.000Z</time>
      </trkpt>
      <trkpt lat="45.55984" lon="7.831542">
        <ele>375.76001</ele>
        <time>2024-10-15T06:23:17.000Z</time>
      </trkpt>
      <trkpt lat="45.559853" lon="7.831503">
        <ele>376.08002</ele>
        <time>2024-10-15T06:23:19.000Z</time>
      </trkpt>
      <trkpt lat="45.559868" lon="7.831473">
        <ele>376.29498</ele>
        <time>2024-10-15T06:23:21.000Z</time>
      </trkpt>
      <trkpt lat="45.55988" lon="7.831433">
        <ele>376.44</ele>
        <time>2024-10-15T06:23:23.000Z</time>
      </trkpt>
      <trkpt lat="45.559888" lon="7.831405">
        <ele>376.55499</ele>
        <time>2024-10-15T06:23:25.000Z</time>
      </trkpt>
      <trkpt lat="45.559895" lon="7.831377">
        <ele>376.67499</ele>
        <time>2024-10-15T06:23:27.000Z</time>
      </trkpt>
      <trkpt lat="45.559902" lon="7.831345">
        <ele>376.77496</ele>
        <time>2024-10-15T06:23:29.000Z</time>
      </trkpt>
      <trkpt lat="45.559915" lon="7.831305">
        <ele>376.89996</ele>
        <time>2024-10-15T06:23:31.000Z</time>
      </trkpt>
      <trkpt lat="45.55993" lon="7.831267">
        <ele>377.10995</ele>
        <time>2024-10-15T06:23:33.000Z</time>
      </trkpt>
      <trkpt lat="45.559948" lon="7.831238">
        <ele>377.31497</ele>
        <time>2024-10-15T06:23:35.000Z</time>
      </trkpt>
      <trkpt lat="45.559968" lon="7.83121">
        <ele>377.51495</ele>
        <time>2024-10-15T06:23:37.000Z</time>
      </trkpt>
      <trkpt lat="45.559985" lon="7.831172">
        <ele>377.72498</ele>
        <time>2024-10-15T06:23:39.000Z</time>
      </trkpt>
      <trkpt lat="45.559993" lon="7.831147">
        <ele>377.92999</ele>
        <time>2024-10-15T06:23:40.000Z</time>
      </trkpt>
      <trkpt lat="45.560012" lon="7.83112">
        <ele>378.10498</ele>
        <time>2024-10-15T06:23:42.000Z</time>
      </trkpt>
      <trkpt lat="45.560025" lon="7.831087">
        <ele>378.315</ele>
        <time>2024-10-15T06:23:44.000Z</time>
      </trkpt>
      <trkpt lat="45.560037" lon="7.831113">
        <ele>378.54999</ele>
        <time>2024-10-15T06:23:59.000Z</time>
      </trkpt>
      <trkpt lat="45.560053" lon="7.831093">
        <ele>378.81</ele>
        <time>2024-10-15T06:24:01.000Z</time>
      </trkpt>
      <trkpt lat="45.560067" lon="7.831072">
        <ele>379.07498</ele>
        <time>2024-10-15T06:24:03.000Z</time>
      </trkpt>
      <trkpt lat="45.560082" lon="7.831042">
        <ele>379.32498</ele>
        <time>2024-10-15T06:24:05.000Z</time>
      </trkpt>
      <trkpt lat="45.560092" lon="7.831008">
        <ele>379.54999</ele>
        <time>2024-10-15T06:24:07.000Z</time>
      </trkpt>
      <trkpt lat="45.56011" lon="7.830983">
        <ele>379.70999</ele>
        <time>2024-10-15T06:24:09.000Z</time>
      </trkpt>
      <trkpt lat="45.560132" lon="7.830955">
        <ele>379.81</ele>
        <time>2024-10-15T06:24:13.000Z</time>
      </trkpt>
      <trkpt lat="45.560142" lon="7.830933">
        <ele>379.91998</ele>
        <time>2024-10-15T06:24:15.000Z</time>
      </trkpt>
      <trkpt lat="45.560157" lon="7.830913">
        <ele>380.02997</ele>
        <time>2024-10-15T06:24:17.000Z</time>
      </trkpt>
      <trkpt lat="45.56017" lon="7.83089">
        <ele>380.12997</ele>
        <time>2024-10-15T06:24:19.000Z</time>
      </trkpt>
      <trkpt lat="45.56016" lon="7.830868">
        <ele>380.25497</ele>
        <time>2024-10-15T06:24:23.000Z</time>
      </trkpt>
      <trkpt lat="45.560157" lon="7.830842">
        <ele>380.44998</ele>
        <time>2024-10-15T06:24:33.000Z</time>
      </trkpt>
      <trkpt lat="45.560137" lon="7.83081">
        <ele>380.78497</ele>
        <time>2024-10-15T06:25:00.000Z</time>
      </trkpt>
      <trkpt lat="45.560192" lon="7.830815">
        <ele>381.10995</ele>
        <time>2024-10-15T06:25:59.000Z</time>
      </trkpt>
      <trkpt lat="45.560177" lon="7.830835">
        <ele>381.30496</ele>
        <time>2024-10-15T06:26:08.000Z</time>
      </trkpt>
      <trkpt lat="45.560167" lon="7.830813">
        <ele>381.39496</ele>
        <time>2024-10-15T06:26:33.000Z</time>
      </trkpt>
      <trkpt lat="45.560153" lon="7.830787">
        <ele>381.51996</ele>
        <time>2024-10-15T06:26:35.000Z</time>
      </trkpt>
      <trkpt lat="45.560152" lon="7.83076">
        <ele>381.65997</ele>
        <time>2024-10-15T06:26:37.000Z</time>
      </trkpt>
      <trkpt lat="45.560148" lon="7.830732">
        <ele>381.80499</ele>
        <time>2024-10-15T06:26:39.000Z</time>
      </trkpt>
      <trkpt lat="45.560135" lon="7.83071">
        <ele>381.90997</ele>
        <time>2024-10-15T06:26:41.000Z</time>
      </trkpt>
      <trkpt lat="45.560118" lon="7.830695">
        <ele>382.04498</ele>
        <time>2024-10-15T06:26:45.000Z</time>
      </trkpt>
      <trkpt lat="45.560123" lon="7.83067">
        <ele>382.215</ele>
        <time>2024-10-15T06:26:50.000Z</time>
      </trkpt>
      <trkpt lat="45.560132" lon="7.830642">
        <ele>382.38498</ele>
        <time>2024-10-15T06:27:00.000Z</time>
      </trkpt>
      <trkpt lat="45.560122" lon="7.83062">
        <ele>382.53998</ele>
        <time>2024-10-15T06:27:02.000Z</time>
      </trkpt>
      <trkpt lat="45.560105" lon="7.830608">
        <ele>382.70499</ele>
        <time>2024-10-15T06:27:06.000Z</time>
      </trkpt>
      <trkpt lat="45.56012" lon="7.83058">
        <ele>382.92999</ele>
        <time>2024-10-15T06:27:09.000Z</time>
      </trkpt>
      <trkpt lat="45.560138" lon="7.830595">
        <ele>383.23996</ele>
        <time>2024-10-15T06:27:13.000Z</time>
      </trkpt>
      <trkpt lat="45.560157" lon="7.830602">
        <ele>383.55997</ele>
        <time>2024-10-15T06:27:23.000Z</time>
      </trkpt>
      <trkpt lat="45.560182" lon="7.830588">
        <ele>383.88495</ele>
        <time>2024-10-15T06:27:24.000Z</time>
      </trkpt>
      <trkpt lat="45.560205" lon="7.830613">
        <ele>384.20996</ele>
        <time>2024-10-15T06:27:26.000Z</time>
      </trkpt>
      <trkpt lat="45.560223" lon="7.830593">
        <ele>384.48495</ele>
        <time>2024-10-15T06:27:28.000Z</time>
      </trkpt>
      <trkpt lat="45.560247" lon="7.830593">
        <ele>384.69998</ele>
        <time>2024-10-15T06:27:30.000Z</time>
      </trkpt>
      <trkpt lat="45.560257" lon="7.830568">
        <ele>384.75998</ele>
        <time>2024-10-15T06:27:31.000Z</time>
      </trkpt>
      <trkpt lat="45.560263" lon="7.83053">
        <ele>384.815</ele>
        <time>2024-10-15T06:27:32.000Z</time>
      </trkpt>
      <trkpt lat="45.560277" lon="7.83051">
        <ele>384.97501</ele>
        <time>2024-10-15T06:27:33.000Z</time>
      </trkpt>
      <trkpt lat="45.560295" lon="7.830508">
        <ele>385.22501</ele>
        <time>2024-10-15T06:27:35.000Z</time>
      </trkpt>
      <trkpt lat="45.560312" lon="7.830495">
        <ele>385.41998</ele>
        <time>2024-10-15T06:27:37.000Z</time>
      </trkpt>
      <trkpt lat="45.560333" lon="7.830517">
        <ele>385.595</ele>
        <time>2024-10-15T06:27:39.000Z</time>
      </trkpt>
      <trkpt lat="45.560352" lon="7.830525">
        <ele>385.82001</ele>
        <time>2024-10-15T06:27:43.000Z</time>
      </trkpt>
      <trkpt lat="45.560375" lon="7.830505">
        <ele>386.07999</ele>
        <time>2024-10-15T06:27:46.000Z</time>
      </trkpt>
      <trkpt lat="45.56038" lon="7.830478">
        <ele>386.36496</ele>
        <time>2024-10-15T06:27:50.000Z</time>
      </trkpt>
      <trkpt lat="45.56038" lon="7.830515">
        <ele>386.86996</ele>
        <time>2024-10-15T06:27:57.000Z</time>
      </trkpt>
      <trkpt lat="45.560358" lon="7.830502">
        <ele>387.49997</ele>
        <time>2024-10-15T06:27:58.000Z</time>
      </trkpt>
      <trkpt lat="45.560372" lon="7.830525">
        <ele>388.25995</ele>
        <time>2024-10-15T06:28:03.000Z</time>
      </trkpt>
      <trkpt lat="45.56039" lon="7.830515">
        <ele>389.06998</ele>
        <time>2024-10-15T06:28:05.000Z</time>
      </trkpt>
      <trkpt lat="45.560403" lon="7.830492">
        <ele>389.94995</ele>
        <time>2024-10-15T06:28:07.000Z</time>
      </trkpt>
      <trkpt lat="45.560417" lon="7.830463">
        <ele>390.89496</ele>
        <time>2024-10-15T06:28:10.000Z</time>
      </trkpt>
      <trkpt lat="45.560433" lon="7.830433">
        <ele>391.88995</ele>
        <time>2024-10-15T06:28:14.000Z</time>
      </trkpt>
      <trkpt lat="45.56045" lon="7.830417">
        <ele>392.90497</ele>
        <time>2024-10-15T06:28:16.000Z</time>
      </trkpt>
      <trkpt lat="45.560455" lon="7.830443">
        <ele>393.87497</ele>
        <time>2024-10-15T06:28:19.000Z</time>
      </trkpt>
      <trkpt lat="45.56047" lon="7.830498">
        <ele>394.85498</ele>
        <time>2024-10-15T06:28:40.000Z</time>
      </trkpt>
      <trkpt lat="45.56049" lon="7.830487">
        <ele>395.86996</ele>
        <time>2024-10-15T06:28:42.000Z</time>
      </trkpt>
      <trkpt lat="45.560508" lon="7.830468">
        <ele>396.93497</ele>
        <time>2024-10-15T06:28:46.000Z</time>
      </trkpt>
      <trkpt lat="45.560518" lon="7.830438">
        <ele>398.02496</ele>
        <time>2024-10-15T06:28:48.000Z</time>
      </trkpt>
      <trkpt lat="45.56052" lon="7.8304">
        <ele>399.14496</ele>
        <time>2024-10-15T06:28:50.000Z</time>
      </trkpt>
      <trkpt lat="45.56053" lon="7.83037">
        <ele>400.28998</ele>
        <time>2024-10-15T06:28:52.000Z</time>
      </trkpt>
      <trkpt lat="45.560552" lon="7.83036">
        <ele>401.44998</ele>
        <time>2024-10-15T06:28:54.000Z</time>
      </trkpt>
      <trkpt lat="45.56058" lon="7.830383">
        <ele>402.59497</ele>
        <time>2024-10-15T06:28:56.000Z</time>
      </trkpt>
      <trkpt lat="45.560605" lon="7.830365">
        <ele>403.63495</ele>
        <time>2024-10-15T06:28:58.000Z</time>
      </trkpt>
      <trkpt lat="45.560627" lon="7.830355">
        <ele>404.61996</ele>
        <time>2024-10-15T06:29:00.000Z</time>
      </trkpt>
      <trkpt lat="45.560652" lon="7.830362">
        <ele>405.51498</ele>
        <time>2024-10-15T06:29:03.000Z</time>
      </trkpt>
      <trkpt lat="45.560673" lon="7.830353">
        <ele>406.14996</ele>
        <time>2024-10-15T06:29:05.000Z</time>
      </trkpt>
      <trkpt lat="45.560688" lon="7.83033">
        <ele>406.64996</ele>
        <time>2024-10-15T06:29:07.000Z</time>
      </trkpt>
      <trkpt lat="45.560708" lon="7.830312">
        <ele>407.04999</ele>
        <time>2024-10-15T06:29:09.000Z</time>
      </trkpt>
      <trkpt lat="45.560722" lon="7.830292">
        <ele>407.43497</ele>
        <time>2024-10-15T06:29:11.000Z</time>
      </trkpt>
      <trkpt lat="45.560738" lon="7.83028">
        <ele>407.79498</ele>
        <time>2024-10-15T06:29:14.000Z</time>
      </trkpt>
      <trkpt lat="45.560757" lon="7.830288">
        <ele>408.10495</ele>
        <time>2024-10-15T06:29:17.000Z</time>
      </trkpt>
      <trkpt lat="45.560777" lon="7.830272">
        <ele>408.34998</ele>
        <time>2024-10-15T06:29:19.000Z</time>
      </trkpt>
      <trkpt lat="45.560795" lon="7.830273">
        <ele>408.57999</ele>
        <time>2024-10-15T06:29:21.000Z</time>
      </trkpt>
      <trkpt lat="45.560815" lon="7.830273">
        <ele>408.85999</ele>
        <time>2024-10-15T06:29:23.000Z</time>
      </trkpt>
      <trkpt lat="45.560833" lon="7.830278">
        <ele>409.14496</ele>
        <time>2024-10-15T06:29:25.000Z</time>
      </trkpt>
      <trkpt lat="45.560853" lon="7.830258">
        <ele>409.40497</ele>
        <time>2024-10-15T06:29:27.000Z</time>
      </trkpt>
      <trkpt lat="45.560875" lon="7.830247">
        <ele>409.625</ele>
        <time>2024-10-15T06:29:30.000Z</time>
      </trkpt>
      <trkpt lat="45.560888" lon="7.83021">
        <ele>409.83502</ele>
        <time>2024-10-15T06:29:32.000Z</time>
      </trkpt>
      <trkpt lat="45.560895" lon="7.830143">
        <ele>410.01498</ele>
        <time>2024-10-15T06:29:34.000Z</time>
      </trkpt>
      <trkpt lat="45.560907" lon="7.830113">
        <ele>410.16998</ele>
        <time>2024-10-15T06:29:36.000Z</time>
      </trkpt>
      <trkpt lat="45.56091" lon="7.830087">
        <ele>410.27997</ele>
        <time>2024-10-15T06:29:38.000Z</time>
      </trkpt>
      <trkpt lat="45.560907" lon="7.830047">
        <ele>410.38998</ele>
        <time>2024-10-15T06:29:40.000Z</time>
      </trkpt>
      <trkpt lat="45.560922" lon="7.83003">
        <ele>410.52997</ele>
        <time>2024-10-15T06:29:42.000Z</time>
      </trkpt>
      <trkpt lat="45.560942" lon="7.83001">
        <ele>410.66998</ele>
        <time>2024-10-15T06:29:44.000Z</time>
      </trkpt>
      <trkpt lat="45.560962" lon="7.830002">
        <ele>410.80499</ele>
        <time>2024-10-15T06:29:45.000Z</time>
      </trkpt>
      <trkpt lat="45.560998" lon="7.830007">
        <ele>410.92999</ele>
        <time>2024-10-15T06:29:47.000Z</time>
      </trkpt>
      <trkpt lat="45.56103" lon="7.830015">
        <ele>411.05997</ele>
        <time>2024-10-15T06:29:49.000Z</time>
      </trkpt>
      <trkpt lat="45.561048" lon="7.83">
        <ele>411.20499</ele>
        <time>2024-10-15T06:29:52.000Z</time>
      </trkpt>
      <trkpt lat="45.561068" lon="7.829997">
        <ele>411.36996</ele>
        <time>2024-10-15T06:29:54.000Z</time>
      </trkpt>
      <trkpt lat="45.56109" lon="7.829978">
        <ele>411.50995</ele>
        <time>2024-10-15T06:29:56.000Z</time>
      </trkpt>
      <trkpt lat="45.561107" lon="7.829965">
        <ele>411.63995</ele>
        <time>2024-10-15T06:29:58.000Z</time>
      </trkpt>
      <trkpt lat="45.561125" lon="7.829948">
        <ele>411.82495</ele>
        <time>2024-10-15T06:30:00.000Z</time>
      </trkpt>
      <trkpt lat="45.561143" lon="7.829928">
        <ele>412.05997</ele>
        <time>2024-10-15T06:30:02.000Z</time>
      </trkpt>
      <trkpt lat="45.561162" lon="7.82992">
        <ele>412.32495</ele>
        <time>2024-10-15T06:30:04.000Z</time>
      </trkpt>
      <trkpt lat="45.561187" lon="7.82992">
        <ele>412.58994</ele>
        <time>2024-10-15T06:30:06.000Z</time>
      </trkpt>
      <trkpt lat="45.56121" lon="7.82991">
        <ele>412.85492</ele>
        <time>2024-10-15T06:30:08.000Z</time>
      </trkpt>
      <trkpt lat="45.561237" lon="7.829893">
        <ele>413.13995</ele>
        <time>2024-10-15T06:30:11.000Z</time>
      </trkpt>
      <trkpt lat="45.561255" lon="7.829875">
        <ele>413.42496</ele>
        <time>2024-10-15T06:30:13.000Z</time>
      </trkpt>
      <trkpt lat="45.561272" lon="7.829857">
        <ele>413.71991</ele>
        <time>2024-10-15T06:30:15.000Z</time>
      </trkpt>
      <trkpt lat="45.561297" lon="7.829843">
        <ele>414.02994</ele>
        <time>2024-10-15T06:30:18.000Z</time>
      </trkpt>
      <trkpt lat="45.561318" lon="7.829833">
        <ele>414.37994</ele>
        <time>2024-10-15T06:30:20.000Z</time>
      </trkpt>
      <trkpt lat="45.561337" lon="7.82982">
        <ele>414.75995</ele>
        <time>2024-10-15T06:30:22.000Z</time>
      </trkpt>
      <trkpt lat="45.561355" lon="7.829813">
        <ele>415.14996</ele>
        <time>2024-10-15T06:30:24.000Z</time>
      </trkpt>
      <trkpt lat="45.561373" lon="7.829815">
        <ele>415.56494</ele>
        <time>2024-10-15T06:30:26.000Z</time>
      </trkpt>
      <trkpt lat="45.56141" lon="7.829807">
        <ele>415.97495</ele>
        <time>2024-10-15T06:30:28.000Z</time>
      </trkpt>
      <trkpt lat="45.561428" lon="7.829798">
        <ele>416.37997</ele>
        <time>2024-10-15T06:30:29.000Z</time>
      </trkpt>
      <trkpt lat="45.56145" lon="7.829775">
        <ele>416.78497</ele>
        <time>2024-10-15T06:30:31.000Z</time>
      </trkpt>
      <trkpt lat="45.561472" lon="7.829755">
        <ele>417.16495</ele>
        <time>2024-10-15T06:30:33.000Z</time>
      </trkpt>
      <trkpt lat="45.561502" lon="7.829735">
        <ele>417.52994</ele>
        <time>2024-10-15T06:30:35.000Z</time>
      </trkpt>
      <trkpt lat="45.561525" lon="7.829737">
        <ele>417.89996</ele>
        <time>2024-10-15T06:30:37.000Z</time>
      </trkpt>
      <trkpt lat="45.561552" lon="7.829723">
        <ele>418.27496</ele>
        <time>2024-10-15T06:30:40.000Z</time>
      </trkpt>
      <trkpt lat="45.561578" lon="7.829715">
        <ele>418.60995</ele>
        <time>2024-10-15T06:30:42.000Z</time>
      </trkpt>
      <trkpt lat="45.56161" lon="7.829717">
        <ele>418.89496</ele>
        <time>2024-10-15T06:30:44.000Z</time>
      </trkpt>
      <trkpt lat="45.561632" lon="7.829708">
        <ele>419.16498</ele>
        <time>2024-10-15T06:30:46.000Z</time>
      </trkpt>
      <trkpt lat="45.561665" lon="7.829708">
        <ele>419.47998</ele>
        <time>2024-10-15T06:30:49.000Z</time>
      </trkpt>
      <trkpt lat="45.561695" lon="7.829705">
        <ele>419.84</ele>
        <time>2024-10-15T06:30:51.000Z</time>
      </trkpt>
      <trkpt lat="45.561713" lon="7.829687">
        <ele>420.23999</ele>
        <time>2024-10-15T06:30:53.000Z</time>
      </trkpt>
      <trkpt lat="45.561713" lon="7.829643">
        <ele>420.67999</ele>
        <time>2024-10-15T06:30:55.000Z</time>
      </trkpt>
      <trkpt lat="45.561735" lon="7.829628">
        <ele>421.14999</ele>
        <time>2024-10-15T06:30:57.000Z</time>
      </trkpt>
      <trkpt lat="45.561758" lon="7.829615">
        <ele>421.65503</ele>
        <time>2024-10-15T06:30:59.000Z</time>
      </trkpt>
      <trkpt lat="45.561787" lon="7.8296">
        <ele>422.21005</ele>
        <time>2024-10-15T06:31:01.000Z</time>
      </trkpt>
      <trkpt lat="45.561813" lon="7.829585">
        <ele>422.77505</ele>
        <time>2024-10-15T06:31:03.000Z</time>
      </trkpt>
      <trkpt lat="45.561832" lon="7.82957">
        <ele>423.34506</ele>
        <time>2024-10-15T06:31:06.000Z</time>
      </trkpt>
      <trkpt lat="45.561843" lon="7.829548">
        <ele>423.86505</ele>
        <time>2024-10-15T06:31:08.000Z</time>
      </trkpt>
      <trkpt lat="45.561855" lon="7.829522">
        <ele>424.37506</ele>
        <time>2024-10-15T06:31:09.000Z</time>
      </trkpt>
      <trkpt lat="45.56187" lon="7.82949">
        <ele>424.91504</ele>
        <time>2024-10-15T06:31:12.000Z</time>
      </trkpt>
      <trkpt lat="45.561883" lon="7.829452">
        <ele>425.47003</ele>
        <time>2024-10-15T06:31:14.000Z</time>
      </trkpt>
      <trkpt lat="45.561893" lon="7.829417">
        <ele>426.035</ele>
        <time>2024-10-15T06:31:16.000Z</time>
      </trkpt>
      <trkpt lat="45.56191" lon="7.829402">
        <ele>426.63004</ele>
        <time>2024-10-15T06:31:19.000Z</time>
      </trkpt>
      <trkpt lat="45.56194" lon="7.8294">
        <ele>427.23502</ele>
        <time>2024-10-15T06:31:21.000Z</time>
      </trkpt>
      <trkpt lat="45.561963" lon="7.829392">
        <ele>427.87003</ele>
        <time>2024-10-15T06:31:23.000Z</time>
      </trkpt>
      <trkpt lat="45.561985" lon="7.82936">
        <ele>428.535</ele>
        <time>2024-10-15T06:31:25.000Z</time>
      </trkpt>
      <trkpt lat="45.562005" lon="7.829372">
        <ele>429.27002</ele>
        <time>2024-10-15T06:31:28.000Z</time>
      </trkpt>
      <trkpt lat="45.562015" lon="7.829393">
        <ele>429.99503</ele>
        <time>2024-10-15T06:31:29.000Z</time>
      </trkpt>
      <trkpt lat="45.562033" lon="7.829407">
        <ele>430.66</ele>
        <time>2024-10-15T06:31:31.000Z</time>
      </trkpt>
      <trkpt lat="45.56205" lon="7.829395">
        <ele>431.32501</ele>
        <time>2024-10-15T06:31:34.000Z</time>
      </trkpt>
      <trkpt lat="45.562075" lon="7.829388">
        <ele>431.94498</ele>
        <time>2024-10-15T06:31:36.000Z</time>
      </trkpt>
      <trkpt lat="45.562098" lon="7.829372">
        <ele>432.50995</ele>
        <time>2024-10-15T06:31:38.000Z</time>
      </trkpt>
      <trkpt lat="45.562125" lon="7.829347">
        <ele>433.01993</ele>
        <time>2024-10-15T06:31:40.000Z</time>
      </trkpt>
      <trkpt lat="45.562153" lon="7.829308">
        <ele>433.43988</ele>
        <time>2024-10-15T06:31:42.000Z</time>
      </trkpt>
      <trkpt lat="45.562177" lon="7.829283">
        <ele>433.80487</ele>
        <time>2024-10-15T06:31:44.000Z</time>
      </trkpt>
      <trkpt lat="45.562198" lon="7.829258">
        <ele>434.11987</ele>
        <time>2024-10-15T06:31:46.000Z</time>
      </trkpt>
      <trkpt lat="45.56222" lon="7.829242">
        <ele>434.34991</ele>
        <time>2024-10-15T06:31:48.000Z</time>
      </trkpt>
      <trkpt lat="45.562208" lon="7.829153">
        <ele>434.49991</ele>
        <time>2024-10-15T06:32:25.000Z</time>
      </trkpt>
      <trkpt lat="45.562198" lon="7.829177">
        <ele>434.70493</ele>
        <time>2024-10-15T06:32:37.000Z</time>
      </trkpt>
      <trkpt lat="45.562222" lon="7.829183">
        <ele>434.85492</ele>
        <time>2024-10-15T06:32:44.000Z</time>
      </trkpt>
      <trkpt lat="45.562242" lon="7.829175">
        <ele>434.98495</ele>
        <time>2024-10-15T06:32:46.000Z</time>
      </trkpt>
      <trkpt lat="45.562263" lon="7.829168">
        <ele>435.09497</ele>
        <time>2024-10-15T06:32:48.000Z</time>
      </trkpt>
      <trkpt lat="45.56228" lon="7.829153">
        <ele>435.13495</ele>
        <time>2024-10-15T06:32:50.000Z</time>
      </trkpt>
      <trkpt lat="45.562307" lon="7.829133">
        <ele>435.15997</ele>
        <time>2024-10-15T06:32:53.000Z</time>
      </trkpt>
      <trkpt lat="45.562328" lon="7.829108">
        <ele>435.17496</ele>
        <time>2024-10-15T06:32:55.000Z</time>
      </trkpt>
      <trkpt lat="45.562345" lon="7.829098">
        <ele>435.19492</ele>
        <time>2024-10-15T06:32:58.000Z</time>
      </trkpt>
      <trkpt lat="45.562358" lon="7.829078">
        <ele>435.18491</ele>
        <time>2024-10-15T06:33:02.000Z</time>
      </trkpt>
      <trkpt lat="45.56237" lon="7.829058">
        <ele>435.18988</ele>
        <time>2024-10-15T06:33:05.000Z</time>
      </trkpt>
      <trkpt lat="45.562383" lon="7.82903">
        <ele>435.2049</ele>
        <time>2024-10-15T06:33:08.000Z</time>
      </trkpt>
      <trkpt lat="45.562392" lon="7.829002">
        <ele>435.12988</ele>
        <time>2024-10-15T06:33:12.000Z</time>
      </trkpt>
      <trkpt lat="45.562413" lon="7.828997">
        <ele>435.0249</ele>
        <time>2024-10-15T06:33:15.000Z</time>
      </trkpt>
      <trkpt lat="45.562445" lon="7.828997">
        <ele>434.9649</ele>
        <time>2024-10-15T06:33:17.000Z</time>
      </trkpt>
      <trkpt lat="45.562465" lon="7.829002">
        <ele>434.97992</ele>
        <time>2024-10-15T06:33:19.000Z</time>
      </trkpt>
      <trkpt lat="45.56248" lon="7.828987">
        <ele>435.07993</ele>
        <time>2024-10-15T06:33:21.000Z</time>
      </trkpt>
      <trkpt lat="45.562495" lon="7.828952">
        <ele>435.21494</ele>
        <time>2024-10-15T06:33:23.000Z</time>
      </trkpt>
      <trkpt lat="45.562505" lon="7.828922">
        <ele>435.37494</ele>
        <time>2024-10-15T06:33:25.000Z</time>
      </trkpt>
      <trkpt lat="45.562522" lon="7.8289">
        <ele>435.56992</ele>
        <time>2024-10-15T06:33:27.000Z</time>
      </trkpt>
      <trkpt lat="45.56254" lon="7.828883">
        <ele>435.80991</ele>
        <time>2024-10-15T06:33:29.000Z</time>
      </trkpt>
      <trkpt lat="45.562552" lon="7.828853">
        <ele>435.9549</ele>
        <time>2024-10-15T06:33:32.000Z</time>
      </trkpt>
      <trkpt lat="45.562565" lon="7.828823">
        <ele>436.1149</ele>
        <time>2024-10-15T06:33:35.000Z</time>
      </trkpt>
      <trkpt lat="45.562582" lon="7.828803">
        <ele>436.27484</ele>
        <time>2024-10-15T06:33:37.000Z</time>
      </trkpt>
      <trkpt lat="45.562595" lon="7.828778">
        <ele>436.46484</ele>
        <time>2024-10-15T06:33:40.000Z</time>
      </trkpt>
      <trkpt lat="45.562608" lon="7.828753">
        <ele>436.7049</ele>
        <time>2024-10-15T06:33:42.000Z</time>
      </trkpt>
      <trkpt lat="45.56263" lon="7.82873">
        <ele>436.98492</ele>
        <time>2024-10-15T06:33:44.000Z</time>
      </trkpt>
      <trkpt lat="45.562645" lon="7.828708">
        <ele>437.32993</ele>
        <time>2024-10-15T06:33:47.000Z</time>
      </trkpt>
      <trkpt lat="45.562655" lon="7.82868">
        <ele>437.72495</ele>
        <time>2024-10-15T06:33:50.000Z</time>
      </trkpt>
      <trkpt lat="45.562677" lon="7.828675">
        <ele>438.19498</ele>
        <time>2024-10-15T06:33:53.000Z</time>
      </trkpt>
      <trkpt lat="45.562702" lon="7.828675">
        <ele>438.65497</ele>
        <time>2024-10-15T06:33:55.000Z</time>
      </trkpt>
      <trkpt lat="45.562732" lon="7.828672">
        <ele>439.15497</ele>
        <time>2024-10-15T06:33:58.000Z</time>
      </trkpt>
      <trkpt lat="45.56275" lon="7.828668">
        <ele>439.68994</ele>
        <time>2024-10-15T06:33:59.000Z</time>
      </trkpt>
      <trkpt lat="45.562777" lon="7.82866">
        <ele>440.22495</ele>
        <time>2024-10-15T06:34:01.000Z</time>
      </trkpt>
      <trkpt lat="45.562792" lon="7.828643">
        <ele>440.69995</ele>
        <time>2024-10-15T06:34:03.000Z</time>
      </trkpt>
      <trkpt lat="45.562808" lon="7.828618">
        <ele>441.11493</ele>
        <time>2024-10-15T06:34:06.000Z</time>
      </trkpt>
      <trkpt lat="45.562828" lon="7.828595">
        <ele>441.46494</ele>
        <time>2024-10-15T06:34:09.000Z</time>
      </trkpt>
      <trkpt lat="45.562845" lon="7.828575">
        <ele>441.78497</ele>
        <time>2024-10-15T06:34:11.000Z</time>
      </trkpt>
      <trkpt lat="45.562862" lon="7.828557">
        <ele>442.09995</ele>
        <time>2024-10-15T06:34:13.000Z</time>
      </trkpt>
      <trkpt lat="45.56288" lon="7.828542">
        <ele>442.42999</ele>
        <time>2024-10-15T06:34:15.000Z</time>
      </trkpt>
      <trkpt lat="45.562898" lon="7.828535">
        <ele>442.81998</ele>
        <time>2024-10-15T06:34:17.000Z</time>
      </trkpt>
      <trkpt lat="45.562918" lon="7.828525">
        <ele>443.26498</ele>
        <time>2024-10-15T06:34:19.000Z</time>
      </trkpt>
      <trkpt lat="45.562933" lon="7.828505">
        <ele>443.73502</ele>
        <time>2024-10-15T06:34:21.000Z</time>
      </trkpt>
      <trkpt lat="45.562953" lon="7.828497">
        <ele>444.30502</ele>
        <time>2024-10-15T06:34:24.000Z</time>
      </trkpt>
      <trkpt lat="45.562983" lon="7.828495">
        <ele>444.88004</ele>
        <time>2024-10-15T06:34:26.000Z</time>
      </trkpt>
      <trkpt lat="45.563008" lon="7.828478">
        <ele>445.45001</ele>
        <time>2024-10-15T06:34:29.000Z</time>
      </trkpt>
      <trkpt lat="45.563032" lon="7.828498">
        <ele>446.02499</ele>
        <time>2024-10-15T06:34:31.000Z</time>
      </trkpt>
      <trkpt lat="45.563055" lon="7.828498">
        <ele>446.54498</ele>
        <time>2024-10-15T06:34:34.000Z</time>
      </trkpt>
      <trkpt lat="45.563075" lon="7.828522">
        <ele>446.99994</ele>
        <time>2024-10-15T06:34:36.000Z</time>
      </trkpt>
      <trkpt lat="45.563097" lon="7.828547">
        <ele>447.36493</ele>
        <time>2024-10-15T06:34:38.000Z</time>
      </trkpt>
      <trkpt lat="45.563117" lon="7.82858">
        <ele>447.71991</ele>
        <time>2024-10-15T06:34:40.000Z</time>
      </trkpt>
      <trkpt lat="45.563127" lon="7.828602">
        <ele>448.05493</ele>
        <time>2024-10-15T06:34:41.000Z</time>
      </trkpt>
      <trkpt lat="45.563153" lon="7.828628">
        <ele>448.47992</ele>
        <time>2024-10-15T06:34:43.000Z</time>
      </trkpt>
      <trkpt lat="45.563177" lon="7.828645">
        <ele>448.97491</ele>
        <time>2024-10-15T06:34:45.000Z</time>
      </trkpt>
      <trkpt lat="45.563195" lon="7.828655">
        <ele>449.53989</ele>
        <time>2024-10-15T06:34:47.000Z</time>
      </trkpt>
      <trkpt lat="45.563217" lon="7.828648">
        <ele>450.14487</ele>
        <time>2024-10-15T06:34:49.000Z</time>
      </trkpt>
      <trkpt lat="45.563247" lon="7.82866">
        <ele>450.74991</ele>
        <time>2024-10-15T06:34:51.000Z</time>
      </trkpt>
      <trkpt lat="45.563268" lon="7.828653">
        <ele>451.30487</ele>
        <time>2024-10-15T06:34:53.000Z</time>
      </trkpt>
      <trkpt lat="45.563292" lon="7.82864">
        <ele>451.81488</ele>
        <time>2024-10-15T06:34:55.000Z</time>
      </trkpt>
      <trkpt lat="45.563322" lon="7.828638">
        <ele>452.29486</ele>
        <time>2024-10-15T06:34:57.000Z</time>
      </trkpt>
      <trkpt lat="45.563338" lon="7.828623">
        <ele>452.75992</ele>
        <time>2024-10-15T06:34:59.000Z</time>
      </trkpt>
      <trkpt lat="45.563348" lon="7.8286">
        <ele>453.2399</ele>
        <time>2024-10-15T06:35:01.000Z</time>
      </trkpt>
      <trkpt lat="45.563362" lon="7.828582">
        <ele>453.7149</ele>
        <time>2024-10-15T06:35:03.000Z</time>
      </trkpt>
      <trkpt lat="45.563383" lon="7.82857">
        <ele>454.0899</ele>
        <time>2024-10-15T06:35:05.000Z</time>
      </trkpt>
      <trkpt lat="45.563408" lon="7.82855">
        <ele>454.42993</ele>
        <time>2024-10-15T06:35:07.000Z</time>
      </trkpt>
      <trkpt lat="45.563432" lon="7.828533">
        <ele>454.73993</ele>
        <time>2024-10-15T06:35:09.000Z</time>
      </trkpt>
      <trkpt lat="45.563455" lon="7.828522">
        <ele>455.00992</ele>
        <time>2024-10-15T06:35:11.000Z</time>
      </trkpt>
      <trkpt lat="45.56347" lon="7.828497">
        <ele>455.2999</ele>
        <time>2024-10-15T06:35:14.000Z</time>
      </trkpt>
      <trkpt lat="45.563488" lon="7.828493">
        <ele>455.5849</ele>
        <time>2024-10-15T06:35:16.000Z</time>
      </trkpt>
      <trkpt lat="45.56352" lon="7.828485">
        <ele>455.86993</ele>
        <time>2024-10-15T06:35:18.000Z</time>
      </trkpt>
      <trkpt lat="45.563542" lon="7.828467">
        <ele>456.16495</ele>
        <time>2024-10-15T06:35:20.000Z</time>
      </trkpt>
      <trkpt lat="45.563563" lon="7.82844">
        <ele>456.44498</ele>
        <time>2024-10-15T06:35:22.000Z</time>
      </trkpt>
      <trkpt lat="45.56359" lon="7.828435">
        <ele>456.66998</ele>
        <time>2024-10-15T06:35:25.000Z</time>
      </trkpt>
      <trkpt lat="45.563608" lon="7.828435">
        <ele>456.86499</ele>
        <time>2024-10-15T06:35:27.000Z</time>
      </trkpt>
      <trkpt lat="45.563627" lon="7.828425">
        <ele>457.04501</ele>
        <time>2024-10-15T06:35:29.000Z</time>
      </trkpt>
      <trkpt lat="45.563647" lon="7.828415">
        <ele>457.22504</ele>
        <time>2024-10-15T06:35:31.000Z</time>
      </trkpt>
      <trkpt lat="45.563665" lon="7.828415">
        <ele>457.44003</ele>
        <time>2024-10-15T06:35:33.000Z</time>
      </trkpt>
      <trkpt lat="45.563683" lon="7.82841">
        <ele>457.71005</ele>
        <time>2024-10-15T06:35:35.000Z</time>
      </trkpt>
      <trkpt lat="45.563712" lon="7.828417">
        <ele>458.02008</ele>
        <time>2024-10-15T06:35:37.000Z</time>
      </trkpt>
      <trkpt lat="45.563733" lon="7.82841">
        <ele>458.39008</ele>
        <time>2024-10-15T06:35:39.000Z</time>
      </trkpt>
      <trkpt lat="45.563755" lon="7.828402">
        <ele>458.80508</ele>
        <time>2024-10-15T06:35:41.000Z</time>
      </trkpt>
      <trkpt lat="45.563785" lon="7.82841">
        <ele>459.23007</ele>
        <time>2024-10-15T06:35:43.000Z</time>
      </trkpt>
      <trkpt lat="45.563813" lon="7.828418">
        <ele>459.67505</ele>
        <time>2024-10-15T06:35:45.000Z</time>
      </trkpt>
      <trkpt lat="45.563845" lon="7.828435">
        <ele>460.10004</ele>
        <time>2024-10-15T06:35:47.000Z</time>
      </trkpt>
      <trkpt lat="45.563865" lon="7.82844">
        <ele>460.52505</ele>
        <time>2024-10-15T06:35:49.000Z</time>
      </trkpt>
      <trkpt lat="45.563885" lon="7.828445">
        <ele>460.95502</ele>
        <time>2024-10-15T06:35:51.000Z</time>
      </trkpt>
      <trkpt lat="45.563908" lon="7.828452">
        <ele>461.40005</ele>
        <time>2024-10-15T06:35:53.000Z</time>
      </trkpt>
      <trkpt lat="45.563925" lon="7.828465">
        <ele>461.7901</ele>
        <time>2024-10-15T06:35:54.000Z</time>
      </trkpt>
      <trkpt lat="45.563943" lon="7.828482">
        <ele>462.15509</ele>
        <time>2024-10-15T06:35:56.000Z</time>
      </trkpt>
      <trkpt lat="45.563962" lon="7.828495">
        <ele>462.47006</ele>
        <time>2024-10-15T06:35:58.000Z</time>
      </trkpt>
      <trkpt lat="45.563987" lon="7.828503">
        <ele>462.78009</ele>
        <time>2024-10-15T06:36:00.000Z</time>
      </trkpt>
      <trkpt lat="45.564008" lon="7.828498">
        <ele>463.09506</ele>
        <time>2024-10-15T06:36:02.000Z</time>
      </trkpt>
      <trkpt lat="45.56403" lon="7.828517">
        <ele>463.42511</ele>
        <time>2024-10-15T06:36:06.000Z</time>
      </trkpt>
      <trkpt lat="45.564052" lon="7.828543">
        <ele>463.73511</ele>
        <time>2024-10-15T06:36:09.000Z</time>
      </trkpt>
      <trkpt lat="45.564077" lon="7.82856">
        <ele>464.05011</ele>
        <time>2024-10-15T06:36:11.000Z</time>
      </trkpt>
      <trkpt lat="45.5641" lon="7.828587">
        <ele>464.36508</ele>
        <time>2024-10-15T06:36:13.000Z</time>
      </trkpt>
      <trkpt lat="45.564125" lon="7.828603">
        <ele>464.67511</ele>
        <time>2024-10-15T06:36:15.000Z</time>
      </trkpt>
      <trkpt lat="45.564145" lon="7.828622">
        <ele>465.01508</ele>
        <time>2024-10-15T06:36:17.000Z</time>
      </trkpt>
      <trkpt lat="45.564167" lon="7.828642">
        <ele>465.41006</ele>
        <time>2024-10-15T06:36:19.000Z</time>
      </trkpt>
      <trkpt lat="45.564192" lon="7.828658">
        <ele>465.83002</ele>
        <time>2024-10-15T06:36:22.000Z</time>
      </trkpt>
      <trkpt lat="45.564217" lon="7.828665">
        <ele>466.23004</ele>
        <time>2024-10-15T06:36:24.000Z</time>
      </trkpt>
      <trkpt lat="45.564243" lon="7.828663">
        <ele>466.64005</ele>
        <time>2024-10-15T06:36:27.000Z</time>
      </trkpt>
      <trkpt lat="45.564263" lon="7.828667">
        <ele>467.03003</ele>
        <time>2024-10-15T06:36:29.000Z</time>
      </trkpt>
      <trkpt lat="45.564263" lon="7.828698">
        <ele>467.42001</ele>
        <time>2024-10-15T06:36:33.000Z</time>
      </trkpt>
      <trkpt lat="45.564277" lon="7.82872">
        <ele>467.70001</ele>
        <time>2024-10-15T06:36:39.000Z</time>
      </trkpt>
      <trkpt lat="45.564265" lon="7.82874">
        <ele>467.89999</ele>
        <time>2024-10-15T06:37:04.000Z</time>
      </trkpt>
      <trkpt lat="45.564287" lon="7.828727">
        <ele>468.14496</ele>
        <time>2024-10-15T06:37:29.000Z</time>
      </trkpt>
      <trkpt lat="45.5643" lon="7.828708">
        <ele>468.37994</ele>
        <time>2024-10-15T06:37:31.000Z</time>
      </trkpt>
      <trkpt lat="45.564323" lon="7.828695">
        <ele>468.62994</ele>
        <time>2024-10-15T06:37:33.000Z</time>
      </trkpt>
      <trkpt lat="45.564353" lon="7.828703">
        <ele>468.90997</ele>
        <time>2024-10-15T06:37:35.000Z</time>
      </trkpt>
      <trkpt lat="45.56438" lon="7.828707">
        <ele>469.15494</ele>
        <time>2024-10-15T06:37:37.000Z</time>
      </trkpt>
      <trkpt lat="45.564407" lon="7.828713">
        <ele>469.39493</ele>
        <time>2024-10-15T06:37:40.000Z</time>
      </trkpt>
      <trkpt lat="45.564428" lon="7.828718">
        <ele>469.57993</ele>
        <time>2024-10-15T06:37:42.000Z</time>
      </trkpt>
      <trkpt lat="45.564452" lon="7.828728">
        <ele>469.70493</ele>
        <time>2024-10-15T06:37:44.000Z</time>
      </trkpt>
      <trkpt lat="45.56447" lon="7.82871">
        <ele>469.68491</ele>
        <time>2024-10-15T06:37:49.000Z</time>
      </trkpt>
      <trkpt lat="45.56447" lon="7.828683">
        <ele>469.69989</ele>
        <time>2024-10-15T06:37:52.000Z</time>
      </trkpt>
      <trkpt lat="45.564497" lon="7.828673">
        <ele>469.95987</ele>
        <time>2024-10-15T06:38:17.000Z</time>
      </trkpt>
      <trkpt lat="45.564517" lon="7.828665">
        <ele>470.15485</ele>
        <time>2024-10-15T06:38:19.000Z</time>
      </trkpt>
      <trkpt lat="45.564535" lon="7.828637">
        <ele>470.28485</ele>
        <time>2024-10-15T06:38:22.000Z</time>
      </trkpt>
      <trkpt lat="45.564553" lon="7.828613">
        <ele>470.38989</ele>
        <time>2024-10-15T06:38:24.000Z</time>
      </trkpt>
      <trkpt lat="45.56457" lon="7.828602">
        <ele>470.50488</ele>
        <time>2024-10-15T06:38:26.000Z</time>
      </trkpt>
      <trkpt lat="45.564595" lon="7.828573">
        <ele>470.62988</ele>
        <time>2024-10-15T06:38:28.000Z</time>
      </trkpt>
      <trkpt lat="45.564613" lon="7.828545">
        <ele>470.72491</ele>
        <time>2024-10-15T06:38:30.000Z</time>
      </trkpt>
      <trkpt lat="45.564637" lon="7.828518">
        <ele>470.81488</ele>
        <time>2024-10-15T06:38:32.000Z</time>
      </trkpt>
      <trkpt lat="45.56463" lon="7.828493">
        <ele>471.01489</ele>
        <time>2024-10-15T06:38:36.000Z</time>
      </trkpt>
      <trkpt lat="45.564618" lon="7.828465">
        <ele>471.26993</ele>
        <time>2024-10-15T06:38:38.000Z</time>
      </trkpt>
      <trkpt lat="45.564598" lon="7.828447">
        <ele>471.37994</ele>
        <time>2024-10-15T06:38:41.000Z</time>
      </trkpt>
      <trkpt lat="45.564628" lon="7.828413">
        <ele>471.42993</ele>
        <time>2024-10-15T06:39:42.000Z</time>
      </trkpt>
      <trkpt lat="45.564648" lon="7.828433">
        <ele>471.46991</ele>
        <time>2024-10-15T06:39:43.000Z</time>
      </trkpt>
      <trkpt lat="45.564668" lon="7.828452">
        <ele>471.49493</ele>
        <time>2024-10-15T06:39:44.000Z</time>
      </trkpt>
      <trkpt lat="45.564687" lon="7.828472">
        <ele>471.53995</ele>
        <time>2024-10-15T06:39:45.000Z</time>
      </trkpt>
      <trkpt lat="45.564708" lon="7.828495">
        <ele>471.53995</ele>
        <time>2024-10-15T06:39:46.000Z</time>
      </trkpt>
      <trkpt lat="45.564725" lon="7.82851">
        <ele>471.54492</ele>
        <time>2024-10-15T06:39:47.000Z</time>
      </trkpt>
      <trkpt lat="45.564742" lon="7.828527">
        <ele>471.59991</ele>
        <time>2024-10-15T06:39:48.000Z</time>
      </trkpt>
      <trkpt lat="45.56477" lon="7.828538">
        <ele>471.76489</ele>
        <time>2024-10-15T06:39:50.000Z</time>
      </trkpt>
      <trkpt lat="45.564798" lon="7.828563">
        <ele>471.84991</ele>
        <time>2024-10-15T06:39:52.000Z</time>
      </trkpt>
      <trkpt lat="45.564813" lon="7.828582">
        <ele>471.65991</ele>
        <time>2024-10-15T06:39:53.000Z</time>
      </trkpt>
      <trkpt lat="45.564842" lon="7.828612">
        <ele>471.44995</ele>
        <time>2024-10-15T06:39:55.000Z</time>
      </trkpt>
      <trkpt lat="45.564863" lon="7.828627">
        <ele>471.19995</ele>
        <time>2024-10-15T06:39:57.000Z</time>
      </trkpt>
      <trkpt lat="45.564883" lon="7.82864">
        <ele>470.90991</ele>
        <time>2024-10-15T06:39:59.000Z</time>
      </trkpt>
      <trkpt lat="45.564905" lon="7.82865">
        <ele>470.5899</ele>
        <time>2024-10-15T06:40:01.000Z</time>
      </trkpt>
      <trkpt lat="45.564928" lon="7.828667">
        <ele>470.2149</ele>
        <time>2024-10-15T06:40:04.000Z</time>
      </trkpt>
      <trkpt lat="45.564948" lon="7.828683">
        <ele>469.8349</ele>
        <time>2024-10-15T06:40:07.000Z</time>
      </trkpt>
      <trkpt lat="45.56497" lon="7.8287">
        <ele>469.46991</ele>
        <time>2024-10-15T06:40:09.000Z</time>
      </trkpt>
      <trkpt lat="45.564995" lon="7.828713">
        <ele>469.13492</ele>
        <time>2024-10-15T06:40:11.000Z</time>
      </trkpt>
      <trkpt lat="45.565013" lon="7.828718">
        <ele>468.84991</ele>
        <time>2024-10-15T06:40:13.000Z</time>
      </trkpt>
      <trkpt lat="45.56503" lon="7.828728">
        <ele>468.63492</ele>
        <time>2024-10-15T06:40:15.000Z</time>
      </trkpt>
      <trkpt lat="45.565045" lon="7.828743">
        <ele>468.60992</ele>
        <time>2024-10-15T06:40:21.000Z</time>
      </trkpt>
      <trkpt lat="45.56505" lon="7.82877">
        <ele>468.56494</ele>
        <time>2024-10-15T06:40:24.000Z</time>
      </trkpt>
      <trkpt lat="45.565073" lon="7.828798">
        <ele>468.52994</ele>
        <time>2024-10-15T06:40:26.000Z</time>
      </trkpt>
      <trkpt lat="45.56509" lon="7.82881">
        <ele>468.49493</ele>
        <time>2024-10-15T06:40:27.000Z</time>
      </trkpt>
      <trkpt lat="45.565118" lon="7.828807">
        <ele>468.49493</ele>
        <time>2024-10-15T06:40:29.000Z</time>
      </trkpt>
      <trkpt lat="45.565137" lon="7.828788">
        <ele>468.50494</ele>
        <time>2024-10-15T06:40:31.000Z</time>
      </trkpt>
      <trkpt lat="45.56516" lon="7.828783">
        <ele>468.57993</ele>
        <time>2024-10-15T06:40:34.000Z</time>
      </trkpt>
      <trkpt lat="45.565183" lon="7.828778">
        <ele>468.71494</ele>
        <time>2024-10-15T06:40:36.000Z</time>
      </trkpt>
      <trkpt lat="45.565203" lon="7.828773">
        <ele>468.93491</ele>
        <time>2024-10-15T06:40:38.000Z</time>
      </trkpt>
      <trkpt lat="45.565223" lon="7.82878">
        <ele>469.21494</ele>
        <time>2024-10-15T06:40:40.000Z</time>
      </trkpt>
      <trkpt lat="45.565243" lon="7.828797">
        <ele>469.62491</ele>
        <time>2024-10-15T06:40:43.000Z</time>
      </trkpt>
      <trkpt lat="45.56526" lon="7.828785">
        <ele>470.15985</ele>
        <time>2024-10-15T06:40:45.000Z</time>
      </trkpt>
      <trkpt lat="45.565282" lon="7.828783">
        <ele>470.75986</ele>
        <time>2024-10-15T06:40:47.000Z</time>
      </trkpt>
      <trkpt lat="45.565305" lon="7.82878">
        <ele>471.39487</ele>
        <time>2024-10-15T06:40:49.000Z</time>
      </trkpt>
      <trkpt lat="45.565323" lon="7.828785">
        <ele>472.02988</ele>
        <time>2024-10-15T06:40:57.000Z</time>
      </trkpt>
      <trkpt lat="45.565303" lon="7.828787">
        <ele>472.74487</ele>
        <time>2024-10-15T06:41:28.000Z</time>
      </trkpt>
      <trkpt lat="45.565373" lon="7.828782">
        <ele>473.59991</ele>
        <time>2024-10-15T06:41:43.000Z</time>
      </trkpt>
      <trkpt lat="45.565387" lon="7.8288">
        <ele>474.41489</ele>
        <time>2024-10-15T06:41:45.000Z</time>
      </trkpt>
      <trkpt lat="45.565395" lon="7.828823">
        <ele>475.17987</ele>
        <time>2024-10-15T06:41:47.000Z</time>
      </trkpt>
      <trkpt lat="45.565393" lon="7.828957">
        <ele>475.79486</ele>
        <time>2024-10-15T06:42:06.000Z</time>
      </trkpt>
      <trkpt lat="45.565392" lon="7.828987">
        <ele>476.28491</ele>
        <time>2024-10-15T06:42:10.000Z</time>
      </trkpt>
      <trkpt lat="45.565358" lon="7.828968">
        <ele>476.80991</ele>
        <time>2024-10-15T06:42:12.000Z</time>
      </trkpt>
      <trkpt lat="45.565342" lon="7.828955">
        <ele>477.3399</ele>
        <time>2024-10-15T06:42:13.000Z</time>
      </trkpt>
      <trkpt lat="45.56532" lon="7.828938">
        <ele>477.84991</ele>
        <time>2024-10-15T06:42:16.000Z</time>
      </trkpt>
      <trkpt lat="45.565313" lon="7.828898">
        <ele>478.41992</ele>
        <time>2024-10-15T06:42:24.000Z</time>
      </trkpt>
      <trkpt lat="45.56531" lon="7.82887">
        <ele>479.04492</ele>
        <time>2024-10-15T06:42:32.000Z</time>
      </trkpt>
      <trkpt lat="45.56533" lon="7.82886">
        <ele>479.60992</ele>
        <time>2024-10-15T06:42:33.000Z</time>
      </trkpt>
      <trkpt lat="45.565353" lon="7.828837">
        <ele>480.09991</ele>
        <time>2024-10-15T06:42:35.000Z</time>
      </trkpt>
      <trkpt lat="45.565352" lon="7.828808">
        <ele>480.52994</ele>
        <time>2024-10-15T06:42:39.000Z</time>
      </trkpt>
      <trkpt lat="45.56534" lon="7.828768">
        <ele>480.90494</ele>
        <time>2024-10-15T06:42:42.000Z</time>
      </trkpt>
      <trkpt lat="45.565343" lon="7.82874">
        <ele>481.10492</ele>
        <time>2024-10-15T06:42:47.000Z</time>
      </trkpt>
      <trkpt lat="45.565365" lon="7.828765">
        <ele>481.22992</ele>
        <time>2024-10-15T06:42:50.000Z</time>
      </trkpt>
      <trkpt lat="45.565383" lon="7.828793">
        <ele>481.32495</ele>
        <time>2024-10-15T06:42:52.000Z</time>
      </trkpt>
      <trkpt lat="45.565395" lon="7.828815">
        <ele>481.39996</ele>
        <time>2024-10-15T06:42:53.000Z</time>
      </trkpt>
      <trkpt lat="45.565408" lon="7.828833">
        <ele>481.47992</ele>
        <time>2024-10-15T06:42:54.000Z</time>
      </trkpt>
      <trkpt lat="45.56543" lon="7.828862">
        <ele>481.51495</ele>
        <time>2024-10-15T06:42:56.000Z</time>
      </trkpt>
      <trkpt lat="45.565443" lon="7.828882">
        <ele>481.4249</ele>
        <time>2024-10-15T06:42:57.000Z</time>
      </trkpt>
      <trkpt lat="45.565458" lon="7.82891">
        <ele>481.36493</ele>
        <time>2024-10-15T06:42:59.000Z</time>
      </trkpt>
      <trkpt lat="45.565483" lon="7.828938">
        <ele>481.31998</ele>
        <time>2024-10-15T06:43:02.000Z</time>
      </trkpt>
      <trkpt lat="45.565497" lon="7.828958">
        <ele>481.45499</ele>
        <time>2024-10-15T06:43:04.000Z</time>
      </trkpt>
      <trkpt lat="45.56552" lon="7.82895">
        <ele>481.60995</ele>
        <time>2024-10-15T06:43:06.000Z</time>
      </trkpt>
      <trkpt lat="45.565538" lon="7.828937">
        <ele>481.77994</ele>
        <time>2024-10-15T06:43:09.000Z</time>
      </trkpt>
      <trkpt lat="45.565552" lon="7.828917">
        <ele>481.96991</ele>
        <time>2024-10-15T06:43:11.000Z</time>
      </trkpt>
      <trkpt lat="45.565577" lon="7.828895">
        <ele>481.94492</ele>
        <time>2024-10-15T06:43:57.000Z</time>
      </trkpt>
      <trkpt lat="45.565597" lon="7.828885">
        <ele>481.84491</ele>
        <time>2024-10-15T06:43:59.000Z</time>
      </trkpt>
      <trkpt lat="45.565623" lon="7.82889">
        <ele>481.68491</ele>
        <time>2024-10-15T06:44:01.000Z</time>
      </trkpt>
      <trkpt lat="45.565652" lon="7.8289">
        <ele>481.55493</ele>
        <time>2024-10-15T06:44:03.000Z</time>
      </trkpt>
      <trkpt lat="45.565673" lon="7.8289">
        <ele>481.43994</ele>
        <time>2024-10-15T06:44:05.000Z</time>
      </trkpt>
      <trkpt lat="45.5657" lon="7.828885">
        <ele>481.32993</ele>
        <time>2024-10-15T06:44:07.000Z</time>
      </trkpt>
      <trkpt lat="45.565717" lon="7.828873">
        <ele>481.2399</ele>
        <time>2024-10-15T06:44:09.000Z</time>
      </trkpt>
      <trkpt lat="45.565735" lon="7.828873">
        <ele>481.21991</ele>
        <time>2024-10-15T06:44:11.000Z</time>
      </trkpt>
      <trkpt lat="45.565758" lon="7.828863">
        <ele>481.18994</ele>
        <time>2024-10-15T06:44:13.000Z</time>
      </trkpt>
      <trkpt lat="45.56579" lon="7.828853">
        <ele>481.14996</ele>
        <time>2024-10-15T06:44:15.000Z</time>
      </trkpt>
      <trkpt lat="45.565812" lon="7.828825">
        <ele>481.09497</ele>
        <time>2024-10-15T06:44:17.000Z</time>
      </trkpt>
      <trkpt lat="45.565843" lon="7.828802">
        <ele>481.07999</ele>
        <time>2024-10-15T06:44:19.000Z</time>
      </trkpt>
      <trkpt lat="45.565862" lon="7.828788">
        <ele>481.06998</ele>
        <time>2024-10-15T06:44:20.000Z</time>
      </trkpt>
      <trkpt lat="45.56588" lon="7.828768">
        <ele>481.065</ele>
        <time>2024-10-15T06:44:21.000Z</time>
      </trkpt>
      <trkpt lat="45.565908" lon="7.828772">
        <ele>481.12494</ele>
        <time>2024-10-15T06:44:23.000Z</time>
      </trkpt>
      <trkpt lat="45.56593" lon="7.828755">
        <ele>481.21494</ele>
        <time>2024-10-15T06:44:24.000Z</time>
      </trkpt>
      <trkpt lat="45.565952" lon="7.828732">
        <ele>481.24493</ele>
        <time>2024-10-15T06:44:26.000Z</time>
      </trkpt>
      <trkpt lat="45.565968" lon="7.828713">
        <ele>481.23993</ele>
        <time>2024-10-15T06:44:28.000Z</time>
      </trkpt>
      <trkpt lat="45.565985" lon="7.828697">
        <ele>481.19498</ele>
        <time>2024-10-15T06:44:30.000Z</time>
      </trkpt>
      <trkpt lat="45.565998" lon="7.828677">
        <ele>481.13501</ele>
        <time>2024-10-15T06:44:31.000Z</time>
      </trkpt>
      <trkpt lat="45.566017" lon="7.828668">
        <ele>481.30502</ele>
        <time>2024-10-15T06:44:32.000Z</time>
      </trkpt>
      <trkpt lat="45.566043" lon="7.828663">
        <ele>481.45502</ele>
        <time>2024-10-15T06:44:34.000Z</time>
      </trkpt>
      <trkpt lat="45.566077" lon="7.828657">
        <ele>481.56503</ele>
        <time>2024-10-15T06:44:36.000Z</time>
      </trkpt>
      <trkpt lat="45.566103" lon="7.82864">
        <ele>481.64502</ele>
        <time>2024-10-15T06:44:38.000Z</time>
      </trkpt>
      <trkpt lat="45.566123" lon="7.828623">
        <ele>481.75006</ele>
        <time>2024-10-15T06:44:40.000Z</time>
      </trkpt>
      <trkpt lat="45.566153" lon="7.82861">
        <ele>481.85004</ele>
        <time>2024-10-15T06:44:42.000Z</time>
      </trkpt>
      <trkpt lat="45.566182" lon="7.828588">
        <ele>481.95004</ele>
        <time>2024-10-15T06:44:44.000Z</time>
      </trkpt>
      <trkpt lat="45.56621" lon="7.828567">
        <ele>482.02505</ele>
        <time>2024-10-15T06:44:46.000Z</time>
      </trkpt>
      <trkpt lat="45.566228" lon="7.828555">
        <ele>482.08002</ele>
        <time>2024-10-15T06:44:48.000Z</time>
      </trkpt>
      <trkpt lat="45.566255" lon="7.828548">
        <ele>482.07001</ele>
        <time>2024-10-15T06:44:50.000Z</time>
      </trkpt>
      <trkpt lat="45.566275" lon="7.828553">
        <ele>481.98004</ele>
        <time>2024-10-15T06:44:51.000Z</time>
      </trkpt>
      <trkpt lat="45.566297" lon="7.828548">
        <ele>481.81503</ele>
        <time>2024-10-15T06:44:52.000Z</time>
      </trkpt>
      <trkpt lat="45.566317" lon="7.828543">
        <ele>481.59503</ele>
        <time>2024-10-15T06:44:53.000Z</time>
      </trkpt>
      <trkpt lat="45.56634" lon="7.828547">
        <ele>481.33502</ele>
        <time>2024-10-15T06:44:54.000Z</time>
      </trkpt>
      <trkpt lat="45.56636" lon="7.828548">
        <ele>480.98004</ele>
        <time>2024-10-15T06:44:55.000Z</time>
      </trkpt>
      <trkpt lat="45.566382" lon="7.82855">
        <ele>480.58002</ele>
        <time>2024-10-15T06:44:56.000Z</time>
      </trkpt>
      <trkpt lat="45.566403" lon="7.828542">
        <ele>480.15503</ele>
        <time>2024-10-15T06:44:58.000Z</time>
      </trkpt>
      <trkpt lat="45.566427" lon="7.82854">
        <ele>479.68002</ele>
        <time>2024-10-15T06:45:00.000Z</time>
      </trkpt>
      <trkpt lat="45.566448" lon="7.828527">
        <ele>479.17499</ele>
        <time>2024-10-15T06:45:02.000Z</time>
      </trkpt>
      <trkpt lat="45.566478" lon="7.828505">
        <ele>478.65997</ele>
        <time>2024-10-15T06:45:04.000Z</time>
      </trkpt>
      <trkpt lat="45.5665" lon="7.828497">
        <ele>478.13495</ele>
        <time>2024-10-15T06:45:05.000Z</time>
      </trkpt>
      <trkpt lat="45.566518" lon="7.82849">
        <ele>477.61493</ele>
        <time>2024-10-15T06:45:06.000Z</time>
      </trkpt>
      <trkpt lat="45.566545" lon="7.828467">
        <ele>477.12494</ele>
        <time>2024-10-15T06:45:08.000Z</time>
      </trkpt>
      <trkpt lat="45.56657" lon="7.82843">
        <ele>476.62494</ele>
        <time>2024-10-15T06:45:10.000Z</time>
      </trkpt>
      <trkpt lat="45.566588" lon="7.828405">
        <ele>476.12494</ele>
        <time>2024-10-15T06:45:12.000Z</time>
      </trkpt>
      <trkpt lat="45.566613" lon="7.828382">
        <ele>475.62994</ele>
        <time>2024-10-15T06:45:14.000Z</time>
      </trkpt>
      <trkpt lat="45.566647" lon="7.82837">
        <ele>475.14996</ele>
        <time>2024-10-15T06:45:16.000Z</time>
      </trkpt>
      <trkpt lat="45.566678" lon="7.828363">
        <ele>474.72495</ele>
        <time>2024-10-15T06:45:18.000Z</time>
      </trkpt>
      <trkpt lat="45.5667" lon="7.828355">
        <ele>474.32495</ele>
        <time>2024-10-15T06:45:19.000Z</time>
      </trkpt>
      <trkpt lat="45.56672" lon="7.828348">
        <ele>473.97495</ele>
        <time>2024-10-15T06:45:20.000Z</time>
      </trkpt>
      <trkpt lat="45.566748" lon="7.828328">
        <ele>473.7099</ele>
        <time>2024-10-15T06:45:22.000Z</time>
      </trkpt>
      <trkpt lat="45.566775" lon="7.828325">
        <ele>473.46991</ele>
        <time>2024-10-15T06:45:24.000Z</time>
      </trkpt>
      <trkpt lat="45.566783" lon="7.828295">
        <ele>473.26993</ele>
        <time>2024-10-15T06:45:26.000Z</time>
      </trkpt>
      <trkpt lat="45.566783" lon="7.82825">
        <ele>473.11993</ele>
        <time>2024-10-15T06:45:28.000Z</time>
      </trkpt>
      <trkpt lat="45.566793" lon="7.82822">
        <ele>473.03995</ele>
        <time>2024-10-15T06:45:31.000Z</time>
      </trkpt>
      <trkpt lat="45.566807" lon="7.82818">
        <ele>473.03995</ele>
        <time>2024-10-15T06:45:33.000Z</time>
      </trkpt>
      <trkpt lat="45.566817" lon="7.828143">
        <ele>473.14496</ele>
        <time>2024-10-15T06:45:35.000Z</time>
      </trkpt>
      <trkpt lat="45.56682" lon="7.8281">
        <ele>473.34497</ele>
        <time>2024-10-15T06:45:37.000Z</time>
      </trkpt>
      <trkpt lat="45.566805" lon="7.82807">
        <ele>473.63998</ele>
        <time>2024-10-15T06:45:39.000Z</time>
      </trkpt>
      <trkpt lat="45.566803" lon="7.828042">
        <ele>473.97501</ele>
        <time>2024-10-15T06:45:40.000Z</time>
      </trkpt>
      <trkpt lat="45.566803" lon="7.828008">
        <ele>474.35001</ele>
        <time>2024-10-15T06:45:42.000Z</time>
      </trkpt>
      <trkpt lat="45.5668" lon="7.827965">
        <ele>474.77499</ele>
        <time>2024-10-15T06:45:44.000Z</time>
      </trkpt>
      <trkpt lat="45.566823" lon="7.827933">
        <ele>475.14999</ele>
        <time>2024-10-15T06:45:46.000Z</time>
      </trkpt>
      <trkpt lat="45.566847" lon="7.827903">
        <ele>475.51498</ele>
        <time>2024-10-15T06:45:48.000Z</time>
      </trkpt>
      <trkpt lat="45.566862" lon="7.827882">
        <ele>475.85995</ele>
        <time>2024-10-15T06:45:49.000Z</time>
      </trkpt>
      <trkpt lat="45.566887" lon="7.827865">
        <ele>476.24496</ele>
        <time>2024-10-15T06:45:51.000Z</time>
      </trkpt>
      <trkpt lat="45.56691" lon="7.82786">
        <ele>476.60498</ele>
        <time>2024-10-15T06:45:54.000Z</time>
      </trkpt>
      <trkpt lat="45.56693" lon="7.82786">
        <ele>476.90997</ele>
        <time>2024-10-15T06:45:57.000Z</time>
      </trkpt>
      <trkpt lat="45.566952" lon="7.82785">
        <ele>477.22998</ele>
        <time>2024-10-15T06:45:59.000Z</time>
      </trkpt>
      <trkpt lat="45.56697" lon="7.827827">
        <ele>477.54498</ele>
        <time>2024-10-15T06:46:01.000Z</time>
      </trkpt>
      <trkpt lat="45.566987" lon="7.827798">
        <ele>477.85001</ele>
        <time>2024-10-15T06:46:03.000Z</time>
      </trkpt>
      <trkpt lat="45.567008" lon="7.82778">
        <ele>478.16998</ele>
        <time>2024-10-15T06:46:05.000Z</time>
      </trkpt>
      <trkpt lat="45.567038" lon="7.827767">
        <ele>478.47998</ele>
        <time>2024-10-15T06:46:07.000Z</time>
      </trkpt>
      <trkpt lat="45.567058" lon="7.82774">
        <ele>478.76001</ele>
        <time>2024-10-15T06:46:09.000Z</time>
      </trkpt>
      <trkpt lat="45.56708" lon="7.827718">
        <ele>478.97998</ele>
        <time>2024-10-15T06:46:11.000Z</time>
      </trkpt>
      <trkpt lat="45.567088" lon="7.827682">
        <ele>479.16998</ele>
        <time>2024-10-15T06:46:13.000Z</time>
      </trkpt>
      <trkpt lat="45.567103" lon="7.827667">
        <ele>479.33496</ele>
        <time>2024-10-15T06:46:16.000Z</time>
      </trkpt>
      <trkpt lat="45.567127" lon="7.827643">
        <ele>479.45996</ele>
        <time>2024-10-15T06:46:18.000Z</time>
      </trkpt>
      <trkpt lat="45.567148" lon="7.827632">
        <ele>479.56998</ele>
        <time>2024-10-15T06:46:20.000Z</time>
      </trkpt>
      <trkpt lat="45.567165" lon="7.827603">
        <ele>479.62997</ele>
        <time>2024-10-15T06:46:22.000Z</time>
      </trkpt>
      <trkpt lat="45.567178" lon="7.827562">
        <ele>479.66998</ele>
        <time>2024-10-15T06:46:24.000Z</time>
      </trkpt>
      <trkpt lat="45.5672" lon="7.827542">
        <ele>479.67496</ele>
        <time>2024-10-15T06:46:26.000Z</time>
      </trkpt>
      <trkpt lat="45.567225" lon="7.827527">
        <ele>479.71494</ele>
        <time>2024-10-15T06:46:29.000Z</time>
      </trkpt>
      <trkpt lat="45.567248" lon="7.827525">
        <ele>479.71494</ele>
        <time>2024-10-15T06:46:32.000Z</time>
      </trkpt>
      <trkpt lat="45.567273" lon="7.827537">
        <ele>479.69498</ele>
        <time>2024-10-15T06:46:34.000Z</time>
      </trkpt>
      <trkpt lat="45.567305" lon="7.827547">
        <ele>479.62997</ele>
        <time>2024-10-15T06:46:36.000Z</time>
      </trkpt>
      <trkpt lat="45.567325" lon="7.82755">
        <ele>479.56998</ele>
        <time>2024-10-15T06:46:37.000Z</time>
      </trkpt>
      <trkpt lat="45.567353" lon="7.82755">
        <ele>479.57501</ele>
        <time>2024-10-15T06:46:39.000Z</time>
      </trkpt>
      <trkpt lat="45.567373" lon="7.827538">
        <ele>479.59</ele>
        <time>2024-10-15T06:46:41.000Z</time>
      </trkpt>
      <trkpt lat="45.567398" lon="7.827523">
        <ele>479.67999</ele>
        <time>2024-10-15T06:46:44.000Z</time>
      </trkpt>
      <trkpt lat="45.567423" lon="7.827515">
        <ele>479.80499</ele>
        <time>2024-10-15T06:46:46.000Z</time>
      </trkpt>
      <trkpt lat="45.56745" lon="7.8275">
        <ele>479.965</ele>
        <time>2024-10-15T06:46:48.000Z</time>
      </trkpt>
      <trkpt lat="45.567462" lon="7.82748">
        <ele>480.17499</ele>
        <time>2024-10-15T06:46:50.000Z</time>
      </trkpt>
      <trkpt lat="45.567482" lon="7.827455">
        <ele>480.48495</ele>
        <time>2024-10-15T06:46:54.000Z</time>
      </trkpt>
      <trkpt lat="45.567502" lon="7.827425">
        <ele>480.81998</ele>
        <time>2024-10-15T06:46:56.000Z</time>
      </trkpt>
      <trkpt lat="45.567518" lon="7.8274">
        <ele>481.12494</ele>
        <time>2024-10-15T06:46:58.000Z</time>
      </trkpt>
      <trkpt lat="45.567535" lon="7.827375">
        <ele>481.42496</ele>
        <time>2024-10-15T06:47:01.000Z</time>
      </trkpt>
      <trkpt lat="45.567547" lon="7.827348">
        <ele>481.82993</ele>
        <time>2024-10-15T06:47:03.000Z</time>
      </trkpt>
      <trkpt lat="45.567562" lon="7.827328">
        <ele>482.25992</ele>
        <time>2024-10-15T06:47:05.000Z</time>
      </trkpt>
      <trkpt lat="45.567577" lon="7.827297">
        <ele>482.76489</ele>
        <time>2024-10-15T06:47:07.000Z</time>
      </trkpt>
      <trkpt lat="45.567595" lon="7.827265">
        <ele>483.29486</ele>
        <time>2024-10-15T06:47:09.000Z</time>
      </trkpt>
      <trkpt lat="45.567607" lon="7.827238">
        <ele>483.81989</ele>
        <time>2024-10-15T06:47:11.000Z</time>
      </trkpt>
      <trkpt lat="45.567627" lon="7.827215">
        <ele>484.37988</ele>
        <time>2024-10-15T06:47:13.000Z</time>
      </trkpt>
      <trkpt lat="45.567645" lon="7.82719">
        <ele>485.03989</ele>
        <time>2024-10-15T06:47:15.000Z</time>
      </trkpt>
      <trkpt lat="45.567657" lon="7.827162">
        <ele>485.74487</ele>
        <time>2024-10-15T06:47:17.000Z</time>
      </trkpt>
      <trkpt lat="45.56767" lon="7.827137">
        <ele>486.44489</ele>
        <time>2024-10-15T06:47:19.000Z</time>
      </trkpt>
      <trkpt lat="45.567682" lon="7.827117">
        <ele>487.15985</ele>
        <time>2024-10-15T06:47:20.000Z</time>
      </trkpt>
      <trkpt lat="45.567695" lon="7.827082">
        <ele>487.86484</ele>
        <time>2024-10-15T06:47:22.000Z</time>
      </trkpt>
      <trkpt lat="45.567705" lon="7.82705">
        <ele>488.55484</ele>
        <time>2024-10-15T06:47:24.000Z</time>
      </trkpt>
      <trkpt lat="45.567717" lon="7.827025">
        <ele>489.17984</ele>
        <time>2024-10-15T06:47:26.000Z</time>
      </trkpt>
      <trkpt lat="45.567733" lon="7.827007">
        <ele>489.80981</ele>
        <time>2024-10-15T06:47:28.000Z</time>
      </trkpt>
      <trkpt lat="45.567755" lon="7.826977">
        <ele>490.3598</ele>
        <time>2024-10-15T06:47:31.000Z</time>
      </trkpt>
      <trkpt lat="45.567777" lon="7.826945">
        <ele>490.89484</ele>
        <time>2024-10-15T06:47:33.000Z</time>
      </trkpt>
      <trkpt lat="45.567798" lon="7.82692">
        <ele>491.38983</ele>
        <time>2024-10-15T06:47:35.000Z</time>
      </trkpt>
      <trkpt lat="45.56781" lon="7.826893">
        <ele>491.90985</ele>
        <time>2024-10-15T06:47:37.000Z</time>
      </trkpt>
      <trkpt lat="45.567818" lon="7.826862">
        <ele>492.4649</ele>
        <time>2024-10-15T06:47:39.000Z</time>
      </trkpt>
      <trkpt lat="45.56783" lon="7.826832">
        <ele>493.0249</ele>
        <time>2024-10-15T06:47:41.000Z</time>
      </trkpt>
      <trkpt lat="45.567828" lon="7.826802">
        <ele>493.4899</ele>
        <time>2024-10-15T06:47:43.000Z</time>
      </trkpt>
      <trkpt lat="45.567848" lon="7.826783">
        <ele>493.90991</ele>
        <time>2024-10-15T06:47:45.000Z</time>
      </trkpt>
      <trkpt lat="45.567872" lon="7.826768">
        <ele>494.26495</ele>
        <time>2024-10-15T06:47:47.000Z</time>
      </trkpt>
      <trkpt lat="45.567893" lon="7.826738">
        <ele>494.60492</ele>
        <time>2024-10-15T06:47:49.000Z</time>
      </trkpt>
      <trkpt lat="45.567907" lon="7.82672">
        <ele>494.97992</ele>
        <time>2024-10-15T06:47:51.000Z</time>
      </trkpt>
      <trkpt lat="45.56791" lon="7.826692">
        <ele>495.37994</ele>
        <time>2024-10-15T06:47:57.000Z</time>
      </trkpt>
      <trkpt lat="45.567907" lon="7.82666">
        <ele>495.78995</ele>
        <time>2024-10-15T06:48:00.000Z</time>
      </trkpt>
      <trkpt lat="45.567912" lon="7.826632">
        <ele>496.23993</ele>
        <time>2024-10-15T06:48:02.000Z</time>
      </trkpt>
      <trkpt lat="45.567932" lon="7.826622">
        <ele>496.77994</ele>
        <time>2024-10-15T06:48:04.000Z</time>
      </trkpt>
      <trkpt lat="45.567952" lon="7.826605">
        <ele>497.35995</ele>
        <time>2024-10-15T06:48:06.000Z</time>
      </trkpt>
      <trkpt lat="45.567978" lon="7.826598">
        <ele>497.94995</ele>
        <time>2024-10-15T06:48:08.000Z</time>
      </trkpt>
      <trkpt lat="45.568007" lon="7.826585">
        <ele>498.56998</ele>
        <time>2024-10-15T06:48:10.000Z</time>
      </trkpt>
      <trkpt lat="45.568033" lon="7.826582">
        <ele>499.23999</ele>
        <time>2024-10-15T06:48:12.000Z</time>
      </trkpt>
      <trkpt lat="45.56805" lon="7.826568">
        <ele>499.89999</ele>
        <time>2024-10-15T06:48:14.000Z</time>
      </trkpt>
      <trkpt lat="45.568063" lon="7.826548">
        <ele>500.61499</ele>
        <time>2024-10-15T06:48:15.000Z</time>
      </trkpt>
      <trkpt lat="45.56809" lon="7.826532">
        <ele>501.34995</ele>
        <time>2024-10-15T06:48:17.000Z</time>
      </trkpt>
      <trkpt lat="45.56812" lon="7.826533">
        <ele>502.08496</ele>
        <time>2024-10-15T06:48:19.000Z</time>
      </trkpt>
      <trkpt lat="45.568147" lon="7.826542">
        <ele>502.79492</ele>
        <time>2024-10-15T06:48:21.000Z</time>
      </trkpt>
      <trkpt lat="45.568165" lon="7.826552">
        <ele>503.4899</ele>
        <time>2024-10-15T06:48:24.000Z</time>
      </trkpt>
      <trkpt lat="45.568183" lon="7.826568">
        <ele>504.1749</ele>
        <time>2024-10-15T06:48:26.000Z</time>
      </trkpt>
      <trkpt lat="45.568205" lon="7.82658">
        <ele>504.84991</ele>
        <time>2024-10-15T06:48:28.000Z</time>
      </trkpt>
      <trkpt lat="45.568227" lon="7.826595">
        <ele>505.47989</ele>
        <time>2024-10-15T06:48:30.000Z</time>
      </trkpt>
      <trkpt lat="45.568247" lon="7.826605">
        <ele>506.10986</ele>
        <time>2024-10-15T06:48:32.000Z</time>
      </trkpt>
      <trkpt lat="45.568275" lon="7.826615">
        <ele>506.67987</ele>
        <time>2024-10-15T06:48:35.000Z</time>
      </trkpt>
      <trkpt lat="45.568297" lon="7.826633">
        <ele>507.18491</ele>
        <time>2024-10-15T06:48:37.000Z</time>
      </trkpt>
      <trkpt lat="45.56831" lon="7.826657">
        <ele>507.62491</ele>
        <time>2024-10-15T06:48:39.000Z</time>
      </trkpt>
      <trkpt lat="45.568332" lon="7.826668">
        <ele>507.9899</ele>
        <time>2024-10-15T06:48:42.000Z</time>
      </trkpt>
      <trkpt lat="45.568352" lon="7.82668">
        <ele>508.24991</ele>
        <time>2024-10-15T06:48:45.000Z</time>
      </trkpt>
      <trkpt lat="45.568358" lon="7.826707">
        <ele>508.3999</ele>
        <time>2024-10-15T06:48:47.000Z</time>
      </trkpt>
      <trkpt lat="45.568373" lon="7.826723">
        <ele>508.4649</ele>
        <time>2024-10-15T06:48:50.000Z</time>
      </trkpt>
      <trkpt lat="45.568382" lon="7.82675">
        <ele>508.49493</ele>
        <time>2024-10-15T06:48:52.000Z</time>
      </trkpt>
      <trkpt lat="45.568383" lon="7.82678">
        <ele>508.56992</ele>
        <time>2024-10-15T06:48:55.000Z</time>
      </trkpt>
      <trkpt lat="45.568398" lon="7.826817">
        <ele>508.65494</ele>
        <time>2024-10-15T06:48:57.000Z</time>
      </trkpt>
      <trkpt lat="45.568408" lon="7.82684">
        <ele>508.75494</ele>
        <time>2024-10-15T06:49:00.000Z</time>
      </trkpt>
      <trkpt lat="45.568418" lon="7.826813">
        <ele>508.84995</ele>
        <time>2024-10-15T06:49:04.000Z</time>
      </trkpt>
      <trkpt lat="45.568438" lon="7.82681">
        <ele>508.91998</ele>
        <time>2024-10-15T06:49:08.000Z</time>
      </trkpt>
      <trkpt lat="45.568453" lon="7.826795">
        <ele>508.99496</ele>
        <time>2024-10-15T06:49:12.000Z</time>
      </trkpt>
      <trkpt lat="45.568438" lon="7.826765">
        <ele>509.14496</ele>
        <time>2024-10-15T06:49:15.000Z</time>
      </trkpt>
      <trkpt lat="45.568458" lon="7.826757">
        <ele>509.34</ele>
        <time>2024-10-15T06:49:22.000Z</time>
      </trkpt>
      <trkpt lat="45.568483" lon="7.826762">
        <ele>509.51498</ele>
        <time>2024-10-15T06:49:25.000Z</time>
      </trkpt>
      <trkpt lat="45.568503" lon="7.826763">
        <ele>509.67499</ele>
        <time>2024-10-15T06:49:29.000Z</time>
      </trkpt>
      <trkpt lat="45.568517" lon="7.826737">
        <ele>509.84503</ele>
        <time>2024-10-15T06:49:31.000Z</time>
      </trkpt>
      <trkpt lat="45.56853" lon="7.826705">
        <ele>509.99005</ele>
        <time>2024-10-15T06:49:34.000Z</time>
      </trkpt>
      <trkpt lat="45.56854" lon="7.826675">
        <ele>510.17505</ele>
        <time>2024-10-15T06:49:37.000Z</time>
      </trkpt>
      <trkpt lat="45.568558" lon="7.826657">
        <ele>510.42505</ele>
        <time>2024-10-15T06:49:41.000Z</time>
      </trkpt>
      <trkpt lat="45.568577" lon="7.82665">
        <ele>510.71503</ele>
        <time>2024-10-15T06:49:43.000Z</time>
      </trkpt>
      <trkpt lat="45.568595" lon="7.826642">
        <ele>511.02505</ele>
        <time>2024-10-15T06:49:46.000Z</time>
      </trkpt>
      <trkpt lat="45.568613" lon="7.826638">
        <ele>511.39502</ele>
        <time>2024-10-15T06:49:51.000Z</time>
      </trkpt>
      <trkpt lat="45.568637" lon="7.82664">
        <ele>511.79004</ele>
        <time>2024-10-15T06:49:53.000Z</time>
      </trkpt>
      <trkpt lat="45.568652" lon="7.82661">
        <ele>512.24005</ele>
        <time>2024-10-15T06:49:57.000Z</time>
      </trkpt>
      <trkpt lat="45.568657" lon="7.826582">
        <ele>512.71503</ele>
        <time>2024-10-15T06:49:59.000Z</time>
      </trkpt>
      <trkpt lat="45.56867" lon="7.826558">
        <ele>513.17004</ele>
        <time>2024-10-15T06:50:02.000Z</time>
      </trkpt>
      <trkpt lat="45.568683" lon="7.826538">
        <ele>513.65503</ele>
        <time>2024-10-15T06:50:06.000Z</time>
      </trkpt>
      <trkpt lat="45.568697" lon="7.82652">
        <ele>514.14502</ele>
        <time>2024-10-15T06:50:08.000Z</time>
      </trkpt>
      <trkpt lat="45.568718" lon="7.826492">
        <ele>514.685</ele>
        <time>2024-10-15T06:50:12.000Z</time>
      </trkpt>
      <trkpt lat="45.568732" lon="7.826473">
        <ele>515.23499</ele>
        <time>2024-10-15T06:50:14.000Z</time>
      </trkpt>
      <trkpt lat="45.568752" lon="7.826453">
        <ele>515.755</ele>
        <time>2024-10-15T06:50:17.000Z</time>
      </trkpt>
      <trkpt lat="45.568775" lon="7.826465">
        <ele>516.20496</ele>
        <time>2024-10-15T06:50:19.000Z</time>
      </trkpt>
      <trkpt lat="45.568793" lon="7.826487">
        <ele>516.62</ele>
        <time>2024-10-15T06:50:21.000Z</time>
      </trkpt>
      <trkpt lat="45.568805" lon="7.826507">
        <ele>517.12494</ele>
        <time>2024-10-15T06:50:23.000Z</time>
      </trkpt>
      <trkpt lat="45.568833" lon="7.82651">
        <ele>517.64496</ele>
        <time>2024-10-15T06:50:25.000Z</time>
      </trkpt>
      <trkpt lat="45.568852" lon="7.826507">
        <ele>518.22998</ele>
        <time>2024-10-15T06:50:29.000Z</time>
      </trkpt>
      <trkpt lat="45.568873" lon="7.826503">
        <ele>518.88495</ele>
        <time>2024-10-15T06:50:33.000Z</time>
      </trkpt>
      <trkpt lat="45.568887" lon="7.826483">
        <ele>519.62</ele>
        <time>2024-10-15T06:50:36.000Z</time>
      </trkpt>
      <trkpt lat="45.56891" lon="7.826472">
        <ele>520.43994</ele>
        <time>2024-10-15T06:50:47.000Z</time>
      </trkpt>
      <trkpt lat="45.568927" lon="7.82645">
        <ele>521.24493</ele>
        <time>2024-10-15T06:50:49.000Z</time>
      </trkpt>
      <trkpt lat="45.568945" lon="7.82643">
        <ele>522.03992</ele>
        <time>2024-10-15T06:50:51.000Z</time>
      </trkpt>
      <trkpt lat="45.568963" lon="7.826407">
        <ele>522.79993</ele>
        <time>2024-10-15T06:50:53.000Z</time>
      </trkpt>
      <trkpt lat="45.568987" lon="7.826408">
        <ele>523.52496</ele>
        <time>2024-10-15T06:50:55.000Z</time>
      </trkpt>
      <trkpt lat="45.56901" lon="7.826402">
        <ele>524.18994</ele>
        <time>2024-10-15T06:50:57.000Z</time>
      </trkpt>
      <trkpt lat="45.569038" lon="7.826392">
        <ele>524.82489</ele>
        <time>2024-10-15T06:51:00.000Z</time>
      </trkpt>
      <trkpt lat="45.569063" lon="7.826372">
        <ele>525.42493</ele>
        <time>2024-10-15T06:51:03.000Z</time>
      </trkpt>
      <trkpt lat="45.56909" lon="7.826365">
        <ele>525.93988</ele>
        <time>2024-10-15T06:51:05.000Z</time>
      </trkpt>
      <trkpt lat="45.569112" lon="7.826363">
        <ele>526.42493</ele>
        <time>2024-10-15T06:51:07.000Z</time>
      </trkpt>
      <trkpt lat="45.569128" lon="7.826373">
        <ele>526.8949</ele>
        <time>2024-10-15T06:51:11.000Z</time>
      </trkpt>
      <trkpt lat="45.56919" lon="7.826318">
        <ele>527.33997</ele>
        <time>2024-10-15T06:51:28.000Z</time>
      </trkpt>
      <trkpt lat="45.569217" lon="7.826317">
        <ele>527.79993</ele>
        <time>2024-10-15T06:51:30.000Z</time>
      </trkpt>
      <trkpt lat="45.56924" lon="7.82631">
        <ele>528.39001</ele>
        <time>2024-10-15T06:51:37.000Z</time>
      </trkpt>
      <trkpt lat="45.569262" lon="7.826308">
        <ele>528.96002</ele>
        <time>2024-10-15T06:51:40.000Z</time>
      </trkpt>
      <trkpt lat="45.56928" lon="7.826297">
        <ele>529.46002</ele>
        <time>2024-10-15T06:51:43.000Z</time>
      </trkpt>
      <trkpt lat="45.56931" lon="7.82629">
        <ele>529.995</ele>
        <time>2024-10-15T06:51:47.000Z</time>
      </trkpt>
      <trkpt lat="45.569323" lon="7.826268">
        <ele>530.50995</ele>
        <time>2024-10-15T06:51:50.000Z</time>
      </trkpt>
      <trkpt lat="45.569345" lon="7.826247">
        <ele>531.02997</ele>
        <time>2024-10-15T06:51:54.000Z</time>
      </trkpt>
      <trkpt lat="45.569365" lon="7.826238">
        <ele>531.50995</ele>
        <time>2024-10-15T06:51:56.000Z</time>
      </trkpt>
      <trkpt lat="45.569388" lon="7.826235">
        <ele>531.91498</ele>
        <time>2024-10-15T06:51:59.000Z</time>
      </trkpt>
      <trkpt lat="45.569398" lon="7.82621">
        <ele>532.38</ele>
        <time>2024-10-15T06:52:02.000Z</time>
      </trkpt>
      <trkpt lat="45.569402" lon="7.826178">
        <ele>532.91498</ele>
        <time>2024-10-15T06:52:05.000Z</time>
      </trkpt>
      <trkpt lat="45.569408" lon="7.826153">
        <ele>533.51501</ele>
        <time>2024-10-15T06:52:08.000Z</time>
      </trkpt>
      <trkpt lat="45.56943" lon="7.82615">
        <ele>534.20996</ele>
        <time>2024-10-15T06:52:11.000Z</time>
      </trkpt>
      <trkpt lat="45.569442" lon="7.826125">
        <ele>534.99994</ele>
        <time>2024-10-15T06:52:14.000Z</time>
      </trkpt>
      <trkpt lat="45.56946" lon="7.826102">
        <ele>535.88</ele>
        <time>2024-10-15T06:52:17.000Z</time>
      </trkpt>
      <trkpt lat="45.569473" lon="7.826083">
        <ele>536.81</ele>
        <time>2024-10-15T06:52:19.000Z</time>
      </trkpt>
      <trkpt lat="45.569487" lon="7.826065">
        <ele>537.77997</ele>
        <time>2024-10-15T06:52:21.000Z</time>
      </trkpt>
      <trkpt lat="45.569505" lon="7.826045">
        <ele>538.875</ele>
        <time>2024-10-15T06:52:26.000Z</time>
      </trkpt>
      <trkpt lat="45.569523" lon="7.826035">
        <ele>539.95996</ele>
        <time>2024-10-15T06:52:28.000Z</time>
      </trkpt>
      <trkpt lat="45.569542" lon="7.826023">
        <ele>541.07495</ele>
        <time>2024-10-15T06:52:30.000Z</time>
      </trkpt>
      <trkpt lat="45.569555" lon="7.825997">
        <ele>542.18994</ele>
        <time>2024-10-15T06:52:33.000Z</time>
      </trkpt>
      <trkpt lat="45.569563" lon="7.825968">
        <ele>543.17993</ele>
        <time>2024-10-15T06:52:35.000Z</time>
      </trkpt>
      <trkpt lat="45.569585" lon="7.825948">
        <ele>544.19989</ele>
        <time>2024-10-15T06:52:38.000Z</time>
      </trkpt>
      <trkpt lat="45.5696" lon="7.825925">
        <ele>545.29993</ele>
        <time>2024-10-15T06:52:41.000Z</time>
      </trkpt>
      <trkpt lat="45.569622" lon="7.825913">
        <ele>546.46497</ele>
        <time>2024-10-15T06:52:44.000Z</time>
      </trkpt>
      <trkpt lat="45.569642" lon="7.8259">
        <ele>547.68494</ele>
        <time>2024-10-15T06:52:49.000Z</time>
      </trkpt>
      <trkpt lat="45.569662" lon="7.825875">
        <ele>548.88989</ele>
        <time>2024-10-15T06:52:52.000Z</time>
      </trkpt>
      <trkpt lat="45.56968" lon="7.82587">
        <ele>550.0899</ele>
        <time>2024-10-15T06:52:54.000Z</time>
      </trkpt>
      <trkpt lat="45.569703" lon="7.825852">
        <ele>551.2749</ele>
        <time>2024-10-15T06:52:56.000Z</time>
      </trkpt>
      <trkpt lat="45.569727" lon="7.825842">
        <ele>552.42493</ele>
        <time>2024-10-15T06:52:58.000Z</time>
      </trkpt>
      <trkpt lat="45.56974" lon="7.825823">
        <ele>553.51495</ele>
        <time>2024-10-15T06:53:00.000Z</time>
      </trkpt>
      <trkpt lat="45.569767" lon="7.825802">
        <ele>554.52991</ele>
        <time>2024-10-15T06:53:02.000Z</time>
      </trkpt>
      <trkpt lat="45.569773" lon="7.82577">
        <ele>555.43494</ele>
        <time>2024-10-15T06:53:04.000Z</time>
      </trkpt>
      <trkpt lat="45.569787" lon="7.825737">
        <ele>556.26501</ele>
        <time>2024-10-15T06:53:06.000Z</time>
      </trkpt>
      <trkpt lat="45.569798" lon="7.825708">
        <ele>557.01996</ele>
        <time>2024-10-15T06:53:08.000Z</time>
      </trkpt>
      <trkpt lat="45.569812" lon="7.825683">
        <ele>557.69995</ele>
        <time>2024-10-15T06:53:11.000Z</time>
      </trkpt>
      <trkpt lat="45.569833" lon="7.825658">
        <ele>558.31995</ele>
        <time>2024-10-15T06:53:14.000Z</time>
      </trkpt>
      <trkpt lat="45.569858" lon="7.825647">
        <ele>558.78992</ele>
        <time>2024-10-15T06:53:16.000Z</time>
      </trkpt>
      <trkpt lat="45.569882" lon="7.825623">
        <ele>559.18994</ele>
        <time>2024-10-15T06:53:18.000Z</time>
      </trkpt>
      <trkpt lat="45.569903" lon="7.825602">
        <ele>559.51495</ele>
        <time>2024-10-15T06:53:20.000Z</time>
      </trkpt>
      <trkpt lat="45.56992" lon="7.825582">
        <ele>559.76996</ele>
        <time>2024-10-15T06:53:22.000Z</time>
      </trkpt>
      <trkpt lat="45.569945" lon="7.825572">
        <ele>560.00995</ele>
        <time>2024-10-15T06:53:25.000Z</time>
      </trkpt>
      <trkpt lat="45.569972" lon="7.825578">
        <ele>560.20996</ele>
        <time>2024-10-15T06:53:27.000Z</time>
      </trkpt>
      <trkpt lat="45.569992" lon="7.825573">
        <ele>560.31995</ele>
        <time>2024-10-15T06:53:29.000Z</time>
      </trkpt>
      <trkpt lat="45.570018" lon="7.825562">
        <ele>560.33997</ele>
        <time>2024-10-15T06:53:31.000Z</time>
      </trkpt>
      <trkpt lat="45.570043" lon="7.825538">
        <ele>560.26495</ele>
        <time>2024-10-15T06:53:33.000Z</time>
      </trkpt>
      <trkpt lat="45.570062" lon="7.825537">
        <ele>560.18494</ele>
        <time>2024-10-15T06:53:36.000Z</time>
      </trkpt>
      <trkpt lat="45.570072" lon="7.825515">
        <ele>560.06995</ele>
        <time>2024-10-15T06:53:42.000Z</time>
      </trkpt>
      <trkpt lat="45.570067" lon="7.825485">
        <ele>559.96997</ele>
        <time>2024-10-15T06:53:45.000Z</time>
      </trkpt>
      <trkpt lat="45.570083" lon="7.825515">
        <ele>559.70496</ele>
        <time>2024-10-15T06:54:12.000Z</time>
      </trkpt>
      <trkpt lat="45.57007" lon="7.825495">
        <ele>559.49988</ele>
        <time>2024-10-15T06:54:15.000Z</time>
      </trkpt>
      <trkpt lat="45.570072" lon="7.825468">
        <ele>559.37488</ele>
        <time>2024-10-15T06:54:19.000Z</time>
      </trkpt>
      <trkpt lat="45.570095" lon="7.82545">
        <ele>559.46985</ele>
        <time>2024-10-15T06:54:25.000Z</time>
      </trkpt>
      <trkpt lat="45.570117" lon="7.825438">
        <ele>559.64984</ele>
        <time>2024-10-15T06:54:28.000Z</time>
      </trkpt>
      <trkpt lat="45.570142" lon="7.825435">
        <ele>559.89984</ele>
        <time>2024-10-15T06:54:31.000Z</time>
      </trkpt>
      <trkpt lat="45.570157" lon="7.825417">
        <ele>560.17487</ele>
        <time>2024-10-15T06:54:33.000Z</time>
      </trkpt>
      <trkpt lat="45.57018" lon="7.825415">
        <ele>560.51483</ele>
        <time>2024-10-15T06:54:38.000Z</time>
      </trkpt>
      <trkpt lat="45.5702" lon="7.825417">
        <ele>560.88983</ele>
        <time>2024-10-15T06:54:41.000Z</time>
      </trkpt>
      <trkpt lat="45.570218" lon="7.82541">
        <ele>561.31482</ele>
        <time>2024-10-15T06:54:45.000Z</time>
      </trkpt>
      <trkpt lat="45.570237" lon="7.825398">
        <ele>561.80981</ele>
        <time>2024-10-15T06:54:50.000Z</time>
      </trkpt>
      <trkpt lat="45.570257" lon="7.825413">
        <ele>562.31982</ele>
        <time>2024-10-15T06:54:58.000Z</time>
      </trkpt>
      <trkpt lat="45.570292" lon="7.825452">
        <ele>562.7948</ele>
        <time>2024-10-15T06:55:07.000Z</time>
      </trkpt>
      <trkpt lat="45.570312" lon="7.825455">
        <ele>563.27985</ele>
        <time>2024-10-15T06:55:11.000Z</time>
      </trkpt>
      <trkpt lat="45.57033" lon="7.825447">
        <ele>563.83984</ele>
        <time>2024-10-15T06:55:20.000Z</time>
      </trkpt>
      <trkpt lat="45.57035" lon="7.825433">
        <ele>564.39984</ele>
        <time>2024-10-15T06:55:22.000Z</time>
      </trkpt>
      <trkpt lat="45.570367" lon="7.825422">
        <ele>564.96985</ele>
        <time>2024-10-15T06:55:24.000Z</time>
      </trkpt>
      <trkpt lat="45.570382" lon="7.825403">
        <ele>565.49988</ele>
        <time>2024-10-15T06:55:26.000Z</time>
      </trkpt>
      <trkpt lat="45.5704" lon="7.8254">
        <ele>566.01483</ele>
        <time>2024-10-15T06:55:28.000Z</time>
      </trkpt>
      <trkpt lat="45.57042" lon="7.825395">
        <ele>566.4848</ele>
        <time>2024-10-15T06:55:30.000Z</time>
      </trkpt>
      <trkpt lat="45.570438" lon="7.825398">
        <ele>567.11487</ele>
        <time>2024-10-15T06:55:33.000Z</time>
      </trkpt>
      <trkpt lat="45.57045" lon="7.825423">
        <ele>567.76483</ele>
        <time>2024-10-15T06:55:37.000Z</time>
      </trkpt>
      <trkpt lat="45.570468" lon="7.825432">
        <ele>568.38489</ele>
        <time>2024-10-15T06:55:40.000Z</time>
      </trkpt>
      <trkpt lat="45.57049" lon="7.825422">
        <ele>568.88489</ele>
        <time>2024-10-15T06:55:44.000Z</time>
      </trkpt>
      <trkpt lat="45.57051" lon="7.825423">
        <ele>569.36487</ele>
        <time>2024-10-15T06:55:47.000Z</time>
      </trkpt>
      <trkpt lat="45.570553" lon="7.82541">
        <ele>569.90485</ele>
        <time>2024-10-15T06:55:55.000Z</time>
      </trkpt>
      <trkpt lat="45.570575" lon="7.825413">
        <ele>570.43982</ele>
        <time>2024-10-15T06:55:57.000Z</time>
      </trkpt>
      <trkpt lat="45.570593" lon="7.825418">
        <ele>570.92487</ele>
        <time>2024-10-15T06:55:59.000Z</time>
      </trkpt>
      <trkpt lat="45.570605" lon="7.825397">
        <ele>571.43982</ele>
        <time>2024-10-15T06:56:02.000Z</time>
      </trkpt>
      <trkpt lat="45.57062" lon="7.82538">
        <ele>571.96484</ele>
        <time>2024-10-15T06:56:04.000Z</time>
      </trkpt>
      <trkpt lat="45.570647" lon="7.825378">
        <ele>572.50488</ele>
        <time>2024-10-15T06:56:06.000Z</time>
      </trkpt>
      <trkpt lat="45.570665" lon="7.825375">
        <ele>573.06989</ele>
        <time>2024-10-15T06:56:08.000Z</time>
      </trkpt>
      <trkpt lat="45.570683" lon="7.82538">
        <ele>573.7049</ele>
        <time>2024-10-15T06:56:11.000Z</time>
      </trkpt>
      <trkpt lat="45.570703" lon="7.825382">
        <ele>574.36987</ele>
        <time>2024-10-15T06:56:13.000Z</time>
      </trkpt>
      <trkpt lat="45.57072" lon="7.825368">
        <ele>574.96985</ele>
        <time>2024-10-15T06:56:15.000Z</time>
      </trkpt>
      <trkpt lat="45.570743" lon="7.825358">
        <ele>575.59485</ele>
        <time>2024-10-15T06:56:18.000Z</time>
      </trkpt>
      <trkpt lat="45.570762" lon="7.825353">
        <ele>576.23486</ele>
        <time>2024-10-15T06:56:22.000Z</time>
      </trkpt>
      <trkpt lat="45.570783" lon="7.825347">
        <ele>576.94983</ele>
        <time>2024-10-15T06:56:25.000Z</time>
      </trkpt>
      <trkpt lat="45.570805" lon="7.825342">
        <ele>577.74487</ele>
        <time>2024-10-15T06:56:28.000Z</time>
      </trkpt>
      <trkpt lat="45.570828" lon="7.825353">
        <ele>578.6449</ele>
        <time>2024-10-15T06:56:31.000Z</time>
      </trkpt>
      <trkpt lat="45.570848" lon="7.825343">
        <ele>579.54486</ele>
        <time>2024-10-15T06:56:35.000Z</time>
      </trkpt>
      <trkpt lat="45.570868" lon="7.825332">
        <ele>580.38989</ele>
        <time>2024-10-15T06:56:38.000Z</time>
      </trkpt>
      <trkpt lat="45.57089" lon="7.825333">
        <ele>581.24487</ele>
        <time>2024-10-15T06:56:41.000Z</time>
      </trkpt>
      <trkpt lat="45.57091" lon="7.825343">
        <ele>582.0899</ele>
        <time>2024-10-15T06:56:44.000Z</time>
      </trkpt>
      <trkpt lat="45.570937" lon="7.825348">
        <ele>582.91492</ele>
        <time>2024-10-15T06:56:47.000Z</time>
      </trkpt>
      <trkpt lat="45.570955" lon="7.825342">
        <ele>583.63489</ele>
        <time>2024-10-15T06:56:50.000Z</time>
      </trkpt>
      <trkpt lat="45.57098" lon="7.825342">
        <ele>584.36993</ele>
        <time>2024-10-15T06:56:54.000Z</time>
      </trkpt>
      <trkpt lat="45.571008" lon="7.82534">
        <ele>585.11493</ele>
        <time>2024-10-15T06:56:57.000Z</time>
      </trkpt>
      <trkpt lat="45.571035" lon="7.825323">
        <ele>585.80499</ele>
        <time>2024-10-15T06:57:00.000Z</time>
      </trkpt>
      <trkpt lat="45.571053" lon="7.82531">
        <ele>586.51001</ele>
        <time>2024-10-15T06:57:02.000Z</time>
      </trkpt>
      <trkpt lat="45.571072" lon="7.8253">
        <ele>587.22498</ele>
        <time>2024-10-15T06:57:04.000Z</time>
      </trkpt>
      <trkpt lat="45.571095" lon="7.825293">
        <ele>588.02502</ele>
        <time>2024-10-15T06:57:07.000Z</time>
      </trkpt>
      <trkpt lat="45.571113" lon="7.825292">
        <ele>588.81</ele>
        <time>2024-10-15T06:57:09.000Z</time>
      </trkpt>
      <trkpt lat="45.571135" lon="7.82529">
        <ele>589.56506</ele>
        <time>2024-10-15T06:57:11.000Z</time>
      </trkpt>
      <trkpt lat="45.571153" lon="7.825275">
        <ele>590.34998</ele>
        <time>2024-10-15T06:57:14.000Z</time>
      </trkpt>
      <trkpt lat="45.571175" lon="7.825258">
        <ele>591.15497</ele>
        <time>2024-10-15T06:57:19.000Z</time>
      </trkpt>
      <trkpt lat="45.571198" lon="7.825255">
        <ele>591.97498</ele>
        <time>2024-10-15T06:57:21.000Z</time>
      </trkpt>
      <trkpt lat="45.571215" lon="7.825245">
        <ele>592.755</ele>
        <time>2024-10-15T06:57:22.000Z</time>
      </trkpt>
      <trkpt lat="45.571232" lon="7.825258">
        <ele>593.47003</ele>
        <time>2024-10-15T06:57:24.000Z</time>
      </trkpt>
      <trkpt lat="45.571253" lon="7.825253">
        <ele>594.09003</ele>
        <time>2024-10-15T06:57:34.000Z</time>
      </trkpt>
      <trkpt lat="45.57126" lon="7.825228">
        <ele>594.69006</ele>
        <time>2024-10-15T06:57:36.000Z</time>
      </trkpt>
      <trkpt lat="45.571278" lon="7.825213">
        <ele>595.26501</ele>
        <time>2024-10-15T06:57:38.000Z</time>
      </trkpt>
      <trkpt lat="45.571295" lon="7.825198">
        <ele>595.80505</ele>
        <time>2024-10-15T06:57:40.000Z</time>
      </trkpt>
      <trkpt lat="45.571318" lon="7.825173">
        <ele>596.27509</ele>
        <time>2024-10-15T06:57:42.000Z</time>
      </trkpt>
      <trkpt lat="45.571343" lon="7.825148">
        <ele>596.69012</ele>
        <time>2024-10-15T06:57:44.000Z</time>
      </trkpt>
      <trkpt lat="45.571363" lon="7.82512">
        <ele>597.11511</ele>
        <time>2024-10-15T06:57:47.000Z</time>
      </trkpt>
      <trkpt lat="45.571387" lon="7.82509">
        <ele>597.50012</ele>
        <time>2024-10-15T06:57:49.000Z</time>
      </trkpt>
      <trkpt lat="45.571402" lon="7.825063">
        <ele>597.88013</ele>
        <time>2024-10-15T06:57:51.000Z</time>
      </trkpt>
      <trkpt lat="45.57143" lon="7.825028">
        <ele>598.27509</ele>
        <time>2024-10-15T06:57:53.000Z</time>
      </trkpt>
      <trkpt lat="45.571443" lon="7.82501">
        <ele>598.68512</ele>
        <time>2024-10-15T06:57:55.000Z</time>
      </trkpt>
      <trkpt lat="45.571463" lon="7.824992">
        <ele>599.09509</ele>
        <time>2024-10-15T06:57:57.000Z</time>
      </trkpt>
      <trkpt lat="45.571483" lon="7.82498">
        <ele>599.43011</ele>
        <time>2024-10-15T06:57:59.000Z</time>
      </trkpt>
      <trkpt lat="45.5715" lon="7.824955">
        <ele>599.76508</ele>
        <time>2024-10-15T06:58:01.000Z</time>
      </trkpt>
      <trkpt lat="45.571518" lon="7.824938">
        <ele>600.13007</ele>
        <time>2024-10-15T06:58:03.000Z</time>
      </trkpt>
      <trkpt lat="45.571532" lon="7.824918">
        <ele>600.49011</ele>
        <time>2024-10-15T06:58:05.000Z</time>
      </trkpt>
      <trkpt lat="45.571557" lon="7.824898">
        <ele>600.8551</ele>
        <time>2024-10-15T06:58:08.000Z</time>
      </trkpt>
      <trkpt lat="45.571578" lon="7.824875">
        <ele>601.22009</ele>
        <time>2024-10-15T06:58:11.000Z</time>
      </trkpt>
      <trkpt lat="45.571602" lon="7.824867">
        <ele>601.55511</ele>
        <time>2024-10-15T06:58:13.000Z</time>
      </trkpt>
      <trkpt lat="45.571623" lon="7.824847">
        <ele>601.88013</ele>
        <time>2024-10-15T06:58:16.000Z</time>
      </trkpt>
      <trkpt lat="45.571637" lon="7.824817">
        <ele>602.21515</ele>
        <time>2024-10-15T06:58:18.000Z</time>
      </trkpt>
      <trkpt lat="45.571657" lon="7.824783">
        <ele>602.58014</ele>
        <time>2024-10-15T06:58:20.000Z</time>
      </trkpt>
      <trkpt lat="45.571683" lon="7.824775">
        <ele>602.90515</ele>
        <time>2024-10-15T06:58:22.000Z</time>
      </trkpt>
      <trkpt lat="45.571707" lon="7.824773">
        <ele>603.21008</ele>
        <time>2024-10-15T06:58:24.000Z</time>
      </trkpt>
      <trkpt lat="45.571727" lon="7.824755">
        <ele>603.55505</ele>
        <time>2024-10-15T06:58:26.000Z</time>
      </trkpt>
      <trkpt lat="45.571745" lon="7.824735">
        <ele>603.93005</ele>
        <time>2024-10-15T06:58:28.000Z</time>
      </trkpt>
      <trkpt lat="45.571765" lon="7.82472">
        <ele>604.28503</ele>
        <time>2024-10-15T06:58:31.000Z</time>
      </trkpt>
      <trkpt lat="45.571785" lon="7.824692">
        <ele>604.64502</ele>
        <time>2024-10-15T06:58:34.000Z</time>
      </trkpt>
      <trkpt lat="45.571803" lon="7.824682">
        <ele>604.97498</ele>
        <time>2024-10-15T06:58:36.000Z</time>
      </trkpt>
      <trkpt lat="45.571828" lon="7.82467">
        <ele>605.26501</ele>
        <time>2024-10-15T06:58:38.000Z</time>
      </trkpt>
      <trkpt lat="45.571843" lon="7.824642">
        <ele>605.47998</ele>
        <time>2024-10-15T06:58:41.000Z</time>
      </trkpt>
      <trkpt lat="45.571865" lon="7.824643">
        <ele>605.66492</ele>
        <time>2024-10-15T06:58:43.000Z</time>
      </trkpt>
      <trkpt lat="45.571883" lon="7.824638">
        <ele>605.84991</ele>
        <time>2024-10-15T06:58:45.000Z</time>
      </trkpt>
      <trkpt lat="45.571902" lon="7.824633">
        <ele>606.00989</ele>
        <time>2024-10-15T06:58:47.000Z</time>
      </trkpt>
      <trkpt lat="45.571917" lon="7.824617">
        <ele>606.15491</ele>
        <time>2024-10-15T06:58:50.000Z</time>
      </trkpt>
      <trkpt lat="45.571938" lon="7.824598">
        <ele>606.23993</ele>
        <time>2024-10-15T06:58:53.000Z</time>
      </trkpt>
      <trkpt lat="45.57196" lon="7.824583">
        <ele>606.23492</ele>
        <time>2024-10-15T06:58:55.000Z</time>
      </trkpt>
      <trkpt lat="45.571982" lon="7.824578">
        <ele>606.18988</ele>
        <time>2024-10-15T06:58:57.000Z</time>
      </trkpt>
      <trkpt lat="45.572007" lon="7.82457">
        <ele>606.13989</ele>
        <time>2024-10-15T06:58:59.000Z</time>
      </trkpt>
      <trkpt lat="45.572032" lon="7.824565">
        <ele>606.09991</ele>
        <time>2024-10-15T06:59:01.000Z</time>
      </trkpt>
      <trkpt lat="45.572055" lon="7.824552">
        <ele>606.06488</ele>
        <time>2024-10-15T06:59:03.000Z</time>
      </trkpt>
      <trkpt lat="45.572073" lon="7.824538">
        <ele>605.99487</ele>
        <time>2024-10-15T06:59:05.000Z</time>
      </trkpt>
      <trkpt lat="45.572093" lon="7.824518">
        <ele>605.97485</ele>
        <time>2024-10-15T06:59:07.000Z</time>
      </trkpt>
      <trkpt lat="45.572112" lon="7.824498">
        <ele>605.95984</ele>
        <time>2024-10-15T06:59:09.000Z</time>
      </trkpt>
      <trkpt lat="45.572132" lon="7.824488">
        <ele>605.95984</ele>
        <time>2024-10-15T06:59:12.000Z</time>
      </trkpt>
      <trkpt lat="45.572152" lon="7.824478">
        <ele>605.99481</ele>
        <time>2024-10-15T06:59:15.000Z</time>
      </trkpt>
      <trkpt lat="45.572175" lon="7.824465">
        <ele>606.10486</ele>
        <time>2024-10-15T06:59:18.000Z</time>
      </trkpt>
      <trkpt lat="45.572193" lon="7.824465">
        <ele>606.22485</ele>
        <time>2024-10-15T06:59:20.000Z</time>
      </trkpt>
      <trkpt lat="45.572215" lon="7.824467">
        <ele>606.38489</ele>
        <time>2024-10-15T06:59:22.000Z</time>
      </trkpt>
      <trkpt lat="45.57224" lon="7.824475">
        <ele>606.58484</ele>
        <time>2024-10-15T06:59:24.000Z</time>
      </trkpt>
      <trkpt lat="45.572267" lon="7.824472">
        <ele>606.80481</ele>
        <time>2024-10-15T06:59:27.000Z</time>
      </trkpt>
      <trkpt lat="45.572298" lon="7.824477">
        <ele>606.99487</ele>
        <time>2024-10-15T06:59:29.000Z</time>
      </trkpt>
      <trkpt lat="45.572322" lon="7.824488">
        <ele>607.18494</ele>
        <time>2024-10-15T06:59:31.000Z</time>
      </trkpt>
      <trkpt lat="45.57234" lon="7.824492">
        <ele>607.3999</ele>
        <time>2024-10-15T06:59:33.000Z</time>
      </trkpt>
      <trkpt lat="45.572363" lon="7.824503">
        <ele>607.60486</ele>
        <time>2024-10-15T06:59:38.000Z</time>
      </trkpt>
      <trkpt lat="45.572397" lon="7.824603">
        <ele>607.73486</ele>
        <time>2024-10-15T07:01:21.000Z</time>
      </trkpt>
      <trkpt lat="45.57233" lon="7.824587">
        <ele>608.31488</ele>
        <time>2024-10-15T07:02:10.000Z</time>
      </trkpt>
      <trkpt lat="45.572307" lon="7.824603">
        <ele>608.91492</ele>
        <time>2024-10-15T07:02:30.000Z</time>
      </trkpt>
      <trkpt lat="45.572382" lon="7.82457">
        <ele>609.56989</ele>
        <time>2024-10-15T07:03:10.000Z</time>
      </trkpt>
      <trkpt lat="45.572333" lon="7.824548">
        <ele>610.23987</ele>
        <time>2024-10-15T07:04:07.000Z</time>
      </trkpt>
      <trkpt lat="45.572307" lon="7.824525">
        <ele>610.86487</ele>
        <time>2024-10-15T07:05:56.000Z</time>
      </trkpt>
      <trkpt lat="45.57236" lon="7.82463">
        <ele>611.41486</ele>
        <time>2024-10-15T07:06:36.000Z</time>
      </trkpt>
      <trkpt lat="45.572377" lon="7.82465">
        <ele>611.94489</ele>
        <time>2024-10-15T07:06:39.000Z</time>
      </trkpt>
      <trkpt lat="45.572435" lon="7.824743">
        <ele>612.43488</ele>
        <time>2024-10-15T07:07:02.000Z</time>
      </trkpt>
      <trkpt lat="45.572443" lon="7.824767">
        <ele>612.87988</ele>
        <time>2024-10-15T07:07:04.000Z</time>
      </trkpt>
      <trkpt lat="45.572453" lon="7.824798">
        <ele>613.28491</ele>
        <time>2024-10-15T07:07:09.000Z</time>
      </trkpt>
      <trkpt lat="45.572445" lon="7.824823">
        <ele>613.57996</ele>
        <time>2024-10-15T07:07:13.000Z</time>
      </trkpt>
      <trkpt lat="45.57245" lon="7.82485">
        <ele>613.87994</ele>
        <time>2024-10-15T07:07:16.000Z</time>
      </trkpt>
      <trkpt lat="45.572452" lon="7.824878">
        <ele>614.17993</ele>
        <time>2024-10-15T07:07:19.000Z</time>
      </trkpt>
      <trkpt lat="45.572442" lon="7.824908">
        <ele>614.47992</ele>
        <time>2024-10-15T07:07:22.000Z</time>
      </trkpt>
      <trkpt lat="45.572435" lon="7.824938">
        <ele>614.77991</ele>
        <time>2024-10-15T07:07:24.000Z</time>
      </trkpt>
      <trkpt lat="45.572433" lon="7.824973">
        <ele>615.0849</ele>
        <time>2024-10-15T07:07:27.000Z</time>
      </trkpt>
      <trkpt lat="45.572437" lon="7.825005">
        <ele>615.37988</ele>
        <time>2024-10-15T07:07:31.000Z</time>
      </trkpt>
      <trkpt lat="45.572433" lon="7.825033">
        <ele>615.63489</ele>
        <time>2024-10-15T07:07:35.000Z</time>
      </trkpt>
      <trkpt lat="45.572433" lon="7.82506">
        <ele>615.85492</ele>
        <time>2024-10-15T07:07:38.000Z</time>
      </trkpt>
      <trkpt lat="45.572427" lon="7.82509">
        <ele>616.17993</ele>
        <time>2024-10-15T07:07:41.000Z</time>
      </trkpt>
      <trkpt lat="45.572425" lon="7.825117">
        <ele>616.04492</ele>
        <time>2024-10-15T07:07:46.000Z</time>
      </trkpt>
      <trkpt lat="45.572387" lon="7.825133">
        <ele>616.09491</ele>
        <time>2024-10-15T07:08:01.000Z</time>
      </trkpt>
      <trkpt lat="45.572377" lon="7.82516">
        <ele>616.17993</ele>
        <time>2024-10-15T07:08:05.000Z</time>
      </trkpt>
      <trkpt lat="45.572363" lon="7.825178">
        <ele>616.30493</ele>
        <time>2024-10-15T07:08:08.000Z</time>
      </trkpt>
      <trkpt lat="45.57235" lon="7.825205">
        <ele>616.4599</ele>
        <time>2024-10-15T07:08:13.000Z</time>
      </trkpt>
      <trkpt lat="45.572335" lon="7.82522">
        <ele>616.67493</ele>
        <time>2024-10-15T07:08:16.000Z</time>
      </trkpt>
      <trkpt lat="45.572312" lon="7.825227">
        <ele>616.82996</ele>
        <time>2024-10-15T07:08:21.000Z</time>
      </trkpt>
      <trkpt lat="45.572293" lon="7.825235">
        <ele>617.02991</ele>
        <time>2024-10-15T07:08:23.000Z</time>
      </trkpt>
      <trkpt lat="45.572272" lon="7.825238">
        <ele>617.21497</ele>
        <time>2024-10-15T07:08:26.000Z</time>
      </trkpt>
      <trkpt lat="45.572257" lon="7.825253">
        <ele>617.41492</ele>
        <time>2024-10-15T07:08:28.000Z</time>
      </trkpt>
      <trkpt lat="45.572237" lon="7.825247">
        <ele>617.6449</ele>
        <time>2024-10-15T07:08:32.000Z</time>
      </trkpt>
      <trkpt lat="45.572217" lon="7.825255">
        <ele>617.8949</ele>
        <time>2024-10-15T07:08:35.000Z</time>
      </trkpt>
      <trkpt lat="45.572198" lon="7.825273">
        <ele>618.19995</ele>
        <time>2024-10-15T07:08:39.000Z</time>
      </trkpt>
      <trkpt lat="45.5722" lon="7.825302">
        <ele>618.51996</ele>
        <time>2024-10-15T07:08:43.000Z</time>
      </trkpt>
      <trkpt lat="45.572192" lon="7.82533">
        <ele>618.85999</ele>
        <time>2024-10-15T07:08:46.000Z</time>
      </trkpt>
      <trkpt lat="45.572183" lon="7.825367">
        <ele>619.27502</ele>
        <time>2024-10-15T07:08:49.000Z</time>
      </trkpt>
      <trkpt lat="45.572178" lon="7.825398">
        <ele>619.72003</ele>
        <time>2024-10-15T07:08:53.000Z</time>
      </trkpt>
      <trkpt lat="45.572168" lon="7.825423">
        <ele>620.245</ele>
        <time>2024-10-15T07:08:57.000Z</time>
      </trkpt>
      <trkpt lat="45.572162" lon="7.825452">
        <ele>620.82001</ele>
        <time>2024-10-15T07:09:02.000Z</time>
      </trkpt>
      <trkpt lat="45.57216" lon="7.825487">
        <ele>621.38</ele>
        <time>2024-10-15T07:09:09.000Z</time>
      </trkpt>
      <trkpt lat="45.572147" lon="7.825515">
        <ele>621.995</ele>
        <time>2024-10-15T07:09:12.000Z</time>
      </trkpt>
      <trkpt lat="45.572142" lon="7.825542">
        <ele>622.44006</ele>
        <time>2024-10-15T07:09:14.000Z</time>
      </trkpt>
      <trkpt lat="45.572137" lon="7.825568">
        <ele>622.84503</ele>
        <time>2024-10-15T07:09:17.000Z</time>
      </trkpt>
      <trkpt lat="45.572132" lon="7.825595">
        <ele>623.23004</ele>
        <time>2024-10-15T07:09:19.000Z</time>
      </trkpt>
      <trkpt lat="45.572127" lon="7.82562">
        <ele>623.65503</ele>
        <time>2024-10-15T07:09:22.000Z</time>
      </trkpt>
      <trkpt lat="45.572122" lon="7.825653">
        <ele>624.125</ele>
        <time>2024-10-15T07:09:26.000Z</time>
      </trkpt>
      <trkpt lat="45.572123" lon="7.82568">
        <ele>624.69501</ele>
        <time>2024-10-15T07:09:29.000Z</time>
      </trkpt>
      <trkpt lat="45.572117" lon="7.825707">
        <ele>625.28503</ele>
        <time>2024-10-15T07:09:33.000Z</time>
      </trkpt>
      <trkpt lat="45.57215" lon="7.825717">
        <ele>625.96497</ele>
        <time>2024-10-15T07:09:46.000Z</time>
      </trkpt>
      <trkpt lat="45.572115" lon="7.825672">
        <ele>626.79498</ele>
        <time>2024-10-15T07:10:09.000Z</time>
      </trkpt>
      <trkpt lat="45.572095" lon="7.825668">
        <ele>627.70496</ele>
        <time>2024-10-15T07:10:13.000Z</time>
      </trkpt>
      <trkpt lat="45.572107" lon="7.825707">
        <ele>628.63495</ele>
        <time>2024-10-15T07:10:25.000Z</time>
      </trkpt>
      <trkpt lat="45.572107" lon="7.825735">
        <ele>629.47498</ele>
        <time>2024-10-15T07:10:28.000Z</time>
      </trkpt>
      <trkpt lat="45.572103" lon="7.825763">
        <ele>630.27496</ele>
        <time>2024-10-15T07:10:31.000Z</time>
      </trkpt>
      <trkpt lat="45.572115" lon="7.82579">
        <ele>631.05493</ele>
        <time>2024-10-15T07:10:33.000Z</time>
      </trkpt>
      <trkpt lat="45.572115" lon="7.825818">
        <ele>631.73993</ele>
        <time>2024-10-15T07:10:35.000Z</time>
      </trkpt>
      <trkpt lat="45.57211" lon="7.825843">
        <ele>632.36993</ele>
        <time>2024-10-15T07:10:37.000Z</time>
      </trkpt>
      <trkpt lat="45.572103" lon="7.82587">
        <ele>632.91492</ele>
        <time>2024-10-15T07:10:40.000Z</time>
      </trkpt>
      <trkpt lat="45.572102" lon="7.8259">
        <ele>633.40985</ele>
        <time>2024-10-15T07:10:43.000Z</time>
      </trkpt>
      <trkpt lat="45.572097" lon="7.825933">
        <ele>633.90491</ele>
        <time>2024-10-15T07:10:46.000Z</time>
      </trkpt>
      <trkpt lat="45.572098" lon="7.825965">
        <ele>634.38989</ele>
        <time>2024-10-15T07:10:49.000Z</time>
      </trkpt>
      <trkpt lat="45.5721" lon="7.825992">
        <ele>634.84485</ele>
        <time>2024-10-15T07:10:52.000Z</time>
      </trkpt>
      <trkpt lat="45.572095" lon="7.826018">
        <ele>635.26489</ele>
        <time>2024-10-15T07:10:55.000Z</time>
      </trkpt>
      <trkpt lat="45.572088" lon="7.826043">
        <ele>635.66986</ele>
        <time>2024-10-15T07:10:57.000Z</time>
      </trkpt>
      <trkpt lat="45.572077" lon="7.826067">
        <ele>636.04486</ele>
        <time>2024-10-15T07:10:59.000Z</time>
      </trkpt>
      <trkpt lat="45.572065" lon="7.826097">
        <ele>636.40491</ele>
        <time>2024-10-15T07:11:01.000Z</time>
      </trkpt>
      <trkpt lat="45.572055" lon="7.826127">
        <ele>636.73987</ele>
        <time>2024-10-15T07:11:03.000Z</time>
      </trkpt>
      <trkpt lat="45.57205" lon="7.826155">
        <ele>637.05988</ele>
        <time>2024-10-15T07:11:05.000Z</time>
      </trkpt>
      <trkpt lat="45.572042" lon="7.826178">
        <ele>637.34485</ele>
        <time>2024-10-15T07:11:07.000Z</time>
      </trkpt>
      <trkpt lat="45.57203" lon="7.82621">
        <ele>637.48486</ele>
        <time>2024-10-15T07:11:09.000Z</time>
      </trkpt>
      <trkpt lat="45.572015" lon="7.826238">
        <ele>637.58984</ele>
        <time>2024-10-15T07:11:11.000Z</time>
      </trkpt>
      <trkpt lat="45.572008" lon="7.826265">
        <ele>637.66986</ele>
        <time>2024-10-15T07:11:13.000Z</time>
      </trkpt>
      <trkpt lat="45.572002" lon="7.826307">
        <ele>637.79987</ele>
        <time>2024-10-15T07:11:15.000Z</time>
      </trkpt>
      <trkpt lat="45.571997" lon="7.826335">
        <ele>637.97485</ele>
        <time>2024-10-15T07:11:17.000Z</time>
      </trkpt>
      <trkpt lat="45.571987" lon="7.826368">
        <ele>638.15985</ele>
        <time>2024-10-15T07:11:19.000Z</time>
      </trkpt>
      <trkpt lat="45.571972" lon="7.826393">
        <ele>638.3949</ele>
        <time>2024-10-15T07:11:24.000Z</time>
      </trkpt>
      <trkpt lat="45.57194" lon="7.826457">
        <ele>638.94489</ele>
        <time>2024-10-15T07:12:08.000Z</time>
      </trkpt>
      <trkpt lat="45.571943" lon="7.826485">
        <ele>639.53992</ele>
        <time>2024-10-15T07:12:11.000Z</time>
      </trkpt>
      <trkpt lat="45.571957" lon="7.826515">
        <ele>640.16992</ele>
        <time>2024-10-15T07:12:14.000Z</time>
      </trkpt>
      <trkpt lat="45.571965" lon="7.826553">
        <ele>640.78992</ele>
        <time>2024-10-15T07:12:17.000Z</time>
      </trkpt>
      <trkpt lat="45.571972" lon="7.826588">
        <ele>641.3999</ele>
        <time>2024-10-15T07:12:19.000Z</time>
      </trkpt>
      <trkpt lat="45.571985" lon="7.826613">
        <ele>642.00494</ele>
        <time>2024-10-15T07:12:21.000Z</time>
      </trkpt>
      <trkpt lat="45.571998" lon="7.826643">
        <ele>642.60492</ele>
        <time>2024-10-15T07:12:23.000Z</time>
      </trkpt>
      <trkpt lat="45.572003" lon="7.82667">
        <ele>643.18994</ele>
        <time>2024-10-15T07:12:25.000Z</time>
      </trkpt>
      <trkpt lat="45.572005" lon="7.826713">
        <ele>643.74994</ele>
        <time>2024-10-15T07:12:27.000Z</time>
      </trkpt>
      <trkpt lat="45.572008" lon="7.826755">
        <ele>644.34497</ele>
        <time>2024-10-15T07:12:29.000Z</time>
      </trkpt>
      <trkpt lat="45.572018" lon="7.82678">
        <ele>645.01501</ele>
        <time>2024-10-15T07:12:31.000Z</time>
      </trkpt>
      <trkpt lat="45.57203" lon="7.826817">
        <ele>645.745</ele>
        <time>2024-10-15T07:12:34.000Z</time>
      </trkpt>
      <trkpt lat="45.572035" lon="7.826855">
        <ele>646.51996</ele>
        <time>2024-10-15T07:12:36.000Z</time>
      </trkpt>
      <trkpt lat="45.572042" lon="7.826882">
        <ele>647.35999</ele>
        <time>2024-10-15T07:12:38.000Z</time>
      </trkpt>
      <trkpt lat="45.572055" lon="7.826903">
        <ele>648.24005</ele>
        <time>2024-10-15T07:12:40.000Z</time>
      </trkpt>
      <trkpt lat="45.572062" lon="7.826932">
        <ele>649.15503</ele>
        <time>2024-10-15T07:12:42.000Z</time>
      </trkpt>
      <trkpt lat="45.57207" lon="7.826958">
        <ele>650.14001</ele>
        <time>2024-10-15T07:12:45.000Z</time>
      </trkpt>
      <trkpt lat="45.572077" lon="7.826987">
        <ele>651.12506</ele>
        <time>2024-10-15T07:12:48.000Z</time>
      </trkpt>
      <trkpt lat="45.572073" lon="7.827015">
        <ele>652.11505</ele>
        <time>2024-10-15T07:12:50.000Z</time>
      </trkpt>
      <trkpt lat="45.572072" lon="7.827048">
        <ele>653.08002</ele>
        <time>2024-10-15T07:12:53.000Z</time>
      </trkpt>
      <trkpt lat="45.572077" lon="7.82708">
        <ele>653.71503</ele>
        <time>2024-10-15T07:12:56.000Z</time>
      </trkpt>
      <trkpt lat="45.572073" lon="7.82711">
        <ele>654.29004</ele>
        <time>2024-10-15T07:12:59.000Z</time>
      </trkpt>
      <trkpt lat="45.572067" lon="7.827143">
        <ele>654.88</ele>
        <time>2024-10-15T07:13:03.000Z</time>
      </trkpt>
      <trkpt lat="45.572062" lon="7.827175">
        <ele>655.53503</ele>
        <time>2024-10-15T07:13:06.000Z</time>
      </trkpt>
      <trkpt lat="45.572055" lon="7.827203">
        <ele>656.21503</ele>
        <time>2024-10-15T07:13:09.000Z</time>
      </trkpt>
      <trkpt lat="45.572045" lon="7.827227">
        <ele>656.94501</ele>
        <time>2024-10-15T07:13:14.000Z</time>
      </trkpt>
      <trkpt lat="45.572043" lon="7.827255">
        <ele>657.58002</ele>
        <time>2024-10-15T07:13:52.000Z</time>
      </trkpt>
      <trkpt lat="45.572025" lon="7.827265">
        <ele>658.17505</ele>
        <time>2024-10-15T07:13:54.000Z</time>
      </trkpt>
      <trkpt lat="45.57201" lon="7.82728">
        <ele>658.755</ele>
        <time>2024-10-15T07:13:56.000Z</time>
      </trkpt>
      <trkpt lat="45.571995" lon="7.827295">
        <ele>659.28003</ele>
        <time>2024-10-15T07:13:58.000Z</time>
      </trkpt>
      <trkpt lat="45.571982" lon="7.827315">
        <ele>659.72504</ele>
        <time>2024-10-15T07:14:01.000Z</time>
      </trkpt>
      <trkpt lat="45.571967" lon="7.82733">
        <ele>660.1051</ele>
        <time>2024-10-15T07:14:03.000Z</time>
      </trkpt>
      <trkpt lat="45.571952" lon="7.827345">
        <ele>660.4151</ele>
        <time>2024-10-15T07:14:06.000Z</time>
      </trkpt>
      <trkpt lat="45.571932" lon="7.827358">
        <ele>660.64508</ele>
        <time>2024-10-15T07:14:09.000Z</time>
      </trkpt>
      <trkpt lat="45.571913" lon="7.827373">
        <ele>660.79504</ele>
        <time>2024-10-15T07:14:12.000Z</time>
      </trkpt>
      <trkpt lat="45.571902" lon="7.827397">
        <ele>660.89008</ele>
        <time>2024-10-15T07:14:15.000Z</time>
      </trkpt>
      <trkpt lat="45.571888" lon="7.82742">
        <ele>660.8551</ele>
        <time>2024-10-15T07:14:19.000Z</time>
      </trkpt>
      <trkpt lat="45.571873" lon="7.827437">
        <ele>660.7901</ele>
        <time>2024-10-15T07:14:22.000Z</time>
      </trkpt>
      <trkpt lat="45.571857" lon="7.827452">
        <ele>660.71509</ele>
        <time>2024-10-15T07:14:24.000Z</time>
      </trkpt>
      <trkpt lat="45.571843" lon="7.827473">
        <ele>660.67511</ele>
        <time>2024-10-15T07:14:27.000Z</time>
      </trkpt>
      <trkpt lat="45.571828" lon="7.82749">
        <ele>660.7251</ele>
        <time>2024-10-15T07:14:30.000Z</time>
      </trkpt>
      <trkpt lat="45.571803" lon="7.827507">
        <ele>660.87512</ele>
        <time>2024-10-15T07:14:33.000Z</time>
      </trkpt>
      <trkpt lat="45.57178" lon="7.82752">
        <ele>661.0351</ele>
        <time>2024-10-15T07:14:36.000Z</time>
      </trkpt>
      <trkpt lat="45.571767" lon="7.827538">
        <ele>661.19006</ele>
        <time>2024-10-15T07:14:39.000Z</time>
      </trkpt>
      <trkpt lat="45.571755" lon="7.827558">
        <ele>661.34009</ele>
        <time>2024-10-15T07:14:41.000Z</time>
      </trkpt>
      <trkpt lat="45.571737" lon="7.82757">
        <ele>661.52014</ele>
        <time>2024-10-15T07:14:46.000Z</time>
      </trkpt>
      <trkpt lat="45.571725" lon="7.827592">
        <ele>661.83508</ele>
        <time>2024-10-15T07:14:50.000Z</time>
      </trkpt>
      <trkpt lat="45.571713" lon="7.827613">
        <ele>662.19006</ele>
        <time>2024-10-15T07:14:54.000Z</time>
      </trkpt>
      <trkpt lat="45.571713" lon="7.827642">
        <ele>662.61511</ele>
        <time>2024-10-15T07:14:58.000Z</time>
      </trkpt>
      <trkpt lat="45.571712" lon="7.827672">
        <ele>663.06506</ele>
        <time>2024-10-15T07:15:02.000Z</time>
      </trkpt>
      <trkpt lat="45.571708" lon="7.827703">
        <ele>663.57507</ele>
        <time>2024-10-15T07:15:08.000Z</time>
      </trkpt>
      <trkpt lat="45.571712" lon="7.827732">
        <ele>664.13</ele>
        <time>2024-10-15T07:15:13.000Z</time>
      </trkpt>
      <trkpt lat="45.571715" lon="7.827762">
        <ele>664.76001</ele>
        <time>2024-10-15T07:15:19.000Z</time>
      </trkpt>
      <trkpt lat="45.571722" lon="7.827798">
        <ele>665.47003</ele>
        <time>2024-10-15T07:15:25.000Z</time>
      </trkpt>
      <trkpt lat="45.571712" lon="7.827825">
        <ele>666.20001</ele>
        <time>2024-10-15T07:15:28.000Z</time>
      </trkpt>
      <trkpt lat="45.571705" lon="7.827852">
        <ele>666.98499</ele>
        <time>2024-10-15T07:15:33.000Z</time>
      </trkpt>
      <trkpt lat="45.57169" lon="7.827872">
        <ele>667.82996</ele>
        <time>2024-10-15T07:15:36.000Z</time>
      </trkpt>
      <trkpt lat="45.571677" lon="7.827902">
        <ele>668.69995</ele>
        <time>2024-10-15T07:15:40.000Z</time>
      </trkpt>
      <trkpt lat="45.571665" lon="7.82793">
        <ele>669.57495</ele>
        <time>2024-10-15T07:15:43.000Z</time>
      </trkpt>
      <trkpt lat="45.571647" lon="7.827948">
        <ele>670.3949</ele>
        <time>2024-10-15T07:15:46.000Z</time>
      </trkpt>
      <trkpt lat="45.571643" lon="7.827982">
        <ele>671.11993</ele>
        <time>2024-10-15T07:15:51.000Z</time>
      </trkpt>
      <trkpt lat="45.571627" lon="7.82806">
        <ele>671.88489</ele>
        <time>2024-10-15T07:16:06.000Z</time>
      </trkpt>
      <trkpt lat="45.571612" lon="7.828075">
        <ele>673.31488</ele>
        <time>2024-10-15T07:16:36.000Z</time>
      </trkpt>
      <trkpt lat="45.571615" lon="7.828105">
        <ele>674.7099</ele>
        <time>2024-10-15T07:16:42.000Z</time>
      </trkpt>
      <trkpt lat="45.57163" lon="7.82812">
        <ele>676.11993</ele>
        <time>2024-10-15T07:16:47.000Z</time>
      </trkpt>
      <trkpt lat="45.571623" lon="7.828147">
        <ele>677.44989</ele>
        <time>2024-10-15T07:16:52.000Z</time>
      </trkpt>
      <trkpt lat="45.571628" lon="7.828185">
        <ele>678.7099</ele>
        <time>2024-10-15T07:16:56.000Z</time>
      </trkpt>
      <trkpt lat="45.571635" lon="7.828217">
        <ele>679.92493</ele>
        <time>2024-10-15T07:16:59.000Z</time>
      </trkpt>
      <trkpt lat="45.571638" lon="7.828243">
        <ele>681.09991</ele>
        <time>2024-10-15T07:17:02.000Z</time>
      </trkpt>
      <trkpt lat="45.571625" lon="7.828273">
        <ele>682.22986</ele>
        <time>2024-10-15T07:17:05.000Z</time>
      </trkpt>
      <trkpt lat="45.571615" lon="7.8283">
        <ele>683.29492</ele>
        <time>2024-10-15T07:17:08.000Z</time>
      </trkpt>
      <trkpt lat="45.57161" lon="7.828327">
        <ele>684.31494</ele>
        <time>2024-10-15T07:17:11.000Z</time>
      </trkpt>
      <trkpt lat="45.571597" lon="7.828357">
        <ele>685.32495</ele>
        <time>2024-10-15T07:17:14.000Z</time>
      </trkpt>
      <trkpt lat="45.571588" lon="7.828392">
        <ele>686.30994</ele>
        <time>2024-10-15T07:17:18.000Z</time>
      </trkpt>
      <trkpt lat="45.571587" lon="7.828427">
        <ele>687.32495</ele>
        <time>2024-10-15T07:17:22.000Z</time>
      </trkpt>
      <trkpt lat="45.57159" lon="7.828457">
        <ele>688.29498</ele>
        <time>2024-10-15T07:17:26.000Z</time>
      </trkpt>
      <trkpt lat="45.571608" lon="7.828502">
        <ele>689.34998</ele>
        <time>2024-10-15T07:17:41.000Z</time>
      </trkpt>
      <trkpt lat="45.571628" lon="7.82851">
        <ele>690.39496</ele>
        <time>2024-10-15T07:17:44.000Z</time>
      </trkpt>
      <trkpt lat="45.571647" lon="7.828525">
        <ele>691.45996</ele>
        <time>2024-10-15T07:17:47.000Z</time>
      </trkpt>
      <trkpt lat="45.571665" lon="7.828543">
        <ele>692.57996</ele>
        <time>2024-10-15T07:17:51.000Z</time>
      </trkpt>
      <trkpt lat="45.571687" lon="7.828557">
        <ele>693.745</ele>
        <time>2024-10-15T07:17:55.000Z</time>
      </trkpt>
      <trkpt lat="45.571705" lon="7.82859">
        <ele>694.85999</ele>
        <time>2024-10-15T07:18:00.000Z</time>
      </trkpt>
      <trkpt lat="45.571707" lon="7.828618">
        <ele>695.30499</ele>
        <time>2024-10-15T07:18:03.000Z</time>
      </trkpt>
      <trkpt lat="45.5717" lon="7.828647">
        <ele>695.79993</ele>
        <time>2024-10-15T07:18:07.000Z</time>
      </trkpt>
      <trkpt lat="45.571698" lon="7.82868">
        <ele>696.30994</ele>
        <time>2024-10-15T07:18:10.000Z</time>
      </trkpt>
      <trkpt lat="45.57169" lon="7.828703">
        <ele>696.84497</ele>
        <time>2024-10-15T07:18:12.000Z</time>
      </trkpt>
      <trkpt lat="45.571645" lon="7.828765">
        <ele>697.47992</ele>
        <time>2024-10-15T07:18:22.000Z</time>
      </trkpt>
      <trkpt lat="45.571627" lon="7.828778">
        <ele>698.14496</ele>
        <time>2024-10-15T07:18:24.000Z</time>
      </trkpt>
      <trkpt lat="45.571613" lon="7.828803">
        <ele>698.83502</ele>
        <time>2024-10-15T07:18:26.000Z</time>
      </trkpt>
      <trkpt lat="45.571605" lon="7.82883">
        <ele>699.58002</ele>
        <time>2024-10-15T07:18:28.000Z</time>
      </trkpt>
      <trkpt lat="45.57158" lon="7.828838">
        <ele>700.36499</ele>
        <time>2024-10-15T07:18:31.000Z</time>
      </trkpt>
      <trkpt lat="45.571555" lon="7.828828">
        <ele>701.17999</ele>
        <time>2024-10-15T07:18:34.000Z</time>
      </trkpt>
      <trkpt lat="45.571532" lon="7.828828">
        <ele>701.97498</ele>
        <time>2024-10-15T07:18:36.000Z</time>
      </trkpt>
      <trkpt lat="45.57151" lon="7.828832">
        <ele>702.75989</ele>
        <time>2024-10-15T07:18:39.000Z</time>
      </trkpt>
      <trkpt lat="45.571488" lon="7.82882">
        <ele>703.51495</ele>
        <time>2024-10-15T07:18:42.000Z</time>
      </trkpt>
      <trkpt lat="45.571507" lon="7.828835">
        <ele>704.30994</ele>
        <time>2024-10-15T07:18:46.000Z</time>
      </trkpt>
      <trkpt lat="45.571515" lon="7.828862">
        <ele>705.09497</ele>
        <time>2024-10-15T07:18:52.000Z</time>
      </trkpt>
      <trkpt lat="45.571518" lon="7.82889">
        <ele>705.88995</ele>
        <time>2024-10-15T07:18:57.000Z</time>
      </trkpt>
      <trkpt lat="45.57153" lon="7.82891">
        <ele>706.70996</ele>
        <time>2024-10-15T07:19:02.000Z</time>
      </trkpt>
      <trkpt lat="45.571538" lon="7.828943">
        <ele>707.51996</ele>
        <time>2024-10-15T07:19:06.000Z</time>
      </trkpt>
      <trkpt lat="45.571545" lon="7.828975">
        <ele>708.31995</ele>
        <time>2024-10-15T07:19:09.000Z</time>
      </trkpt>
      <trkpt lat="45.571543" lon="7.829003">
        <ele>709.08502</ele>
        <time>2024-10-15T07:19:12.000Z</time>
      </trkpt>
      <trkpt lat="45.57154" lon="7.829035">
        <ele>709.84998</ele>
        <time>2024-10-15T07:19:15.000Z</time>
      </trkpt>
      <trkpt lat="45.57153" lon="7.829065">
        <ele>710.61505</ele>
        <time>2024-10-15T07:19:19.000Z</time>
      </trkpt>
      <trkpt lat="45.57153" lon="7.829095">
        <ele>711.39502</ele>
        <time>2024-10-15T07:19:22.000Z</time>
      </trkpt>
      <trkpt lat="45.571528" lon="7.829123">
        <ele>712.19501</ele>
        <time>2024-10-15T07:19:25.000Z</time>
      </trkpt>
      <trkpt lat="45.571533" lon="7.82915">
        <ele>712.95502</ele>
        <time>2024-10-15T07:19:27.000Z</time>
      </trkpt>
      <trkpt lat="45.571528" lon="7.829187">
        <ele>713.76001</ele>
        <time>2024-10-15T07:19:30.000Z</time>
      </trkpt>
      <trkpt lat="45.571522" lon="7.829223">
        <ele>714.58997</ele>
        <time>2024-10-15T07:19:32.000Z</time>
      </trkpt>
      <trkpt lat="45.571533" lon="7.829243">
        <ele>715.40997</ele>
        <time>2024-10-15T07:19:37.000Z</time>
      </trkpt>
      <trkpt lat="45.57155" lon="7.829253">
        <ele>716.27997</ele>
        <time>2024-10-15T07:19:42.000Z</time>
      </trkpt>
      <trkpt lat="45.57154" lon="7.829278">
        <ele>717.15997</ele>
        <time>2024-10-15T07:19:45.000Z</time>
      </trkpt>
      <trkpt lat="45.571468" lon="7.829362">
        <ele>718.04498</ele>
        <time>2024-10-15T07:19:56.000Z</time>
      </trkpt>
      <trkpt lat="45.571497" lon="7.829402">
        <ele>718.94</ele>
        <time>2024-10-15T07:20:28.000Z</time>
      </trkpt>
      <trkpt lat="45.571493" lon="7.829437">
        <ele>719.79999</ele>
        <time>2024-10-15T07:20:31.000Z</time>
      </trkpt>
      <trkpt lat="45.57148" lon="7.829463">
        <ele>720.59497</ele>
        <time>2024-10-15T07:20:34.000Z</time>
      </trkpt>
      <trkpt lat="45.571462" lon="7.829488">
        <ele>721.28497</ele>
        <time>2024-10-15T07:20:38.000Z</time>
      </trkpt>
      <trkpt lat="45.571448" lon="7.829508">
        <ele>721.97498</ele>
        <time>2024-10-15T07:20:40.000Z</time>
      </trkpt>
      <trkpt lat="45.571435" lon="7.82953">
        <ele>722.61499</ele>
        <time>2024-10-15T07:20:42.000Z</time>
      </trkpt>
      <trkpt lat="45.571413" lon="7.829542">
        <ele>723.20496</ele>
        <time>2024-10-15T07:20:44.000Z</time>
      </trkpt>
      <trkpt lat="45.57139" lon="7.82955">
        <ele>723.78503</ele>
        <time>2024-10-15T07:20:46.000Z</time>
      </trkpt>
      <trkpt lat="45.57137" lon="7.829558">
        <ele>724.34497</ele>
        <time>2024-10-15T07:20:49.000Z</time>
      </trkpt>
      <trkpt lat="45.571353" lon="7.829568">
        <ele>724.87</ele>
        <time>2024-10-15T07:20:52.000Z</time>
      </trkpt>
      <trkpt lat="45.571332" lon="7.829583">
        <ele>725.33997</ele>
        <time>2024-10-15T07:20:55.000Z</time>
      </trkpt>
      <trkpt lat="45.571312" lon="7.82958">
        <ele>725.77991</ele>
        <time>2024-10-15T07:20:58.000Z</time>
      </trkpt>
      <trkpt lat="45.571287" lon="7.829575">
        <ele>726.18494</ele>
        <time>2024-10-15T07:21:00.000Z</time>
      </trkpt>
      <trkpt lat="45.571263" lon="7.829587">
        <ele>726.57489</ele>
        <time>2024-10-15T07:21:03.000Z</time>
      </trkpt>
      <trkpt lat="45.571245" lon="7.829607">
        <ele>726.96991</ele>
        <time>2024-10-15T07:21:07.000Z</time>
      </trkpt>
      <trkpt lat="45.571228" lon="7.829618">
        <ele>727.37994</ele>
        <time>2024-10-15T07:21:10.000Z</time>
      </trkpt>
      <trkpt lat="45.57122" lon="7.829647">
        <ele>727.86493</ele>
        <time>2024-10-15T07:21:15.000Z</time>
      </trkpt>
      <trkpt lat="45.571163" lon="7.829645">
        <ele>728.49994</ele>
        <time>2024-10-15T07:21:37.000Z</time>
      </trkpt>
      <trkpt lat="45.571147" lon="7.82966">
        <ele>729.18494</ele>
        <time>2024-10-15T07:21:46.000Z</time>
      </trkpt>
      <trkpt lat="45.571153" lon="7.829692">
        <ele>729.82996</ele>
        <time>2024-10-15T07:21:50.000Z</time>
      </trkpt>
      <trkpt lat="45.571148" lon="7.829727">
        <ele>730.41498</ele>
        <time>2024-10-15T07:21:54.000Z</time>
      </trkpt>
      <trkpt lat="45.571137" lon="7.829748">
        <ele>731.005</ele>
        <time>2024-10-15T07:21:58.000Z</time>
      </trkpt>
      <trkpt lat="45.571125" lon="7.829773">
        <ele>731.58502</ele>
        <time>2024-10-15T07:22:01.000Z</time>
      </trkpt>
      <trkpt lat="45.571112" lon="7.829792">
        <ele>732.16504</ele>
        <time>2024-10-15T07:22:04.000Z</time>
      </trkpt>
      <trkpt lat="45.571105" lon="7.829817">
        <ele>732.72003</ele>
        <time>2024-10-15T07:22:06.000Z</time>
      </trkpt>
      <trkpt lat="45.571095" lon="7.829838">
        <ele>733.29999</ele>
        <time>2024-10-15T07:22:08.000Z</time>
      </trkpt>
      <trkpt lat="45.571077" lon="7.829843">
        <ele>733.95001</ele>
        <time>2024-10-15T07:22:11.000Z</time>
      </trkpt>
      <trkpt lat="45.571057" lon="7.829855">
        <ele>734.60999</ele>
        <time>2024-10-15T07:22:13.000Z</time>
      </trkpt>
      <trkpt lat="45.571025" lon="7.82985">
        <ele>735.25995</ele>
        <time>2024-10-15T07:22:17.000Z</time>
      </trkpt>
      <trkpt lat="45.571005" lon="7.829853">
        <ele>735.91998</ele>
        <time>2024-10-15T07:22:19.000Z</time>
      </trkpt>
      <trkpt lat="45.570982" lon="7.829853">
        <ele>736.56995</ele>
        <time>2024-10-15T07:22:21.000Z</time>
      </trkpt>
      <trkpt lat="45.57096" lon="7.829845">
        <ele>737.17499</ele>
        <time>2024-10-15T07:22:24.000Z</time>
      </trkpt>
      <trkpt lat="45.570942" lon="7.829845">
        <ele>737.77002</ele>
        <time>2024-10-15T07:22:27.000Z</time>
      </trkpt>
      <trkpt lat="45.570923" lon="7.82984">
        <ele>738.36005</ele>
        <time>2024-10-15T07:22:30.000Z</time>
      </trkpt>
      <trkpt lat="45.570902" lon="7.829835">
        <ele>738.93506</ele>
        <time>2024-10-15T07:22:34.000Z</time>
      </trkpt>
      <trkpt lat="45.570912" lon="7.829945">
        <ele>739.56006</ele>
        <time>2024-10-15T07:22:57.000Z</time>
      </trkpt>
      <trkpt lat="45.570903" lon="7.829968">
        <ele>740.09509</ele>
        <time>2024-10-15T07:23:00.000Z</time>
      </trkpt>
      <trkpt lat="45.570888" lon="7.829987">
        <ele>740.40002</ele>
        <time>2024-10-15T07:23:03.000Z</time>
      </trkpt>
      <trkpt lat="45.570875" lon="7.830012">
        <ele>740.63507</ele>
        <time>2024-10-15T07:23:06.000Z</time>
      </trkpt>
      <trkpt lat="45.570862" lon="7.830038">
        <ele>740.88507</ele>
        <time>2024-10-15T07:23:10.000Z</time>
      </trkpt>
      <trkpt lat="45.570843" lon="7.830055">
        <ele>741.18005</ele>
        <time>2024-10-15T07:23:14.000Z</time>
      </trkpt>
      <trkpt lat="45.570828" lon="7.830078">
        <ele>741.52502</ele>
        <time>2024-10-15T07:23:18.000Z</time>
      </trkpt>
      <trkpt lat="45.570823" lon="7.83011">
        <ele>741.90997</ele>
        <time>2024-10-15T07:23:22.000Z</time>
      </trkpt>
      <trkpt lat="45.570823" lon="7.830143">
        <ele>742.32996</ele>
        <time>2024-10-15T07:23:26.000Z</time>
      </trkpt>
      <trkpt lat="45.57082" lon="7.830175">
        <ele>742.78992</ele>
        <time>2024-10-15T07:23:30.000Z</time>
      </trkpt>
      <trkpt lat="45.570822" lon="7.830205">
        <ele>743.28497</ele>
        <time>2024-10-15T07:23:35.000Z</time>
      </trkpt>
      <trkpt lat="45.570823" lon="7.83026">
        <ele>743.88495</ele>
        <time>2024-10-15T07:23:51.000Z</time>
      </trkpt>
      <trkpt lat="45.570815" lon="7.830283">
        <ele>744.495</ele>
        <time>2024-10-15T07:23:53.000Z</time>
      </trkpt>
      <trkpt lat="45.570805" lon="7.830317">
        <ele>745.125</ele>
        <time>2024-10-15T07:23:56.000Z</time>
      </trkpt>
      <trkpt lat="45.570792" lon="7.830343">
        <ele>745.76501</ele>
        <time>2024-10-15T07:23:59.000Z</time>
      </trkpt>
      <trkpt lat="45.57078" lon="7.830367">
        <ele>746.41498</ele>
        <time>2024-10-15T07:24:01.000Z</time>
      </trkpt>
      <trkpt lat="45.570772" lon="7.830393">
        <ele>747.12</ele>
        <time>2024-10-15T07:24:03.000Z</time>
      </trkpt>
      <trkpt lat="45.570755" lon="7.830412">
        <ele>747.89996</ele>
        <time>2024-10-15T07:24:06.000Z</time>
      </trkpt>
      <trkpt lat="45.570728" lon="7.830435">
        <ele>748.73492</ele>
        <time>2024-10-15T07:24:09.000Z</time>
      </trkpt>
      <trkpt lat="45.570712" lon="7.830448">
        <ele>749.60992</ele>
        <time>2024-10-15T07:24:12.000Z</time>
      </trkpt>
      <trkpt lat="45.570697" lon="7.830473">
        <ele>750.46991</ele>
        <time>2024-10-15T07:24:17.000Z</time>
      </trkpt>
      <trkpt lat="45.570682" lon="7.830488">
        <ele>751.38989</ele>
        <time>2024-10-15T07:24:21.000Z</time>
      </trkpt>
      <trkpt lat="45.570622" lon="7.830607">
        <ele>752.43494</ele>
        <time>2024-10-15T07:24:45.000Z</time>
      </trkpt>
      <trkpt lat="45.570607" lon="7.830642">
        <ele>753.49493</ele>
        <time>2024-10-15T07:24:50.000Z</time>
      </trkpt>
      <trkpt lat="45.57059" lon="7.830665">
        <ele>754.54993</ele>
        <time>2024-10-15T07:24:53.000Z</time>
      </trkpt>
      <trkpt lat="45.570575" lon="7.830687">
        <ele>755.59491</ele>
        <time>2024-10-15T07:24:56.000Z</time>
      </trkpt>
      <trkpt lat="45.570553" lon="7.83071">
        <ele>756.61493</ele>
        <time>2024-10-15T07:24:59.000Z</time>
      </trkpt>
      <trkpt lat="45.57054" lon="7.830732">
        <ele>757.63</ele>
        <time>2024-10-15T07:25:01.000Z</time>
      </trkpt>
      <trkpt lat="45.570535" lon="7.83077">
        <ele>758.65497</ele>
        <time>2024-10-15T07:25:05.000Z</time>
      </trkpt>
      <trkpt lat="45.570522" lon="7.830798">
        <ele>759.68494</ele>
        <time>2024-10-15T07:25:08.000Z</time>
      </trkpt>
      <trkpt lat="45.570513" lon="7.830828">
        <ele>760.68494</ele>
        <time>2024-10-15T07:25:11.000Z</time>
      </trkpt>
      <trkpt lat="45.570497" lon="7.830847">
        <ele>761.59998</ele>
        <time>2024-10-15T07:25:15.000Z</time>
      </trkpt>
      <trkpt lat="45.570482" lon="7.83087">
        <ele>762.58997</ele>
        <time>2024-10-15T07:25:20.000Z</time>
      </trkpt>
      <trkpt lat="45.570467" lon="7.830892">
        <ele>763.55994</ele>
        <time>2024-10-15T07:25:23.000Z</time>
      </trkpt>
      <trkpt lat="45.57046" lon="7.830923">
        <ele>764.52991</ele>
        <time>2024-10-15T07:25:26.000Z</time>
      </trkpt>
      <trkpt lat="45.570453" lon="7.830948">
        <ele>765.56488</ele>
        <time>2024-10-15T07:25:30.000Z</time>
      </trkpt>
      <trkpt lat="45.570443" lon="7.83097">
        <ele>766.56989</ele>
        <time>2024-10-15T07:25:33.000Z</time>
      </trkpt>
      <trkpt lat="45.570435" lon="7.831002">
        <ele>767.50989</ele>
        <time>2024-10-15T07:25:36.000Z</time>
      </trkpt>
      <trkpt lat="45.57042" lon="7.831028">
        <ele>768.38489</ele>
        <time>2024-10-15T07:25:40.000Z</time>
      </trkpt>
      <trkpt lat="45.57042" lon="7.831057">
        <ele>769.19983</ele>
        <time>2024-10-15T07:25:44.000Z</time>
      </trkpt>
      <trkpt lat="45.570415" lon="7.831083">
        <ele>769.96985</ele>
        <time>2024-10-15T07:25:50.000Z</time>
      </trkpt>
      <trkpt lat="45.570412" lon="7.831113">
        <ele>770.72986</ele>
        <time>2024-10-15T07:25:54.000Z</time>
      </trkpt>
      <trkpt lat="45.570413" lon="7.831143">
        <ele>771.38483</ele>
        <time>2024-10-15T07:25:57.000Z</time>
      </trkpt>
      <trkpt lat="45.570422" lon="7.831168">
        <ele>772.03479</ele>
        <time>2024-10-15T07:26:01.000Z</time>
      </trkpt>
      <trkpt lat="45.570427" lon="7.831203">
        <ele>772.71484</ele>
        <time>2024-10-15T07:26:04.000Z</time>
      </trkpt>
      <trkpt lat="45.570425" lon="7.831233">
        <ele>773.37982</ele>
        <time>2024-10-15T07:26:07.000Z</time>
      </trkpt>
      <trkpt lat="45.570423" lon="7.83126">
        <ele>774.03479</ele>
        <time>2024-10-15T07:26:09.000Z</time>
      </trkpt>
      <trkpt lat="45.57043" lon="7.831295">
        <ele>774.69476</ele>
        <time>2024-10-15T07:26:12.000Z</time>
      </trkpt>
      <trkpt lat="45.570435" lon="7.831327">
        <ele>775.34479</ele>
        <time>2024-10-15T07:26:15.000Z</time>
      </trkpt>
      <trkpt lat="45.570448" lon="7.831357">
        <ele>775.98474</ele>
        <time>2024-10-15T07:26:18.000Z</time>
      </trkpt>
      <trkpt lat="45.570458" lon="7.831378">
        <ele>776.62476</ele>
        <time>2024-10-15T07:26:20.000Z</time>
      </trkpt>
      <trkpt lat="45.570463" lon="7.831405">
        <ele>777.24976</ele>
        <time>2024-10-15T07:26:24.000Z</time>
      </trkpt>
      <trkpt lat="45.570465" lon="7.831443">
        <ele>777.84973</ele>
        <time>2024-10-15T07:26:31.000Z</time>
      </trkpt>
      <trkpt lat="45.570463" lon="7.831475">
        <ele>778.46478</ele>
        <time>2024-10-15T07:26:34.000Z</time>
      </trkpt>
      <trkpt lat="45.570468" lon="7.831512">
        <ele>779.08978</ele>
        <time>2024-10-15T07:26:37.000Z</time>
      </trkpt>
      <trkpt lat="45.57047" lon="7.831538">
        <ele>779.69983</ele>
        <time>2024-10-15T07:26:39.000Z</time>
      </trkpt>
      <trkpt lat="45.570473" lon="7.831567">
        <ele>780.32983</ele>
        <time>2024-10-15T07:26:41.000Z</time>
      </trkpt>
      <trkpt lat="45.570478" lon="7.8316">
        <ele>781.01483</ele>
        <time>2024-10-15T07:26:44.000Z</time>
      </trkpt>
      <trkpt lat="45.570477" lon="7.831627">
        <ele>781.74487</ele>
        <time>2024-10-15T07:26:47.000Z</time>
      </trkpt>
      <trkpt lat="45.570482" lon="7.831658">
        <ele>782.52484</ele>
        <time>2024-10-15T07:26:50.000Z</time>
      </trkpt>
      <trkpt lat="45.570495" lon="7.83168">
        <ele>783.29987</ele>
        <time>2024-10-15T07:26:53.000Z</time>
      </trkpt>
      <trkpt lat="45.57051" lon="7.83171">
        <ele>784.03485</ele>
        <time>2024-10-15T07:26:56.000Z</time>
      </trkpt>
      <trkpt lat="45.570525" lon="7.831728">
        <ele>784.76489</ele>
        <time>2024-10-15T07:26:59.000Z</time>
      </trkpt>
      <trkpt lat="45.570543" lon="7.831752">
        <ele>785.47485</ele>
        <time>2024-10-15T07:27:02.000Z</time>
      </trkpt>
      <trkpt lat="45.57056" lon="7.831773">
        <ele>786.14984</ele>
        <time>2024-10-15T07:27:05.000Z</time>
      </trkpt>
      <trkpt lat="45.570575" lon="7.831802">
        <ele>786.84985</ele>
        <time>2024-10-15T07:27:08.000Z</time>
      </trkpt>
      <trkpt lat="45.57058" lon="7.831832">
        <ele>787.56989</ele>
        <time>2024-10-15T07:27:10.000Z</time>
      </trkpt>
      <trkpt lat="45.57059" lon="7.831865">
        <ele>788.30994</ele>
        <time>2024-10-15T07:27:13.000Z</time>
      </trkpt>
      <trkpt lat="45.570607" lon="7.831893">
        <ele>789.04993</ele>
        <time>2024-10-15T07:27:15.000Z</time>
      </trkpt>
      <trkpt lat="45.5706" lon="7.831932">
        <ele>789.84491</ele>
        <time>2024-10-15T07:27:17.000Z</time>
      </trkpt>
      <trkpt lat="45.570608" lon="7.831958">
        <ele>790.73492</ele>
        <time>2024-10-15T07:27:19.000Z</time>
      </trkpt>
      <trkpt lat="45.570627" lon="7.831983">
        <ele>791.73993</ele>
        <time>2024-10-15T07:27:22.000Z</time>
      </trkpt>
      <trkpt lat="45.570638" lon="7.832008">
        <ele>792.75995</ele>
        <time>2024-10-15T07:27:24.000Z</time>
      </trkpt>
      <trkpt lat="45.570637" lon="7.832035">
        <ele>793.80994</ele>
        <time>2024-10-15T07:27:26.000Z</time>
      </trkpt>
      <trkpt lat="45.57064" lon="7.832067">
        <ele>794.90002</ele>
        <time>2024-10-15T07:27:29.000Z</time>
      </trkpt>
      <trkpt lat="45.570657" lon="7.832082">
        <ele>796.01001</ele>
        <time>2024-10-15T07:27:35.000Z</time>
      </trkpt>
      <trkpt lat="45.57067" lon="7.832147">
        <ele>797.065</ele>
        <time>2024-10-15T07:27:49.000Z</time>
      </trkpt>
      <trkpt lat="45.570682" lon="7.832167">
        <ele>798.10498</ele>
        <time>2024-10-15T07:27:55.000Z</time>
      </trkpt>
      <trkpt lat="45.570693" lon="7.832187">
        <ele>799.19995</ele>
        <time>2024-10-15T07:28:03.000Z</time>
      </trkpt>
      <trkpt lat="45.570703" lon="7.832208">
        <ele>800.27997</ele>
        <time>2024-10-15T07:28:05.000Z</time>
      </trkpt>
      <trkpt lat="45.570805" lon="7.83226">
        <ele>801.245</ele>
        <time>2024-10-15T07:28:21.000Z</time>
      </trkpt>
      <trkpt lat="45.570823" lon="7.832263">
        <ele>802.17493</ele>
        <time>2024-10-15T07:28:24.000Z</time>
      </trkpt>
      <trkpt lat="45.570802" lon="7.832363">
        <ele>803.28992</ele>
        <time>2024-10-15T07:29:20.000Z</time>
      </trkpt>
      <trkpt lat="45.570795" lon="7.832397">
        <ele>804.38</ele>
        <time>2024-10-15T07:29:23.000Z</time>
      </trkpt>
      <trkpt lat="45.570792" lon="7.832437">
        <ele>805.43494</ele>
        <time>2024-10-15T07:29:27.000Z</time>
      </trkpt>
      <trkpt lat="45.570803" lon="7.832458">
        <ele>806.38495</ele>
        <time>2024-10-15T07:29:30.000Z</time>
      </trkpt>
      <trkpt lat="45.570822" lon="7.832475">
        <ele>807.20996</ele>
        <time>2024-10-15T07:29:34.000Z</time>
      </trkpt>
      <trkpt lat="45.57083" lon="7.832498">
        <ele>807.93494</ele>
        <time>2024-10-15T07:29:38.000Z</time>
      </trkpt>
      <trkpt lat="45.570832" lon="7.832527">
        <ele>808.60498</ele>
        <time>2024-10-15T07:29:42.000Z</time>
      </trkpt>
      <trkpt lat="45.57084" lon="7.832553">
        <ele>809.16498</ele>
        <time>2024-10-15T07:29:45.000Z</time>
      </trkpt>
      <trkpt lat="45.570853" lon="7.832575">
        <ele>809.60504</ele>
        <time>2024-10-15T07:29:48.000Z</time>
      </trkpt>
      <trkpt lat="45.570862" lon="7.832605">
        <ele>809.89502</ele>
        <time>2024-10-15T07:29:53.000Z</time>
      </trkpt>
      <trkpt lat="45.570848" lon="7.832632">
        <ele>810.16504</ele>
        <time>2024-10-15T07:30:01.000Z</time>
      </trkpt>
      <trkpt lat="45.570848" lon="7.832667">
        <ele>810.43005</ele>
        <time>2024-10-15T07:30:04.000Z</time>
      </trkpt>
      <trkpt lat="45.570858" lon="7.832707">
        <ele>810.65503</ele>
        <time>2024-10-15T07:30:07.000Z</time>
      </trkpt>
      <trkpt lat="45.570865" lon="7.832737">
        <ele>810.84503</ele>
        <time>2024-10-15T07:30:10.000Z</time>
      </trkpt>
      <trkpt lat="45.570862" lon="7.832772">
        <ele>811.11505</ele>
        <time>2024-10-15T07:30:13.000Z</time>
      </trkpt>
      <trkpt lat="45.570868" lon="7.832798">
        <ele>811.3551</ele>
        <time>2024-10-15T07:30:15.000Z</time>
      </trkpt>
      <trkpt lat="45.570873" lon="7.832828">
        <ele>811.51013</ele>
        <time>2024-10-15T07:30:17.000Z</time>
      </trkpt>
      <trkpt lat="45.570893" lon="7.832842">
        <ele>811.67004</ele>
        <time>2024-10-15T07:30:22.000Z</time>
      </trkpt>
      <trkpt lat="45.570912" lon="7.832852">
        <ele>811.93512</ele>
        <time>2024-10-15T07:30:24.000Z</time>
      </trkpt>
      <trkpt lat="45.570937" lon="7.832858">
        <ele>812.26013</ele>
        <time>2024-10-15T07:30:27.000Z</time>
      </trkpt>
      <trkpt lat="45.570958" lon="7.83285">
        <ele>812.37012</ele>
        <time>2024-10-15T07:30:30.000Z</time>
      </trkpt>
      <trkpt lat="45.57098" lon="7.832833">
        <ele>812.52509</ele>
        <time>2024-10-15T07:30:33.000Z</time>
      </trkpt>
      <trkpt lat="45.571002" lon="7.832827">
        <ele>812.83508</ele>
        <time>2024-10-15T07:30:39.000Z</time>
      </trkpt>
      <trkpt lat="45.571027" lon="7.832815">
        <ele>813.29016</ele>
        <time>2024-10-15T07:30:42.000Z</time>
      </trkpt>
      <trkpt lat="45.571045" lon="7.832822">
        <ele>813.8551</ele>
        <time>2024-10-15T07:30:44.000Z</time>
      </trkpt>
      <trkpt lat="45.57107" lon="7.832838">
        <ele>814.5351</ele>
        <time>2024-10-15T07:30:47.000Z</time>
      </trkpt>
      <trkpt lat="45.571087" lon="7.832867">
        <ele>815.26013</ele>
        <time>2024-10-15T07:30:50.000Z</time>
      </trkpt>
      <trkpt lat="45.571102" lon="7.832892">
        <ele>816.03009</ele>
        <time>2024-10-15T07:30:52.000Z</time>
      </trkpt>
      <trkpt lat="45.571117" lon="7.832917">
        <ele>816.82507</ele>
        <time>2024-10-15T07:30:54.000Z</time>
      </trkpt>
      <trkpt lat="45.571133" lon="7.832933">
        <ele>817.63507</ele>
        <time>2024-10-15T07:30:56.000Z</time>
      </trkpt>
      <trkpt lat="45.571153" lon="7.832947">
        <ele>818.40503</ele>
        <time>2024-10-15T07:30:58.000Z</time>
      </trkpt>
      <trkpt lat="45.571175" lon="7.832967">
        <ele>819.15002</ele>
        <time>2024-10-15T07:31:00.000Z</time>
      </trkpt>
      <trkpt lat="45.571197" lon="7.832988">
        <ele>819.875</ele>
        <time>2024-10-15T07:31:03.000Z</time>
      </trkpt>
      <trkpt lat="45.571213" lon="7.833027">
        <ele>820.57001</ele>
        <time>2024-10-15T07:31:05.000Z</time>
      </trkpt>
      <trkpt lat="45.571223" lon="7.833057">
        <ele>821.24005</ele>
        <time>2024-10-15T07:31:07.000Z</time>
      </trkpt>
      <trkpt lat="45.571237" lon="7.833083">
        <ele>821.90497</ele>
        <time>2024-10-15T07:31:09.000Z</time>
      </trkpt>
      <trkpt lat="45.57125" lon="7.833112">
        <ele>822.55994</ele>
        <time>2024-10-15T07:31:11.000Z</time>
      </trkpt>
      <trkpt lat="45.571267" lon="7.833135">
        <ele>823.17999</ele>
        <time>2024-10-15T07:31:13.000Z</time>
      </trkpt>
      <trkpt lat="45.57128" lon="7.83316">
        <ele>823.76495</ele>
        <time>2024-10-15T07:31:15.000Z</time>
      </trkpt>
      <trkpt lat="45.571295" lon="7.833187">
        <ele>824.33997</ele>
        <time>2024-10-15T07:31:17.000Z</time>
      </trkpt>
      <trkpt lat="45.571308" lon="7.833208">
        <ele>824.95996</ele>
        <time>2024-10-15T07:31:19.000Z</time>
      </trkpt>
      <trkpt lat="45.57132" lon="7.833248">
        <ele>825.54999</ele>
        <time>2024-10-15T07:31:21.000Z</time>
      </trkpt>
      <trkpt lat="45.57133" lon="7.833295">
        <ele>826.0</ele>
        <time>2024-10-15T07:31:23.000Z</time>
      </trkpt>
      <trkpt lat="45.57134" lon="7.833338">
        <ele>826.37</ele>
        <time>2024-10-15T07:31:25.000Z</time>
      </trkpt>
      <trkpt lat="45.571345" lon="7.833365">
        <ele>826.7301</ele>
        <time>2024-10-15T07:31:27.000Z</time>
      </trkpt>
      <trkpt lat="45.571355" lon="7.833387">
        <ele>827.03009</ele>
        <time>2024-10-15T07:31:29.000Z</time>
      </trkpt>
      <trkpt lat="45.571353" lon="7.833413">
        <ele>827.34003</ele>
        <time>2024-10-15T07:31:32.000Z</time>
      </trkpt>
      <trkpt lat="45.571335" lon="7.83341">
        <ele>828.6051</ele>
        <time>2024-10-15T07:32:01.000Z</time>
      </trkpt>
      <trkpt lat="45.571312" lon="7.833405">
        <ele>829.7951</ele>
        <time>2024-10-15T07:32:04.000Z</time>
      </trkpt>
      <trkpt lat="45.571277" lon="7.833407">
        <ele>830.9801</ele>
        <time>2024-10-15T07:32:13.000Z</time>
      </trkpt>
      <trkpt lat="45.571257" lon="7.833417">
        <ele>832.11505</ele>
        <time>2024-10-15T07:32:16.000Z</time>
      </trkpt>
      <trkpt lat="45.571242" lon="7.833442">
        <ele>833.20007</ele>
        <time>2024-10-15T07:32:19.000Z</time>
      </trkpt>
      <trkpt lat="45.571232" lon="7.833467">
        <ele>834.25507</ele>
        <time>2024-10-15T07:32:23.000Z</time>
      </trkpt>
      <trkpt lat="45.571215" lon="7.833493">
        <ele>835.3501</ele>
        <time>2024-10-15T07:32:27.000Z</time>
      </trkpt>
      <trkpt lat="45.571225" lon="7.833525">
        <ele>836.42511</ele>
        <time>2024-10-15T07:32:32.000Z</time>
      </trkpt>
      <trkpt lat="45.571228" lon="7.833555">
        <ele>837.49005</ele>
        <time>2024-10-15T07:32:34.000Z</time>
      </trkpt>
      <trkpt lat="45.571232" lon="7.833583">
        <ele>838.53503</ele>
        <time>2024-10-15T07:32:36.000Z</time>
      </trkpt>
      <trkpt lat="45.571242" lon="7.833613">
        <ele>839.56506</ele>
        <time>2024-10-15T07:32:38.000Z</time>
      </trkpt>
      <trkpt lat="45.57123" lon="7.833648">
        <ele>840.58508</ele>
        <time>2024-10-15T07:32:41.000Z</time>
      </trkpt>
      <trkpt lat="45.571215" lon="7.833675">
        <ele>841.61505</ele>
        <time>2024-10-15T07:32:44.000Z</time>
      </trkpt>
      <trkpt lat="45.571197" lon="7.833693">
        <ele>842.63007</ele>
        <time>2024-10-15T07:32:47.000Z</time>
      </trkpt>
      <trkpt lat="45.5712" lon="7.833723">
        <ele>843.67511</ele>
        <time>2024-10-15T07:32:55.000Z</time>
      </trkpt>
      <trkpt lat="45.571195" lon="7.833752">
        <ele>844.7301</ele>
        <time>2024-10-15T07:32:58.000Z</time>
      </trkpt>
      <trkpt lat="45.571195" lon="7.83378">
        <ele>845.72009</ele>
        <time>2024-10-15T07:33:03.000Z</time>
      </trkpt>
      <trkpt lat="45.571202" lon="7.833813">
        <ele>846.68005</ele>
        <time>2024-10-15T07:33:06.000Z</time>
      </trkpt>
      <trkpt lat="45.571208" lon="7.833842">
        <ele>847.63007</ele>
        <time>2024-10-15T07:33:08.000Z</time>
      </trkpt>
      <trkpt lat="45.571223" lon="7.83386">
        <ele>848.51501</ele>
        <time>2024-10-15T07:33:10.000Z</time>
      </trkpt>
      <trkpt lat="45.571235" lon="7.833887">
        <ele>848.41504</ele>
        <time>2024-10-15T07:33:12.000Z</time>
      </trkpt>
      <trkpt lat="45.571237" lon="7.83392">
        <ele>848.34003</ele>
        <time>2024-10-15T07:33:15.000Z</time>
      </trkpt>
      <trkpt lat="45.571222" lon="7.833935">
        <ele>848.26007</ele>
        <time>2024-10-15T07:33:18.000Z</time>
      </trkpt>
      <trkpt lat="45.571203" lon="7.833948">
        <ele>848.26501</ele>
        <time>2024-10-15T07:33:20.000Z</time>
      </trkpt>
      <trkpt lat="45.571198" lon="7.833978">
        <ele>848.41504</ele>
        <time>2024-10-15T07:33:23.000Z</time>
      </trkpt>
      <trkpt lat="45.571177" lon="7.834003">
        <ele>848.65002</ele>
        <time>2024-10-15T07:33:27.000Z</time>
      </trkpt>
      <trkpt lat="45.571152" lon="7.834022">
        <ele>848.875</ele>
        <time>2024-10-15T07:33:30.000Z</time>
      </trkpt>
      <trkpt lat="45.571123" lon="7.834045">
        <ele>849.14502</ele>
        <time>2024-10-15T07:33:32.000Z</time>
      </trkpt>
      <trkpt lat="45.571095" lon="7.834053">
        <ele>849.44006</ele>
        <time>2024-10-15T07:33:34.000Z</time>
      </trkpt>
      <trkpt lat="45.571072" lon="7.834053">
        <ele>849.82501</ele>
        <time>2024-10-15T07:33:36.000Z</time>
      </trkpt>
      <trkpt lat="45.571052" lon="7.83406">
        <ele>850.22998</ele>
        <time>2024-10-15T07:33:38.000Z</time>
      </trkpt>
      <trkpt lat="45.571032" lon="7.834062">
        <ele>850.67499</ele>
        <time>2024-10-15T07:33:41.000Z</time>
      </trkpt>
      <trkpt lat="45.571012" lon="7.834068">
        <ele>851.10498</ele>
        <time>2024-10-15T07:33:44.000Z</time>
      </trkpt>
      <trkpt lat="45.57099" lon="7.834072">
        <ele>851.56506</ele>
        <time>2024-10-15T07:33:46.000Z</time>
      </trkpt>
      <trkpt lat="45.570958" lon="7.834063">
        <ele>852.02002</ele>
        <time>2024-10-15T07:33:49.000Z</time>
      </trkpt>
      <trkpt lat="45.57094" lon="7.834053">
        <ele>852.46008</ele>
        <time>2024-10-15T07:33:51.000Z</time>
      </trkpt>
      <trkpt lat="45.570922" lon="7.834045">
        <ele>852.96503</ele>
        <time>2024-10-15T07:33:53.000Z</time>
      </trkpt>
      <trkpt lat="45.570907" lon="7.834028">
        <ele>853.49005</ele>
        <time>2024-10-15T07:33:55.000Z</time>
      </trkpt>
      <trkpt lat="45.570885" lon="7.834017">
        <ele>854.0</ele>
        <time>2024-10-15T07:33:57.000Z</time>
      </trkpt>
      <trkpt lat="45.570863" lon="7.834002">
        <ele>854.53497</ele>
        <time>2024-10-15T07:33:59.000Z</time>
      </trkpt>
      <trkpt lat="45.570847" lon="7.833988">
        <ele>855.05994</ele>
        <time>2024-10-15T07:34:02.000Z</time>
      </trkpt>
      <trkpt lat="45.570833" lon="7.834007">
        <ele>855.57501</ele>
        <time>2024-10-15T07:34:06.000Z</time>
      </trkpt>
      <trkpt lat="45.570832" lon="7.834037">
        <ele>856.06506</ele>
        <time>2024-10-15T07:34:09.000Z</time>
      </trkpt>
      <trkpt lat="45.570827" lon="7.834062">
        <ele>856.51501</ele>
        <time>2024-10-15T07:34:11.000Z</time>
      </trkpt>
      <trkpt lat="45.57081" lon="7.834088">
        <ele>856.87</ele>
        <time>2024-10-15T07:34:15.000Z</time>
      </trkpt>
      <trkpt lat="45.570798" lon="7.834113">
        <ele>857.17004</ele>
        <time>2024-10-15T07:34:17.000Z</time>
      </trkpt>
      <trkpt lat="45.570788" lon="7.834137">
        <ele>857.45496</ele>
        <time>2024-10-15T07:34:19.000Z</time>
      </trkpt>
      <trkpt lat="45.570765" lon="7.834143">
        <ele>857.70496</ele>
        <time>2024-10-15T07:34:22.000Z</time>
      </trkpt>
      <trkpt lat="45.570747" lon="7.83415">
        <ele>857.94495</ele>
        <time>2024-10-15T07:34:24.000Z</time>
      </trkpt>
      <trkpt lat="45.570725" lon="7.834163">
        <ele>858.09491</ele>
        <time>2024-10-15T07:34:26.000Z</time>
      </trkpt>
      <trkpt lat="45.570703" lon="7.834177">
        <ele>858.22491</ele>
        <time>2024-10-15T07:34:30.000Z</time>
      </trkpt>
      <trkpt lat="45.570682" lon="7.834193">
        <ele>858.34991</ele>
        <time>2024-10-15T07:34:34.000Z</time>
      </trkpt>
      <trkpt lat="45.570663" lon="7.834202">
        <ele>858.46991</ele>
        <time>2024-10-15T07:34:37.000Z</time>
      </trkpt>
      <trkpt lat="45.570638" lon="7.834205">
        <ele>858.53497</ele>
        <time>2024-10-15T07:34:40.000Z</time>
      </trkpt>
      <trkpt lat="45.57062" lon="7.834208">
        <ele>858.56494</ele>
        <time>2024-10-15T07:34:43.000Z</time>
      </trkpt>
      <trkpt lat="45.570605" lon="7.834227">
        <ele>858.625</ele>
        <time>2024-10-15T07:34:46.000Z</time>
      </trkpt>
      <trkpt lat="45.570587" lon="7.834257">
        <ele>858.75995</ele>
        <time>2024-10-15T07:34:49.000Z</time>
      </trkpt>
      <trkpt lat="45.570562" lon="7.83427">
        <ele>859.03497</ele>
        <time>2024-10-15T07:34:52.000Z</time>
      </trkpt>
      <trkpt lat="45.570545" lon="7.83428">
        <ele>859.3949</ele>
        <time>2024-10-15T07:34:54.000Z</time>
      </trkpt>
      <trkpt lat="45.570527" lon="7.834292">
        <ele>859.83997</ele>
        <time>2024-10-15T07:34:56.000Z</time>
      </trkpt>
      <trkpt lat="45.570508" lon="7.834305">
        <ele>860.3299</ele>
        <time>2024-10-15T07:34:58.000Z</time>
      </trkpt>
      <trkpt lat="45.570488" lon="7.834322">
        <ele>860.90985</ele>
        <time>2024-10-15T07:35:01.000Z</time>
      </trkpt>
      <trkpt lat="45.57047" lon="7.834347">
        <ele>861.5799</ele>
        <time>2024-10-15T07:35:05.000Z</time>
      </trkpt>
      <trkpt lat="45.570462" lon="7.834372">
        <ele>862.29993</ele>
        <time>2024-10-15T07:35:09.000Z</time>
      </trkpt>
      <trkpt lat="45.57045" lon="7.834393">
        <ele>863.02991</ele>
        <time>2024-10-15T07:35:11.000Z</time>
      </trkpt>
      <trkpt lat="45.570437" lon="7.834425">
        <ele>863.81494</ele>
        <time>2024-10-15T07:35:14.000Z</time>
      </trkpt>
      <trkpt lat="45.570427" lon="7.834453">
        <ele>864.61493</ele>
        <time>2024-10-15T07:35:16.000Z</time>
      </trkpt>
      <trkpt lat="45.570415" lon="7.834477">
        <ele>865.44989</ele>
        <time>2024-10-15T07:35:18.000Z</time>
      </trkpt>
      <trkpt lat="45.570407" lon="7.8345">
        <ele>866.31995</ele>
        <time>2024-10-15T07:35:20.000Z</time>
      </trkpt>
      <trkpt lat="45.570397" lon="7.834532">
        <ele>867.26495</ele>
        <time>2024-10-15T07:35:24.000Z</time>
      </trkpt>
      <trkpt lat="45.570382" lon="7.834552">
        <ele>868.38489</ele>
        <time>2024-10-15T07:35:33.000Z</time>
      </trkpt>
      <trkpt lat="45.570372" lon="7.834575">
        <ele>869.46484</ele>
        <time>2024-10-15T07:35:37.000Z</time>
      </trkpt>
      <trkpt lat="45.570348" lon="7.83459">
        <ele>870.52991</ele>
        <time>2024-10-15T07:35:40.000Z</time>
      </trkpt>
      <trkpt lat="45.570327" lon="7.8346">
        <ele>871.62988</ele>
        <time>2024-10-15T07:35:43.000Z</time>
      </trkpt>
      <trkpt lat="45.570305" lon="7.83462">
        <ele>872.72491</ele>
        <time>2024-10-15T07:35:46.000Z</time>
      </trkpt>
      <trkpt lat="45.57029" lon="7.834635">
        <ele>873.79993</ele>
        <time>2024-10-15T07:35:48.000Z</time>
      </trkpt>
      <trkpt lat="45.570267" lon="7.834648">
        <ele>874.79993</ele>
        <time>2024-10-15T07:35:50.000Z</time>
      </trkpt>
      <trkpt lat="45.570242" lon="7.834668">
        <ele>875.66492</ele>
        <time>2024-10-15T07:35:53.000Z</time>
      </trkpt>
      <trkpt lat="45.570218" lon="7.834685">
        <ele>876.45996</ele>
        <time>2024-10-15T07:35:57.000Z</time>
      </trkpt>
      <trkpt lat="45.5702" lon="7.834703">
        <ele>877.18994</ele>
        <time>2024-10-15T07:36:00.000Z</time>
      </trkpt>
      <trkpt lat="45.570178" lon="7.834715">
        <ele>877.92004</ele>
        <time>2024-10-15T07:36:03.000Z</time>
      </trkpt>
      <trkpt lat="45.570153" lon="7.834722">
        <ele>878.66003</ele>
        <time>2024-10-15T07:36:06.000Z</time>
      </trkpt>
      <trkpt lat="45.57013" lon="7.834733">
        <ele>879.34015</ele>
        <time>2024-10-15T07:36:09.000Z</time>
      </trkpt>
      <trkpt lat="45.570105" lon="7.834748">
        <ele>879.94012</ele>
        <time>2024-10-15T07:36:11.000Z</time>
      </trkpt>
      <trkpt lat="45.570083" lon="7.834768">
        <ele>880.4751</ele>
        <time>2024-10-15T07:36:13.000Z</time>
      </trkpt>
      <trkpt lat="45.57007" lon="7.83479">
        <ele>880.92511</ele>
        <time>2024-10-15T07:36:15.000Z</time>
      </trkpt>
      <trkpt lat="45.57006" lon="7.834815">
        <ele>881.28516</ele>
        <time>2024-10-15T07:36:17.000Z</time>
      </trkpt>
      <trkpt lat="45.570043" lon="7.834838">
        <ele>881.54022</ele>
        <time>2024-10-15T07:36:20.000Z</time>
      </trkpt>
      <trkpt lat="45.570032" lon="7.834863">
        <ele>881.75525</ele>
        <time>2024-10-15T07:36:22.000Z</time>
      </trkpt>
      <trkpt lat="45.57003" lon="7.83489">
        <ele>881.86523</ele>
        <time>2024-10-15T07:36:24.000Z</time>
      </trkpt>
      <trkpt lat="45.570025" lon="7.83492">
        <ele>881.75031</ele>
        <time>2024-10-15T07:36:26.000Z</time>
      </trkpt>
      <trkpt lat="45.570017" lon="7.834955">
        <ele>881.56531</ele>
        <time>2024-10-15T07:36:30.000Z</time>
      </trkpt>
      <trkpt lat="45.570003" lon="7.83499">
        <ele>881.39532</ele>
        <time>2024-10-15T07:36:33.000Z</time>
      </trkpt>
      <trkpt lat="45.569997" lon="7.835023">
        <ele>881.19031</ele>
        <time>2024-10-15T07:36:36.000Z</time>
      </trkpt>
      <trkpt lat="45.569987" lon="7.835048">
        <ele>881.0553</ele>
        <time>2024-10-15T07:36:39.000Z</time>
      </trkpt>
      <trkpt lat="45.56998" lon="7.835073">
        <ele>880.97522</ele>
        <time>2024-10-15T07:36:43.000Z</time>
      </trkpt>
      <trkpt lat="45.569975" lon="7.835107">
        <ele>880.9502</ele>
        <time>2024-10-15T07:36:47.000Z</time>
      </trkpt>
      <trkpt lat="45.56997" lon="7.835138">
        <ele>880.98517</ele>
        <time>2024-10-15T07:36:51.000Z</time>
      </trkpt>
      <trkpt lat="45.56996" lon="7.83516">
        <ele>881.08514</ele>
        <time>2024-10-15T07:36:55.000Z</time>
      </trkpt>
      <trkpt lat="45.569952" lon="7.83519">
        <ele>881.2052</ele>
        <time>2024-10-15T07:36:59.000Z</time>
      </trkpt>
      <trkpt lat="45.56994" lon="7.835218">
        <ele>881.32013</ele>
        <time>2024-10-15T07:37:02.000Z</time>
      </trkpt>
      <trkpt lat="45.569928" lon="7.835245">
        <ele>881.38507</ele>
        <time>2024-10-15T07:37:06.000Z</time>
      </trkpt>
      <trkpt lat="45.56991" lon="7.835248">
        <ele>881.48505</ele>
        <time>2024-10-15T07:37:11.000Z</time>
      </trkpt>
      <trkpt lat="45.569912" lon="7.835282">
        <ele>881.6051</ele>
        <time>2024-10-15T07:37:15.000Z</time>
      </trkpt>
      <trkpt lat="45.569918" lon="7.835313">
        <ele>881.77014</ele>
        <time>2024-10-15T07:37:18.000Z</time>
      </trkpt>
      <trkpt lat="45.569918" lon="7.83535">
        <ele>881.97009</ele>
        <time>2024-10-15T07:37:21.000Z</time>
      </trkpt>
      <trkpt lat="45.569922" lon="7.835382">
        <ele>882.24011</ele>
        <time>2024-10-15T07:37:24.000Z</time>
      </trkpt>
      <trkpt lat="45.569918" lon="7.835408">
        <ele>882.58008</ele>
        <time>2024-10-15T07:37:27.000Z</time>
      </trkpt>
      <trkpt lat="45.569918" lon="7.835443">
        <ele>882.93005</ele>
        <time>2024-10-15T07:37:30.000Z</time>
      </trkpt>
      <trkpt lat="45.569933" lon="7.835463">
        <ele>883.47009</ele>
        <time>2024-10-15T07:37:49.000Z</time>
      </trkpt>
      <trkpt lat="45.569938" lon="7.835488">
        <ele>884.05505</ele>
        <time>2024-10-15T07:37:52.000Z</time>
      </trkpt>
      <trkpt lat="45.569942" lon="7.835515">
        <ele>884.72498</ele>
        <time>2024-10-15T07:37:55.000Z</time>
      </trkpt>
      <trkpt lat="45.569942" lon="7.835548">
        <ele>885.375</ele>
        <time>2024-10-15T07:37:58.000Z</time>
      </trkpt>
      <trkpt lat="45.56994" lon="7.835578">
        <ele>886.07501</ele>
        <time>2024-10-15T07:38:02.000Z</time>
      </trkpt>
      <trkpt lat="45.569943" lon="7.835608">
        <ele>886.77502</ele>
        <time>2024-10-15T07:38:06.000Z</time>
      </trkpt>
      <trkpt lat="45.569945" lon="7.835635">
        <ele>887.5</ele>
        <time>2024-10-15T07:38:10.000Z</time>
      </trkpt>
      <trkpt lat="45.569945" lon="7.835667">
        <ele>888.27997</ele>
        <time>2024-10-15T07:38:14.000Z</time>
      </trkpt>
      <trkpt lat="45.569942" lon="7.835693">
        <ele>889.18506</ele>
        <time>2024-10-15T07:38:20.000Z</time>
      </trkpt>
      <trkpt lat="45.569947" lon="7.835733">
        <ele>890.20496</ele>
        <time>2024-10-15T07:38:28.000Z</time>
      </trkpt>
      <trkpt lat="45.56995" lon="7.835765">
        <ele>891.25995</ele>
        <time>2024-10-15T07:38:31.000Z</time>
      </trkpt>
      <trkpt lat="45.569948" lon="7.835795">
        <ele>892.34503</ele>
        <time>2024-10-15T07:38:34.000Z</time>
      </trkpt>
      <trkpt lat="45.569953" lon="7.835827">
        <ele>893.56006</ele>
        <time>2024-10-15T07:38:40.000Z</time>
      </trkpt>
      <trkpt lat="45.569967" lon="7.835903">
        <ele>894.79004</ele>
        <time>2024-10-15T07:38:50.000Z</time>
      </trkpt>
      <trkpt lat="45.569975" lon="7.835928">
        <ele>895.995</ele>
        <time>2024-10-15T07:38:53.000Z</time>
      </trkpt>
      <trkpt lat="45.569993" lon="7.835957">
        <ele>897.19501</ele>
        <time>2024-10-15T07:38:56.000Z</time>
      </trkpt>
      <trkpt lat="45.570005" lon="7.835982">
        <ele>898.38495</ele>
        <time>2024-10-15T07:38:59.000Z</time>
      </trkpt>
      <trkpt lat="45.57001" lon="7.836007">
        <ele>899.56494</ele>
        <time>2024-10-15T07:39:02.000Z</time>
      </trkpt>
      <trkpt lat="45.570018" lon="7.83603">
        <ele>900.70496</ele>
        <time>2024-10-15T07:39:05.000Z</time>
      </trkpt>
      <trkpt lat="45.57003" lon="7.836055">
        <ele>901.81995</ele>
        <time>2024-10-15T07:39:08.000Z</time>
      </trkpt>
      <trkpt lat="45.570045" lon="7.836078">
        <ele>902.78986</ele>
        <time>2024-10-15T07:39:12.000Z</time>
      </trkpt>
      <trkpt lat="45.570057" lon="7.8361">
        <ele>903.76483</ele>
        <time>2024-10-15T07:39:14.000Z</time>
      </trkpt>
      <trkpt lat="45.570072" lon="7.836122">
        <ele>904.7049</ele>
        <time>2024-10-15T07:39:16.000Z</time>
      </trkpt>
      <trkpt lat="45.570092" lon="7.836145">
        <ele>905.60986</ele>
        <time>2024-10-15T07:39:19.000Z</time>
      </trkpt>
      <trkpt lat="45.570108" lon="7.836157">
        <ele>906.43488</ele>
        <time>2024-10-15T07:39:21.000Z</time>
      </trkpt>
      <trkpt lat="45.570128" lon="7.83617">
        <ele>907.2049</ele>
        <time>2024-10-15T07:39:24.000Z</time>
      </trkpt>
      <trkpt lat="45.570145" lon="7.836193">
        <ele>907.92987</ele>
        <time>2024-10-15T07:39:28.000Z</time>
      </trkpt>
      <trkpt lat="45.57016" lon="7.836217">
        <ele>908.58484</ele>
        <time>2024-10-15T07:39:30.000Z</time>
      </trkpt>
      <trkpt lat="45.570178" lon="7.836242">
        <ele>909.09979</ele>
        <time>2024-10-15T07:39:33.000Z</time>
      </trkpt>
      <trkpt lat="45.570197" lon="7.836265">
        <ele>909.47479</ele>
        <time>2024-10-15T07:39:36.000Z</time>
      </trkpt>
      <trkpt lat="45.570213" lon="7.836278">
        <ele>909.89484</ele>
        <time>2024-10-15T07:39:41.000Z</time>
      </trkpt>
      <trkpt lat="45.570232" lon="7.836282">
        <ele>910.35974</ele>
        <time>2024-10-15T07:39:46.000Z</time>
      </trkpt>
      <trkpt lat="45.570253" lon="7.836282">
        <ele>910.75476</ele>
        <time>2024-10-15T07:39:50.000Z</time>
      </trkpt>
      <trkpt lat="45.57027" lon="7.836302">
        <ele>911.09473</ele>
        <time>2024-10-15T07:39:53.000Z</time>
      </trkpt>
      <trkpt lat="45.570282" lon="7.836327">
        <ele>911.45471</ele>
        <time>2024-10-15T07:39:55.000Z</time>
      </trkpt>
      <trkpt lat="45.570297" lon="7.836342">
        <ele>911.81464</ele>
        <time>2024-10-15T07:39:57.000Z</time>
      </trkpt>
      <trkpt lat="45.57031" lon="7.83637">
        <ele>912.16467</ele>
        <time>2024-10-15T07:39:59.000Z</time>
      </trkpt>
      <trkpt lat="45.570315" lon="7.836395">
        <ele>912.50458</ele>
        <time>2024-10-15T07:40:01.000Z</time>
      </trkpt>
      <trkpt lat="45.570317" lon="7.836425">
        <ele>912.86951</ele>
        <time>2024-10-15T07:40:04.000Z</time>
      </trkpt>
      <trkpt lat="45.570315" lon="7.836457">
        <ele>913.2796</ele>
        <time>2024-10-15T07:40:08.000Z</time>
      </trkpt>
      <trkpt lat="45.570317" lon="7.83649">
        <ele>913.72961</ele>
        <time>2024-10-15T07:40:12.000Z</time>
      </trkpt>
      <trkpt lat="45.570328" lon="7.836517">
        <ele>914.19464</ele>
        <time>2024-10-15T07:40:15.000Z</time>
      </trkpt>
      <trkpt lat="45.570335" lon="7.836542">
        <ele>914.71466</ele>
        <time>2024-10-15T07:40:17.000Z</time>
      </trkpt>
      <trkpt lat="45.570345" lon="7.836567">
        <ele>915.29474</ele>
        <time>2024-10-15T07:40:19.000Z</time>
      </trkpt>
      <trkpt lat="45.570355" lon="7.8366">
        <ele>915.93475</ele>
        <time>2024-10-15T07:40:23.000Z</time>
      </trkpt>
      <trkpt lat="45.57036" lon="7.836632">
        <ele>916.60974</ele>
        <time>2024-10-15T07:40:27.000Z</time>
      </trkpt>
      <trkpt lat="45.570368" lon="7.836658">
        <ele>917.30975</ele>
        <time>2024-10-15T07:40:30.000Z</time>
      </trkpt>
      <trkpt lat="45.570375" lon="7.836683">
        <ele>918.02979</ele>
        <time>2024-10-15T07:40:33.000Z</time>
      </trkpt>
      <trkpt lat="45.570388" lon="7.836703">
        <ele>918.71985</ele>
        <time>2024-10-15T07:40:36.000Z</time>
      </trkpt>
      <trkpt lat="45.570407" lon="7.836718">
        <ele>919.43488</ele>
        <time>2024-10-15T07:40:39.000Z</time>
      </trkpt>
      <trkpt lat="45.570423" lon="7.836732">
        <ele>920.09991</ele>
        <time>2024-10-15T07:40:42.000Z</time>
      </trkpt>
      <trkpt lat="45.570427" lon="7.83677">
        <ele>920.70996</ele>
        <time>2024-10-15T07:40:45.000Z</time>
      </trkpt>
      <trkpt lat="45.570442" lon="7.836802">
        <ele>921.2699</ele>
        <time>2024-10-15T07:40:47.000Z</time>
      </trkpt>
      <trkpt lat="45.570453" lon="7.83683">
        <ele>921.82501</ele>
        <time>2024-10-15T07:40:58.000Z</time>
      </trkpt>
      <trkpt lat="45.570423" lon="7.836812">
        <ele>922.21008</ele>
        <time>2024-10-15T07:41:41.000Z</time>
      </trkpt>
      <trkpt lat="45.57046" lon="7.83682">
        <ele>922.71008</ele>
        <time>2024-10-15T07:41:52.000Z</time>
      </trkpt>
      <trkpt lat="45.570485" lon="7.836847">
        <ele>923.22009</ele>
        <time>2024-10-15T07:41:55.000Z</time>
      </trkpt>
      <trkpt lat="45.570498" lon="7.836865">
        <ele>923.71515</ele>
        <time>2024-10-15T07:41:57.000Z</time>
      </trkpt>
      <trkpt lat="45.570517" lon="7.836898">
        <ele>924.2002</ele>
        <time>2024-10-15T07:41:59.000Z</time>
      </trkpt>
      <trkpt lat="45.570527" lon="7.836928">
        <ele>924.64014</ele>
        <time>2024-10-15T07:42:01.000Z</time>
      </trkpt>
      <trkpt lat="45.570535" lon="7.836962">
        <ele>925.04016</ele>
        <time>2024-10-15T07:42:03.000Z</time>
      </trkpt>
      <trkpt lat="45.570543" lon="7.836993">
        <ele>925.41516</ele>
        <time>2024-10-15T07:42:05.000Z</time>
      </trkpt>
      <trkpt lat="45.57054" lon="7.837022">
        <ele>925.78516</ele>
        <time>2024-10-15T07:42:09.000Z</time>
      </trkpt>
      <trkpt lat="45.570555" lon="7.837048">
        <ele>926.18518</ele>
        <time>2024-10-15T07:42:17.000Z</time>
      </trkpt>
      <trkpt lat="45.57056" lon="7.83708">
        <ele>926.56018</ele>
        <time>2024-10-15T07:42:20.000Z</time>
      </trkpt>
      <trkpt lat="45.570577" lon="7.837115">
        <ele>926.90515</ele>
        <time>2024-10-15T07:42:22.000Z</time>
      </trkpt>
      <trkpt lat="45.570593" lon="7.83714">
        <ele>927.22021</ele>
        <time>2024-10-15T07:42:24.000Z</time>
      </trkpt>
      <trkpt lat="45.570602" lon="7.837163">
        <ele>927.44025</ele>
        <time>2024-10-15T07:42:27.000Z</time>
      </trkpt>
      <trkpt lat="45.570627" lon="7.837185">
        <ele>927.78015</ele>
        <time>2024-10-15T07:42:41.000Z</time>
      </trkpt>
      <trkpt lat="45.570617" lon="7.837162">
        <ele>928.15515</ele>
        <time>2024-10-15T07:42:44.000Z</time>
      </trkpt>
      <trkpt lat="45.570597" lon="7.837135">
        <ele>928.53516</ele>
        <time>2024-10-15T07:42:46.000Z</time>
      </trkpt>
      <trkpt lat="45.570585" lon="7.837115">
        <ele>928.95508</ele>
        <time>2024-10-15T07:42:48.000Z</time>
      </trkpt>
      <trkpt lat="45.57058" lon="7.837088">
        <ele>929.4201</ele>
        <time>2024-10-15T07:42:51.000Z</time>
      </trkpt>
      <trkpt lat="45.57061" lon="7.837105">
        <ele>929.94513</ele>
        <time>2024-10-15T07:42:56.000Z</time>
      </trkpt>
      <trkpt lat="45.57062" lon="7.837128">
        <ele>930.64014</ele>
        <time>2024-10-15T07:42:59.000Z</time>
      </trkpt>
      <trkpt lat="45.570652" lon="7.83712">
        <ele>931.15515</ele>
        <time>2024-10-15T07:43:15.000Z</time>
      </trkpt>
      <trkpt lat="45.570663" lon="7.837097">
        <ele>931.65515</ele>
        <time>2024-10-15T07:43:17.000Z</time>
      </trkpt>
      <trkpt lat="45.57067" lon="7.837065">
        <ele>932.16522</ele>
        <time>2024-10-15T07:43:19.000Z</time>
      </trkpt>
      <trkpt lat="45.570668" lon="7.837037">
        <ele>932.69519</ele>
        <time>2024-10-15T07:43:21.000Z</time>
      </trkpt>
      <trkpt lat="45.570673" lon="7.837005">
        <ele>933.24023</ele>
        <time>2024-10-15T07:43:24.000Z</time>
      </trkpt>
      <trkpt lat="45.57069" lon="7.837023">
        <ele>933.81024</ele>
        <time>2024-10-15T07:43:29.000Z</time>
      </trkpt>
      <trkpt lat="45.570708" lon="7.837058">
        <ele>934.43524</ele>
        <time>2024-10-15T07:43:32.000Z</time>
      </trkpt>
      <trkpt lat="45.570722" lon="7.837093">
        <ele>935.08527</ele>
        <time>2024-10-15T07:43:36.000Z</time>
      </trkpt>
      <trkpt lat="45.570728" lon="7.837125">
        <ele>935.71027</ele>
        <time>2024-10-15T07:43:38.000Z</time>
      </trkpt>
      <trkpt lat="45.570737" lon="7.837155">
        <ele>936.40515</ele>
        <time>2024-10-15T07:43:41.000Z</time>
      </trkpt>
      <trkpt lat="45.570753" lon="7.837173">
        <ele>937.12518</ele>
        <time>2024-10-15T07:43:44.000Z</time>
      </trkpt>
      <trkpt lat="45.570752" lon="7.837208">
        <ele>937.91016</ele>
        <time>2024-10-15T07:43:49.000Z</time>
      </trkpt>
      <trkpt lat="45.57076" lon="7.837235">
        <ele>938.75519</ele>
        <time>2024-10-15T07:43:52.000Z</time>
      </trkpt>
      <trkpt lat="45.570752" lon="7.837328">
        <ele>939.59021</ele>
        <time>2024-10-15T07:44:03.000Z</time>
      </trkpt>
      <trkpt lat="45.570745" lon="7.837355">
        <ele>940.36023</ele>
        <time>2024-10-15T07:44:06.000Z</time>
      </trkpt>
      <trkpt lat="45.570743" lon="7.837388">
        <ele>941.11023</ele>
        <time>2024-10-15T07:44:08.000Z</time>
      </trkpt>
      <trkpt lat="45.570738" lon="7.837425">
        <ele>941.84534</ele>
        <time>2024-10-15T07:44:12.000Z</time>
      </trkpt>
      <trkpt lat="45.57073" lon="7.837453">
        <ele>942.54529</ele>
        <time>2024-10-15T07:44:15.000Z</time>
      </trkpt>
      <trkpt lat="45.57073" lon="7.837487">
        <ele>943.22034</ele>
        <time>2024-10-15T07:44:18.000Z</time>
      </trkpt>
      <trkpt lat="45.570735" lon="7.837518">
        <ele>943.98523</ele>
        <time>2024-10-15T07:44:23.000Z</time>
      </trkpt>
      <trkpt lat="45.570722" lon="7.837495">
        <ele>944.90527</ele>
        <time>2024-10-15T07:44:28.000Z</time>
      </trkpt>
      <trkpt lat="45.57072" lon="7.837468">
        <ele>945.92023</ele>
        <time>2024-10-15T07:44:32.000Z</time>
      </trkpt>
      <trkpt lat="45.570745" lon="7.837477">
        <ele>947.2052</ele>
        <time>2024-10-15T07:45:26.000Z</time>
      </trkpt>
      <trkpt lat="45.570752" lon="7.837435">
        <ele>948.47522</ele>
        <time>2024-10-15T07:45:28.000Z</time>
      </trkpt>
      <trkpt lat="45.570763" lon="7.837413">
        <ele>949.72522</ele>
        <time>2024-10-15T07:45:30.000Z</time>
      </trkpt>
      <trkpt lat="45.570788" lon="7.83741">
        <ele>950.9502</ele>
        <time>2024-10-15T07:45:33.000Z</time>
      </trkpt>
      <trkpt lat="45.570805" lon="7.837387">
        <ele>952.13019</ele>
        <time>2024-10-15T07:45:36.000Z</time>
      </trkpt>
      <trkpt lat="45.570823" lon="7.837365">
        <ele>953.24512</ele>
        <time>2024-10-15T07:45:39.000Z</time>
      </trkpt>
      <trkpt lat="45.57084" lon="7.837353">
        <ele>954.32013</ele>
        <time>2024-10-15T07:45:41.000Z</time>
      </trkpt>
      <trkpt lat="45.570855" lon="7.837338">
        <ele>955.31018</ele>
        <time>2024-10-15T07:45:42.999Z</time>
      </trkpt>
      <trkpt lat="45.570873" lon="7.837322">
        <ele>956.24512</ele>
        <time>2024-10-15T07:45:45.000Z</time>
      </trkpt>
      <trkpt lat="45.570892" lon="7.837293">
        <ele>957.0802</ele>
        <time>2024-10-15T07:45:48.000Z</time>
      </trkpt>
      <trkpt lat="45.570912" lon="7.837278">
        <ele>957.87012</ele>
        <time>2024-10-15T07:45:50.000Z</time>
      </trkpt>
      <trkpt lat="45.570932" lon="7.837285">
        <ele>958.51514</ele>
        <time>2024-10-15T07:45:53.000Z</time>
      </trkpt>
      <trkpt lat="45.570955" lon="7.837272">
        <ele>959.15009</ele>
        <time>2024-10-15T07:45:57.000Z</time>
      </trkpt>
      <trkpt lat="45.57098" lon="7.837263">
        <ele>959.7301</ele>
        <time>2024-10-15T07:46:00.000Z</time>
      </trkpt>
      <trkpt lat="45.570993" lon="7.837235">
        <ele>960.245</ele>
        <time>2024-10-15T07:46:03.000Z</time>
      </trkpt>
      <trkpt lat="45.571012" lon="7.837223">
        <ele>960.70496</ele>
        <time>2024-10-15T07:46:05.000Z</time>
      </trkpt>
      <trkpt lat="45.571032" lon="7.837215">
        <ele>961.16492</ele>
        <time>2024-10-15T07:46:07.000Z</time>
      </trkpt>
      <trkpt lat="45.571052" lon="7.8372">
        <ele>961.53992</ele>
        <time>2024-10-15T07:46:09.000Z</time>
      </trkpt>
      <trkpt lat="45.57107" lon="7.837185">
        <ele>961.81995</ele>
        <time>2024-10-15T07:46:12.000Z</time>
      </trkpt>
      <trkpt lat="45.571085" lon="7.837165">
        <ele>962.02997</ele>
        <time>2024-10-15T07:46:15.000Z</time>
      </trkpt>
      <trkpt lat="45.571092" lon="7.837135">
        <ele>961.97998</ele>
        <time>2024-10-15T07:46:19.000Z</time>
      </trkpt>
      <trkpt lat="45.5711" lon="7.837112">
        <ele>961.94495</ele>
        <time>2024-10-15T07:46:21.000Z</time>
      </trkpt>
      <trkpt lat="45.571122" lon="7.837092">
        <ele>961.92999</ele>
        <time>2024-10-15T07:46:24.000Z</time>
      </trkpt>
      <trkpt lat="45.571147" lon="7.837092">
        <ele>961.90997</ele>
        <time>2024-10-15T07:46:26.000Z</time>
      </trkpt>
      <trkpt lat="45.57117" lon="7.83709">
        <ele>961.8949</ele>
        <time>2024-10-15T07:46:28.000Z</time>
      </trkpt>
      <trkpt lat="45.571188" lon="7.837078">
        <ele>961.91992</ele>
        <time>2024-10-15T07:46:30.000Z</time>
      </trkpt>
      <trkpt lat="45.571213" lon="7.837097">
        <ele>961.93488</ele>
        <time>2024-10-15T07:46:33.000Z</time>
      </trkpt>
      <trkpt lat="45.571233" lon="7.837092">
        <ele>961.98486</ele>
        <time>2024-10-15T07:46:35.000Z</time>
      </trkpt>
      <trkpt lat="45.571252" lon="7.837072">
        <ele>962.0799</ele>
        <time>2024-10-15T07:46:37.000Z</time>
      </trkpt>
      <trkpt lat="45.571272" lon="7.837062">
        <ele>962.17987</ele>
        <time>2024-10-15T07:46:39.000Z</time>
      </trkpt>
      <trkpt lat="45.571293" lon="7.837057">
        <ele>962.28992</ele>
        <time>2024-10-15T07:46:41.000Z</time>
      </trkpt>
      <trkpt lat="45.571312" lon="7.83704">
        <ele>962.44989</ele>
        <time>2024-10-15T07:46:45.000Z</time>
      </trkpt>
      <trkpt lat="45.571328" lon="7.83703">
        <ele>962.63495</ele>
        <time>2024-10-15T07:46:47.000Z</time>
      </trkpt>
      <trkpt lat="45.57135" lon="7.837023">
        <ele>962.82501</ele>
        <time>2024-10-15T07:46:49.000Z</time>
      </trkpt>
      <trkpt lat="45.571377" lon="7.837038">
        <ele>963.03503</ele>
        <time>2024-10-15T07:46:52.000Z</time>
      </trkpt>
      <trkpt lat="45.571403" lon="7.83704">
        <ele>963.26007</ele>
        <time>2024-10-15T07:46:54.000Z</time>
      </trkpt>
      <trkpt lat="45.571422" lon="7.837028">
        <ele>963.4801</ele>
        <time>2024-10-15T07:46:56.000Z</time>
      </trkpt>
      <trkpt lat="45.571448" lon="7.837033">
        <ele>963.77014</ele>
        <time>2024-10-15T07:46:58.000Z</time>
      </trkpt>
      <trkpt lat="45.571475" lon="7.837035">
        <ele>964.11511</ele>
        <time>2024-10-15T07:47:00.000Z</time>
      </trkpt>
      <trkpt lat="45.571505" lon="7.837048">
        <ele>964.46515</ele>
        <time>2024-10-15T07:47:02.000Z</time>
      </trkpt>
      <trkpt lat="45.57152" lon="7.837033">
        <ele>964.84015</ele>
        <time>2024-10-15T07:47:04.000Z</time>
      </trkpt>
      <trkpt lat="45.571538" lon="7.837028">
        <ele>965.16516</ele>
        <time>2024-10-15T07:47:15.000Z</time>
      </trkpt>
      <trkpt lat="45.57152" lon="7.837028">
        <ele>965.73505</ele>
        <time>2024-10-15T07:47:22.000Z</time>
      </trkpt>
      <trkpt lat="45.571543" lon="7.836998">
        <ele>966.70508</ele>
        <time>2024-10-15T07:47:48.000Z</time>
      </trkpt>
      <trkpt lat="45.57157" lon="7.836993">
        <ele>967.65009</ele>
        <time>2024-10-15T07:47:51.000Z</time>
      </trkpt>
      <trkpt lat="45.571593" lon="7.836993">
        <ele>968.56018</ele>
        <time>2024-10-15T07:47:53.000Z</time>
      </trkpt>
      <trkpt lat="45.571617" lon="7.836995">
        <ele>969.47522</ele>
        <time>2024-10-15T07:47:55.000Z</time>
      </trkpt>
      <trkpt lat="45.571637" lon="7.837023">
        <ele>970.34021</ele>
        <time>2024-10-15T07:47:57.000Z</time>
      </trkpt>
      <trkpt lat="45.571662" lon="7.83704">
        <ele>971.1452</ele>
        <time>2024-10-15T07:47:59.000Z</time>
      </trkpt>
      <trkpt lat="45.571682" lon="7.837052">
        <ele>971.90515</ele>
        <time>2024-10-15T07:48:01.000Z</time>
      </trkpt>
      <trkpt lat="45.571712" lon="7.837072">
        <ele>972.6001</ele>
        <time>2024-10-15T07:48:04.000Z</time>
      </trkpt>
      <trkpt lat="45.571738" lon="7.837097">
        <ele>973.22009</ele>
        <time>2024-10-15T07:48:06.000Z</time>
      </trkpt>
      <trkpt lat="45.571758" lon="7.837118">
        <ele>973.78009</ele>
        <time>2024-10-15T07:48:08.000Z</time>
      </trkpt>
      <trkpt lat="45.571775" lon="7.837137">
        <ele>974.31006</ele>
        <time>2024-10-15T07:48:10.000Z</time>
      </trkpt>
      <trkpt lat="45.571793" lon="7.837162">
        <ele>974.76501</ele>
        <time>2024-10-15T07:48:12.000Z</time>
      </trkpt>
      <trkpt lat="45.571815" lon="7.837185">
        <ele>975.17499</ele>
        <time>2024-10-15T07:48:15.000Z</time>
      </trkpt>
      <trkpt lat="45.571845" lon="7.837192">
        <ele>975.45001</ele>
        <time>2024-10-15T07:48:18.000Z</time>
      </trkpt>
      <trkpt lat="45.571873" lon="7.837195">
        <ele>975.59998</ele>
        <time>2024-10-15T07:48:21.000Z</time>
      </trkpt>
      <trkpt lat="45.571888" lon="7.837215">
        <ele>975.71497</ele>
        <time>2024-10-15T07:48:24.000Z</time>
      </trkpt>
      <trkpt lat="45.571905" lon="7.837227">
        <ele>975.78497</ele>
        <time>2024-10-15T07:48:27.000Z</time>
      </trkpt>
      <trkpt lat="45.571932" lon="7.837233">
        <ele>975.79999</ele>
        <time>2024-10-15T07:48:30.000Z</time>
      </trkpt>
      <trkpt lat="45.571948" lon="7.837247">
        <ele>975.82001</ele>
        <time>2024-10-15T07:48:32.000Z</time>
      </trkpt>
      <trkpt lat="45.571965" lon="7.837262">
        <ele>975.56006</ele>
        <time>2024-10-15T07:48:34.000Z</time>
      </trkpt>
      <trkpt lat="45.571982" lon="7.837283">
        <ele>974.89001</ele>
        <time>2024-10-15T07:48:37.000Z</time>
      </trkpt>
      <trkpt lat="45.571993" lon="7.83731">
        <ele>974.2301</ele>
        <time>2024-10-15T07:48:39.000Z</time>
      </trkpt>
      <trkpt lat="45.572008" lon="7.837337">
        <ele>973.54999</ele>
        <time>2024-10-15T07:48:41.000Z</time>
      </trkpt>
      <trkpt lat="45.57202" lon="7.837372">
        <ele>972.88995</ele>
        <time>2024-10-15T07:48:44.000Z</time>
      </trkpt>
      <trkpt lat="45.57202" lon="7.837403">
        <ele>972.25989</ele>
        <time>2024-10-15T07:48:46.000Z</time>
      </trkpt>
      <trkpt lat="45.572018" lon="7.837435">
        <ele>971.70984</ele>
        <time>2024-10-15T07:48:49.000Z</time>
      </trkpt>
      <trkpt lat="45.572018" lon="7.837475">
        <ele>971.23987</ele>
        <time>2024-10-15T07:48:52.000Z</time>
      </trkpt>
      <trkpt lat="45.572038" lon="7.837498">
        <ele>970.86993</ele>
        <time>2024-10-15T07:48:54.000Z</time>
      </trkpt>
      <trkpt lat="45.572048" lon="7.837522">
        <ele>970.5799</ele>
        <time>2024-10-15T07:48:56.000Z</time>
      </trkpt>
      <trkpt lat="45.572065" lon="7.837542">
        <ele>970.32489</ele>
        <time>2024-10-15T07:48:58.000Z</time>
      </trkpt>
      <trkpt lat="45.572083" lon="7.837555">
        <ele>970.15985</ele>
        <time>2024-10-15T07:49:02.000Z</time>
      </trkpt>
      <trkpt lat="45.572105" lon="7.837568">
        <ele>970.0799</ele>
        <time>2024-10-15T07:49:06.000Z</time>
      </trkpt>
      <trkpt lat="45.57211" lon="7.837598">
        <ele>970.08997</ele>
        <time>2024-10-15T07:49:09.000Z</time>
      </trkpt>
      <trkpt lat="45.572112" lon="7.837625">
        <ele>970.27991</ele>
        <time>2024-10-15T07:49:14.000Z</time>
      </trkpt>
      <trkpt lat="45.572112" lon="7.837657">
        <ele>970.57489</ele>
        <time>2024-10-15T07:49:19.000Z</time>
      </trkpt>
      <trkpt lat="45.57211" lon="7.837693">
        <ele>970.85498</ele>
        <time>2024-10-15T07:49:26.000Z</time>
      </trkpt>
      <trkpt lat="45.572103" lon="7.837727">
        <ele>971.13495</ele>
        <time>2024-10-15T07:49:28.000Z</time>
      </trkpt>
      <trkpt lat="45.572103" lon="7.837753">
        <ele>971.4549</ele>
        <time>2024-10-15T07:49:31.000Z</time>
      </trkpt>
      <trkpt lat="45.572085" lon="7.83777">
        <ele>971.83997</ele>
        <time>2024-10-15T07:49:33.000Z</time>
      </trkpt>
      <trkpt lat="45.57206" lon="7.837777">
        <ele>972.25995</ele>
        <time>2024-10-15T07:49:36.000Z</time>
      </trkpt>
      <trkpt lat="45.572033" lon="7.837783">
        <ele>972.72003</ele>
        <time>2024-10-15T07:49:38.000Z</time>
      </trkpt>
      <trkpt lat="45.572013" lon="7.837793">
        <ele>973.22498</ele>
        <time>2024-10-15T07:49:40.000Z</time>
      </trkpt>
      <trkpt lat="45.57199" lon="7.837803">
        <ele>973.78503</ele>
        <time>2024-10-15T07:49:42.000Z</time>
      </trkpt>
      <trkpt lat="45.571972" lon="7.837815">
        <ele>974.40009</ele>
        <time>2024-10-15T07:49:44.000Z</time>
      </trkpt>
      <trkpt lat="45.57195" lon="7.837812">
        <ele>975.0802</ele>
        <time>2024-10-15T07:49:47.000Z</time>
      </trkpt>
      <trkpt lat="45.57193" lon="7.837817">
        <ele>975.8302</ele>
        <time>2024-10-15T07:49:51.000Z</time>
      </trkpt>
      <trkpt lat="45.57189" lon="7.837825">
        <ele>976.68524</ele>
        <time>2024-10-15T07:49:57.000Z</time>
      </trkpt>
      <trkpt lat="45.57187" lon="7.837832">
        <ele>977.54022</ele>
        <time>2024-10-15T07:50:00.000Z</time>
      </trkpt>
      <trkpt lat="45.571848" lon="7.837843">
        <ele>978.38525</ele>
        <time>2024-10-15T07:50:03.000Z</time>
      </trkpt>
      <trkpt lat="45.57183" lon="7.837855">
        <ele>979.24023</ele>
        <time>2024-10-15T07:50:06.000Z</time>
      </trkpt>
      <trkpt lat="45.571812" lon="7.837872">
        <ele>980.08026</ele>
        <time>2024-10-15T07:50:09.000Z</time>
      </trkpt>
      <trkpt lat="45.571792" lon="7.837877">
        <ele>980.91522</ele>
        <time>2024-10-15T07:50:11.000Z</time>
      </trkpt>
      <trkpt lat="45.571773" lon="7.837877">
        <ele>981.74023</ele>
        <time>2024-10-15T07:50:13.000Z</time>
      </trkpt>
      <trkpt lat="45.571755" lon="7.83788">
        <ele>982.58026</ele>
        <time>2024-10-15T07:50:17.000Z</time>
      </trkpt>
      <trkpt lat="45.57174" lon="7.837898">
        <ele>983.44519</ele>
        <time>2024-10-15T07:50:19.000Z</time>
      </trkpt>
      <trkpt lat="45.571722" lon="7.837893">
        <ele>984.42023</ele>
        <time>2024-10-15T07:50:22.000Z</time>
      </trkpt>
      <trkpt lat="45.571705" lon="7.837907">
        <ele>985.47522</ele>
        <time>2024-10-15T07:50:24.000Z</time>
      </trkpt>
      <trkpt lat="45.571688" lon="7.837918">
        <ele>986.61523</ele>
        <time>2024-10-15T07:50:28.000Z</time>
      </trkpt>
      <trkpt lat="45.571663" lon="7.837915">
        <ele>987.82019</ele>
        <time>2024-10-15T07:50:30.000Z</time>
      </trkpt>
      <trkpt lat="45.571643" lon="7.83791">
        <ele>989.06525</ele>
        <time>2024-10-15T07:50:32.000Z</time>
      </trkpt>
      <trkpt lat="45.571665" lon="7.83791">
        <ele>990.3302</ele>
        <time>2024-10-15T07:50:37.000Z</time>
      </trkpt>
      <trkpt lat="45.571685" lon="7.83792">
        <ele>991.5802</ele>
        <time>2024-10-15T07:50:42.000Z</time>
      </trkpt>
      <trkpt lat="45.571708" lon="7.837933">
        <ele>992.8302</ele>
        <time>2024-10-15T07:50:46.000Z</time>
      </trkpt>
      <trkpt lat="45.571718" lon="7.837957">
        <ele>994.03516</ele>
        <time>2024-10-15T07:50:49.000Z</time>
      </trkpt>
      <trkpt lat="45.571732" lon="7.837977">
        <ele>995.18005</ele>
        <time>2024-10-15T07:50:51.000Z</time>
      </trkpt>
      <trkpt lat="45.571748" lon="7.837998">
        <ele>996.20007</ele>
        <time>2024-10-15T07:50:54.000Z</time>
      </trkpt>
      <trkpt lat="45.571765" lon="7.838018">
        <ele>997.09503</ele>
        <time>2024-10-15T07:50:57.000Z</time>
      </trkpt>
      <trkpt lat="45.571782" lon="7.838035">
        <ele>997.97498</ele>
        <time>2024-10-15T07:50:59.000Z</time>
      </trkpt>
      <trkpt lat="45.571795" lon="7.838063">
        <ele>998.84003</ele>
        <time>2024-10-15T07:51:02.000Z</time>
      </trkpt>
      <trkpt lat="45.571803" lon="7.8381">
        <ele>999.71503</ele>
        <time>2024-10-15T07:51:06.000Z</time>
      </trkpt>
      <trkpt lat="45.571817" lon="7.838133">
        <ele>1000.56006</ele>
        <time>2024-10-15T07:51:09.000Z</time>
      </trkpt>
      <trkpt lat="45.571833" lon="7.838155">
        <ele>1001.36505</ele>
        <time>2024-10-15T07:51:11.000Z</time>
      </trkpt>
      <trkpt lat="45.571835" lon="7.838193">
        <ele>1002.125</ele>
        <time>2024-10-15T07:51:14.000Z</time>
      </trkpt>
      <trkpt lat="45.571825" lon="7.838218">
        <ele>1002.77997</ele>
        <time>2024-10-15T07:51:16.000Z</time>
      </trkpt>
      <trkpt lat="45.571832" lon="7.838245">
        <ele>1003.35498</ele>
        <time>2024-10-15T07:51:19.000Z</time>
      </trkpt>
      <trkpt lat="45.571858" lon="7.83825">
        <ele>1003.79492</ele>
        <time>2024-10-15T07:51:22.000Z</time>
      </trkpt>
      <trkpt lat="45.571875" lon="7.838262">
        <ele>1004.18494</ele>
        <time>2024-10-15T07:51:24.000Z</time>
      </trkpt>
      <trkpt lat="45.571892" lon="7.838277">
        <ele>1004.47498</ele>
        <time>2024-10-15T07:51:26.000Z</time>
      </trkpt>
      <trkpt lat="45.571892" lon="7.838307">
        <ele>1004.67999</ele>
        <time>2024-10-15T07:51:28.000Z</time>
      </trkpt>
      <trkpt lat="45.571893" lon="7.83834">
        <ele>1004.85999</ele>
        <time>2024-10-15T07:51:31.000Z</time>
      </trkpt>
      <trkpt lat="45.571898" lon="7.83837">
        <ele>1004.99005</ele>
        <time>2024-10-15T07:51:33.000Z</time>
      </trkpt>
      <trkpt lat="45.571912" lon="7.838395">
        <ele>1005.09998</ele>
        <time>2024-10-15T07:51:36.000Z</time>
      </trkpt>
      <trkpt lat="45.571915" lon="7.838422">
        <ele>1005.20496</ele>
        <time>2024-10-15T07:51:39.000Z</time>
      </trkpt>
      <trkpt lat="45.571928" lon="7.838445">
        <ele>1005.29999</ele>
        <time>2024-10-15T07:51:41.000Z</time>
      </trkpt>
      <trkpt lat="45.571933" lon="7.838483">
        <ele>1005.41003</ele>
        <time>2024-10-15T07:51:44.000Z</time>
      </trkpt>
      <trkpt lat="45.571942" lon="7.838515">
        <ele>1005.54999</ele>
        <time>2024-10-15T07:51:47.000Z</time>
      </trkpt>
      <trkpt lat="45.571952" lon="7.838547">
        <ele>1005.69006</ele>
        <time>2024-10-15T07:51:50.000Z</time>
      </trkpt>
      <trkpt lat="45.571968" lon="7.838557">
        <ele>1005.80505</ele>
        <time>2024-10-15T07:51:52.000Z</time>
      </trkpt>
      <trkpt lat="45.571983" lon="7.83858">
        <ele>1005.86005</ele>
        <time>2024-10-15T07:51:56.000Z</time>
      </trkpt>
      <trkpt lat="45.571988" lon="7.838607">
        <ele>1005.8501</ele>
        <time>2024-10-15T07:51:59.000Z</time>
      </trkpt>
      <trkpt lat="45.571997" lon="7.838633">
        <ele>1005.80011</ele>
        <time>2024-10-15T07:52:01.000Z</time>
      </trkpt>
      <trkpt lat="45.572007" lon="7.838657">
        <ele>1005.7052</ele>
        <time>2024-10-15T07:52:05.000Z</time>
      </trkpt>
      <trkpt lat="45.572015" lon="7.83868">
        <ele>1005.60516</ele>
        <time>2024-10-15T07:52:08.000Z</time>
      </trkpt>
      <trkpt lat="45.572003" lon="7.838705">
        <ele>1005.50519</ele>
        <time>2024-10-15T07:52:10.000Z</time>
      </trkpt>
      <trkpt lat="45.572002" lon="7.838733">
        <ele>1005.42023</ele>
        <time>2024-10-15T07:52:12.000Z</time>
      </trkpt>
      <trkpt lat="45.57201" lon="7.838767">
        <ele>1005.39026</ele>
        <time>2024-10-15T07:52:14.000Z</time>
      </trkpt>
      <trkpt lat="45.572003" lon="7.838797">
        <ele>1005.39026</ele>
        <time>2024-10-15T07:52:18.000Z</time>
      </trkpt>
      <trkpt lat="45.571987" lon="7.838818">
        <ele>1005.41016</ele>
        <time>2024-10-15T07:52:21.000Z</time>
      </trkpt>
      <trkpt lat="45.571993" lon="7.838843">
        <ele>1005.39514</ele>
        <time>2024-10-15T07:52:25.000Z</time>
      </trkpt>
      <trkpt lat="45.571985" lon="7.838868">
        <ele>1005.36511</ele>
        <time>2024-10-15T07:52:27.000Z</time>
      </trkpt>
      <trkpt lat="45.571973" lon="7.838892">
        <ele>1005.34509</ele>
        <time>2024-10-15T07:52:30.000Z</time>
      </trkpt>
      <trkpt lat="45.571985" lon="7.838912">
        <ele>1005.34015</ele>
        <time>2024-10-15T07:52:35.000Z</time>
      </trkpt>
      <trkpt lat="45.572003" lon="7.838927">
        <ele>1005.3302</ele>
        <time>2024-10-15T07:52:38.000Z</time>
      </trkpt>
      <trkpt lat="45.572" lon="7.838953">
        <ele>1005.3252</ele>
        <time>2024-10-15T07:52:40.000Z</time>
      </trkpt>
      <trkpt lat="45.572002" lon="7.83898">
        <ele>1005.30518</ele>
        <time>2024-10-15T07:52:43.000Z</time>
      </trkpt>
      <trkpt lat="45.571995" lon="7.839017">
        <ele>1005.29022</ele>
        <time>2024-10-15T07:52:46.000Z</time>
      </trkpt>
      <trkpt lat="45.571983" lon="7.83904">
        <ele>1005.2702</ele>
        <time>2024-10-15T07:52:48.000Z</time>
      </trkpt>
      <trkpt lat="45.571975" lon="7.839068">
        <ele>1005.27521</ele>
        <time>2024-10-15T07:52:50.000Z</time>
      </trkpt>
      <trkpt lat="45.571967" lon="7.839098">
        <ele>1005.36511</ele>
        <time>2024-10-15T07:52:53.000Z</time>
      </trkpt>
      <trkpt lat="45.57196" lon="7.839132">
        <ele>1005.50507</ele>
        <time>2024-10-15T07:52:57.000Z</time>
      </trkpt>
      <trkpt lat="45.571943" lon="7.839153">
        <ele>1005.71503</ele>
        <time>2024-10-15T07:53:00.000Z</time>
      </trkpt>
      <trkpt lat="45.571913" lon="7.839175">
        <ele>1005.98499</ele>
        <time>2024-10-15T07:53:02.000Z</time>
      </trkpt>
      <trkpt lat="45.57189" lon="7.839202">
        <ele>1006.28992</ele>
        <time>2024-10-15T07:53:05.000Z</time>
      </trkpt>
      <trkpt lat="45.571913" lon="7.839177">
        <ele>1006.99493</ele>
        <time>2024-10-15T07:53:44.000Z</time>
      </trkpt>
      <trkpt lat="45.57192" lon="7.839202">
        <ele>1007.67493</ele>
        <time>2024-10-15T07:53:46.000Z</time>
      </trkpt>
      <trkpt lat="45.571922" lon="7.83924">
        <ele>1008.30487</ele>
        <time>2024-10-15T07:53:49.000Z</time>
      </trkpt>
      <trkpt lat="45.571935" lon="7.83926">
        <ele>1008.84485</ele>
        <time>2024-10-15T07:53:51.000Z</time>
      </trkpt>
      <trkpt lat="45.571942" lon="7.839292">
        <ele>1009.32489</ele>
        <time>2024-10-15T07:53:53.000Z</time>
      </trkpt>
      <trkpt lat="45.571953" lon="7.839323">
        <ele>1009.71497</ele>
        <time>2024-10-15T07:53:56.000Z</time>
      </trkpt>
      <trkpt lat="45.57196" lon="7.83935">
        <ele>1010.06995</ele>
        <time>2024-10-15T07:53:58.000Z</time>
      </trkpt>
      <trkpt lat="45.571968" lon="7.839377">
        <ele>1010.40491</ele>
        <time>2024-10-15T07:54:01.000Z</time>
      </trkpt>
      <trkpt lat="45.57195" lon="7.839403">
        <ele>1010.74493</ele>
        <time>2024-10-15T07:54:06.000Z</time>
      </trkpt>
      <trkpt lat="45.571947" lon="7.839433">
        <ele>1011.19989</ele>
        <time>2024-10-15T07:54:10.000Z</time>
      </trkpt>
      <trkpt lat="45.571912" lon="7.839395">
        <ele>1012.11487</ele>
        <time>2024-10-15T07:54:24.000Z</time>
      </trkpt>
      <trkpt lat="45.571893" lon="7.839423">
        <ele>1013.08484</ele>
        <time>2024-10-15T07:54:27.000Z</time>
      </trkpt>
      <trkpt lat="45.571887" lon="7.83946">
        <ele>1014.13489</ele>
        <time>2024-10-15T07:54:30.000Z</time>
      </trkpt>
      <trkpt lat="45.57188" lon="7.839493">
        <ele>1015.20984</ele>
        <time>2024-10-15T07:54:32.000Z</time>
      </trkpt>
      <trkpt lat="45.571893" lon="7.83952">
        <ele>1016.2998</ele>
        <time>2024-10-15T07:54:36.000Z</time>
      </trkpt>
      <trkpt lat="45.571907" lon="7.83954">
        <ele>1017.35486</ele>
        <time>2024-10-15T07:54:39.000Z</time>
      </trkpt>
      <trkpt lat="45.571923" lon="7.839553">
        <ele>1018.36493</ele>
        <time>2024-10-15T07:54:41.000Z</time>
      </trkpt>
      <trkpt lat="45.571932" lon="7.839528">
        <ele>1019.47491</ele>
        <time>2024-10-15T07:54:51.000Z</time>
      </trkpt>
      <trkpt lat="45.571897" lon="7.839543">
        <ele>1020.87488</ele>
        <time>2024-10-15T07:55:05.000Z</time>
      </trkpt>
      <trkpt lat="45.571893" lon="7.839573">
        <ele>1022.29492</ele>
        <time>2024-10-15T07:55:08.000Z</time>
      </trkpt>
      <trkpt lat="45.571903" lon="7.839602">
        <ele>1023.35498</ele>
        <time>2024-10-15T07:55:10.000Z</time>
      </trkpt>
      <trkpt lat="45.57191" lon="7.839627">
        <ele>1024.45496</ele>
        <time>2024-10-15T07:55:12.000Z</time>
      </trkpt>
      <trkpt lat="45.571915" lon="7.839652">
        <ele>1025.59998</ele>
        <time>2024-10-15T07:55:15.000Z</time>
      </trkpt>
      <trkpt lat="45.571925" lon="7.839677">
        <ele>1026.85498</ele>
        <time>2024-10-15T07:55:19.000Z</time>
      </trkpt>
      <trkpt lat="45.571943" lon="7.839702">
        <ele>1028.16992</ele>
        <time>2024-10-15T07:55:23.000Z</time>
      </trkpt>
      <trkpt lat="45.57196" lon="7.839713">
        <ele>1029.61499</ele>
        <time>2024-10-15T07:55:26.000Z</time>
      </trkpt>
      <trkpt lat="45.571937" lon="7.839712">
        <ele>1031.16992</ele>
        <time>2024-10-15T07:55:32.000Z</time>
      </trkpt>
      <trkpt lat="45.571883" lon="7.839723">
        <ele>1032.78003</ele>
        <time>2024-10-15T07:55:40.000Z</time>
      </trkpt>
      <trkpt lat="45.571847" lon="7.839718">
        <ele>1034.41492</ele>
        <time>2024-10-15T07:55:43.000Z</time>
      </trkpt>
      <trkpt lat="45.571828" lon="7.839713">
        <ele>1035.96997</ele>
        <time>2024-10-15T07:55:45.000Z</time>
      </trkpt>
      <trkpt lat="45.571808" lon="7.83973">
        <ele>1037.11499</ele>
        <time>2024-10-15T07:55:47.000Z</time>
      </trkpt>
      <trkpt lat="45.571797" lon="7.83975">
        <ele>1038.17993</ele>
        <time>2024-10-15T07:55:50.000Z</time>
      </trkpt>
      <trkpt lat="45.571773" lon="7.839762">
        <ele>1039.17993</ele>
        <time>2024-10-15T07:55:53.000Z</time>
      </trkpt>
      <trkpt lat="45.571788" lon="7.839785">
        <ele>1040.1449</ele>
        <time>2024-10-15T07:55:56.000Z</time>
      </trkpt>
      <trkpt lat="45.571783" lon="7.839817">
        <ele>1041.13</ele>
        <time>2024-10-15T07:56:01.000Z</time>
      </trkpt>
      <trkpt lat="45.571763" lon="7.839835">
        <ele>1042.15503</ele>
        <time>2024-10-15T07:56:04.000Z</time>
      </trkpt>
      <trkpt lat="45.571755" lon="7.839863">
        <ele>1043.255</ele>
        <time>2024-10-15T07:56:08.000Z</time>
      </trkpt>
      <trkpt lat="45.57176" lon="7.839895">
        <ele>1044.21008</ele>
        <time>2024-10-15T07:56:11.000Z</time>
      </trkpt>
      <trkpt lat="45.571755" lon="7.839927">
        <ele>1044.86011</ele>
        <time>2024-10-15T07:56:16.000Z</time>
      </trkpt>
      <trkpt lat="45.571773" lon="7.83995">
        <ele>1045.42017</ele>
        <time>2024-10-15T07:56:19.000Z</time>
      </trkpt>
      <trkpt lat="45.571775" lon="7.839978">
        <ele>1045.95508</ele>
        <time>2024-10-15T07:56:23.000Z</time>
      </trkpt>
      <trkpt lat="45.5718" lon="7.840005">
        <ele>1046.39001</ele>
        <time>2024-10-15T07:56:32.000Z</time>
      </trkpt>
      <trkpt lat="45.571817" lon="7.840028">
        <ele>1046.75</ele>
        <time>2024-10-15T07:56:35.000Z</time>
      </trkpt>
      <trkpt lat="45.571832" lon="7.840048">
        <ele>1046.97498</ele>
        <time>2024-10-15T07:56:39.000Z</time>
      </trkpt>
      <trkpt lat="45.571843" lon="7.84007">
        <ele>1047.14001</ele>
        <time>2024-10-15T07:56:44.000Z</time>
      </trkpt>
      <trkpt lat="45.57186" lon="7.840097">
        <ele>1047.30005</ele>
        <time>2024-10-15T07:56:49.000Z</time>
      </trkpt>
      <trkpt lat="45.571873" lon="7.840123">
        <ele>1047.42993</ele>
        <time>2024-10-15T07:56:53.000Z</time>
      </trkpt>
      <trkpt lat="45.571895" lon="7.840125">
        <ele>1047.69995</ele>
        <time>2024-10-15T07:57:04.000Z</time>
      </trkpt>
      <trkpt lat="45.571905" lon="7.84016">
        <ele>1048.04492</ele>
        <time>2024-10-15T07:57:13.000Z</time>
      </trkpt>
      <trkpt lat="45.571923" lon="7.840168">
        <ele>1048.45996</ele>
        <time>2024-10-15T07:57:20.000Z</time>
      </trkpt>
      <trkpt lat="45.571947" lon="7.840187">
        <ele>1048.85999</ele>
        <time>2024-10-15T07:57:24.000Z</time>
      </trkpt>
      <trkpt lat="45.571962" lon="7.840202">
        <ele>1049.29504</ele>
        <time>2024-10-15T07:57:28.000Z</time>
      </trkpt>
      <trkpt lat="45.571973" lon="7.840232">
        <ele>1049.69507</ele>
        <time>2024-10-15T07:57:31.000Z</time>
      </trkpt>
      <trkpt lat="45.571987" lon="7.84026">
        <ele>1050.09497</ele>
        <time>2024-10-15T07:57:33.000Z</time>
      </trkpt>
      <trkpt lat="45.572005" lon="7.840273">
        <ele>1050.44507</ele>
        <time>2024-10-15T07:57:36.000Z</time>
      </trkpt>
      <trkpt lat="45.57201" lon="7.840298">
        <ele>1050.77502</ele>
        <time>2024-10-15T07:57:41.000Z</time>
      </trkpt>
      <trkpt lat="45.572" lon="7.840275">
        <ele>1051.10498</ele>
        <time>2024-10-15T07:57:44.000Z</time>
      </trkpt>
      <trkpt lat="45.572005" lon="7.8403">
        <ele>1051.46997</ele>
        <time>2024-10-15T07:57:53.000Z</time>
      </trkpt>
      <trkpt lat="45.571918" lon="7.840362">
        <ele>1052.375</ele>
        <time>2024-10-15T07:58:09.000Z</time>
      </trkpt>
      <trkpt lat="45.571908" lon="7.840407">
        <ele>1053.3949</ele>
        <time>2024-10-15T07:58:25.000Z</time>
      </trkpt>
      <trkpt lat="45.5719" lon="7.840433">
        <ele>1054.42993</ele>
        <time>2024-10-15T07:58:28.000Z</time>
      </trkpt>
      <trkpt lat="45.571902" lon="7.840468">
        <ele>1055.53003</ele>
        <time>2024-10-15T07:58:32.000Z</time>
      </trkpt>
      <trkpt lat="45.571903" lon="7.840495">
        <ele>1056.67993</ele>
        <time>2024-10-15T07:58:36.000Z</time>
      </trkpt>
      <trkpt lat="45.57191" lon="7.840525">
        <ele>1057.90503</ele>
        <time>2024-10-15T07:58:40.000Z</time>
      </trkpt>
      <trkpt lat="45.571912" lon="7.840557">
        <ele>1059.1449</ele>
        <time>2024-10-15T07:58:44.000Z</time>
      </trkpt>
      <trkpt lat="45.571913" lon="7.84059">
        <ele>1060.32996</ele>
        <time>2024-10-15T07:58:49.000Z</time>
      </trkpt>
      <trkpt lat="45.571917" lon="7.840623">
        <ele>1061.44995</ele>
        <time>2024-10-15T07:58:53.000Z</time>
      </trkpt>
      <trkpt lat="45.571908" lon="7.84066">
        <ele>1062.40503</ele>
        <time>2024-10-15T07:58:57.000Z</time>
      </trkpt>
      <trkpt lat="45.571905" lon="7.840688">
        <ele>1063.27014</ele>
        <time>2024-10-15T07:58:59.000Z</time>
      </trkpt>
      <trkpt lat="45.571885" lon="7.8407">
        <ele>1064.03003</ele>
        <time>2024-10-15T07:59:01.000Z</time>
      </trkpt>
      <trkpt lat="45.571867" lon="7.840698">
        <ele>1064.77014</ele>
        <time>2024-10-15T07:59:04.000Z</time>
      </trkpt>
      <trkpt lat="45.571853" lon="7.840727">
        <ele>1065.46008</ele>
        <time>2024-10-15T07:59:07.000Z</time>
      </trkpt>
      <trkpt lat="45.571842" lon="7.840755">
        <ele>1066.17004</ele>
        <time>2024-10-15T07:59:10.000Z</time>
      </trkpt>
      <trkpt lat="45.57182" lon="7.840778">
        <ele>1066.95996</ele>
        <time>2024-10-15T07:59:13.000Z</time>
      </trkpt>
      <trkpt lat="45.571802" lon="7.840797">
        <ele>1067.79993</ele>
        <time>2024-10-15T07:59:15.000Z</time>
      </trkpt>
      <trkpt lat="45.571768" lon="7.840825">
        <ele>1068.69495</ele>
        <time>2024-10-15T07:59:20.000Z</time>
      </trkpt>
      <trkpt lat="45.571738" lon="7.840847">
        <ele>1069.57983</ele>
        <time>2024-10-15T07:59:22.000Z</time>
      </trkpt>
      <trkpt lat="45.571718" lon="7.840862">
        <ele>1070.48486</ele>
        <time>2024-10-15T07:59:24.000Z</time>
      </trkpt>
      <trkpt lat="45.571698" lon="7.840897">
        <ele>1070.89478</ele>
        <time>2024-10-15T07:59:26.000Z</time>
      </trkpt>
      <trkpt lat="45.571715" lon="7.840922">
        <ele>1071.26978</ele>
        <time>2024-10-15T07:59:36.000Z</time>
      </trkpt>
      <trkpt lat="45.571708" lon="7.840955">
        <ele>1071.64478</ele>
        <time>2024-10-15T07:59:40.000Z</time>
      </trkpt>
      <trkpt lat="45.571708" lon="7.840982">
        <ele>1072.07495</ele>
        <time>2024-10-15T07:59:43.000Z</time>
      </trkpt>
      <trkpt lat="45.571697" lon="7.841002">
        <ele>1072.61987</ele>
        <time>2024-10-15T07:59:48.000Z</time>
      </trkpt>
      <trkpt lat="45.571677" lon="7.84103">
        <ele>1073.21497</ele>
        <time>2024-10-15T07:59:52.000Z</time>
      </trkpt>
      <trkpt lat="45.571658" lon="7.841057">
        <ele>1073.90002</ele>
        <time>2024-10-15T07:59:55.000Z</time>
      </trkpt>
      <trkpt lat="45.571643" lon="7.841085">
        <ele>1074.70496</ele>
        <time>2024-10-15T07:59:58.000Z</time>
      </trkpt>
      <trkpt lat="45.571637" lon="7.841118">
        <ele>1075.57495</ele>
        <time>2024-10-15T08:00:02.000Z</time>
      </trkpt>
      <trkpt lat="45.571627" lon="7.841143">
        <ele>1076.55994</ele>
        <time>2024-10-15T08:00:06.000Z</time>
      </trkpt>
      <trkpt lat="45.571607" lon="7.841175">
        <ele>1077.58997</ele>
        <time>2024-10-15T08:00:08.000Z</time>
      </trkpt>
      <trkpt lat="45.571602" lon="7.841202">
        <ele>1078.69495</ele>
        <time>2024-10-15T08:00:13.000Z</time>
      </trkpt>
      <trkpt lat="45.571563" lon="7.841255">
        <ele>1079.81494</ele>
        <time>2024-10-15T08:00:32.000Z</time>
      </trkpt>
      <trkpt lat="45.571543" lon="7.841275">
        <ele>1080.995</ele>
        <time>2024-10-15T08:00:36.000Z</time>
      </trkpt>
      <trkpt lat="45.571538" lon="7.841305">
        <ele>1082.13013</ele>
        <time>2024-10-15T08:00:40.000Z</time>
      </trkpt>
      <trkpt lat="45.571522" lon="7.841332">
        <ele>1083.2251</ele>
        <time>2024-10-15T08:00:44.000Z</time>
      </trkpt>
      <trkpt lat="45.57154" lon="7.841335">
        <ele>1084.42017</ele>
        <time>2024-10-15T08:00:52.000Z</time>
      </trkpt>
      <trkpt lat="45.571552" lon="7.841355">
        <ele>1085.61011</ele>
        <time>2024-10-15T08:00:56.000Z</time>
      </trkpt>
      <trkpt lat="45.571542" lon="7.841382">
        <ele>1086.84009</ele>
        <time>2024-10-15T08:00:59.000Z</time>
      </trkpt>
      <trkpt lat="45.571535" lon="7.841417">
        <ele>1088.07507</ele>
        <time>2024-10-15T08:01:02.000Z</time>
      </trkpt>
      <trkpt lat="45.571518" lon="7.841435">
        <ele>1089.27014</ele>
        <time>2024-10-15T08:01:05.000Z</time>
      </trkpt>
      <trkpt lat="45.571505" lon="7.841455">
        <ele>1090.46509</ele>
        <time>2024-10-15T08:01:08.000Z</time>
      </trkpt>
      <trkpt lat="45.571492" lon="7.841482">
        <ele>1091.70508</ele>
        <time>2024-10-15T08:01:13.000Z</time>
      </trkpt>
      <trkpt lat="45.57148" lon="7.841503">
        <ele>1092.94995</ele>
        <time>2024-10-15T08:01:16.000Z</time>
      </trkpt>
      <trkpt lat="45.571465" lon="7.841522">
        <ele>1094.16504</ele>
        <time>2024-10-15T08:01:20.000Z</time>
      </trkpt>
      <trkpt lat="45.571443" lon="7.841538">
        <ele>1095.41003</ele>
        <time>2024-10-15T08:01:24.000Z</time>
      </trkpt>
      <trkpt lat="45.571425" lon="7.841555">
        <ele>1096.69995</ele>
        <time>2024-10-15T08:01:29.000Z</time>
      </trkpt>
      <trkpt lat="45.571443" lon="7.841582">
        <ele>1098.0</ele>
        <time>2024-10-15T08:01:34.000Z</time>
      </trkpt>
      <trkpt lat="45.571462" lon="7.841568">
        <ele>1099.28992</ele>
        <time>2024-10-15T08:01:37.000Z</time>
      </trkpt>
      <trkpt lat="45.571465" lon="7.841542">
        <ele>1100.46997</ele>
        <time>2024-10-15T08:01:40.000Z</time>
      </trkpt>
      <trkpt lat="45.571462" lon="7.841508">
        <ele>1101.59497</ele>
        <time>2024-10-15T08:01:42.000Z</time>
      </trkpt>
      <trkpt lat="45.571478" lon="7.841498">
        <ele>1102.6499</ele>
        <time>2024-10-15T08:01:46.000Z</time>
      </trkpt>
      <trkpt lat="45.571513" lon="7.84151">
        <ele>1103.67493</ele>
        <time>2024-10-15T08:01:48.000Z</time>
      </trkpt>
      <trkpt lat="45.57154" lon="7.841497">
        <ele>1104.69482</ele>
        <time>2024-10-15T08:01:50.000Z</time>
      </trkpt>
      <trkpt lat="45.571562" lon="7.841487">
        <ele>1105.76978</ele>
        <time>2024-10-15T08:01:53.000Z</time>
      </trkpt>
      <trkpt lat="45.571583" lon="7.841473">
        <ele>1106.81982</ele>
        <time>2024-10-15T08:01:56.000Z</time>
      </trkpt>
      <trkpt lat="45.57161" lon="7.841463">
        <ele>1107.71985</ele>
        <time>2024-10-15T08:01:58.000Z</time>
      </trkpt>
      <trkpt lat="45.571627" lon="7.841437">
        <ele>1108.5498</ele>
        <time>2024-10-15T08:02:00.000Z</time>
      </trkpt>
      <trkpt lat="45.571652" lon="7.841418">
        <ele>1109.31482</ele>
        <time>2024-10-15T08:02:02.000Z</time>
      </trkpt>
      <trkpt lat="45.571683" lon="7.841408">
        <ele>1110.02979</ele>
        <time>2024-10-15T08:02:05.000Z</time>
      </trkpt>
      <trkpt lat="45.571705" lon="7.841403">
        <ele>1110.79468</ele>
        <time>2024-10-15T08:02:06.000Z</time>
      </trkpt>
      <trkpt lat="45.571733" lon="7.841398">
        <ele>1111.57471</ele>
        <time>2024-10-15T08:02:08.000Z</time>
      </trkpt>
      <trkpt lat="45.571765" lon="7.841393">
        <ele>1112.3147</ele>
        <time>2024-10-15T08:02:10.000Z</time>
      </trkpt>
      <trkpt lat="45.571792" lon="7.841377">
        <ele>1113.02478</ele>
        <time>2024-10-15T08:02:12.000Z</time>
      </trkpt>
      <trkpt lat="45.571817" lon="7.841358">
        <ele>1113.65979</ele>
        <time>2024-10-15T08:02:14.000Z</time>
      </trkpt>
      <trkpt lat="45.571838" lon="7.841335">
        <ele>1114.22485</ele>
        <time>2024-10-15T08:02:16.000Z</time>
      </trkpt>
      <trkpt lat="45.571848" lon="7.841312">
        <ele>1114.69482</ele>
        <time>2024-10-15T08:02:17.000Z</time>
      </trkpt>
      <trkpt lat="45.57187" lon="7.84128">
        <ele>1115.0448</ele>
        <time>2024-10-15T08:02:19.000Z</time>
      </trkpt>
      <trkpt lat="45.571885" lon="7.841257">
        <ele>1115.36987</ele>
        <time>2024-10-15T08:02:21.000Z</time>
      </trkpt>
      <trkpt lat="45.571912" lon="7.841263">
        <ele>1115.60986</ele>
        <time>2024-10-15T08:02:23.000Z</time>
      </trkpt>
      <trkpt lat="45.57194" lon="7.841258">
        <ele>1115.7948</ele>
        <time>2024-10-15T08:02:25.000Z</time>
      </trkpt>
      <trkpt lat="45.571963" lon="7.841258">
        <ele>1115.94482</ele>
        <time>2024-10-15T08:02:27.000Z</time>
      </trkpt>
      <trkpt lat="45.571985" lon="7.841245">
        <ele>1116.09485</ele>
        <time>2024-10-15T08:02:29.000Z</time>
      </trkpt>
      <trkpt lat="45.571998" lon="7.841227">
        <ele>1116.26489</ele>
        <time>2024-10-15T08:02:32.000Z</time>
      </trkpt>
      <trkpt lat="45.572025" lon="7.841242">
        <ele>1116.37976</ele>
        <time>2024-10-15T08:02:35.000Z</time>
      </trkpt>
      <trkpt lat="45.572048" lon="7.841252">
        <ele>1116.45972</ele>
        <time>2024-10-15T08:02:38.000Z</time>
      </trkpt>
      <trkpt lat="45.572073" lon="7.841255">
        <ele>1116.47974</ele>
        <time>2024-10-15T08:02:40.000Z</time>
      </trkpt>
      <trkpt lat="45.572095" lon="7.841255">
        <ele>1116.47485</ele>
        <time>2024-10-15T08:02:42.000Z</time>
      </trkpt>
      <trkpt lat="45.572117" lon="7.841237">
        <ele>1116.35974</ele>
        <time>2024-10-15T08:02:45.000Z</time>
      </trkpt>
      <trkpt lat="45.572148" lon="7.841218">
        <ele>1116.18982</ele>
        <time>2024-10-15T08:02:48.000Z</time>
      </trkpt>
      <trkpt lat="45.572168" lon="7.841205">
        <ele>1115.96484</ele>
        <time>2024-10-15T08:02:50.000Z</time>
      </trkpt>
      <trkpt lat="45.572188" lon="7.8412">
        <ele>1115.68481</ele>
        <time>2024-10-15T08:02:53.000Z</time>
      </trkpt>
      <trkpt lat="45.5722" lon="7.84122">
        <ele>1115.38989</ele>
        <time>2024-10-15T08:02:55.000Z</time>
      </trkpt>
      <trkpt lat="45.572207" lon="7.841248">
        <ele>1115.13489</ele>
        <time>2024-10-15T08:03:01.000Z</time>
      </trkpt>
      <trkpt lat="45.572198" lon="7.841275">
        <ele>1114.88989</ele>
        <time>2024-10-15T08:03:04.000Z</time>
      </trkpt>
      <trkpt lat="45.572188" lon="7.841297">
        <ele>1114.69482</ele>
        <time>2024-10-15T08:03:09.000Z</time>
      </trkpt>
      <trkpt lat="45.572182" lon="7.841332">
        <ele>1114.51978</ele>
        <time>2024-10-15T08:03:11.000Z</time>
      </trkpt>
      <trkpt lat="45.572167" lon="7.841357">
        <ele>1114.46484</ele>
        <time>2024-10-15T08:03:13.000Z</time>
      </trkpt>
      <trkpt lat="45.572153" lon="7.841378">
        <ele>1114.50989</ele>
        <time>2024-10-15T08:03:17.000Z</time>
      </trkpt>
      <trkpt lat="45.572138" lon="7.841393">
        <ele>1114.71484</ele>
        <time>2024-10-15T08:03:20.000Z</time>
      </trkpt>
      <trkpt lat="45.57211" lon="7.841408">
        <ele>1115.08984</ele>
        <time>2024-10-15T08:03:24.000Z</time>
      </trkpt>
      <trkpt lat="45.572088" lon="7.841422">
        <ele>1115.56995</ele>
        <time>2024-10-15T08:03:27.000Z</time>
      </trkpt>
      <trkpt lat="45.57207" lon="7.841445">
        <ele>1116.12488</ele>
        <time>2024-10-15T08:03:30.000Z</time>
      </trkpt>
      <trkpt lat="45.572052" lon="7.841473">
        <ele>1116.80994</ele>
        <time>2024-10-15T08:03:35.000Z</time>
      </trkpt>
      <trkpt lat="45.572053" lon="7.841508">
        <ele>1117.58496</ele>
        <time>2024-10-15T08:03:38.000Z</time>
      </trkpt>
      <trkpt lat="45.572035" lon="7.84152">
        <ele>1118.45996</ele>
        <time>2024-10-15T08:03:42.000Z</time>
      </trkpt>
      <trkpt lat="45.57202" lon="7.841538">
        <ele>1119.42505</ele>
        <time>2024-10-15T08:03:44.000Z</time>
      </trkpt>
      <trkpt lat="45.572002" lon="7.841553">
        <ele>1120.44995</ele>
        <time>2024-10-15T08:03:46.000Z</time>
      </trkpt>
      <trkpt lat="45.571983" lon="7.841567">
        <ele>1121.58508</ele>
        <time>2024-10-15T08:03:48.000Z</time>
      </trkpt>
      <trkpt lat="45.571962" lon="7.841585">
        <ele>1122.79504</ele>
        <time>2024-10-15T08:03:51.000Z</time>
      </trkpt>
      <trkpt lat="45.571977" lon="7.841612">
        <ele>1124.02002</ele>
        <time>2024-10-15T08:03:54.000Z</time>
      </trkpt>
      <trkpt lat="45.571952" lon="7.841678">
        <ele>1124.88013</ele>
        <time>2024-10-15T08:05:11.000Z</time>
      </trkpt>
      <trkpt lat="45.571863" lon="7.84164">
        <ele>1125.7301</ele>
        <time>2024-10-15T08:07:10.000Z</time>
      </trkpt>
      <trkpt lat="45.571905" lon="7.841675">
        <ele>1126.75</ele>
        <time>2024-10-15T08:11:34.000Z</time>
      </trkpt>
      <trkpt lat="45.57192" lon="7.84169">
        <ele>1127.745</ele>
        <time>2024-10-15T08:11:36.000Z</time>
      </trkpt>
      <trkpt lat="45.571928" lon="7.841638">
        <ele>1128.20996</ele>
        <time>2024-10-15T08:12:26.000Z</time>
      </trkpt>
      <trkpt lat="45.571913" lon="7.841653">
        <ele>1128.63501</ele>
        <time>2024-10-15T08:12:28.000Z</time>
      </trkpt>
      <trkpt lat="45.571902" lon="7.841752">
        <ele>1128.85999</ele>
        <time>2024-10-15T08:12:50.000Z</time>
      </trkpt>
      <trkpt lat="45.571982" lon="7.841722">
        <ele>1128.68494</ele>
        <time>2024-10-15T08:13:44.000Z</time>
      </trkpt>
      <trkpt lat="45.57198" lon="7.841688">
        <ele>1128.45496</ele>
        <time>2024-10-15T08:13:49.000Z</time>
      </trkpt>
      <trkpt lat="45.57199" lon="7.841715">
        <ele>1128.17505</ele>
        <time>2024-10-15T08:14:00.000Z</time>
      </trkpt>
      <trkpt lat="45.572005" lon="7.841737">
        <ele>1127.88501</ele>
        <time>2024-10-15T08:14:04.000Z</time>
      </trkpt>
      <trkpt lat="45.572027" lon="7.841732">
        <ele>1127.56995</ele>
        <time>2024-10-15T08:14:09.000Z</time>
      </trkpt>
      <trkpt lat="45.572048" lon="7.841725">
        <ele>1127.12488</ele>
        <time>2024-10-15T08:14:12.000Z</time>
      </trkpt>
      <trkpt lat="45.572062" lon="7.841705">
        <ele>1126.65491</ele>
        <time>2024-10-15T08:14:14.000Z</time>
      </trkpt>
      <trkpt lat="45.572078" lon="7.841687">
        <ele>1126.23499</ele>
        <time>2024-10-15T08:14:23.000Z</time>
      </trkpt>
      <trkpt lat="45.572103" lon="7.841695">
        <ele>1125.88989</ele>
        <time>2024-10-15T08:14:29.000Z</time>
      </trkpt>
      <trkpt lat="45.572123" lon="7.8417">
        <ele>1125.59497</ele>
        <time>2024-10-15T08:14:34.000Z</time>
      </trkpt>
      <trkpt lat="45.572138" lon="7.841683">
        <ele>1125.36987</ele>
        <time>2024-10-15T08:14:38.000Z</time>
      </trkpt>
      <trkpt lat="45.57217" lon="7.841697">
        <ele>1125.19495</ele>
        <time>2024-10-15T08:14:42.000Z</time>
      </trkpt>
      <trkpt lat="45.572193" lon="7.841692">
        <ele>1125.05994</ele>
        <time>2024-10-15T08:14:45.000Z</time>
      </trkpt>
      <trkpt lat="45.572215" lon="7.841697">
        <ele>1125.34985</ele>
        <time>2024-10-15T08:14:47.000Z</time>
      </trkpt>
      <trkpt lat="45.572238" lon="7.8417">
        <ele>1125.67493</ele>
        <time>2024-10-15T08:14:49.000Z</time>
      </trkpt>
      <trkpt lat="45.572257" lon="7.8417">
        <ele>1125.83496</ele>
        <time>2024-10-15T08:14:53.000Z</time>
      </trkpt>
      <trkpt lat="45.572277" lon="7.841698">
        <ele>1126.03491</ele>
        <time>2024-10-15T08:14:56.000Z</time>
      </trkpt>
      <trkpt lat="45.572298" lon="7.841673">
        <ele>1126.755</ele>
        <time>2024-10-15T08:15:00.000Z</time>
      </trkpt>
      <trkpt lat="45.572312" lon="7.841647">
        <ele>1127.53003</ele>
        <time>2024-10-15T08:15:03.000Z</time>
      </trkpt>
      <trkpt lat="45.572333" lon="7.841647">
        <ele>1128.47998</ele>
        <time>2024-10-15T08:15:07.000Z</time>
      </trkpt>
      <trkpt lat="45.572353" lon="7.84166">
        <ele>1129.72998</ele>
        <time>2024-10-15T08:15:10.000Z</time>
      </trkpt>
      <trkpt lat="45.57237" lon="7.841678">
        <ele>1130.96497</ele>
        <time>2024-10-15T08:15:13.000Z</time>
      </trkpt>
      <trkpt lat="45.572385" lon="7.841698">
        <ele>1132.15503</ele>
        <time>2024-10-15T08:15:16.000Z</time>
      </trkpt>
      <trkpt lat="45.572405" lon="7.841707">
        <ele>1133.31494</ele>
        <time>2024-10-15T08:15:19.000Z</time>
      </trkpt>
      <trkpt lat="45.572423" lon="7.841712">
        <ele>1134.45496</ele>
        <time>2024-10-15T08:15:26.000Z</time>
      </trkpt>
      <trkpt lat="45.572442" lon="7.841722">
        <ele>1135.61499</ele>
        <time>2024-10-15T08:15:34.000Z</time>
      </trkpt>
      <trkpt lat="45.572455" lon="7.841742">
        <ele>1136.755</ele>
        <time>2024-10-15T08:15:38.000Z</time>
      </trkpt>
      <trkpt lat="45.572462" lon="7.841767">
        <ele>1137.78992</ele>
        <time>2024-10-15T08:15:41.000Z</time>
      </trkpt>
      <trkpt lat="45.572478" lon="7.841778">
        <ele>1138.76001</ele>
        <time>2024-10-15T08:15:46.000Z</time>
      </trkpt>
      <trkpt lat="45.572497" lon="7.841797">
        <ele>1139.65503</ele>
        <time>2024-10-15T08:15:49.000Z</time>
      </trkpt>
      <trkpt lat="45.572513" lon="7.841818">
        <ele>1140.49487</ele>
        <time>2024-10-15T08:15:52.000Z</time>
      </trkpt>
      <trkpt lat="45.572518" lon="7.84185">
        <ele>1141.31494</ele>
        <time>2024-10-15T08:15:56.000Z</time>
      </trkpt>
      <trkpt lat="45.572518" lon="7.841878">
        <ele>1142.10498</ele>
        <time>2024-10-15T08:15:58.000Z</time>
      </trkpt>
      <trkpt lat="45.572523" lon="7.841912">
        <ele>1142.88501</ele>
        <time>2024-10-15T08:16:01.000Z</time>
      </trkpt>
      <trkpt lat="45.572527" lon="7.84194">
        <ele>1143.61987</ele>
        <time>2024-10-15T08:16:03.000Z</time>
      </trkpt>
      <trkpt lat="45.572528" lon="7.841968">
        <ele>1144.28491</ele>
        <time>2024-10-15T08:16:05.000Z</time>
      </trkpt>
      <trkpt lat="45.572513" lon="7.841998">
        <ele>1144.97986</ele>
        <time>2024-10-15T08:16:09.000Z</time>
      </trkpt>
      <trkpt lat="45.572525" lon="7.842032">
        <ele>1145.71997</ele>
        <time>2024-10-15T08:16:14.000Z</time>
      </trkpt>
      <trkpt lat="45.572523" lon="7.842058">
        <ele>1146.43494</ele>
        <time>2024-10-15T08:16:17.000Z</time>
      </trkpt>
      <trkpt lat="45.57253" lon="7.84209">
        <ele>1147.08997</ele>
        <time>2024-10-15T08:16:23.000Z</time>
      </trkpt>
      <trkpt lat="45.57254" lon="7.842123">
        <ele>1147.70996</ele>
        <time>2024-10-15T08:16:26.000Z</time>
      </trkpt>
      <trkpt lat="45.572543" lon="7.842158">
        <ele>1148.32495</ele>
        <time>2024-10-15T08:16:28.000Z</time>
      </trkpt>
      <trkpt lat="45.57254" lon="7.842192">
        <ele>1148.92993</ele>
        <time>2024-10-15T08:16:31.000Z</time>
      </trkpt>
      <trkpt lat="45.57255" lon="7.842222">
        <ele>1149.52502</ele>
        <time>2024-10-15T08:16:35.000Z</time>
      </trkpt>
      <trkpt lat="45.57256" lon="7.842243">
        <ele>1150.14502</ele>
        <time>2024-10-15T08:16:38.000Z</time>
      </trkpt>
      <trkpt lat="45.572573" lon="7.842262">
        <ele>1150.72498</ele>
        <time>2024-10-15T08:16:40.000Z</time>
      </trkpt>
      <trkpt lat="45.57259" lon="7.842287">
        <ele>1151.29504</ele>
        <time>2024-10-15T08:16:42.000Z</time>
      </trkpt>
      <trkpt lat="45.5726" lon="7.842313">
        <ele>1151.87</ele>
        <time>2024-10-15T08:16:45.000Z</time>
      </trkpt>
      <trkpt lat="45.572615" lon="7.842333">
        <ele>1152.45496</ele>
        <time>2024-10-15T08:16:50.000Z</time>
      </trkpt>
      <trkpt lat="45.572622" lon="7.84237">
        <ele>1153.07495</ele>
        <time>2024-10-15T08:16:55.000Z</time>
      </trkpt>
      <trkpt lat="45.57261" lon="7.84245">
        <ele>1154.03003</ele>
        <time>2024-10-15T08:17:19.000Z</time>
      </trkpt>
      <trkpt lat="45.572627" lon="7.84246">
        <ele>1154.96997</ele>
        <time>2024-10-15T08:17:24.000Z</time>
      </trkpt>
      <trkpt lat="45.572623" lon="7.842493">
        <ele>1155.92993</ele>
        <time>2024-10-15T08:17:28.000Z</time>
      </trkpt>
      <trkpt lat="45.57262" lon="7.84252">
        <ele>1156.875</ele>
        <time>2024-10-15T08:17:31.000Z</time>
      </trkpt>
      <trkpt lat="45.572617" lon="7.84255">
        <ele>1157.83008</ele>
        <time>2024-10-15T08:17:34.000Z</time>
      </trkpt>
      <trkpt lat="45.572617" lon="7.842578">
        <ele>1158.80005</ele>
        <time>2024-10-15T08:17:36.000Z</time>
      </trkpt>
      <trkpt lat="45.572608" lon="7.842607">
        <ele>1159.71509</ele>
        <time>2024-10-15T08:17:40.000Z</time>
      </trkpt>
      <trkpt lat="45.572622" lon="7.842625">
        <ele>1160.50012</ele>
        <time>2024-10-15T08:17:42.000Z</time>
      </trkpt>
      <trkpt lat="45.572628" lon="7.84265">
        <ele>1161.26001</ele>
        <time>2024-10-15T08:17:44.000Z</time>
      </trkpt>
      <trkpt lat="45.572645" lon="7.842662">
        <ele>1162.04004</ele>
        <time>2024-10-15T08:17:46.000Z</time>
      </trkpt>
      <trkpt lat="45.572652" lon="7.842695">
        <ele>1162.88501</ele>
        <time>2024-10-15T08:17:50.000Z</time>
      </trkpt>
      <trkpt lat="45.572648" lon="7.842722">
        <ele>1163.75</ele>
        <time>2024-10-15T08:17:53.000Z</time>
      </trkpt>
      <trkpt lat="45.57266" lon="7.842745">
        <ele>1164.65991</ele>
        <time>2024-10-15T08:17:58.000Z</time>
      </trkpt>
      <trkpt lat="45.572673" lon="7.842765">
        <ele>1165.55005</ele>
        <time>2024-10-15T08:18:00.000Z</time>
      </trkpt>
      <trkpt lat="45.572688" lon="7.842787">
        <ele>1166.40002</ele>
        <time>2024-10-15T08:18:05.000Z</time>
      </trkpt>
      <trkpt lat="45.572707" lon="7.842785">
        <ele>1167.22498</ele>
        <time>2024-10-15T08:18:07.000Z</time>
      </trkpt>
      <trkpt lat="45.572718" lon="7.84283">
        <ele>1168.03003</ele>
        <time>2024-10-15T08:18:15.000Z</time>
      </trkpt>
      <trkpt lat="45.572717" lon="7.842857">
        <ele>1168.80005</ele>
        <time>2024-10-15T08:18:18.000Z</time>
      </trkpt>
      <trkpt lat="45.572727" lon="7.842887">
        <ele>1169.52502</ele>
        <time>2024-10-15T08:18:21.000Z</time>
      </trkpt>
      <trkpt lat="45.572742" lon="7.842902">
        <ele>1170.22998</ele>
        <time>2024-10-15T08:18:25.000Z</time>
      </trkpt>
      <trkpt lat="45.572745" lon="7.84295">
        <ele>1170.59497</ele>
        <time>2024-10-15T08:18:29.000Z</time>
      </trkpt>
      <trkpt lat="45.57275" lon="7.84299">
        <ele>1170.90991</ele>
        <time>2024-10-15T08:18:32.000Z</time>
      </trkpt>
      <trkpt lat="45.572763" lon="7.843018">
        <ele>1171.17993</ele>
        <time>2024-10-15T08:18:35.000Z</time>
      </trkpt>
      <trkpt lat="45.572763" lon="7.843052">
        <ele>1171.42505</ele>
        <time>2024-10-15T08:18:40.000Z</time>
      </trkpt>
      <trkpt lat="45.572787" lon="7.843078">
        <ele>1171.68994</ele>
        <time>2024-10-15T08:18:44.000Z</time>
      </trkpt>
      <trkpt lat="45.5728" lon="7.843098">
        <ele>1171.93994</ele>
        <time>2024-10-15T08:18:47.000Z</time>
      </trkpt>
      <trkpt lat="45.572825" lon="7.843117">
        <ele>1172.17993</ele>
        <time>2024-10-15T08:18:52.000Z</time>
      </trkpt>
      <trkpt lat="45.57284" lon="7.843133">
        <ele>1172.47485</ele>
        <time>2024-10-15T08:18:54.000Z</time>
      </trkpt>
      <trkpt lat="45.572833" lon="7.843175">
        <ele>1172.84985</ele>
        <time>2024-10-15T08:18:58.000Z</time>
      </trkpt>
      <trkpt lat="45.572827" lon="7.843202">
        <ele>1173.23486</ele>
        <time>2024-10-15T08:19:00.000Z</time>
      </trkpt>
      <trkpt lat="45.572833" lon="7.843235">
        <ele>1173.62476</ele>
        <time>2024-10-15T08:19:03.000Z</time>
      </trkpt>
      <trkpt lat="45.572828" lon="7.84326">
        <ele>1173.97485</ele>
        <time>2024-10-15T08:19:05.000Z</time>
      </trkpt>
      <trkpt lat="45.572828" lon="7.843287">
        <ele>1174.28979</ele>
        <time>2024-10-15T08:19:08.000Z</time>
      </trkpt>
      <trkpt lat="45.572837" lon="7.843312">
        <ele>1174.65479</ele>
        <time>2024-10-15T08:19:13.000Z</time>
      </trkpt>
      <trkpt lat="45.572877" lon="7.843433">
        <ele>1175.30981</ele>
        <time>2024-10-15T08:19:39.000Z</time>
      </trkpt>
      <trkpt lat="45.572882" lon="7.843458">
        <ele>1175.99487</ele>
        <time>2024-10-15T08:19:41.000Z</time>
      </trkpt>
      <trkpt lat="45.57289" lon="7.843485">
        <ele>1176.68982</ele>
        <time>2024-10-15T08:19:45.000Z</time>
      </trkpt>
      <trkpt lat="45.572897" lon="7.843527">
        <ele>1177.5498</ele>
        <time>2024-10-15T08:20:03.000Z</time>
      </trkpt>
      <trkpt lat="45.572905" lon="7.843558">
        <ele>1178.34485</ele>
        <time>2024-10-15T08:20:07.000Z</time>
      </trkpt>
      <trkpt lat="45.572912" lon="7.84359">
        <ele>1179.08984</ele>
        <time>2024-10-15T08:20:11.000Z</time>
      </trkpt>
      <trkpt lat="45.57293" lon="7.843588">
        <ele>1179.81482</ele>
        <time>2024-10-15T08:20:13.000Z</time>
      </trkpt>
      <trkpt lat="45.572953" lon="7.843585">
        <ele>1180.5498</ele>
        <time>2024-10-15T08:20:15.000Z</time>
      </trkpt>
      <trkpt lat="45.572978" lon="7.843582">
        <ele>1181.31982</ele>
        <time>2024-10-15T08:20:18.000Z</time>
      </trkpt>
      <trkpt lat="45.572995" lon="7.84357">
        <ele>1182.14978</ele>
        <time>2024-10-15T08:20:21.000Z</time>
      </trkpt>
      <trkpt lat="45.573017" lon="7.843568">
        <ele>1182.98486</ele>
        <time>2024-10-15T08:20:24.000Z</time>
      </trkpt>
      <trkpt lat="45.573037" lon="7.843565">
        <ele>1183.84497</ele>
        <time>2024-10-15T08:20:26.000Z</time>
      </trkpt>
      <trkpt lat="45.573058" lon="7.843568">
        <ele>1184.73999</ele>
        <time>2024-10-15T08:20:29.000Z</time>
      </trkpt>
      <trkpt lat="45.573075" lon="7.84358">
        <ele>1185.66492</ele>
        <time>2024-10-15T08:20:33.000Z</time>
      </trkpt>
      <trkpt lat="45.57309" lon="7.8436">
        <ele>1186.53992</ele>
        <time>2024-10-15T08:20:37.000Z</time>
      </trkpt>
      <trkpt lat="45.573097" lon="7.843625">
        <ele>1187.42993</ele>
        <time>2024-10-15T08:20:40.000Z</time>
      </trkpt>
      <trkpt lat="45.573103" lon="7.84366">
        <ele>1188.29504</ele>
        <time>2024-10-15T08:20:43.000Z</time>
      </trkpt>
      <trkpt lat="45.573105" lon="7.8437">
        <ele>1189.16003</ele>
        <time>2024-10-15T08:20:45.000Z</time>
      </trkpt>
      <trkpt lat="45.573117" lon="7.843728">
        <ele>1189.9801</ele>
        <time>2024-10-15T08:20:47.000Z</time>
      </trkpt>
      <trkpt lat="45.573135" lon="7.843728">
        <ele>1190.75012</ele>
        <time>2024-10-15T08:20:49.000Z</time>
      </trkpt>
      <trkpt lat="45.573153" lon="7.843728">
        <ele>1191.23999</ele>
        <time>2024-10-15T08:20:51.000Z</time>
      </trkpt>
      <trkpt lat="45.573178" lon="7.843723">
        <ele>1191.745</ele>
        <time>2024-10-15T08:20:54.000Z</time>
      </trkpt>
      <trkpt lat="45.573202" lon="7.843718">
        <ele>1192.32996</ele>
        <time>2024-10-15T08:20:59.000Z</time>
      </trkpt>
      <trkpt lat="45.573223" lon="7.84372">
        <ele>1192.81506</ele>
        <time>2024-10-15T08:21:04.000Z</time>
      </trkpt>
      <trkpt lat="45.573242" lon="7.843738">
        <ele>1193.39502</ele>
        <time>2024-10-15T08:21:08.000Z</time>
      </trkpt>
      <trkpt lat="45.573255" lon="7.843757">
        <ele>1194.02002</ele>
        <time>2024-10-15T08:21:11.000Z</time>
      </trkpt>
      <trkpt lat="45.573272" lon="7.843772">
        <ele>1194.71008</ele>
        <time>2024-10-15T08:21:16.000Z</time>
      </trkpt>
      <trkpt lat="45.573285" lon="7.843792">
        <ele>1195.44507</ele>
        <time>2024-10-15T08:21:21.000Z</time>
      </trkpt>
      <trkpt lat="45.573297" lon="7.843812">
        <ele>1196.16504</ele>
        <time>2024-10-15T08:21:23.000Z</time>
      </trkpt>
      <trkpt lat="45.573302" lon="7.843838">
        <ele>1196.83008</ele>
        <time>2024-10-15T08:21:26.000Z</time>
      </trkpt>
      <trkpt lat="45.573313" lon="7.843862">
        <ele>1197.48511</ele>
        <time>2024-10-15T08:21:30.000Z</time>
      </trkpt>
      <trkpt lat="45.57331" lon="7.843898">
        <ele>1198.17505</ele>
        <time>2024-10-15T08:21:34.000Z</time>
      </trkpt>
      <trkpt lat="45.573303" lon="7.843932">
        <ele>1198.85498</ele>
        <time>2024-10-15T08:21:37.000Z</time>
      </trkpt>
      <trkpt lat="45.573293" lon="7.843953">
        <ele>1199.495</ele>
        <time>2024-10-15T08:21:39.000Z</time>
      </trkpt>
      <trkpt lat="45.57329" lon="7.84398">
        <ele>1200.13501</ele>
        <time>2024-10-15T08:21:42.000Z</time>
      </trkpt>
      <trkpt lat="45.573292" lon="7.844007">
        <ele>1200.77002</ele>
        <time>2024-10-15T08:21:46.000Z</time>
      </trkpt>
      <trkpt lat="45.573303" lon="7.844032">
        <ele>1201.43506</ele>
        <time>2024-10-15T08:21:51.000Z</time>
      </trkpt>
      <trkpt lat="45.573307" lon="7.844058">
        <ele>1202.14502</ele>
        <time>2024-10-15T08:21:54.000Z</time>
      </trkpt>
      <trkpt lat="45.573325" lon="7.844077">
        <ele>1202.90991</ele>
        <time>2024-10-15T08:21:58.000Z</time>
      </trkpt>
      <trkpt lat="45.573353" lon="7.844092">
        <ele>1203.66492</ele>
        <time>2024-10-15T08:22:02.000Z</time>
      </trkpt>
      <trkpt lat="45.573377" lon="7.844102">
        <ele>1204.40002</ele>
        <time>2024-10-15T08:22:05.000Z</time>
      </trkpt>
      <trkpt lat="45.573402" lon="7.844103">
        <ele>1205.07996</ele>
        <time>2024-10-15T08:22:08.000Z</time>
      </trkpt>
      <trkpt lat="45.57342" lon="7.844112">
        <ele>1205.67004</ele>
        <time>2024-10-15T08:22:10.000Z</time>
      </trkpt>
      <trkpt lat="45.57344" lon="7.844103">
        <ele>1206.19507</ele>
        <time>2024-10-15T08:22:13.000Z</time>
      </trkpt>
      <trkpt lat="45.573462" lon="7.844097">
        <ele>1206.69006</ele>
        <time>2024-10-15T08:22:17.000Z</time>
      </trkpt>
      <trkpt lat="45.573495" lon="7.84412">
        <ele>1207.22498</ele>
        <time>2024-10-15T08:22:31.000Z</time>
      </trkpt>
      <trkpt lat="45.573515" lon="7.84412">
        <ele>1207.72498</ele>
        <time>2024-10-15T08:22:37.000Z</time>
      </trkpt>
      <trkpt lat="45.573535" lon="7.84411">
        <ele>1208.19995</ele>
        <time>2024-10-15T08:22:43.000Z</time>
      </trkpt>
      <trkpt lat="45.573563" lon="7.844117">
        <ele>1208.65503</ele>
        <time>2024-10-15T08:22:47.000Z</time>
      </trkpt>
      <trkpt lat="45.573583" lon="7.844115">
        <ele>1209.08008</ele>
        <time>2024-10-15T08:22:50.000Z</time>
      </trkpt>
      <trkpt lat="45.573603" lon="7.844115">
        <ele>1209.4801</ele>
        <time>2024-10-15T08:22:54.000Z</time>
      </trkpt>
      <trkpt lat="45.573625" lon="7.844117">
        <ele>1209.83008</ele>
        <time>2024-10-15T08:22:59.000Z</time>
      </trkpt>
      <trkpt lat="45.573643" lon="7.844127">
        <ele>1210.16003</ele>
        <time>2024-10-15T08:23:03.000Z</time>
      </trkpt>
      <trkpt lat="45.573662" lon="7.844133">
        <ele>1210.495</ele>
        <time>2024-10-15T08:23:08.000Z</time>
      </trkpt>
      <trkpt lat="45.573678" lon="7.844153">
        <ele>1210.84998</ele>
        <time>2024-10-15T08:23:14.000Z</time>
      </trkpt>
      <trkpt lat="45.573697" lon="7.844155">
        <ele>1211.19995</ele>
        <time>2024-10-15T08:23:17.000Z</time>
      </trkpt>
      <trkpt lat="45.573718" lon="7.844192">
        <ele>1211.66992</ele>
        <time>2024-10-15T08:23:30.000Z</time>
      </trkpt>
      <trkpt lat="45.573735" lon="7.844202">
        <ele>1212.125</ele>
        <time>2024-10-15T08:23:33.000Z</time>
      </trkpt>
      <trkpt lat="45.57375" lon="7.844217">
        <ele>1212.56006</ele>
        <time>2024-10-15T08:23:36.000Z</time>
      </trkpt>
      <trkpt lat="45.573758" lon="7.84424">
        <ele>1213.03003</ele>
        <time>2024-10-15T08:23:39.000Z</time>
      </trkpt>
      <trkpt lat="45.57377" lon="7.84426">
        <ele>1213.53003</ele>
        <time>2024-10-15T08:23:43.000Z</time>
      </trkpt>
      <trkpt lat="45.573782" lon="7.844288">
        <ele>1214.1001</ele>
        <time>2024-10-15T08:23:48.000Z</time>
      </trkpt>
      <trkpt lat="45.5738" lon="7.844308">
        <ele>1214.71509</ele>
        <time>2024-10-15T08:23:52.000Z</time>
      </trkpt>
      <trkpt lat="45.573823" lon="7.844327">
        <ele>1215.39001</ele>
        <time>2024-10-15T08:23:56.000Z</time>
      </trkpt>
      <trkpt lat="45.57384" lon="7.844342">
        <ele>1216.09998</ele>
        <time>2024-10-15T08:24:02.000Z</time>
      </trkpt>
      <trkpt lat="45.573862" lon="7.844348">
        <ele>1216.75513</ele>
        <time>2024-10-15T08:24:06.000Z</time>
      </trkpt>
      <trkpt lat="45.57388" lon="7.844355">
        <ele>1217.38013</ele>
        <time>2024-10-15T08:24:10.000Z</time>
      </trkpt>
      <trkpt lat="45.573895" lon="7.84437">
        <ele>1218.00012</ele>
        <time>2024-10-15T08:24:13.000Z</time>
      </trkpt>
      <trkpt lat="45.573907" lon="7.844392">
        <ele>1218.63501</ele>
        <time>2024-10-15T08:24:15.000Z</time>
      </trkpt>
      <trkpt lat="45.573923" lon="7.844415">
        <ele>1219.31006</ele>
        <time>2024-10-15T08:24:18.000Z</time>
      </trkpt>
      <trkpt lat="45.573942" lon="7.84444">
        <ele>1220.09998</ele>
        <time>2024-10-15T08:24:24.000Z</time>
      </trkpt>
      <trkpt lat="45.573958" lon="7.844458">
        <ele>1220.93506</ele>
        <time>2024-10-15T08:24:28.000Z</time>
      </trkpt>
      <trkpt lat="45.573975" lon="7.844468">
        <ele>1221.82007</ele>
        <time>2024-10-15T08:24:31.000Z</time>
      </trkpt>
      <trkpt lat="45.573997" lon="7.844477">
        <ele>1222.75012</ele>
        <time>2024-10-15T08:24:35.000Z</time>
      </trkpt>
      <trkpt lat="45.574033" lon="7.844493">
        <ele>1223.78003</ele>
        <time>2024-10-15T08:24:49.000Z</time>
      </trkpt>
      <trkpt lat="45.57404" lon="7.844523">
        <ele>1224.80505</ele>
        <time>2024-10-15T08:24:52.000Z</time>
      </trkpt>
      <trkpt lat="45.574033" lon="7.84456">
        <ele>1225.69019</ele>
        <time>2024-10-15T08:24:55.000Z</time>
      </trkpt>
      <trkpt lat="45.57402" lon="7.844592">
        <ele>1226.58008</ele>
        <time>2024-10-15T08:24:58.000Z</time>
      </trkpt>
      <trkpt lat="45.574003" lon="7.844612">
        <ele>1227.46509</ele>
        <time>2024-10-15T08:25:00.000Z</time>
      </trkpt>
      <trkpt lat="45.57399" lon="7.844647">
        <ele>1228.33508</ele>
        <time>2024-10-15T08:25:03.000Z</time>
      </trkpt>
      <trkpt lat="45.573973" lon="7.844668">
        <ele>1229.18506</ele>
        <time>2024-10-15T08:25:05.000Z</time>
      </trkpt>
      <trkpt lat="45.573955" lon="7.84467">
        <ele>1230.05005</ele>
        <time>2024-10-15T08:25:09.000Z</time>
      </trkpt>
      <trkpt lat="45.573972" lon="7.84468">
        <ele>1231.25012</ele>
        <time>2024-10-15T08:25:44.000Z</time>
      </trkpt>
      <trkpt lat="45.57399" lon="7.844677">
        <ele>1232.40015</ele>
        <time>2024-10-15T08:25:46.000Z</time>
      </trkpt>
      <trkpt lat="45.574018" lon="7.844677">
        <ele>1233.51013</ele>
        <time>2024-10-15T08:25:48.000Z</time>
      </trkpt>
      <trkpt lat="45.57404" lon="7.844675">
        <ele>1234.6051</ele>
        <time>2024-10-15T08:25:50.000Z</time>
      </trkpt>
      <trkpt lat="45.574063" lon="7.844668">
        <ele>1235.71509</ele>
        <time>2024-10-15T08:25:52.000Z</time>
      </trkpt>
      <trkpt lat="45.574083" lon="7.844665">
        <ele>1236.81506</ele>
        <time>2024-10-15T08:25:54.000Z</time>
      </trkpt>
      <trkpt lat="45.57411" lon="7.844655">
        <ele>1237.89001</ele>
        <time>2024-10-15T08:25:56.000Z</time>
      </trkpt>
      <trkpt lat="45.574138" lon="7.844638">
        <ele>1238.95496</ele>
        <time>2024-10-15T08:25:58.000Z</time>
      </trkpt>
      <trkpt lat="45.57416" lon="7.84462">
        <ele>1239.95496</ele>
        <time>2024-10-15T08:26:00.000Z</time>
      </trkpt>
      <trkpt lat="45.57418" lon="7.84461">
        <ele>1240.95496</ele>
        <time>2024-10-15T08:26:02.000Z</time>
      </trkpt>
      <trkpt lat="45.574198" lon="7.844588">
        <ele>1241.93494</ele>
        <time>2024-10-15T08:26:04.000Z</time>
      </trkpt>
      <trkpt lat="45.57423" lon="7.844572">
        <ele>1242.85999</ele>
        <time>2024-10-15T08:26:06.000Z</time>
      </trkpt>
      <trkpt lat="45.574257" lon="7.844562">
        <ele>1243.63501</ele>
        <time>2024-10-15T08:26:08.000Z</time>
      </trkpt>
      <trkpt lat="45.574285" lon="7.844557">
        <ele>1244.41504</ele>
        <time>2024-10-15T08:26:10.000Z</time>
      </trkpt>
      <trkpt lat="45.574305" lon="7.844558">
        <ele>1245.17505</ele>
        <time>2024-10-15T08:26:12.000Z</time>
      </trkpt>
      <trkpt lat="45.574328" lon="7.844553">
        <ele>1245.91003</ele>
        <time>2024-10-15T08:26:14.000Z</time>
      </trkpt>
      <trkpt lat="45.574353" lon="7.84456">
        <ele>1246.64502</ele>
        <time>2024-10-15T08:26:16.000Z</time>
      </trkpt>
      <trkpt lat="45.57437" lon="7.844573">
        <ele>1247.375</ele>
        <time>2024-10-15T08:26:18.000Z</time>
      </trkpt>
      <trkpt lat="45.574387" lon="7.844598">
        <ele>1248.07007</ele>
        <time>2024-10-15T08:26:19.000Z</time>
      </trkpt>
      <trkpt lat="45.574408" lon="7.844605">
        <ele>1248.68494</ele>
        <time>2024-10-15T08:26:21.000Z</time>
      </trkpt>
      <trkpt lat="45.574432" lon="7.844625">
        <ele>1248.97498</ele>
        <time>2024-10-15T08:26:23.000Z</time>
      </trkpt>
      <trkpt lat="45.574447" lon="7.844647">
        <ele>1249.28003</ele>
        <time>2024-10-15T08:26:24.000Z</time>
      </trkpt>
      <trkpt lat="45.574465" lon="7.844663">
        <ele>1249.59497</ele>
        <time>2024-10-15T08:26:26.000Z</time>
      </trkpt>
      <trkpt lat="45.574477" lon="7.844703">
        <ele>1249.90002</ele>
        <time>2024-10-15T08:26:28.000Z</time>
      </trkpt>
      <trkpt lat="45.574488" lon="7.844727">
        <ele>1250.16003</ele>
        <time>2024-10-15T08:26:29.000Z</time>
      </trkpt>
      <trkpt lat="45.574503" lon="7.844753">
        <ele>1250.40503</ele>
        <time>2024-10-15T08:26:31.000Z</time>
      </trkpt>
      <trkpt lat="45.574522" lon="7.844783">
        <ele>1250.63</ele>
        <time>2024-10-15T08:26:33.000Z</time>
      </trkpt>
      <trkpt lat="45.574537" lon="7.844807">
        <ele>1250.82495</ele>
        <time>2024-10-15T08:26:36.000Z</time>
      </trkpt>
      <trkpt lat="45.574552" lon="7.844832">
        <ele>1250.96008</ele>
        <time>2024-10-15T08:26:38.000Z</time>
      </trkpt>
      <trkpt lat="45.574555" lon="7.844863">
        <ele>1251.03003</ele>
        <time>2024-10-15T08:26:40.000Z</time>
      </trkpt>
      <trkpt lat="45.574562" lon="7.84489">
        <ele>1251.08997</ele>
        <time>2024-10-15T08:26:42.000Z</time>
      </trkpt>
      <trkpt lat="45.574573" lon="7.844913">
        <ele>1251.18494</ele>
        <time>2024-10-15T08:26:45.000Z</time>
      </trkpt>
      <trkpt lat="45.57458" lon="7.84494">
        <ele>1251.30994</ele>
        <time>2024-10-15T08:26:47.000Z</time>
      </trkpt>
      <trkpt lat="45.574588" lon="7.844973">
        <ele>1251.41992</ele>
        <time>2024-10-15T08:26:49.000Z</time>
      </trkpt>
      <trkpt lat="45.574587" lon="7.845002">
        <ele>1251.53003</ele>
        <time>2024-10-15T08:26:51.000Z</time>
      </trkpt>
      <trkpt lat="45.574577" lon="7.84503">
        <ele>1251.62488</ele>
        <time>2024-10-15T08:26:53.000Z</time>
      </trkpt>
      <trkpt lat="45.574572" lon="7.845062">
        <ele>1251.70996</ele>
        <time>2024-10-15T08:26:55.000Z</time>
      </trkpt>
      <trkpt lat="45.574572" lon="7.845098">
        <ele>1251.82007</ele>
        <time>2024-10-15T08:26:58.000Z</time>
      </trkpt>
      <trkpt lat="45.574575" lon="7.845125">
        <ele>1251.94995</ele>
        <time>2024-10-15T08:27:01.000Z</time>
      </trkpt>
      <trkpt lat="45.574567" lon="7.84516">
        <ele>1252.09009</ele>
        <time>2024-10-15T08:27:03.000Z</time>
      </trkpt>
      <trkpt lat="45.574562" lon="7.845187">
        <ele>1252.19006</ele>
        <time>2024-10-15T08:27:05.000Z</time>
      </trkpt>
      <trkpt lat="45.574555" lon="7.845218">
        <ele>1252.28503</ele>
        <time>2024-10-15T08:27:08.000Z</time>
      </trkpt>
      <trkpt lat="45.574552" lon="7.845248">
        <ele>1252.39001</ele>
        <time>2024-10-15T08:27:10.000Z</time>
      </trkpt>
      <trkpt lat="45.574547" lon="7.84528">
        <ele>1252.55005</ele>
        <time>2024-10-15T08:27:14.000Z</time>
      </trkpt>
      <trkpt lat="45.574547" lon="7.845307">
        <ele>1252.755</ele>
        <time>2024-10-15T08:27:16.000Z</time>
      </trkpt>
      <trkpt lat="45.574565" lon="7.845327">
        <ele>1253.0</ele>
        <time>2024-10-15T08:27:20.000Z</time>
      </trkpt>
      <trkpt lat="45.574577" lon="7.845347">
        <ele>1253.30005</ele>
        <time>2024-10-15T08:27:23.000Z</time>
      </trkpt>
      <trkpt lat="45.574572" lon="7.845375">
        <ele>1253.64502</ele>
        <time>2024-10-15T08:27:26.000Z</time>
      </trkpt>
      <trkpt lat="45.574547" lon="7.845387">
        <ele>1254.15503</ele>
        <time>2024-10-15T08:27:40.000Z</time>
      </trkpt>
      <trkpt lat="45.574515" lon="7.845362">
        <ele>1254.69507</ele>
        <time>2024-10-15T08:27:52.000Z</time>
      </trkpt>
      <trkpt lat="45.574497" lon="7.845342">
        <ele>1255.21008</ele>
        <time>2024-10-15T08:27:54.000Z</time>
      </trkpt>
      <trkpt lat="45.574472" lon="7.845315">
        <ele>1255.66504</ele>
        <time>2024-10-15T08:27:56.000Z</time>
      </trkpt>
      <trkpt lat="45.57445" lon="7.845292">
        <ele>1256.09009</ele>
        <time>2024-10-15T08:27:58.000Z</time>
      </trkpt>
      <trkpt lat="45.574433" lon="7.845282">
        <ele>1256.46509</ele>
        <time>2024-10-15T08:28:02.000Z</time>
      </trkpt>
      <trkpt lat="45.574457" lon="7.845282">
        <ele>1256.82996</ele>
        <time>2024-10-15T08:28:10.000Z</time>
      </trkpt>
      <trkpt lat="45.574475" lon="7.845278">
        <ele>1257.19995</ele>
        <time>2024-10-15T08:28:13.000Z</time>
      </trkpt>
      <trkpt lat="45.574535" lon="7.845375">
        <ele>1257.34998</ele>
        <time>2024-10-15T08:30:17.000Z</time>
      </trkpt>
      <trkpt lat="45.574517" lon="7.845353">
        <ele>1257.71497</ele>
        <time>2024-10-15T08:32:33.000Z</time>
      </trkpt>
      <trkpt lat="45.574497" lon="7.845348">
        <ele>1258.07983</ele>
        <time>2024-10-15T08:32:35.000Z</time>
      </trkpt>
      <trkpt lat="45.574475" lon="7.845345">
        <ele>1258.44995</ele>
        <time>2024-10-15T08:32:37.000Z</time>
      </trkpt>
      <trkpt lat="45.574495" lon="7.84545">
        <ele>1258.3999</ele>
        <time>2024-10-15T08:34:08.000Z</time>
      </trkpt>
      <trkpt lat="45.5745" lon="7.84548">
        <ele>1258.34985</ele>
        <time>2024-10-15T08:34:10.000Z</time>
      </trkpt>
      <trkpt lat="45.574502" lon="7.84551">
        <ele>1258.29492</ele>
        <time>2024-10-15T08:34:12.000Z</time>
      </trkpt>
      <trkpt lat="45.574502" lon="7.84554">
        <ele>1258.22986</ele>
        <time>2024-10-15T08:34:15.000Z</time>
      </trkpt>
      <trkpt lat="45.574507" lon="7.845567">
        <ele>1258.19995</ele>
        <time>2024-10-15T08:34:20.000Z</time>
      </trkpt>
      <trkpt lat="45.574518" lon="7.845635">
        <ele>1258.20483</ele>
        <time>2024-10-15T08:34:36.000Z</time>
      </trkpt>
      <trkpt lat="45.574528" lon="7.845665">
        <ele>1258.20984</ele>
        <time>2024-10-15T08:34:38.000Z</time>
      </trkpt>
      <trkpt lat="45.574537" lon="7.845692">
        <ele>1258.20483</ele>
        <time>2024-10-15T08:34:40.000Z</time>
      </trkpt>
      <trkpt lat="45.574518" lon="7.845703">
        <ele>1258.32983</ele>
        <time>2024-10-15T08:34:49.000Z</time>
      </trkpt>
      <trkpt lat="45.574532" lon="7.845742">
        <ele>1258.5249</ele>
        <time>2024-10-15T08:35:01.000Z</time>
      </trkpt>
      <trkpt lat="45.574542" lon="7.845767">
        <ele>1258.73999</ele>
        <time>2024-10-15T08:35:03.000Z</time>
      </trkpt>
      <trkpt lat="45.574553" lon="7.845793">
        <ele>1259.01001</ele>
        <time>2024-10-15T08:35:06.000Z</time>
      </trkpt>
      <trkpt lat="45.574562" lon="7.845817">
        <ele>1259.30005</ele>
        <time>2024-10-15T08:35:08.000Z</time>
      </trkpt>
      <trkpt lat="45.574558" lon="7.845843">
        <ele>1259.67993</ele>
        <time>2024-10-15T08:35:13.000Z</time>
      </trkpt>
      <trkpt lat="45.57456" lon="7.845878">
        <ele>1260.06506</ele>
        <time>2024-10-15T08:35:16.000Z</time>
      </trkpt>
      <trkpt lat="45.57457" lon="7.845902">
        <ele>1260.46008</ele>
        <time>2024-10-15T08:35:19.000Z</time>
      </trkpt>
      <trkpt lat="45.574585" lon="7.845922">
        <ele>1261.07495</ele>
        <time>2024-10-15T08:35:22.000Z</time>
      </trkpt>
      <trkpt lat="45.574592" lon="7.84595">
        <ele>1261.43506</ele>
        <time>2024-10-15T08:35:25.000Z</time>
      </trkpt>
      <trkpt lat="45.574607" lon="7.845975">
        <ele>1261.76514</ele>
        <time>2024-10-15T08:35:27.000Z</time>
      </trkpt>
      <trkpt lat="45.574612" lon="7.846">
        <ele>1262.05505</ele>
        <time>2024-10-15T08:35:31.000Z</time>
      </trkpt>
      <trkpt lat="45.574605" lon="7.846033">
        <ele>1262.74512</ele>
        <time>2024-10-15T08:35:34.000Z</time>
      </trkpt>
      <trkpt lat="45.57459" lon="7.846063">
        <ele>1263.39514</ele>
        <time>2024-10-15T08:35:37.000Z</time>
      </trkpt>
      <trkpt lat="45.574572" lon="7.846083">
        <ele>1264.03015</ele>
        <time>2024-10-15T08:35:39.000Z</time>
      </trkpt>
      <trkpt lat="45.574547" lon="7.846092">
        <ele>1264.63525</ele>
        <time>2024-10-15T08:35:41.000Z</time>
      </trkpt>
      <trkpt lat="45.574517" lon="7.8461">
        <ele>1265.16528</ele>
        <time>2024-10-15T08:35:43.000Z</time>
      </trkpt>
      <trkpt lat="45.574493" lon="7.846113">
        <ele>1265.60522</ele>
        <time>2024-10-15T08:35:46.000Z</time>
      </trkpt>
      <trkpt lat="45.574488" lon="7.846138">
        <ele>1266.04028</ele>
        <time>2024-10-15T08:35:48.000Z</time>
      </trkpt>
      <trkpt lat="45.574512" lon="7.846148">
        <ele>1266.50024</ele>
        <time>2024-10-15T08:35:54.000Z</time>
      </trkpt>
      <trkpt lat="45.57453" lon="7.846152">
        <ele>1266.71033</ele>
        <time>2024-10-15T08:35:56.000Z</time>
      </trkpt>
      <trkpt lat="45.574552" lon="7.846162">
        <ele>1266.83533</ele>
        <time>2024-10-15T08:35:58.000Z</time>
      </trkpt>
      <trkpt lat="45.574565" lon="7.84618">
        <ele>1266.9303</ele>
        <time>2024-10-15T08:36:01.000Z</time>
      </trkpt>
      <trkpt lat="45.574572" lon="7.846207">
        <ele>1267.00525</ele>
        <time>2024-10-15T08:36:05.000Z</time>
      </trkpt>
      <trkpt lat="45.574555" lon="7.846227">
        <ele>1267.09521</ele>
        <time>2024-10-15T08:36:07.000Z</time>
      </trkpt>
      <trkpt lat="45.574547" lon="7.84625">
        <ele>1267.15015</ele>
        <time>2024-10-15T08:36:09.000Z</time>
      </trkpt>
      <trkpt lat="45.574532" lon="7.846277">
        <ele>1267.21509</ele>
        <time>2024-10-15T08:36:12.000Z</time>
      </trkpt>
      <trkpt lat="45.574518" lon="7.846297">
        <ele>1267.28516</ele>
        <time>2024-10-15T08:36:14.000Z</time>
      </trkpt>
      <trkpt lat="45.574503" lon="7.84632">
        <ele>1267.35522</ele>
        <time>2024-10-15T08:36:17.000Z</time>
      </trkpt>
      <trkpt lat="45.574488" lon="7.846343">
        <ele>1267.43018</ele>
        <time>2024-10-15T08:36:20.000Z</time>
      </trkpt>
      <trkpt lat="45.57448" lon="7.846372">
        <ele>1267.56018</ele>
        <time>2024-10-15T08:36:24.000Z</time>
      </trkpt>
      <trkpt lat="45.57447" lon="7.846395">
        <ele>1267.75513</ele>
        <time>2024-10-15T08:36:27.000Z</time>
      </trkpt>
      <trkpt lat="45.57446" lon="7.846428">
        <ele>1267.9751</ele>
        <time>2024-10-15T08:36:30.000Z</time>
      </trkpt>
      <trkpt lat="45.574452" lon="7.846452">
        <ele>1268.2251</ele>
        <time>2024-10-15T08:36:32.000Z</time>
      </trkpt>
      <trkpt lat="45.574438" lon="7.846475">
        <ele>1268.48511</ele>
        <time>2024-10-15T08:36:34.000Z</time>
      </trkpt>
      <trkpt lat="45.574423" lon="7.846492">
        <ele>1268.755</ele>
        <time>2024-10-15T08:36:36.000Z</time>
      </trkpt>
      <trkpt lat="45.574408" lon="7.846512">
        <ele>1269.05994</ele>
        <time>2024-10-15T08:36:38.000Z</time>
      </trkpt>
      <trkpt lat="45.5744" lon="7.846537">
        <ele>1269.3949</ele>
        <time>2024-10-15T08:36:41.000Z</time>
      </trkpt>
      <trkpt lat="45.574382" lon="7.846563">
        <ele>1269.74988</ele>
        <time>2024-10-15T08:36:44.000Z</time>
      </trkpt>
      <trkpt lat="45.57437" lon="7.846595">
        <ele>1270.1449</ele>
        <time>2024-10-15T08:36:47.000Z</time>
      </trkpt>
      <trkpt lat="45.57435" lon="7.84662">
        <ele>1270.56995</ele>
        <time>2024-10-15T08:36:51.000Z</time>
      </trkpt>
      <trkpt lat="45.574342" lon="7.846648">
        <ele>1271.03992</ele>
        <time>2024-10-15T08:36:54.000Z</time>
      </trkpt>
      <trkpt lat="45.574338" lon="7.846682">
        <ele>1271.55493</ele>
        <time>2024-10-15T08:36:56.000Z</time>
      </trkpt>
      <trkpt lat="45.574347" lon="7.846657">
        <ele>1272.23499</ele>
        <time>2024-10-15T08:37:05.000Z</time>
      </trkpt>
      <trkpt lat="45.574327" lon="7.84667">
        <ele>1272.79504</ele>
        <time>2024-10-15T08:37:37.000Z</time>
      </trkpt>
      <trkpt lat="45.574308" lon="7.846698">
        <ele>1273.34009</ele>
        <time>2024-10-15T08:37:40.000Z</time>
      </trkpt>
      <trkpt lat="45.574293" lon="7.846718">
        <ele>1273.86499</ele>
        <time>2024-10-15T08:37:42.000Z</time>
      </trkpt>
      <trkpt lat="45.574283" lon="7.84674">
        <ele>1274.36499</ele>
        <time>2024-10-15T08:37:44.000Z</time>
      </trkpt>
      <trkpt lat="45.57427" lon="7.846772">
        <ele>1274.8551</ele>
        <time>2024-10-15T08:37:47.000Z</time>
      </trkpt>
      <trkpt lat="45.574252" lon="7.84679">
        <ele>1275.34998</ele>
        <time>2024-10-15T08:37:49.000Z</time>
      </trkpt>
      <trkpt lat="45.574235" lon="7.846808">
        <ele>1275.83496</ele>
        <time>2024-10-15T08:37:52.000Z</time>
      </trkpt>
      <trkpt lat="45.57423" lon="7.846833">
        <ele>1276.33496</ele>
        <time>2024-10-15T08:37:55.000Z</time>
      </trkpt>
      <trkpt lat="45.574222" lon="7.846862">
        <ele>1276.85498</ele>
        <time>2024-10-15T08:37:58.000Z</time>
      </trkpt>
      <trkpt lat="45.574215" lon="7.846897">
        <ele>1277.41492</ele>
        <time>2024-10-15T08:38:02.000Z</time>
      </trkpt>
      <trkpt lat="45.574205" lon="7.84693">
        <ele>1278.005</ele>
        <time>2024-10-15T08:38:05.000Z</time>
      </trkpt>
      <trkpt lat="45.574193" lon="7.846953">
        <ele>1278.63</ele>
        <time>2024-10-15T08:38:07.000Z</time>
      </trkpt>
      <trkpt lat="45.574185" lon="7.846985">
        <ele>1279.29504</ele>
        <time>2024-10-15T08:38:10.000Z</time>
      </trkpt>
      <trkpt lat="45.57417" lon="7.847012">
        <ele>1280.00012</ele>
        <time>2024-10-15T08:38:13.000Z</time>
      </trkpt>
      <trkpt lat="45.57416" lon="7.847043">
        <ele>1280.70007</ele>
        <time>2024-10-15T08:38:16.000Z</time>
      </trkpt>
      <trkpt lat="45.574152" lon="7.847077">
        <ele>1281.34509</ele>
        <time>2024-10-15T08:38:19.000Z</time>
      </trkpt>
      <trkpt lat="45.57414" lon="7.847103">
        <ele>1281.97009</ele>
        <time>2024-10-15T08:38:22.000Z</time>
      </trkpt>
      <trkpt lat="45.574127" lon="7.847132">
        <ele>1282.56006</ele>
        <time>2024-10-15T08:38:25.000Z</time>
      </trkpt>
      <trkpt lat="45.574113" lon="7.847167">
        <ele>1283.1001</ele>
        <time>2024-10-15T08:38:28.000Z</time>
      </trkpt>
      <trkpt lat="45.574105" lon="7.847197">
        <ele>1283.47009</ele>
        <time>2024-10-15T08:38:30.000Z</time>
      </trkpt>
      <trkpt lat="45.574098" lon="7.847233">
        <ele>1283.97009</ele>
        <time>2024-10-15T08:38:33.000Z</time>
      </trkpt>
      <trkpt lat="45.57409" lon="7.84726">
        <ele>1284.49512</ele>
        <time>2024-10-15T08:38:35.000Z</time>
      </trkpt>
      <trkpt lat="45.574077" lon="7.847287">
        <ele>1285.0802</ele>
        <time>2024-10-15T08:38:38.000Z</time>
      </trkpt>
      <trkpt lat="45.574067" lon="7.84731">
        <ele>1285.69507</ele>
        <time>2024-10-15T08:38:40.000Z</time>
      </trkpt>
      <trkpt lat="45.574052" lon="7.847338">
        <ele>1286.33008</ele>
        <time>2024-10-15T08:38:42.000Z</time>
      </trkpt>
      <trkpt lat="45.574052" lon="7.847367">
        <ele>1286.9801</ele>
        <time>2024-10-15T08:38:44.000Z</time>
      </trkpt>
      <trkpt lat="45.574045" lon="7.847395">
        <ele>1287.68005</ele>
        <time>2024-10-15T08:38:47.000Z</time>
      </trkpt>
      <trkpt lat="45.57404" lon="7.847422">
        <ele>1288.41003</ele>
        <time>2024-10-15T08:38:49.000Z</time>
      </trkpt>
      <trkpt lat="45.574033" lon="7.847455">
        <ele>1289.19006</ele>
        <time>2024-10-15T08:38:52.000Z</time>
      </trkpt>
      <trkpt lat="45.574035" lon="7.847495">
        <ele>1289.995</ele>
        <time>2024-10-15T08:38:55.000Z</time>
      </trkpt>
      <trkpt lat="45.574037" lon="7.84753">
        <ele>1290.79504</ele>
        <time>2024-10-15T08:38:57.000Z</time>
      </trkpt>
      <trkpt lat="45.574037" lon="7.847563">
        <ele>1291.58008</ele>
        <time>2024-10-15T08:38:59.000Z</time>
      </trkpt>
      <trkpt lat="45.574038" lon="7.847592">
        <ele>1292.34497</ele>
        <time>2024-10-15T08:39:01.000Z</time>
      </trkpt>
      <trkpt lat="45.574055" lon="7.847622">
        <ele>1293.15991</ele>
        <time>2024-10-15T08:39:05.000Z</time>
      </trkpt>
      <trkpt lat="45.574057" lon="7.847657">
        <ele>1293.97998</ele>
        <time>2024-10-15T08:39:07.000Z</time>
      </trkpt>
      <trkpt lat="45.574065" lon="7.84768">
        <ele>1294.78491</ele>
        <time>2024-10-15T08:39:09.000Z</time>
      </trkpt>
      <trkpt lat="45.57408" lon="7.847697">
        <ele>1295.53992</ele>
        <time>2024-10-15T08:39:11.000Z</time>
      </trkpt>
      <trkpt lat="45.574098" lon="7.84772">
        <ele>1296.2699</ele>
        <time>2024-10-15T08:39:13.000Z</time>
      </trkpt>
      <trkpt lat="45.574113" lon="7.84775">
        <ele>1297.02991</ele>
        <time>2024-10-15T08:39:15.000Z</time>
      </trkpt>
      <trkpt lat="45.574122" lon="7.847782">
        <ele>1297.80493</ele>
        <time>2024-10-15T08:39:17.000Z</time>
      </trkpt>
      <trkpt lat="45.574135" lon="7.847803">
        <ele>1298.52991</ele>
        <time>2024-10-15T08:39:20.000Z</time>
      </trkpt>
      <trkpt lat="45.574147" lon="7.847825">
        <ele>1299.23486</ele>
        <time>2024-10-15T08:39:23.000Z</time>
      </trkpt>
      <trkpt lat="45.574163" lon="7.847852">
        <ele>1299.88489</ele>
        <time>2024-10-15T08:39:25.000Z</time>
      </trkpt>
      <trkpt lat="45.574175" lon="7.847882">
        <ele>1300.5199</ele>
        <time>2024-10-15T08:39:27.000Z</time>
      </trkpt>
      <trkpt lat="45.574192" lon="7.847908">
        <ele>1301.13989</ele>
        <time>2024-10-15T08:39:29.000Z</time>
      </trkpt>
      <trkpt lat="45.574207" lon="7.847932">
        <ele>1301.71997</ele>
        <time>2024-10-15T08:39:31.000Z</time>
      </trkpt>
      <trkpt lat="45.574217" lon="7.847953">
        <ele>1302.22498</ele>
        <time>2024-10-15T08:39:33.000Z</time>
      </trkpt>
      <trkpt lat="45.574228" lon="7.847973">
        <ele>1302.65002</ele>
        <time>2024-10-15T08:39:35.000Z</time>
      </trkpt>
      <trkpt lat="45.574242" lon="7.848003">
        <ele>1302.995</ele>
        <time>2024-10-15T08:39:37.000Z</time>
      </trkpt>
      <trkpt lat="45.574263" lon="7.848032">
        <ele>1303.29504</ele>
        <time>2024-10-15T08:39:39.000Z</time>
      </trkpt>
      <trkpt lat="45.574275" lon="7.848055">
        <ele>1303.57996</ele>
        <time>2024-10-15T08:39:41.000Z</time>
      </trkpt>
      <trkpt lat="45.574287" lon="7.848077">
        <ele>1303.83997</ele>
        <time>2024-10-15T08:39:43.000Z</time>
      </trkpt>
      <trkpt lat="45.574303" lon="7.848093">
        <ele>1304.08496</ele>
        <time>2024-10-15T08:39:45.000Z</time>
      </trkpt>
      <trkpt lat="45.574327" lon="7.848107">
        <ele>1304.26001</ele>
        <time>2024-10-15T08:39:47.000Z</time>
      </trkpt>
      <trkpt lat="45.57435" lon="7.84813">
        <ele>1304.46997</ele>
        <time>2024-10-15T08:39:50.000Z</time>
      </trkpt>
      <trkpt lat="45.574367" lon="7.848157">
        <ele>1304.69995</ele>
        <time>2024-10-15T08:39:53.000Z</time>
      </trkpt>
      <trkpt lat="45.574377" lon="7.848185">
        <ele>1304.96484</ele>
        <time>2024-10-15T08:39:55.000Z</time>
      </trkpt>
      <trkpt lat="45.574387" lon="7.848218">
        <ele>1305.24487</ele>
        <time>2024-10-15T08:39:57.000Z</time>
      </trkpt>
      <trkpt lat="45.574393" lon="7.848255">
        <ele>1305.51001</ele>
        <time>2024-10-15T08:39:59.000Z</time>
      </trkpt>
      <trkpt lat="45.574403" lon="7.848285">
        <ele>1305.76001</ele>
        <time>2024-10-15T08:40:01.000Z</time>
      </trkpt>
      <trkpt lat="45.574392" lon="7.848318">
        <ele>1306.03003</ele>
        <time>2024-10-15T08:40:03.000Z</time>
      </trkpt>
      <trkpt lat="45.574372" lon="7.84835">
        <ele>1306.29504</ele>
        <time>2024-10-15T08:40:05.000Z</time>
      </trkpt>
      <trkpt lat="45.57436" lon="7.848388">
        <ele>1306.57495</ele>
        <time>2024-10-15T08:40:07.000Z</time>
      </trkpt>
      <trkpt lat="45.574367" lon="7.848428">
        <ele>1306.88</ele>
        <time>2024-10-15T08:40:09.000Z</time>
      </trkpt>
      <trkpt lat="45.574378" lon="7.848462">
        <ele>1307.21497</ele>
        <time>2024-10-15T08:40:11.000Z</time>
      </trkpt>
      <trkpt lat="45.574407" lon="7.848487">
        <ele>1307.58997</ele>
        <time>2024-10-15T08:40:13.000Z</time>
      </trkpt>
      <trkpt lat="45.574433" lon="7.848505">
        <ele>1308.01489</ele>
        <time>2024-10-15T08:40:15.000Z</time>
      </trkpt>
      <trkpt lat="45.574452" lon="7.848522">
        <ele>1308.47998</ele>
        <time>2024-10-15T08:40:17.000Z</time>
      </trkpt>
      <trkpt lat="45.57447" lon="7.848528">
        <ele>1309.02002</ele>
        <time>2024-10-15T08:40:20.000Z</time>
      </trkpt>
      <trkpt lat="45.574487" lon="7.848548">
        <ele>1309.54504</ele>
        <time>2024-10-15T08:40:23.000Z</time>
      </trkpt>
      <trkpt lat="45.574507" lon="7.848572">
        <ele>1310.07007</ele>
        <time>2024-10-15T08:40:26.000Z</time>
      </trkpt>
      <trkpt lat="45.57453" lon="7.848585">
        <ele>1310.62</ele>
        <time>2024-10-15T08:40:29.000Z</time>
      </trkpt>
      <trkpt lat="45.574545" lon="7.848605">
        <ele>1311.15503</ele>
        <time>2024-10-15T08:40:31.000Z</time>
      </trkpt>
      <trkpt lat="45.57456" lon="7.848632">
        <ele>1311.67993</ele>
        <time>2024-10-15T08:40:33.000Z</time>
      </trkpt>
      <trkpt lat="45.574572" lon="7.848668">
        <ele>1312.15002</ele>
        <time>2024-10-15T08:40:35.000Z</time>
      </trkpt>
      <trkpt lat="45.574578" lon="7.848705">
        <ele>1312.61011</ele>
        <time>2024-10-15T08:40:37.000Z</time>
      </trkpt>
      <trkpt lat="45.574587" lon="7.84873">
        <ele>1313.05005</ele>
        <time>2024-10-15T08:40:39.000Z</time>
      </trkpt>
      <trkpt lat="45.574593" lon="7.848762">
        <ele>1313.46509</ele>
        <time>2024-10-15T08:40:41.000Z</time>
      </trkpt>
      <trkpt lat="45.574595" lon="7.848788">
        <ele>1313.89001</ele>
        <time>2024-10-15T08:40:43.000Z</time>
      </trkpt>
      <trkpt lat="45.574605" lon="7.84882">
        <ele>1314.31506</ele>
        <time>2024-10-15T08:40:45.000Z</time>
      </trkpt>
      <trkpt lat="45.574613" lon="7.848857">
        <ele>1314.73999</ele>
        <time>2024-10-15T08:40:47.000Z</time>
      </trkpt>
      <trkpt lat="45.574627" lon="7.848885">
        <ele>1315.17004</ele>
        <time>2024-10-15T08:40:49.000Z</time>
      </trkpt>
      <trkpt lat="45.574645" lon="7.848925">
        <ele>1315.58496</ele>
        <time>2024-10-15T08:40:51.000Z</time>
      </trkpt>
      <trkpt lat="45.574655" lon="7.848965">
        <ele>1315.98499</ele>
        <time>2024-10-15T08:40:53.000Z</time>
      </trkpt>
      <trkpt lat="45.574663" lon="7.849">
        <ele>1316.38</ele>
        <time>2024-10-15T08:40:55.000Z</time>
      </trkpt>
      <trkpt lat="45.574673" lon="7.849032">
        <ele>1316.7699</ele>
        <time>2024-10-15T08:40:57.000Z</time>
      </trkpt>
      <trkpt lat="45.574685" lon="7.849058">
        <ele>1317.13</ele>
        <time>2024-10-15T08:40:59.000Z</time>
      </trkpt>
      <trkpt lat="45.5747" lon="7.849082">
        <ele>1317.46997</ele>
        <time>2024-10-15T08:41:01.000Z</time>
      </trkpt>
      <trkpt lat="45.574713" lon="7.849105">
        <ele>1317.74988</ele>
        <time>2024-10-15T08:41:03.000Z</time>
      </trkpt>
      <trkpt lat="45.574728" lon="7.849123">
        <ele>1318.0249</ele>
        <time>2024-10-15T08:41:05.000Z</time>
      </trkpt>
      <trkpt lat="45.574742" lon="7.84915">
        <ele>1318.28992</ele>
        <time>2024-10-15T08:41:07.000Z</time>
      </trkpt>
      <trkpt lat="45.574752" lon="7.849185">
        <ele>1318.54492</ele>
        <time>2024-10-15T08:41:09.000Z</time>
      </trkpt>
      <trkpt lat="45.574758" lon="7.849218">
        <ele>1318.80994</ele>
        <time>2024-10-15T08:41:11.000Z</time>
      </trkpt>
      <trkpt lat="45.574768" lon="7.849245">
        <ele>1319.05994</ele>
        <time>2024-10-15T08:41:13.000Z</time>
      </trkpt>
      <trkpt lat="45.57478" lon="7.849265">
        <ele>1319.32996</ele>
        <time>2024-10-15T08:41:16.000Z</time>
      </trkpt>
      <trkpt lat="45.574795" lon="7.849282">
        <ele>1319.61499</ele>
        <time>2024-10-15T08:41:18.000Z</time>
      </trkpt>
      <trkpt lat="45.574818" lon="7.849303">
        <ele>1319.96997</ele>
        <time>2024-10-15T08:41:21.000Z</time>
      </trkpt>
      <trkpt lat="45.57484" lon="7.849322">
        <ele>1320.48499</ele>
        <time>2024-10-15T08:41:25.000Z</time>
      </trkpt>
      <trkpt lat="45.574853" lon="7.849347">
        <ele>1321.07983</ele>
        <time>2024-10-15T08:41:28.000Z</time>
      </trkpt>
      <trkpt lat="45.574862" lon="7.84937">
        <ele>1321.70483</ele>
        <time>2024-10-15T08:41:31.000Z</time>
      </trkpt>
      <trkpt lat="45.574873" lon="7.849395">
        <ele>1322.36487</ele>
        <time>2024-10-15T08:41:36.000Z</time>
      </trkpt>
      <trkpt lat="45.574887" lon="7.849418">
        <ele>1322.98486</ele>
        <time>2024-10-15T08:41:40.000Z</time>
      </trkpt>
      <trkpt lat="45.574902" lon="7.849437">
        <ele>1323.58484</ele>
        <time>2024-10-15T08:41:44.000Z</time>
      </trkpt>
      <trkpt lat="45.574908" lon="7.849468">
        <ele>1324.16479</ele>
        <time>2024-10-15T08:41:48.000Z</time>
      </trkpt>
      <trkpt lat="45.574918" lon="7.849498">
        <ele>1324.71985</ele>
        <time>2024-10-15T08:41:51.000Z</time>
      </trkpt>
      <trkpt lat="45.57493" lon="7.849518">
        <ele>1325.25989</ele>
        <time>2024-10-15T08:41:53.000Z</time>
      </trkpt>
      <trkpt lat="45.574947" lon="7.849547">
        <ele>1325.7998</ele>
        <time>2024-10-15T08:41:56.000Z</time>
      </trkpt>
      <trkpt lat="45.574947" lon="7.84958">
        <ele>1326.33484</ele>
        <time>2024-10-15T08:41:59.000Z</time>
      </trkpt>
      <trkpt lat="45.574948" lon="7.849618">
        <ele>1326.85486</ele>
        <time>2024-10-15T08:42:02.000Z</time>
      </trkpt>
      <trkpt lat="45.574943" lon="7.849645">
        <ele>1327.37488</ele>
        <time>2024-10-15T08:42:04.000Z</time>
      </trkpt>
      <trkpt lat="45.574943" lon="7.84968">
        <ele>1327.86487</ele>
        <time>2024-10-15T08:42:07.000Z</time>
      </trkpt>
      <trkpt lat="45.574932" lon="7.84972">
        <ele>1328.33484</ele>
        <time>2024-10-15T08:42:10.000Z</time>
      </trkpt>
      <trkpt lat="45.574925" lon="7.849747">
        <ele>1328.7749</ele>
        <time>2024-10-15T08:42:12.000Z</time>
      </trkpt>
      <trkpt lat="45.574913" lon="7.849772">
        <ele>1329.19495</ele>
        <time>2024-10-15T08:42:14.000Z</time>
      </trkpt>
      <trkpt lat="45.574907" lon="7.849805">
        <ele>1329.57495</ele>
        <time>2024-10-15T08:42:17.000Z</time>
      </trkpt>
      <trkpt lat="45.574907" lon="7.849833">
        <ele>1329.92493</ele>
        <time>2024-10-15T08:42:19.000Z</time>
      </trkpt>
      <trkpt lat="45.574912" lon="7.84987">
        <ele>1330.19495</ele>
        <time>2024-10-15T08:42:21.000Z</time>
      </trkpt>
      <trkpt lat="45.574918" lon="7.849912">
        <ele>1330.32495</ele>
        <time>2024-10-15T08:42:23.000Z</time>
      </trkpt>
      <trkpt lat="45.574928" lon="7.849953">
        <ele>1330.36987</ele>
        <time>2024-10-15T08:42:25.000Z</time>
      </trkpt>
      <trkpt lat="45.57495" lon="7.849967">
        <ele>1330.3999</ele>
        <time>2024-10-15T08:42:28.000Z</time>
      </trkpt>
      <trkpt lat="45.574968" lon="7.849965">
        <ele>1330.41992</ele>
        <time>2024-10-15T08:42:31.000Z</time>
      </trkpt>
      <trkpt lat="45.57499" lon="7.849968">
        <ele>1330.47986</ele>
        <time>2024-10-15T08:42:33.000Z</time>
      </trkpt>
      <trkpt lat="45.57501" lon="7.849978">
        <ele>1330.57495</ele>
        <time>2024-10-15T08:42:36.000Z</time>
      </trkpt>
      <trkpt lat="45.575025" lon="7.849998">
        <ele>1330.67993</ele>
        <time>2024-10-15T08:42:38.000Z</time>
      </trkpt>
      <trkpt lat="45.575037" lon="7.850022">
        <ele>1330.77991</ele>
        <time>2024-10-15T08:42:40.000Z</time>
      </trkpt>
      <trkpt lat="45.575048" lon="7.850053">
        <ele>1330.86987</ele>
        <time>2024-10-15T08:42:42.000Z</time>
      </trkpt>
      <trkpt lat="45.575062" lon="7.850083">
        <ele>1330.92493</ele>
        <time>2024-10-15T08:42:44.000Z</time>
      </trkpt>
      <trkpt lat="45.575078" lon="7.850105">
        <ele>1330.95984</ele>
        <time>2024-10-15T08:42:46.000Z</time>
      </trkpt>
      <trkpt lat="45.5751" lon="7.850125">
        <ele>1330.99976</ele>
        <time>2024-10-15T08:42:48.000Z</time>
      </trkpt>
      <trkpt lat="45.575117" lon="7.85015">
        <ele>1331.03979</ele>
        <time>2024-10-15T08:42:50.000Z</time>
      </trkpt>
      <trkpt lat="45.575138" lon="7.850182">
        <ele>1331.10486</ele>
        <time>2024-10-15T08:42:52.000Z</time>
      </trkpt>
      <trkpt lat="45.575152" lon="7.8502">
        <ele>1331.17993</ele>
        <time>2024-10-15T08:42:53.000Z</time>
      </trkpt>
      <trkpt lat="45.575162" lon="7.850233">
        <ele>1331.27478</ele>
        <time>2024-10-15T08:42:55.000Z</time>
      </trkpt>
      <trkpt lat="45.575167" lon="7.850265">
        <ele>1331.38989</ele>
        <time>2024-10-15T08:42:57.000Z</time>
      </trkpt>
      <trkpt lat="45.57517" lon="7.850292">
        <ele>1331.49976</ele>
        <time>2024-10-15T08:42:59.000Z</time>
      </trkpt>
      <trkpt lat="45.575183" lon="7.850312">
        <ele>1331.60974</ele>
        <time>2024-10-15T08:43:01.000Z</time>
      </trkpt>
      <trkpt lat="45.575202" lon="7.850337">
        <ele>1331.69983</ele>
        <time>2024-10-15T08:43:03.000Z</time>
      </trkpt>
      <trkpt lat="45.575218" lon="7.85036">
        <ele>1331.75476</ele>
        <time>2024-10-15T08:43:05.000Z</time>
      </trkpt>
      <trkpt lat="45.575245" lon="7.850373">
        <ele>1331.77979</ele>
        <time>2024-10-15T08:43:07.000Z</time>
      </trkpt>
      <trkpt lat="45.575272" lon="7.850388">
        <ele>1331.76489</ele>
        <time>2024-10-15T08:43:09.000Z</time>
      </trkpt>
      <trkpt lat="45.575297" lon="7.8504">
        <ele>1331.6748</ele>
        <time>2024-10-15T08:43:11.000Z</time>
      </trkpt>
      <trkpt lat="45.575318" lon="7.850402">
        <ele>1331.55493</ele>
        <time>2024-10-15T08:43:14.000Z</time>
      </trkpt>
      <trkpt lat="45.575333" lon="7.850422">
        <ele>1331.40491</ele>
        <time>2024-10-15T08:43:16.000Z</time>
      </trkpt>
      <trkpt lat="45.575352" lon="7.85044">
        <ele>1331.1499</ele>
        <time>2024-10-15T08:43:19.000Z</time>
      </trkpt>
      <trkpt lat="45.575368" lon="7.850457">
        <ele>1330.85498</ele>
        <time>2024-10-15T08:43:21.000Z</time>
      </trkpt>
      <trkpt lat="45.575398" lon="7.850475">
        <ele>1330.59497</ele>
        <time>2024-10-15T08:43:23.000Z</time>
      </trkpt>
      <trkpt lat="45.575418" lon="7.850483">
        <ele>1330.40503</ele>
        <time>2024-10-15T08:43:25.000Z</time>
      </trkpt>
      <trkpt lat="45.575443" lon="7.850488">
        <ele>1330.27002</ele>
        <time>2024-10-15T08:43:27.000Z</time>
      </trkpt>
      <trkpt lat="45.575468" lon="7.850498">
        <ele>1330.16003</ele>
        <time>2024-10-15T08:43:29.000Z</time>
      </trkpt>
      <trkpt lat="45.575497" lon="7.8505">
        <ele>1330.07007</ele>
        <time>2024-10-15T08:43:31.000Z</time>
      </trkpt>
      <trkpt lat="45.575527" lon="7.850512">
        <ele>1330.01001</ele>
        <time>2024-10-15T08:43:33.000Z</time>
      </trkpt>
      <trkpt lat="45.57555" lon="7.850522">
        <ele>1329.96497</ele>
        <time>2024-10-15T08:43:35.000Z</time>
      </trkpt>
      <trkpt lat="45.575575" lon="7.850535">
        <ele>1329.92993</ele>
        <time>2024-10-15T08:43:37.000Z</time>
      </trkpt>
      <trkpt lat="45.575602" lon="7.850545">
        <ele>1329.90503</ele>
        <time>2024-10-15T08:43:39.000Z</time>
      </trkpt>
      <trkpt lat="45.575623" lon="7.85055">
        <ele>1329.93494</ele>
        <time>2024-10-15T08:43:42.000Z</time>
      </trkpt>
      <trkpt lat="45.575652" lon="7.850538">
        <ele>1329.91504</ele>
        <time>2024-10-15T08:43:46.000Z</time>
      </trkpt>
      <trkpt lat="45.57567" lon="7.850537">
        <ele>1329.89502</ele>
        <time>2024-10-15T08:43:48.000Z</time>
      </trkpt>
      <trkpt lat="45.575688" lon="7.850542">
        <ele>1329.88501</ele>
        <time>2024-10-15T08:43:50.000Z</time>
      </trkpt>
      <trkpt lat="45.575708" lon="7.850547">
        <ele>1329.87012</ele>
        <time>2024-10-15T08:43:52.000Z</time>
      </trkpt>
      <trkpt lat="45.575727" lon="7.850567">
        <ele>1329.84509</ele>
        <time>2024-10-15T08:43:54.000Z</time>
      </trkpt>
      <trkpt lat="45.575747" lon="7.850593">
        <ele>1329.8302</ele>
        <time>2024-10-15T08:43:56.000Z</time>
      </trkpt>
      <trkpt lat="45.575755" lon="7.850627">
        <ele>1329.81018</ele>
        <time>2024-10-15T08:43:58.000Z</time>
      </trkpt>
      <trkpt lat="45.575767" lon="7.85067">
        <ele>1329.81018</ele>
        <time>2024-10-15T08:44:00.000Z</time>
      </trkpt>
      <trkpt lat="45.575778" lon="7.850712">
        <ele>1329.89526</ele>
        <time>2024-10-15T08:44:02.000Z</time>
      </trkpt>
      <trkpt lat="45.575782" lon="7.850738">
        <ele>1330.01514</ele>
        <time>2024-10-15T08:44:03.000Z</time>
      </trkpt>
      <trkpt lat="45.575787" lon="7.850783">
        <ele>1330.1001</ele>
        <time>2024-10-15T08:44:05.000Z</time>
      </trkpt>
      <trkpt lat="45.575792" lon="7.850825">
        <ele>1330.14014</ele>
        <time>2024-10-15T08:44:07.000Z</time>
      </trkpt>
      <trkpt lat="45.575793" lon="7.850852">
        <ele>1330.13013</ele>
        <time>2024-10-15T08:44:08.000Z</time>
      </trkpt>
      <trkpt lat="45.57581" lon="7.850873">
        <ele>1330.09509</ele>
        <time>2024-10-15T08:44:09.000Z</time>
      </trkpt>
      <trkpt lat="45.575833" lon="7.850913">
        <ele>1330.06519</ele>
        <time>2024-10-15T08:44:11.000Z</time>
      </trkpt>
      <trkpt lat="45.575845" lon="7.850935">
        <ele>1330.01514</ele>
        <time>2024-10-15T08:44:12.000Z</time>
      </trkpt>
      <trkpt lat="45.575865" lon="7.850967">
        <ele>1329.99011</ele>
        <time>2024-10-15T08:44:14.000Z</time>
      </trkpt>
      <trkpt lat="45.575867" lon="7.850998">
        <ele>1329.96509</ele>
        <time>2024-10-15T08:44:17.000Z</time>
      </trkpt>
      <trkpt lat="45.575878" lon="7.851035">
        <ele>1329.91516</ele>
        <time>2024-10-15T08:44:20.000Z</time>
      </trkpt>
      <trkpt lat="45.57589" lon="7.851067">
        <ele>1329.86011</ele>
        <time>2024-10-15T08:44:22.000Z</time>
      </trkpt>
      <trkpt lat="45.575902" lon="7.851097">
        <ele>1329.88513</ele>
        <time>2024-10-15T08:44:25.000Z</time>
      </trkpt>
      <trkpt lat="45.57591" lon="7.851132">
        <ele>1329.95007</ele>
        <time>2024-10-15T08:44:27.000Z</time>
      </trkpt>
      <trkpt lat="45.575913" lon="7.851158">
        <ele>1330.05505</ele>
        <time>2024-10-15T08:44:29.000Z</time>
      </trkpt>
      <trkpt lat="45.57592" lon="7.851188">
        <ele>1330.245</ele>
        <time>2024-10-15T08:44:32.000Z</time>
      </trkpt>
      <trkpt lat="45.575912" lon="7.85122">
        <ele>1330.51001</ele>
        <time>2024-10-15T08:44:35.000Z</time>
      </trkpt>
      <trkpt lat="45.575922" lon="7.851253">
        <ele>1330.84985</ele>
        <time>2024-10-15T08:44:38.000Z</time>
      </trkpt>
      <trkpt lat="45.575923" lon="7.851288">
        <ele>1331.22485</ele>
        <time>2024-10-15T08:44:41.000Z</time>
      </trkpt>
      <trkpt lat="45.575922" lon="7.851322">
        <ele>1331.59497</ele>
        <time>2024-10-15T08:44:44.000Z</time>
      </trkpt>
      <trkpt lat="45.575938" lon="7.851342">
        <ele>1332.0249</ele>
        <time>2024-10-15T08:44:47.000Z</time>
      </trkpt>
      <trkpt lat="45.575952" lon="7.851365">
        <ele>1332.5249</ele>
        <time>2024-10-15T08:44:51.000Z</time>
      </trkpt>
      <trkpt lat="45.575943" lon="7.85139">
        <ele>1333.24487</ele>
        <time>2024-10-15T08:45:32.000Z</time>
      </trkpt>
      <trkpt lat="45.57596" lon="7.851413">
        <ele>1333.98987</ele>
        <time>2024-10-15T08:45:37.000Z</time>
      </trkpt>
      <trkpt lat="45.57598" lon="7.851435">
        <ele>1334.78979</ele>
        <time>2024-10-15T08:45:48.000Z</time>
      </trkpt>
      <trkpt lat="45.575973" lon="7.851462">
        <ele>1335.60974</ele>
        <time>2024-10-15T08:45:51.000Z</time>
      </trkpt>
      <trkpt lat="45.575987" lon="7.851485">
        <ele>1336.4397</ele>
        <time>2024-10-15T08:45:54.000Z</time>
      </trkpt>
      <trkpt lat="45.575993" lon="7.85152">
        <ele>1337.2998</ele>
        <time>2024-10-15T08:45:59.000Z</time>
      </trkpt>
      <trkpt lat="45.575995" lon="7.851553">
        <ele>1338.14978</ele>
        <time>2024-10-15T08:46:03.000Z</time>
      </trkpt>
      <trkpt lat="45.575993" lon="7.851585">
        <ele>1338.99976</ele>
        <time>2024-10-15T08:46:06.000Z</time>
      </trkpt>
      <trkpt lat="45.575995" lon="7.851615">
        <ele>1339.88977</ele>
        <time>2024-10-15T08:46:11.000Z</time>
      </trkpt>
      <trkpt lat="45.575997" lon="7.851642">
        <ele>1340.74976</ele>
        <time>2024-10-15T08:46:14.000Z</time>
      </trkpt>
      <trkpt lat="45.576" lon="7.851668">
        <ele>1341.66479</ele>
        <time>2024-10-15T08:46:20.000Z</time>
      </trkpt>
      <trkpt lat="45.576002" lon="7.8517">
        <ele>1342.60974</ele>
        <time>2024-10-15T08:46:25.000Z</time>
      </trkpt>
      <trkpt lat="45.576003" lon="7.851728">
        <ele>1343.55981</ele>
        <time>2024-10-15T08:46:28.000Z</time>
      </trkpt>
      <trkpt lat="45.576012" lon="7.851755">
        <ele>1344.4397</ele>
        <time>2024-10-15T08:46:32.000Z</time>
      </trkpt>
      <trkpt lat="45.57603" lon="7.851778">
        <ele>1345.30981</ele>
        <time>2024-10-15T08:46:40.000Z</time>
      </trkpt>
      <trkpt lat="45.576042" lon="7.8518">
        <ele>1346.14978</ele>
        <time>2024-10-15T08:46:43.000Z</time>
      </trkpt>
      <trkpt lat="45.576062" lon="7.851822">
        <ele>1346.99487</ele>
        <time>2024-10-15T08:46:47.000Z</time>
      </trkpt>
      <trkpt lat="45.576087" lon="7.851827">
        <ele>1347.85474</ele>
        <time>2024-10-15T08:46:49.000Z</time>
      </trkpt>
      <trkpt lat="45.576103" lon="7.85185">
        <ele>1348.65979</ele>
        <time>2024-10-15T08:46:52.000Z</time>
      </trkpt>
      <trkpt lat="45.576117" lon="7.85188">
        <ele>1349.39978</ele>
        <time>2024-10-15T08:46:55.000Z</time>
      </trkpt>
      <trkpt lat="45.576123" lon="7.851907">
        <ele>1349.93982</ele>
        <time>2024-10-15T08:46:58.000Z</time>
      </trkpt>
      <trkpt lat="45.576137" lon="7.851925">
        <ele>1350.46484</ele>
        <time>2024-10-15T08:47:00.000Z</time>
      </trkpt>
      <trkpt lat="45.576143" lon="7.851957">
        <ele>1350.94995</ele>
        <time>2024-10-15T08:47:03.000Z</time>
      </trkpt>
      <trkpt lat="45.576152" lon="7.851982">
        <ele>1351.38501</ele>
        <time>2024-10-15T08:47:05.000Z</time>
      </trkpt>
      <trkpt lat="45.576163" lon="7.852005">
        <ele>1351.76489</ele>
        <time>2024-10-15T08:47:07.000Z</time>
      </trkpt>
      <trkpt lat="45.576173" lon="7.852027">
        <ele>1352.09497</ele>
        <time>2024-10-15T08:47:10.000Z</time>
      </trkpt>
      <trkpt lat="45.576188" lon="7.852048">
        <ele>1352.41492</ele>
        <time>2024-10-15T08:47:13.000Z</time>
      </trkpt>
      <trkpt lat="45.5762" lon="7.852068">
        <ele>1352.72485</ele>
        <time>2024-10-15T08:47:15.000Z</time>
      </trkpt>
      <trkpt lat="45.576215" lon="7.85209">
        <ele>1353.01001</ele>
        <time>2024-10-15T08:47:17.000Z</time>
      </trkpt>
      <trkpt lat="45.576237" lon="7.852105">
        <ele>1353.30493</ele>
        <time>2024-10-15T08:47:19.000Z</time>
      </trkpt>
      <trkpt lat="45.576248" lon="7.852127">
        <ele>1353.5249</ele>
        <time>2024-10-15T08:47:22.000Z</time>
      </trkpt>
      <trkpt lat="45.576255" lon="7.852163">
        <ele>1353.74487</ele>
        <time>2024-10-15T08:47:25.000Z</time>
      </trkpt>
      <trkpt lat="45.576263" lon="7.852187">
        <ele>1353.96997</ele>
        <time>2024-10-15T08:47:27.000Z</time>
      </trkpt>
      <trkpt lat="45.576258" lon="7.852213">
        <ele>1354.24487</ele>
        <time>2024-10-15T08:47:29.000Z</time>
      </trkpt>
      <trkpt lat="45.576265" lon="7.852242">
        <ele>1354.49988</ele>
        <time>2024-10-15T08:47:32.000Z</time>
      </trkpt>
      <trkpt lat="45.57628" lon="7.852267">
        <ele>1354.7749</ele>
        <time>2024-10-15T08:47:35.000Z</time>
      </trkpt>
      <trkpt lat="45.576293" lon="7.852285">
        <ele>1355.07495</ele>
        <time>2024-10-15T08:47:38.000Z</time>
      </trkpt>
      <trkpt lat="45.576292" lon="7.852313">
        <ele>1355.41992</ele>
        <time>2024-10-15T08:47:41.000Z</time>
      </trkpt>
      <trkpt lat="45.57629" lon="7.852345">
        <ele>1355.80994</ele>
        <time>2024-10-15T08:47:44.000Z</time>
      </trkpt>
      <trkpt lat="45.576293" lon="7.852372">
        <ele>1356.23499</ele>
        <time>2024-10-15T08:47:48.000Z</time>
      </trkpt>
      <trkpt lat="45.576302" lon="7.8524">
        <ele>1356.69495</ele>
        <time>2024-10-15T08:47:53.000Z</time>
      </trkpt>
      <trkpt lat="45.576317" lon="7.85243">
        <ele>1357.18494</ele>
        <time>2024-10-15T08:47:57.000Z</time>
      </trkpt>
      <trkpt lat="45.576325" lon="7.85246">
        <ele>1357.70996</ele>
        <time>2024-10-15T08:48:00.000Z</time>
      </trkpt>
      <trkpt lat="45.576335" lon="7.852493">
        <ele>1358.31494</ele>
        <time>2024-10-15T08:48:04.000Z</time>
      </trkpt>
      <trkpt lat="45.576342" lon="7.85253">
        <ele>1358.97498</ele>
        <time>2024-10-15T08:48:07.000Z</time>
      </trkpt>
      <trkpt lat="45.576357" lon="7.852558">
        <ele>1359.68494</ele>
        <time>2024-10-15T08:48:10.000Z</time>
      </trkpt>
      <trkpt lat="45.576375" lon="7.852582">
        <ele>1360.42004</ele>
        <time>2024-10-15T08:48:12.000Z</time>
      </trkpt>
      <trkpt lat="45.57639" lon="7.852602">
        <ele>1361.19507</ele>
        <time>2024-10-15T08:48:14.000Z</time>
      </trkpt>
      <trkpt lat="45.576408" lon="7.852615">
        <ele>1362.0</ele>
        <time>2024-10-15T08:48:16.000Z</time>
      </trkpt>
      <trkpt lat="45.576428" lon="7.852625">
        <ele>1362.83008</ele>
        <time>2024-10-15T08:48:18.000Z</time>
      </trkpt>
      <trkpt lat="45.576448" lon="7.852643">
        <ele>1363.67017</ele>
        <time>2024-10-15T08:48:21.000Z</time>
      </trkpt>
      <trkpt lat="45.576462" lon="7.852662">
        <ele>1364.50012</ele>
        <time>2024-10-15T08:48:23.000Z</time>
      </trkpt>
      <trkpt lat="45.576483" lon="7.852675">
        <ele>1365.3501</ele>
        <time>2024-10-15T08:48:26.000Z</time>
      </trkpt>
      <trkpt lat="45.576513" lon="7.852687">
        <ele>1366.20007</ele>
        <time>2024-10-15T08:48:28.000Z</time>
      </trkpt>
      <trkpt lat="45.576538" lon="7.852695">
        <ele>1367.04517</ele>
        <time>2024-10-15T08:48:30.000Z</time>
      </trkpt>
      <trkpt lat="45.576545" lon="7.852722">
        <ele>1367.88501</ele>
        <time>2024-10-15T08:48:33.000Z</time>
      </trkpt>
      <trkpt lat="45.57656" lon="7.852752">
        <ele>1368.66003</ele>
        <time>2024-10-15T08:48:36.000Z</time>
      </trkpt>
      <trkpt lat="45.576583" lon="7.852763">
        <ele>1369.3551</ele>
        <time>2024-10-15T08:48:39.000Z</time>
      </trkpt>
      <trkpt lat="45.576608" lon="7.852765">
        <ele>1370.02002</ele>
        <time>2024-10-15T08:48:41.000Z</time>
      </trkpt>
      <trkpt lat="45.576633" lon="7.852782">
        <ele>1370.64001</ele>
        <time>2024-10-15T08:48:43.000Z</time>
      </trkpt>
      <trkpt lat="45.57666" lon="7.85279">
        <ele>1371.23511</ele>
        <time>2024-10-15T08:48:45.000Z</time>
      </trkpt>
      <trkpt lat="45.57668" lon="7.852818">
        <ele>1371.79504</ele>
        <time>2024-10-15T08:48:48.000Z</time>
      </trkpt>
      <trkpt lat="45.576693" lon="7.852845">
        <ele>1372.27002</ele>
        <time>2024-10-15T08:48:50.000Z</time>
      </trkpt>
      <trkpt lat="45.576708" lon="7.852867">
        <ele>1372.67993</ele>
        <time>2024-10-15T08:48:52.000Z</time>
      </trkpt>
      <trkpt lat="45.576722" lon="7.852893">
        <ele>1373.04492</ele>
        <time>2024-10-15T08:48:54.000Z</time>
      </trkpt>
      <trkpt lat="45.576732" lon="7.852915">
        <ele>1373.35999</ele>
        <time>2024-10-15T08:48:56.000Z</time>
      </trkpt>
      <trkpt lat="45.576737" lon="7.852948">
        <ele>1373.60486</ele>
        <time>2024-10-15T08:48:59.000Z</time>
      </trkpt>
      <trkpt lat="45.576742" lon="7.852975">
        <ele>1373.79993</ele>
        <time>2024-10-15T08:49:02.000Z</time>
      </trkpt>
      <trkpt lat="45.57673" lon="7.853007">
        <ele>1374.00488</ele>
        <time>2024-10-15T08:49:06.000Z</time>
      </trkpt>
      <trkpt lat="45.576723" lon="7.853037">
        <ele>1374.1748</ele>
        <time>2024-10-15T08:49:09.000Z</time>
      </trkpt>
      <trkpt lat="45.57671" lon="7.853065">
        <ele>1374.32983</ele>
        <time>2024-10-15T08:49:11.000Z</time>
      </trkpt>
      <trkpt lat="45.576693" lon="7.853092">
        <ele>1374.46985</ele>
        <time>2024-10-15T08:49:13.000Z</time>
      </trkpt>
      <trkpt lat="45.576688" lon="7.853117">
        <ele>1374.57483</ele>
        <time>2024-10-15T08:49:15.000Z</time>
      </trkpt>
      <trkpt lat="45.576687" lon="7.853148">
        <ele>1374.69482</ele>
        <time>2024-10-15T08:49:18.000Z</time>
      </trkpt>
      <trkpt lat="45.5767" lon="7.853167">
        <ele>1374.80981</ele>
        <time>2024-10-15T08:49:20.000Z</time>
      </trkpt>
      <trkpt lat="45.576715" lon="7.85319">
        <ele>1374.8949</ele>
        <time>2024-10-15T08:49:22.000Z</time>
      </trkpt>
      <trkpt lat="45.57672" lon="7.85322">
        <ele>1374.99988</ele>
        <time>2024-10-15T08:49:26.000Z</time>
      </trkpt>
      <trkpt lat="45.57672" lon="7.853247">
        <ele>1375.1499</ele>
        <time>2024-10-15T08:49:32.000Z</time>
      </trkpt>
      <trkpt lat="45.576717" lon="7.853282">
        <ele>1375.33496</ele>
        <time>2024-10-15T08:49:35.000Z</time>
      </trkpt>
      <trkpt lat="45.576705" lon="7.853313">
        <ele>1375.5249</ele>
        <time>2024-10-15T08:49:38.000Z</time>
      </trkpt>
      <trkpt lat="45.576712" lon="7.85334">
        <ele>1375.69995</ele>
        <time>2024-10-15T08:49:41.000Z</time>
      </trkpt>
      <trkpt lat="45.576732" lon="7.853363">
        <ele>1375.91492</ele>
        <time>2024-10-15T08:49:44.000Z</time>
      </trkpt>
      <trkpt lat="45.576743" lon="7.85339">
        <ele>1376.21497</ele>
        <time>2024-10-15T08:49:48.000Z</time>
      </trkpt>
      <trkpt lat="45.576757" lon="7.85341">
        <ele>1376.58997</ele>
        <time>2024-10-15T08:49:52.000Z</time>
      </trkpt>
      <trkpt lat="45.576757" lon="7.853437">
        <ele>1377.03992</ele>
        <time>2024-10-15T08:49:56.000Z</time>
      </trkpt>
      <trkpt lat="45.576762" lon="7.85347">
        <ele>1377.55493</ele>
        <time>2024-10-15T08:50:05.000Z</time>
      </trkpt>
      <trkpt lat="45.576765" lon="7.853498">
        <ele>1378.09497</ele>
        <time>2024-10-15T08:50:09.000Z</time>
      </trkpt>
      <trkpt lat="45.576777" lon="7.853522">
        <ele>1378.66003</ele>
        <time>2024-10-15T08:50:12.000Z</time>
      </trkpt>
      <trkpt lat="45.576778" lon="7.853558">
        <ele>1379.19507</ele>
        <time>2024-10-15T08:50:15.000Z</time>
      </trkpt>
      <trkpt lat="45.576777" lon="7.853592">
        <ele>1379.71997</ele>
        <time>2024-10-15T08:50:18.000Z</time>
      </trkpt>
      <trkpt lat="45.576787" lon="7.85362">
        <ele>1380.255</ele>
        <time>2024-10-15T08:50:21.000Z</time>
      </trkpt>
      <trkpt lat="45.576795" lon="7.853652">
        <ele>1380.77502</ele>
        <time>2024-10-15T08:50:24.000Z</time>
      </trkpt>
      <trkpt lat="45.576805" lon="7.853685">
        <ele>1381.29504</ele>
        <time>2024-10-15T08:50:27.000Z</time>
      </trkpt>
      <trkpt lat="45.576815" lon="7.853713">
        <ele>1381.81006</ele>
        <time>2024-10-15T08:50:31.000Z</time>
      </trkpt>
      <trkpt lat="45.576813" lon="7.85374">
        <ele>1382.32007</ele>
        <time>2024-10-15T08:50:35.000Z</time>
      </trkpt>
      <trkpt lat="45.576828" lon="7.853758">
        <ele>1382.88501</ele>
        <time>2024-10-15T08:50:41.000Z</time>
      </trkpt>
      <trkpt lat="45.57684" lon="7.85378">
        <ele>1383.46497</ele>
        <time>2024-10-15T08:50:44.000Z</time>
      </trkpt>
      <trkpt lat="45.576847" lon="7.853812">
        <ele>1384.05994</ele>
        <time>2024-10-15T08:50:49.000Z</time>
      </trkpt>
      <trkpt lat="45.57686" lon="7.853843">
        <ele>1384.65491</ele>
        <time>2024-10-15T08:50:52.000Z</time>
      </trkpt>
      <trkpt lat="45.576868" lon="7.853872">
        <ele>1385.31494</ele>
        <time>2024-10-15T08:50:56.000Z</time>
      </trkpt>
      <trkpt lat="45.576873" lon="7.8539">
        <ele>1386.03992</ele>
        <time>2024-10-15T08:51:00.000Z</time>
      </trkpt>
      <trkpt lat="45.576875" lon="7.85393">
        <ele>1386.81995</ele>
        <time>2024-10-15T08:51:08.000Z</time>
      </trkpt>
      <trkpt lat="45.576875" lon="7.853957">
        <ele>1387.61499</ele>
        <time>2024-10-15T08:51:12.000Z</time>
      </trkpt>
      <trkpt lat="45.576867" lon="7.853988">
        <ele>1388.38989</ele>
        <time>2024-10-15T08:51:15.000Z</time>
      </trkpt>
      <trkpt lat="45.576888" lon="7.854005">
        <ele>1389.15991</ele>
        <time>2024-10-15T08:51:19.000Z</time>
      </trkpt>
      <trkpt lat="45.576907" lon="7.854027">
        <ele>1389.91492</ele>
        <time>2024-10-15T08:51:22.000Z</time>
      </trkpt>
      <trkpt lat="45.576918" lon="7.854053">
        <ele>1390.68494</ele>
        <time>2024-10-15T08:51:24.000Z</time>
      </trkpt>
      <trkpt lat="45.576927" lon="7.854083">
        <ele>1391.45996</ele>
        <time>2024-10-15T08:51:26.000Z</time>
      </trkpt>
      <trkpt lat="45.576922" lon="7.854115">
        <ele>1392.23999</ele>
        <time>2024-10-15T08:51:29.000Z</time>
      </trkpt>
      <trkpt lat="45.576913" lon="7.854143">
        <ele>1393.04004</ele>
        <time>2024-10-15T08:51:32.000Z</time>
      </trkpt>
      <trkpt lat="45.576907" lon="7.854168">
        <ele>1393.84497</ele>
        <time>2024-10-15T08:51:34.000Z</time>
      </trkpt>
      <trkpt lat="45.576893" lon="7.854187">
        <ele>1394.65991</ele>
        <time>2024-10-15T08:51:36.000Z</time>
      </trkpt>
      <trkpt lat="45.576887" lon="7.854213">
        <ele>1395.53491</ele>
        <time>2024-10-15T08:51:41.000Z</time>
      </trkpt>
      <trkpt lat="45.576913" lon="7.854202">
        <ele>1396.34497</ele>
        <time>2024-10-15T08:52:09.000Z</time>
      </trkpt>
      <trkpt lat="45.576892" lon="7.8542">
        <ele>1397.18994</ele>
        <time>2024-10-15T08:52:12.000Z</time>
      </trkpt>
      <trkpt lat="45.576878" lon="7.854235">
        <ele>1398.02502</ele>
        <time>2024-10-15T08:52:20.000Z</time>
      </trkpt>
      <trkpt lat="45.576885" lon="7.854265">
        <ele>1398.90002</ele>
        <time>2024-10-15T08:52:24.000Z</time>
      </trkpt>
      <trkpt lat="45.576883" lon="7.854298">
        <ele>1399.78003</ele>
        <time>2024-10-15T08:52:27.000Z</time>
      </trkpt>
      <trkpt lat="45.576897" lon="7.854322">
        <ele>1400.66003</ele>
        <time>2024-10-15T08:52:30.000Z</time>
      </trkpt>
      <trkpt lat="45.57691" lon="7.85435">
        <ele>1401.5</ele>
        <time>2024-10-15T08:52:32.000Z</time>
      </trkpt>
      <trkpt lat="45.576923" lon="7.854373">
        <ele>1402.30994</ele>
        <time>2024-10-15T08:52:35.000Z</time>
      </trkpt>
      <trkpt lat="45.576935" lon="7.854395">
        <ele>1403.03992</ele>
        <time>2024-10-15T08:52:38.000Z</time>
      </trkpt>
      <trkpt lat="45.576957" lon="7.85441">
        <ele>1403.72485</ele>
        <time>2024-10-15T08:52:41.000Z</time>
      </trkpt>
      <trkpt lat="45.57694" lon="7.854453">
        <ele>1404.45996</ele>
        <time>2024-10-15T08:53:16.000Z</time>
      </trkpt>
      <trkpt lat="45.576967" lon="7.854443">
        <ele>1405.15991</ele>
        <time>2024-10-15T08:53:20.000Z</time>
      </trkpt>
      <trkpt lat="45.576985" lon="7.854433">
        <ele>1405.84497</ele>
        <time>2024-10-15T08:53:22.000Z</time>
      </trkpt>
      <trkpt lat="45.577002" lon="7.854413">
        <ele>1406.52991</ele>
        <time>2024-10-15T08:53:26.000Z</time>
      </trkpt>
      <trkpt lat="45.577022" lon="7.8544">
        <ele>1407.20984</ele>
        <time>2024-10-15T08:53:29.000Z</time>
      </trkpt>
      <trkpt lat="45.57704" lon="7.85438">
        <ele>1407.85986</ele>
        <time>2024-10-15T08:53:33.000Z</time>
      </trkpt>
      <trkpt lat="45.577042" lon="7.854353">
        <ele>1408.45984</ele>
        <time>2024-10-15T08:53:38.000Z</time>
      </trkpt>
      <trkpt lat="45.577058" lon="7.854343">
        <ele>1409.0249</ele>
        <time>2024-10-15T08:53:42.000Z</time>
      </trkpt>
      <trkpt lat="45.577073" lon="7.85432">
        <ele>1409.60999</ele>
        <time>2024-10-15T08:53:46.000Z</time>
      </trkpt>
      <trkpt lat="45.577088" lon="7.854295">
        <ele>1410.15002</ele>
        <time>2024-10-15T08:53:49.000Z</time>
      </trkpt>
      <trkpt lat="45.577108" lon="7.854283">
        <ele>1410.73999</ele>
        <time>2024-10-15T08:53:51.000Z</time>
      </trkpt>
      <trkpt lat="45.577135" lon="7.854272">
        <ele>1411.41003</ele>
        <time>2024-10-15T08:53:56.000Z</time>
      </trkpt>
      <trkpt lat="45.577148" lon="7.854247">
        <ele>1412.09998</ele>
        <time>2024-10-15T08:54:01.000Z</time>
      </trkpt>
      <trkpt lat="45.577163" lon="7.854228">
        <ele>1412.76501</ele>
        <time>2024-10-15T08:54:06.000Z</time>
      </trkpt>
      <trkpt lat="45.577187" lon="7.85422">
        <ele>1413.375</ele>
        <time>2024-10-15T08:54:13.000Z</time>
      </trkpt>
      <trkpt lat="45.577205" lon="7.854212">
        <ele>1413.96497</ele>
        <time>2024-10-15T08:54:17.000Z</time>
      </trkpt>
      <trkpt lat="45.577232" lon="7.854187">
        <ele>1414.59998</ele>
        <time>2024-10-15T08:54:23.000Z</time>
      </trkpt>
      <trkpt lat="45.577255" lon="7.854185">
        <ele>1415.21509</ele>
        <time>2024-10-15T08:54:26.000Z</time>
      </trkpt>
      <trkpt lat="45.577275" lon="7.854175">
        <ele>1415.82007</ele>
        <time>2024-10-15T08:54:28.000Z</time>
      </trkpt>
      <trkpt lat="45.577295" lon="7.854178">
        <ele>1416.42017</ele>
        <time>2024-10-15T08:54:30.000Z</time>
      </trkpt>
      <trkpt lat="45.577317" lon="7.854197">
        <ele>1416.92505</ele>
        <time>2024-10-15T08:54:32.000Z</time>
      </trkpt>
      <trkpt lat="45.577332" lon="7.854227">
        <ele>1417.41003</ele>
        <time>2024-10-15T08:54:34.000Z</time>
      </trkpt>
      <trkpt lat="45.577332" lon="7.854268">
        <ele>1417.87012</ele>
        <time>2024-10-15T08:54:37.000Z</time>
      </trkpt>
      <trkpt lat="45.577332" lon="7.854295">
        <ele>1418.31519</ele>
        <time>2024-10-15T08:54:39.000Z</time>
      </trkpt>
      <trkpt lat="45.577327" lon="7.854333">
        <ele>1418.75012</ele>
        <time>2024-10-15T08:54:42.000Z</time>
      </trkpt>
      <trkpt lat="45.577317" lon="7.85436">
        <ele>1419.18506</ele>
        <time>2024-10-15T08:54:44.000Z</time>
      </trkpt>
      <trkpt lat="45.57731" lon="7.854393">
        <ele>1419.65015</ele>
        <time>2024-10-15T08:54:46.000Z</time>
      </trkpt>
      <trkpt lat="45.5773" lon="7.854427">
        <ele>1420.13013</ele>
        <time>2024-10-15T08:54:48.000Z</time>
      </trkpt>
      <trkpt lat="45.577297" lon="7.854458">
        <ele>1420.57495</ele>
        <time>2024-10-15T08:54:50.000Z</time>
      </trkpt>
      <trkpt lat="45.57729" lon="7.854485">
        <ele>1421.03003</ele>
        <time>2024-10-15T08:54:53.000Z</time>
      </trkpt>
      <trkpt lat="45.577273" lon="7.8545">
        <ele>1421.43494</ele>
        <time>2024-10-15T08:54:55.000Z</time>
      </trkpt>
      <trkpt lat="45.577252" lon="7.854508">
        <ele>1421.63501</ele>
        <time>2024-10-15T08:55:01.000Z</time>
      </trkpt>
      <trkpt lat="45.577223" lon="7.854518">
        <ele>1421.73499</ele>
        <time>2024-10-15T08:55:19.000Z</time>
      </trkpt>
      <trkpt lat="45.57721" lon="7.854543">
        <ele>1421.80493</ele>
        <time>2024-10-15T08:55:21.000Z</time>
      </trkpt>
      <trkpt lat="45.577192" lon="7.854568">
        <ele>1421.88989</ele>
        <time>2024-10-15T08:55:24.000Z</time>
      </trkpt>
      <trkpt lat="45.577175" lon="7.854593">
        <ele>1421.96497</ele>
        <time>2024-10-15T08:55:27.000Z</time>
      </trkpt>
      <trkpt lat="45.577158" lon="7.854615">
        <ele>1421.95483</ele>
        <time>2024-10-15T08:55:30.000Z</time>
      </trkpt>
      <trkpt lat="45.577177" lon="7.85463">
        <ele>1421.99487</ele>
        <time>2024-10-15T08:55:36.000Z</time>
      </trkpt>
      <trkpt lat="45.577215" lon="7.854628">
        <ele>1422.19495</ele>
        <time>2024-10-15T08:55:49.000Z</time>
      </trkpt>
      <trkpt lat="45.577233" lon="7.854585">
        <ele>1422.35486</ele>
        <time>2024-10-15T08:55:51.000Z</time>
      </trkpt>
      <trkpt lat="45.577237" lon="7.854558">
        <ele>1422.5249</ele>
        <time>2024-10-15T08:55:52.000Z</time>
      </trkpt>
      <trkpt lat="45.57724" lon="7.854517">
        <ele>1422.70496</ele>
        <time>2024-10-15T08:55:54.000Z</time>
      </trkpt>
      <trkpt lat="45.577247" lon="7.85448">
        <ele>1422.92493</ele>
        <time>2024-10-15T08:55:57.000Z</time>
      </trkpt>
      <trkpt lat="45.577257" lon="7.854457">
        <ele>1423.13989</ele>
        <time>2024-10-15T08:55:59.000Z</time>
      </trkpt>
      <trkpt lat="45.57727" lon="7.854438">
        <ele>1423.33496</ele>
        <time>2024-10-15T08:56:01.000Z</time>
      </trkpt>
      <trkpt lat="45.577288" lon="7.854435">
        <ele>1423.54492</ele>
        <time>2024-10-15T08:56:03.000Z</time>
      </trkpt>
      <trkpt lat="45.577308" lon="7.854437">
        <ele>1423.71497</ele>
        <time>2024-10-15T08:56:06.000Z</time>
      </trkpt>
      <trkpt lat="45.577325" lon="7.854447">
        <ele>1423.84998</ele>
        <time>2024-10-15T08:56:09.000Z</time>
      </trkpt>
      <trkpt lat="45.577338" lon="7.854468">
        <ele>1423.9801</ele>
        <time>2024-10-15T08:56:12.000Z</time>
      </trkpt>
      <trkpt lat="45.577313" lon="7.854473">
        <ele>1424.20007</ele>
        <time>2024-10-15T08:56:38.000Z</time>
      </trkpt>
      <trkpt lat="45.577293" lon="7.854487">
        <ele>1424.41003</ele>
        <time>2024-10-15T08:56:40.000Z</time>
      </trkpt>
      <trkpt lat="45.577275" lon="7.85449">
        <ele>1424.68506</ele>
        <time>2024-10-15T08:56:43.000Z</time>
      </trkpt>
      <trkpt lat="45.57725" lon="7.854502">
        <ele>1424.92505</ele>
        <time>2024-10-15T08:56:52.000Z</time>
      </trkpt>
      <trkpt lat="45.577245" lon="7.854533">
        <ele>1425.11511</ele>
        <time>2024-10-15T08:56:55.000Z</time>
      </trkpt>
      <trkpt lat="45.577245" lon="7.854568">
        <ele>1425.27014</ele>
        <time>2024-10-15T08:56:57.000Z</time>
      </trkpt>
      <trkpt lat="45.577247" lon="7.854607">
        <ele>1425.40515</ele>
        <time>2024-10-15T08:56:59.000Z</time>
      </trkpt>
      <trkpt lat="45.577253" lon="7.854642">
        <ele>1425.55518</ele>
        <time>2024-10-15T08:57:01.000Z</time>
      </trkpt>
      <trkpt lat="45.577263" lon="7.854663">
        <ele>1425.63513</ele>
        <time>2024-10-15T08:57:02.000Z</time>
      </trkpt>
      <trkpt lat="45.577277" lon="7.854702">
        <ele>1425.55005</ele>
        <time>2024-10-15T08:57:04.000Z</time>
      </trkpt>
      <trkpt lat="45.577282" lon="7.854735">
        <ele>1425.49512</ele>
        <time>2024-10-15T08:57:06.000Z</time>
      </trkpt>
      <trkpt lat="45.577283" lon="7.854788">
        <ele>1425.56006</ele>
        <time>2024-10-15T08:57:18.000Z</time>
      </trkpt>
      <trkpt lat="45.577293" lon="7.85482">
        <ele>1425.72998</ele>
        <time>2024-10-15T08:57:22.000Z</time>
      </trkpt>
      <trkpt lat="45.577297" lon="7.85485">
        <ele>1425.90002</ele>
        <time>2024-10-15T08:57:24.000Z</time>
      </trkpt>
      <trkpt lat="45.577307" lon="7.854877">
        <ele>1426.08997</ele>
        <time>2024-10-15T08:57:26.000Z</time>
      </trkpt>
      <trkpt lat="45.577318" lon="7.854907">
        <ele>1426.32495</ele>
        <time>2024-10-15T08:57:28.000Z</time>
      </trkpt>
      <trkpt lat="45.577333" lon="7.854935">
        <ele>1426.61011</ele>
        <time>2024-10-15T08:57:30.000Z</time>
      </trkpt>
      <trkpt lat="45.577347" lon="7.854967">
        <ele>1426.90503</ele>
        <time>2024-10-15T08:57:32.000Z</time>
      </trkpt>
      <trkpt lat="45.57736" lon="7.855002">
        <ele>1427.21008</ele>
        <time>2024-10-15T08:57:34.000Z</time>
      </trkpt>
      <trkpt lat="45.577357" lon="7.855033">
        <ele>1427.54504</ele>
        <time>2024-10-15T08:57:36.000Z</time>
      </trkpt>
      <trkpt lat="45.57736" lon="7.855063">
        <ele>1427.71497</ele>
        <time>2024-10-15T08:57:39.000Z</time>
      </trkpt>
      <trkpt lat="45.57738" lon="7.855078">
        <ele>1427.88501</ele>
        <time>2024-10-15T08:57:43.000Z</time>
      </trkpt>
      <trkpt lat="45.577387" lon="7.855108">
        <ele>1428.01489</ele>
        <time>2024-10-15T08:57:47.000Z</time>
      </trkpt>
      <trkpt lat="45.577405" lon="7.855137">
        <ele>1428.12488</ele>
        <time>2024-10-15T08:57:50.000Z</time>
      </trkpt>
      <trkpt lat="45.57742" lon="7.85516">
        <ele>1428.24988</ele>
        <time>2024-10-15T08:57:52.000Z</time>
      </trkpt>
      <trkpt lat="45.577438" lon="7.855185">
        <ele>1428.38489</ele>
        <time>2024-10-15T08:57:54.000Z</time>
      </trkpt>
      <trkpt lat="45.577455" lon="7.855203">
        <ele>1428.51489</ele>
        <time>2024-10-15T08:57:56.000Z</time>
      </trkpt>
      <trkpt lat="45.577472" lon="7.855225">
        <ele>1428.63489</ele>
        <time>2024-10-15T08:57:58.000Z</time>
      </trkpt>
      <trkpt lat="45.57749" lon="7.855237">
        <ele>1428.75488</ele>
        <time>2024-10-15T08:57:59.000Z</time>
      </trkpt>
      <trkpt lat="45.577515" lon="7.855258">
        <ele>1428.86987</ele>
        <time>2024-10-15T08:58:01.000Z</time>
      </trkpt>
      <trkpt lat="45.577528" lon="7.855288">
        <ele>1428.99988</ele>
        <time>2024-10-15T08:58:03.000Z</time>
      </trkpt>
      <trkpt lat="45.577537" lon="7.855325">
        <ele>1429.03491</ele>
        <time>2024-10-15T08:58:05.000Z</time>
      </trkpt>
      <trkpt lat="45.577553" lon="7.855363">
        <ele>1429.04004</ele>
        <time>2024-10-15T08:58:07.000Z</time>
      </trkpt>
      <trkpt lat="45.577568" lon="7.855397">
        <ele>1429.16003</ele>
        <time>2024-10-15T08:58:09.000Z</time>
      </trkpt>
      <trkpt lat="45.577582" lon="7.855428">
        <ele>1429.37512</ele>
        <time>2024-10-15T08:58:11.000Z</time>
      </trkpt>
      <trkpt lat="45.57759" lon="7.855457">
        <ele>1429.69507</ele>
        <time>2024-10-15T08:58:13.000Z</time>
      </trkpt>
      <trkpt lat="45.577598" lon="7.855482">
        <ele>1430.04504</ele>
        <time>2024-10-15T08:58:15.000Z</time>
      </trkpt>
      <trkpt lat="45.577608" lon="7.855515">
        <ele>1430.505</ele>
        <time>2024-10-15T08:58:18.000Z</time>
      </trkpt>
      <trkpt lat="45.577625" lon="7.855548">
        <ele>1430.98999</ele>
        <time>2024-10-15T08:58:20.000Z</time>
      </trkpt>
      <trkpt lat="45.577643" lon="7.855585">
        <ele>1431.47998</ele>
        <time>2024-10-15T08:58:22.000Z</time>
      </trkpt>
      <trkpt lat="45.57766" lon="7.855622">
        <ele>1432.02502</ele>
        <time>2024-10-15T08:58:24.000Z</time>
      </trkpt>
      <trkpt lat="45.577678" lon="7.855653">
        <ele>1432.59497</ele>
        <time>2024-10-15T08:58:26.000Z</time>
      </trkpt>
      <trkpt lat="45.577702" lon="7.855675">
        <ele>1433.23499</ele>
        <time>2024-10-15T08:58:28.000Z</time>
      </trkpt>
      <trkpt lat="45.577718" lon="7.855707">
        <ele>1433.95996</ele>
        <time>2024-10-15T08:58:30.000Z</time>
      </trkpt>
      <trkpt lat="45.57773" lon="7.855745">
        <ele>1434.72498</ele>
        <time>2024-10-15T08:58:32.000Z</time>
      </trkpt>
      <trkpt lat="45.577738" lon="7.855778">
        <ele>1435.495</ele>
        <time>2024-10-15T08:58:34.000Z</time>
      </trkpt>
      <trkpt lat="45.577748" lon="7.855803">
        <ele>1436.30994</ele>
        <time>2024-10-15T08:58:36.000Z</time>
      </trkpt>
      <trkpt lat="45.577748" lon="7.85584">
        <ele>1437.15002</ele>
        <time>2024-10-15T08:58:39.000Z</time>
      </trkpt>
      <trkpt lat="45.577727" lon="7.855852">
        <ele>1438.02502</ele>
        <time>2024-10-15T08:58:43.000Z</time>
      </trkpt>
      <trkpt lat="45.57771" lon="7.855868">
        <ele>1438.88</ele>
        <time>2024-10-15T08:58:52.000Z</time>
      </trkpt>
      <trkpt lat="45.577697" lon="7.855888">
        <ele>1439.71509</ele>
        <time>2024-10-15T08:58:54.000Z</time>
      </trkpt>
      <trkpt lat="45.57768" lon="7.855905">
        <ele>1440.52502</ele>
        <time>2024-10-15T08:58:56.000Z</time>
      </trkpt>
      <trkpt lat="45.577665" lon="7.855922">
        <ele>1441.25</ele>
        <time>2024-10-15T08:58:58.000Z</time>
      </trkpt>
      <trkpt lat="45.577645" lon="7.85593">
        <ele>1441.82996</ele>
        <time>2024-10-15T08:59:02.000Z</time>
      </trkpt>
      <trkpt lat="45.577622" lon="7.855925">
        <ele>1442.30005</ele>
        <time>2024-10-15T08:59:05.000Z</time>
      </trkpt>
      <trkpt lat="45.577597" lon="7.85592">
        <ele>1442.66504</ele>
        <time>2024-10-15T08:59:08.000Z</time>
      </trkpt>
      <trkpt lat="45.577578" lon="7.855925">
        <ele>1443.005</ele>
        <time>2024-10-15T08:59:10.000Z</time>
      </trkpt>
      <trkpt lat="45.577558" lon="7.855937">
        <ele>1443.29504</ele>
        <time>2024-10-15T08:59:12.000Z</time>
      </trkpt>
      <trkpt lat="45.577542" lon="7.855958">
        <ele>1443.61011</ele>
        <time>2024-10-15T08:59:14.000Z</time>
      </trkpt>
      <trkpt lat="45.577517" lon="7.855973">
        <ele>1443.92505</ele>
        <time>2024-10-15T08:59:17.000Z</time>
      </trkpt>
      <trkpt lat="45.5775" lon="7.855985">
        <ele>1444.255</ele>
        <time>2024-10-15T08:59:19.000Z</time>
      </trkpt>
      <trkpt lat="45.577477" lon="7.855993">
        <ele>1444.59497</ele>
        <time>2024-10-15T08:59:22.000Z</time>
      </trkpt>
      <trkpt lat="45.57746" lon="7.855982">
        <ele>1444.92505</ele>
        <time>2024-10-15T08:59:25.000Z</time>
      </trkpt>
      <trkpt lat="45.577437" lon="7.855978">
        <ele>1445.28015</ele>
        <time>2024-10-15T08:59:28.000Z</time>
      </trkpt>
      <trkpt lat="45.577412" lon="7.855965">
        <ele>1445.66016</ele>
        <time>2024-10-15T08:59:31.000Z</time>
      </trkpt>
      <trkpt lat="45.577393" lon="7.855953">
        <ele>1446.07019</ele>
        <time>2024-10-15T08:59:33.000Z</time>
      </trkpt>
      <trkpt lat="45.577377" lon="7.855943">
        <ele>1446.48523</ele>
        <time>2024-10-15T08:59:36.000Z</time>
      </trkpt>
      <trkpt lat="45.57736" lon="7.855928">
        <ele>1446.92017</ele>
        <time>2024-10-15T08:59:39.000Z</time>
      </trkpt>
      <trkpt lat="45.577342" lon="7.85592">
        <ele>1447.3252</ele>
        <time>2024-10-15T08:59:41.000Z</time>
      </trkpt>
      <trkpt lat="45.577323" lon="7.855927">
        <ele>1447.75024</ele>
        <time>2024-10-15T08:59:44.000Z</time>
      </trkpt>
      <trkpt lat="45.577317" lon="7.855957">
        <ele>1448.2002</ele>
        <time>2024-10-15T08:59:47.000Z</time>
      </trkpt>
      <trkpt lat="45.577305" lon="7.855983">
        <ele>1448.65515</ele>
        <time>2024-10-15T08:59:50.000Z</time>
      </trkpt>
      <trkpt lat="45.577288" lon="7.856002">
        <ele>1449.11511</ele>
        <time>2024-10-15T08:59:53.000Z</time>
      </trkpt>
      <trkpt lat="45.57728" lon="7.85603">
        <ele>1449.56519</ele>
        <time>2024-10-15T08:59:56.000Z</time>
      </trkpt>
      <trkpt lat="45.57729" lon="7.85606">
        <ele>1450.00513</ele>
        <time>2024-10-15T08:59:59.000Z</time>
      </trkpt>
      <trkpt lat="45.577305" lon="7.856085">
        <ele>1450.38013</ele>
        <time>2024-10-15T09:00:02.000Z</time>
      </trkpt>
      <trkpt lat="45.577312" lon="7.856118">
        <ele>1450.68005</ele>
        <time>2024-10-15T09:00:04.000Z</time>
      </trkpt>
      <trkpt lat="45.577307" lon="7.856147">
        <ele>1450.94507</ele>
        <time>2024-10-15T09:00:06.000Z</time>
      </trkpt>
      <trkpt lat="45.577297" lon="7.856187">
        <ele>1451.15503</ele>
        <time>2024-10-15T09:00:09.000Z</time>
      </trkpt>
      <trkpt lat="45.577283" lon="7.856212">
        <ele>1451.30994</ele>
        <time>2024-10-15T09:00:11.000Z</time>
      </trkpt>
      <trkpt lat="45.577275" lon="7.856237">
        <ele>1451.43494</ele>
        <time>2024-10-15T09:00:13.000Z</time>
      </trkpt>
      <trkpt lat="45.577268" lon="7.856267">
        <ele>1451.55493</ele>
        <time>2024-10-15T09:00:16.000Z</time>
      </trkpt>
      <trkpt lat="45.577278" lon="7.856297">
        <ele>1451.68481</ele>
        <time>2024-10-15T09:00:19.000Z</time>
      </trkpt>
      <trkpt lat="45.577277" lon="7.856325">
        <ele>1451.80481</ele>
        <time>2024-10-15T09:00:21.000Z</time>
      </trkpt>
      <trkpt lat="45.577277" lon="7.856358">
        <ele>1451.92981</ele>
        <time>2024-10-15T09:00:23.000Z</time>
      </trkpt>
      <trkpt lat="45.577277" lon="7.85639">
        <ele>1452.07471</ele>
        <time>2024-10-15T09:00:26.000Z</time>
      </trkpt>
      <trkpt lat="45.57727" lon="7.856417">
        <ele>1452.20471</ele>
        <time>2024-10-15T09:00:29.000Z</time>
      </trkpt>
      <trkpt lat="45.577258" lon="7.856452">
        <ele>1452.33472</ele>
        <time>2024-10-15T09:00:32.000Z</time>
      </trkpt>
      <trkpt lat="45.57725" lon="7.856487">
        <ele>1452.44958</ele>
        <time>2024-10-15T09:00:35.000Z</time>
      </trkpt>
      <trkpt lat="45.57724" lon="7.85652">
        <ele>1452.55957</ele>
        <time>2024-10-15T09:00:37.000Z</time>
      </trkpt>
      <trkpt lat="45.57724" lon="7.856557">
        <ele>1452.67456</ele>
        <time>2024-10-15T09:00:39.000Z</time>
      </trkpt>
      <trkpt lat="45.577222" lon="7.856562">
        <ele>1452.92957</ele>
        <time>2024-10-15T09:00:48.000Z</time>
      </trkpt>
      <trkpt lat="45.577193" lon="7.856563">
        <ele>1453.2196</ele>
        <time>2024-10-15T09:00:51.000Z</time>
      </trkpt>
      <trkpt lat="45.577175" lon="7.856553">
        <ele>1453.52966</ele>
        <time>2024-10-15T09:00:54.000Z</time>
      </trkpt>
      <trkpt lat="45.57715" lon="7.856545">
        <ele>1453.87964</ele>
        <time>2024-10-15T09:00:57.000Z</time>
      </trkpt>
      <trkpt lat="45.577138" lon="7.856525">
        <ele>1454.27466</ele>
        <time>2024-10-15T09:00:59.000Z</time>
      </trkpt>
      <trkpt lat="45.577123" lon="7.856495">
        <ele>1454.64478</ele>
        <time>2024-10-15T09:01:02.000Z</time>
      </trkpt>
      <trkpt lat="45.57711" lon="7.856477">
        <ele>1454.97974</ele>
        <time>2024-10-15T09:01:04.000Z</time>
      </trkpt>
      <trkpt lat="45.577097" lon="7.856453">
        <ele>1455.28979</ele>
        <time>2024-10-15T09:01:06.000Z</time>
      </trkpt>
      <trkpt lat="45.57708" lon="7.856423">
        <ele>1455.49988</ele>
        <time>2024-10-15T09:01:09.000Z</time>
      </trkpt>
      <trkpt lat="45.577062" lon="7.856412">
        <ele>1455.65991</ele>
        <time>2024-10-15T09:01:11.000Z</time>
      </trkpt>
      <trkpt lat="45.577043" lon="7.856402">
        <ele>1455.78491</ele>
        <time>2024-10-15T09:01:13.000Z</time>
      </trkpt>
      <trkpt lat="45.57702" lon="7.856398">
        <ele>1455.84985</ele>
        <time>2024-10-15T09:01:15.000Z</time>
      </trkpt>
      <trkpt lat="45.576998" lon="7.85638">
        <ele>1455.85498</ele>
        <time>2024-10-15T09:01:17.000Z</time>
      </trkpt>
      <trkpt lat="45.576973" lon="7.856357">
        <ele>1455.77502</ele>
        <time>2024-10-15T09:01:19.000Z</time>
      </trkpt>
      <trkpt lat="45.576947" lon="7.85634">
        <ele>1455.63013</ele>
        <time>2024-10-15T09:01:21.000Z</time>
      </trkpt>
      <trkpt lat="45.576923" lon="7.856323">
        <ele>1455.45007</ele>
        <time>2024-10-15T09:01:23.000Z</time>
      </trkpt>
      <trkpt lat="45.576897" lon="7.856313">
        <ele>1455.24512</ele>
        <time>2024-10-15T09:01:25.000Z</time>
      </trkpt>
      <trkpt lat="45.57688" lon="7.8563">
        <ele>1455.05017</ele>
        <time>2024-10-15T09:01:28.000Z</time>
      </trkpt>
      <trkpt lat="45.57686" lon="7.856275">
        <ele>1454.84521</ele>
        <time>2024-10-15T09:01:30.000Z</time>
      </trkpt>
      <trkpt lat="45.576837" lon="7.856263">
        <ele>1454.62524</ele>
        <time>2024-10-15T09:01:32.000Z</time>
      </trkpt>
      <trkpt lat="45.576808" lon="7.856248">
        <ele>1454.24023</ele>
        <time>2024-10-15T09:01:34.000Z</time>
      </trkpt>
      <trkpt lat="45.576788" lon="7.856233">
        <ele>1453.80518</ele>
        <time>2024-10-15T09:01:36.000Z</time>
      </trkpt>
      <trkpt lat="45.5768" lon="7.856202">
        <ele>1453.39014</ele>
        <time>2024-10-15T09:02:20.000Z</time>
      </trkpt>
      <trkpt lat="45.576777" lon="7.856207">
        <ele>1452.96021</ele>
        <time>2024-10-15T09:02:22.000Z</time>
      </trkpt>
      <trkpt lat="45.576757" lon="7.856208">
        <ele>1452.51013</ele>
        <time>2024-10-15T09:02:24.000Z</time>
      </trkpt>
      <trkpt lat="45.576737" lon="7.856213">
        <ele>1452.10522</ele>
        <time>2024-10-15T09:02:26.000Z</time>
      </trkpt>
      <trkpt lat="45.576718" lon="7.856207">
        <ele>1451.77014</ele>
        <time>2024-10-15T09:02:29.000Z</time>
      </trkpt>
      <trkpt lat="45.576695" lon="7.856198">
        <ele>1451.51001</ele>
        <time>2024-10-15T09:02:31.000Z</time>
      </trkpt>
      <trkpt lat="45.576667" lon="7.856188">
        <ele>1451.39001</ele>
        <time>2024-10-15T09:02:33.000Z</time>
      </trkpt>
      <trkpt lat="45.576647" lon="7.856182">
        <ele>1451.33508</ele>
        <time>2024-10-15T09:02:34.000Z</time>
      </trkpt>
      <trkpt lat="45.576618" lon="7.856183">
        <ele>1451.3551</ele>
        <time>2024-10-15T09:02:36.000Z</time>
      </trkpt>
      <trkpt lat="45.576593" lon="7.85618">
        <ele>1451.46509</ele>
        <time>2024-10-15T09:02:38.000Z</time>
      </trkpt>
      <trkpt lat="45.576573" lon="7.856165">
        <ele>1451.61511</ele>
        <time>2024-10-15T09:02:40.000Z</time>
      </trkpt>
      <trkpt lat="45.576558" lon="7.85615">
        <ele>1451.81006</ele>
        <time>2024-10-15T09:02:41.000Z</time>
      </trkpt>
      <trkpt lat="45.576537" lon="7.856137">
        <ele>1452.02502</ele>
        <time>2024-10-15T09:02:43.000Z</time>
      </trkpt>
      <trkpt lat="45.576513" lon="7.856135">
        <ele>1452.25</ele>
        <time>2024-10-15T09:02:45.000Z</time>
      </trkpt>
      <trkpt lat="45.57649" lon="7.856128">
        <ele>1452.46509</ele>
        <time>2024-10-15T09:02:47.000Z</time>
      </trkpt>
      <trkpt lat="45.57647" lon="7.856122">
        <ele>1452.65991</ele>
        <time>2024-10-15T09:02:49.000Z</time>
      </trkpt>
      <trkpt lat="45.576445" lon="7.85611">
        <ele>1452.82495</ele>
        <time>2024-10-15T09:02:51.000Z</time>
      </trkpt>
      <trkpt lat="45.576427" lon="7.856102">
        <ele>1452.94995</ele>
        <time>2024-10-15T09:02:53.000Z</time>
      </trkpt>
      <trkpt lat="45.57639" lon="7.856085">
        <ele>1453.06506</ele>
        <time>2024-10-15T09:02:55.000Z</time>
      </trkpt>
      <trkpt lat="45.57637" lon="7.856078">
        <ele>1453.18005</ele>
        <time>2024-10-15T09:02:56.000Z</time>
      </trkpt>
      <trkpt lat="45.576348" lon="7.856072">
        <ele>1453.20508</ele>
        <time>2024-10-15T09:02:57.000Z</time>
      </trkpt>
      <trkpt lat="45.576332" lon="7.856062">
        <ele>1453.15015</ele>
        <time>2024-10-15T09:02:58.000Z</time>
      </trkpt>
      <trkpt lat="45.576312" lon="7.856057">
        <ele>1453.04517</ele>
        <time>2024-10-15T09:03:00.000Z</time>
      </trkpt>
      <trkpt lat="45.576293" lon="7.856053">
        <ele>1452.8551</ele>
        <time>2024-10-15T09:03:02.000Z</time>
      </trkpt>
      <trkpt lat="45.576268" lon="7.85605">
        <ele>1452.57007</ele>
        <time>2024-10-15T09:03:04.000Z</time>
      </trkpt>
      <trkpt lat="45.576245" lon="7.856047">
        <ele>1452.2251</ele>
        <time>2024-10-15T09:03:06.000Z</time>
      </trkpt>
      <trkpt lat="45.576218" lon="7.856042">
        <ele>1451.81006</ele>
        <time>2024-10-15T09:03:08.000Z</time>
      </trkpt>
      <trkpt lat="45.57619" lon="7.85603">
        <ele>1451.38501</ele>
        <time>2024-10-15T09:03:10.000Z</time>
      </trkpt>
      <trkpt lat="45.576168" lon="7.856022">
        <ele>1450.90015</ele>
        <time>2024-10-15T09:03:12.000Z</time>
      </trkpt>
      <trkpt lat="45.576147" lon="7.856025">
        <ele>1450.40503</ele>
        <time>2024-10-15T09:03:18.000Z</time>
      </trkpt>
      <trkpt lat="45.576122" lon="7.856037">
        <ele>1449.93506</ele>
        <time>2024-10-15T09:03:22.000Z</time>
      </trkpt>
      <trkpt lat="45.5761" lon="7.856037">
        <ele>1449.52014</ele>
        <time>2024-10-15T09:03:33.000Z</time>
      </trkpt>
      <trkpt lat="45.576105" lon="7.856065">
        <ele>1449.12512</ele>
        <time>2024-10-15T09:03:36.000Z</time>
      </trkpt>
      <trkpt lat="45.576078" lon="7.85614">
        <ele>1448.89014</ele>
        <time>2024-10-15T09:03:46.000Z</time>
      </trkpt>
      <trkpt lat="45.576063" lon="7.856165">
        <ele>1448.68518</ele>
        <time>2024-10-15T09:03:49.000Z</time>
      </trkpt>
      <trkpt lat="45.57604" lon="7.856173">
        <ele>1448.50513</ele>
        <time>2024-10-15T09:03:51.000Z</time>
      </trkpt>
      <trkpt lat="45.576023" lon="7.856183">
        <ele>1448.38513</ele>
        <time>2024-10-15T09:03:53.000Z</time>
      </trkpt>
      <trkpt lat="45.576002" lon="7.856188">
        <ele>1448.32007</ele>
        <time>2024-10-15T09:03:55.000Z</time>
      </trkpt>
      <trkpt lat="45.575977" lon="7.856185">
        <ele>1448.30505</ele>
        <time>2024-10-15T09:03:58.000Z</time>
      </trkpt>
      <trkpt lat="45.575958" lon="7.856182">
        <ele>1448.31006</ele>
        <time>2024-10-15T09:04:00.000Z</time>
      </trkpt>
      <trkpt lat="45.57594" lon="7.856185">
        <ele>1448.38013</ele>
        <time>2024-10-15T09:04:02.000Z</time>
      </trkpt>
      <trkpt lat="45.575922" lon="7.856193">
        <ele>1448.56006</ele>
        <time>2024-10-15T09:04:05.000Z</time>
      </trkpt>
      <trkpt lat="45.575895" lon="7.85621">
        <ele>1448.82996</ele>
        <time>2024-10-15T09:04:08.000Z</time>
      </trkpt>
      <trkpt lat="45.575875" lon="7.856223">
        <ele>1449.22498</ele>
        <time>2024-10-15T09:04:11.000Z</time>
      </trkpt>
      <trkpt lat="45.57586" lon="7.856238">
        <ele>1449.70996</ele>
        <time>2024-10-15T09:04:13.000Z</time>
      </trkpt>
      <trkpt lat="45.575847" lon="7.856257">
        <ele>1450.26001</ele>
        <time>2024-10-15T09:04:15.000Z</time>
      </trkpt>
      <trkpt lat="45.575828" lon="7.856267">
        <ele>1450.88</ele>
        <time>2024-10-15T09:04:18.000Z</time>
      </trkpt>
      <trkpt lat="45.575808" lon="7.856275">
        <ele>1451.51489</ele>
        <time>2024-10-15T09:04:21.000Z</time>
      </trkpt>
      <trkpt lat="45.575788" lon="7.856293">
        <ele>1452.21497</ele>
        <time>2024-10-15T09:04:25.000Z</time>
      </trkpt>
      <trkpt lat="45.575772" lon="7.856307">
        <ele>1452.92493</ele>
        <time>2024-10-15T09:04:29.000Z</time>
      </trkpt>
      <trkpt lat="45.57576" lon="7.856327">
        <ele>1453.6499</ele>
        <time>2024-10-15T09:04:32.000Z</time>
      </trkpt>
      <trkpt lat="45.575755" lon="7.856353">
        <ele>1454.36987</ele>
        <time>2024-10-15T09:04:36.000Z</time>
      </trkpt>
      <trkpt lat="45.575737" lon="7.856358">
        <ele>1455.15002</ele>
        <time>2024-10-15T09:04:41.000Z</time>
      </trkpt>
      <trkpt lat="45.575715" lon="7.856343">
        <ele>1455.80005</ele>
        <time>2024-10-15T09:04:43.000Z</time>
      </trkpt>
      <trkpt lat="45.575692" lon="7.856325">
        <ele>1456.45496</ele>
        <time>2024-10-15T09:04:45.000Z</time>
      </trkpt>
      <trkpt lat="45.575662" lon="7.856313">
        <ele>1457.11499</ele>
        <time>2024-10-15T09:04:47.000Z</time>
      </trkpt>
      <trkpt lat="45.575638" lon="7.856318">
        <ele>1457.78003</ele>
        <time>2024-10-15T09:04:50.000Z</time>
      </trkpt>
      <trkpt lat="45.575617" lon="7.85633">
        <ele>1458.46509</ele>
        <time>2024-10-15T09:04:53.000Z</time>
      </trkpt>
      <trkpt lat="45.575598" lon="7.856335">
        <ele>1459.16003</ele>
        <time>2024-10-15T09:04:55.000Z</time>
      </trkpt>
      <trkpt lat="45.575577" lon="7.856345">
        <ele>1459.88013</ele>
        <time>2024-10-15T09:04:58.000Z</time>
      </trkpt>
      <trkpt lat="45.575555" lon="7.85635">
        <ele>1460.6001</ele>
        <time>2024-10-15T09:05:00.000Z</time>
      </trkpt>
      <trkpt lat="45.575528" lon="7.85636">
        <ele>1461.31006</ele>
        <time>2024-10-15T09:05:03.000Z</time>
      </trkpt>
      <trkpt lat="45.575507" lon="7.85637">
        <ele>1462.01514</ele>
        <time>2024-10-15T09:05:05.000Z</time>
      </trkpt>
      <trkpt lat="45.575488" lon="7.856387">
        <ele>1462.7002</ele>
        <time>2024-10-15T09:05:07.000Z</time>
      </trkpt>
      <trkpt lat="45.575468" lon="7.856397">
        <ele>1463.39526</ele>
        <time>2024-10-15T09:05:09.000Z</time>
      </trkpt>
      <trkpt lat="45.575442" lon="7.856408">
        <ele>1464.07532</ele>
        <time>2024-10-15T09:05:11.000Z</time>
      </trkpt>
      <trkpt lat="45.57542" lon="7.856413">
        <ele>1464.74036</ele>
        <time>2024-10-15T09:05:13.000Z</time>
      </trkpt>
      <trkpt lat="45.575395" lon="7.856422">
        <ele>1465.42529</ele>
        <time>2024-10-15T09:05:16.000Z</time>
      </trkpt>
      <trkpt lat="45.575377" lon="7.85642">
        <ele>1466.07532</ele>
        <time>2024-10-15T09:05:18.000Z</time>
      </trkpt>
      <trkpt lat="45.575355" lon="7.856432">
        <ele>1466.72034</ele>
        <time>2024-10-15T09:05:22.000Z</time>
      </trkpt>
      <trkpt lat="45.575337" lon="7.856448">
        <ele>1467.36536</ele>
        <time>2024-10-15T09:05:29.000Z</time>
      </trkpt>
      <trkpt lat="45.575287" lon="7.856467">
        <ele>1467.96533</ele>
        <time>2024-10-15T09:05:36.000Z</time>
      </trkpt>
      <trkpt lat="45.575265" lon="7.856475">
        <ele>1468.49036</ele>
        <time>2024-10-15T09:05:39.000Z</time>
      </trkpt>
      <trkpt lat="45.57524" lon="7.8565">
        <ele>1468.99536</ele>
        <time>2024-10-15T09:05:41.000Z</time>
      </trkpt>
      <trkpt lat="45.575225" lon="7.856515">
        <ele>1469.47534</ele>
        <time>2024-10-15T09:05:43.000Z</time>
      </trkpt>
      <trkpt lat="45.575202" lon="7.85653">
        <ele>1469.96521</ele>
        <time>2024-10-15T09:05:46.000Z</time>
      </trkpt>
      <trkpt lat="45.575175" lon="7.856535">
        <ele>1470.44519</ele>
        <time>2024-10-15T09:05:49.000Z</time>
      </trkpt>
      <trkpt lat="45.575152" lon="7.85655">
        <ele>1470.89526</ele>
        <time>2024-10-15T09:05:51.000Z</time>
      </trkpt>
      <trkpt lat="45.575132" lon="7.856557">
        <ele>1471.34521</ele>
        <time>2024-10-15T09:05:54.000Z</time>
      </trkpt>
      <trkpt lat="45.575115" lon="7.856575">
        <ele>1471.77026</ele>
        <time>2024-10-15T09:05:57.000Z</time>
      </trkpt>
      <trkpt lat="45.575095" lon="7.856592">
        <ele>1472.18018</ele>
        <time>2024-10-15T09:06:00.000Z</time>
      </trkpt>
      <trkpt lat="45.575078" lon="7.85661">
        <ele>1472.55518</ele>
        <time>2024-10-15T09:06:05.000Z</time>
      </trkpt>
      <trkpt lat="45.575022" lon="7.856655">
        <ele>1472.94507</ele>
        <time>2024-10-15T09:06:12.000Z</time>
      </trkpt>
      <trkpt lat="45.574998" lon="7.856675">
        <ele>1473.32507</ele>
        <time>2024-10-15T09:06:15.000Z</time>
      </trkpt>
      <trkpt lat="45.57498" lon="7.856687">
        <ele>1473.67505</ele>
        <time>2024-10-15T09:06:17.000Z</time>
      </trkpt>
      <trkpt lat="45.574957" lon="7.856697">
        <ele>1474.02002</ele>
        <time>2024-10-15T09:06:19.000Z</time>
      </trkpt>
      <trkpt lat="45.574937" lon="7.856713">
        <ele>1474.37</ele>
        <time>2024-10-15T09:06:21.000Z</time>
      </trkpt>
      <trkpt lat="45.574912" lon="7.856727">
        <ele>1474.71008</ele>
        <time>2024-10-15T09:06:23.000Z</time>
      </trkpt>
      <trkpt lat="45.574895" lon="7.856738">
        <ele>1475.07495</ele>
        <time>2024-10-15T09:06:25.000Z</time>
      </trkpt>
      <trkpt lat="45.574875" lon="7.856752">
        <ele>1475.46008</ele>
        <time>2024-10-15T09:06:28.000Z</time>
      </trkpt>
      <trkpt lat="45.574855" lon="7.85676">
        <ele>1475.86011</ele>
        <time>2024-10-15T09:06:31.000Z</time>
      </trkpt>
      <trkpt lat="45.574832" lon="7.856773">
        <ele>1476.29004</ele>
        <time>2024-10-15T09:06:35.000Z</time>
      </trkpt>
      <trkpt lat="45.574808" lon="7.856785">
        <ele>1476.71509</ele>
        <time>2024-10-15T09:06:37.000Z</time>
      </trkpt>
      <trkpt lat="45.574787" lon="7.856807">
        <ele>1477.14001</ele>
        <time>2024-10-15T09:06:39.000Z</time>
      </trkpt>
      <trkpt lat="45.574765" lon="7.856832">
        <ele>1477.57007</ele>
        <time>2024-10-15T09:06:41.000Z</time>
      </trkpt>
      <trkpt lat="45.574745" lon="7.856852">
        <ele>1477.96997</ele>
        <time>2024-10-15T09:06:43.000Z</time>
      </trkpt>
      <trkpt lat="45.574725" lon="7.856863">
        <ele>1478.35999</ele>
        <time>2024-10-15T09:06:45.000Z</time>
      </trkpt>
      <trkpt lat="45.574698" lon="7.856873">
        <ele>1478.73999</ele>
        <time>2024-10-15T09:06:47.000Z</time>
      </trkpt>
      <trkpt lat="45.574677" lon="7.856872">
        <ele>1479.08508</ele>
        <time>2024-10-15T09:06:49.000Z</time>
      </trkpt>
      <trkpt lat="45.574652" lon="7.85688">
        <ele>1479.41504</ele>
        <time>2024-10-15T09:06:52.000Z</time>
      </trkpt>
      <trkpt lat="45.574632" lon="7.856887">
        <ele>1479.745</ele>
        <time>2024-10-15T09:06:54.000Z</time>
      </trkpt>
      <trkpt lat="45.574618" lon="7.856907">
        <ele>1480.07507</ele>
        <time>2024-10-15T09:06:58.000Z</time>
      </trkpt>
      <trkpt lat="45.574597" lon="7.856913">
        <ele>1480.36011</ele>
        <time>2024-10-15T09:07:01.000Z</time>
      </trkpt>
      <trkpt lat="45.574575" lon="7.856913">
        <ele>1480.63013</ele>
        <time>2024-10-15T09:07:03.000Z</time>
      </trkpt>
      <trkpt lat="45.574555" lon="7.856918">
        <ele>1480.89526</ele>
        <time>2024-10-15T09:07:05.000Z</time>
      </trkpt>
      <trkpt lat="45.57453" lon="7.856925">
        <ele>1481.14526</ele>
        <time>2024-10-15T09:07:06.000Z</time>
      </trkpt>
      <trkpt lat="45.574507" lon="7.856917">
        <ele>1481.38013</ele>
        <time>2024-10-15T09:07:08.000Z</time>
      </trkpt>
      <trkpt lat="45.574485" lon="7.856913">
        <ele>1481.5802</ele>
        <time>2024-10-15T09:07:10.000Z</time>
      </trkpt>
      <trkpt lat="45.574462" lon="7.85693">
        <ele>1481.75024</ele>
        <time>2024-10-15T09:07:12.000Z</time>
      </trkpt>
      <trkpt lat="45.57444" lon="7.856948">
        <ele>1481.87012</ele>
        <time>2024-10-15T09:07:14.000Z</time>
      </trkpt>
      <trkpt lat="45.574422" lon="7.85695">
        <ele>1481.94006</ele>
        <time>2024-10-15T09:07:16.000Z</time>
      </trkpt>
      <trkpt lat="45.5744" lon="7.856952">
        <ele>1481.98999</ele>
        <time>2024-10-15T09:07:18.000Z</time>
      </trkpt>
      <trkpt lat="45.574378" lon="7.856947">
        <ele>1482.07996</ele>
        <time>2024-10-15T09:07:21.000Z</time>
      </trkpt>
      <trkpt lat="45.574358" lon="7.856945">
        <ele>1482.21497</ele>
        <time>2024-10-15T09:07:24.000Z</time>
      </trkpt>
      <trkpt lat="45.574337" lon="7.856955">
        <ele>1482.38</ele>
        <time>2024-10-15T09:07:27.000Z</time>
      </trkpt>
      <trkpt lat="45.574315" lon="7.856962">
        <ele>1482.55994</ele>
        <time>2024-10-15T09:07:32.000Z</time>
      </trkpt>
      <trkpt lat="45.574293" lon="7.856962">
        <ele>1482.72498</ele>
        <time>2024-10-15T09:07:36.000Z</time>
      </trkpt>
      <trkpt lat="45.574273" lon="7.856973">
        <ele>1482.85999</ele>
        <time>2024-10-15T09:07:40.000Z</time>
      </trkpt>
      <trkpt lat="45.574253" lon="7.856975">
        <ele>1482.99988</ele>
        <time>2024-10-15T09:07:43.000Z</time>
      </trkpt>
      <trkpt lat="45.574235" lon="7.856983">
        <ele>1483.13489</ele>
        <time>2024-10-15T09:07:45.000Z</time>
      </trkpt>
      <trkpt lat="45.574217" lon="7.856997">
        <ele>1483.27991</ele>
        <time>2024-10-15T09:07:48.000Z</time>
      </trkpt>
      <trkpt lat="45.574195" lon="7.857002">
        <ele>1483.45483</ele>
        <time>2024-10-15T09:07:52.000Z</time>
      </trkpt>
      <trkpt lat="45.574173" lon="7.85701">
        <ele>1483.6748</ele>
        <time>2024-10-15T09:07:55.000Z</time>
      </trkpt>
      <trkpt lat="45.574147" lon="7.857032">
        <ele>1483.92981</ele>
        <time>2024-10-15T09:07:59.000Z</time>
      </trkpt>
      <trkpt lat="45.574125" lon="7.857045">
        <ele>1484.1947</ele>
        <time>2024-10-15T09:08:01.000Z</time>
      </trkpt>
      <trkpt lat="45.574103" lon="7.857053">
        <ele>1484.46472</ele>
        <time>2024-10-15T09:08:04.000Z</time>
      </trkpt>
      <trkpt lat="45.5741" lon="7.85708">
        <ele>1484.76978</ele>
        <time>2024-10-15T09:08:12.000Z</time>
      </trkpt>
      <trkpt lat="45.574097" lon="7.857107">
        <ele>1485.09473</ele>
        <time>2024-10-15T09:08:16.000Z</time>
      </trkpt>
      <trkpt lat="45.574082" lon="7.857125">
        <ele>1485.41968</ele>
        <time>2024-10-15T09:08:18.000Z</time>
      </trkpt>
      <trkpt lat="45.574082" lon="7.857155">
        <ele>1485.75476</ele>
        <time>2024-10-15T09:08:21.000Z</time>
      </trkpt>
      <trkpt lat="45.57407" lon="7.857185">
        <ele>1486.10474</ele>
        <time>2024-10-15T09:08:25.000Z</time>
      </trkpt>
      <trkpt lat="45.574053" lon="7.857212">
        <ele>1486.46472</ele>
        <time>2024-10-15T09:08:28.000Z</time>
      </trkpt>
      <trkpt lat="45.574042" lon="7.857232">
        <ele>1486.79468</ele>
        <time>2024-10-15T09:08:30.000Z</time>
      </trkpt>
      <trkpt lat="45.574038" lon="7.85726">
        <ele>1487.0697</ele>
        <time>2024-10-15T09:08:33.000Z</time>
      </trkpt>
      <trkpt lat="45.574035" lon="7.857292">
        <ele>1487.30469</ele>
        <time>2024-10-15T09:08:37.000Z</time>
      </trkpt>
      <trkpt lat="45.574007" lon="7.857342">
        <ele>1487.54468</ele>
        <time>2024-10-15T09:08:42.000Z</time>
      </trkpt>
      <trkpt lat="45.57399" lon="7.857353">
        <ele>1487.77466</ele>
        <time>2024-10-15T09:08:44.000Z</time>
      </trkpt>
      <trkpt lat="45.57397" lon="7.857377">
        <ele>1488.03467</ele>
        <time>2024-10-15T09:08:46.000Z</time>
      </trkpt>
      <trkpt lat="45.573955" lon="7.857408">
        <ele>1488.28467</ele>
        <time>2024-10-15T09:08:48.000Z</time>
      </trkpt>
      <trkpt lat="45.573947" lon="7.857432">
        <ele>1488.5697</ele>
        <time>2024-10-15T09:08:50.000Z</time>
      </trkpt>
      <trkpt lat="45.573938" lon="7.857455">
        <ele>1488.85474</ele>
        <time>2024-10-15T09:08:52.000Z</time>
      </trkpt>
      <trkpt lat="45.573933" lon="7.857482">
        <ele>1489.12964</ele>
        <time>2024-10-15T09:08:54.000Z</time>
      </trkpt>
      <trkpt lat="45.573928" lon="7.857512">
        <ele>1489.38477</ele>
        <time>2024-10-15T09:08:57.000Z</time>
      </trkpt>
      <trkpt lat="45.573927" lon="7.857542">
        <ele>1489.61975</ele>
        <time>2024-10-15T09:08:59.000Z</time>
      </trkpt>
      <trkpt lat="45.573927" lon="7.857577">
        <ele>1489.86975</ele>
        <time>2024-10-15T09:09:02.000Z</time>
      </trkpt>
      <trkpt lat="45.57393" lon="7.857613">
        <ele>1490.12476</ele>
        <time>2024-10-15T09:09:05.000Z</time>
      </trkpt>
      <trkpt lat="45.573927" lon="7.857645">
        <ele>1490.36975</ele>
        <time>2024-10-15T09:09:08.000Z</time>
      </trkpt>
      <trkpt lat="45.573927" lon="7.857672">
        <ele>1490.61475</ele>
        <time>2024-10-15T09:09:11.000Z</time>
      </trkpt>
      <trkpt lat="45.573923" lon="7.8577">
        <ele>1490.86475</ele>
        <time>2024-10-15T09:09:13.000Z</time>
      </trkpt>
      <trkpt lat="45.57391" lon="7.85772">
        <ele>1491.10974</ele>
        <time>2024-10-15T09:09:15.000Z</time>
      </trkpt>
      <trkpt lat="45.57389" lon="7.857745">
        <ele>1491.34485</ele>
        <time>2024-10-15T09:09:17.000Z</time>
      </trkpt>
      <trkpt lat="45.573875" lon="7.857773">
        <ele>1491.57483</ele>
        <time>2024-10-15T09:09:19.000Z</time>
      </trkpt>
      <trkpt lat="45.573855" lon="7.857803">
        <ele>1491.80493</ele>
        <time>2024-10-15T09:09:21.000Z</time>
      </trkpt>
      <trkpt lat="45.573835" lon="7.857827">
        <ele>1492.03491</ele>
        <time>2024-10-15T09:09:23.000Z</time>
      </trkpt>
      <trkpt lat="45.57381" lon="7.85785">
        <ele>1492.27991</ele>
        <time>2024-10-15T09:09:25.000Z</time>
      </trkpt>
      <trkpt lat="45.573793" lon="7.857862">
        <ele>1492.5249</ele>
        <time>2024-10-15T09:09:26.000Z</time>
      </trkpt>
      <trkpt lat="45.573765" lon="7.85788">
        <ele>1492.82495</ele>
        <time>2024-10-15T09:09:28.000Z</time>
      </trkpt>
      <trkpt lat="45.573743" lon="7.857902">
        <ele>1493.16992</ele>
        <time>2024-10-15T09:09:30.000Z</time>
      </trkpt>
      <trkpt lat="45.573722" lon="7.857898">
        <ele>1493.56494</ele>
        <time>2024-10-15T09:09:33.000Z</time>
      </trkpt>
      <trkpt lat="45.573703" lon="7.857887">
        <ele>1493.92993</ele>
        <time>2024-10-15T09:09:35.000Z</time>
      </trkpt>
      <trkpt lat="45.573683" lon="7.857882">
        <ele>1494.28491</ele>
        <time>2024-10-15T09:09:37.000Z</time>
      </trkpt>
      <trkpt lat="45.573653" lon="7.857885">
        <ele>1494.58997</ele>
        <time>2024-10-15T09:09:39.000Z</time>
      </trkpt>
      <trkpt lat="45.573625" lon="7.85789">
        <ele>1494.83997</ele>
        <time>2024-10-15T09:09:41.000Z</time>
      </trkpt>
      <trkpt lat="45.5736" lon="7.857902">
        <ele>1495.03003</ele>
        <time>2024-10-15T09:09:43.000Z</time>
      </trkpt>
      <trkpt lat="45.573572" lon="7.857918">
        <ele>1495.15991</ele>
        <time>2024-10-15T09:09:45.000Z</time>
      </trkpt>
      <trkpt lat="45.573553" lon="7.857915">
        <ele>1495.26001</ele>
        <time>2024-10-15T09:09:47.000Z</time>
      </trkpt>
      <trkpt lat="45.573532" lon="7.857915">
        <ele>1495.32996</ele>
        <time>2024-10-15T09:09:49.000Z</time>
      </trkpt>
      <trkpt lat="45.573508" lon="7.857918">
        <ele>1495.36499</ele>
        <time>2024-10-15T09:09:51.000Z</time>
      </trkpt>
      <trkpt lat="45.573482" lon="7.857925">
        <ele>1495.3949</ele>
        <time>2024-10-15T09:09:53.000Z</time>
      </trkpt>
      <trkpt lat="45.573457" lon="7.857917">
        <ele>1495.41479</ele>
        <time>2024-10-15T09:09:55.000Z</time>
      </trkpt>
      <trkpt lat="45.573433" lon="7.8579">
        <ele>1495.45483</ele>
        <time>2024-10-15T09:09:57.000Z</time>
      </trkpt>
      <trkpt lat="45.573415" lon="7.857875">
        <ele>1495.52478</ele>
        <time>2024-10-15T09:09:59.000Z</time>
      </trkpt>
      <trkpt lat="45.5734" lon="7.85786">
        <ele>1495.62976</ele>
        <time>2024-10-15T09:10:00.000Z</time>
      </trkpt>
      <trkpt lat="45.573382" lon="7.857832">
        <ele>1495.76978</ele>
        <time>2024-10-15T09:10:02.000Z</time>
      </trkpt>
      <trkpt lat="45.573362" lon="7.857823">
        <ele>1495.86987</ele>
        <time>2024-10-15T09:10:07.000Z</time>
      </trkpt>
      <trkpt lat="45.573325" lon="7.857823">
        <ele>1496.08472</ele>
        <time>2024-10-15T09:10:17.000Z</time>
      </trkpt>
      <trkpt lat="45.573307" lon="7.857807">
        <ele>1496.2948</ele>
        <time>2024-10-15T09:10:19.000Z</time>
      </trkpt>
      <trkpt lat="45.573287" lon="7.857793">
        <ele>1496.47986</ele>
        <time>2024-10-15T09:10:21.000Z</time>
      </trkpt>
      <trkpt lat="45.573263" lon="7.857783">
        <ele>1496.68481</ele>
        <time>2024-10-15T09:10:23.000Z</time>
      </trkpt>
      <trkpt lat="45.573242" lon="7.85778">
        <ele>1496.95483</ele>
        <time>2024-10-15T09:10:25.000Z</time>
      </trkpt>
      <trkpt lat="45.57322" lon="7.857782">
        <ele>1497.26978</ele>
        <time>2024-10-15T09:10:27.000Z</time>
      </trkpt>
      <trkpt lat="45.5732" lon="7.85778">
        <ele>1497.64978</ele>
        <time>2024-10-15T09:10:29.000Z</time>
      </trkpt>
      <trkpt lat="45.573177" lon="7.857788">
        <ele>1498.13477</ele>
        <time>2024-10-15T09:10:32.000Z</time>
      </trkpt>
      <trkpt lat="45.573157" lon="7.857792">
        <ele>1498.70483</ele>
        <time>2024-10-15T09:10:34.000Z</time>
      </trkpt>
      <trkpt lat="45.573135" lon="7.857792">
        <ele>1499.34485</ele>
        <time>2024-10-15T09:10:36.000Z</time>
      </trkpt>
      <trkpt lat="45.573117" lon="7.857797">
        <ele>1500.01489</ele>
        <time>2024-10-15T09:10:38.000Z</time>
      </trkpt>
      <trkpt lat="45.573092" lon="7.8578">
        <ele>1500.69482</ele>
        <time>2024-10-15T09:10:40.000Z</time>
      </trkpt>
      <trkpt lat="45.573068" lon="7.8578">
        <ele>1501.39478</ele>
        <time>2024-10-15T09:10:42.000Z</time>
      </trkpt>
      <trkpt lat="45.573047" lon="7.857797">
        <ele>1502.05981</ele>
        <time>2024-10-15T09:10:44.000Z</time>
      </trkpt>
      <trkpt lat="45.573025" lon="7.857798">
        <ele>1502.69495</ele>
        <time>2024-10-15T09:10:46.000Z</time>
      </trkpt>
      <trkpt lat="45.573002" lon="7.857802">
        <ele>1503.255</ele>
        <time>2024-10-15T09:10:48.000Z</time>
      </trkpt>
      <trkpt lat="45.572975" lon="7.857808">
        <ele>1503.71997</ele>
        <time>2024-10-15T09:10:51.000Z</time>
      </trkpt>
      <trkpt lat="45.572947" lon="7.857823">
        <ele>1504.125</ele>
        <time>2024-10-15T09:10:53.000Z</time>
      </trkpt>
      <trkpt lat="45.572922" lon="7.857827">
        <ele>1504.5</ele>
        <time>2024-10-15T09:10:55.000Z</time>
      </trkpt>
      <trkpt lat="45.572893" lon="7.857827">
        <ele>1504.89001</ele>
        <time>2024-10-15T09:10:57.000Z</time>
      </trkpt>
      <trkpt lat="45.57286" lon="7.857822">
        <ele>1505.11499</ele>
        <time>2024-10-15T09:10:59.000Z</time>
      </trkpt>
      <trkpt lat="45.572842" lon="7.85782">
        <ele>1505.29004</ele>
        <time>2024-10-15T09:11:00.000Z</time>
      </trkpt>
      <trkpt lat="45.572813" lon="7.857818">
        <ele>1505.40991</ele>
        <time>2024-10-15T09:11:02.000Z</time>
      </trkpt>
      <trkpt lat="45.572785" lon="7.857813">
        <ele>1505.42993</ele>
        <time>2024-10-15T09:11:04.000Z</time>
      </trkpt>
      <trkpt lat="45.572765" lon="7.8578">
        <ele>1505.375</ele>
        <time>2024-10-15T09:11:06.000Z</time>
      </trkpt>
      <trkpt lat="45.572748" lon="7.857777">
        <ele>1505.28503</ele>
        <time>2024-10-15T09:11:08.000Z</time>
      </trkpt>
      <trkpt lat="45.572732" lon="7.857758">
        <ele>1505.18506</ele>
        <time>2024-10-15T09:11:10.000Z</time>
      </trkpt>
      <trkpt lat="45.57271" lon="7.85774">
        <ele>1505.04004</ele>
        <time>2024-10-15T09:11:12.000Z</time>
      </trkpt>
      <trkpt lat="45.572683" lon="7.857723">
        <ele>1504.85999</ele>
        <time>2024-10-15T09:11:14.000Z</time>
      </trkpt>
      <trkpt lat="45.572662" lon="7.85772">
        <ele>1504.6449</ele>
        <time>2024-10-15T09:11:16.000Z</time>
      </trkpt>
      <trkpt lat="45.572635" lon="7.857722">
        <ele>1504.40503</ele>
        <time>2024-10-15T09:11:19.000Z</time>
      </trkpt>
      <trkpt lat="45.572612" lon="7.85771">
        <ele>1504.14502</ele>
        <time>2024-10-15T09:11:22.000Z</time>
      </trkpt>
      <trkpt lat="45.572593" lon="7.857708">
        <ele>1503.89001</ele>
        <time>2024-10-15T09:11:24.000Z</time>
      </trkpt>
      <trkpt lat="45.572567" lon="7.857707">
        <ele>1503.625</ele>
        <time>2024-10-15T09:11:27.000Z</time>
      </trkpt>
      <trkpt lat="45.572542" lon="7.857693">
        <ele>1503.33496</ele>
        <time>2024-10-15T09:11:30.000Z</time>
      </trkpt>
      <trkpt lat="45.572518" lon="7.857688">
        <ele>1503.05994</ele>
        <time>2024-10-15T09:11:32.000Z</time>
      </trkpt>
      <trkpt lat="45.572492" lon="7.857685">
        <ele>1502.78003</ele>
        <time>2024-10-15T09:11:34.000Z</time>
      </trkpt>
      <trkpt lat="45.572467" lon="7.857678">
        <ele>1502.42993</ele>
        <time>2024-10-15T09:11:36.000Z</time>
      </trkpt>
      <trkpt lat="45.572442" lon="7.85769">
        <ele>1501.995</ele>
        <time>2024-10-15T09:11:38.000Z</time>
      </trkpt>
      <trkpt lat="45.572415" lon="7.857688">
        <ele>1501.48499</ele>
        <time>2024-10-15T09:11:40.000Z</time>
      </trkpt>
      <trkpt lat="45.572395" lon="7.85769">
        <ele>1500.94006</ele>
        <time>2024-10-15T09:11:42.000Z</time>
      </trkpt>
      <trkpt lat="45.572372" lon="7.857682">
        <ele>1500.34998</ele>
        <time>2024-10-15T09:11:45.000Z</time>
      </trkpt>
      <trkpt lat="45.572343" lon="7.857688">
        <ele>1499.745</ele>
        <time>2024-10-15T09:11:48.000Z</time>
      </trkpt>
      <trkpt lat="45.572322" lon="7.857675">
        <ele>1499.14001</ele>
        <time>2024-10-15T09:11:50.000Z</time>
      </trkpt>
      <trkpt lat="45.572305" lon="7.857652">
        <ele>1498.50513</ele>
        <time>2024-10-15T09:11:52.000Z</time>
      </trkpt>
      <trkpt lat="45.572278" lon="7.857638">
        <ele>1497.84009</ele>
        <time>2024-10-15T09:11:54.000Z</time>
      </trkpt>
      <trkpt lat="45.572252" lon="7.85763">
        <ele>1497.09998</ele>
        <time>2024-10-15T09:11:56.000Z</time>
      </trkpt>
      <trkpt lat="45.572228" lon="7.857615">
        <ele>1496.34497</ele>
        <time>2024-10-15T09:11:58.000Z</time>
      </trkpt>
      <trkpt lat="45.572195" lon="7.857595">
        <ele>1495.59497</ele>
        <time>2024-10-15T09:12:00.000Z</time>
      </trkpt>
      <trkpt lat="45.572172" lon="7.85757">
        <ele>1494.8501</ele>
        <time>2024-10-15T09:12:02.000Z</time>
      </trkpt>
      <trkpt lat="45.572147" lon="7.857557">
        <ele>1494.11499</ele>
        <time>2024-10-15T09:12:04.000Z</time>
      </trkpt>
      <trkpt lat="45.57214" lon="7.857502">
        <ele>1493.42004</ele>
        <time>2024-10-15T09:12:06.000Z</time>
      </trkpt>
      <trkpt lat="45.57215" lon="7.85748">
        <ele>1492.71997</ele>
        <time>2024-10-15T09:12:10.000Z</time>
      </trkpt>
      <trkpt lat="45.572168" lon="7.857458">
        <ele>1492.1001</ele>
        <time>2024-10-15T09:12:13.000Z</time>
      </trkpt>
      <trkpt lat="45.572153" lon="7.857427">
        <ele>1491.56519</ele>
        <time>2024-10-15T09:12:16.000Z</time>
      </trkpt>
      <trkpt lat="45.572137" lon="7.857402">
        <ele>1491.08521</ele>
        <time>2024-10-15T09:12:18.000Z</time>
      </trkpt>
      <trkpt lat="45.572123" lon="7.857378">
        <ele>1490.68005</ele>
        <time>2024-10-15T09:12:20.000Z</time>
      </trkpt>
      <trkpt lat="45.572107" lon="7.857357">
        <ele>1490.36011</ele>
        <time>2024-10-15T09:12:22.000Z</time>
      </trkpt>
      <trkpt lat="45.572097" lon="7.857323">
        <ele>1490.06006</ele>
        <time>2024-10-15T09:12:24.000Z</time>
      </trkpt>
      <trkpt lat="45.572092" lon="7.85729">
        <ele>1489.80505</ele>
        <time>2024-10-15T09:12:26.000Z</time>
      </trkpt>
      <trkpt lat="45.572088" lon="7.857258">
        <ele>1489.57007</ele>
        <time>2024-10-15T09:12:28.000Z</time>
      </trkpt>
      <trkpt lat="45.572082" lon="7.857233">
        <ele>1489.36499</ele>
        <time>2024-10-15T09:12:31.000Z</time>
      </trkpt>
      <trkpt lat="45.572075" lon="7.857198">
        <ele>1489.16504</ele>
        <time>2024-10-15T09:12:33.000Z</time>
      </trkpt>
      <trkpt lat="45.572065" lon="7.857165">
        <ele>1488.98511</ele>
        <time>2024-10-15T09:12:35.000Z</time>
      </trkpt>
      <trkpt lat="45.572062" lon="7.85713">
        <ele>1488.84009</ele>
        <time>2024-10-15T09:12:37.000Z</time>
      </trkpt>
      <trkpt lat="45.572047" lon="7.857107">
        <ele>1488.69995</ele>
        <time>2024-10-15T09:12:40.000Z</time>
      </trkpt>
      <trkpt lat="45.572033" lon="7.857088">
        <ele>1488.58508</ele>
        <time>2024-10-15T09:12:47.000Z</time>
      </trkpt>
      <trkpt lat="45.57201" lon="7.857077">
        <ele>1488.42505</ele>
        <time>2024-10-15T09:12:50.000Z</time>
      </trkpt>
      <trkpt lat="45.571992" lon="7.85706">
        <ele>1488.29517</ele>
        <time>2024-10-15T09:12:53.000Z</time>
      </trkpt>
      <trkpt lat="45.571972" lon="7.857047">
        <ele>1488.2251</ele>
        <time>2024-10-15T09:12:56.000Z</time>
      </trkpt>
      <trkpt lat="45.571973" lon="7.857015">
        <ele>1488.20007</ele>
        <time>2024-10-15T09:12:59.000Z</time>
      </trkpt>
      <trkpt lat="45.571985" lon="7.856987">
        <ele>1488.17505</ele>
        <time>2024-10-15T09:13:01.000Z</time>
      </trkpt>
      <trkpt lat="45.571997" lon="7.856957">
        <ele>1488.16003</ele>
        <time>2024-10-15T09:13:03.000Z</time>
      </trkpt>
      <trkpt lat="45.571983" lon="7.856933">
        <ele>1488.10498</ele>
        <time>2024-10-15T09:13:05.000Z</time>
      </trkpt>
      <trkpt lat="45.571973" lon="7.856907">
        <ele>1488.02502</ele>
        <time>2024-10-15T09:13:07.000Z</time>
      </trkpt>
      <trkpt lat="45.571962" lon="7.856885">
        <ele>1487.94495</ele>
        <time>2024-10-15T09:13:10.000Z</time>
      </trkpt>
      <trkpt lat="45.57194" lon="7.856882">
        <ele>1487.86987</ele>
        <time>2024-10-15T09:13:14.000Z</time>
      </trkpt>
      <trkpt lat="45.571922" lon="7.85689">
        <ele>1487.80493</ele>
        <time>2024-10-15T09:13:17.000Z</time>
      </trkpt>
      <trkpt lat="45.5719" lon="7.856893">
        <ele>1487.80994</ele>
        <time>2024-10-15T09:13:20.000Z</time>
      </trkpt>
      <trkpt lat="45.571873" lon="7.856893">
        <ele>1487.875</ele>
        <time>2024-10-15T09:13:23.000Z</time>
      </trkpt>
      <trkpt lat="45.571853" lon="7.856885">
        <ele>1488.0</ele>
        <time>2024-10-15T09:13:26.000Z</time>
      </trkpt>
      <trkpt lat="45.571835" lon="7.856888">
        <ele>1488.18494</ele>
        <time>2024-10-15T09:13:30.000Z</time>
      </trkpt>
      <trkpt lat="45.571812" lon="7.85688">
        <ele>1488.42004</ele>
        <time>2024-10-15T09:13:34.000Z</time>
      </trkpt>
      <trkpt lat="45.571793" lon="7.856865">
        <ele>1488.65991</ele>
        <time>2024-10-15T09:13:36.000Z</time>
      </trkpt>
      <trkpt lat="45.571778" lon="7.856847">
        <ele>1488.88989</ele>
        <time>2024-10-15T09:13:38.000Z</time>
      </trkpt>
      <trkpt lat="45.571767" lon="7.856825">
        <ele>1489.12</ele>
        <time>2024-10-15T09:13:40.000Z</time>
      </trkpt>
      <trkpt lat="45.571743" lon="7.856823">
        <ele>1489.38</ele>
        <time>2024-10-15T09:13:42.000Z</time>
      </trkpt>
      <trkpt lat="45.571718" lon="7.856827">
        <ele>1489.66992</ele>
        <time>2024-10-15T09:13:45.000Z</time>
      </trkpt>
      <trkpt lat="45.5717" lon="7.856823">
        <ele>1489.92993</ele>
        <time>2024-10-15T09:13:47.000Z</time>
      </trkpt>
      <trkpt lat="45.571682" lon="7.856817">
        <ele>1490.17505</ele>
        <time>2024-10-15T09:13:51.000Z</time>
      </trkpt>
      <trkpt lat="45.571662" lon="7.856783">
        <ele>1490.46509</ele>
        <time>2024-10-15T09:13:55.000Z</time>
      </trkpt>
      <trkpt lat="45.571653" lon="7.856758">
        <ele>1490.75513</ele>
        <time>2024-10-15T09:14:00.000Z</time>
      </trkpt>
      <trkpt lat="45.57164" lon="7.85674">
        <ele>1491.15015</ele>
        <time>2024-10-15T09:14:06.000Z</time>
      </trkpt>
      <trkpt lat="45.571623" lon="7.85672">
        <ele>1491.62512</ele>
        <time>2024-10-15T09:14:10.000Z</time>
      </trkpt>
      <trkpt lat="45.571612" lon="7.85674">
        <ele>1492.15015</ele>
        <time>2024-10-15T09:14:15.000Z</time>
      </trkpt>
      <trkpt lat="45.57162" lon="7.856768">
        <ele>1492.66516</ele>
        <time>2024-10-15T09:14:19.000Z</time>
      </trkpt>
      <trkpt lat="45.57164" lon="7.85677">
        <ele>1493.17017</ele>
        <time>2024-10-15T09:14:22.000Z</time>
      </trkpt>
      <trkpt lat="45.571658" lon="7.856777">
        <ele>1493.68018</ele>
        <time>2024-10-15T09:14:26.000Z</time>
      </trkpt>
      <trkpt lat="45.571672" lon="7.8568">
        <ele>1494.2052</ele>
        <time>2024-10-15T09:14:31.000Z</time>
      </trkpt>
      <trkpt lat="45.571683" lon="7.856827">
        <ele>1494.71509</ele>
        <time>2024-10-15T09:14:33.000Z</time>
      </trkpt>
      <trkpt lat="45.571685" lon="7.856858">
        <ele>1495.23511</ele>
        <time>2024-10-15T09:14:36.000Z</time>
      </trkpt>
      <trkpt lat="45.571665" lon="7.856887">
        <ele>1495.76514</ele>
        <time>2024-10-15T09:14:40.000Z</time>
      </trkpt>
      <trkpt lat="45.571643" lon="7.8569">
        <ele>1496.31519</ele>
        <time>2024-10-15T09:14:43.000Z</time>
      </trkpt>
      <trkpt lat="45.571615" lon="7.856902">
        <ele>1496.92017</ele>
        <time>2024-10-15T09:14:47.000Z</time>
      </trkpt>
      <trkpt lat="45.571598" lon="7.856912">
        <ele>1497.57019</ele>
        <time>2024-10-15T09:14:50.000Z</time>
      </trkpt>
      <trkpt lat="45.571568" lon="7.856913">
        <ele>1498.24524</ele>
        <time>2024-10-15T09:14:53.000Z</time>
      </trkpt>
      <trkpt lat="45.57155" lon="7.856932">
        <ele>1498.9353</ele>
        <time>2024-10-15T09:14:57.000Z</time>
      </trkpt>
      <trkpt lat="45.571532" lon="7.856928">
        <ele>1499.65527</ele>
        <time>2024-10-15T09:15:00.000Z</time>
      </trkpt>
      <trkpt lat="45.571507" lon="7.856922">
        <ele>1500.41528</ele>
        <time>2024-10-15T09:15:04.000Z</time>
      </trkpt>
      <trkpt lat="45.57145" lon="7.856935">
        <ele>1501.26526</ele>
        <time>2024-10-15T09:15:14.000Z</time>
      </trkpt>
      <trkpt lat="45.571432" lon="7.856922">
        <ele>1502.0752</ele>
        <time>2024-10-15T09:15:17.000Z</time>
      </trkpt>
      <trkpt lat="45.571405" lon="7.856907">
        <ele>1502.87012</ele>
        <time>2024-10-15T09:15:20.000Z</time>
      </trkpt>
      <trkpt lat="45.571387" lon="7.856892">
        <ele>1503.56018</ele>
        <time>2024-10-15T09:15:22.000Z</time>
      </trkpt>
      <trkpt lat="45.57137" lon="7.85687">
        <ele>1504.21521</ele>
        <time>2024-10-15T09:15:25.000Z</time>
      </trkpt>
      <trkpt lat="45.57137" lon="7.856843">
        <ele>1504.88013</ele>
        <time>2024-10-15T09:15:29.000Z</time>
      </trkpt>
      <trkpt lat="45.571353" lon="7.856828">
        <ele>1505.5752</ele>
        <time>2024-10-15T09:15:31.000Z</time>
      </trkpt>
      <trkpt lat="45.57133" lon="7.856822">
        <ele>1506.3252</ele>
        <time>2024-10-15T09:15:33.000Z</time>
      </trkpt>
      <trkpt lat="45.57131" lon="7.856815">
        <ele>1507.11011</ele>
        <time>2024-10-15T09:15:35.000Z</time>
      </trkpt>
      <trkpt lat="45.571292" lon="7.856807">
        <ele>1507.91516</ele>
        <time>2024-10-15T09:15:37.000Z</time>
      </trkpt>
      <trkpt lat="45.571268" lon="7.856805">
        <ele>1508.75012</ele>
        <time>2024-10-15T09:15:39.000Z</time>
      </trkpt>
      <trkpt lat="45.571247" lon="7.856762">
        <ele>1509.37012</ele>
        <time>2024-10-15T09:16:01.000Z</time>
      </trkpt>
      <trkpt lat="45.57123" lon="7.856745">
        <ele>1509.97009</ele>
        <time>2024-10-15T09:16:06.000Z</time>
      </trkpt>
      <trkpt lat="45.571215" lon="7.856765">
        <ele>1510.55005</ele>
        <time>2024-10-15T09:16:11.000Z</time>
      </trkpt>
      <trkpt lat="45.571188" lon="7.856777">
        <ele>1511.08508</ele>
        <time>2024-10-15T09:16:13.000Z</time>
      </trkpt>
      <trkpt lat="45.57117" lon="7.85679">
        <ele>1511.59009</ele>
        <time>2024-10-15T09:16:20.000Z</time>
      </trkpt>
      <trkpt lat="45.571145" lon="7.856797">
        <ele>1512.09497</ele>
        <time>2024-10-15T09:16:24.000Z</time>
      </trkpt>
      <trkpt lat="45.571118" lon="7.8568">
        <ele>1512.60999</ele>
        <time>2024-10-15T09:16:27.000Z</time>
      </trkpt>
      <trkpt lat="45.5711" lon="7.856808">
        <ele>1513.13989</ele>
        <time>2024-10-15T09:16:29.000Z</time>
      </trkpt>
      <trkpt lat="45.571072" lon="7.856815">
        <ele>1513.67493</ele>
        <time>2024-10-15T09:16:31.000Z</time>
      </trkpt>
      <trkpt lat="45.57105" lon="7.856818">
        <ele>1514.15991</ele>
        <time>2024-10-15T09:16:34.000Z</time>
      </trkpt>
      <trkpt lat="45.571035" lon="7.856837">
        <ele>1514.71484</ele>
        <time>2024-10-15T09:16:39.000Z</time>
      </trkpt>
      <trkpt lat="45.571025" lon="7.856867">
        <ele>1515.32983</ele>
        <time>2024-10-15T09:16:46.000Z</time>
      </trkpt>
      <trkpt lat="45.571018" lon="7.856892">
        <ele>1515.96484</ele>
        <time>2024-10-15T09:16:51.000Z</time>
      </trkpt>
      <trkpt lat="45.571002" lon="7.856913">
        <ele>1516.59485</ele>
        <time>2024-10-15T09:16:59.000Z</time>
      </trkpt>
      <trkpt lat="45.57098" lon="7.856962">
        <ele>1517.32483</ele>
        <time>2024-10-15T09:17:13.000Z</time>
      </trkpt>
      <trkpt lat="45.570953" lon="7.856972">
        <ele>1518.01477</ele>
        <time>2024-10-15T09:17:15.000Z</time>
      </trkpt>
      <trkpt lat="45.570932" lon="7.856983">
        <ele>1518.64966</ele>
        <time>2024-10-15T09:17:18.000Z</time>
      </trkpt>
      <trkpt lat="45.570917" lon="7.857">
        <ele>1519.27466</ele>
        <time>2024-10-15T09:17:21.000Z</time>
      </trkpt>
      <trkpt lat="45.5709" lon="7.857017">
        <ele>1519.89966</ele>
        <time>2024-10-15T09:17:24.000Z</time>
      </trkpt>
      <trkpt lat="45.570878" lon="7.85703">
        <ele>1520.53479</ele>
        <time>2024-10-15T09:17:28.000Z</time>
      </trkpt>
      <trkpt lat="45.570882" lon="7.857058">
        <ele>1521.41968</ele>
        <time>2024-10-15T09:17:36.000Z</time>
      </trkpt>
      <trkpt lat="45.570863" lon="7.857065">
        <ele>1522.32483</ele>
        <time>2024-10-15T09:17:39.000Z</time>
      </trkpt>
      <trkpt lat="45.570845" lon="7.857078">
        <ele>1523.24487</ele>
        <time>2024-10-15T09:17:43.000Z</time>
      </trkpt>
      <trkpt lat="45.570828" lon="7.857092">
        <ele>1524.1748</ele>
        <time>2024-10-15T09:17:47.000Z</time>
      </trkpt>
      <trkpt lat="45.570812" lon="7.857102">
        <ele>1525.10986</ele>
        <time>2024-10-15T09:17:49.000Z</time>
      </trkpt>
      <trkpt lat="45.570785" lon="7.857115">
        <ele>1526.07483</ele>
        <time>2024-10-15T09:17:53.000Z</time>
      </trkpt>
      <trkpt lat="45.570745" lon="7.857155">
        <ele>1527.12476</ele>
        <time>2024-10-15T09:18:10.000Z</time>
      </trkpt>
      <trkpt lat="45.570722" lon="7.85715">
        <ele>1528.1748</ele>
        <time>2024-10-15T09:18:14.000Z</time>
      </trkpt>
      <trkpt lat="45.570695" lon="7.857148">
        <ele>1529.19482</ele>
        <time>2024-10-15T09:18:16.000Z</time>
      </trkpt>
      <trkpt lat="45.570677" lon="7.857145">
        <ele>1530.15991</ele>
        <time>2024-10-15T09:18:18.000Z</time>
      </trkpt>
      <trkpt lat="45.570655" lon="7.857148">
        <ele>1531.03992</ele>
        <time>2024-10-15T09:18:20.000Z</time>
      </trkpt>
      <trkpt lat="45.570637" lon="7.857153">
        <ele>1531.88989</ele>
        <time>2024-10-15T09:18:23.000Z</time>
      </trkpt>
      <trkpt lat="45.570618" lon="7.857155">
        <ele>1532.73999</ele>
        <time>2024-10-15T09:18:25.000Z</time>
      </trkpt>
      <trkpt lat="45.570592" lon="7.857152">
        <ele>1533.57495</ele>
        <time>2024-10-15T09:18:28.000Z</time>
      </trkpt>
      <trkpt lat="45.570565" lon="7.857142">
        <ele>1534.29492</ele>
        <time>2024-10-15T09:18:31.000Z</time>
      </trkpt>
      <trkpt lat="45.570537" lon="7.85714">
        <ele>1535.07495</ele>
        <time>2024-10-15T09:18:35.000Z</time>
      </trkpt>
      <trkpt lat="45.570528" lon="7.857167">
        <ele>1535.89001</ele>
        <time>2024-10-15T09:18:42.000Z</time>
      </trkpt>
      <trkpt lat="45.570513" lon="7.857187">
        <ele>1536.62512</ele>
        <time>2024-10-15T09:18:48.000Z</time>
      </trkpt>
      <trkpt lat="45.570485" lon="7.857187">
        <ele>1537.28503</ele>
        <time>2024-10-15T09:18:51.000Z</time>
      </trkpt>
      <trkpt lat="45.570462" lon="7.857175">
        <ele>1537.86499</ele>
        <time>2024-10-15T09:18:54.000Z</time>
      </trkpt>
      <trkpt lat="45.57044" lon="7.857172">
        <ele>1538.36011</ele>
        <time>2024-10-15T09:18:57.000Z</time>
      </trkpt>
      <trkpt lat="45.570418" lon="7.857162">
        <ele>1538.84009</ele>
        <time>2024-10-15T09:19:03.000Z</time>
      </trkpt>
      <trkpt lat="45.570392" lon="7.857162">
        <ele>1539.29504</ele>
        <time>2024-10-15T09:19:06.000Z</time>
      </trkpt>
      <trkpt lat="45.570372" lon="7.857168">
        <ele>1539.745</ele>
        <time>2024-10-15T09:19:09.000Z</time>
      </trkpt>
      <trkpt lat="45.570353" lon="7.857175">
        <ele>1540.16492</ele>
        <time>2024-10-15T09:19:13.000Z</time>
      </trkpt>
      <trkpt lat="45.570337" lon="7.857185">
        <ele>1540.57495</ele>
        <time>2024-10-15T09:19:17.000Z</time>
      </trkpt>
      <trkpt lat="45.570318" lon="7.8572">
        <ele>1541.01501</ele>
        <time>2024-10-15T09:19:24.000Z</time>
      </trkpt>
      <trkpt lat="45.570295" lon="7.857193">
        <ele>1541.46509</ele>
        <time>2024-10-15T09:19:29.000Z</time>
      </trkpt>
      <trkpt lat="45.570273" lon="7.857205">
        <ele>1541.93506</ele>
        <time>2024-10-15T09:19:32.000Z</time>
      </trkpt>
      <trkpt lat="45.570257" lon="7.857215">
        <ele>1542.43506</ele>
        <time>2024-10-15T09:19:37.000Z</time>
      </trkpt>
      <trkpt lat="45.570267" lon="7.857237">
        <ele>1542.95496</ele>
        <time>2024-10-15T09:19:42.000Z</time>
      </trkpt>
      <trkpt lat="45.57026" lon="7.857265">
        <ele>1543.505</ele>
        <time>2024-10-15T09:19:51.000Z</time>
      </trkpt>
      <trkpt lat="45.570243" lon="7.8573">
        <ele>1544.19006</ele>
        <time>2024-10-15T09:20:01.000Z</time>
      </trkpt>
      <trkpt lat="45.570227" lon="7.857315">
        <ele>1544.89502</ele>
        <time>2024-10-15T09:20:05.000Z</time>
      </trkpt>
      <trkpt lat="45.570208" lon="7.857335">
        <ele>1545.58008</ele>
        <time>2024-10-15T09:20:08.000Z</time>
      </trkpt>
      <trkpt lat="45.570192" lon="7.857347">
        <ele>1546.25</ele>
        <time>2024-10-15T09:20:11.000Z</time>
      </trkpt>
      <trkpt lat="45.570175" lon="7.857362">
        <ele>1546.8949</ele>
        <time>2024-10-15T09:20:13.000Z</time>
      </trkpt>
      <trkpt lat="45.570157" lon="7.857377">
        <ele>1547.62488</ele>
        <time>2024-10-15T09:20:17.000Z</time>
      </trkpt>
      <trkpt lat="45.570138" lon="7.857373">
        <ele>1548.41992</ele>
        <time>2024-10-15T09:20:21.000Z</time>
      </trkpt>
      <trkpt lat="45.57012" lon="7.857375">
        <ele>1549.26489</ele>
        <time>2024-10-15T09:20:23.000Z</time>
      </trkpt>
      <trkpt lat="45.570102" lon="7.85738">
        <ele>1550.15503</ele>
        <time>2024-10-15T09:20:25.000Z</time>
      </trkpt>
      <trkpt lat="45.570083" lon="7.857378">
        <ele>1551.03992</ele>
        <time>2024-10-15T09:20:28.000Z</time>
      </trkpt>
      <trkpt lat="45.570067" lon="7.857393">
        <ele>1551.97485</ele>
        <time>2024-10-15T09:20:33.000Z</time>
      </trkpt>
      <trkpt lat="45.570085" lon="7.8574">
        <ele>1552.94495</ele>
        <time>2024-10-15T09:20:40.000Z</time>
      </trkpt>
      <trkpt lat="45.570097" lon="7.857425">
        <ele>1553.95496</ele>
        <time>2024-10-15T09:20:43.000Z</time>
      </trkpt>
      <trkpt lat="45.570063" lon="7.857458">
        <ele>1554.99487</ele>
        <time>2024-10-15T09:20:50.000Z</time>
      </trkpt>
      <trkpt lat="45.570043" lon="7.857468">
        <ele>1555.8999</ele>
        <time>2024-10-15T09:20:52.000Z</time>
      </trkpt>
      <trkpt lat="45.570015" lon="7.85748">
        <ele>1556.79993</ele>
        <time>2024-10-15T09:20:55.000Z</time>
      </trkpt>
      <trkpt lat="45.569992" lon="7.857483">
        <ele>1557.67493</ele>
        <time>2024-10-15T09:20:57.000Z</time>
      </trkpt>
      <trkpt lat="45.569967" lon="7.857487">
        <ele>1558.51489</ele>
        <time>2024-10-15T09:21:01.000Z</time>
      </trkpt>
      <trkpt lat="45.569952" lon="7.857502">
        <ele>1559.31995</ele>
        <time>2024-10-15T09:21:03.000Z</time>
      </trkpt>
      <trkpt lat="45.569947" lon="7.85753">
        <ele>1560.13989</ele>
        <time>2024-10-15T09:21:09.000Z</time>
      </trkpt>
      <trkpt lat="45.569888" lon="7.857563">
        <ele>1560.98486</ele>
        <time>2024-10-15T09:21:30.000Z</time>
      </trkpt>
      <trkpt lat="45.569868" lon="7.857563">
        <ele>1561.81995</ele>
        <time>2024-10-15T09:21:34.000Z</time>
      </trkpt>
      <trkpt lat="45.569825" lon="7.857575">
        <ele>1562.6499</ele>
        <time>2024-10-15T09:21:42.000Z</time>
      </trkpt>
      <trkpt lat="45.569805" lon="7.857588">
        <ele>1563.43494</ele>
        <time>2024-10-15T09:21:45.000Z</time>
      </trkpt>
      <trkpt lat="45.56979" lon="7.857605">
        <ele>1564.19507</ele>
        <time>2024-10-15T09:21:50.000Z</time>
      </trkpt>
      <trkpt lat="45.569767" lon="7.857622">
        <ele>1564.90503</ele>
        <time>2024-10-15T09:21:53.000Z</time>
      </trkpt>
      <trkpt lat="45.569753" lon="7.85764">
        <ele>1565.58496</ele>
        <time>2024-10-15T09:21:58.000Z</time>
      </trkpt>
      <trkpt lat="45.569733" lon="7.857663">
        <ele>1566.29993</ele>
        <time>2024-10-15T09:22:06.000Z</time>
      </trkpt>
      <trkpt lat="45.569715" lon="7.857673">
        <ele>1566.99487</ele>
        <time>2024-10-15T09:22:09.000Z</time>
      </trkpt>
      <trkpt lat="45.569685" lon="7.857677">
        <ele>1567.6748</ele>
        <time>2024-10-15T09:22:12.000Z</time>
      </trkpt>
      <trkpt lat="45.569662" lon="7.857688">
        <ele>1568.27979</ele>
        <time>2024-10-15T09:22:15.000Z</time>
      </trkpt>
      <trkpt lat="45.569642" lon="7.857712">
        <ele>1568.8147</ele>
        <time>2024-10-15T09:22:19.000Z</time>
      </trkpt>
      <trkpt lat="45.569627" lon="7.857738">
        <ele>1569.28979</ele>
        <time>2024-10-15T09:22:26.000Z</time>
      </trkpt>
      <trkpt lat="45.56961" lon="7.857772">
        <ele>1569.69482</ele>
        <time>2024-10-15T09:22:29.000Z</time>
      </trkpt>
      <trkpt lat="45.569593" lon="7.857787">
        <ele>1570.07483</ele>
        <time>2024-10-15T09:22:31.000Z</time>
      </trkpt>
      <trkpt lat="45.56957" lon="7.857793">
        <ele>1570.40479</ele>
        <time>2024-10-15T09:22:35.000Z</time>
      </trkpt>
      <trkpt lat="45.56955" lon="7.85781">
        <ele>1570.71985</ele>
        <time>2024-10-15T09:22:38.000Z</time>
      </trkpt>
      <trkpt lat="45.569538" lon="7.85783">
        <ele>1571.02478</ele>
        <time>2024-10-15T09:22:42.000Z</time>
      </trkpt>
      <trkpt lat="45.569518" lon="7.857823">
        <ele>1571.37476</ele>
        <time>2024-10-15T09:22:49.000Z</time>
      </trkpt>
      <trkpt lat="45.569575" lon="7.857728">
        <ele>1572.07483</ele>
        <time>2024-10-15T09:24:53.000Z</time>
      </trkpt>
      <trkpt lat="45.569557" lon="7.85778">
        <ele>1572.96484</ele>
        <time>2024-10-15T09:30:50.000Z</time>
      </trkpt>
      <trkpt lat="45.569572" lon="7.857795">
        <ele>1573.76489</ele>
        <time>2024-10-15T09:30:52.000Z</time>
      </trkpt>
      <trkpt lat="45.56958" lon="7.857822">
        <ele>1574.52478</ele>
        <time>2024-10-15T09:30:54.000Z</time>
      </trkpt>
      <trkpt lat="45.56959" lon="7.857857">
        <ele>1575.23474</ele>
        <time>2024-10-15T09:30:57.000Z</time>
      </trkpt>
      <trkpt lat="45.569603" lon="7.857882">
        <ele>1575.92468</ele>
        <time>2024-10-15T09:31:00.000Z</time>
      </trkpt>
      <trkpt lat="45.569617" lon="7.8579">
        <ele>1576.60474</ele>
        <time>2024-10-15T09:31:02.000Z</time>
      </trkpt>
      <trkpt lat="45.569622" lon="7.857927">
        <ele>1577.2948</ele>
        <time>2024-10-15T09:31:05.000Z</time>
      </trkpt>
      <trkpt lat="45.569565" lon="7.857868">
        <ele>1578.07983</ele>
        <time>2024-10-15T09:31:32.000Z</time>
      </trkpt>
      <trkpt lat="45.569543" lon="7.85786">
        <ele>1578.78491</ele>
        <time>2024-10-15T09:31:35.000Z</time>
      </trkpt>
      <trkpt lat="45.56951" lon="7.857885">
        <ele>1579.41504</ele>
        <time>2024-10-15T09:31:40.000Z</time>
      </trkpt>
      <trkpt lat="45.569523" lon="7.857913">
        <ele>1580.02014</ele>
        <time>2024-10-15T09:31:45.000Z</time>
      </trkpt>
      <trkpt lat="45.569537" lon="7.857933">
        <ele>1580.63013</ele>
        <time>2024-10-15T09:31:48.000Z</time>
      </trkpt>
      <trkpt lat="45.569543" lon="7.857963">
        <ele>1581.24011</ele>
        <time>2024-10-15T09:31:53.000Z</time>
      </trkpt>
      <trkpt lat="45.569512" lon="7.858048">
        <ele>1581.82507</ele>
        <time>2024-10-15T09:32:13.000Z</time>
      </trkpt>
      <trkpt lat="45.569503" lon="7.858078">
        <ele>1582.32507</ele>
        <time>2024-10-15T09:32:15.000Z</time>
      </trkpt>
      <trkpt lat="45.569485" lon="7.858093">
        <ele>1582.67505</ele>
        <time>2024-10-15T09:32:20.000Z</time>
      </trkpt>
      <trkpt lat="45.569467" lon="7.858113">
        <ele>1582.96509</ele>
        <time>2024-10-15T09:32:22.000Z</time>
      </trkpt>
      <trkpt lat="45.569445" lon="7.85813">
        <ele>1583.20007</ele>
        <time>2024-10-15T09:32:25.000Z</time>
      </trkpt>
      <trkpt lat="45.56943" lon="7.858145">
        <ele>1583.3551</ele>
        <time>2024-10-15T09:32:27.000Z</time>
      </trkpt>
      <trkpt lat="45.569418" lon="7.858173">
        <ele>1583.04004</ele>
        <time>2024-10-15T09:32:29.000Z</time>
      </trkpt>
      <trkpt lat="45.569403" lon="7.858192">
        <ele>1582.33008</ele>
        <time>2024-10-15T09:32:31.000Z</time>
      </trkpt>
      <trkpt lat="45.569387" lon="7.85821">
        <ele>1581.66003</ele>
        <time>2024-10-15T09:32:33.000Z</time>
      </trkpt>
      <trkpt lat="45.569362" lon="7.858215">
        <ele>1580.98999</ele>
        <time>2024-10-15T09:32:35.000Z</time>
      </trkpt>
      <trkpt lat="45.569343" lon="7.858227">
        <ele>1580.36011</ele>
        <time>2024-10-15T09:32:36.000Z</time>
      </trkpt>
      <trkpt lat="45.569323" lon="7.858238">
        <ele>1579.74512</ele>
        <time>2024-10-15T09:32:38.000Z</time>
      </trkpt>
      <trkpt lat="45.569315" lon="7.858267">
        <ele>1579.13013</ele>
        <time>2024-10-15T09:32:40.000Z</time>
      </trkpt>
      <trkpt lat="45.569312" lon="7.858298">
        <ele>1578.46008</ele>
        <time>2024-10-15T09:32:42.000Z</time>
      </trkpt>
      <trkpt lat="45.5693" lon="7.858327">
        <ele>1577.61499</ele>
        <time>2024-10-15T09:32:44.000Z</time>
      </trkpt>
      <trkpt lat="45.569277" lon="7.858362">
        <ele>1576.80493</ele>
        <time>2024-10-15T09:32:46.000Z</time>
      </trkpt>
      <trkpt lat="45.569262" lon="7.858385">
        <ele>1576.03003</ele>
        <time>2024-10-15T09:32:47.000Z</time>
      </trkpt>
      <trkpt lat="45.569242" lon="7.858403">
        <ele>1575.26001</ele>
        <time>2024-10-15T09:32:48.000Z</time>
      </trkpt>
      <trkpt lat="45.56922" lon="7.858418">
        <ele>1574.47485</ele>
        <time>2024-10-15T09:32:50.000Z</time>
      </trkpt>
      <trkpt lat="45.569205" lon="7.858437">
        <ele>1573.72485</ele>
        <time>2024-10-15T09:32:53.000Z</time>
      </trkpt>
      <trkpt lat="45.569187" lon="7.858442">
        <ele>1573.00488</ele>
        <time>2024-10-15T09:32:55.000Z</time>
      </trkpt>
      <trkpt lat="45.569162" lon="7.858448">
        <ele>1572.36499</ele>
        <time>2024-10-15T09:32:57.000Z</time>
      </trkpt>
      <trkpt lat="45.569137" lon="7.858462">
        <ele>1571.86499</ele>
        <time>2024-10-15T09:32:59.000Z</time>
      </trkpt>
      <trkpt lat="45.569115" lon="7.858472">
        <ele>1571.40503</ele>
        <time>2024-10-15T09:33:01.000Z</time>
      </trkpt>
      <trkpt lat="45.569093" lon="7.858482">
        <ele>1570.98499</ele>
        <time>2024-10-15T09:33:03.000Z</time>
      </trkpt>
      <trkpt lat="45.569073" lon="7.858488">
        <ele>1570.56995</ele>
        <time>2024-10-15T09:33:05.000Z</time>
      </trkpt>
      <trkpt lat="45.569053" lon="7.858502">
        <ele>1570.18494</ele>
        <time>2024-10-15T09:33:07.000Z</time>
      </trkpt>
      <trkpt lat="45.569033" lon="7.858508">
        <ele>1569.81995</ele>
        <time>2024-10-15T09:33:09.000Z</time>
      </trkpt>
      <trkpt lat="45.569017" lon="7.858525">
        <ele>1569.43494</ele>
        <time>2024-10-15T09:33:12.000Z</time>
      </trkpt>
      <trkpt lat="45.569003" lon="7.858545">
        <ele>1569.06506</ele>
        <time>2024-10-15T09:33:14.000Z</time>
      </trkpt>
      <trkpt lat="45.568982" lon="7.858548">
        <ele>1568.7301</ele>
        <time>2024-10-15T09:33:16.000Z</time>
      </trkpt>
      <trkpt lat="45.568958" lon="7.858558">
        <ele>1568.45007</ele>
        <time>2024-10-15T09:33:18.000Z</time>
      </trkpt>
      <trkpt lat="45.568937" lon="7.85858">
        <ele>1568.24011</ele>
        <time>2024-10-15T09:33:20.000Z</time>
      </trkpt>
      <trkpt lat="45.56891" lon="7.858585">
        <ele>1568.14014</ele>
        <time>2024-10-15T09:33:23.000Z</time>
      </trkpt>
      <trkpt lat="45.568888" lon="7.858602">
        <ele>1568.11011</ele>
        <time>2024-10-15T09:33:25.000Z</time>
      </trkpt>
      <trkpt lat="45.568867" lon="7.858615">
        <ele>1568.14526</ele>
        <time>2024-10-15T09:33:27.000Z</time>
      </trkpt>
      <trkpt lat="45.568843" lon="7.858618">
        <ele>1568.25513</ele>
        <time>2024-10-15T09:33:29.000Z</time>
      </trkpt>
      <trkpt lat="45.56882" lon="7.858625">
        <ele>1568.4552</ele>
        <time>2024-10-15T09:33:32.000Z</time>
      </trkpt>
      <trkpt lat="45.5688" lon="7.858638">
        <ele>1568.72522</ele>
        <time>2024-10-15T09:33:34.000Z</time>
      </trkpt>
      <trkpt lat="45.56878" lon="7.858645">
        <ele>1569.04028</ele>
        <time>2024-10-15T09:33:36.000Z</time>
      </trkpt>
      <trkpt lat="45.56876" lon="7.858643">
        <ele>1569.40027</ele>
        <time>2024-10-15T09:33:39.000Z</time>
      </trkpt>
      <trkpt lat="45.568742" lon="7.858668">
        <ele>1569.78528</ele>
        <time>2024-10-15T09:33:42.000Z</time>
      </trkpt>
      <trkpt lat="45.568722" lon="7.85869">
        <ele>1570.1853</ele>
        <time>2024-10-15T09:33:45.000Z</time>
      </trkpt>
      <trkpt lat="45.568708" lon="7.858708">
        <ele>1570.59521</ele>
        <time>2024-10-15T09:33:48.000Z</time>
      </trkpt>
      <trkpt lat="45.568683" lon="7.858705">
        <ele>1570.99524</ele>
        <time>2024-10-15T09:33:50.000Z</time>
      </trkpt>
      <trkpt lat="45.568653" lon="7.858693">
        <ele>1571.41528</ele>
        <time>2024-10-15T09:33:52.000Z</time>
      </trkpt>
      <trkpt lat="45.568627" lon="7.85869">
        <ele>1571.85522</ele>
        <time>2024-10-15T09:33:54.000Z</time>
      </trkpt>
      <trkpt lat="45.568608" lon="7.858695">
        <ele>1572.30518</ele>
        <time>2024-10-15T09:33:56.000Z</time>
      </trkpt>
      <trkpt lat="45.56859" lon="7.858708">
        <ele>1572.76514</ele>
        <time>2024-10-15T09:33:59.000Z</time>
      </trkpt>
      <trkpt lat="45.568577" lon="7.858733">
        <ele>1573.27014</ele>
        <time>2024-10-15T09:34:03.000Z</time>
      </trkpt>
      <trkpt lat="45.568558" lon="7.858757">
        <ele>1573.78003</ele>
        <time>2024-10-15T09:34:06.000Z</time>
      </trkpt>
      <trkpt lat="45.568535" lon="7.858773">
        <ele>1574.27502</ele>
        <time>2024-10-15T09:34:08.000Z</time>
      </trkpt>
      <trkpt lat="45.568508" lon="7.858787">
        <ele>1574.755</ele>
        <time>2024-10-15T09:34:11.000Z</time>
      </trkpt>
      <trkpt lat="45.568485" lon="7.858802">
        <ele>1575.16504</ele>
        <time>2024-10-15T09:34:13.000Z</time>
      </trkpt>
      <trkpt lat="45.568468" lon="7.858812">
        <ele>1575.53503</ele>
        <time>2024-10-15T09:34:14.000Z</time>
      </trkpt>
      <trkpt lat="45.568435" lon="7.858827">
        <ele>1575.86499</ele>
        <time>2024-10-15T09:34:16.000Z</time>
      </trkpt>
      <trkpt lat="45.568415" lon="7.85883">
        <ele>1576.14001</ele>
        <time>2024-10-15T09:34:17.000Z</time>
      </trkpt>
      <trkpt lat="45.568397" lon="7.858837">
        <ele>1576.36499</ele>
        <time>2024-10-15T09:34:18.000Z</time>
      </trkpt>
      <trkpt lat="45.568368" lon="7.858843">
        <ele>1576.52515</ele>
        <time>2024-10-15T09:34:20.000Z</time>
      </trkpt>
      <trkpt lat="45.568342" lon="7.858855">
        <ele>1576.61499</ele>
        <time>2024-10-15T09:34:22.000Z</time>
      </trkpt>
      <trkpt lat="45.568313" lon="7.858865">
        <ele>1576.63</ele>
        <time>2024-10-15T09:34:24.000Z</time>
      </trkpt>
      <trkpt lat="45.568293" lon="7.858883">
        <ele>1576.59009</ele>
        <time>2024-10-15T09:34:26.000Z</time>
      </trkpt>
      <trkpt lat="45.568272" lon="7.858892">
        <ele>1576.53003</ele>
        <time>2024-10-15T09:34:28.000Z</time>
      </trkpt>
      <trkpt lat="45.568245" lon="7.858898">
        <ele>1576.45007</ele>
        <time>2024-10-15T09:34:31.000Z</time>
      </trkpt>
      <trkpt lat="45.568218" lon="7.85891">
        <ele>1576.34009</ele>
        <time>2024-10-15T09:34:33.000Z</time>
      </trkpt>
      <trkpt lat="45.568187" lon="7.858927">
        <ele>1576.22009</ele>
        <time>2024-10-15T09:34:35.000Z</time>
      </trkpt>
      <trkpt lat="45.56817" lon="7.85894">
        <ele>1576.08521</ele>
        <time>2024-10-15T09:34:36.000Z</time>
      </trkpt>
      <trkpt lat="45.568152" lon="7.85895">
        <ele>1575.98022</ele>
        <time>2024-10-15T09:34:38.000Z</time>
      </trkpt>
      <trkpt lat="45.56813" lon="7.858975">
        <ele>1575.89014</ele>
        <time>2024-10-15T09:34:42.000Z</time>
      </trkpt>
      <trkpt lat="45.568112" lon="7.858983">
        <ele>1575.74512</ele>
        <time>2024-10-15T09:34:44.000Z</time>
      </trkpt>
      <trkpt lat="45.568082" lon="7.85899">
        <ele>1575.55005</ele>
        <time>2024-10-15T09:34:46.000Z</time>
      </trkpt>
      <trkpt lat="45.568063" lon="7.858997">
        <ele>1575.31519</ele>
        <time>2024-10-15T09:34:47.000Z</time>
      </trkpt>
      <trkpt lat="45.568037" lon="7.859018">
        <ele>1575.03003</ele>
        <time>2024-10-15T09:34:49.000Z</time>
      </trkpt>
      <trkpt lat="45.568008" lon="7.859037">
        <ele>1574.73999</ele>
        <time>2024-10-15T09:34:51.000Z</time>
      </trkpt>
      <trkpt lat="45.567988" lon="7.859048">
        <ele>1574.44006</ele>
        <time>2024-10-15T09:34:53.000Z</time>
      </trkpt>
      <trkpt lat="45.567972" lon="7.85908">
        <ele>1574.15002</ele>
        <time>2024-10-15T09:34:56.000Z</time>
      </trkpt>
      <trkpt lat="45.567958" lon="7.859105">
        <ele>1573.85999</ele>
        <time>2024-10-15T09:34:58.000Z</time>
      </trkpt>
      <trkpt lat="45.567938" lon="7.85913">
        <ele>1573.56995</ele>
        <time>2024-10-15T09:35:00.000Z</time>
      </trkpt>
      <trkpt lat="45.567922" lon="7.85914">
        <ele>1573.30493</ele>
        <time>2024-10-15T09:35:01.000Z</time>
      </trkpt>
      <trkpt lat="45.567898" lon="7.859155">
        <ele>1573.05493</ele>
        <time>2024-10-15T09:35:03.000Z</time>
      </trkpt>
      <trkpt lat="45.567883" lon="7.859177">
        <ele>1572.79993</ele>
        <time>2024-10-15T09:35:05.000Z</time>
      </trkpt>
      <trkpt lat="45.567873" lon="7.859205">
        <ele>1572.53979</ele>
        <time>2024-10-15T09:35:08.000Z</time>
      </trkpt>
      <trkpt lat="45.567865" lon="7.859235">
        <ele>1572.24487</ele>
        <time>2024-10-15T09:35:11.000Z</time>
      </trkpt>
      <trkpt lat="45.567855" lon="7.859258">
        <ele>1571.94983</ele>
        <time>2024-10-15T09:35:13.000Z</time>
      </trkpt>
      <trkpt lat="45.567838" lon="7.859288">
        <ele>1571.67981</ele>
        <time>2024-10-15T09:35:15.000Z</time>
      </trkpt>
      <trkpt lat="45.567823" lon="7.859317">
        <ele>1571.43481</ele>
        <time>2024-10-15T09:35:17.000Z</time>
      </trkpt>
      <trkpt lat="45.567803" lon="7.85934">
        <ele>1571.20972</ele>
        <time>2024-10-15T09:35:19.000Z</time>
      </trkpt>
      <trkpt lat="45.56779" lon="7.859373">
        <ele>1570.96472</ele>
        <time>2024-10-15T09:35:22.000Z</time>
      </trkpt>
      <trkpt lat="45.567773" lon="7.859383">
        <ele>1570.74487</ele>
        <time>2024-10-15T09:35:24.000Z</time>
      </trkpt>
      <trkpt lat="45.567758" lon="7.859408">
        <ele>1570.52478</ele>
        <time>2024-10-15T09:35:27.000Z</time>
      </trkpt>
      <trkpt lat="45.567738" lon="7.85943">
        <ele>1570.28491</ele>
        <time>2024-10-15T09:35:29.000Z</time>
      </trkpt>
      <trkpt lat="45.567722" lon="7.85946">
        <ele>1569.98486</ele>
        <time>2024-10-15T09:35:31.000Z</time>
      </trkpt>
      <trkpt lat="45.56771" lon="7.859487">
        <ele>1569.65991</ele>
        <time>2024-10-15T09:35:33.000Z</time>
      </trkpt>
      <trkpt lat="45.5677" lon="7.859512">
        <ele>1569.33484</ele>
        <time>2024-10-15T09:35:35.000Z</time>
      </trkpt>
      <trkpt lat="45.567682" lon="7.859538">
        <ele>1569.00476</ele>
        <time>2024-10-15T09:35:38.000Z</time>
      </trkpt>
      <trkpt lat="45.567663" lon="7.859552">
        <ele>1568.61487</ele>
        <time>2024-10-15T09:35:40.000Z</time>
      </trkpt>
      <trkpt lat="45.567648" lon="7.859577">
        <ele>1568.09497</ele>
        <time>2024-10-15T09:35:43.000Z</time>
      </trkpt>
      <trkpt lat="45.567645" lon="7.859613">
        <ele>1567.49988</ele>
        <time>2024-10-15T09:35:45.000Z</time>
      </trkpt>
      <trkpt lat="45.567645" lon="7.859648">
        <ele>1566.87988</ele>
        <time>2024-10-15T09:35:47.000Z</time>
      </trkpt>
      <trkpt lat="45.56763" lon="7.859675">
        <ele>1566.18494</ele>
        <time>2024-10-15T09:35:50.000Z</time>
      </trkpt>
      <trkpt lat="45.567635" lon="7.859708">
        <ele>1565.48499</ele>
        <time>2024-10-15T09:35:52.000Z</time>
      </trkpt>
      <trkpt lat="45.567633" lon="7.859735">
        <ele>1564.82007</ele>
        <time>2024-10-15T09:35:54.000Z</time>
      </trkpt>
      <trkpt lat="45.567643" lon="7.859762">
        <ele>1564.18005</ele>
        <time>2024-10-15T09:35:57.000Z</time>
      </trkpt>
      <trkpt lat="45.56763" lon="7.859785">
        <ele>1563.6001</ele>
        <time>2024-10-15T09:36:02.000Z</time>
      </trkpt>
      <trkpt lat="45.567612" lon="7.859797">
        <ele>1563.08008</ele>
        <time>2024-10-15T09:36:04.000Z</time>
      </trkpt>
      <trkpt lat="45.567603" lon="7.859843">
        <ele>1562.83521</ele>
        <time>2024-10-15T09:36:21.000Z</time>
      </trkpt>
      <trkpt lat="45.567607" lon="7.859878">
        <ele>1562.75513</ele>
        <time>2024-10-15T09:37:09.000Z</time>
      </trkpt>
      <trkpt lat="45.567622" lon="7.859923">
        <ele>1562.64014</ele>
        <time>2024-10-15T09:37:22.000Z</time>
      </trkpt>
      <trkpt lat="45.56761" lon="7.85996">
        <ele>1562.4801</ele>
        <time>2024-10-15T09:37:24.000Z</time>
      </trkpt>
      <trkpt lat="45.567607" lon="7.859987">
        <ele>1562.30005</ele>
        <time>2024-10-15T09:37:25.000Z</time>
      </trkpt>
      <trkpt lat="45.56761" lon="7.860015">
        <ele>1562.14001</ele>
        <time>2024-10-15T09:37:28.000Z</time>
      </trkpt>
      <trkpt lat="45.567617" lon="7.86004">
        <ele>1562.01001</ele>
        <time>2024-10-15T09:37:32.000Z</time>
      </trkpt>
      <trkpt lat="45.567615" lon="7.860067">
        <ele>1561.8501</ele>
        <time>2024-10-15T09:37:35.000Z</time>
      </trkpt>
      <trkpt lat="45.567632" lon="7.860087">
        <ele>1561.66003</ele>
        <time>2024-10-15T09:37:38.000Z</time>
      </trkpt>
      <trkpt lat="45.567643" lon="7.860115">
        <ele>1561.44507</ele>
        <time>2024-10-15T09:37:41.000Z</time>
      </trkpt>
      <trkpt lat="45.567642" lon="7.860152">
        <ele>1561.27014</ele>
        <time>2024-10-15T09:37:43.000Z</time>
      </trkpt>
      <trkpt lat="45.567647" lon="7.860188">
        <ele>1561.20007</ele>
        <time>2024-10-15T09:37:45.000Z</time>
      </trkpt>
      <trkpt lat="45.567648" lon="7.86023">
        <ele>1561.15515</ele>
        <time>2024-10-15T09:37:47.000Z</time>
      </trkpt>
      <trkpt lat="45.567658" lon="7.860265">
        <ele>1561.07019</ele>
        <time>2024-10-15T09:37:49.000Z</time>
      </trkpt>
      <trkpt lat="45.567672" lon="7.86029">
        <ele>1561.03516</ele>
        <time>2024-10-15T09:37:54.000Z</time>
      </trkpt>
      <trkpt lat="45.56767" lon="7.860328">
        <ele>1561.06519</ele>
        <time>2024-10-15T09:37:57.000Z</time>
      </trkpt>
      <trkpt lat="45.567663" lon="7.86036">
        <ele>1561.08508</ele>
        <time>2024-10-15T09:37:59.000Z</time>
      </trkpt>
      <trkpt lat="45.567652" lon="7.860385">
        <ele>1561.08508</ele>
        <time>2024-10-15T09:38:02.000Z</time>
      </trkpt>
      <trkpt lat="45.567643" lon="7.860415">
        <ele>1561.02515</ele>
        <time>2024-10-15T09:38:04.000Z</time>
      </trkpt>
      <trkpt lat="45.567632" lon="7.860452">
        <ele>1560.90015</ele>
        <time>2024-10-15T09:38:06.000Z</time>
      </trkpt>
      <trkpt lat="45.567625" lon="7.860482">
        <ele>1560.46008</ele>
        <time>2024-10-15T09:38:08.000Z</time>
      </trkpt>
      <trkpt lat="45.56761" lon="7.86051">
        <ele>1559.83508</ele>
        <time>2024-10-15T09:38:10.000Z</time>
      </trkpt>
      <trkpt lat="45.567597" lon="7.860538">
        <ele>1559.21509</ele>
        <time>2024-10-15T09:38:12.000Z</time>
      </trkpt>
      <trkpt lat="45.567595" lon="7.860568">
        <ele>1558.5752</ele>
        <time>2024-10-15T09:38:14.000Z</time>
      </trkpt>
      <trkpt lat="45.567583" lon="7.860602">
        <ele>1557.90515</ele>
        <time>2024-10-15T09:38:16.000Z</time>
      </trkpt>
      <trkpt lat="45.567572" lon="7.860638">
        <ele>1557.21021</ele>
        <time>2024-10-15T09:38:18.000Z</time>
      </trkpt>
      <trkpt lat="45.567563" lon="7.86067">
        <ele>1556.48511</ele>
        <time>2024-10-15T09:38:20.000Z</time>
      </trkpt>
      <trkpt lat="45.567557" lon="7.860697">
        <ele>1555.78516</ele>
        <time>2024-10-15T09:38:22.000Z</time>
      </trkpt>
      <trkpt lat="45.567545" lon="7.860717">
        <ele>1555.08521</ele>
        <time>2024-10-15T09:38:24.000Z</time>
      </trkpt>
      <trkpt lat="45.567523" lon="7.860753">
        <ele>1554.37512</ele>
        <time>2024-10-15T09:38:26.000Z</time>
      </trkpt>
      <trkpt lat="45.567502" lon="7.860778">
        <ele>1553.67004</ele>
        <time>2024-10-15T09:38:28.000Z</time>
      </trkpt>
      <trkpt lat="45.567487" lon="7.860798">
        <ele>1553.0</ele>
        <time>2024-10-15T09:38:30.000Z</time>
      </trkpt>
      <trkpt lat="45.567477" lon="7.860825">
        <ele>1552.35498</ele>
        <time>2024-10-15T09:38:32.000Z</time>
      </trkpt>
      <trkpt lat="45.56747" lon="7.860858">
        <ele>1551.76489</ele>
        <time>2024-10-15T09:38:34.000Z</time>
      </trkpt>
      <trkpt lat="45.567463" lon="7.860885">
        <ele>1551.20496</ele>
        <time>2024-10-15T09:38:37.000Z</time>
      </trkpt>
      <trkpt lat="45.567447" lon="7.860913">
        <ele>1550.61499</ele>
        <time>2024-10-15T09:38:40.000Z</time>
      </trkpt>
      <trkpt lat="45.567442" lon="7.860947">
        <ele>1550.02515</ele>
        <time>2024-10-15T09:38:43.000Z</time>
      </trkpt>
      <trkpt lat="45.567442" lon="7.860973">
        <ele>1549.495</ele>
        <time>2024-10-15T09:38:45.000Z</time>
      </trkpt>
      <trkpt lat="45.567437" lon="7.861003">
        <ele>1548.98499</ele>
        <time>2024-10-15T09:38:47.000Z</time>
      </trkpt>
      <trkpt lat="45.567428" lon="7.86103">
        <ele>1548.505</ele>
        <time>2024-10-15T09:38:50.000Z</time>
      </trkpt>
      <trkpt lat="45.567415" lon="7.861067">
        <ele>1548.09497</ele>
        <time>2024-10-15T09:38:53.000Z</time>
      </trkpt>
      <trkpt lat="45.567407" lon="7.861112">
        <ele>1547.70496</ele>
        <time>2024-10-15T09:38:55.000Z</time>
      </trkpt>
      <trkpt lat="45.567395" lon="7.861143">
        <ele>1547.33496</ele>
        <time>2024-10-15T09:38:57.000Z</time>
      </trkpt>
      <trkpt lat="45.567375" lon="7.86116">
        <ele>1547.02991</ele>
        <time>2024-10-15T09:38:59.000Z</time>
      </trkpt>
      <trkpt lat="45.567352" lon="7.861187">
        <ele>1546.78992</ele>
        <time>2024-10-15T09:39:01.000Z</time>
      </trkpt>
      <trkpt lat="45.567332" lon="7.861222">
        <ele>1546.59497</ele>
        <time>2024-10-15T09:39:03.000Z</time>
      </trkpt>
      <trkpt lat="45.567317" lon="7.861253">
        <ele>1546.44995</ele>
        <time>2024-10-15T09:39:05.000Z</time>
      </trkpt>
      <trkpt lat="45.567298" lon="7.861275">
        <ele>1546.32996</ele>
        <time>2024-10-15T09:39:07.000Z</time>
      </trkpt>
      <trkpt lat="45.567275" lon="7.861292">
        <ele>1546.27502</ele>
        <time>2024-10-15T09:39:10.000Z</time>
      </trkpt>
      <trkpt lat="45.567257" lon="7.861297">
        <ele>1546.28003</ele>
        <time>2024-10-15T09:39:12.000Z</time>
      </trkpt>
      <trkpt lat="45.567233" lon="7.861302">
        <ele>1546.30005</ele>
        <time>2024-10-15T09:39:14.000Z</time>
      </trkpt>
      <trkpt lat="45.567212" lon="7.86131">
        <ele>1546.31519</ele>
        <time>2024-10-15T09:39:16.000Z</time>
      </trkpt>
      <trkpt lat="45.567183" lon="7.861323">
        <ele>1546.32007</ele>
        <time>2024-10-15T09:39:18.000Z</time>
      </trkpt>
      <trkpt lat="45.56716" lon="7.861338">
        <ele>1546.28015</ele>
        <time>2024-10-15T09:39:20.000Z</time>
      </trkpt>
      <trkpt lat="45.567148" lon="7.861368">
        <ele>1546.21509</ele>
        <time>2024-10-15T09:39:22.000Z</time>
      </trkpt>
      <trkpt lat="45.567127" lon="7.861398">
        <ele>1546.09509</ele>
        <time>2024-10-15T09:39:24.000Z</time>
      </trkpt>
      <trkpt lat="45.5671" lon="7.861413">
        <ele>1545.95007</ele>
        <time>2024-10-15T09:39:27.000Z</time>
      </trkpt>
      <trkpt lat="45.567075" lon="7.861423">
        <ele>1545.75513</ele>
        <time>2024-10-15T09:39:29.000Z</time>
      </trkpt>
      <trkpt lat="45.567055" lon="7.861435">
        <ele>1545.53516</ele>
        <time>2024-10-15T09:39:31.000Z</time>
      </trkpt>
      <trkpt lat="45.567038" lon="7.861453">
        <ele>1545.28015</ele>
        <time>2024-10-15T09:39:33.000Z</time>
      </trkpt>
      <trkpt lat="45.567023" lon="7.861468">
        <ele>1544.96509</ele>
        <time>2024-10-15T09:39:35.000Z</time>
      </trkpt>
      <trkpt lat="45.566993" lon="7.861482">
        <ele>1544.61011</ele>
        <time>2024-10-15T09:39:37.000Z</time>
      </trkpt>
      <trkpt lat="45.566958" lon="7.861498">
        <ele>1544.22009</ele>
        <time>2024-10-15T09:39:39.000Z</time>
      </trkpt>
      <trkpt lat="45.566935" lon="7.861525">
        <ele>1543.81018</ele>
        <time>2024-10-15T09:39:41.000Z</time>
      </trkpt>
      <trkpt lat="45.566923" lon="7.861545">
        <ele>1543.42017</ele>
        <time>2024-10-15T09:39:43.000Z</time>
      </trkpt>
      <trkpt lat="45.566893" lon="7.861567">
        <ele>1543.01001</ele>
        <time>2024-10-15T09:39:45.000Z</time>
      </trkpt>
      <trkpt lat="45.566873" lon="7.86159">
        <ele>1542.6001</ele>
        <time>2024-10-15T09:39:47.000Z</time>
      </trkpt>
      <trkpt lat="45.566868" lon="7.861622">
        <ele>1542.17505</ele>
        <time>2024-10-15T09:39:49.000Z</time>
      </trkpt>
      <trkpt lat="45.566857" lon="7.861642">
        <ele>1541.73511</ele>
        <time>2024-10-15T09:39:52.000Z</time>
      </trkpt>
      <trkpt lat="45.566842" lon="7.861658">
        <ele>1541.30505</ele>
        <time>2024-10-15T09:39:54.000Z</time>
      </trkpt>
      <trkpt lat="45.566822" lon="7.861673">
        <ele>1540.89514</ele>
        <time>2024-10-15T09:39:56.000Z</time>
      </trkpt>
      <trkpt lat="45.566802" lon="7.861702">
        <ele>1540.50513</ele>
        <time>2024-10-15T09:39:58.000Z</time>
      </trkpt>
      <trkpt lat="45.566785" lon="7.861723">
        <ele>1540.14514</ele>
        <time>2024-10-15T09:40:00.000Z</time>
      </trkpt>
      <trkpt lat="45.566762" lon="7.861733">
        <ele>1539.84009</ele>
        <time>2024-10-15T09:40:02.000Z</time>
      </trkpt>
      <trkpt lat="45.56675" lon="7.86176">
        <ele>1539.53503</ele>
        <time>2024-10-15T09:40:04.000Z</time>
      </trkpt>
      <trkpt lat="45.566738" lon="7.861793">
        <ele>1539.27002</ele>
        <time>2024-10-15T09:40:06.000Z</time>
      </trkpt>
      <trkpt lat="45.566725" lon="7.86183">
        <ele>1539.05493</ele>
        <time>2024-10-15T09:40:08.000Z</time>
      </trkpt>
      <trkpt lat="45.566718" lon="7.861865">
        <ele>1538.86987</ele>
        <time>2024-10-15T09:40:10.000Z</time>
      </trkpt>
      <trkpt lat="45.566713" lon="7.861893">
        <ele>1538.70496</ele>
        <time>2024-10-15T09:40:12.000Z</time>
      </trkpt>
      <trkpt lat="45.5667" lon="7.861922">
        <ele>1538.56494</ele>
        <time>2024-10-15T09:40:14.000Z</time>
      </trkpt>
      <trkpt lat="45.566688" lon="7.861948">
        <ele>1538.45496</ele>
        <time>2024-10-15T09:40:16.000Z</time>
      </trkpt>
      <trkpt lat="45.566673" lon="7.861968">
        <ele>1538.40002</ele>
        <time>2024-10-15T09:40:18.000Z</time>
      </trkpt>
      <trkpt lat="45.56666" lon="7.86199">
        <ele>1538.35498</ele>
        <time>2024-10-15T09:40:20.000Z</time>
      </trkpt>
      <trkpt lat="45.566643" lon="7.862025">
        <ele>1538.32007</ele>
        <time>2024-10-15T09:40:23.000Z</time>
      </trkpt>
      <trkpt lat="45.566632" lon="7.862058">
        <ele>1538.26501</ele>
        <time>2024-10-15T09:40:25.000Z</time>
      </trkpt>
      <trkpt lat="45.566617" lon="7.8621">
        <ele>1538.21008</ele>
        <time>2024-10-15T09:40:27.000Z</time>
      </trkpt>
      <trkpt lat="45.5666" lon="7.862127">
        <ele>1538.16003</ele>
        <time>2024-10-15T09:40:29.000Z</time>
      </trkpt>
      <trkpt lat="45.566588" lon="7.862168">
        <ele>1538.14001</ele>
        <time>2024-10-15T09:40:31.000Z</time>
      </trkpt>
      <trkpt lat="45.566587" lon="7.8622">
        <ele>1538.13501</ele>
        <time>2024-10-15T09:40:33.000Z</time>
      </trkpt>
      <trkpt lat="45.566573" lon="7.86223">
        <ele>1538.12</ele>
        <time>2024-10-15T09:40:35.000Z</time>
      </trkpt>
      <trkpt lat="45.566567" lon="7.862255">
        <ele>1538.125</ele>
        <time>2024-10-15T09:40:37.000Z</time>
      </trkpt>
      <trkpt lat="45.566557" lon="7.862288">
        <ele>1538.15503</ele>
        <time>2024-10-15T09:40:40.000Z</time>
      </trkpt>
      <trkpt lat="45.56655" lon="7.86233">
        <ele>1538.19495</ele>
        <time>2024-10-15T09:40:43.000Z</time>
      </trkpt>
      <trkpt lat="45.566543" lon="7.862357">
        <ele>1538.24487</ele>
        <time>2024-10-15T09:40:45.000Z</time>
      </trkpt>
      <trkpt lat="45.566525" lon="7.86239">
        <ele>1538.31995</ele>
        <time>2024-10-15T09:40:47.000Z</time>
      </trkpt>
      <trkpt lat="45.56652" lon="7.86242">
        <ele>1538.3999</ele>
        <time>2024-10-15T09:40:49.000Z</time>
      </trkpt>
      <trkpt lat="45.56651" lon="7.86246">
        <ele>1538.45996</ele>
        <time>2024-10-15T09:40:52.000Z</time>
      </trkpt>
      <trkpt lat="45.56651" lon="7.862505">
        <ele>1538.55005</ele>
        <time>2024-10-15T09:40:54.000Z</time>
      </trkpt>
      <trkpt lat="45.566505" lon="7.862542">
        <ele>1538.63</ele>
        <time>2024-10-15T09:40:56.000Z</time>
      </trkpt>
      <trkpt lat="45.566493" lon="7.862575">
        <ele>1538.65002</ele>
        <time>2024-10-15T09:40:58.000Z</time>
      </trkpt>
      <trkpt lat="45.566482" lon="7.8626">
        <ele>1538.63</ele>
        <time>2024-10-15T09:41:00.000Z</time>
      </trkpt>
      <trkpt lat="45.566467" lon="7.862635">
        <ele>1538.63</ele>
        <time>2024-10-15T09:41:04.000Z</time>
      </trkpt>
      <trkpt lat="45.566443" lon="7.862655">
        <ele>1538.62</ele>
        <time>2024-10-15T09:41:06.000Z</time>
      </trkpt>
      <trkpt lat="45.566425" lon="7.862677">
        <ele>1538.59497</ele>
        <time>2024-10-15T09:41:08.000Z</time>
      </trkpt>
      <trkpt lat="45.56641" lon="7.862703">
        <ele>1538.55994</ele>
        <time>2024-10-15T09:41:10.000Z</time>
      </trkpt>
      <trkpt lat="45.566398" lon="7.862728">
        <ele>1538.51001</ele>
        <time>2024-10-15T09:41:12.000Z</time>
      </trkpt>
      <trkpt lat="45.56639" lon="7.862753">
        <ele>1538.44995</ele>
        <time>2024-10-15T09:41:14.000Z</time>
      </trkpt>
      <trkpt lat="45.566377" lon="7.862773">
        <ele>1538.38</ele>
        <time>2024-10-15T09:41:16.000Z</time>
      </trkpt>
      <trkpt lat="45.56636" lon="7.862802">
        <ele>1538.29004</ele>
        <time>2024-10-15T09:41:19.000Z</time>
      </trkpt>
      <trkpt lat="45.566338" lon="7.86282">
        <ele>1538.19006</ele>
        <time>2024-10-15T09:41:21.000Z</time>
      </trkpt>
      <trkpt lat="45.566317" lon="7.862842">
        <ele>1538.03003</ele>
        <time>2024-10-15T09:41:23.000Z</time>
      </trkpt>
      <trkpt lat="45.566302" lon="7.862862">
        <ele>1537.83008</ele>
        <time>2024-10-15T09:41:25.000Z</time>
      </trkpt>
      <trkpt lat="45.56628" lon="7.862888">
        <ele>1537.57507</ele>
        <time>2024-10-15T09:41:28.000Z</time>
      </trkpt>
      <trkpt lat="45.56627" lon="7.862913">
        <ele>1537.30518</ele>
        <time>2024-10-15T09:41:30.000Z</time>
      </trkpt>
      <trkpt lat="45.566257" lon="7.862935">
        <ele>1537.01013</ele>
        <time>2024-10-15T09:41:32.000Z</time>
      </trkpt>
      <trkpt lat="45.566232" lon="7.862965">
        <ele>1536.71021</ele>
        <time>2024-10-15T09:41:35.000Z</time>
      </trkpt>
      <trkpt lat="45.566212" lon="7.862972">
        <ele>1536.38013</ele>
        <time>2024-10-15T09:41:38.000Z</time>
      </trkpt>
      <trkpt lat="45.566192" lon="7.862993">
        <ele>1536.19019</ele>
        <time>2024-10-15T09:41:58.000Z</time>
      </trkpt>
      <trkpt lat="45.566182" lon="7.863022">
        <ele>1535.96021</ele>
        <time>2024-10-15T09:42:01.000Z</time>
      </trkpt>
      <trkpt lat="45.566173" lon="7.863053">
        <ele>1535.78015</ele>
        <time>2024-10-15T09:42:04.000Z</time>
      </trkpt>
      <trkpt lat="45.56616" lon="7.863077">
        <ele>1535.55518</ele>
        <time>2024-10-15T09:42:07.000Z</time>
      </trkpt>
      <trkpt lat="45.566147" lon="7.863103">
        <ele>1535.26013</ele>
        <time>2024-10-15T09:42:10.000Z</time>
      </trkpt>
      <trkpt lat="45.566137" lon="7.863137">
        <ele>1534.94507</ele>
        <time>2024-10-15T09:42:12.000Z</time>
      </trkpt>
      <trkpt lat="45.566128" lon="7.863178">
        <ele>1534.59009</ele>
        <time>2024-10-15T09:42:14.000Z</time>
      </trkpt>
      <trkpt lat="45.566112" lon="7.863215">
        <ele>1534.21509</ele>
        <time>2024-10-15T09:42:16.000Z</time>
      </trkpt>
      <trkpt lat="45.56609" lon="7.863238">
        <ele>1533.84998</ele>
        <time>2024-10-15T09:42:18.000Z</time>
      </trkpt>
      <trkpt lat="45.566068" lon="7.863263">
        <ele>1533.44995</ele>
        <time>2024-10-15T09:42:20.000Z</time>
      </trkpt>
      <trkpt lat="45.566052" lon="7.863278">
        <ele>1533.01489</ele>
        <time>2024-10-15T09:42:22.000Z</time>
      </trkpt>
      <trkpt lat="45.566043" lon="7.863302">
        <ele>1532.53491</ele>
        <time>2024-10-15T09:42:24.000Z</time>
      </trkpt>
      <trkpt lat="45.566033" lon="7.863327">
        <ele>1532.0249</ele>
        <time>2024-10-15T09:42:26.000Z</time>
      </trkpt>
      <trkpt lat="45.566023" lon="7.86336">
        <ele>1531.50989</ele>
        <time>2024-10-15T09:42:28.000Z</time>
      </trkpt>
      <trkpt lat="45.566007" lon="7.863378">
        <ele>1530.96997</ele>
        <time>2024-10-15T09:42:30.000Z</time>
      </trkpt>
      <trkpt lat="45.565988" lon="7.863392">
        <ele>1530.45483</ele>
        <time>2024-10-15T09:42:32.000Z</time>
      </trkpt>
      <trkpt lat="45.565973" lon="7.863412">
        <ele>1529.94482</ele>
        <time>2024-10-15T09:42:34.000Z</time>
      </trkpt>
      <trkpt lat="45.56595" lon="7.863438">
        <ele>1529.42993</ele>
        <time>2024-10-15T09:42:37.000Z</time>
      </trkpt>
      <trkpt lat="45.565932" lon="7.863457">
        <ele>1528.92493</ele>
        <time>2024-10-15T09:42:40.000Z</time>
      </trkpt>
      <trkpt lat="45.565908" lon="7.863463">
        <ele>1528.45483</ele>
        <time>2024-10-15T09:42:44.000Z</time>
      </trkpt>
      <trkpt lat="45.565883" lon="7.86348">
        <ele>1527.80981</ele>
        <time>2024-10-15T09:42:46.000Z</time>
      </trkpt>
      <trkpt lat="45.565865" lon="7.863522">
        <ele>1527.21484</ele>
        <time>2024-10-15T09:42:48.000Z</time>
      </trkpt>
      <trkpt lat="45.565853" lon="7.863565">
        <ele>1526.61487</ele>
        <time>2024-10-15T09:42:50.000Z</time>
      </trkpt>
      <trkpt lat="45.565837" lon="7.863585">
        <ele>1526.09485</ele>
        <time>2024-10-15T09:42:53.000Z</time>
      </trkpt>
      <trkpt lat="45.565817" lon="7.863593">
        <ele>1525.65991</ele>
        <time>2024-10-15T09:42:58.000Z</time>
      </trkpt>
      <trkpt lat="45.565798" lon="7.86361">
        <ele>1525.28992</ele>
        <time>2024-10-15T09:43:03.000Z</time>
      </trkpt>
      <trkpt lat="45.565778" lon="7.863617">
        <ele>1524.97998</ele>
        <time>2024-10-15T09:43:05.000Z</time>
      </trkpt>
      <trkpt lat="45.565757" lon="7.863608">
        <ele>1524.67505</ele>
        <time>2024-10-15T09:43:08.000Z</time>
      </trkpt>
      <trkpt lat="45.56573" lon="7.863603">
        <ele>1524.34998</ele>
        <time>2024-10-15T09:43:11.000Z</time>
      </trkpt>
      <trkpt lat="45.565712" lon="7.863585">
        <ele>1524.05005</ele>
        <time>2024-10-15T09:43:14.000Z</time>
      </trkpt>
      <trkpt lat="45.565692" lon="7.863592">
        <ele>1523.78003</ele>
        <time>2024-10-15T09:45:09.000Z</time>
      </trkpt>
      <trkpt lat="45.565688" lon="7.86353">
        <ele>1523.71997</ele>
        <time>2024-10-15T09:46:34.000Z</time>
      </trkpt>
      <trkpt lat="45.565692" lon="7.8635">
        <ele>1523.68994</ele>
        <time>2024-10-15T09:46:36.000Z</time>
      </trkpt>
      <trkpt lat="45.565665" lon="7.863508">
        <ele>1523.71497</ele>
        <time>2024-10-15T09:46:41.000Z</time>
      </trkpt>
      <trkpt lat="45.565642" lon="7.86352">
        <ele>1523.80493</ele>
        <time>2024-10-15T09:46:43.000Z</time>
      </trkpt>
      <trkpt lat="45.565623" lon="7.863518">
        <ele>1523.94995</ele>
        <time>2024-10-15T09:46:45.000Z</time>
      </trkpt>
      <trkpt lat="45.565598" lon="7.863505">
        <ele>1524.10486</ele>
        <time>2024-10-15T09:46:48.000Z</time>
      </trkpt>
      <trkpt lat="45.565587" lon="7.863485">
        <ele>1524.25989</ele>
        <time>2024-10-15T09:46:51.000Z</time>
      </trkpt>
      <trkpt lat="45.56557" lon="7.86346">
        <ele>1524.42493</ele>
        <time>2024-10-15T09:46:54.000Z</time>
      </trkpt>
      <trkpt lat="45.565565" lon="7.863425">
        <ele>1524.55493</ele>
        <time>2024-10-15T09:46:57.000Z</time>
      </trkpt>
      <trkpt lat="45.565565" lon="7.863397">
        <ele>1524.6449</ele>
        <time>2024-10-15T09:46:59.000Z</time>
      </trkpt>
      <trkpt lat="45.565543" lon="7.863372">
        <ele>1524.7699</ele>
        <time>2024-10-15T09:47:02.000Z</time>
      </trkpt>
      <trkpt lat="45.56552" lon="7.863353">
        <ele>1524.93481</ele>
        <time>2024-10-15T09:47:04.000Z</time>
      </trkpt>
      <trkpt lat="45.565502" lon="7.86334">
        <ele>1525.11987</ele>
        <time>2024-10-15T09:47:06.000Z</time>
      </trkpt>
      <trkpt lat="45.565472" lon="7.863328">
        <ele>1525.23474</ele>
        <time>2024-10-15T09:47:09.000Z</time>
      </trkpt>
      <trkpt lat="45.565452" lon="7.863298">
        <ele>1525.33472</ele>
        <time>2024-10-15T09:47:11.000Z</time>
      </trkpt>
      <trkpt lat="45.565438" lon="7.863273">
        <ele>1525.41968</ele>
        <time>2024-10-15T09:47:14.000Z</time>
      </trkpt>
      <trkpt lat="45.565423" lon="7.863247">
        <ele>1525.52466</ele>
        <time>2024-10-15T09:47:17.000Z</time>
      </trkpt>
      <trkpt lat="45.565422" lon="7.863213">
        <ele>1525.60974</ele>
        <time>2024-10-15T09:47:20.000Z</time>
      </trkpt>
      <trkpt lat="45.565412" lon="7.863182">
        <ele>1525.63977</ele>
        <time>2024-10-15T09:47:23.000Z</time>
      </trkpt>
      <trkpt lat="45.5654" lon="7.863142">
        <ele>1525.62476</ele>
        <time>2024-10-15T09:47:26.000Z</time>
      </trkpt>
      <trkpt lat="45.565385" lon="7.863113">
        <ele>1525.42981</ele>
        <time>2024-10-15T09:47:29.000Z</time>
      </trkpt>
      <trkpt lat="45.565362" lon="7.863103">
        <ele>1525.24487</ele>
        <time>2024-10-15T09:47:31.000Z</time>
      </trkpt>
      <trkpt lat="45.565338" lon="7.863088">
        <ele>1525.05981</ele>
        <time>2024-10-15T09:47:34.000Z</time>
      </trkpt>
      <trkpt lat="45.565325" lon="7.863057">
        <ele>1524.80981</ele>
        <time>2024-10-15T09:47:37.000Z</time>
      </trkpt>
      <trkpt lat="45.565317" lon="7.863033">
        <ele>1524.48486</ele>
        <time>2024-10-15T09:47:39.000Z</time>
      </trkpt>
      <trkpt lat="45.565305" lon="7.862997">
        <ele>1524.11987</ele>
        <time>2024-10-15T09:47:41.000Z</time>
      </trkpt>
      <trkpt lat="45.565293" lon="7.862972">
        <ele>1523.79492</ele>
        <time>2024-10-15T09:47:43.000Z</time>
      </trkpt>
      <trkpt lat="45.565277" lon="7.862957">
        <ele>1523.45984</ele>
        <time>2024-10-15T09:47:45.000Z</time>
      </trkpt>
      <trkpt lat="45.565262" lon="7.862942">
        <ele>1523.12988</ele>
        <time>2024-10-15T09:47:48.000Z</time>
      </trkpt>
      <trkpt lat="45.565252" lon="7.862915">
        <ele>1522.78491</ele>
        <time>2024-10-15T09:47:51.000Z</time>
      </trkpt>
      <trkpt lat="45.565227" lon="7.86289">
        <ele>1522.35986</ele>
        <time>2024-10-15T09:47:54.000Z</time>
      </trkpt>
      <trkpt lat="45.565205" lon="7.862885">
        <ele>1521.88489</ele>
        <time>2024-10-15T09:47:56.000Z</time>
      </trkpt>
      <trkpt lat="45.565187" lon="7.862883">
        <ele>1521.3999</ele>
        <time>2024-10-15T09:47:58.000Z</time>
      </trkpt>
      <trkpt lat="45.565165" lon="7.862878">
        <ele>1520.90991</ele>
        <time>2024-10-15T09:48:01.000Z</time>
      </trkpt>
      <trkpt lat="45.565147" lon="7.862872">
        <ele>1520.38989</ele>
        <time>2024-10-15T09:48:03.000Z</time>
      </trkpt>
      <trkpt lat="45.565125" lon="7.862857">
        <ele>1519.82495</ele>
        <time>2024-10-15T09:48:05.000Z</time>
      </trkpt>
      <trkpt lat="45.565115" lon="7.862833">
        <ele>1519.245</ele>
        <time>2024-10-15T09:48:07.000Z</time>
      </trkpt>
      <trkpt lat="45.565113" lon="7.862807">
        <ele>1518.71997</ele>
        <time>2024-10-15T09:48:09.000Z</time>
      </trkpt>
      <trkpt lat="45.565102" lon="7.86278">
        <ele>1518.23999</ele>
        <time>2024-10-15T09:48:11.000Z</time>
      </trkpt>
      <trkpt lat="45.565105" lon="7.862743">
        <ele>1517.79004</ele>
        <time>2024-10-15T09:48:13.000Z</time>
      </trkpt>
      <trkpt lat="45.565115" lon="7.862713">
        <ele>1517.31506</ele>
        <time>2024-10-15T09:48:15.000Z</time>
      </trkpt>
      <trkpt lat="45.565133" lon="7.862692">
        <ele>1516.61499</ele>
        <time>2024-10-15T09:48:20.000Z</time>
      </trkpt>
      <trkpt lat="45.56515" lon="7.862682">
        <ele>1515.84497</ele>
        <time>2024-10-15T09:48:23.000Z</time>
      </trkpt>
      <trkpt lat="45.565165" lon="7.862698">
        <ele>1514.995</ele>
        <time>2024-10-15T09:48:43.000Z</time>
      </trkpt>
      <trkpt lat="45.56515" lon="7.862682">
        <ele>1514.15002</ele>
        <time>2024-10-15T09:48:47.000Z</time>
      </trkpt>
      <trkpt lat="45.56513" lon="7.862682">
        <ele>1513.32495</ele>
        <time>2024-10-15T09:48:49.000Z</time>
      </trkpt>
      <trkpt lat="45.565113" lon="7.862672">
        <ele>1512.46997</ele>
        <time>2024-10-15T09:48:53.000Z</time>
      </trkpt>
      <trkpt lat="45.56509" lon="7.862652">
        <ele>1511.56506</ele>
        <time>2024-10-15T09:48:57.000Z</time>
      </trkpt>
      <trkpt lat="45.565082" lon="7.86262">
        <ele>1510.69507</ele>
        <time>2024-10-15T09:49:00.000Z</time>
      </trkpt>
      <trkpt lat="45.565073" lon="7.862592">
        <ele>1509.84497</ele>
        <time>2024-10-15T09:49:04.000Z</time>
      </trkpt>
      <trkpt lat="45.565072" lon="7.862562">
        <ele>1509.07495</ele>
        <time>2024-10-15T09:49:07.000Z</time>
      </trkpt>
      <trkpt lat="45.56506" lon="7.862538">
        <ele>1508.34998</ele>
        <time>2024-10-15T09:49:11.000Z</time>
      </trkpt>
      <trkpt lat="45.565057" lon="7.862505">
        <ele>1507.67004</ele>
        <time>2024-10-15T09:49:15.000Z</time>
      </trkpt>
      <trkpt lat="45.565048" lon="7.862478">
        <ele>1507.03491</ele>
        <time>2024-10-15T09:49:19.000Z</time>
      </trkpt>
      <trkpt lat="45.565045" lon="7.862445">
        <ele>1506.3949</ele>
        <time>2024-10-15T09:49:23.000Z</time>
      </trkpt>
      <trkpt lat="45.565028" lon="7.86241">
        <ele>1505.7699</ele>
        <time>2024-10-15T09:49:28.000Z</time>
      </trkpt>
      <trkpt lat="45.565023" lon="7.862385">
        <ele>1505.15503</ele>
        <time>2024-10-15T09:49:30.000Z</time>
      </trkpt>
      <trkpt lat="45.565013" lon="7.862355">
        <ele>1504.56494</ele>
        <time>2024-10-15T09:49:34.000Z</time>
      </trkpt>
      <trkpt lat="45.565013" lon="7.862325">
        <ele>1503.93994</ele>
        <time>2024-10-15T09:49:37.000Z</time>
      </trkpt>
      <trkpt lat="45.565018" lon="7.86229">
        <ele>1503.28992</ele>
        <time>2024-10-15T09:49:39.000Z</time>
      </trkpt>
      <trkpt lat="45.565013" lon="7.862262">
        <ele>1502.61499</ele>
        <time>2024-10-15T09:49:42.000Z</time>
      </trkpt>
      <trkpt lat="45.564997" lon="7.86225">
        <ele>1502.17993</ele>
        <time>2024-10-15T09:49:44.000Z</time>
      </trkpt>
      <trkpt lat="45.564992" lon="7.862222">
        <ele>1501.81482</ele>
        <time>2024-10-15T09:49:47.000Z</time>
      </trkpt>
      <trkpt lat="45.564997" lon="7.862172">
        <ele>1501.98486</ele>
        <time>2024-10-15T09:50:05.000Z</time>
      </trkpt>
      <trkpt lat="45.56497" lon="7.86216">
        <ele>1502.20483</ele>
        <time>2024-10-15T09:50:08.000Z</time>
      </trkpt>
      <trkpt lat="45.564952" lon="7.862155">
        <ele>1502.42493</ele>
        <time>2024-10-15T09:50:11.000Z</time>
      </trkpt>
      <trkpt lat="45.564933" lon="7.862153">
        <ele>1502.65991</ele>
        <time>2024-10-15T09:50:14.000Z</time>
      </trkpt>
      <trkpt lat="45.564947" lon="7.862135">
        <ele>1502.82495</ele>
        <time>2024-10-15T09:50:20.000Z</time>
      </trkpt>
      <trkpt lat="45.56504" lon="7.862072">
        <ele>1502.84497</ele>
        <time>2024-10-15T09:50:33.000Z</time>
      </trkpt>
      <trkpt lat="45.565032" lon="7.862047">
        <ele>1502.85498</ele>
        <time>2024-10-15T09:50:36.000Z</time>
      </trkpt>
      <trkpt lat="45.565018" lon="7.862093">
        <ele>1502.71509</ele>
        <time>2024-10-15T09:50:54.000Z</time>
      </trkpt>
      <trkpt lat="45.56504" lon="7.862107">
        <ele>1502.50513</ele>
        <time>2024-10-15T09:51:00.000Z</time>
      </trkpt>
      <trkpt lat="45.564995" lon="7.862082">
        <ele>1502.07507</ele>
        <time>2024-10-15T09:51:17.000Z</time>
      </trkpt>
      <trkpt lat="45.564928" lon="7.862063">
        <ele>1501.31519</ele>
        <time>2024-10-15T09:51:34.000Z</time>
      </trkpt>
      <trkpt lat="45.564927" lon="7.862037">
        <ele>1500.52515</ele>
        <time>2024-10-15T09:51:36.000Z</time>
      </trkpt>
      <trkpt lat="45.564922" lon="7.862008">
        <ele>1499.7052</ele>
        <time>2024-10-15T09:51:39.000Z</time>
      </trkpt>
      <trkpt lat="45.564898" lon="7.862005">
        <ele>1498.82007</ele>
        <time>2024-10-15T09:51:47.000Z</time>
      </trkpt>
      <trkpt lat="45.564887" lon="7.861978">
        <ele>1497.88013</ele>
        <time>2024-10-15T09:51:51.000Z</time>
      </trkpt>
      <trkpt lat="45.564895" lon="7.861955">
        <ele>1496.9552</ele>
        <time>2024-10-15T09:51:53.000Z</time>
      </trkpt>
      <trkpt lat="45.564918" lon="7.861888">
        <ele>1495.9552</ele>
        <time>2024-10-15T09:52:01.000Z</time>
      </trkpt>
      <trkpt lat="45.564913" lon="7.86186">
        <ele>1494.97522</ele>
        <time>2024-10-15T09:52:03.000Z</time>
      </trkpt>
      <trkpt lat="45.564922" lon="7.861837">
        <ele>1493.9303</ele>
        <time>2024-10-15T09:52:05.000Z</time>
      </trkpt>
      <trkpt lat="45.564923" lon="7.861805">
        <ele>1492.8053</ele>
        <time>2024-10-15T09:52:10.000Z</time>
      </trkpt>
      <trkpt lat="45.564905" lon="7.861833">
        <ele>1491.20032</ele>
        <time>2024-10-15T09:52:25.000Z</time>
      </trkpt>
      <trkpt lat="45.564885" lon="7.861837">
        <ele>1489.5553</ele>
        <time>2024-10-15T09:52:29.000Z</time>
      </trkpt>
      <trkpt lat="45.564865" lon="7.861817">
        <ele>1487.89026</ele>
        <time>2024-10-15T09:52:35.000Z</time>
      </trkpt>
      <trkpt lat="45.56484" lon="7.861797">
        <ele>1486.22021</ele>
        <time>2024-10-15T09:52:40.000Z</time>
      </trkpt>
      <trkpt lat="45.56483" lon="7.861775">
        <ele>1484.67017</ele>
        <time>2024-10-15T09:52:42.000Z</time>
      </trkpt>
      <trkpt lat="45.564813" lon="7.861765">
        <ele>1483.25024</ele>
        <time>2024-10-15T09:52:44.000Z</time>
      </trkpt>
      <trkpt lat="45.564792" lon="7.86175">
        <ele>1481.84509</ele>
        <time>2024-10-15T09:52:47.000Z</time>
      </trkpt>
      <trkpt lat="45.564782" lon="7.861727">
        <ele>1480.49512</ele>
        <time>2024-10-15T09:52:52.000Z</time>
      </trkpt>
      <trkpt lat="45.564697" lon="7.861767">
        <ele>1478.87512</ele>
        <time>2024-10-15T09:53:21.000Z</time>
      </trkpt>
      <trkpt lat="45.564692" lon="7.861793">
        <ele>1477.42004</ele>
        <time>2024-10-15T09:53:23.000Z</time>
      </trkpt>
      <trkpt lat="45.564645" lon="7.861828">
        <ele>1476.30005</ele>
        <time>2024-10-15T09:53:38.000Z</time>
      </trkpt>
      <trkpt lat="45.564627" lon="7.861805">
        <ele>1475.24487</ele>
        <time>2024-10-15T09:53:40.000Z</time>
      </trkpt>
      <trkpt lat="45.56464" lon="7.861768">
        <ele>1474.21997</ele>
        <time>2024-10-15T09:53:43.000Z</time>
      </trkpt>
      <trkpt lat="45.564658" lon="7.861758">
        <ele>1473.23499</ele>
        <time>2024-10-15T09:53:45.000Z</time>
      </trkpt>
      <trkpt lat="45.56467" lon="7.861733">
        <ele>1472.23999</ele>
        <time>2024-10-15T09:53:47.000Z</time>
      </trkpt>
      <trkpt lat="45.564678" lon="7.861703">
        <ele>1471.255</ele>
        <time>2024-10-15T09:53:49.000Z</time>
      </trkpt>
      <trkpt lat="45.56468" lon="7.861677">
        <ele>1470.36499</ele>
        <time>2024-10-15T09:53:51.000Z</time>
      </trkpt>
      <trkpt lat="45.564672" lon="7.86165">
        <ele>1469.43994</ele>
        <time>2024-10-15T09:53:56.000Z</time>
      </trkpt>
      <trkpt lat="45.564655" lon="7.861638">
        <ele>1468.50488</ele>
        <time>2024-10-15T09:54:00.000Z</time>
      </trkpt>
      <trkpt lat="45.564645" lon="7.861612">
        <ele>1467.52991</ele>
        <time>2024-10-15T09:54:07.000Z</time>
      </trkpt>
      <trkpt lat="45.56463" lon="7.861595">
        <ele>1466.57495</ele>
        <time>2024-10-15T09:54:10.000Z</time>
      </trkpt>
      <trkpt lat="45.564625" lon="7.861567">
        <ele>1465.505</ele>
        <time>2024-10-15T09:54:15.000Z</time>
      </trkpt>
      <trkpt lat="45.56462" lon="7.861535">
        <ele>1464.43494</ele>
        <time>2024-10-15T09:54:17.000Z</time>
      </trkpt>
      <trkpt lat="45.564623" lon="7.861505">
        <ele>1463.33997</ele>
        <time>2024-10-15T09:54:19.000Z</time>
      </trkpt>
      <trkpt lat="45.564635" lon="7.861473">
        <ele>1462.22986</ele>
        <time>2024-10-15T09:54:21.000Z</time>
      </trkpt>
      <trkpt lat="45.564647" lon="7.861443">
        <ele>1461.12488</ele>
        <time>2024-10-15T09:54:23.000Z</time>
      </trkpt>
      <trkpt lat="45.564645" lon="7.861412">
        <ele>1460.03992</ele>
        <time>2024-10-15T09:54:25.000Z</time>
      </trkpt>
      <trkpt lat="45.564628" lon="7.861435">
        <ele>1459.01489</ele>
        <time>2024-10-15T09:54:34.000Z</time>
      </trkpt>
      <trkpt lat="45.5646" lon="7.86145">
        <ele>1458.30493</ele>
        <time>2024-10-15T09:54:39.000Z</time>
      </trkpt>
      <trkpt lat="45.564577" lon="7.861457">
        <ele>1457.58508</ele>
        <time>2024-10-15T09:54:41.000Z</time>
      </trkpt>
      <trkpt lat="45.564558" lon="7.861458">
        <ele>1456.80005</ele>
        <time>2024-10-15T09:54:43.000Z</time>
      </trkpt>
      <trkpt lat="45.564537" lon="7.861465">
        <ele>1455.99512</ele>
        <time>2024-10-15T09:54:46.000Z</time>
      </trkpt>
      <trkpt lat="45.564533" lon="7.861435">
        <ele>1455.12512</ele>
        <time>2024-10-15T09:54:50.000Z</time>
      </trkpt>
      <trkpt lat="45.564538" lon="7.8614">
        <ele>1454.23511</ele>
        <time>2024-10-15T09:54:52.000Z</time>
      </trkpt>
      <trkpt lat="45.56455" lon="7.861375">
        <ele>1453.36499</ele>
        <time>2024-10-15T09:54:54.000Z</time>
      </trkpt>
      <trkpt lat="45.56456" lon="7.861352">
        <ele>1452.505</ele>
        <time>2024-10-15T09:54:56.000Z</time>
      </trkpt>
      <trkpt lat="45.56457" lon="7.861327">
        <ele>1451.63</ele>
        <time>2024-10-15T09:54:58.000Z</time>
      </trkpt>
      <trkpt lat="45.564582" lon="7.861302">
        <ele>1450.745</ele>
        <time>2024-10-15T09:55:00.000Z</time>
      </trkpt>
      <trkpt lat="45.564577" lon="7.861277">
        <ele>1449.8551</ele>
        <time>2024-10-15T09:55:02.000Z</time>
      </trkpt>
      <trkpt lat="45.564565" lon="7.861253">
        <ele>1448.96509</ele>
        <time>2024-10-15T09:55:05.000Z</time>
      </trkpt>
      <trkpt lat="45.564548" lon="7.861277">
        <ele>1448.05005</ele>
        <time>2024-10-15T09:55:12.000Z</time>
      </trkpt>
      <trkpt lat="45.564515" lon="7.861312">
        <ele>1447.27515</ele>
        <time>2024-10-15T09:55:21.000Z</time>
      </trkpt>
      <trkpt lat="45.564492" lon="7.861292">
        <ele>1446.58521</ele>
        <time>2024-10-15T09:55:24.000Z</time>
      </trkpt>
      <trkpt lat="45.564468" lon="7.861308">
        <ele>1445.99524</ele>
        <time>2024-10-15T09:55:27.000Z</time>
      </trkpt>
      <trkpt lat="45.564443" lon="7.861307">
        <ele>1445.48022</ele>
        <time>2024-10-15T09:55:29.000Z</time>
      </trkpt>
      <trkpt lat="45.564438" lon="7.861282">
        <ele>1444.98022</ele>
        <time>2024-10-15T09:55:31.000Z</time>
      </trkpt>
      <trkpt lat="45.56444" lon="7.861248">
        <ele>1444.50525</ele>
        <time>2024-10-15T09:55:35.000Z</time>
      </trkpt>
      <trkpt lat="45.564448" lon="7.861217">
        <ele>1444.02026</ele>
        <time>2024-10-15T09:55:37.000Z</time>
      </trkpt>
      <trkpt lat="45.564457" lon="7.86119">
        <ele>1443.48511</ele>
        <time>2024-10-15T09:55:39.000Z</time>
      </trkpt>
      <trkpt lat="45.564467" lon="7.861165">
        <ele>1442.89514</ele>
        <time>2024-10-15T09:55:41.000Z</time>
      </trkpt>
      <trkpt lat="45.564458" lon="7.861138">
        <ele>1442.28003</ele>
        <time>2024-10-15T09:55:44.000Z</time>
      </trkpt>
      <trkpt lat="45.564438" lon="7.861135">
        <ele>1441.64514</ele>
        <time>2024-10-15T09:55:47.000Z</time>
      </trkpt>
      <trkpt lat="45.564422" lon="7.861117">
        <ele>1441.1001</ele>
        <time>2024-10-15T09:55:54.000Z</time>
      </trkpt>
      <trkpt lat="45.564423" lon="7.861083">
        <ele>1440.6051</ele>
        <time>2024-10-15T09:55:56.000Z</time>
      </trkpt>
      <trkpt lat="45.564428" lon="7.861052">
        <ele>1440.13013</ele>
        <time>2024-10-15T09:55:58.000Z</time>
      </trkpt>
      <trkpt lat="45.564443" lon="7.861032">
        <ele>1439.66016</ele>
        <time>2024-10-15T09:56:00.000Z</time>
      </trkpt>
      <trkpt lat="45.564428" lon="7.861053">
        <ele>1439.16016</ele>
        <time>2024-10-15T09:56:07.000Z</time>
      </trkpt>
      <trkpt lat="45.564402" lon="7.860973">
        <ele>1438.70007</ele>
        <time>2024-10-15T09:56:16.000Z</time>
      </trkpt>
      <trkpt lat="45.564403" lon="7.860942">
        <ele>1438.26501</ele>
        <time>2024-10-15T09:56:18.000Z</time>
      </trkpt>
      <trkpt lat="45.56441" lon="7.860912">
        <ele>1437.80493</ele>
        <time>2024-10-15T09:56:22.000Z</time>
      </trkpt>
      <trkpt lat="45.564402" lon="7.860938">
        <ele>1437.33496</ele>
        <time>2024-10-15T09:56:27.000Z</time>
      </trkpt>
      <trkpt lat="45.564398" lon="7.86091">
        <ele>1436.79492</ele>
        <time>2024-10-15T09:56:36.000Z</time>
      </trkpt>
      <trkpt lat="45.564402" lon="7.86088">
        <ele>1436.19995</ele>
        <time>2024-10-15T09:56:39.000Z</time>
      </trkpt>
      <trkpt lat="45.564395" lon="7.86085">
        <ele>1435.50989</ele>
        <time>2024-10-15T09:56:43.000Z</time>
      </trkpt>
      <trkpt lat="45.56438" lon="7.860865">
        <ele>1434.70483</ele>
        <time>2024-10-15T09:56:48.000Z</time>
      </trkpt>
      <trkpt lat="45.564405" lon="7.860918">
        <ele>1433.77991</ele>
        <time>2024-10-15T09:57:06.000Z</time>
      </trkpt>
      <trkpt lat="45.564387" lon="7.860952">
        <ele>1432.84985</ele>
        <time>2024-10-15T09:57:09.000Z</time>
      </trkpt>
      <trkpt lat="45.564368" lon="7.860977">
        <ele>1431.91992</ele>
        <time>2024-10-15T09:57:13.000Z</time>
      </trkpt>
      <trkpt lat="45.564343" lon="7.860983">
        <ele>1430.99487</ele>
        <time>2024-10-15T09:57:17.000Z</time>
      </trkpt>
      <trkpt lat="45.564328" lon="7.860962">
        <ele>1430.08496</ele>
        <time>2024-10-15T09:57:19.000Z</time>
      </trkpt>
      <trkpt lat="45.564318" lon="7.86093">
        <ele>1429.15002</ele>
        <time>2024-10-15T09:57:21.000Z</time>
      </trkpt>
      <trkpt lat="45.564312" lon="7.860893">
        <ele>1428.18494</ele>
        <time>2024-10-15T09:57:24.000Z</time>
      </trkpt>
      <trkpt lat="45.564303" lon="7.860865">
        <ele>1427.19006</ele>
        <time>2024-10-15T09:57:26.000Z</time>
      </trkpt>
      <trkpt lat="45.564297" lon="7.860838">
        <ele>1426.1001</ele>
        <time>2024-10-15T09:57:29.000Z</time>
      </trkpt>
      <trkpt lat="45.564313" lon="7.860817">
        <ele>1424.93506</ele>
        <time>2024-10-15T09:57:33.000Z</time>
      </trkpt>
      <trkpt lat="45.56432" lon="7.860773">
        <ele>1423.73511</ele>
        <time>2024-10-15T09:57:36.000Z</time>
      </trkpt>
      <trkpt lat="45.564302" lon="7.860783">
        <ele>1422.41504</ele>
        <time>2024-10-15T09:57:50.000Z</time>
      </trkpt>
      <trkpt lat="45.564282" lon="7.860785">
        <ele>1421.1001</ele>
        <time>2024-10-15T09:57:53.000Z</time>
      </trkpt>
      <trkpt lat="45.564265" lon="7.860755">
        <ele>1419.79016</ele>
        <time>2024-10-15T09:57:56.000Z</time>
      </trkpt>
      <trkpt lat="45.564257" lon="7.860727">
        <ele>1418.5752</ele>
        <time>2024-10-15T09:57:58.000Z</time>
      </trkpt>
      <trkpt lat="45.564248" lon="7.860698">
        <ele>1417.40515</ele>
        <time>2024-10-15T09:58:00.000Z</time>
      </trkpt>
      <trkpt lat="45.564198" lon="7.860722">
        <ele>1416.19519</ele>
        <time>2024-10-15T09:58:15.000Z</time>
      </trkpt>
      <trkpt lat="45.564178" lon="7.860707">
        <ele>1414.93018</ele>
        <time>2024-10-15T09:58:18.000Z</time>
      </trkpt>
      <trkpt lat="45.564178" lon="7.86067">
        <ele>1413.7002</ele>
        <time>2024-10-15T09:58:21.000Z</time>
      </trkpt>
      <trkpt lat="45.564178" lon="7.860637">
        <ele>1412.54016</ele>
        <time>2024-10-15T09:58:23.000Z</time>
      </trkpt>
      <trkpt lat="45.56419" lon="7.8606">
        <ele>1411.48511</ele>
        <time>2024-10-15T09:58:25.000Z</time>
      </trkpt>
      <trkpt lat="45.564208" lon="7.860572">
        <ele>1410.40515</ele>
        <time>2024-10-15T09:58:27.000Z</time>
      </trkpt>
      <trkpt lat="45.564232" lon="7.860545">
        <ele>1409.28516</ele>
        <time>2024-10-15T09:58:29.000Z</time>
      </trkpt>
      <trkpt lat="45.564258" lon="7.86052">
        <ele>1408.12524</ele>
        <time>2024-10-15T09:58:31.000Z</time>
      </trkpt>
      <trkpt lat="45.564272" lon="7.8605">
        <ele>1406.9552</ele>
        <time>2024-10-15T09:58:33.000Z</time>
      </trkpt>
      <trkpt lat="45.56429" lon="7.860477">
        <ele>1405.78015</ele>
        <time>2024-10-15T09:58:36.000Z</time>
      </trkpt>
      <trkpt lat="45.5643" lon="7.860447">
        <ele>1404.59021</ele>
        <time>2024-10-15T09:58:38.000Z</time>
      </trkpt>
      <trkpt lat="45.564302" lon="7.860415">
        <ele>1403.36523</ele>
        <time>2024-10-15T09:58:41.000Z</time>
      </trkpt>
      <trkpt lat="45.56428" lon="7.860402">
        <ele>1402.23523</ele>
        <time>2024-10-15T09:58:45.000Z</time>
      </trkpt>
      <trkpt lat="45.564327" lon="7.860472">
        <ele>1401.15027</ele>
        <time>2024-10-15T09:59:06.000Z</time>
      </trkpt>
      <trkpt lat="45.564343" lon="7.86041">
        <ele>1400.00525</ele>
        <time>2024-10-15T09:59:12.000Z</time>
      </trkpt>
      <trkpt lat="45.564353" lon="7.860378">
        <ele>1399.00024</ele>
        <time>2024-10-15T09:59:14.000Z</time>
      </trkpt>
      <trkpt lat="45.564352" lon="7.860338">
        <ele>1397.99023</ele>
        <time>2024-10-15T09:59:17.000Z</time>
      </trkpt>
      <trkpt lat="45.564352" lon="7.860308">
        <ele>1397.04028</ele>
        <time>2024-10-15T09:59:20.000Z</time>
      </trkpt>
      <trkpt lat="45.564352" lon="7.860278">
        <ele>1396.14026</ele>
        <time>2024-10-15T09:59:24.000Z</time>
      </trkpt>
      <trkpt lat="45.564332" lon="7.860267">
        <ele>1395.30029</ele>
        <time>2024-10-15T09:59:29.000Z</time>
      </trkpt>
      <trkpt lat="45.56432" lon="7.86024">
        <ele>1394.61523</ele>
        <time>2024-10-15T09:59:32.000Z</time>
      </trkpt>
      <trkpt lat="45.564318" lon="7.860183">
        <ele>1393.97534</ele>
        <time>2024-10-15T09:59:41.000Z</time>
      </trkpt>
      <trkpt lat="45.56433" lon="7.860163">
        <ele>1393.35034</ele>
        <time>2024-10-15T09:59:43.000Z</time>
      </trkpt>
      <trkpt lat="45.564313" lon="7.860125">
        <ele>1393.01038</ele>
        <time>2024-10-15T10:00:10.000Z</time>
      </trkpt>
      <trkpt lat="45.564335" lon="7.860153">
        <ele>1392.72034</ele>
        <time>2024-10-15T10:00:17.000Z</time>
      </trkpt>
      <trkpt lat="45.56435" lon="7.860182">
        <ele>1392.44019</ele>
        <time>2024-10-15T10:00:18.000Z</time>
      </trkpt>
      <trkpt lat="45.564353" lon="7.86021">
        <ele>1392.20032</ele>
        <time>2024-10-15T10:00:22.000Z</time>
      </trkpt>
      <trkpt lat="45.564332" lon="7.860223">
        <ele>1391.98523</ele>
        <time>2024-10-15T10:00:26.000Z</time>
      </trkpt>
      <trkpt lat="45.564308" lon="7.860223">
        <ele>1391.75525</ele>
        <time>2024-10-15T10:00:29.000Z</time>
      </trkpt>
      <trkpt lat="45.564288" lon="7.860225">
        <ele>1391.54028</ele>
        <time>2024-10-15T10:00:31.000Z</time>
      </trkpt>
      <trkpt lat="45.564268" lon="7.860233">
        <ele>1391.35522</ele>
        <time>2024-10-15T10:00:33.000Z</time>
      </trkpt>
      <trkpt lat="45.564247" lon="7.860238">
        <ele>1391.19019</ele>
        <time>2024-10-15T10:00:36.000Z</time>
      </trkpt>
      <trkpt lat="45.564227" lon="7.86024">
        <ele>1390.9801</ele>
        <time>2024-10-15T10:00:38.000Z</time>
      </trkpt>
      <trkpt lat="45.564202" lon="7.860247">
        <ele>1390.73999</ele>
        <time>2024-10-15T10:00:41.000Z</time>
      </trkpt>
      <trkpt lat="45.564183" lon="7.86025">
        <ele>1390.57996</ele>
        <time>2024-10-15T10:00:43.000Z</time>
      </trkpt>
      <trkpt lat="45.564165" lon="7.860227">
        <ele>1390.42505</ele>
        <time>2024-10-15T10:00:45.000Z</time>
      </trkpt>
      <trkpt lat="45.564183" lon="7.860213">
        <ele>1390.27502</ele>
        <time>2024-10-15T10:00:47.000Z</time>
      </trkpt>
      <trkpt lat="45.56418" lon="7.860178">
        <ele>1390.05493</ele>
        <time>2024-10-15T10:00:49.000Z</time>
      </trkpt>
      <trkpt lat="45.564182" lon="7.860148">
        <ele>1389.76001</ele>
        <time>2024-10-15T10:00:52.000Z</time>
      </trkpt>
      <trkpt lat="45.564163" lon="7.860137">
        <ele>1389.45496</ele>
        <time>2024-10-15T10:00:55.000Z</time>
      </trkpt>
      <trkpt lat="45.564153" lon="7.860107">
        <ele>1389.14502</ele>
        <time>2024-10-15T10:00:58.000Z</time>
      </trkpt>
      <trkpt lat="45.564152" lon="7.860077">
        <ele>1388.84998</ele>
        <time>2024-10-15T10:01:00.000Z</time>
      </trkpt>
      <trkpt lat="45.56416" lon="7.860045">
        <ele>1388.54504</ele>
        <time>2024-10-15T10:01:02.000Z</time>
      </trkpt>
      <trkpt lat="45.564172" lon="7.860017">
        <ele>1387.93494</ele>
        <time>2024-10-15T10:01:07.000Z</time>
      </trkpt>
      <trkpt lat="45.564178" lon="7.859988">
        <ele>1387.28003</ele>
        <time>2024-10-15T10:01:10.000Z</time>
      </trkpt>
      <trkpt lat="45.564187" lon="7.859953">
        <ele>1386.60498</ele>
        <time>2024-10-15T10:01:13.000Z</time>
      </trkpt>
      <trkpt lat="45.564188" lon="7.859927">
        <ele>1385.92993</ele>
        <time>2024-10-15T10:01:15.000Z</time>
      </trkpt>
      <trkpt lat="45.564197" lon="7.859895">
        <ele>1385.28491</ele>
        <time>2024-10-15T10:01:18.000Z</time>
      </trkpt>
      <trkpt lat="45.564178" lon="7.859887">
        <ele>1384.62988</ele>
        <time>2024-10-15T10:01:24.000Z</time>
      </trkpt>
      <trkpt lat="45.564165" lon="7.859907">
        <ele>1384.04492</ele>
        <time>2024-10-15T10:01:28.000Z</time>
      </trkpt>
      <trkpt lat="45.56415" lon="7.859925">
        <ele>1383.48499</ele>
        <time>2024-10-15T10:01:33.000Z</time>
      </trkpt>
      <trkpt lat="45.564147" lon="7.85996">
        <ele>1382.91992</ele>
        <time>2024-10-15T10:01:38.000Z</time>
      </trkpt>
      <trkpt lat="45.56413" lon="7.859975">
        <ele>1382.38</ele>
        <time>2024-10-15T10:01:43.000Z</time>
      </trkpt>
      <trkpt lat="45.564112" lon="7.859975">
        <ele>1381.90503</ele>
        <time>2024-10-15T10:01:46.000Z</time>
      </trkpt>
      <trkpt lat="45.564083" lon="7.859973">
        <ele>1381.45496</ele>
        <time>2024-10-15T10:01:49.000Z</time>
      </trkpt>
      <trkpt lat="45.564065" lon="7.859967">
        <ele>1381.05994</ele>
        <time>2024-10-15T10:01:51.000Z</time>
      </trkpt>
      <trkpt lat="45.56404" lon="7.85996">
        <ele>1380.69006</ele>
        <time>2024-10-15T10:01:54.000Z</time>
      </trkpt>
      <trkpt lat="45.564022" lon="7.859965">
        <ele>1380.36011</ele>
        <time>2024-10-15T10:01:56.000Z</time>
      </trkpt>
      <trkpt lat="45.563997" lon="7.859948">
        <ele>1380.08508</ele>
        <time>2024-10-15T10:01:59.000Z</time>
      </trkpt>
      <trkpt lat="45.563995" lon="7.85992">
        <ele>1379.77502</ele>
        <time>2024-10-15T10:02:01.000Z</time>
      </trkpt>
      <trkpt lat="45.563992" lon="7.859888">
        <ele>1379.42993</ele>
        <time>2024-10-15T10:02:03.000Z</time>
      </trkpt>
      <trkpt lat="45.563993" lon="7.859855">
        <ele>1379.06995</ele>
        <time>2024-10-15T10:02:05.000Z</time>
      </trkpt>
      <trkpt lat="45.564007" lon="7.859818">
        <ele>1378.70984</ele>
        <time>2024-10-15T10:02:07.000Z</time>
      </trkpt>
      <trkpt lat="45.56402" lon="7.859797">
        <ele>1378.32495</ele>
        <time>2024-10-15T10:02:09.000Z</time>
      </trkpt>
      <trkpt lat="45.564038" lon="7.859778">
        <ele>1377.8999</ele>
        <time>2024-10-15T10:02:11.000Z</time>
      </trkpt>
      <trkpt lat="45.564048" lon="7.859757">
        <ele>1377.44995</ele>
        <time>2024-10-15T10:02:14.000Z</time>
      </trkpt>
      <trkpt lat="45.56403" lon="7.859757">
        <ele>1376.94995</ele>
        <time>2024-10-15T10:02:17.000Z</time>
      </trkpt>
      <trkpt lat="45.56401" lon="7.859768">
        <ele>1376.46997</ele>
        <time>2024-10-15T10:02:20.000Z</time>
      </trkpt>
      <trkpt lat="45.563992" lon="7.859787">
        <ele>1375.97998</ele>
        <time>2024-10-15T10:02:24.000Z</time>
      </trkpt>
      <trkpt lat="45.563978" lon="7.859808">
        <ele>1375.44495</ele>
        <time>2024-10-15T10:02:26.000Z</time>
      </trkpt>
      <trkpt lat="45.563958" lon="7.859832">
        <ele>1374.88489</ele>
        <time>2024-10-15T10:02:28.000Z</time>
      </trkpt>
      <trkpt lat="45.563962" lon="7.859803">
        <ele>1374.21997</ele>
        <time>2024-10-15T10:02:35.000Z</time>
      </trkpt>
      <trkpt lat="45.563977" lon="7.859788">
        <ele>1373.51489</ele>
        <time>2024-10-15T10:02:37.000Z</time>
      </trkpt>
      <trkpt lat="45.563997" lon="7.859762">
        <ele>1372.72485</ele>
        <time>2024-10-15T10:02:40.000Z</time>
      </trkpt>
      <trkpt lat="45.564" lon="7.859727">
        <ele>1371.92993</ele>
        <time>2024-10-15T10:02:43.000Z</time>
      </trkpt>
      <trkpt lat="45.564012" lon="7.859685">
        <ele>1371.09998</ele>
        <time>2024-10-15T10:02:46.000Z</time>
      </trkpt>
      <trkpt lat="45.56402" lon="7.859653">
        <ele>1370.26001</ele>
        <time>2024-10-15T10:02:49.000Z</time>
      </trkpt>
      <trkpt lat="45.564005" lon="7.859625">
        <ele>1369.3999</ele>
        <time>2024-10-15T10:02:52.000Z</time>
      </trkpt>
      <trkpt lat="45.563988" lon="7.859635">
        <ele>1368.5249</ele>
        <time>2024-10-15T10:02:56.000Z</time>
      </trkpt>
      <trkpt lat="45.563975" lon="7.859658">
        <ele>1367.67993</ele>
        <time>2024-10-15T10:02:59.000Z</time>
      </trkpt>
      <trkpt lat="45.563953" lon="7.859663">
        <ele>1366.75488</ele>
        <time>2024-10-15T10:03:03.000Z</time>
      </trkpt>
      <trkpt lat="45.563933" lon="7.859675">
        <ele>1365.85999</ele>
        <time>2024-10-15T10:03:08.000Z</time>
      </trkpt>
      <trkpt lat="45.563903" lon="7.859673">
        <ele>1364.95496</ele>
        <time>2024-10-15T10:03:13.000Z</time>
      </trkpt>
      <trkpt lat="45.563883" lon="7.859683">
        <ele>1364.07495</ele>
        <time>2024-10-15T10:03:17.000Z</time>
      </trkpt>
      <trkpt lat="45.563865" lon="7.859677">
        <ele>1363.21997</ele>
        <time>2024-10-15T10:03:19.000Z</time>
      </trkpt>
      <trkpt lat="45.563838" lon="7.859663">
        <ele>1362.43506</ele>
        <time>2024-10-15T10:03:21.000Z</time>
      </trkpt>
      <trkpt lat="45.563818" lon="7.859655">
        <ele>1361.70496</ele>
        <time>2024-10-15T10:03:23.000Z</time>
      </trkpt>
      <trkpt lat="45.5638" lon="7.859647">
        <ele>1360.92993</ele>
        <time>2024-10-15T10:03:27.000Z</time>
      </trkpt>
      <trkpt lat="45.563785" lon="7.859628">
        <ele>1360.22498</ele>
        <time>2024-10-15T10:03:32.000Z</time>
      </trkpt>
      <trkpt lat="45.563762" lon="7.85962">
        <ele>1359.58508</ele>
        <time>2024-10-15T10:03:35.000Z</time>
      </trkpt>
      <trkpt lat="45.563742" lon="7.859603">
        <ele>1359.00012</ele>
        <time>2024-10-15T10:03:38.000Z</time>
      </trkpt>
      <trkpt lat="45.563742" lon="7.859567">
        <ele>1358.54004</ele>
        <time>2024-10-15T10:03:41.000Z</time>
      </trkpt>
      <trkpt lat="45.563748" lon="7.859532">
        <ele>1358.11499</ele>
        <time>2024-10-15T10:03:43.000Z</time>
      </trkpt>
      <trkpt lat="45.563755" lon="7.859502">
        <ele>1357.76501</ele>
        <time>2024-10-15T10:03:45.000Z</time>
      </trkpt>
      <trkpt lat="45.563767" lon="7.859463">
        <ele>1357.40503</ele>
        <time>2024-10-15T10:03:47.000Z</time>
      </trkpt>
      <trkpt lat="45.56377" lon="7.859435">
        <ele>1357.05005</ele>
        <time>2024-10-15T10:03:49.000Z</time>
      </trkpt>
      <trkpt lat="45.563778" lon="7.859407">
        <ele>1356.68494</ele>
        <time>2024-10-15T10:03:53.000Z</time>
      </trkpt>
      <trkpt lat="45.563795" lon="7.859395">
        <ele>1356.36499</ele>
        <time>2024-10-15T10:03:55.000Z</time>
      </trkpt>
      <trkpt lat="45.563818" lon="7.859397">
        <ele>1356.09998</ele>
        <time>2024-10-15T10:03:58.000Z</time>
      </trkpt>
      <trkpt lat="45.56383" lon="7.859373">
        <ele>1355.67505</ele>
        <time>2024-10-15T10:04:11.000Z</time>
      </trkpt>
      <trkpt lat="45.563818" lon="7.859347">
        <ele>1355.30005</ele>
        <time>2024-10-15T10:04:13.000Z</time>
      </trkpt>
      <trkpt lat="45.563808" lon="7.859325">
        <ele>1354.83997</ele>
        <time>2024-10-15T10:04:15.000Z</time>
      </trkpt>
      <trkpt lat="45.56382" lon="7.859295">
        <ele>1354.31494</ele>
        <time>2024-10-15T10:04:18.000Z</time>
      </trkpt>
      <trkpt lat="45.563802" lon="7.859288">
        <ele>1353.62988</ele>
        <time>2024-10-15T10:04:26.000Z</time>
      </trkpt>
      <trkpt lat="45.563783" lon="7.859268">
        <ele>1352.99976</ele>
        <time>2024-10-15T10:04:31.000Z</time>
      </trkpt>
      <trkpt lat="45.563758" lon="7.859262">
        <ele>1352.35974</ele>
        <time>2024-10-15T10:04:37.000Z</time>
      </trkpt>
      <trkpt lat="45.563745" lon="7.859243">
        <ele>1351.72485</ele>
        <time>2024-10-15T10:04:44.000Z</time>
      </trkpt>
      <trkpt lat="45.563722" lon="7.859242">
        <ele>1351.06482</ele>
        <time>2024-10-15T10:04:50.000Z</time>
      </trkpt>
      <trkpt lat="45.563698" lon="7.859248">
        <ele>1350.36487</ele>
        <time>2024-10-15T10:04:53.000Z</time>
      </trkpt>
      <trkpt lat="45.563682" lon="7.859267">
        <ele>1349.52979</ele>
        <time>2024-10-15T10:05:01.000Z</time>
      </trkpt>
      <trkpt lat="45.563667" lon="7.859287">
        <ele>1348.58972</ele>
        <time>2024-10-15T10:05:08.000Z</time>
      </trkpt>
      <trkpt lat="45.563645" lon="7.859295">
        <ele>1347.6897</ele>
        <time>2024-10-15T10:05:10.000Z</time>
      </trkpt>
      <trkpt lat="45.563618" lon="7.859288">
        <ele>1346.80981</ele>
        <time>2024-10-15T10:05:13.000Z</time>
      </trkpt>
      <trkpt lat="45.563598" lon="7.859288">
        <ele>1345.89966</ele>
        <time>2024-10-15T10:05:16.000Z</time>
      </trkpt>
      <trkpt lat="45.563577" lon="7.859275">
        <ele>1344.96973</ele>
        <time>2024-10-15T10:05:18.000Z</time>
      </trkpt>
      <trkpt lat="45.563553" lon="7.85926">
        <ele>1343.98462</ele>
        <time>2024-10-15T10:05:21.000Z</time>
      </trkpt>
      <trkpt lat="45.563538" lon="7.859232">
        <ele>1342.96973</ele>
        <time>2024-10-15T10:05:24.000Z</time>
      </trkpt>
      <trkpt lat="45.563523" lon="7.859217">
        <ele>1341.8197</ele>
        <time>2024-10-15T10:05:28.000Z</time>
      </trkpt>
      <trkpt lat="45.563503" lon="7.859213">
        <ele>1340.53479</ele>
        <time>2024-10-15T10:05:33.000Z</time>
      </trkpt>
      <trkpt lat="45.563477" lon="7.859205">
        <ele>1339.32483</ele>
        <time>2024-10-15T10:05:37.000Z</time>
      </trkpt>
      <trkpt lat="45.563458" lon="7.859195">
        <ele>1338.10974</ele>
        <time>2024-10-15T10:05:40.000Z</time>
      </trkpt>
      <trkpt lat="45.563453" lon="7.85917">
        <ele>1336.9248</ele>
        <time>2024-10-15T10:05:43.000Z</time>
      </trkpt>
      <trkpt lat="45.563455" lon="7.85914">
        <ele>1335.74976</ele>
        <time>2024-10-15T10:05:47.000Z</time>
      </trkpt>
      <trkpt lat="45.563452" lon="7.859113">
        <ele>1334.71985</ele>
        <time>2024-10-15T10:05:50.000Z</time>
      </trkpt>
      <trkpt lat="45.563442" lon="7.859085">
        <ele>1333.58484</ele>
        <time>2024-10-15T10:05:53.000Z</time>
      </trkpt>
      <trkpt lat="45.563433" lon="7.85906">
        <ele>1332.40491</ele>
        <time>2024-10-15T10:05:56.000Z</time>
      </trkpt>
      <trkpt lat="45.563417" lon="7.859037">
        <ele>1331.22986</ele>
        <time>2024-10-15T10:05:59.000Z</time>
      </trkpt>
      <trkpt lat="45.563403" lon="7.859018">
        <ele>1330.11987</ele>
        <time>2024-10-15T10:06:04.000Z</time>
      </trkpt>
      <trkpt lat="45.563388" lon="7.858995">
        <ele>1329.03479</ele>
        <time>2024-10-15T10:06:07.000Z</time>
      </trkpt>
      <trkpt lat="45.563377" lon="7.858962">
        <ele>1327.98975</ele>
        <time>2024-10-15T10:06:10.000Z</time>
      </trkpt>
      <trkpt lat="45.563362" lon="7.858943">
        <ele>1326.99976</ele>
        <time>2024-10-15T10:06:12.000Z</time>
      </trkpt>
      <trkpt lat="45.563342" lon="7.858938">
        <ele>1325.97986</ele>
        <time>2024-10-15T10:06:15.000Z</time>
      </trkpt>
      <trkpt lat="45.563325" lon="7.858915">
        <ele>1324.85486</ele>
        <time>2024-10-15T10:06:22.000Z</time>
      </trkpt>
      <trkpt lat="45.563315" lon="7.858893">
        <ele>1323.67493</ele>
        <time>2024-10-15T10:06:26.000Z</time>
      </trkpt>
      <trkpt lat="45.563297" lon="7.85887">
        <ele>1322.41992</ele>
        <time>2024-10-15T10:06:31.000Z</time>
      </trkpt>
      <trkpt lat="45.563278" lon="7.858852">
        <ele>1321.16492</ele>
        <time>2024-10-15T10:06:35.000Z</time>
      </trkpt>
      <trkpt lat="45.563263" lon="7.858825">
        <ele>1319.94995</ele>
        <time>2024-10-15T10:06:38.000Z</time>
      </trkpt>
      <trkpt lat="45.563255" lon="7.858783">
        <ele>1318.80493</ele>
        <time>2024-10-15T10:06:41.000Z</time>
      </trkpt>
      <trkpt lat="45.563245" lon="7.858752">
        <ele>1317.73486</ele>
        <time>2024-10-15T10:06:43.000Z</time>
      </trkpt>
      <trkpt lat="45.563232" lon="7.858723">
        <ele>1316.70984</ele>
        <time>2024-10-15T10:06:46.000Z</time>
      </trkpt>
      <trkpt lat="45.563252" lon="7.858725">
        <ele>1315.66992</ele>
        <time>2024-10-15T10:06:57.000Z</time>
      </trkpt>
      <trkpt lat="45.56325" lon="7.858758">
        <ele>1314.70984</ele>
        <time>2024-10-15T10:07:12.000Z</time>
      </trkpt>
      <trkpt lat="45.5633" lon="7.858797">
        <ele>1313.62988</ele>
        <time>2024-10-15T10:08:03.000Z</time>
      </trkpt>
      <trkpt lat="45.563282" lon="7.858787">
        <ele>1312.55981</ele>
        <time>2024-10-15T10:08:10.000Z</time>
      </trkpt>
      <trkpt lat="45.563273" lon="7.858762">
        <ele>1311.57983</ele>
        <time>2024-10-15T10:08:14.000Z</time>
      </trkpt>
      <trkpt lat="45.563248" lon="7.85877">
        <ele>1310.90991</ele>
        <time>2024-10-15T10:41:50.000Z</time>
      </trkpt>
      <trkpt lat="45.563197" lon="7.858718">
        <ele>1310.39478</ele>
        <time>2024-10-15T10:43:06.000Z</time>
      </trkpt>
      <trkpt lat="45.563188" lon="7.858673">
        <ele>1309.94482</ele>
        <time>2024-10-15T10:43:16.000Z</time>
      </trkpt>
      <trkpt lat="45.5632" lon="7.858698">
        <ele>1309.44983</ele>
        <time>2024-10-15T10:43:25.000Z</time>
      </trkpt>
      <trkpt lat="45.563207" lon="7.858723">
        <ele>1309.09485</ele>
        <time>2024-10-15T10:43:28.000Z</time>
      </trkpt>
      <trkpt lat="45.563213" lon="7.858767">
        <ele>1308.70483</ele>
        <time>2024-10-15T10:47:07.000Z</time>
      </trkpt>
      <trkpt lat="45.563193" lon="7.858748">
        <ele>1308.39478</ele>
        <time>2024-10-15T10:47:11.000Z</time>
      </trkpt>
      <trkpt lat="45.563192" lon="7.85872">
        <ele>1308.18481</ele>
        <time>2024-10-15T10:47:14.000Z</time>
      </trkpt>
      <trkpt lat="45.563192" lon="7.858693">
        <ele>1308.0448</ele>
        <time>2024-10-15T10:47:16.000Z</time>
      </trkpt>
      <trkpt lat="45.563183" lon="7.858663">
        <ele>1308.00476</ele>
        <time>2024-10-15T10:47:19.000Z</time>
      </trkpt>
      <trkpt lat="45.563172" lon="7.858642">
        <ele>1308.02478</ele>
        <time>2024-10-15T10:47:23.000Z</time>
      </trkpt>
      <trkpt lat="45.563162" lon="7.858618">
        <ele>1307.99976</ele>
        <time>2024-10-15T10:47:29.000Z</time>
      </trkpt>
      <trkpt lat="45.563153" lon="7.858592">
        <ele>1307.85974</ele>
        <time>2024-10-15T10:47:36.000Z</time>
      </trkpt>
      <trkpt lat="45.563138" lon="7.858568">
        <ele>1307.69983</ele>
        <time>2024-10-15T10:47:40.000Z</time>
      </trkpt>
      <trkpt lat="45.563122" lon="7.85855">
        <ele>1307.5448</ele>
        <time>2024-10-15T10:47:44.000Z</time>
      </trkpt>
      <trkpt lat="45.563057" lon="7.858465">
        <ele>1307.22485</ele>
        <time>2024-10-15T10:48:06.000Z</time>
      </trkpt>
      <trkpt lat="45.563045" lon="7.858445">
        <ele>1306.83984</ele>
        <time>2024-10-15T10:48:08.000Z</time>
      </trkpt>
      <trkpt lat="45.563032" lon="7.858423">
        <ele>1306.60986</ele>
        <time>2024-10-15T10:48:11.000Z</time>
      </trkpt>
      <trkpt lat="45.563022" lon="7.858398">
        <ele>1306.37488</ele>
        <time>2024-10-15T10:48:14.000Z</time>
      </trkpt>
      <trkpt lat="45.563013" lon="7.858365">
        <ele>1306.10986</ele>
        <time>2024-10-15T10:48:17.000Z</time>
      </trkpt>
      <trkpt lat="45.562995" lon="7.858352">
        <ele>1305.53491</ele>
        <time>2024-10-15T10:48:22.000Z</time>
      </trkpt>
      <trkpt lat="45.562987" lon="7.858382">
        <ele>1304.79993</ele>
        <time>2024-10-15T10:48:25.000Z</time>
      </trkpt>
      <trkpt lat="45.56296" lon="7.858363">
        <ele>1304.01489</ele>
        <time>2024-10-15T10:48:32.000Z</time>
      </trkpt>
      <trkpt lat="45.562943" lon="7.858343">
        <ele>1303.28003</ele>
        <time>2024-10-15T10:48:36.000Z</time>
      </trkpt>
      <trkpt lat="45.562932" lon="7.858313">
        <ele>1302.42993</ele>
        <time>2024-10-15T10:48:41.000Z</time>
      </trkpt>
      <trkpt lat="45.562927" lon="7.85828">
        <ele>1301.63501</ele>
        <time>2024-10-15T10:48:44.000Z</time>
      </trkpt>
      <trkpt lat="45.562925" lon="7.858253">
        <ele>1300.77002</ele>
        <time>2024-10-15T10:48:47.000Z</time>
      </trkpt>
      <trkpt lat="45.562922" lon="7.85822">
        <ele>1299.90002</ele>
        <time>2024-10-15T10:48:50.000Z</time>
      </trkpt>
      <trkpt lat="45.562902" lon="7.858183">
        <ele>1298.98999</ele>
        <time>2024-10-15T10:48:58.000Z</time>
      </trkpt>
      <trkpt lat="45.562892" lon="7.85815">
        <ele>1298.11987</ele>
        <time>2024-10-15T10:49:01.000Z</time>
      </trkpt>
      <trkpt lat="45.56289" lon="7.858123">
        <ele>1297.32495</ele>
        <time>2024-10-15T10:49:03.000Z</time>
      </trkpt>
      <trkpt lat="45.562877" lon="7.858098">
        <ele>1296.54492</ele>
        <time>2024-10-15T10:49:07.000Z</time>
      </trkpt>
      <trkpt lat="45.562875" lon="7.858072">
        <ele>1295.85999</ele>
        <time>2024-10-15T10:49:10.000Z</time>
      </trkpt>
      <trkpt lat="45.562852" lon="7.85799">
        <ele>1295.12488</ele>
        <time>2024-10-15T10:49:20.000Z</time>
      </trkpt>
      <trkpt lat="45.562847" lon="7.857965">
        <ele>1294.34985</ele>
        <time>2024-10-15T10:49:23.000Z</time>
      </trkpt>
      <trkpt lat="45.562832" lon="7.857948">
        <ele>1293.75488</ele>
        <time>2024-10-15T10:49:27.000Z</time>
      </trkpt>
      <trkpt lat="45.56281" lon="7.857902">
        <ele>1293.02991</ele>
        <time>2024-10-15T10:49:38.000Z</time>
      </trkpt>
      <trkpt lat="45.562783" lon="7.85782">
        <ele>1292.20984</ele>
        <time>2024-10-15T10:49:50.000Z</time>
      </trkpt>
      <trkpt lat="45.56278" lon="7.857785">
        <ele>1291.34985</ele>
        <time>2024-10-15T10:49:53.000Z</time>
      </trkpt>
      <trkpt lat="45.56277" lon="7.857757">
        <ele>1290.46985</ele>
        <time>2024-10-15T10:49:56.000Z</time>
      </trkpt>
      <trkpt lat="45.562763" lon="7.857727">
        <ele>1289.61487</ele>
        <time>2024-10-15T10:50:00.000Z</time>
      </trkpt>
      <trkpt lat="45.562778" lon="7.8577">
        <ele>1288.73987</ele>
        <time>2024-10-15T10:50:02.000Z</time>
      </trkpt>
      <trkpt lat="45.562765" lon="7.85765">
        <ele>1287.76978</ele>
        <time>2024-10-15T10:50:13.000Z</time>
      </trkpt>
      <trkpt lat="45.562773" lon="7.857623">
        <ele>1286.82483</ele>
        <time>2024-10-15T10:50:15.000Z</time>
      </trkpt>
      <trkpt lat="45.562767" lon="7.857587">
        <ele>1285.90991</ele>
        <time>2024-10-15T10:50:18.000Z</time>
      </trkpt>
      <trkpt lat="45.562768" lon="7.857552">
        <ele>1285.00488</ele>
        <time>2024-10-15T10:50:20.000Z</time>
      </trkpt>
      <trkpt lat="45.562762" lon="7.85752">
        <ele>1284.07983</ele>
        <time>2024-10-15T10:50:23.000Z</time>
      </trkpt>
      <trkpt lat="45.562748" lon="7.857502">
        <ele>1283.13989</ele>
        <time>2024-10-15T10:50:27.000Z</time>
      </trkpt>
      <trkpt lat="45.562745" lon="7.85753">
        <ele>1282.19995</ele>
        <time>2024-10-15T10:50:32.000Z</time>
      </trkpt>
      <trkpt lat="45.56273" lon="7.857497">
        <ele>1281.15503</ele>
        <time>2024-10-15T10:50:42.000Z</time>
      </trkpt>
      <trkpt lat="45.562752" lon="7.857475">
        <ele>1280.01501</ele>
        <time>2024-10-15T10:50:44.000Z</time>
      </trkpt>
      <trkpt lat="45.562777" lon="7.857462">
        <ele>1278.86499</ele>
        <time>2024-10-15T10:50:46.000Z</time>
      </trkpt>
      <trkpt lat="45.562802" lon="7.85745">
        <ele>1277.70496</ele>
        <time>2024-10-15T10:50:48.000Z</time>
      </trkpt>
      <trkpt lat="45.562818" lon="7.857427">
        <ele>1276.59009</ele>
        <time>2024-10-15T10:50:50.000Z</time>
      </trkpt>
      <trkpt lat="45.562833" lon="7.8574">
        <ele>1275.46509</ele>
        <time>2024-10-15T10:50:52.000Z</time>
      </trkpt>
      <trkpt lat="45.562817" lon="7.857383">
        <ele>1274.32507</ele>
        <time>2024-10-15T10:50:54.000Z</time>
      </trkpt>
      <trkpt lat="45.56279" lon="7.85739">
        <ele>1273.30005</ele>
        <time>2024-10-15T10:50:57.000Z</time>
      </trkpt>
      <trkpt lat="45.56277" lon="7.857402">
        <ele>1272.37012</ele>
        <time>2024-10-15T10:50:59.000Z</time>
      </trkpt>
      <trkpt lat="45.562747" lon="7.857422">
        <ele>1271.44507</ele>
        <time>2024-10-15T10:51:02.000Z</time>
      </trkpt>
      <trkpt lat="45.562732" lon="7.857442">
        <ele>1270.51013</ele>
        <time>2024-10-15T10:51:04.000Z</time>
      </trkpt>
      <trkpt lat="45.562712" lon="7.85746">
        <ele>1269.51514</ele>
        <time>2024-10-15T10:51:07.000Z</time>
      </trkpt>
      <trkpt lat="45.562698" lon="7.857485">
        <ele>1268.4751</ele>
        <time>2024-10-15T10:51:10.000Z</time>
      </trkpt>
      <trkpt lat="45.562682" lon="7.857462">
        <ele>1267.41016</ele>
        <time>2024-10-15T10:51:15.000Z</time>
      </trkpt>
      <trkpt lat="45.562657" lon="7.857495">
        <ele>1266.71509</ele>
        <time>2024-10-15T10:51:41.000Z</time>
      </trkpt>
      <trkpt lat="45.562638" lon="7.85749">
        <ele>1266.05005</ele>
        <time>2024-10-15T10:51:44.000Z</time>
      </trkpt>
      <trkpt lat="45.562612" lon="7.857485">
        <ele>1265.38513</ele>
        <time>2024-10-15T10:51:47.000Z</time>
      </trkpt>
      <trkpt lat="45.562575" lon="7.857477">
        <ele>1264.77515</ele>
        <time>2024-10-15T10:51:50.000Z</time>
      </trkpt>
      <trkpt lat="45.562548" lon="7.85748">
        <ele>1264.18018</ele>
        <time>2024-10-15T10:51:52.000Z</time>
      </trkpt>
      <trkpt lat="45.562525" lon="7.857492">
        <ele>1263.59009</ele>
        <time>2024-10-15T10:51:54.000Z</time>
      </trkpt>
      <trkpt lat="45.562508" lon="7.857505">
        <ele>1263.05505</ele>
        <time>2024-10-15T10:51:55.000Z</time>
      </trkpt>
      <trkpt lat="45.562483" lon="7.857523">
        <ele>1262.5</ele>
        <time>2024-10-15T10:51:57.000Z</time>
      </trkpt>
      <trkpt lat="45.56246" lon="7.857537">
        <ele>1261.96997</ele>
        <time>2024-10-15T10:51:59.000Z</time>
      </trkpt>
      <trkpt lat="45.56244" lon="7.857543">
        <ele>1261.39001</ele>
        <time>2024-10-15T10:52:02.000Z</time>
      </trkpt>
      <trkpt lat="45.562412" lon="7.857555">
        <ele>1260.78003</ele>
        <time>2024-10-15T10:52:05.000Z</time>
      </trkpt>
      <trkpt lat="45.562388" lon="7.85757">
        <ele>1260.17505</ele>
        <time>2024-10-15T10:52:07.000Z</time>
      </trkpt>
      <trkpt lat="45.56237" lon="7.857587">
        <ele>1259.58496</ele>
        <time>2024-10-15T10:52:09.000Z</time>
      </trkpt>
      <trkpt lat="45.562353" lon="7.8576">
        <ele>1258.96997</ele>
        <time>2024-10-15T10:52:11.000Z</time>
      </trkpt>
      <trkpt lat="45.562342" lon="7.857623">
        <ele>1258.38989</ele>
        <time>2024-10-15T10:52:14.000Z</time>
      </trkpt>
      <trkpt lat="45.562328" lon="7.857642">
        <ele>1257.83997</ele>
        <time>2024-10-15T10:52:16.000Z</time>
      </trkpt>
      <trkpt lat="45.562325" lon="7.85767">
        <ele>1257.2699</ele>
        <time>2024-10-15T10:52:19.000Z</time>
      </trkpt>
      <trkpt lat="45.562323" lon="7.857702">
        <ele>1256.73499</ele>
        <time>2024-10-15T10:52:22.000Z</time>
      </trkpt>
      <trkpt lat="45.56232" lon="7.857737">
        <ele>1256.21509</ele>
        <time>2024-10-15T10:52:24.000Z</time>
      </trkpt>
      <trkpt lat="45.562315" lon="7.857762">
        <ele>1255.77002</ele>
        <time>2024-10-15T10:52:26.000Z</time>
      </trkpt>
      <trkpt lat="45.562303" lon="7.85779">
        <ele>1254.88013</ele>
        <time>2024-10-15T10:52:28.000Z</time>
      </trkpt>
      <trkpt lat="45.562288" lon="7.857827">
        <ele>1253.90015</ele>
        <time>2024-10-15T10:52:30.000Z</time>
      </trkpt>
      <trkpt lat="45.56228" lon="7.85785">
        <ele>1252.91003</ele>
        <time>2024-10-15T10:52:31.000Z</time>
      </trkpt>
      <trkpt lat="45.562275" lon="7.857888">
        <ele>1251.88013</ele>
        <time>2024-10-15T10:52:33.000Z</time>
      </trkpt>
      <trkpt lat="45.562263" lon="7.857925">
        <ele>1250.87</ele>
        <time>2024-10-15T10:52:35.000Z</time>
      </trkpt>
      <trkpt lat="45.562252" lon="7.857967">
        <ele>1249.94006</ele>
        <time>2024-10-15T10:52:37.000Z</time>
      </trkpt>
      <trkpt lat="45.562242" lon="7.858007">
        <ele>1249.05005</ele>
        <time>2024-10-15T10:52:39.000Z</time>
      </trkpt>
      <trkpt lat="45.562232" lon="7.858028">
        <ele>1248.2251</ele>
        <time>2024-10-15T10:52:40.000Z</time>
      </trkpt>
      <trkpt lat="45.562215" lon="7.858068">
        <ele>1247.44006</ele>
        <time>2024-10-15T10:52:42.000Z</time>
      </trkpt>
      <trkpt lat="45.5622" lon="7.858108">
        <ele>1246.77002</ele>
        <time>2024-10-15T10:52:44.000Z</time>
      </trkpt>
      <trkpt lat="45.562185" lon="7.85814">
        <ele>1246.15503</ele>
        <time>2024-10-15T10:52:46.000Z</time>
      </trkpt>
      <trkpt lat="45.562172" lon="7.858167">
        <ele>1245.59497</ele>
        <time>2024-10-15T10:52:48.000Z</time>
      </trkpt>
      <trkpt lat="45.56215" lon="7.85818">
        <ele>1245.06006</ele>
        <time>2024-10-15T10:52:50.000Z</time>
      </trkpt>
      <trkpt lat="45.562132" lon="7.8582">
        <ele>1244.54016</ele>
        <time>2024-10-15T10:52:53.000Z</time>
      </trkpt>
      <trkpt lat="45.562122" lon="7.858232">
        <ele>1243.97009</ele>
        <time>2024-10-15T10:52:55.000Z</time>
      </trkpt>
      <trkpt lat="45.562112" lon="7.85826">
        <ele>1243.40515</ele>
        <time>2024-10-15T10:52:57.000Z</time>
      </trkpt>
      <trkpt lat="45.562087" lon="7.858282">
        <ele>1242.86511</ele>
        <time>2024-10-15T10:53:00.000Z</time>
      </trkpt>
      <trkpt lat="45.562068" lon="7.858313">
        <ele>1242.36011</ele>
        <time>2024-10-15T10:53:02.000Z</time>
      </trkpt>
      <trkpt lat="45.562052" lon="7.858345">
        <ele>1241.90015</ele>
        <time>2024-10-15T10:53:04.000Z</time>
      </trkpt>
      <trkpt lat="45.562043" lon="7.858383">
        <ele>1241.45007</ele>
        <time>2024-10-15T10:53:06.000Z</time>
      </trkpt>
      <trkpt lat="45.562032" lon="7.85842">
        <ele>1241.06506</ele>
        <time>2024-10-15T10:53:08.000Z</time>
      </trkpt>
      <trkpt lat="45.562022" lon="7.858442">
        <ele>1240.75</ele>
        <time>2024-10-15T10:53:09.000Z</time>
      </trkpt>
      <trkpt lat="45.562008" lon="7.85846">
        <ele>1240.44995</ele>
        <time>2024-10-15T10:53:10.000Z</time>
      </trkpt>
      <trkpt lat="45.561985" lon="7.858498">
        <ele>1240.17004</ele>
        <time>2024-10-15T10:53:12.000Z</time>
      </trkpt>
      <trkpt lat="45.561967" lon="7.85854">
        <ele>1239.90503</ele>
        <time>2024-10-15T10:53:14.000Z</time>
      </trkpt>
      <trkpt lat="45.561953" lon="7.858568">
        <ele>1239.64502</ele>
        <time>2024-10-15T10:53:16.000Z</time>
      </trkpt>
      <trkpt lat="45.561935" lon="7.858585">
        <ele>1239.40991</ele>
        <time>2024-10-15T10:53:18.000Z</time>
      </trkpt>
      <trkpt lat="45.561912" lon="7.858612">
        <ele>1239.17505</ele>
        <time>2024-10-15T10:53:21.000Z</time>
      </trkpt>
      <trkpt lat="45.561888" lon="7.85864">
        <ele>1238.91504</ele>
        <time>2024-10-15T10:53:23.000Z</time>
      </trkpt>
      <trkpt lat="45.561875" lon="7.85867">
        <ele>1238.62012</ele>
        <time>2024-10-15T10:53:25.000Z</time>
      </trkpt>
      <trkpt lat="45.561858" lon="7.858695">
        <ele>1238.3501</ele>
        <time>2024-10-15T10:53:27.000Z</time>
      </trkpt>
      <trkpt lat="45.56184" lon="7.858715">
        <ele>1238.08521</ele>
        <time>2024-10-15T10:53:29.000Z</time>
      </trkpt>
      <trkpt lat="45.561818" lon="7.858732">
        <ele>1237.8501</ele>
        <time>2024-10-15T10:53:31.000Z</time>
      </trkpt>
      <trkpt lat="45.561802" lon="7.858753">
        <ele>1237.66003</ele>
        <time>2024-10-15T10:53:33.000Z</time>
      </trkpt>
      <trkpt lat="45.561792" lon="7.858778">
        <ele>1237.50513</ele>
        <time>2024-10-15T10:53:35.000Z</time>
      </trkpt>
      <trkpt lat="45.561788" lon="7.858805">
        <ele>1237.37</ele>
        <time>2024-10-15T10:53:38.000Z</time>
      </trkpt>
      <trkpt lat="45.561778" lon="7.858832">
        <ele>1237.26001</ele>
        <time>2024-10-15T10:53:40.000Z</time>
      </trkpt>
      <trkpt lat="45.561767" lon="7.858858">
        <ele>1237.16003</ele>
        <time>2024-10-15T10:53:42.000Z</time>
      </trkpt>
      <trkpt lat="45.561748" lon="7.858882">
        <ele>1237.05005</ele>
        <time>2024-10-15T10:53:44.000Z</time>
      </trkpt>
      <trkpt lat="45.561732" lon="7.858912">
        <ele>1236.95007</ele>
        <time>2024-10-15T10:53:46.000Z</time>
      </trkpt>
      <trkpt lat="45.561717" lon="7.858942">
        <ele>1236.82007</ele>
        <time>2024-10-15T10:53:48.000Z</time>
      </trkpt>
      <trkpt lat="45.5617" lon="7.85896">
        <ele>1236.67017</ele>
        <time>2024-10-15T10:53:50.000Z</time>
      </trkpt>
      <trkpt lat="45.561675" lon="7.858982">
        <ele>1236.49512</ele>
        <time>2024-10-15T10:53:52.000Z</time>
      </trkpt>
      <trkpt lat="45.561655" lon="7.858997">
        <ele>1236.29517</ele>
        <time>2024-10-15T10:53:54.000Z</time>
      </trkpt>
      <trkpt lat="45.561632" lon="7.859017">
        <ele>1236.03503</ele>
        <time>2024-10-15T10:53:56.000Z</time>
      </trkpt>
      <trkpt lat="45.561617" lon="7.859035">
        <ele>1235.75012</ele>
        <time>2024-10-15T10:53:58.000Z</time>
      </trkpt>
      <trkpt lat="45.561598" lon="7.859048">
        <ele>1235.45007</ele>
        <time>2024-10-15T10:54:01.000Z</time>
      </trkpt>
      <trkpt lat="45.561585" lon="7.859077">
        <ele>1235.14514</ele>
        <time>2024-10-15T10:54:04.000Z</time>
      </trkpt>
      <trkpt lat="45.561568" lon="7.859098">
        <ele>1234.86511</ele>
        <time>2024-10-15T10:54:06.000Z</time>
      </trkpt>
      <trkpt lat="45.561553" lon="7.859123">
        <ele>1234.62012</ele>
        <time>2024-10-15T10:54:08.000Z</time>
      </trkpt>
      <trkpt lat="45.561535" lon="7.859145">
        <ele>1234.3501</ele>
        <time>2024-10-15T10:54:10.000Z</time>
      </trkpt>
      <trkpt lat="45.561515" lon="7.859163">
        <ele>1234.06006</ele>
        <time>2024-10-15T10:54:12.000Z</time>
      </trkpt>
      <trkpt lat="45.561493" lon="7.859185">
        <ele>1233.74512</ele>
        <time>2024-10-15T10:54:14.000Z</time>
      </trkpt>
      <trkpt lat="45.561467" lon="7.85921">
        <ele>1233.44019</ele>
        <time>2024-10-15T10:54:16.000Z</time>
      </trkpt>
      <trkpt lat="45.561445" lon="7.859232">
        <ele>1233.14514</ele>
        <time>2024-10-15T10:54:18.000Z</time>
      </trkpt>
      <trkpt lat="45.561423" lon="7.859253">
        <ele>1232.83521</ele>
        <time>2024-10-15T10:54:20.000Z</time>
      </trkpt>
      <trkpt lat="45.561402" lon="7.859273">
        <ele>1232.50012</ele>
        <time>2024-10-15T10:54:23.000Z</time>
      </trkpt>
      <trkpt lat="45.561387" lon="7.859295">
        <ele>1232.15015</ele>
        <time>2024-10-15T10:54:25.000Z</time>
      </trkpt>
      <trkpt lat="45.561372" lon="7.859325">
        <ele>1231.82507</ele>
        <time>2024-10-15T10:54:27.000Z</time>
      </trkpt>
      <trkpt lat="45.561348" lon="7.859355">
        <ele>1231.49512</ele>
        <time>2024-10-15T10:54:29.000Z</time>
      </trkpt>
      <trkpt lat="45.561323" lon="7.85938">
        <ele>1231.15515</ele>
        <time>2024-10-15T10:54:31.000Z</time>
      </trkpt>
      <trkpt lat="45.561302" lon="7.859398">
        <ele>1230.80017</ele>
        <time>2024-10-15T10:54:33.000Z</time>
      </trkpt>
      <trkpt lat="45.561282" lon="7.85941">
        <ele>1230.4502</ele>
        <time>2024-10-15T10:54:35.000Z</time>
      </trkpt>
      <trkpt lat="45.561253" lon="7.859428">
        <ele>1230.14014</ele>
        <time>2024-10-15T10:54:37.000Z</time>
      </trkpt>
      <trkpt lat="45.561227" lon="7.859455">
        <ele>1229.86511</ele>
        <time>2024-10-15T10:54:39.000Z</time>
      </trkpt>
      <trkpt lat="45.561193" lon="7.859472">
        <ele>1229.56519</ele>
        <time>2024-10-15T10:54:41.000Z</time>
      </trkpt>
      <trkpt lat="45.561175" lon="7.85949">
        <ele>1229.22522</ele>
        <time>2024-10-15T10:54:43.000Z</time>
      </trkpt>
      <trkpt lat="45.561162" lon="7.859515">
        <ele>1228.87024</ele>
        <time>2024-10-15T10:54:46.000Z</time>
      </trkpt>
      <trkpt lat="45.561143" lon="7.859537">
        <ele>1228.49524</ele>
        <time>2024-10-15T10:54:49.000Z</time>
      </trkpt>
      <trkpt lat="45.561127" lon="7.859555">
        <ele>1228.12524</ele>
        <time>2024-10-15T10:54:51.000Z</time>
      </trkpt>
      <trkpt lat="45.561105" lon="7.859588">
        <ele>1227.76526</ele>
        <time>2024-10-15T10:54:53.000Z</time>
      </trkpt>
      <trkpt lat="45.561088" lon="7.859607">
        <ele>1227.4353</ele>
        <time>2024-10-15T10:54:54.000Z</time>
      </trkpt>
      <trkpt lat="45.561067" lon="7.859622">
        <ele>1227.16528</ele>
        <time>2024-10-15T10:54:56.000Z</time>
      </trkpt>
      <trkpt lat="45.56104" lon="7.859632">
        <ele>1227.02515</ele>
        <time>2024-10-15T10:54:58.000Z</time>
      </trkpt>
      <trkpt lat="45.561022" lon="7.85966">
        <ele>1226.92017</ele>
        <time>2024-10-15T10:55:01.000Z</time>
      </trkpt>
      <trkpt lat="45.561005" lon="7.85968">
        <ele>1226.86523</ele>
        <time>2024-10-15T10:55:03.000Z</time>
      </trkpt>
      <trkpt lat="45.56099" lon="7.859697">
        <ele>1226.97034</ele>
        <time>2024-10-15T10:55:06.000Z</time>
      </trkpt>
      <trkpt lat="45.560975" lon="7.85972">
        <ele>1227.19031</ele>
        <time>2024-10-15T10:55:08.000Z</time>
      </trkpt>
      <trkpt lat="45.56096" lon="7.859737">
        <ele>1227.42029</ele>
        <time>2024-10-15T10:55:10.000Z</time>
      </trkpt>
      <trkpt lat="45.560948" lon="7.859767">
        <ele>1227.64526</ele>
        <time>2024-10-15T10:55:12.000Z</time>
      </trkpt>
      <trkpt lat="45.560947" lon="7.859798">
        <ele>1227.89026</ele>
        <time>2024-10-15T10:55:16.000Z</time>
      </trkpt>
      <trkpt lat="45.560938" lon="7.859823">
        <ele>1228.23523</ele>
        <time>2024-10-15T10:55:23.000Z</time>
      </trkpt>
      <trkpt lat="45.56092" lon="7.85985">
        <ele>1228.57019</ele>
        <time>2024-10-15T10:55:32.000Z</time>
      </trkpt>
      <trkpt lat="45.560903" lon="7.85986">
        <ele>1228.90527</ele>
        <time>2024-10-15T10:55:34.000Z</time>
      </trkpt>
      <trkpt lat="45.560888" lon="7.859877">
        <ele>1229.25024</ele>
        <time>2024-10-15T10:55:36.000Z</time>
      </trkpt>
      <trkpt lat="45.560867" lon="7.859903">
        <ele>1229.62036</ele>
        <time>2024-10-15T10:55:38.000Z</time>
      </trkpt>
      <trkpt lat="45.560862" lon="7.859928">
        <ele>1230.01526</ele>
        <time>2024-10-15T10:55:39.000Z</time>
      </trkpt>
      <trkpt lat="45.56085" lon="7.859963">
        <ele>1230.41528</ele>
        <time>2024-10-15T10:55:41.000Z</time>
      </trkpt>
      <trkpt lat="45.560835" lon="7.859992">
        <ele>1230.82019</ele>
        <time>2024-10-15T10:55:43.000Z</time>
      </trkpt>
      <trkpt lat="45.560817" lon="7.860027">
        <ele>1231.1853</ele>
        <time>2024-10-15T10:55:45.000Z</time>
      </trkpt>
      <trkpt lat="45.560805" lon="7.860052">
        <ele>1231.54028</ele>
        <time>2024-10-15T10:55:47.000Z</time>
      </trkpt>
      <trkpt lat="45.56079" lon="7.860077">
        <ele>1231.83521</ele>
        <time>2024-10-15T10:55:49.000Z</time>
      </trkpt>
      <trkpt lat="45.560778" lon="7.860108">
        <ele>1232.07019</ele>
        <time>2024-10-15T10:55:51.000Z</time>
      </trkpt>
      <trkpt lat="45.560765" lon="7.86014">
        <ele>1232.12524</ele>
        <time>2024-10-15T10:55:54.000Z</time>
      </trkpt>
      <trkpt lat="45.560743" lon="7.860162">
        <ele>1232.11511</ele>
        <time>2024-10-15T10:55:56.000Z</time>
      </trkpt>
      <trkpt lat="45.560727" lon="7.860188">
        <ele>1232.06018</ele>
        <time>2024-10-15T10:55:58.000Z</time>
      </trkpt>
      <trkpt lat="45.560708" lon="7.860222">
        <ele>1231.84009</ele>
        <time>2024-10-15T10:56:00.000Z</time>
      </trkpt>
      <trkpt lat="45.560692" lon="7.86025">
        <ele>1231.4751</ele>
        <time>2024-10-15T10:56:02.000Z</time>
      </trkpt>
      <trkpt lat="45.560682" lon="7.860277">
        <ele>1231.04517</ele>
        <time>2024-10-15T10:56:04.000Z</time>
      </trkpt>
      <trkpt lat="45.560667" lon="7.860302">
        <ele>1230.6001</ele>
        <time>2024-10-15T10:56:06.000Z</time>
      </trkpt>
      <trkpt lat="45.560658" lon="7.860337">
        <ele>1230.15015</ele>
        <time>2024-10-15T10:56:08.000Z</time>
      </trkpt>
      <trkpt lat="45.560652" lon="7.860365">
        <ele>1229.59009</ele>
        <time>2024-10-15T10:56:10.000Z</time>
      </trkpt>
      <trkpt lat="45.560642" lon="7.860395">
        <ele>1229.03003</ele>
        <time>2024-10-15T10:56:12.000Z</time>
      </trkpt>
      <trkpt lat="45.56063" lon="7.860423">
        <ele>1228.45007</ele>
        <time>2024-10-15T10:56:14.000Z</time>
      </trkpt>
      <trkpt lat="45.560615" lon="7.860448">
        <ele>1227.88013</ele>
        <time>2024-10-15T10:56:16.000Z</time>
      </trkpt>
      <trkpt lat="45.560598" lon="7.860462">
        <ele>1227.31506</ele>
        <time>2024-10-15T10:56:17.000Z</time>
      </trkpt>
      <trkpt lat="45.560582" lon="7.860473">
        <ele>1226.78503</ele>
        <time>2024-10-15T10:56:18.000Z</time>
      </trkpt>
      <trkpt lat="45.560562" lon="7.860475">
        <ele>1226.375</ele>
        <time>2024-10-15T10:56:21.000Z</time>
      </trkpt>
      <trkpt lat="45.560543" lon="7.86049">
        <ele>1225.97498</ele>
        <time>2024-10-15T10:56:27.000Z</time>
      </trkpt>
      <trkpt lat="45.560515" lon="7.860492">
        <ele>1225.58496</ele>
        <time>2024-10-15T10:56:37.000Z</time>
      </trkpt>
      <trkpt lat="45.560498" lon="7.860513">
        <ele>1225.23999</ele>
        <time>2024-10-15T10:56:41.000Z</time>
      </trkpt>
      <trkpt lat="45.560478" lon="7.860533">
        <ele>1224.98486</ele>
        <time>2024-10-15T10:56:47.000Z</time>
      </trkpt>
      <trkpt lat="45.56046" lon="7.860562">
        <ele>1224.73486</ele>
        <time>2024-10-15T10:56:50.000Z</time>
      </trkpt>
      <trkpt lat="45.560448" lon="7.860597">
        <ele>1224.51489</ele>
        <time>2024-10-15T10:56:52.000Z</time>
      </trkpt>
      <trkpt lat="45.560435" lon="7.860622">
        <ele>1224.29492</ele>
        <time>2024-10-15T10:56:54.000Z</time>
      </trkpt>
      <trkpt lat="45.560415" lon="7.860642">
        <ele>1224.07495</ele>
        <time>2024-10-15T10:56:56.000Z</time>
      </trkpt>
      <trkpt lat="45.560402" lon="7.860663">
        <ele>1223.87488</ele>
        <time>2024-10-15T10:56:58.000Z</time>
      </trkpt>
      <trkpt lat="45.560387" lon="7.860687">
        <ele>1223.69995</ele>
        <time>2024-10-15T10:57:00.000Z</time>
      </trkpt>
      <trkpt lat="45.560375" lon="7.860707">
        <ele>1223.55981</ele>
        <time>2024-10-15T10:57:02.000Z</time>
      </trkpt>
      <trkpt lat="45.560363" lon="7.860737">
        <ele>1223.40991</ele>
        <time>2024-10-15T10:57:05.000Z</time>
      </trkpt>
      <trkpt lat="45.560337" lon="7.860763">
        <ele>1223.28992</ele>
        <time>2024-10-15T10:57:08.000Z</time>
      </trkpt>
      <trkpt lat="45.560315" lon="7.860775">
        <ele>1223.18994</ele>
        <time>2024-10-15T10:57:10.000Z</time>
      </trkpt>
      <trkpt lat="45.560298" lon="7.860797">
        <ele>1223.08997</ele>
        <time>2024-10-15T10:57:12.000Z</time>
      </trkpt>
      <trkpt lat="45.560278" lon="7.860823">
        <ele>1222.92493</ele>
        <time>2024-10-15T10:57:14.000Z</time>
      </trkpt>
      <trkpt lat="45.560267" lon="7.860852">
        <ele>1222.68994</ele>
        <time>2024-10-15T10:57:16.000Z</time>
      </trkpt>
      <trkpt lat="45.560248" lon="7.860888">
        <ele>1222.40002</ele>
        <time>2024-10-15T10:57:18.000Z</time>
      </trkpt>
      <trkpt lat="45.560237" lon="7.860932">
        <ele>1222.03503</ele>
        <time>2024-10-15T10:57:20.000Z</time>
      </trkpt>
      <trkpt lat="45.560228" lon="7.86096">
        <ele>1221.53003</ele>
        <time>2024-10-15T10:57:22.000Z</time>
      </trkpt>
      <trkpt lat="45.560217" lon="7.86099">
        <ele>1221.00513</ele>
        <time>2024-10-15T10:57:24.000Z</time>
      </trkpt>
      <trkpt lat="45.560212" lon="7.861018">
        <ele>1220.47009</ele>
        <time>2024-10-15T10:57:26.000Z</time>
      </trkpt>
      <trkpt lat="45.560207" lon="7.861055">
        <ele>1219.89514</ele>
        <time>2024-10-15T10:57:28.000Z</time>
      </trkpt>
      <trkpt lat="45.5602" lon="7.86109">
        <ele>1219.29016</ele>
        <time>2024-10-15T10:57:30.000Z</time>
      </trkpt>
      <trkpt lat="45.560192" lon="7.861127">
        <ele>1218.69507</ele>
        <time>2024-10-15T10:57:32.000Z</time>
      </trkpt>
      <trkpt lat="45.56018" lon="7.861158">
        <ele>1218.11011</ele>
        <time>2024-10-15T10:57:34.000Z</time>
      </trkpt>
      <trkpt lat="45.560172" lon="7.861183">
        <ele>1217.53003</ele>
        <time>2024-10-15T10:57:36.000Z</time>
      </trkpt>
      <trkpt lat="45.560178" lon="7.86121">
        <ele>1216.89001</ele>
        <time>2024-10-15T10:57:39.000Z</time>
      </trkpt>
      <trkpt lat="45.560177" lon="7.861245">
        <ele>1216.22998</ele>
        <time>2024-10-15T10:57:41.000Z</time>
      </trkpt>
      <trkpt lat="45.560177" lon="7.86128">
        <ele>1215.54504</ele>
        <time>2024-10-15T10:57:43.000Z</time>
      </trkpt>
      <trkpt lat="45.560167" lon="7.861303">
        <ele>1214.86499</ele>
        <time>2024-10-15T10:57:44.000Z</time>
      </trkpt>
      <trkpt lat="45.560145" lon="7.861345">
        <ele>1214.19995</ele>
        <time>2024-10-15T10:57:46.000Z</time>
      </trkpt>
      <trkpt lat="45.560127" lon="7.861383">
        <ele>1213.5</ele>
        <time>2024-10-15T10:57:48.000Z</time>
      </trkpt>
      <trkpt lat="45.560117" lon="7.861407">
        <ele>1212.80505</ele>
        <time>2024-10-15T10:57:49.000Z</time>
      </trkpt>
      <trkpt lat="45.560105" lon="7.861442">
        <ele>1212.12012</ele>
        <time>2024-10-15T10:57:51.000Z</time>
      </trkpt>
      <trkpt lat="45.560093" lon="7.861477">
        <ele>1211.46509</ele>
        <time>2024-10-15T10:57:53.000Z</time>
      </trkpt>
      <trkpt lat="45.560078" lon="7.861512">
        <ele>1210.80505</ele>
        <time>2024-10-15T10:57:55.000Z</time>
      </trkpt>
      <trkpt lat="45.560062" lon="7.861548">
        <ele>1210.15503</ele>
        <time>2024-10-15T10:57:57.000Z</time>
      </trkpt>
      <trkpt lat="45.560047" lon="7.861567">
        <ele>1209.53003</ele>
        <time>2024-10-15T10:57:58.000Z</time>
      </trkpt>
      <trkpt lat="45.560035" lon="7.861587">
        <ele>1208.92017</ele>
        <time>2024-10-15T10:57:59.000Z</time>
      </trkpt>
      <trkpt lat="45.560023" lon="7.861618">
        <ele>1208.28516</ele>
        <time>2024-10-15T10:58:01.000Z</time>
      </trkpt>
      <trkpt lat="45.56001" lon="7.86166">
        <ele>1207.62012</ele>
        <time>2024-10-15T10:58:03.000Z</time>
      </trkpt>
      <trkpt lat="45.559998" lon="7.86168">
        <ele>1206.94507</ele>
        <time>2024-10-15T10:58:04.000Z</time>
      </trkpt>
      <trkpt lat="45.559975" lon="7.861708">
        <ele>1206.2251</ele>
        <time>2024-10-15T10:58:06.000Z</time>
      </trkpt>
      <trkpt lat="45.559957" lon="7.861735">
        <ele>1205.46509</ele>
        <time>2024-10-15T10:58:08.000Z</time>
      </trkpt>
      <trkpt lat="45.559925" lon="7.861762">
        <ele>1204.67517</ele>
        <time>2024-10-15T10:58:10.000Z</time>
      </trkpt>
      <trkpt lat="45.5599" lon="7.861797">
        <ele>1203.89526</ele>
        <time>2024-10-15T10:58:12.000Z</time>
      </trkpt>
      <trkpt lat="45.559887" lon="7.861817">
        <ele>1203.1853</ele>
        <time>2024-10-15T10:58:13.000Z</time>
      </trkpt>
      <trkpt lat="45.559863" lon="7.861852">
        <ele>1202.51538</ele>
        <time>2024-10-15T10:58:15.000Z</time>
      </trkpt>
      <trkpt lat="45.559837" lon="7.861872">
        <ele>1201.89038</ele>
        <time>2024-10-15T10:58:17.000Z</time>
      </trkpt>
      <trkpt lat="45.559815" lon="7.861885">
        <ele>1201.2804</ele>
        <time>2024-10-15T10:58:18.000Z</time>
      </trkpt>
      <trkpt lat="45.559793" lon="7.861898">
        <ele>1200.72046</ele>
        <time>2024-10-15T10:58:19.000Z</time>
      </trkpt>
      <trkpt lat="45.559772" lon="7.861908">
        <ele>1200.20532</ele>
        <time>2024-10-15T10:58:20.000Z</time>
      </trkpt>
      <trkpt lat="45.559752" lon="7.861927">
        <ele>1199.72534</ele>
        <time>2024-10-15T10:58:21.000Z</time>
      </trkpt>
      <trkpt lat="45.559733" lon="7.861942">
        <ele>1199.29028</ele>
        <time>2024-10-15T10:58:22.000Z</time>
      </trkpt>
      <trkpt lat="45.559715" lon="7.861953">
        <ele>1198.91528</ele>
        <time>2024-10-15T10:58:23.000Z</time>
      </trkpt>
      <trkpt lat="45.5597" lon="7.861975">
        <ele>1198.63525</ele>
        <time>2024-10-15T10:58:24.000Z</time>
      </trkpt>
      <trkpt lat="45.559687" lon="7.861995">
        <ele>1198.42017</ele>
        <time>2024-10-15T10:58:25.000Z</time>
      </trkpt>
      <trkpt lat="45.559655" lon="7.862022">
        <ele>1198.23511</ele>
        <time>2024-10-15T10:58:27.000Z</time>
      </trkpt>
      <trkpt lat="45.559638" lon="7.862043">
        <ele>1198.07507</ele>
        <time>2024-10-15T10:58:28.000Z</time>
      </trkpt>
      <trkpt lat="45.559622" lon="7.862057">
        <ele>1197.96997</ele>
        <time>2024-10-15T10:58:29.000Z</time>
      </trkpt>
      <trkpt lat="45.559608" lon="7.862075">
        <ele>1197.94995</ele>
        <time>2024-10-15T10:58:30.000Z</time>
      </trkpt>
      <trkpt lat="45.55959" lon="7.86209">
        <ele>1197.94995</ele>
        <time>2024-10-15T10:58:32.000Z</time>
      </trkpt>
      <trkpt lat="45.559568" lon="7.862112">
        <ele>1197.94507</ele>
        <time>2024-10-15T10:58:34.000Z</time>
      </trkpt>
      <trkpt lat="45.559553" lon="7.86214">
        <ele>1197.90503</ele>
        <time>2024-10-15T10:58:36.000Z</time>
      </trkpt>
      <trkpt lat="45.559533" lon="7.862175">
        <ele>1197.82996</ele>
        <time>2024-10-15T10:58:38.000Z</time>
      </trkpt>
      <trkpt lat="45.559517" lon="7.862202">
        <ele>1197.68494</ele>
        <time>2024-10-15T10:58:40.000Z</time>
      </trkpt>
      <trkpt lat="45.559497" lon="7.862233">
        <ele>1197.45496</ele>
        <time>2024-10-15T10:58:42.000Z</time>
      </trkpt>
      <trkpt lat="45.559478" lon="7.86227">
        <ele>1197.16992</ele>
        <time>2024-10-15T10:58:44.000Z</time>
      </trkpt>
      <trkpt lat="45.559462" lon="7.8623">
        <ele>1196.84985</ele>
        <time>2024-10-15T10:58:46.000Z</time>
      </trkpt>
      <trkpt lat="45.55944" lon="7.862328">
        <ele>1196.49988</ele>
        <time>2024-10-15T10:58:48.000Z</time>
      </trkpt>
      <trkpt lat="45.559423" lon="7.862358">
        <ele>1196.09497</ele>
        <time>2024-10-15T10:58:50.000Z</time>
      </trkpt>
      <trkpt lat="45.559413" lon="7.86238">
        <ele>1195.66492</ele>
        <time>2024-10-15T10:58:51.000Z</time>
      </trkpt>
      <trkpt lat="45.559392" lon="7.862415">
        <ele>1195.17993</ele>
        <time>2024-10-15T10:58:53.000Z</time>
      </trkpt>
      <trkpt lat="45.55939" lon="7.862447">
        <ele>1194.57996</ele>
        <time>2024-10-15T10:58:57.000Z</time>
      </trkpt>
      <trkpt lat="45.559377" lon="7.862477">
        <ele>1193.97498</ele>
        <time>2024-10-15T10:59:00.000Z</time>
      </trkpt>
      <trkpt lat="45.55935" lon="7.862487">
        <ele>1193.39001</ele>
        <time>2024-10-15T10:59:02.000Z</time>
      </trkpt>
      <trkpt lat="45.55932" lon="7.862503">
        <ele>1192.82007</ele>
        <time>2024-10-15T10:59:04.000Z</time>
      </trkpt>
      <trkpt lat="45.559297" lon="7.862513">
        <ele>1192.27502</ele>
        <time>2024-10-15T10:59:06.000Z</time>
      </trkpt>
      <trkpt lat="45.559278" lon="7.862527">
        <ele>1191.75</ele>
        <time>2024-10-15T10:59:08.000Z</time>
      </trkpt>
      <trkpt lat="45.559257" lon="7.862532">
        <ele>1191.23511</ele>
        <time>2024-10-15T10:59:10.000Z</time>
      </trkpt>
      <trkpt lat="45.559225" lon="7.862528">
        <ele>1190.7301</ele>
        <time>2024-10-15T10:59:12.000Z</time>
      </trkpt>
      <trkpt lat="45.559195" lon="7.862517">
        <ele>1190.26501</ele>
        <time>2024-10-15T10:59:14.000Z</time>
      </trkpt>
      <trkpt lat="45.559165" lon="7.862503">
        <ele>1189.87</ele>
        <time>2024-10-15T10:59:16.000Z</time>
      </trkpt>
      <trkpt lat="45.559147" lon="7.862492">
        <ele>1189.56506</ele>
        <time>2024-10-15T10:59:17.000Z</time>
      </trkpt>
      <trkpt lat="45.55913" lon="7.862482">
        <ele>1189.34998</ele>
        <time>2024-10-15T10:59:18.000Z</time>
      </trkpt>
      <trkpt lat="45.559113" lon="7.86247">
        <ele>1189.22498</ele>
        <time>2024-10-15T10:59:19.000Z</time>
      </trkpt>
      <trkpt lat="45.559087" lon="7.862458">
        <ele>1189.19995</ele>
        <time>2024-10-15T10:59:21.000Z</time>
      </trkpt>
      <trkpt lat="45.559057" lon="7.862447">
        <ele>1189.25</ele>
        <time>2024-10-15T10:59:23.000Z</time>
      </trkpt>
      <trkpt lat="45.559033" lon="7.862437">
        <ele>1189.39502</ele>
        <time>2024-10-15T10:59:25.000Z</time>
      </trkpt>
      <trkpt lat="45.55901" lon="7.862415">
        <ele>1189.58496</ele>
        <time>2024-10-15T10:59:27.000Z</time>
      </trkpt>
      <trkpt lat="45.558987" lon="7.862395">
        <ele>1189.85486</ele>
        <time>2024-10-15T10:59:29.000Z</time>
      </trkpt>
      <trkpt lat="45.558967" lon="7.862392">
        <ele>1190.18982</ele>
        <time>2024-10-15T10:59:31.000Z</time>
      </trkpt>
      <trkpt lat="45.558947" lon="7.862382">
        <ele>1190.57983</ele>
        <time>2024-10-15T10:59:33.000Z</time>
      </trkpt>
      <trkpt lat="45.55892" lon="7.862377">
        <ele>1191.04993</ele>
        <time>2024-10-15T10:59:35.000Z</time>
      </trkpt>
      <trkpt lat="45.5589" lon="7.862368">
        <ele>1191.48987</ele>
        <time>2024-10-15T10:59:37.000Z</time>
      </trkpt>
      <trkpt lat="45.558882" lon="7.862357">
        <ele>1191.83484</ele>
        <time>2024-10-15T10:59:39.000Z</time>
      </trkpt>
      <trkpt lat="45.558853" lon="7.862345">
        <ele>1192.08484</ele>
        <time>2024-10-15T10:59:41.000Z</time>
      </trkpt>
      <trkpt lat="45.558837" lon="7.862332">
        <ele>1192.2699</ele>
        <time>2024-10-15T10:59:42.000Z</time>
      </trkpt>
      <trkpt lat="45.558818" lon="7.86232">
        <ele>1192.40991</ele>
        <time>2024-10-15T10:59:43.000Z</time>
      </trkpt>
      <trkpt lat="45.5588" lon="7.862305">
        <ele>1192.51489</ele>
        <time>2024-10-15T10:59:44.000Z</time>
      </trkpt>
      <trkpt lat="45.558773" lon="7.862297">
        <ele>1192.55994</ele>
        <time>2024-10-15T10:59:46.000Z</time>
      </trkpt>
      <trkpt lat="45.558742" lon="7.862292">
        <ele>1192.52502</ele>
        <time>2024-10-15T10:59:48.000Z</time>
      </trkpt>
      <trkpt lat="45.558718" lon="7.86229">
        <ele>1192.43005</ele>
        <time>2024-10-15T10:59:50.000Z</time>
      </trkpt>
      <trkpt lat="45.558695" lon="7.862283">
        <ele>1192.28003</ele>
        <time>2024-10-15T10:59:52.000Z</time>
      </trkpt>
      <trkpt lat="45.558675" lon="7.862268">
        <ele>1192.04517</ele>
        <time>2024-10-15T10:59:54.000Z</time>
      </trkpt>
      <trkpt lat="45.558645" lon="7.862243">
        <ele>1191.75513</ele>
        <time>2024-10-15T10:59:56.000Z</time>
      </trkpt>
      <trkpt lat="45.558627" lon="7.86223">
        <ele>1191.45007</ele>
        <time>2024-10-15T10:59:57.000Z</time>
      </trkpt>
      <trkpt lat="45.558595" lon="7.862208">
        <ele>1191.11511</ele>
        <time>2024-10-15T10:59:59.000Z</time>
      </trkpt>
      <trkpt lat="45.558577" lon="7.862193">
        <ele>1190.71008</ele>
        <time>2024-10-15T11:00:00.000Z</time>
      </trkpt>
      <trkpt lat="45.558557" lon="7.862183">
        <ele>1190.27014</ele>
        <time>2024-10-15T11:00:01.000Z</time>
      </trkpt>
      <trkpt lat="45.558538" lon="7.86217">
        <ele>1189.80518</ele>
        <time>2024-10-15T11:00:02.000Z</time>
      </trkpt>
      <trkpt lat="45.558517" lon="7.862167">
        <ele>1189.30518</ele>
        <time>2024-10-15T11:00:03.000Z</time>
      </trkpt>
      <trkpt lat="45.558498" lon="7.862148">
        <ele>1188.79016</ele>
        <time>2024-10-15T11:00:04.000Z</time>
      </trkpt>
      <trkpt lat="45.558483" lon="7.862133">
        <ele>1188.26514</ele>
        <time>2024-10-15T11:00:05.000Z</time>
      </trkpt>
      <trkpt lat="45.558465" lon="7.862112">
        <ele>1187.72009</ele>
        <time>2024-10-15T11:00:07.000Z</time>
      </trkpt>
      <trkpt lat="45.55845" lon="7.86209">
        <ele>1187.16003</ele>
        <time>2024-10-15T11:00:09.000Z</time>
      </trkpt>
      <trkpt lat="45.55844" lon="7.862067">
        <ele>1186.62012</ele>
        <time>2024-10-15T11:00:11.000Z</time>
      </trkpt>
      <trkpt lat="45.55842" lon="7.862035">
        <ele>1186.09009</ele>
        <time>2024-10-15T11:00:13.000Z</time>
      </trkpt>
      <trkpt lat="45.558402" lon="7.862002">
        <ele>1185.53003</ele>
        <time>2024-10-15T11:00:15.000Z</time>
      </trkpt>
      <trkpt lat="45.558378" lon="7.861972">
        <ele>1184.91504</ele>
        <time>2024-10-15T11:00:17.000Z</time>
      </trkpt>
      <trkpt lat="45.558362" lon="7.861953">
        <ele>1184.29504</ele>
        <time>2024-10-15T11:00:18.000Z</time>
      </trkpt>
      <trkpt lat="45.558348" lon="7.861933">
        <ele>1183.69006</ele>
        <time>2024-10-15T11:00:19.000Z</time>
      </trkpt>
      <trkpt lat="45.55832" lon="7.861913">
        <ele>1183.05493</ele>
        <time>2024-10-15T11:00:21.000Z</time>
      </trkpt>
      <trkpt lat="45.558287" lon="7.861895">
        <ele>1182.40503</ele>
        <time>2024-10-15T11:00:23.000Z</time>
      </trkpt>
      <trkpt lat="45.558262" lon="7.861868">
        <ele>1181.76001</ele>
        <time>2024-10-15T11:00:25.000Z</time>
      </trkpt>
      <trkpt lat="45.558242" lon="7.861852">
        <ele>1181.13989</ele>
        <time>2024-10-15T11:00:27.000Z</time>
      </trkpt>
      <trkpt lat="45.558217" lon="7.86184">
        <ele>1180.55005</ele>
        <time>2024-10-15T11:00:29.000Z</time>
      </trkpt>
      <trkpt lat="45.55819" lon="7.86182">
        <ele>1179.95996</ele>
        <time>2024-10-15T11:00:31.000Z</time>
      </trkpt>
      <trkpt lat="45.558175" lon="7.861803">
        <ele>1179.34497</ele>
        <time>2024-10-15T11:00:33.000Z</time>
      </trkpt>
      <trkpt lat="45.558148" lon="7.861782">
        <ele>1178.72498</ele>
        <time>2024-10-15T11:00:35.000Z</time>
      </trkpt>
      <trkpt lat="45.558117" lon="7.861758">
        <ele>1178.07996</ele>
        <time>2024-10-15T11:00:37.000Z</time>
      </trkpt>
      <trkpt lat="45.558087" lon="7.86174">
        <ele>1177.41504</ele>
        <time>2024-10-15T11:00:39.000Z</time>
      </trkpt>
      <trkpt lat="45.558058" lon="7.861727">
        <ele>1176.69507</ele>
        <time>2024-10-15T11:00:41.000Z</time>
      </trkpt>
      <trkpt lat="45.558028" lon="7.861715">
        <ele>1175.94507</ele>
        <time>2024-10-15T11:00:43.000Z</time>
      </trkpt>
      <trkpt lat="45.558007" lon="7.861702">
        <ele>1175.17004</ele>
        <time>2024-10-15T11:00:45.000Z</time>
      </trkpt>
      <trkpt lat="45.557985" lon="7.861695">
        <ele>1174.39502</ele>
        <time>2024-10-15T11:00:47.000Z</time>
      </trkpt>
      <trkpt lat="45.557965" lon="7.861693">
        <ele>1173.62</ele>
        <time>2024-10-15T11:00:49.000Z</time>
      </trkpt>
      <trkpt lat="45.557938" lon="7.861693">
        <ele>1172.84998</ele>
        <time>2024-10-15T11:00:51.000Z</time>
      </trkpt>
      <trkpt lat="45.557905" lon="7.86169">
        <ele>1172.12</ele>
        <time>2024-10-15T11:00:53.000Z</time>
      </trkpt>
      <trkpt lat="45.557877" lon="7.861695">
        <ele>1171.45007</ele>
        <time>2024-10-15T11:00:55.000Z</time>
      </trkpt>
      <trkpt lat="45.557858" lon="7.861698">
        <ele>1170.80005</ele>
        <time>2024-10-15T11:00:56.000Z</time>
      </trkpt>
      <trkpt lat="45.55783" lon="7.861707">
        <ele>1170.14001</ele>
        <time>2024-10-15T11:00:58.000Z</time>
      </trkpt>
      <trkpt lat="45.557792" lon="7.861712">
        <ele>1169.4801</ele>
        <time>2024-10-15T11:01:00.000Z</time>
      </trkpt>
      <trkpt lat="45.557765" lon="7.861722">
        <ele>1168.84009</ele>
        <time>2024-10-15T11:01:01.000Z</time>
      </trkpt>
      <trkpt lat="45.557747" lon="7.861727">
        <ele>1168.24512</ele>
        <time>2024-10-15T11:01:02.000Z</time>
      </trkpt>
      <trkpt lat="45.55772" lon="7.86173">
        <ele>1167.59509</ele>
        <time>2024-10-15T11:01:04.000Z</time>
      </trkpt>
      <trkpt lat="45.557695" lon="7.861738">
        <ele>1166.86011</ele>
        <time>2024-10-15T11:01:06.000Z</time>
      </trkpt>
      <trkpt lat="45.55767" lon="7.86175">
        <ele>1166.15015</ele>
        <time>2024-10-15T11:01:08.000Z</time>
      </trkpt>
      <trkpt lat="45.557637" lon="7.861762">
        <ele>1165.54517</ele>
        <time>2024-10-15T11:01:10.000Z</time>
      </trkpt>
      <trkpt lat="45.557615" lon="7.861768">
        <ele>1164.99512</ele>
        <time>2024-10-15T11:01:12.000Z</time>
      </trkpt>
      <trkpt lat="45.557593" lon="7.86176">
        <ele>1164.42505</ele>
        <time>2024-10-15T11:01:24.000Z</time>
      </trkpt>
      <trkpt lat="45.557575" lon="7.861763">
        <ele>1163.87512</ele>
        <time>2024-10-15T11:01:26.000Z</time>
      </trkpt>
      <trkpt lat="45.55755" lon="7.861762">
        <ele>1163.40015</ele>
        <time>2024-10-15T11:01:28.000Z</time>
      </trkpt>
      <trkpt lat="45.557532" lon="7.861763">
        <ele>1162.97009</ele>
        <time>2024-10-15T11:01:30.000Z</time>
      </trkpt>
      <trkpt lat="45.55751" lon="7.861763">
        <ele>1162.54517</ele>
        <time>2024-10-15T11:01:32.000Z</time>
      </trkpt>
      <trkpt lat="45.557488" lon="7.861763">
        <ele>1162.13513</ele>
        <time>2024-10-15T11:01:35.000Z</time>
      </trkpt>
      <trkpt lat="45.55747" lon="7.86176">
        <ele>1161.71509</ele>
        <time>2024-10-15T11:01:37.000Z</time>
      </trkpt>
      <trkpt lat="45.55745" lon="7.861747">
        <ele>1161.31519</ele>
        <time>2024-10-15T11:01:39.000Z</time>
      </trkpt>
      <trkpt lat="45.557422" lon="7.861727">
        <ele>1161.00513</ele>
        <time>2024-10-15T11:01:41.000Z</time>
      </trkpt>
      <trkpt lat="45.557402" lon="7.86171">
        <ele>1160.71509</ele>
        <time>2024-10-15T11:01:43.000Z</time>
      </trkpt>
      <trkpt lat="45.55738" lon="7.8617">
        <ele>1160.43518</ele>
        <time>2024-10-15T11:01:46.000Z</time>
      </trkpt>
      <trkpt lat="45.557357" lon="7.861678">
        <ele>1160.17517</ele>
        <time>2024-10-15T11:01:48.000Z</time>
      </trkpt>
      <trkpt lat="45.557332" lon="7.861647">
        <ele>1159.93018</ele>
        <time>2024-10-15T11:01:50.000Z</time>
      </trkpt>
      <trkpt lat="45.55732" lon="7.861622">
        <ele>1159.7052</ele>
        <time>2024-10-15T11:01:51.000Z</time>
      </trkpt>
      <trkpt lat="45.557292" lon="7.861597">
        <ele>1159.42517</ele>
        <time>2024-10-15T11:01:55.000Z</time>
      </trkpt>
      <trkpt lat="45.557263" lon="7.861573">
        <ele>1159.2002</ele>
        <time>2024-10-15T11:01:57.000Z</time>
      </trkpt>
      <trkpt lat="45.55724" lon="7.86155">
        <ele>1159.01025</ele>
        <time>2024-10-15T11:01:59.000Z</time>
      </trkpt>
      <trkpt lat="45.557213" lon="7.861528">
        <ele>1158.76526</ele>
        <time>2024-10-15T11:02:01.000Z</time>
      </trkpt>
      <trkpt lat="45.557188" lon="7.86152">
        <ele>1158.43018</ele>
        <time>2024-10-15T11:02:03.000Z</time>
      </trkpt>
      <trkpt lat="45.557158" lon="7.861518">
        <ele>1158.05518</ele>
        <time>2024-10-15T11:02:05.000Z</time>
      </trkpt>
      <trkpt lat="45.557135" lon="7.861507">
        <ele>1157.7002</ele>
        <time>2024-10-15T11:02:07.000Z</time>
      </trkpt>
      <trkpt lat="45.557112" lon="7.861485">
        <ele>1157.28516</ele>
        <time>2024-10-15T11:02:09.000Z</time>
      </trkpt>
      <trkpt lat="45.557093" lon="7.861473">
        <ele>1156.86011</ele>
        <time>2024-10-15T11:02:12.000Z</time>
      </trkpt>
      <trkpt lat="45.557075" lon="7.861467">
        <ele>1156.4751</ele>
        <time>2024-10-15T11:02:14.000Z</time>
      </trkpt>
      <trkpt lat="45.557057" lon="7.861457">
        <ele>1156.18518</ele>
        <time>2024-10-15T11:02:16.000Z</time>
      </trkpt>
      <trkpt lat="45.557032" lon="7.861445">
        <ele>1155.93518</ele>
        <time>2024-10-15T11:02:19.000Z</time>
      </trkpt>
      <trkpt lat="45.557012" lon="7.861438">
        <ele>1155.7251</ele>
        <time>2024-10-15T11:02:21.000Z</time>
      </trkpt>
      <trkpt lat="45.55699" lon="7.861428">
        <ele>1155.48999</ele>
        <time>2024-10-15T11:02:23.000Z</time>
      </trkpt>
      <trkpt lat="45.556973" lon="7.861418">
        <ele>1155.16504</ele>
        <time>2024-10-15T11:02:24.000Z</time>
      </trkpt>
      <trkpt lat="45.556953" lon="7.86141">
        <ele>1154.81006</ele>
        <time>2024-10-15T11:02:25.000Z</time>
      </trkpt>
      <trkpt lat="45.556922" lon="7.861393">
        <ele>1154.39502</ele>
        <time>2024-10-15T11:02:27.000Z</time>
      </trkpt>
      <trkpt lat="45.55689" lon="7.861385">
        <ele>1153.96509</ele>
        <time>2024-10-15T11:02:29.000Z</time>
      </trkpt>
      <trkpt lat="45.556858" lon="7.861378">
        <ele>1153.54504</ele>
        <time>2024-10-15T11:02:31.000Z</time>
      </trkpt>
      <trkpt lat="45.55684" lon="7.861383">
        <ele>1153.09497</ele>
        <time>2024-10-15T11:02:33.000Z</time>
      </trkpt>
      <trkpt lat="45.556815" lon="7.861387">
        <ele>1152.70496</ele>
        <time>2024-10-15T11:02:35.000Z</time>
      </trkpt>
      <trkpt lat="45.556793" lon="7.861382">
        <ele>1152.46997</ele>
        <time>2024-10-15T11:02:37.000Z</time>
      </trkpt>
      <trkpt lat="45.556768" lon="7.861375">
        <ele>1152.29993</ele>
        <time>2024-10-15T11:02:41.000Z</time>
      </trkpt>
      <trkpt lat="45.55675" lon="7.861373">
        <ele>1152.11499</ele>
        <time>2024-10-15T11:02:43.000Z</time>
      </trkpt>
      <trkpt lat="45.55673" lon="7.861372">
        <ele>1151.91492</ele>
        <time>2024-10-15T11:02:45.000Z</time>
      </trkpt>
      <trkpt lat="45.556705" lon="7.861377">
        <ele>1151.70996</ele>
        <time>2024-10-15T11:02:47.000Z</time>
      </trkpt>
      <trkpt lat="45.556678" lon="7.861372">
        <ele>1151.47498</ele>
        <time>2024-10-15T11:02:49.000Z</time>
      </trkpt>
      <trkpt lat="45.556647" lon="7.861373">
        <ele>1151.245</ele>
        <time>2024-10-15T11:02:51.000Z</time>
      </trkpt>
      <trkpt lat="45.556628" lon="7.861378">
        <ele>1150.98511</ele>
        <time>2024-10-15T11:02:52.000Z</time>
      </trkpt>
      <trkpt lat="45.556598" lon="7.861387">
        <ele>1150.63013</ele>
        <time>2024-10-15T11:02:54.000Z</time>
      </trkpt>
      <trkpt lat="45.556572" lon="7.861397">
        <ele>1150.19006</ele>
        <time>2024-10-15T11:02:56.000Z</time>
      </trkpt>
      <trkpt lat="45.556542" lon="7.861398">
        <ele>1149.70496</ele>
        <time>2024-10-15T11:02:58.000Z</time>
      </trkpt>
      <trkpt lat="45.556523" lon="7.861395">
        <ele>1149.19995</ele>
        <time>2024-10-15T11:02:59.000Z</time>
      </trkpt>
      <trkpt lat="45.556505" lon="7.86139">
        <ele>1148.69006</ele>
        <time>2024-10-15T11:03:00.000Z</time>
      </trkpt>
      <trkpt lat="45.55647" lon="7.861388">
        <ele>1148.17505</ele>
        <time>2024-10-15T11:03:02.000Z</time>
      </trkpt>
      <trkpt lat="45.556447" lon="7.861388">
        <ele>1147.67004</ele>
        <time>2024-10-15T11:03:04.000Z</time>
      </trkpt>
      <trkpt lat="45.556422" lon="7.861388">
        <ele>1147.20508</ele>
        <time>2024-10-15T11:03:06.000Z</time>
      </trkpt>
      <trkpt lat="45.55639" lon="7.861398">
        <ele>1146.76001</ele>
        <time>2024-10-15T11:03:08.000Z</time>
      </trkpt>
      <trkpt lat="45.556363" lon="7.861398">
        <ele>1146.3551</ele>
        <time>2024-10-15T11:03:10.000Z</time>
      </trkpt>
      <trkpt lat="45.556343" lon="7.86139">
        <ele>1145.96997</ele>
        <time>2024-10-15T11:03:11.000Z</time>
      </trkpt>
      <trkpt lat="45.556317" lon="7.86139">
        <ele>1145.56506</ele>
        <time>2024-10-15T11:03:13.000Z</time>
      </trkpt>
      <trkpt lat="45.556298" lon="7.861387">
        <ele>1144.9801</ele>
        <time>2024-10-15T11:03:15.000Z</time>
      </trkpt>
      <trkpt lat="45.556273" lon="7.86139">
        <ele>1144.30005</ele>
        <time>2024-10-15T11:03:17.000Z</time>
      </trkpt>
      <trkpt lat="45.556253" lon="7.861392">
        <ele>1143.65503</ele>
        <time>2024-10-15T11:03:18.000Z</time>
      </trkpt>
      <trkpt lat="45.556223" lon="7.861397">
        <ele>1143.00012</ele>
        <time>2024-10-15T11:03:20.000Z</time>
      </trkpt>
      <trkpt lat="45.556198" lon="7.861392">
        <ele>1142.3501</ele>
        <time>2024-10-15T11:03:22.000Z</time>
      </trkpt>
      <trkpt lat="45.556167" lon="7.861383">
        <ele>1141.7301</ele>
        <time>2024-10-15T11:03:24.000Z</time>
      </trkpt>
      <trkpt lat="45.556138" lon="7.861375">
        <ele>1141.12</ele>
        <time>2024-10-15T11:03:26.000Z</time>
      </trkpt>
      <trkpt lat="45.556107" lon="7.861368">
        <ele>1140.51501</ele>
        <time>2024-10-15T11:03:28.000Z</time>
      </trkpt>
      <trkpt lat="45.55608" lon="7.861367">
        <ele>1139.95508</ele>
        <time>2024-10-15T11:03:30.000Z</time>
      </trkpt>
      <trkpt lat="45.556057" lon="7.861367">
        <ele>1139.44507</ele>
        <time>2024-10-15T11:03:32.000Z</time>
      </trkpt>
      <trkpt lat="45.556028" lon="7.861363">
        <ele>1138.99512</ele>
        <time>2024-10-15T11:03:35.000Z</time>
      </trkpt>
      <trkpt lat="45.556003" lon="7.861367">
        <ele>1138.56018</ele>
        <time>2024-10-15T11:03:37.000Z</time>
      </trkpt>
      <trkpt lat="45.555975" lon="7.861373">
        <ele>1138.14014</ele>
        <time>2024-10-15T11:03:39.000Z</time>
      </trkpt>
      <trkpt lat="45.555942" lon="7.861367">
        <ele>1137.72009</ele>
        <time>2024-10-15T11:03:41.000Z</time>
      </trkpt>
      <trkpt lat="45.555923" lon="7.861363">
        <ele>1137.31506</ele>
        <time>2024-10-15T11:03:42.000Z</time>
      </trkpt>
      <trkpt lat="45.555903" lon="7.86136">
        <ele>1136.94995</ele>
        <time>2024-10-15T11:03:43.000Z</time>
      </trkpt>
      <trkpt lat="45.555868" lon="7.861353">
        <ele>1136.62</ele>
        <time>2024-10-15T11:03:45.000Z</time>
      </trkpt>
      <trkpt lat="45.555837" lon="7.861347">
        <ele>1136.27502</ele>
        <time>2024-10-15T11:03:47.000Z</time>
      </trkpt>
      <trkpt lat="45.555812" lon="7.861357">
        <ele>1135.94006</ele>
        <time>2024-10-15T11:03:49.000Z</time>
      </trkpt>
      <trkpt lat="45.555788" lon="7.861368">
        <ele>1135.61011</ele>
        <time>2024-10-15T11:03:51.000Z</time>
      </trkpt>
      <trkpt lat="45.555773" lon="7.861388">
        <ele>1135.29004</ele>
        <time>2024-10-15T11:03:53.000Z</time>
      </trkpt>
      <trkpt lat="45.55576" lon="7.861408">
        <ele>1134.97998</ele>
        <time>2024-10-15T11:03:55.000Z</time>
      </trkpt>
      <trkpt lat="45.555743" lon="7.861435">
        <ele>1134.70496</ele>
        <time>2024-10-15T11:03:57.000Z</time>
      </trkpt>
      <trkpt lat="45.555727" lon="7.861467">
        <ele>1134.48999</ele>
        <time>2024-10-15T11:03:59.000Z</time>
      </trkpt>
      <trkpt lat="45.555705" lon="7.86149">
        <ele>1134.30493</ele>
        <time>2024-10-15T11:04:01.000Z</time>
      </trkpt>
      <trkpt lat="45.55568" lon="7.861522">
        <ele>1134.17993</ele>
        <time>2024-10-15T11:04:03.000Z</time>
      </trkpt>
      <trkpt lat="45.555653" lon="7.861543">
        <ele>1134.1449</ele>
        <time>2024-10-15T11:04:05.000Z</time>
      </trkpt>
      <trkpt lat="45.555637" lon="7.861558">
        <ele>1134.1449</ele>
        <time>2024-10-15T11:04:06.000Z</time>
      </trkpt>
      <trkpt lat="45.555613" lon="7.861585">
        <ele>1134.17493</ele>
        <time>2024-10-15T11:04:08.000Z</time>
      </trkpt>
      <trkpt lat="45.555593" lon="7.861607">
        <ele>1134.20984</ele>
        <time>2024-10-15T11:04:10.000Z</time>
      </trkpt>
      <trkpt lat="45.555577" lon="7.861622">
        <ele>1134.22485</ele>
        <time>2024-10-15T11:04:12.000Z</time>
      </trkpt>
      <trkpt lat="45.555545" lon="7.861637">
        <ele>1134.24988</ele>
        <time>2024-10-15T11:04:14.000Z</time>
      </trkpt>
      <trkpt lat="45.555522" lon="7.861657">
        <ele>1134.27991</ele>
        <time>2024-10-15T11:04:16.000Z</time>
      </trkpt>
      <trkpt lat="45.555505" lon="7.861667">
        <ele>1134.33496</ele>
        <time>2024-10-15T11:04:17.000Z</time>
      </trkpt>
      <trkpt lat="45.555475" lon="7.86169">
        <ele>1134.375</ele>
        <time>2024-10-15T11:04:19.000Z</time>
      </trkpt>
      <trkpt lat="45.55545" lon="7.86171">
        <ele>1134.39502</ele>
        <time>2024-10-15T11:04:21.000Z</time>
      </trkpt>
      <trkpt lat="45.555427" lon="7.86174">
        <ele>1134.39502</ele>
        <time>2024-10-15T11:04:23.000Z</time>
      </trkpt>
      <trkpt lat="45.55541" lon="7.861773">
        <ele>1134.39502</ele>
        <time>2024-10-15T11:04:25.000Z</time>
      </trkpt>
      <trkpt lat="45.5554" lon="7.861797">
        <ele>1134.40503</ele>
        <time>2024-10-15T11:04:26.000Z</time>
      </trkpt>
      <trkpt lat="45.555387" lon="7.861817">
        <ele>1134.43494</ele>
        <time>2024-10-15T11:04:27.000Z</time>
      </trkpt>
      <trkpt lat="45.555362" lon="7.861847">
        <ele>1134.47998</ele>
        <time>2024-10-15T11:04:29.000Z</time>
      </trkpt>
      <trkpt lat="45.555337" lon="7.861872">
        <ele>1134.52002</ele>
        <time>2024-10-15T11:04:31.000Z</time>
      </trkpt>
      <trkpt lat="45.555312" lon="7.861885">
        <ele>1134.52502</ele>
        <time>2024-10-15T11:04:33.000Z</time>
      </trkpt>
      <trkpt lat="45.555288" lon="7.861887">
        <ele>1134.46997</ele>
        <time>2024-10-15T11:04:35.000Z</time>
      </trkpt>
      <trkpt lat="45.555263" lon="7.861898">
        <ele>1134.37</ele>
        <time>2024-10-15T11:04:38.000Z</time>
      </trkpt>
      <trkpt lat="45.555247" lon="7.861908">
        <ele>1134.22998</ele>
        <time>2024-10-15T11:04:40.000Z</time>
      </trkpt>
      <trkpt lat="45.55523" lon="7.861925">
        <ele>1134.03491</ele>
        <time>2024-10-15T11:04:43.000Z</time>
      </trkpt>
      <trkpt lat="45.555212" lon="7.861938">
        <ele>1133.80994</ele>
        <time>2024-10-15T11:04:45.000Z</time>
      </trkpt>
      <trkpt lat="45.555193" lon="7.861955">
        <ele>1133.55493</ele>
        <time>2024-10-15T11:04:47.000Z</time>
      </trkpt>
      <trkpt lat="45.555173" lon="7.861967">
        <ele>1133.25</ele>
        <time>2024-10-15T11:04:49.000Z</time>
      </trkpt>
      <trkpt lat="45.555155" lon="7.861983">
        <ele>1132.90002</ele>
        <time>2024-10-15T11:04:51.000Z</time>
      </trkpt>
      <trkpt lat="45.555133" lon="7.862007">
        <ele>1132.52502</ele>
        <time>2024-10-15T11:04:53.000Z</time>
      </trkpt>
      <trkpt lat="45.555105" lon="7.862025">
        <ele>1132.15002</ele>
        <time>2024-10-15T11:04:55.000Z</time>
      </trkpt>
      <trkpt lat="45.555073" lon="7.862048">
        <ele>1131.76001</ele>
        <time>2024-10-15T11:04:57.000Z</time>
      </trkpt>
      <trkpt lat="45.555043" lon="7.86207">
        <ele>1131.36499</ele>
        <time>2024-10-15T11:04:59.000Z</time>
      </trkpt>
      <trkpt lat="45.555025" lon="7.86208">
        <ele>1130.96997</ele>
        <time>2024-10-15T11:05:00.000Z</time>
      </trkpt>
      <trkpt lat="45.554992" lon="7.862093">
        <ele>1130.56995</ele>
        <time>2024-10-15T11:05:02.000Z</time>
      </trkpt>
      <trkpt lat="45.554965" lon="7.862102">
        <ele>1130.18494</ele>
        <time>2024-10-15T11:05:04.000Z</time>
      </trkpt>
      <trkpt lat="45.554935" lon="7.86211">
        <ele>1129.83496</ele>
        <time>2024-10-15T11:05:06.000Z</time>
      </trkpt>
      <trkpt lat="45.554905" lon="7.862117">
        <ele>1129.51001</ele>
        <time>2024-10-15T11:05:08.000Z</time>
      </trkpt>
      <trkpt lat="45.554868" lon="7.862108">
        <ele>1129.22998</ele>
        <time>2024-10-15T11:05:10.000Z</time>
      </trkpt>
      <trkpt lat="45.554833" lon="7.862112">
        <ele>1129.03491</ele>
        <time>2024-10-15T11:05:12.000Z</time>
      </trkpt>
      <trkpt lat="45.554815" lon="7.862107">
        <ele>1128.88501</ele>
        <time>2024-10-15T11:05:13.000Z</time>
      </trkpt>
      <trkpt lat="45.554782" lon="7.8621">
        <ele>1128.77002</ele>
        <time>2024-10-15T11:05:15.000Z</time>
      </trkpt>
      <trkpt lat="45.55476" lon="7.862082">
        <ele>1128.66504</ele>
        <time>2024-10-15T11:05:17.000Z</time>
      </trkpt>
      <trkpt lat="45.554738" lon="7.862068">
        <ele>1128.58008</ele>
        <time>2024-10-15T11:05:19.000Z</time>
      </trkpt>
      <trkpt lat="45.554722" lon="7.862058">
        <ele>1128.4801</ele>
        <time>2024-10-15T11:05:21.000Z</time>
      </trkpt>
      <trkpt lat="45.554697" lon="7.86204">
        <ele>1128.40503</ele>
        <time>2024-10-15T11:05:23.000Z</time>
      </trkpt>
      <trkpt lat="45.554675" lon="7.862017">
        <ele>1128.39001</ele>
        <time>2024-10-15T11:05:25.000Z</time>
      </trkpt>
      <trkpt lat="45.554655" lon="7.861988">
        <ele>1128.42004</ele>
        <time>2024-10-15T11:05:27.000Z</time>
      </trkpt>
      <trkpt lat="45.554637" lon="7.861955">
        <ele>1128.52502</ele>
        <time>2024-10-15T11:05:29.000Z</time>
      </trkpt>
      <trkpt lat="45.554612" lon="7.861923">
        <ele>1128.67505</ele>
        <time>2024-10-15T11:05:31.000Z</time>
      </trkpt>
      <trkpt lat="45.554595" lon="7.8619">
        <ele>1128.84497</ele>
        <time>2024-10-15T11:05:32.000Z</time>
      </trkpt>
      <trkpt lat="45.554583" lon="7.861878">
        <ele>1129.02502</ele>
        <time>2024-10-15T11:05:33.000Z</time>
      </trkpt>
      <trkpt lat="45.554575" lon="7.861855">
        <ele>1129.19006</ele>
        <time>2024-10-15T11:05:34.000Z</time>
      </trkpt>
      <trkpt lat="45.554572" lon="7.861827">
        <ele>1129.26501</ele>
        <time>2024-10-15T11:05:37.000Z</time>
      </trkpt>
      <trkpt lat="45.554588" lon="7.861817">
        <ele>1129.25</ele>
        <time>2024-10-15T11:05:41.000Z</time>
      </trkpt>
      <trkpt lat="45.55461" lon="7.861802">
        <ele>1129.255</ele>
        <time>2024-10-15T11:05:44.000Z</time>
      </trkpt>
      <trkpt lat="45.554592" lon="7.861777">
        <ele>1129.245</ele>
        <time>2024-10-15T11:05:57.000Z</time>
      </trkpt>
      <trkpt lat="45.554572" lon="7.86177">
        <ele>1129.16504</ele>
        <time>2024-10-15T11:06:00.000Z</time>
      </trkpt>
      <trkpt lat="45.55455" lon="7.861743">
        <ele>1129.03003</ele>
        <time>2024-10-15T11:06:02.000Z</time>
      </trkpt>
      <trkpt lat="45.554538" lon="7.861713">
        <ele>1128.85498</ele>
        <time>2024-10-15T11:06:04.000Z</time>
      </trkpt>
      <trkpt lat="45.554533" lon="7.861678">
        <ele>1128.67505</ele>
        <time>2024-10-15T11:06:06.000Z</time>
      </trkpt>
      <trkpt lat="45.554525" lon="7.861652">
        <ele>1128.53491</ele>
        <time>2024-10-15T11:06:08.000Z</time>
      </trkpt>
      <trkpt lat="45.554523" lon="7.861617">
        <ele>1128.42505</ele>
        <time>2024-10-15T11:06:10.000Z</time>
      </trkpt>
      <trkpt lat="45.554512" lon="7.861582">
        <ele>1128.34998</ele>
        <time>2024-10-15T11:06:12.000Z</time>
      </trkpt>
      <trkpt lat="45.554503" lon="7.861553">
        <ele>1128.38501</ele>
        <time>2024-10-15T11:06:14.000Z</time>
      </trkpt>
      <trkpt lat="45.554505" lon="7.861522">
        <ele>1128.45496</ele>
        <time>2024-10-15T11:06:16.000Z</time>
      </trkpt>
      <trkpt lat="45.554508" lon="7.861488">
        <ele>1128.51001</ele>
        <time>2024-10-15T11:06:18.000Z</time>
      </trkpt>
      <trkpt lat="45.554508" lon="7.861453">
        <ele>1128.55493</ele>
        <time>2024-10-15T11:06:20.000Z</time>
      </trkpt>
      <trkpt lat="45.554503" lon="7.861428">
        <ele>1128.57495</ele>
        <time>2024-10-15T11:06:22.000Z</time>
      </trkpt>
      <trkpt lat="45.554507" lon="7.861395">
        <ele>1128.59998</ele>
        <time>2024-10-15T11:06:24.000Z</time>
      </trkpt>
      <trkpt lat="45.554508" lon="7.861353">
        <ele>1128.62</ele>
        <time>2024-10-15T11:06:27.000Z</time>
      </trkpt>
      <trkpt lat="45.554507" lon="7.861323">
        <ele>1128.65002</ele>
        <time>2024-10-15T11:06:29.000Z</time>
      </trkpt>
      <trkpt lat="45.554512" lon="7.861295">
        <ele>1128.72998</ele>
        <time>2024-10-15T11:06:31.000Z</time>
      </trkpt>
      <trkpt lat="45.554517" lon="7.861265">
        <ele>1128.89502</ele>
        <time>2024-10-15T11:06:33.000Z</time>
      </trkpt>
      <trkpt lat="45.554513" lon="7.861238">
        <ele>1129.15002</ele>
        <time>2024-10-15T11:06:36.000Z</time>
      </trkpt>
      <trkpt lat="45.554502" lon="7.861212">
        <ele>1129.34998</ele>
        <time>2024-10-15T11:06:38.000Z</time>
      </trkpt>
      <trkpt lat="45.554488" lon="7.861187">
        <ele>1129.51489</ele>
        <time>2024-10-15T11:06:40.000Z</time>
      </trkpt>
      <trkpt lat="45.554463" lon="7.861177">
        <ele>1129.66992</ele>
        <time>2024-10-15T11:06:42.000Z</time>
      </trkpt>
      <trkpt lat="45.55444" lon="7.861158">
        <ele>1129.80493</ele>
        <time>2024-10-15T11:06:45.000Z</time>
      </trkpt>
      <trkpt lat="45.554417" lon="7.861162">
        <ele>1129.92505</ele>
        <time>2024-10-15T11:06:47.000Z</time>
      </trkpt>
      <trkpt lat="45.554393" lon="7.861155">
        <ele>1130.005</ele>
        <time>2024-10-15T11:06:49.000Z</time>
      </trkpt>
      <trkpt lat="45.554373" lon="7.861145">
        <ele>1130.03491</ele>
        <time>2024-10-15T11:06:51.000Z</time>
      </trkpt>
      <trkpt lat="45.554353" lon="7.861142">
        <ele>1130.03992</ele>
        <time>2024-10-15T11:06:53.000Z</time>
      </trkpt>
      <trkpt lat="45.554337" lon="7.86113">
        <ele>1129.95996</ele>
        <time>2024-10-15T11:06:55.000Z</time>
      </trkpt>
      <trkpt lat="45.554315" lon="7.861128">
        <ele>1129.76489</ele>
        <time>2024-10-15T11:06:57.000Z</time>
      </trkpt>
      <trkpt lat="45.554292" lon="7.861128">
        <ele>1129.51489</ele>
        <time>2024-10-15T11:06:59.000Z</time>
      </trkpt>
      <trkpt lat="45.55427" lon="7.861132">
        <ele>1129.20996</ele>
        <time>2024-10-15T11:07:01.000Z</time>
      </trkpt>
      <trkpt lat="45.554245" lon="7.861127">
        <ele>1128.92505</ele>
        <time>2024-10-15T11:07:03.000Z</time>
      </trkpt>
      <trkpt lat="45.554222" lon="7.861123">
        <ele>1128.65503</ele>
        <time>2024-10-15T11:07:05.000Z</time>
      </trkpt>
      <trkpt lat="45.554203" lon="7.861123">
        <ele>1128.33496</ele>
        <time>2024-10-15T11:07:07.000Z</time>
      </trkpt>
      <trkpt lat="45.554192" lon="7.8611">
        <ele>1128.0199</ele>
        <time>2024-10-15T11:07:10.000Z</time>
      </trkpt>
      <trkpt lat="45.55421" lon="7.861085">
        <ele>1127.66992</ele>
        <time>2024-10-15T11:07:16.000Z</time>
      </trkpt>
      <trkpt lat="45.554192" lon="7.861077">
        <ele>1127.45483</ele>
        <time>2024-10-15T11:07:29.000Z</time>
      </trkpt>
      <trkpt lat="45.554175" lon="7.861065">
        <ele>1127.20984</ele>
        <time>2024-10-15T11:07:31.000Z</time>
      </trkpt>
      <trkpt lat="45.554153" lon="7.86107">
        <ele>1126.93481</ele>
        <time>2024-10-15T11:07:33.000Z</time>
      </trkpt>
      <trkpt lat="45.554127" lon="7.861077">
        <ele>1126.63989</ele>
        <time>2024-10-15T11:07:35.000Z</time>
      </trkpt>
      <trkpt lat="45.554102" lon="7.861077">
        <ele>1126.29993</ele>
        <time>2024-10-15T11:07:37.000Z</time>
      </trkpt>
      <trkpt lat="45.554075" lon="7.86108">
        <ele>1126.00488</ele>
        <time>2024-10-15T11:07:39.000Z</time>
      </trkpt>
      <trkpt lat="45.554047" lon="7.861082">
        <ele>1125.70984</ele>
        <time>2024-10-15T11:07:41.000Z</time>
      </trkpt>
      <trkpt lat="45.554015" lon="7.861087">
        <ele>1125.36987</ele>
        <time>2024-10-15T11:07:43.000Z</time>
      </trkpt>
      <trkpt lat="45.553982" lon="7.86109">
        <ele>1125.02478</ele>
        <time>2024-10-15T11:07:45.000Z</time>
      </trkpt>
      <trkpt lat="45.553953" lon="7.861088">
        <ele>1124.65991</ele>
        <time>2024-10-15T11:07:47.000Z</time>
      </trkpt>
      <trkpt lat="45.553935" lon="7.86109">
        <ele>1124.28979</ele>
        <time>2024-10-15T11:07:48.000Z</time>
      </trkpt>
      <trkpt lat="45.55391" lon="7.861092">
        <ele>1123.93481</ele>
        <time>2024-10-15T11:07:50.000Z</time>
      </trkpt>
      <trkpt lat="45.55389" lon="7.861092">
        <ele>1123.59973</ele>
        <time>2024-10-15T11:07:52.000Z</time>
      </trkpt>
      <trkpt lat="45.553863" lon="7.861088">
        <ele>1123.26477</ele>
        <time>2024-10-15T11:07:54.000Z</time>
      </trkpt>
      <trkpt lat="45.553845" lon="7.861085">
        <ele>1122.95483</ele>
        <time>2024-10-15T11:07:55.000Z</time>
      </trkpt>
      <trkpt lat="45.553827" lon="7.861085">
        <ele>1122.62976</ele>
        <time>2024-10-15T11:07:56.000Z</time>
      </trkpt>
      <trkpt lat="45.553793" lon="7.86107">
        <ele>1122.27478</ele>
        <time>2024-10-15T11:07:58.000Z</time>
      </trkpt>
      <trkpt lat="45.55376" lon="7.861063">
        <ele>1121.9248</ele>
        <time>2024-10-15T11:08:00.000Z</time>
      </trkpt>
      <trkpt lat="45.553737" lon="7.861058">
        <ele>1121.56982</ele>
        <time>2024-10-15T11:08:02.000Z</time>
      </trkpt>
      <trkpt lat="45.553713" lon="7.861055">
        <ele>1121.26978</ele>
        <time>2024-10-15T11:08:04.000Z</time>
      </trkpt>
      <trkpt lat="45.553693" lon="7.861057">
        <ele>1120.83984</ele>
        <time>2024-10-15T11:08:06.000Z</time>
      </trkpt>
      <trkpt lat="45.553675" lon="7.861055">
        <ele>1120.44983</ele>
        <time>2024-10-15T11:08:08.000Z</time>
      </trkpt>
      <trkpt lat="45.553653" lon="7.861055">
        <ele>1120.10986</ele>
        <time>2024-10-15T11:08:10.000Z</time>
      </trkpt>
      <trkpt lat="45.553623" lon="7.861055">
        <ele>1119.82983</ele>
        <time>2024-10-15T11:08:12.000Z</time>
      </trkpt>
      <trkpt lat="45.5536" lon="7.861047">
        <ele>1119.60986</ele>
        <time>2024-10-15T11:08:14.000Z</time>
      </trkpt>
      <trkpt lat="45.553572" lon="7.861048">
        <ele>1119.44495</ele>
        <time>2024-10-15T11:08:16.000Z</time>
      </trkpt>
      <trkpt lat="45.553553" lon="7.861052">
        <ele>1119.35486</ele>
        <time>2024-10-15T11:08:18.000Z</time>
      </trkpt>
      <trkpt lat="45.553532" lon="7.861052">
        <ele>1119.31995</ele>
        <time>2024-10-15T11:08:20.000Z</time>
      </trkpt>
      <trkpt lat="45.553508" lon="7.861057">
        <ele>1119.31494</ele>
        <time>2024-10-15T11:08:22.000Z</time>
      </trkpt>
      <trkpt lat="45.553483" lon="7.861058">
        <ele>1119.34985</ele>
        <time>2024-10-15T11:08:24.000Z</time>
      </trkpt>
      <trkpt lat="45.553455" lon="7.861065">
        <ele>1119.3949</ele>
        <time>2024-10-15T11:08:26.000Z</time>
      </trkpt>
      <trkpt lat="45.553425" lon="7.861063">
        <ele>1119.49487</ele>
        <time>2024-10-15T11:08:28.000Z</time>
      </trkpt>
      <trkpt lat="45.553397" lon="7.861057">
        <ele>1119.61987</ele>
        <time>2024-10-15T11:08:30.000Z</time>
      </trkpt>
      <trkpt lat="45.553363" lon="7.861048">
        <ele>1119.77991</ele>
        <time>2024-10-15T11:08:32.000Z</time>
      </trkpt>
      <trkpt lat="45.553342" lon="7.861048">
        <ele>1119.95483</ele>
        <time>2024-10-15T11:08:34.000Z</time>
      </trkpt>
      <trkpt lat="45.55331" lon="7.861057">
        <ele>1120.14978</ele>
        <time>2024-10-15T11:08:36.000Z</time>
      </trkpt>
      <trkpt lat="45.553292" lon="7.861057">
        <ele>1120.36487</ele>
        <time>2024-10-15T11:08:37.000Z</time>
      </trkpt>
      <trkpt lat="45.553273" lon="7.861062">
        <ele>1120.60986</ele>
        <time>2024-10-15T11:08:38.000Z</time>
      </trkpt>
      <trkpt lat="45.553245" lon="7.86107">
        <ele>1120.83484</ele>
        <time>2024-10-15T11:08:40.000Z</time>
      </trkpt>
      <trkpt lat="45.553215" lon="7.86108">
        <ele>1121.00989</ele>
        <time>2024-10-15T11:08:42.000Z</time>
      </trkpt>
      <trkpt lat="45.553185" lon="7.861072">
        <ele>1121.17993</ele>
        <time>2024-10-15T11:08:44.000Z</time>
      </trkpt>
      <trkpt lat="45.553163" lon="7.861063">
        <ele>1121.37988</ele>
        <time>2024-10-15T11:08:46.000Z</time>
      </trkpt>
      <trkpt lat="45.553138" lon="7.861055">
        <ele>1121.56982</ele>
        <time>2024-10-15T11:08:48.000Z</time>
      </trkpt>
      <trkpt lat="45.55311" lon="7.861047">
        <ele>1121.74487</ele>
        <time>2024-10-15T11:08:50.000Z</time>
      </trkpt>
      <trkpt lat="45.553082" lon="7.861038">
        <ele>1121.88989</ele>
        <time>2024-10-15T11:08:52.000Z</time>
      </trkpt>
      <trkpt lat="45.55305" lon="7.86103">
        <ele>1121.95483</ele>
        <time>2024-10-15T11:08:54.000Z</time>
      </trkpt>
      <trkpt lat="45.553023" lon="7.861025">
        <ele>1121.96985</ele>
        <time>2024-10-15T11:08:56.000Z</time>
      </trkpt>
      <trkpt lat="45.553003" lon="7.861018">
        <ele>1121.95984</ele>
        <time>2024-10-15T11:08:59.000Z</time>
      </trkpt>
      <trkpt lat="45.552977" lon="7.861002">
        <ele>1121.95483</ele>
        <time>2024-10-15T11:09:01.000Z</time>
      </trkpt>
      <trkpt lat="45.552962" lon="7.86097">
        <ele>1121.98486</ele>
        <time>2024-10-15T11:09:03.000Z</time>
      </trkpt>
      <trkpt lat="45.55293" lon="7.860942">
        <ele>1122.07483</ele>
        <time>2024-10-15T11:09:05.000Z</time>
      </trkpt>
      <trkpt lat="45.552908" lon="7.860938">
        <ele>1122.13989</ele>
        <time>2024-10-15T11:09:07.000Z</time>
      </trkpt>
      <trkpt lat="45.552887" lon="7.860953">
        <ele>1122.21997</ele>
        <time>2024-10-15T11:09:09.000Z</time>
      </trkpt>
      <trkpt lat="45.552867" lon="7.860962">
        <ele>1122.28491</ele>
        <time>2024-10-15T11:09:11.000Z</time>
      </trkpt>
      <trkpt lat="45.552848" lon="7.860967">
        <ele>1122.29492</ele>
        <time>2024-10-15T11:09:13.000Z</time>
      </trkpt>
      <trkpt lat="45.552828" lon="7.860973">
        <ele>1122.28003</ele>
        <time>2024-10-15T11:09:15.000Z</time>
      </trkpt>
      <trkpt lat="45.552803" lon="7.860978">
        <ele>1122.24487</ele>
        <time>2024-10-15T11:09:17.000Z</time>
      </trkpt>
      <trkpt lat="45.552773" lon="7.860972">
        <ele>1122.20984</ele>
        <time>2024-10-15T11:09:19.000Z</time>
      </trkpt>
      <trkpt lat="45.552755" lon="7.860968">
        <ele>1122.19995</ele>
        <time>2024-10-15T11:09:20.000Z</time>
      </trkpt>
      <trkpt lat="45.552728" lon="7.86096">
        <ele>1122.22485</ele>
        <time>2024-10-15T11:09:22.000Z</time>
      </trkpt>
      <trkpt lat="45.552697" lon="7.860955">
        <ele>1122.19995</ele>
        <time>2024-10-15T11:09:24.000Z</time>
      </trkpt>
      <trkpt lat="45.552663" lon="7.860957">
        <ele>1122.07983</ele>
        <time>2024-10-15T11:09:26.000Z</time>
      </trkpt>
      <trkpt lat="45.552643" lon="7.86096">
        <ele>1121.93494</ele>
        <time>2024-10-15T11:09:27.000Z</time>
      </trkpt>
      <trkpt lat="45.552617" lon="7.860967">
        <ele>1121.80005</ele>
        <time>2024-10-15T11:09:29.000Z</time>
      </trkpt>
      <trkpt lat="45.552593" lon="7.860978">
        <ele>1121.69507</ele>
        <time>2024-10-15T11:09:31.000Z</time>
      </trkpt>
      <trkpt lat="45.552567" lon="7.860982">
        <ele>1121.59497</ele>
        <time>2024-10-15T11:09:33.000Z</time>
      </trkpt>
      <trkpt lat="45.552548" lon="7.86098">
        <ele>1121.52002</ele>
        <time>2024-10-15T11:09:34.000Z</time>
      </trkpt>
      <trkpt lat="45.552525" lon="7.860973">
        <ele>1121.44995</ele>
        <time>2024-10-15T11:09:36.000Z</time>
      </trkpt>
      <trkpt lat="45.552497" lon="7.860932">
        <ele>1121.375</ele>
        <time>2024-10-15T11:09:38.000Z</time>
      </trkpt>
      <trkpt lat="45.55247" lon="7.86089">
        <ele>1121.255</ele>
        <time>2024-10-15T11:09:40.000Z</time>
      </trkpt>
      <trkpt lat="45.552457" lon="7.860868">
        <ele>1121.07007</ele>
        <time>2024-10-15T11:09:41.000Z</time>
      </trkpt>
      <trkpt lat="45.552438" lon="7.86083">
        <ele>1120.86011</ele>
        <time>2024-10-15T11:09:43.000Z</time>
      </trkpt>
      <trkpt lat="45.552423" lon="7.860797">
        <ele>1120.57007</ele>
        <time>2024-10-15T11:09:45.000Z</time>
      </trkpt>
      <trkpt lat="45.552412" lon="7.860765">
        <ele>1120.21997</ele>
        <time>2024-10-15T11:09:47.000Z</time>
      </trkpt>
      <trkpt lat="45.55239" lon="7.860735">
        <ele>1119.88501</ele>
        <time>2024-10-15T11:09:49.000Z</time>
      </trkpt>
      <trkpt lat="45.552373" lon="7.860705">
        <ele>1119.52502</ele>
        <time>2024-10-15T11:09:51.000Z</time>
      </trkpt>
      <trkpt lat="45.552357" lon="7.860672">
        <ele>1119.13</ele>
        <time>2024-10-15T11:09:53.000Z</time>
      </trkpt>
      <trkpt lat="45.552337" lon="7.860642">
        <ele>1118.67993</ele>
        <time>2024-10-15T11:09:55.000Z</time>
      </trkpt>
      <trkpt lat="45.55231" lon="7.86061">
        <ele>1118.18994</ele>
        <time>2024-10-15T11:09:57.000Z</time>
      </trkpt>
      <trkpt lat="45.552283" lon="7.860582">
        <ele>1117.67004</ele>
        <time>2024-10-15T11:09:59.000Z</time>
      </trkpt>
      <trkpt lat="45.552258" lon="7.86056">
        <ele>1117.15503</ele>
        <time>2024-10-15T11:10:01.000Z</time>
      </trkpt>
      <trkpt lat="45.552238" lon="7.86054">
        <ele>1116.67004</ele>
        <time>2024-10-15T11:10:03.000Z</time>
      </trkpt>
      <trkpt lat="45.552213" lon="7.860523">
        <ele>1116.19507</ele>
        <time>2024-10-15T11:10:05.000Z</time>
      </trkpt>
      <trkpt lat="45.552193" lon="7.860508">
        <ele>1115.745</ele>
        <time>2024-10-15T11:10:07.000Z</time>
      </trkpt>
      <trkpt lat="45.552173" lon="7.860492">
        <ele>1115.32007</ele>
        <time>2024-10-15T11:10:09.000Z</time>
      </trkpt>
      <trkpt lat="45.552153" lon="7.860475">
        <ele>1114.97498</ele>
        <time>2024-10-15T11:10:11.000Z</time>
      </trkpt>
      <trkpt lat="45.552137" lon="7.860458">
        <ele>1114.70996</ele>
        <time>2024-10-15T11:10:13.000Z</time>
      </trkpt>
      <trkpt lat="45.552112" lon="7.860435">
        <ele>1114.5249</ele>
        <time>2024-10-15T11:10:15.000Z</time>
      </trkpt>
      <trkpt lat="45.552083" lon="7.860408">
        <ele>1114.35486</ele>
        <time>2024-10-15T11:10:17.000Z</time>
      </trkpt>
      <trkpt lat="45.552057" lon="7.860388">
        <ele>1114.16492</ele>
        <time>2024-10-15T11:10:19.000Z</time>
      </trkpt>
      <trkpt lat="45.55204" lon="7.860373">
        <ele>1113.96997</ele>
        <time>2024-10-15T11:10:21.000Z</time>
      </trkpt>
      <trkpt lat="45.552012" lon="7.860355">
        <ele>1113.7749</ele>
        <time>2024-10-15T11:10:23.000Z</time>
      </trkpt>
      <trkpt lat="45.551983" lon="7.860338">
        <ele>1113.61987</ele>
        <time>2024-10-15T11:10:25.000Z</time>
      </trkpt>
      <trkpt lat="45.551968" lon="7.860322">
        <ele>1113.51489</ele>
        <time>2024-10-15T11:10:27.000Z</time>
      </trkpt>
      <trkpt lat="45.551947" lon="7.860298">
        <ele>1113.47986</ele>
        <time>2024-10-15T11:10:31.000Z</time>
      </trkpt>
      <trkpt lat="45.551928" lon="7.860268">
        <ele>1113.48499</ele>
        <time>2024-10-15T11:10:34.000Z</time>
      </trkpt>
      <trkpt lat="45.551915" lon="7.860242">
        <ele>1113.55005</ele>
        <time>2024-10-15T11:10:36.000Z</time>
      </trkpt>
      <trkpt lat="45.551903" lon="7.860222">
        <ele>1113.67004</ele>
        <time>2024-10-15T11:10:39.000Z</time>
      </trkpt>
      <trkpt lat="45.551887" lon="7.860198">
        <ele>1113.81506</ele>
        <time>2024-10-15T11:10:43.000Z</time>
      </trkpt>
      <trkpt lat="45.551887" lon="7.860168">
        <ele>1113.96997</ele>
        <time>2024-10-15T11:10:47.000Z</time>
      </trkpt>
      <trkpt lat="45.551882" lon="7.860142">
        <ele>1114.14001</ele>
        <time>2024-10-15T11:10:50.000Z</time>
      </trkpt>
      <trkpt lat="45.551858" lon="7.860122">
        <ele>1114.32007</ele>
        <time>2024-10-15T11:10:53.000Z</time>
      </trkpt>
      <trkpt lat="45.551845" lon="7.860102">
        <ele>1114.5</ele>
        <time>2024-10-15T11:10:55.000Z</time>
      </trkpt>
      <trkpt lat="45.551827" lon="7.86009">
        <ele>1114.625</ele>
        <time>2024-10-15T11:10:58.000Z</time>
      </trkpt>
      <trkpt lat="45.551808" lon="7.860075">
        <ele>1114.69495</ele>
        <time>2024-10-15T11:11:01.000Z</time>
      </trkpt>
      <trkpt lat="45.551805" lon="7.86004">
        <ele>1114.68994</ele>
        <time>2024-10-15T11:11:04.000Z</time>
      </trkpt>
      <trkpt lat="45.551805" lon="7.860008">
        <ele>1114.56494</ele>
        <time>2024-10-15T11:11:07.000Z</time>
      </trkpt>
      <trkpt lat="45.551823" lon="7.859992">
        <ele>1114.34998</ele>
        <time>2024-10-15T11:11:09.000Z</time>
      </trkpt>
      <trkpt lat="45.551842" lon="7.85998">
        <ele>1114.07996</ele>
        <time>2024-10-15T11:11:11.000Z</time>
      </trkpt>
      <trkpt lat="45.551858" lon="7.859968">
        <ele>1113.78992</ele>
        <time>2024-10-15T11:11:13.000Z</time>
      </trkpt>
      <trkpt lat="45.551875" lon="7.859957">
        <ele>1113.48499</ele>
        <time>2024-10-15T11:11:16.000Z</time>
      </trkpt>
      <trkpt lat="45.551893" lon="7.859967">
        <ele>1113.15503</ele>
        <time>2024-10-15T11:11:22.000Z</time>
      </trkpt>
      <trkpt lat="45.551922" lon="7.859957">
        <ele>1112.63501</ele>
        <time>2024-10-15T11:11:40.000Z</time>
      </trkpt>
      <trkpt lat="45.551943" lon="7.859917">
        <ele>1112.08997</ele>
        <time>2024-10-15T11:11:45.000Z</time>
      </trkpt>
      <trkpt lat="45.55197" lon="7.859888">
        <ele>1111.51001</ele>
        <time>2024-10-15T11:11:47.000Z</time>
      </trkpt>
      <trkpt lat="45.551987" lon="7.859873">
        <ele>1110.90991</ele>
        <time>2024-10-15T11:11:48.000Z</time>
      </trkpt>
      <trkpt lat="45.552005" lon="7.859857">
        <ele>1110.29492</ele>
        <time>2024-10-15T11:11:49.000Z</time>
      </trkpt>
      <trkpt lat="45.552033" lon="7.859838">
        <ele>1109.68994</ele>
        <time>2024-10-15T11:11:51.000Z</time>
      </trkpt>
      <trkpt lat="45.552057" lon="7.859837">
        <ele>1109.12488</ele>
        <time>2024-10-15T11:11:53.000Z</time>
      </trkpt>
      <trkpt lat="45.552077" lon="7.859843">
        <ele>1108.56995</ele>
        <time>2024-10-15T11:11:55.000Z</time>
      </trkpt>
      <trkpt lat="45.552103" lon="7.85984">
        <ele>1108.03491</ele>
        <time>2024-10-15T11:11:58.000Z</time>
      </trkpt>
      <trkpt lat="45.552135" lon="7.85984">
        <ele>1107.51001</ele>
        <time>2024-10-15T11:12:00.000Z</time>
      </trkpt>
      <trkpt lat="45.552165" lon="7.859837">
        <ele>1106.98499</ele>
        <time>2024-10-15T11:12:02.000Z</time>
      </trkpt>
      <trkpt lat="45.552193" lon="7.85983">
        <ele>1106.48499</ele>
        <time>2024-10-15T11:12:04.000Z</time>
      </trkpt>
      <trkpt lat="45.55222" lon="7.859833">
        <ele>1106.0</ele>
        <time>2024-10-15T11:12:06.000Z</time>
      </trkpt>
      <trkpt lat="45.55225" lon="7.859842">
        <ele>1105.51501</ele>
        <time>2024-10-15T11:12:08.000Z</time>
      </trkpt>
      <trkpt lat="45.552272" lon="7.859853">
        <ele>1105.08508</ele>
        <time>2024-10-15T11:12:09.000Z</time>
      </trkpt>
      <trkpt lat="45.552297" lon="7.859863">
        <ele>1104.71997</ele>
        <time>2024-10-15T11:12:11.000Z</time>
      </trkpt>
      <trkpt lat="45.55232" lon="7.859872">
        <ele>1104.40503</ele>
        <time>2024-10-15T11:12:13.000Z</time>
      </trkpt>
      <trkpt lat="45.552345" lon="7.859872">
        <ele>1104.17017</ele>
        <time>2024-10-15T11:12:15.000Z</time>
      </trkpt>
      <trkpt lat="45.552372" lon="7.859877">
        <ele>1103.95007</ele>
        <time>2024-10-15T11:12:17.000Z</time>
      </trkpt>
      <trkpt lat="45.552392" lon="7.859882">
        <ele>1103.745</ele>
        <time>2024-10-15T11:12:19.000Z</time>
      </trkpt>
      <trkpt lat="45.552417" lon="7.859893">
        <ele>1103.72998</ele>
        <time>2024-10-15T11:12:22.000Z</time>
      </trkpt>
      <trkpt lat="45.552438" lon="7.859905">
        <ele>1103.71997</ele>
        <time>2024-10-15T11:12:24.000Z</time>
      </trkpt>
      <trkpt lat="45.552462" lon="7.859907">
        <ele>1103.68506</ele>
        <time>2024-10-15T11:12:26.000Z</time>
      </trkpt>
      <trkpt lat="45.552492" lon="7.859908">
        <ele>1103.67993</ele>
        <time>2024-10-15T11:12:28.000Z</time>
      </trkpt>
      <trkpt lat="45.552517" lon="7.859915">
        <ele>1103.70496</ele>
        <time>2024-10-15T11:12:30.000Z</time>
      </trkpt>
      <trkpt lat="45.552538" lon="7.859927">
        <ele>1103.72998</ele>
        <time>2024-10-15T11:12:32.000Z</time>
      </trkpt>
      <trkpt lat="45.552563" lon="7.859947">
        <ele>1103.69006</ele>
        <time>2024-10-15T11:12:34.000Z</time>
      </trkpt>
      <trkpt lat="45.552587" lon="7.85995">
        <ele>1103.67993</ele>
        <time>2024-10-15T11:12:36.000Z</time>
      </trkpt>
      <trkpt lat="45.552608" lon="7.859953">
        <ele>1103.68494</ele>
        <time>2024-10-15T11:12:38.000Z</time>
      </trkpt>
      <trkpt lat="45.552637" lon="7.859958">
        <ele>1103.73499</ele>
        <time>2024-10-15T11:12:40.000Z</time>
      </trkpt>
      <trkpt lat="45.55266" lon="7.859963">
        <ele>1103.7749</ele>
        <time>2024-10-15T11:12:42.000Z</time>
      </trkpt>
      <trkpt lat="45.552688" lon="7.85997">
        <ele>1103.80493</ele>
        <time>2024-10-15T11:12:44.000Z</time>
      </trkpt>
      <trkpt lat="45.552713" lon="7.859975">
        <ele>1103.87488</ele>
        <time>2024-10-15T11:12:46.000Z</time>
      </trkpt>
      <trkpt lat="45.552738" lon="7.85998">
        <ele>1103.93481</ele>
        <time>2024-10-15T11:12:48.000Z</time>
      </trkpt>
      <trkpt lat="45.552762" lon="7.859988">
        <ele>1103.97986</ele>
        <time>2024-10-15T11:12:50.000Z</time>
      </trkpt>
      <trkpt lat="45.552787" lon="7.859987">
        <ele>1103.98999</ele>
        <time>2024-10-15T11:12:52.000Z</time>
      </trkpt>
      <trkpt lat="45.552812" lon="7.859978">
        <ele>1103.94495</ele>
        <time>2024-10-15T11:12:54.000Z</time>
      </trkpt>
      <trkpt lat="45.552838" lon="7.859973">
        <ele>1103.80493</ele>
        <time>2024-10-15T11:12:56.000Z</time>
      </trkpt>
      <trkpt lat="45.552857" lon="7.859972">
        <ele>1103.61987</ele>
        <time>2024-10-15T11:12:58.000Z</time>
      </trkpt>
      <trkpt lat="45.552882" lon="7.859963">
        <ele>1103.45496</ele>
        <time>2024-10-15T11:13:00.000Z</time>
      </trkpt>
      <trkpt lat="45.552898" lon="7.859945">
        <ele>1103.255</ele>
        <time>2024-10-15T11:13:02.000Z</time>
      </trkpt>
      <trkpt lat="45.552918" lon="7.85993">
        <ele>1103.08496</ele>
        <time>2024-10-15T11:13:04.000Z</time>
      </trkpt>
      <trkpt lat="45.552932" lon="7.859898">
        <ele>1102.93994</ele>
        <time>2024-10-15T11:13:06.000Z</time>
      </trkpt>
      <trkpt lat="45.55294" lon="7.859868">
        <ele>1102.82007</ele>
        <time>2024-10-15T11:13:08.000Z</time>
      </trkpt>
      <trkpt lat="45.552942" lon="7.859835">
        <ele>1102.70007</ele>
        <time>2024-10-15T11:13:10.000Z</time>
      </trkpt>
      <trkpt lat="45.552943" lon="7.859802">
        <ele>1102.58508</ele>
        <time>2024-10-15T11:13:12.000Z</time>
      </trkpt>
      <trkpt lat="45.552938" lon="7.859772">
        <ele>1102.5</ele>
        <time>2024-10-15T11:13:14.000Z</time>
      </trkpt>
      <trkpt lat="45.55292" lon="7.859755">
        <ele>1102.37</ele>
        <time>2024-10-15T11:13:16.000Z</time>
      </trkpt>
      <trkpt lat="45.552908" lon="7.859732">
        <ele>1102.18506</ele>
        <time>2024-10-15T11:13:18.000Z</time>
      </trkpt>
      <trkpt lat="45.552897" lon="7.859705">
        <ele>1101.91504</ele>
        <time>2024-10-15T11:13:20.000Z</time>
      </trkpt>
      <trkpt lat="45.552878" lon="7.859675">
        <ele>1101.61011</ele>
        <time>2024-10-15T11:13:22.000Z</time>
      </trkpt>
      <trkpt lat="45.552867" lon="7.859643">
        <ele>1101.31006</ele>
        <time>2024-10-15T11:13:24.000Z</time>
      </trkpt>
      <trkpt lat="45.552852" lon="7.859618">
        <ele>1100.94507</ele>
        <time>2024-10-15T11:13:26.000Z</time>
      </trkpt>
      <trkpt lat="45.552833" lon="7.859605">
        <ele>1100.59497</ele>
        <time>2024-10-15T11:13:28.000Z</time>
      </trkpt>
      <trkpt lat="45.552812" lon="7.859603">
        <ele>1100.23511</ele>
        <time>2024-10-15T11:13:30.000Z</time>
      </trkpt>
      <trkpt lat="45.552792" lon="7.859603">
        <ele>1099.90503</ele>
        <time>2024-10-15T11:13:32.000Z</time>
      </trkpt>
      <trkpt lat="45.552773" lon="7.859583">
        <ele>1099.63989</ele>
        <time>2024-10-15T11:13:34.000Z</time>
      </trkpt>
      <trkpt lat="45.552748" lon="7.85956">
        <ele>1099.46497</ele>
        <time>2024-10-15T11:13:36.000Z</time>
      </trkpt>
      <trkpt lat="45.552732" lon="7.859542">
        <ele>1099.37488</ele>
        <time>2024-10-15T11:13:37.000Z</time>
      </trkpt>
      <trkpt lat="45.552718" lon="7.859523">
        <ele>1099.30981</ele>
        <time>2024-10-15T11:13:38.000Z</time>
      </trkpt>
      <trkpt lat="45.552697" lon="7.859493">
        <ele>1099.29993</ele>
        <time>2024-10-15T11:13:40.000Z</time>
      </trkpt>
      <trkpt lat="45.552675" lon="7.859468">
        <ele>1099.28979</ele>
        <time>2024-10-15T11:13:42.000Z</time>
      </trkpt>
      <trkpt lat="45.552653" lon="7.859448">
        <ele>1099.27478</ele>
        <time>2024-10-15T11:13:44.000Z</time>
      </trkpt>
      <trkpt lat="45.552627" lon="7.859432">
        <ele>1099.21472</ele>
        <time>2024-10-15T11:13:46.000Z</time>
      </trkpt>
      <trkpt lat="45.552602" lon="7.85942">
        <ele>1099.12964</ele>
        <time>2024-10-15T11:13:48.000Z</time>
      </trkpt>
      <trkpt lat="45.552578" lon="7.859405">
        <ele>1099.01477</ele>
        <time>2024-10-15T11:13:50.000Z</time>
      </trkpt>
      <trkpt lat="45.552547" lon="7.859383">
        <ele>1098.86987</ele>
        <time>2024-10-15T11:13:52.000Z</time>
      </trkpt>
      <trkpt lat="45.552532" lon="7.859367">
        <ele>1098.71985</ele>
        <time>2024-10-15T11:13:53.000Z</time>
      </trkpt>
      <trkpt lat="45.552505" lon="7.859353">
        <ele>1098.56982</ele>
        <time>2024-10-15T11:13:55.000Z</time>
      </trkpt>
      <trkpt lat="45.552472" lon="7.859345">
        <ele>1098.4198</ele>
        <time>2024-10-15T11:13:57.000Z</time>
      </trkpt>
      <trkpt lat="45.552452" lon="7.859337">
        <ele>1098.2998</ele>
        <time>2024-10-15T11:13:58.000Z</time>
      </trkpt>
      <trkpt lat="45.552418" lon="7.85932">
        <ele>1098.12976</ele>
        <time>2024-10-15T11:14:00.000Z</time>
      </trkpt>
      <trkpt lat="45.552403" lon="7.859305">
        <ele>1097.96985</ele>
        <time>2024-10-15T11:14:01.000Z</time>
      </trkpt>
      <trkpt lat="45.552385" lon="7.859277">
        <ele>1097.77991</ele>
        <time>2024-10-15T11:14:03.000Z</time>
      </trkpt>
      <trkpt lat="45.552362" lon="7.859242">
        <ele>1097.55981</ele>
        <time>2024-10-15T11:14:05.000Z</time>
      </trkpt>
      <trkpt lat="45.552355" lon="7.859203">
        <ele>1097.2749</ele>
        <time>2024-10-15T11:14:07.000Z</time>
      </trkpt>
      <trkpt lat="45.552343" lon="7.859167">
        <ele>1096.90491</ele>
        <time>2024-10-15T11:14:09.000Z</time>
      </trkpt>
      <trkpt lat="45.552335" lon="7.859132">
        <ele>1096.48486</ele>
        <time>2024-10-15T11:14:11.000Z</time>
      </trkpt>
      <trkpt lat="45.552325" lon="7.859093">
        <ele>1096.04492</ele>
        <time>2024-10-15T11:14:13.000Z</time>
      </trkpt>
      <trkpt lat="45.552308" lon="7.859058">
        <ele>1095.57996</ele>
        <time>2024-10-15T11:14:15.000Z</time>
      </trkpt>
      <trkpt lat="45.552298" lon="7.859032">
        <ele>1095.09497</ele>
        <time>2024-10-15T11:14:17.000Z</time>
      </trkpt>
      <trkpt lat="45.552287" lon="7.858997">
        <ele>1094.63013</ele>
        <time>2024-10-15T11:14:19.000Z</time>
      </trkpt>
      <trkpt lat="45.552262" lon="7.85896">
        <ele>1094.19019</ele>
        <time>2024-10-15T11:14:21.000Z</time>
      </trkpt>
      <trkpt lat="45.552248" lon="7.858935">
        <ele>1093.75024</ele>
        <time>2024-10-15T11:14:22.000Z</time>
      </trkpt>
      <trkpt lat="45.552235" lon="7.858902">
        <ele>1093.30017</ele>
        <time>2024-10-15T11:14:23.000Z</time>
      </trkpt>
      <trkpt lat="45.552225" lon="7.858872">
        <ele>1092.85022</ele>
        <time>2024-10-15T11:14:24.000Z</time>
      </trkpt>
      <trkpt lat="45.552218" lon="7.858838">
        <ele>1092.46021</ele>
        <time>2024-10-15T11:14:25.000Z</time>
      </trkpt>
      <trkpt lat="45.552217" lon="7.858808">
        <ele>1092.10522</ele>
        <time>2024-10-15T11:14:26.000Z</time>
      </trkpt>
      <trkpt lat="45.55222" lon="7.858768">
        <ele>1091.82007</ele>
        <time>2024-10-15T11:14:28.000Z</time>
      </trkpt>
      <trkpt lat="45.552235" lon="7.858725">
        <ele>1091.62524</ele>
        <time>2024-10-15T11:14:30.000Z</time>
      </trkpt>
      <trkpt lat="45.552247" lon="7.858682">
        <ele>1091.44519</ele>
        <time>2024-10-15T11:14:32.000Z</time>
      </trkpt>
      <trkpt lat="45.552257" lon="7.858655">
        <ele>1091.30518</ele>
        <time>2024-10-15T11:14:33.000Z</time>
      </trkpt>
      <trkpt lat="45.552273" lon="7.858615">
        <ele>1091.15015</ele>
        <time>2024-10-15T11:14:35.000Z</time>
      </trkpt>
      <trkpt lat="45.552293" lon="7.858582">
        <ele>1090.97009</ele>
        <time>2024-10-15T11:14:37.000Z</time>
      </trkpt>
      <trkpt lat="45.55231" lon="7.858553">
        <ele>1090.77014</ele>
        <time>2024-10-15T11:14:39.000Z</time>
      </trkpt>
      <trkpt lat="45.552317" lon="7.85851">
        <ele>1090.57507</ele>
        <time>2024-10-15T11:14:41.000Z</time>
      </trkpt>
      <trkpt lat="45.552328" lon="7.858467">
        <ele>1090.36511</ele>
        <time>2024-10-15T11:14:43.000Z</time>
      </trkpt>
      <trkpt lat="45.552337" lon="7.858425">
        <ele>1090.14526</ele>
        <time>2024-10-15T11:14:45.000Z</time>
      </trkpt>
      <trkpt lat="45.55234" lon="7.858387">
        <ele>1089.94519</ele>
        <time>2024-10-15T11:14:47.000Z</time>
      </trkpt>
      <trkpt lat="45.552353" lon="7.858358">
        <ele>1089.72522</ele>
        <time>2024-10-15T11:14:49.000Z</time>
      </trkpt>
      <trkpt lat="45.552362" lon="7.858323">
        <ele>1089.52014</ele>
        <time>2024-10-15T11:14:51.000Z</time>
      </trkpt>
      <trkpt lat="45.552375" lon="7.858298">
        <ele>1089.28503</ele>
        <time>2024-10-15T11:14:53.000Z</time>
      </trkpt>
      <trkpt lat="45.552393" lon="7.85826">
        <ele>1089.02502</ele>
        <time>2024-10-15T11:14:55.000Z</time>
      </trkpt>
      <trkpt lat="45.552407" lon="7.858225">
        <ele>1088.76489</ele>
        <time>2024-10-15T11:14:57.000Z</time>
      </trkpt>
      <trkpt lat="45.552423" lon="7.858202">
        <ele>1088.51489</ele>
        <time>2024-10-15T11:14:59.000Z</time>
      </trkpt>
      <trkpt lat="45.552445" lon="7.85818">
        <ele>1088.29492</ele>
        <time>2024-10-15T11:15:01.000Z</time>
      </trkpt>
      <trkpt lat="45.552467" lon="7.858163">
        <ele>1088.05493</ele>
        <time>2024-10-15T11:15:03.000Z</time>
      </trkpt>
      <trkpt lat="45.552483" lon="7.858145">
        <ele>1087.79993</ele>
        <time>2024-10-15T11:15:05.000Z</time>
      </trkpt>
      <trkpt lat="45.552497" lon="7.858113">
        <ele>1087.50488</ele>
        <time>2024-10-15T11:15:08.000Z</time>
      </trkpt>
      <trkpt lat="45.552522" lon="7.858087">
        <ele>1087.16479</ele>
        <time>2024-10-15T11:15:10.000Z</time>
      </trkpt>
      <trkpt lat="45.552545" lon="7.858062">
        <ele>1086.81482</ele>
        <time>2024-10-15T11:15:12.000Z</time>
      </trkpt>
      <trkpt lat="45.55257" lon="7.858048">
        <ele>1086.48987</ele>
        <time>2024-10-15T11:15:14.000Z</time>
      </trkpt>
      <trkpt lat="45.552588" lon="7.858043">
        <ele>1086.21985</ele>
        <time>2024-10-15T11:15:15.000Z</time>
      </trkpt>
      <trkpt lat="45.552607" lon="7.858045">
        <ele>1086.02991</ele>
        <time>2024-10-15T11:15:16.000Z</time>
      </trkpt>
      <trkpt lat="45.552625" lon="7.858047">
        <ele>1085.8999</ele>
        <time>2024-10-15T11:15:17.000Z</time>
      </trkpt>
      <trkpt lat="45.552648" lon="7.85805">
        <ele>1085.79492</ele>
        <time>2024-10-15T11:15:19.000Z</time>
      </trkpt>
      <trkpt lat="45.55267" lon="7.858035">
        <ele>1085.74487</ele>
        <time>2024-10-15T11:15:21.000Z</time>
      </trkpt>
      <trkpt lat="45.552685" lon="7.858015">
        <ele>1085.74988</ele>
        <time>2024-10-15T11:15:23.000Z</time>
      </trkpt>
      <trkpt lat="45.552703" lon="7.858003">
        <ele>1085.73486</ele>
        <time>2024-10-15T11:15:25.000Z</time>
      </trkpt>
      <trkpt lat="45.552715" lon="7.85798">
        <ele>1085.72986</ele>
        <time>2024-10-15T11:15:27.000Z</time>
      </trkpt>
      <trkpt lat="45.552725" lon="7.857953">
        <ele>1085.70996</ele>
        <time>2024-10-15T11:15:30.000Z</time>
      </trkpt>
      <trkpt lat="45.552708" lon="7.85794">
        <ele>1085.67004</ele>
        <time>2024-10-15T11:15:32.000Z</time>
      </trkpt>
      <trkpt lat="45.55271" lon="7.85791">
        <ele>1085.52515</ele>
        <time>2024-10-15T11:15:38.000Z</time>
      </trkpt>
      <trkpt lat="45.552718" lon="7.857882">
        <ele>1085.38013</ele>
        <time>2024-10-15T11:15:40.000Z</time>
      </trkpt>
      <trkpt lat="45.55273" lon="7.857857">
        <ele>1085.23511</ele>
        <time>2024-10-15T11:15:42.000Z</time>
      </trkpt>
      <trkpt lat="45.552742" lon="7.85783">
        <ele>1085.08008</ele>
        <time>2024-10-15T11:15:44.000Z</time>
      </trkpt>
      <trkpt lat="45.552755" lon="7.857805">
        <ele>1084.95007</ele>
        <time>2024-10-15T11:15:49.000Z</time>
      </trkpt>
      <trkpt lat="45.552765" lon="7.857783">
        <ele>1084.81506</ele>
        <time>2024-10-15T11:15:53.000Z</time>
      </trkpt>
      <trkpt lat="45.55278" lon="7.857768">
        <ele>1084.67017</ele>
        <time>2024-10-15T11:15:56.000Z</time>
      </trkpt>
      <trkpt lat="45.552787" lon="7.857742">
        <ele>1084.48511</ele>
        <time>2024-10-15T11:16:01.000Z</time>
      </trkpt>
      <trkpt lat="45.552793" lon="7.857703">
        <ele>1084.26013</ele>
        <time>2024-10-15T11:16:04.000Z</time>
      </trkpt>
      <trkpt lat="45.5528" lon="7.857672">
        <ele>1083.97021</ele>
        <time>2024-10-15T11:16:07.000Z</time>
      </trkpt>
      <trkpt lat="45.552805" lon="7.857637">
        <ele>1083.63513</ele>
        <time>2024-10-15T11:16:12.000Z</time>
      </trkpt>
      <trkpt lat="45.5528" lon="7.857605">
        <ele>1083.28516</ele>
        <time>2024-10-15T11:16:16.000Z</time>
      </trkpt>
      <trkpt lat="45.552792" lon="7.857572">
        <ele>1082.86011</ele>
        <time>2024-10-15T11:16:20.000Z</time>
      </trkpt>
      <trkpt lat="45.552785" lon="7.857537">
        <ele>1082.39014</ele>
        <time>2024-10-15T11:16:23.000Z</time>
      </trkpt>
      <trkpt lat="45.552783" lon="7.85751">
        <ele>1081.89514</ele>
        <time>2024-10-15T11:16:26.000Z</time>
      </trkpt>
      <trkpt lat="45.552783" lon="7.857482">
        <ele>1081.34509</ele>
        <time>2024-10-15T11:16:29.000Z</time>
      </trkpt>
      <trkpt lat="45.552785" lon="7.857445">
        <ele>1080.75012</ele>
        <time>2024-10-15T11:16:32.000Z</time>
      </trkpt>
      <trkpt lat="45.552782" lon="7.85741">
        <ele>1080.14502</ele>
        <time>2024-10-15T11:16:34.000Z</time>
      </trkpt>
      <trkpt lat="45.552778" lon="7.857367">
        <ele>1079.495</ele>
        <time>2024-10-15T11:16:37.000Z</time>
      </trkpt>
      <trkpt lat="45.552777" lon="7.857335">
        <ele>1078.83496</ele>
        <time>2024-10-15T11:16:39.000Z</time>
      </trkpt>
      <trkpt lat="45.55278" lon="7.857308">
        <ele>1078.24487</ele>
        <time>2024-10-15T11:16:41.000Z</time>
      </trkpt>
      <trkpt lat="45.552788" lon="7.857277">
        <ele>1077.60498</ele>
        <time>2024-10-15T11:16:44.000Z</time>
      </trkpt>
      <trkpt lat="45.552797" lon="7.857248">
        <ele>1076.92993</ele>
        <time>2024-10-15T11:16:46.000Z</time>
      </trkpt>
      <trkpt lat="45.552803" lon="7.857215">
        <ele>1076.19995</ele>
        <time>2024-10-15T11:16:49.000Z</time>
      </trkpt>
      <trkpt lat="45.552808" lon="7.857178">
        <ele>1075.38501</ele>
        <time>2024-10-15T11:16:52.000Z</time>
      </trkpt>
      <trkpt lat="45.55282" lon="7.85715">
        <ele>1074.54517</ele>
        <time>2024-10-15T11:16:55.000Z</time>
      </trkpt>
      <trkpt lat="45.552838" lon="7.857122">
        <ele>1073.70508</ele>
        <time>2024-10-15T11:16:57.000Z</time>
      </trkpt>
      <trkpt lat="45.552847" lon="7.85709">
        <ele>1072.91504</ele>
        <time>2024-10-15T11:17:00.000Z</time>
      </trkpt>
      <trkpt lat="45.552863" lon="7.85707">
        <ele>1072.18005</ele>
        <time>2024-10-15T11:17:02.000Z</time>
      </trkpt>
      <trkpt lat="45.552887" lon="7.857067">
        <ele>1071.44006</ele>
        <time>2024-10-15T11:17:06.000Z</time>
      </trkpt>
      <trkpt lat="45.552903" lon="7.857053">
        <ele>1070.71008</ele>
        <time>2024-10-15T11:17:09.000Z</time>
      </trkpt>
      <trkpt lat="45.552907" lon="7.857027">
        <ele>1069.97498</ele>
        <time>2024-10-15T11:17:11.000Z</time>
      </trkpt>
      <trkpt lat="45.552925" lon="7.857">
        <ele>1069.31494</ele>
        <time>2024-10-15T11:17:14.000Z</time>
      </trkpt>
      <trkpt lat="45.552942" lon="7.856972">
        <ele>1068.71497</ele>
        <time>2024-10-15T11:17:17.000Z</time>
      </trkpt>
      <trkpt lat="45.552945" lon="7.85693">
        <ele>1068.17505</ele>
        <time>2024-10-15T11:17:20.000Z</time>
      </trkpt>
      <trkpt lat="45.55293" lon="7.856903">
        <ele>1067.65503</ele>
        <time>2024-10-15T11:17:22.000Z</time>
      </trkpt>
      <trkpt lat="45.552907" lon="7.856898">
        <ele>1067.19507</ele>
        <time>2024-10-15T11:17:24.000Z</time>
      </trkpt>
      <trkpt lat="45.552887" lon="7.856913">
        <ele>1066.76501</ele>
        <time>2024-10-15T11:17:27.000Z</time>
      </trkpt>
      <trkpt lat="45.552868" lon="7.856917">
        <ele>1066.34497</ele>
        <time>2024-10-15T11:17:31.000Z</time>
      </trkpt>
      <trkpt lat="45.552855" lon="7.856892">
        <ele>1065.91504</ele>
        <time>2024-10-15T11:17:34.000Z</time>
      </trkpt>
      <trkpt lat="45.55285" lon="7.856857">
        <ele>1065.46509</ele>
        <time>2024-10-15T11:17:38.000Z</time>
      </trkpt>
      <trkpt lat="45.552842" lon="7.856828">
        <ele>1065.0</ele>
        <time>2024-10-15T11:17:42.000Z</time>
      </trkpt>
      <trkpt lat="45.552847" lon="7.856798">
        <ele>1064.58508</ele>
        <time>2024-10-15T11:17:44.000Z</time>
      </trkpt>
      <trkpt lat="45.552855" lon="7.856765">
        <ele>1064.22498</ele>
        <time>2024-10-15T11:17:46.000Z</time>
      </trkpt>
      <trkpt lat="45.552857" lon="7.856737">
        <ele>1063.94495</ele>
        <time>2024-10-15T11:17:48.000Z</time>
      </trkpt>
      <trkpt lat="45.552857" lon="7.856703">
        <ele>1063.70984</ele>
        <time>2024-10-15T11:17:51.000Z</time>
      </trkpt>
      <trkpt lat="45.552858" lon="7.856673">
        <ele>1063.48486</ele>
        <time>2024-10-15T11:17:54.000Z</time>
      </trkpt>
      <trkpt lat="45.552867" lon="7.856645">
        <ele>1063.24988</ele>
        <time>2024-10-15T11:17:57.000Z</time>
      </trkpt>
      <trkpt lat="45.55288" lon="7.856627">
        <ele>1063.05981</ele>
        <time>2024-10-15T11:18:00.000Z</time>
      </trkpt>
      <trkpt lat="45.552892" lon="7.856603">
        <ele>1062.91992</ele>
        <time>2024-10-15T11:18:04.000Z</time>
      </trkpt>
      <trkpt lat="45.552898" lon="7.856572">
        <ele>1062.755</ele>
        <time>2024-10-15T11:18:08.000Z</time>
      </trkpt>
      <trkpt lat="45.552895" lon="7.856527">
        <ele>1062.57007</ele>
        <time>2024-10-15T11:18:15.000Z</time>
      </trkpt>
      <trkpt lat="45.552893" lon="7.856497">
        <ele>1062.37</ele>
        <time>2024-10-15T11:18:18.000Z</time>
      </trkpt>
      <trkpt lat="45.552888" lon="7.856468">
        <ele>1062.15503</ele>
        <time>2024-10-15T11:18:21.000Z</time>
      </trkpt>
      <trkpt lat="45.552885" lon="7.85644">
        <ele>1061.91504</ele>
        <time>2024-10-15T11:18:24.000Z</time>
      </trkpt>
      <trkpt lat="45.55288" lon="7.85641">
        <ele>1061.69006</ele>
        <time>2024-10-15T11:18:29.000Z</time>
      </trkpt>
      <trkpt lat="45.552887" lon="7.856377">
        <ele>1061.42505</ele>
        <time>2024-10-15T11:18:33.000Z</time>
      </trkpt>
      <trkpt lat="45.55288" lon="7.856348">
        <ele>1061.13</ele>
        <time>2024-10-15T11:18:35.000Z</time>
      </trkpt>
      <trkpt lat="45.552875" lon="7.856323">
        <ele>1060.86499</ele>
        <time>2024-10-15T11:18:37.000Z</time>
      </trkpt>
      <trkpt lat="45.552868" lon="7.856295">
        <ele>1060.57996</ele>
        <time>2024-10-15T11:18:40.000Z</time>
      </trkpt>
      <trkpt lat="45.552868" lon="7.856268">
        <ele>1060.32007</ele>
        <time>2024-10-15T11:18:42.000Z</time>
      </trkpt>
      <trkpt lat="45.55288" lon="7.85624">
        <ele>1060.09009</ele>
        <time>2024-10-15T11:18:45.000Z</time>
      </trkpt>
      <trkpt lat="45.55289" lon="7.856215">
        <ele>1059.79004</ele>
        <time>2024-10-15T11:18:49.000Z</time>
      </trkpt>
      <trkpt lat="45.55289" lon="7.856187">
        <ele>1059.41003</ele>
        <time>2024-10-15T11:18:53.000Z</time>
      </trkpt>
      <trkpt lat="45.552885" lon="7.856152">
        <ele>1058.93506</ele>
        <time>2024-10-15T11:18:56.000Z</time>
      </trkpt>
      <trkpt lat="45.552888" lon="7.856118">
        <ele>1058.42017</ele>
        <time>2024-10-15T11:18:59.000Z</time>
      </trkpt>
      <trkpt lat="45.552895" lon="7.856093">
        <ele>1057.91016</ele>
        <time>2024-10-15T11:19:01.000Z</time>
      </trkpt>
      <trkpt lat="45.552897" lon="7.856067">
        <ele>1057.41016</ele>
        <time>2024-10-15T11:19:03.000Z</time>
      </trkpt>
      <trkpt lat="45.552887" lon="7.856033">
        <ele>1056.8302</ele>
        <time>2024-10-15T11:19:06.000Z</time>
      </trkpt>
      <trkpt lat="45.552887" lon="7.856005">
        <ele>1056.24512</ele>
        <time>2024-10-15T11:19:08.000Z</time>
      </trkpt>
      <trkpt lat="45.552882" lon="7.855972">
        <ele>1055.71008</ele>
        <time>2024-10-15T11:19:11.000Z</time>
      </trkpt>
      <trkpt lat="45.552882" lon="7.855942">
        <ele>1055.21997</ele>
        <time>2024-10-15T11:19:14.000Z</time>
      </trkpt>
      <trkpt lat="45.552875" lon="7.855912">
        <ele>1054.745</ele>
        <time>2024-10-15T11:19:16.000Z</time>
      </trkpt>
      <trkpt lat="45.552862" lon="7.85589">
        <ele>1054.28992</ele>
        <time>2024-10-15T11:19:18.000Z</time>
      </trkpt>
      <trkpt lat="45.552862" lon="7.85585">
        <ele>1053.85498</ele>
        <time>2024-10-15T11:19:22.000Z</time>
      </trkpt>
      <trkpt lat="45.552853" lon="7.855812">
        <ele>1053.39502</ele>
        <time>2024-10-15T11:19:26.000Z</time>
      </trkpt>
      <trkpt lat="45.55285" lon="7.855773">
        <ele>1052.90503</ele>
        <time>2024-10-15T11:19:29.000Z</time>
      </trkpt>
      <trkpt lat="45.552833" lon="7.855748">
        <ele>1052.41016</ele>
        <time>2024-10-15T11:19:32.000Z</time>
      </trkpt>
      <trkpt lat="45.552817" lon="7.855738">
        <ele>1051.86011</ele>
        <time>2024-10-15T11:19:36.000Z</time>
      </trkpt>
      <trkpt lat="45.552798" lon="7.855737">
        <ele>1051.27014</ele>
        <time>2024-10-15T11:19:40.000Z</time>
      </trkpt>
      <trkpt lat="45.552782" lon="7.85575">
        <ele>1050.64514</ele>
        <time>2024-10-15T11:19:44.000Z</time>
      </trkpt>
      <trkpt lat="45.552763" lon="7.85575">
        <ele>1050.03003</ele>
        <time>2024-10-15T11:19:47.000Z</time>
      </trkpt>
      <trkpt lat="45.552743" lon="7.855742">
        <ele>1049.44507</ele>
        <time>2024-10-15T11:19:49.000Z</time>
      </trkpt>
      <trkpt lat="45.552725" lon="7.855743">
        <ele>1048.91504</ele>
        <time>2024-10-15T11:19:52.000Z</time>
      </trkpt>
      <trkpt lat="45.552707" lon="7.855738">
        <ele>1048.38501</ele>
        <time>2024-10-15T11:19:57.000Z</time>
      </trkpt>
      <trkpt lat="45.552688" lon="7.855733">
        <ele>1047.86011</ele>
        <time>2024-10-15T11:20:00.000Z</time>
      </trkpt>
      <trkpt lat="45.552665" lon="7.85572">
        <ele>1047.32495</ele>
        <time>2024-10-15T11:20:03.000Z</time>
      </trkpt>
      <trkpt lat="45.552648" lon="7.85571">
        <ele>1046.7699</ele>
        <time>2024-10-15T11:20:05.000Z</time>
      </trkpt>
      <trkpt lat="45.55263" lon="7.855692">
        <ele>1046.23499</ele>
        <time>2024-10-15T11:20:08.000Z</time>
      </trkpt>
      <trkpt lat="45.552612" lon="7.855685">
        <ele>1045.67004</ele>
        <time>2024-10-15T11:20:11.000Z</time>
      </trkpt>
      <trkpt lat="45.552587" lon="7.855682">
        <ele>1045.06506</ele>
        <time>2024-10-15T11:20:14.000Z</time>
      </trkpt>
      <trkpt lat="45.552565" lon="7.855668">
        <ele>1044.43506</ele>
        <time>2024-10-15T11:20:17.000Z</time>
      </trkpt>
      <trkpt lat="45.552562" lon="7.85564">
        <ele>1043.79004</ele>
        <time>2024-10-15T11:20:20.000Z</time>
      </trkpt>
      <trkpt lat="45.552562" lon="7.855602">
        <ele>1043.07007</ele>
        <time>2024-10-15T11:20:23.000Z</time>
      </trkpt>
      <trkpt lat="45.55257" lon="7.855578">
        <ele>1042.29004</ele>
        <time>2024-10-15T11:20:25.000Z</time>
      </trkpt>
      <trkpt lat="45.55258" lon="7.855545">
        <ele>1041.46997</ele>
        <time>2024-10-15T11:20:27.000Z</time>
      </trkpt>
      <trkpt lat="45.552597" lon="7.855525">
        <ele>1040.60498</ele>
        <time>2024-10-15T11:20:30.000Z</time>
      </trkpt>
      <trkpt lat="45.55261" lon="7.8555">
        <ele>1039.67993</ele>
        <time>2024-10-15T11:20:33.000Z</time>
      </trkpt>
      <trkpt lat="45.552622" lon="7.855477">
        <ele>1038.70996</ele>
        <time>2024-10-15T11:20:35.000Z</time>
      </trkpt>
      <trkpt lat="45.552632" lon="7.855448">
        <ele>1037.77002</ele>
        <time>2024-10-15T11:20:37.000Z</time>
      </trkpt>
      <trkpt lat="45.552655" lon="7.855423">
        <ele>1036.83496</ele>
        <time>2024-10-15T11:20:39.000Z</time>
      </trkpt>
      <trkpt lat="45.552677" lon="7.855405">
        <ele>1035.89001</ele>
        <time>2024-10-15T11:20:41.000Z</time>
      </trkpt>
      <trkpt lat="45.552697" lon="7.855395">
        <ele>1034.89514</ele>
        <time>2024-10-15T11:20:43.000Z</time>
      </trkpt>
      <trkpt lat="45.552713" lon="7.855417">
        <ele>1033.88013</ele>
        <time>2024-10-15T11:20:48.000Z</time>
      </trkpt>
      <trkpt lat="45.552633" lon="7.855377">
        <ele>1033.26001</ele>
        <time>2024-10-15T11:23:11.000Z</time>
      </trkpt>
      <trkpt lat="45.552617" lon="7.85536">
        <ele>1032.57495</ele>
        <time>2024-10-15T11:23:14.000Z</time>
      </trkpt>
      <trkpt lat="45.55259" lon="7.855342">
        <ele>1031.81506</ele>
        <time>2024-10-15T11:23:27.000Z</time>
      </trkpt>
      <trkpt lat="45.552595" lon="7.855488">
        <ele>1031.06506</ele>
        <time>2024-10-15T11:23:47.000Z</time>
      </trkpt>
      <trkpt lat="45.55261" lon="7.855505">
        <ele>1030.30005</ele>
        <time>2024-10-15T11:23:51.000Z</time>
      </trkpt>
      <trkpt lat="45.552632" lon="7.855463">
        <ele>1029.53003</ele>
        <time>2024-10-15T11:24:00.000Z</time>
      </trkpt>
      <trkpt lat="45.552658" lon="7.85545">
        <ele>1028.76001</ele>
        <time>2024-10-15T11:24:02.000Z</time>
      </trkpt>
      <trkpt lat="45.552673" lon="7.855432">
        <ele>1028.01001</ele>
        <time>2024-10-15T11:24:04.000Z</time>
      </trkpt>
      <trkpt lat="45.552715" lon="7.855347">
        <ele>1027.28491</ele>
        <time>2024-10-15T11:24:15.000Z</time>
      </trkpt>
      <trkpt lat="45.55272" lon="7.855318">
        <ele>1026.60999</ele>
        <time>2024-10-15T11:24:17.000Z</time>
      </trkpt>
      <trkpt lat="45.55273" lon="7.855287">
        <ele>1025.95996</ele>
        <time>2024-10-15T11:24:21.000Z</time>
      </trkpt>
      <trkpt lat="45.552733" lon="7.85526">
        <ele>1025.40991</ele>
        <time>2024-10-15T11:24:23.000Z</time>
      </trkpt>
      <trkpt lat="45.552742" lon="7.855227">
        <ele>1024.91992</ele>
        <time>2024-10-15T11:24:30.000Z</time>
      </trkpt>
      <trkpt lat="45.55275" lon="7.855202">
        <ele>1024.50488</ele>
        <time>2024-10-15T11:24:33.000Z</time>
      </trkpt>
      <trkpt lat="45.552767" lon="7.855182">
        <ele>1024.15491</ele>
        <time>2024-10-15T11:24:36.000Z</time>
      </trkpt>
      <trkpt lat="45.552787" lon="7.855157">
        <ele>1023.80988</ele>
        <time>2024-10-15T11:24:39.000Z</time>
      </trkpt>
      <trkpt lat="45.552807" lon="7.855135">
        <ele>1023.46484</ele>
        <time>2024-10-15T11:24:42.000Z</time>
      </trkpt>
      <trkpt lat="45.552827" lon="7.855113">
        <ele>1023.1048</ele>
        <time>2024-10-15T11:24:45.000Z</time>
      </trkpt>
      <trkpt lat="45.552838" lon="7.855088">
        <ele>1022.75977</ele>
        <time>2024-10-15T11:24:48.000Z</time>
      </trkpt>
      <trkpt lat="45.552845" lon="7.855053">
        <ele>1022.41473</ele>
        <time>2024-10-15T11:24:51.000Z</time>
      </trkpt>
      <trkpt lat="45.552855" lon="7.855077">
        <ele>1021.74982</ele>
        <time>2024-10-15T11:25:12.000Z</time>
      </trkpt>
      <trkpt lat="45.552878" lon="7.855075">
        <ele>1021.19983</ele>
        <time>2024-10-15T11:25:18.000Z</time>
      </trkpt>
      <trkpt lat="45.552897" lon="7.855068">
        <ele>1020.72479</ele>
        <time>2024-10-15T11:25:20.000Z</time>
      </trkpt>
      <trkpt lat="45.552918" lon="7.855047">
        <ele>1020.25488</ele>
        <time>2024-10-15T11:25:23.000Z</time>
      </trkpt>
      <trkpt lat="45.552937" lon="7.85503">
        <ele>1019.77991</ele>
        <time>2024-10-15T11:25:25.000Z</time>
      </trkpt>
      <trkpt lat="45.552962" lon="7.855013">
        <ele>1019.30487</ele>
        <time>2024-10-15T11:25:27.000Z</time>
      </trkpt>
      <trkpt lat="45.55299" lon="7.854988">
        <ele>1018.79492</ele>
        <time>2024-10-15T11:25:29.000Z</time>
      </trkpt>
      <trkpt lat="45.553015" lon="7.854975">
        <ele>1018.20996</ele>
        <time>2024-10-15T11:25:31.000Z</time>
      </trkpt>
      <trkpt lat="45.553037" lon="7.85497">
        <ele>1017.54999</ele>
        <time>2024-10-15T11:25:33.000Z</time>
      </trkpt>
      <trkpt lat="45.553028" lon="7.85494">
        <ele>1016.86493</ele>
        <time>2024-10-15T11:25:38.000Z</time>
      </trkpt>
      <trkpt lat="45.553015" lon="7.854913">
        <ele>1016.15497</ele>
        <time>2024-10-15T11:25:41.000Z</time>
      </trkpt>
      <trkpt lat="45.552995" lon="7.854907">
        <ele>1015.36993</ele>
        <time>2024-10-15T11:25:44.000Z</time>
      </trkpt>
      <trkpt lat="45.552973" lon="7.854897">
        <ele>1014.55994</ele>
        <time>2024-10-15T11:25:48.000Z</time>
      </trkpt>
      <trkpt lat="45.55296" lon="7.854875">
        <ele>1013.755</ele>
        <time>2024-10-15T11:25:51.000Z</time>
      </trkpt>
      <trkpt lat="45.552953" lon="7.85485">
        <ele>1013.005</ele>
        <time>2024-10-15T11:25:57.000Z</time>
      </trkpt>
      <trkpt lat="45.552942" lon="7.85483">
        <ele>1012.35498</ele>
        <time>2024-10-15T11:26:01.000Z</time>
      </trkpt>
      <trkpt lat="45.552937" lon="7.854802">
        <ele>1011.79004</ele>
        <time>2024-10-15T11:26:04.000Z</time>
      </trkpt>
      <trkpt lat="45.552922" lon="7.854758">
        <ele>1011.27002</ele>
        <time>2024-10-15T11:26:09.000Z</time>
      </trkpt>
      <trkpt lat="45.552917" lon="7.85473">
        <ele>1010.80994</ele>
        <time>2024-10-15T11:26:11.000Z</time>
      </trkpt>
      <trkpt lat="45.55291" lon="7.8547">
        <ele>1010.34003</ele>
        <time>2024-10-15T11:26:13.000Z</time>
      </trkpt>
      <trkpt lat="45.552917" lon="7.854667">
        <ele>1009.72998</ele>
        <time>2024-10-15T11:26:18.000Z</time>
      </trkpt>
      <trkpt lat="45.552915" lon="7.85463">
        <ele>1009.05499</ele>
        <time>2024-10-15T11:26:22.000Z</time>
      </trkpt>
      <trkpt lat="45.552903" lon="7.854607">
        <ele>1008.35999</ele>
        <time>2024-10-15T11:26:24.000Z</time>
      </trkpt>
      <trkpt lat="45.552895" lon="7.854582">
        <ele>1007.60999</ele>
        <time>2024-10-15T11:26:27.000Z</time>
      </trkpt>
      <trkpt lat="45.552895" lon="7.854548">
        <ele>1006.81494</ele>
        <time>2024-10-15T11:26:30.000Z</time>
      </trkpt>
      <trkpt lat="45.55289" lon="7.854522">
        <ele>1006.02991</ele>
        <time>2024-10-15T11:26:32.000Z</time>
      </trkpt>
      <trkpt lat="45.552868" lon="7.854493">
        <ele>1005.30988</ele>
        <time>2024-10-15T11:26:34.000Z</time>
      </trkpt>
      <trkpt lat="45.552868" lon="7.854452">
        <ele>1004.71484</ele>
        <time>2024-10-15T11:26:36.000Z</time>
      </trkpt>
      <trkpt lat="45.552868" lon="7.85442">
        <ele>1004.21985</ele>
        <time>2024-10-15T11:26:38.000Z</time>
      </trkpt>
      <trkpt lat="45.55287" lon="7.85439">
        <ele>1003.80487</ele>
        <time>2024-10-15T11:26:40.000Z</time>
      </trkpt>
      <trkpt lat="45.552857" lon="7.854372">
        <ele>1003.46484</ele>
        <time>2024-10-15T11:26:42.000Z</time>
      </trkpt>
      <trkpt lat="45.552848" lon="7.854343">
        <ele>1003.10486</ele>
        <time>2024-10-15T11:26:49.000Z</time>
      </trkpt>
      <trkpt lat="45.55284" lon="7.854313">
        <ele>1002.77991</ele>
        <time>2024-10-15T11:26:52.000Z</time>
      </trkpt>
      <trkpt lat="45.552825" lon="7.854297">
        <ele>1002.4198</ele>
        <time>2024-10-15T11:26:55.000Z</time>
      </trkpt>
      <trkpt lat="45.552808" lon="7.854282">
        <ele>1002.00488</ele>
        <time>2024-10-15T11:26:58.000Z</time>
      </trkpt>
      <trkpt lat="45.552797" lon="7.854262">
        <ele>1001.51984</ele>
        <time>2024-10-15T11:27:00.000Z</time>
      </trkpt>
      <trkpt lat="45.552777" lon="7.85425">
        <ele>1000.90479</ele>
        <time>2024-10-15T11:27:03.000Z</time>
      </trkpt>
      <trkpt lat="45.552765" lon="7.854222">
        <ele>1000.26984</ele>
        <time>2024-10-15T11:27:05.000Z</time>
      </trkpt>
      <trkpt lat="45.552763" lon="7.854188">
        <ele>999.58984</ele>
        <time>2024-10-15T11:27:08.000Z</time>
      </trkpt>
      <trkpt lat="45.552758" lon="7.854163">
        <ele>998.90979</ele>
        <time>2024-10-15T11:27:10.000Z</time>
      </trkpt>
      <trkpt lat="45.552747" lon="7.854143">
        <ele>998.32977</ele>
        <time>2024-10-15T11:27:13.000Z</time>
      </trkpt>
      <trkpt lat="45.55273" lon="7.854122">
        <ele>997.75476</ele>
        <time>2024-10-15T11:27:16.000Z</time>
      </trkpt>
      <trkpt lat="45.552715" lon="7.854102">
        <ele>997.18475</ele>
        <time>2024-10-15T11:27:18.000Z</time>
      </trkpt>
      <trkpt lat="45.552698" lon="7.854087">
        <ele>996.59973</ele>
        <time>2024-10-15T11:27:23.000Z</time>
      </trkpt>
      <trkpt lat="45.552682" lon="7.854075">
        <ele>996.09973</ele>
        <time>2024-10-15T11:27:25.000Z</time>
      </trkpt>
      <trkpt lat="45.55268" lon="7.854048">
        <ele>995.61475</ele>
        <time>2024-10-15T11:27:28.000Z</time>
      </trkpt>
      <trkpt lat="45.552682" lon="7.854022">
        <ele>994.92981</ele>
        <time>2024-10-15T11:27:33.000Z</time>
      </trkpt>
      <trkpt lat="45.552698" lon="7.854007">
        <ele>994.08478</ele>
        <time>2024-10-15T11:27:36.000Z</time>
      </trkpt>
      <trkpt lat="45.55271" lon="7.85398">
        <ele>993.15479</ele>
        <time>2024-10-15T11:27:39.000Z</time>
      </trkpt>
      <trkpt lat="45.552727" lon="7.853968">
        <ele>992.13977</ele>
        <time>2024-10-15T11:27:41.000Z</time>
      </trkpt>
      <trkpt lat="45.552738" lon="7.853947">
        <ele>991.05481</ele>
        <time>2024-10-15T11:27:43.000Z</time>
      </trkpt>
      <trkpt lat="45.55276" lon="7.853938">
        <ele>989.94482</ele>
        <time>2024-10-15T11:27:45.000Z</time>
      </trkpt>
      <trkpt lat="45.552768" lon="7.853915">
        <ele>988.78986</ele>
        <time>2024-10-15T11:27:47.000Z</time>
      </trkpt>
      <trkpt lat="45.55279" lon="7.85389">
        <ele>987.59491</ele>
        <time>2024-10-15T11:27:49.000Z</time>
      </trkpt>
      <trkpt lat="45.55281" lon="7.853867">
        <ele>986.41992</ele>
        <time>2024-10-15T11:27:51.000Z</time>
      </trkpt>
      <trkpt lat="45.55283" lon="7.853848">
        <ele>985.27502</ele>
        <time>2024-10-15T11:27:53.000Z</time>
      </trkpt>
      <trkpt lat="45.552845" lon="7.853833">
        <ele>984.23505</ele>
        <time>2024-10-15T11:27:55.000Z</time>
      </trkpt>
      <trkpt lat="45.552865" lon="7.853838">
        <ele>983.20007</ele>
        <time>2024-10-15T11:27:58.000Z</time>
      </trkpt>
      <trkpt lat="45.552875" lon="7.853812">
        <ele>982.19513</ele>
        <time>2024-10-15T11:28:01.000Z</time>
      </trkpt>
      <trkpt lat="45.552888" lon="7.853783">
        <ele>981.17517</ele>
        <time>2024-10-15T11:28:04.000Z</time>
      </trkpt>
      <trkpt lat="45.552905" lon="7.853773">
        <ele>980.17023</ele>
        <time>2024-10-15T11:28:06.000Z</time>
      </trkpt>
      <trkpt lat="45.552928" lon="7.853767">
        <ele>979.1803</ele>
        <time>2024-10-15T11:28:09.000Z</time>
      </trkpt>
      <trkpt lat="45.552943" lon="7.85375">
        <ele>978.1803</ele>
        <time>2024-10-15T11:28:12.000Z</time>
      </trkpt>
      <trkpt lat="45.552963" lon="7.853742">
        <ele>977.19031</ele>
        <time>2024-10-15T11:28:15.000Z</time>
      </trkpt>
      <trkpt lat="45.552942" lon="7.853733">
        <ele>976.14032</ele>
        <time>2024-10-15T11:28:23.000Z</time>
      </trkpt>
      <trkpt lat="45.55292" lon="7.853722">
        <ele>975.16034</ele>
        <time>2024-10-15T11:28:27.000Z</time>
      </trkpt>
      <trkpt lat="45.55289" lon="7.853707">
        <ele>974.41534</ele>
        <time>2024-10-15T11:28:30.000Z</time>
      </trkpt>
      <trkpt lat="45.552872" lon="7.853702">
        <ele>973.78534</ele>
        <time>2024-10-15T11:28:32.000Z</time>
      </trkpt>
      <trkpt lat="45.552853" lon="7.85369">
        <ele>973.21533</ele>
        <time>2024-10-15T11:28:34.000Z</time>
      </trkpt>
      <trkpt lat="45.552833" lon="7.853682">
        <ele>972.67529</ele>
        <time>2024-10-15T11:28:36.000Z</time>
      </trkpt>
      <trkpt lat="45.552812" lon="7.853663">
        <ele>972.19031</ele>
        <time>2024-10-15T11:28:38.000Z</time>
      </trkpt>
      <trkpt lat="45.552793" lon="7.853638">
        <ele>971.77527</ele>
        <time>2024-10-15T11:28:40.000Z</time>
      </trkpt>
      <trkpt lat="45.552778" lon="7.853612">
        <ele>971.41028</ele>
        <time>2024-10-15T11:28:43.000Z</time>
      </trkpt>
      <trkpt lat="45.55277" lon="7.853587">
        <ele>971.13019</ele>
        <time>2024-10-15T11:28:46.000Z</time>
      </trkpt>
      <trkpt lat="45.55276" lon="7.853562">
        <ele>970.8302</ele>
        <time>2024-10-15T11:28:50.000Z</time>
      </trkpt>
      <trkpt lat="45.552765" lon="7.853532">
        <ele>970.50519</ele>
        <time>2024-10-15T11:28:52.000Z</time>
      </trkpt>
      <trkpt lat="45.552782" lon="7.853512">
        <ele>970.14014</ele>
        <time>2024-10-15T11:28:54.000Z</time>
      </trkpt>
      <trkpt lat="45.552807" lon="7.853517">
        <ele>969.76007</ele>
        <time>2024-10-15T11:28:56.000Z</time>
      </trkpt>
      <trkpt lat="45.552825" lon="7.853513">
        <ele>969.33508</ele>
        <time>2024-10-15T11:28:58.000Z</time>
      </trkpt>
      <trkpt lat="45.552843" lon="7.853542">
        <ele>968.93506</ele>
        <time>2024-10-15T11:29:00.000Z</time>
      </trkpt>
      <trkpt lat="45.552848" lon="7.853567">
        <ele>968.57001</ele>
        <time>2024-10-15T11:29:03.000Z</time>
      </trkpt>
      <trkpt lat="45.552888" lon="7.853503">
        <ele>968.31494</ele>
        <time>2024-10-15T11:29:19.000Z</time>
      </trkpt>
      <trkpt lat="45.552895" lon="7.853472">
        <ele>968.03497</ele>
        <time>2024-10-15T11:29:24.000Z</time>
      </trkpt>
      <trkpt lat="45.55291" lon="7.853455">
        <ele>967.78992</ele>
        <time>2024-10-15T11:29:28.000Z</time>
      </trkpt>
      <trkpt lat="45.55293" lon="7.853453">
        <ele>967.56494</ele>
        <time>2024-10-15T11:29:30.000Z</time>
      </trkpt>
      <trkpt lat="45.55295" lon="7.853453">
        <ele>967.23499</ele>
        <time>2024-10-15T11:29:32.000Z</time>
      </trkpt>
      <trkpt lat="45.552973" lon="7.853458">
        <ele>966.81995</ele>
        <time>2024-10-15T11:29:34.000Z</time>
      </trkpt>
      <trkpt lat="45.552992" lon="7.853455">
        <ele>966.31494</ele>
        <time>2024-10-15T11:29:36.000Z</time>
      </trkpt>
      <trkpt lat="45.553017" lon="7.853457">
        <ele>965.69495</ele>
        <time>2024-10-15T11:29:38.000Z</time>
      </trkpt>
      <trkpt lat="45.553038" lon="7.85345">
        <ele>964.97498</ele>
        <time>2024-10-15T11:29:41.000Z</time>
      </trkpt>
      <trkpt lat="45.55306" lon="7.853445">
        <ele>964.15497</ele>
        <time>2024-10-15T11:29:44.000Z</time>
      </trkpt>
      <trkpt lat="45.553078" lon="7.853442">
        <ele>963.29999</ele>
        <time>2024-10-15T11:29:46.000Z</time>
      </trkpt>
      <trkpt lat="45.553098" lon="7.853435">
        <ele>962.44006</ele>
        <time>2024-10-15T11:29:48.000Z</time>
      </trkpt>
      <trkpt lat="45.55311" lon="7.853398">
        <ele>961.53009</ele>
        <time>2024-10-15T11:29:50.000Z</time>
      </trkpt>
      <trkpt lat="45.553137" lon="7.85339">
        <ele>960.58008</ele>
        <time>2024-10-15T11:29:53.000Z</time>
      </trkpt>
      <trkpt lat="45.553158" lon="7.853402">
        <ele>959.61505</ele>
        <time>2024-10-15T11:29:55.000Z</time>
      </trkpt>
      <trkpt lat="45.55318" lon="7.85341">
        <ele>958.63007</ele>
        <time>2024-10-15T11:29:57.000Z</time>
      </trkpt>
      <trkpt lat="45.553202" lon="7.853397">
        <ele>957.68518</ele>
        <time>2024-10-15T11:29:59.000Z</time>
      </trkpt>
      <trkpt lat="45.553228" lon="7.85339">
        <ele>956.76013</ele>
        <time>2024-10-15T11:30:03.000Z</time>
      </trkpt>
      <trkpt lat="45.553253" lon="7.853395">
        <ele>955.81512</ele>
        <time>2024-10-15T11:30:07.000Z</time>
      </trkpt>
      <trkpt lat="45.553273" lon="7.853387">
        <ele>954.85516</ele>
        <time>2024-10-15T11:30:09.000Z</time>
      </trkpt>
      <trkpt lat="45.553293" lon="7.853393">
        <ele>953.79022</ele>
        <time>2024-10-15T11:30:12.000Z</time>
      </trkpt>
      <trkpt lat="45.553312" lon="7.853387">
        <ele>952.78528</ele>
        <time>2024-10-15T11:30:14.000Z</time>
      </trkpt>
      <trkpt lat="45.553328" lon="7.853377">
        <ele>951.81525</ele>
        <time>2024-10-15T11:30:16.000Z</time>
      </trkpt>
      <trkpt lat="45.553347" lon="7.853363">
        <ele>950.90027</ele>
        <time>2024-10-15T11:30:18.000Z</time>
      </trkpt>
      <trkpt lat="45.553372" lon="7.853352">
        <ele>950.06024</ele>
        <time>2024-10-15T11:30:21.000Z</time>
      </trkpt>
      <trkpt lat="45.5534" lon="7.853353">
        <ele>949.23523</ele>
        <time>2024-10-15T11:30:24.000Z</time>
      </trkpt>
      <trkpt lat="45.553422" lon="7.853327">
        <ele>948.51025</ele>
        <time>2024-10-15T11:30:26.000Z</time>
      </trkpt>
      <trkpt lat="45.553435" lon="7.853303">
        <ele>947.94031</ele>
        <time>2024-10-15T11:30:28.000Z</time>
      </trkpt>
      <trkpt lat="45.553437" lon="7.853268">
        <ele>947.52527</ele>
        <time>2024-10-15T11:30:32.000Z</time>
      </trkpt>
      <trkpt lat="45.553447" lon="7.853242">
        <ele>947.23523</ele>
        <time>2024-10-15T11:30:36.000Z</time>
      </trkpt>
      <trkpt lat="45.553458" lon="7.853222">
        <ele>946.99524</ele>
        <time>2024-10-15T11:30:38.000Z</time>
      </trkpt>
      <trkpt lat="45.553477" lon="7.853215">
        <ele>946.77521</ele>
        <time>2024-10-15T11:30:40.000Z</time>
      </trkpt>
      <trkpt lat="45.553495" lon="7.853197">
        <ele>946.60516</ele>
        <time>2024-10-15T11:30:43.000Z</time>
      </trkpt>
      <trkpt lat="45.553508" lon="7.853167">
        <ele>946.49512</ele>
        <time>2024-10-15T11:30:45.000Z</time>
      </trkpt>
      <trkpt lat="45.553528" lon="7.85317">
        <ele>946.3501</ele>
        <time>2024-10-15T11:30:50.000Z</time>
      </trkpt>
      <trkpt lat="45.553543" lon="7.85315">
        <ele>946.21503</ele>
        <time>2024-10-15T11:30:53.000Z</time>
      </trkpt>
      <trkpt lat="45.553558" lon="7.85313">
        <ele>946.04999</ele>
        <time>2024-10-15T11:30:55.000Z</time>
      </trkpt>
      <trkpt lat="45.553575" lon="7.853115">
        <ele>945.88</ele>
        <time>2024-10-15T11:30:59.000Z</time>
      </trkpt>
      <trkpt lat="45.553563" lon="7.853082">
        <ele>945.72498</ele>
        <time>2024-10-15T11:31:02.000Z</time>
      </trkpt>
      <trkpt lat="45.553552" lon="7.853102">
        <ele>945.49005</ele>
        <time>2024-10-15T11:31:07.000Z</time>
      </trkpt>
      <trkpt lat="45.553532" lon="7.853115">
        <ele>945.17499</ele>
        <time>2024-10-15T11:31:11.000Z</time>
      </trkpt>
      <trkpt lat="45.553522" lon="7.853137">
        <ele>944.82996</ele>
        <time>2024-10-15T11:31:14.000Z</time>
      </trkpt>
      <trkpt lat="45.553498" lon="7.85315">
        <ele>944.40497</ele>
        <time>2024-10-15T11:31:19.000Z</time>
      </trkpt>
      <trkpt lat="45.553478" lon="7.853152">
        <ele>943.90997</ele>
        <time>2024-10-15T11:31:21.000Z</time>
      </trkpt>
      <trkpt lat="45.553455" lon="7.853135">
        <ele>943.375</ele>
        <time>2024-10-15T11:31:25.000Z</time>
      </trkpt>
      <trkpt lat="45.553435" lon="7.853117">
        <ele>942.87</ele>
        <time>2024-10-15T11:31:27.000Z</time>
      </trkpt>
      <trkpt lat="45.553413" lon="7.853097">
        <ele>942.32996</ele>
        <time>2024-10-15T11:31:29.000Z</time>
      </trkpt>
      <trkpt lat="45.553387" lon="7.853092">
        <ele>941.70996</ele>
        <time>2024-10-15T11:31:31.000Z</time>
      </trkpt>
      <trkpt lat="45.553372" lon="7.853072">
        <ele>941.0199</ele>
        <time>2024-10-15T11:31:33.000Z</time>
      </trkpt>
      <trkpt lat="45.553357" lon="7.853057">
        <ele>940.2699</ele>
        <time>2024-10-15T11:31:35.000Z</time>
      </trkpt>
      <trkpt lat="45.553333" lon="7.853043">
        <ele>939.48499</ele>
        <time>2024-10-15T11:31:37.000Z</time>
      </trkpt>
      <trkpt lat="45.553315" lon="7.85302">
        <ele>938.65497</ele>
        <time>2024-10-15T11:31:39.000Z</time>
      </trkpt>
      <trkpt lat="45.5533" lon="7.852997">
        <ele>937.745</ele>
        <time>2024-10-15T11:31:42.000Z</time>
      </trkpt>
      <trkpt lat="45.553283" lon="7.85297">
        <ele>936.80011</ele>
        <time>2024-10-15T11:31:45.000Z</time>
      </trkpt>
      <trkpt lat="45.553257" lon="7.852948">
        <ele>935.89514</ele>
        <time>2024-10-15T11:31:47.000Z</time>
      </trkpt>
      <trkpt lat="45.553233" lon="7.852922">
        <ele>935.03015</ele>
        <time>2024-10-15T11:31:50.000Z</time>
      </trkpt>
      <trkpt lat="45.553215" lon="7.852903">
        <ele>934.18018</ele>
        <time>2024-10-15T11:31:52.000Z</time>
      </trkpt>
      <trkpt lat="45.553193" lon="7.85288">
        <ele>933.38019</ele>
        <time>2024-10-15T11:31:55.000Z</time>
      </trkpt>
      <trkpt lat="45.553185" lon="7.852853">
        <ele>932.66516</ele>
        <time>2024-10-15T11:31:58.000Z</time>
      </trkpt>
      <trkpt lat="45.553165" lon="7.852825">
        <ele>932.09015</ele>
        <time>2024-10-15T11:32:01.000Z</time>
      </trkpt>
      <trkpt lat="45.553142" lon="7.852802">
        <ele>931.61511</ele>
        <time>2024-10-15T11:32:03.000Z</time>
      </trkpt>
      <trkpt lat="45.553123" lon="7.852787">
        <ele>931.14514</ele>
        <time>2024-10-15T11:32:06.000Z</time>
      </trkpt>
      <trkpt lat="45.553102" lon="7.852783">
        <ele>930.71014</ele>
        <time>2024-10-15T11:32:08.000Z</time>
      </trkpt>
      <trkpt lat="45.553083" lon="7.852767">
        <ele>930.30011</ele>
        <time>2024-10-15T11:32:10.000Z</time>
      </trkpt>
      <trkpt lat="45.553053" lon="7.85274">
        <ele>929.90509</ele>
        <time>2024-10-15T11:32:12.000Z</time>
      </trkpt>
      <trkpt lat="45.55303" lon="7.852715">
        <ele>929.50012</ele>
        <time>2024-10-15T11:32:14.000Z</time>
      </trkpt>
      <trkpt lat="45.553008" lon="7.8527">
        <ele>929.08514</ele>
        <time>2024-10-15T11:32:16.000Z</time>
      </trkpt>
      <trkpt lat="45.55299" lon="7.85267">
        <ele>928.6701</ele>
        <time>2024-10-15T11:32:19.000Z</time>
      </trkpt>
      <trkpt lat="45.552967" lon="7.852653">
        <ele>928.29016</ele>
        <time>2024-10-15T11:32:21.000Z</time>
      </trkpt>
      <trkpt lat="45.552953" lon="7.85263">
        <ele>927.93018</ele>
        <time>2024-10-15T11:32:23.000Z</time>
      </trkpt>
      <trkpt lat="45.552937" lon="7.852612">
        <ele>927.61017</ele>
        <time>2024-10-15T11:32:25.000Z</time>
      </trkpt>
      <trkpt lat="45.552912" lon="7.852585">
        <ele>927.32013</ele>
        <time>2024-10-15T11:32:27.000Z</time>
      </trkpt>
      <trkpt lat="45.552895" lon="7.852558">
        <ele>927.11005</ele>
        <time>2024-10-15T11:32:29.000Z</time>
      </trkpt>
      <trkpt lat="45.552887" lon="7.852527">
        <ele>926.97498</ele>
        <time>2024-10-15T11:32:31.000Z</time>
      </trkpt>
      <trkpt lat="45.552875" lon="7.852503">
        <ele>926.90002</ele>
        <time>2024-10-15T11:32:33.000Z</time>
      </trkpt>
      <trkpt lat="45.55286" lon="7.852477">
        <ele>926.86993</ele>
        <time>2024-10-15T11:32:35.000Z</time>
      </trkpt>
      <trkpt lat="45.552852" lon="7.852448">
        <ele>926.84991</ele>
        <time>2024-10-15T11:32:37.000Z</time>
      </trkpt>
      <trkpt lat="45.552835" lon="7.852418">
        <ele>926.77991</ele>
        <time>2024-10-15T11:32:40.000Z</time>
      </trkpt>
      <trkpt lat="45.552818" lon="7.852393">
        <ele>926.60486</ele>
        <time>2024-10-15T11:32:42.000Z</time>
      </trkpt>
      <trkpt lat="45.552798" lon="7.852387">
        <ele>926.2948</ele>
        <time>2024-10-15T11:32:44.000Z</time>
      </trkpt>
      <trkpt lat="45.552785" lon="7.852368">
        <ele>925.9248</ele>
        <time>2024-10-15T11:32:47.000Z</time>
      </trkpt>
      <trkpt lat="45.552777" lon="7.852338">
        <ele>925.5448</ele>
        <time>2024-10-15T11:32:49.000Z</time>
      </trkpt>
      <trkpt lat="45.552765" lon="7.852308">
        <ele>925.11981</ele>
        <time>2024-10-15T11:32:52.000Z</time>
      </trkpt>
      <trkpt lat="45.552747" lon="7.852297">
        <ele>924.65985</ele>
        <time>2024-10-15T11:32:55.000Z</time>
      </trkpt>
      <trkpt lat="45.552733" lon="7.852277">
        <ele>924.15985</ele>
        <time>2024-10-15T11:32:57.000Z</time>
      </trkpt>
      <trkpt lat="45.552722" lon="7.852257">
        <ele>923.61981</ele>
        <time>2024-10-15T11:32:59.000Z</time>
      </trkpt>
      <trkpt lat="45.55271" lon="7.85223">
        <ele>923.06476</ele>
        <time>2024-10-15T11:33:01.000Z</time>
      </trkpt>
      <trkpt lat="45.552705" lon="7.852197">
        <ele>922.51971</ele>
        <time>2024-10-15T11:33:04.000Z</time>
      </trkpt>
      <trkpt lat="45.552708" lon="7.852158">
        <ele>921.94971</ele>
        <time>2024-10-15T11:33:08.000Z</time>
      </trkpt>
      <trkpt lat="45.5527" lon="7.852117">
        <ele>921.41467</ele>
        <time>2024-10-15T11:33:10.000Z</time>
      </trkpt>
      <trkpt lat="45.552698" lon="7.852077">
        <ele>920.97461</ele>
        <time>2024-10-15T11:33:13.000Z</time>
      </trkpt>
      <trkpt lat="45.552698" lon="7.85205">
        <ele>920.55969</ele>
        <time>2024-10-15T11:33:16.000Z</time>
      </trkpt>
      <trkpt lat="45.552692" lon="7.852018">
        <ele>920.11975</ele>
        <time>2024-10-15T11:33:18.000Z</time>
      </trkpt>
      <trkpt lat="45.552688" lon="7.851985">
        <ele>919.66974</ele>
        <time>2024-10-15T11:33:20.000Z</time>
      </trkpt>
      <trkpt lat="45.552693" lon="7.851953">
        <ele>919.22968</ele>
        <time>2024-10-15T11:33:24.000Z</time>
      </trkpt>
      <trkpt lat="45.552712" lon="7.851922">
        <ele>918.74475</ele>
        <time>2024-10-15T11:33:26.000Z</time>
      </trkpt>
      <trkpt lat="45.552713" lon="7.851882">
        <ele>918.27979</ele>
        <time>2024-10-15T11:33:28.000Z</time>
      </trkpt>
      <trkpt lat="45.552718" lon="7.851855">
        <ele>917.87482</ele>
        <time>2024-10-15T11:33:30.000Z</time>
      </trkpt>
      <trkpt lat="45.552708" lon="7.85183">
        <ele>917.53986</ele>
        <time>2024-10-15T11:33:32.000Z</time>
      </trkpt>
      <trkpt lat="45.5527" lon="7.851802">
        <ele>917.2749</ele>
        <time>2024-10-15T11:33:35.000Z</time>
      </trkpt>
      <trkpt lat="45.552692" lon="7.851773">
        <ele>916.97998</ele>
        <time>2024-10-15T11:33:39.000Z</time>
      </trkpt>
      <trkpt lat="45.55268" lon="7.851737">
        <ele>916.68494</ele>
        <time>2024-10-15T11:33:42.000Z</time>
      </trkpt>
      <trkpt lat="45.552672" lon="7.851713">
        <ele>916.34491</ele>
        <time>2024-10-15T11:33:48.000Z</time>
      </trkpt>
      <trkpt lat="45.552687" lon="7.851697">
        <ele>915.83997</ele>
        <time>2024-10-15T11:33:53.000Z</time>
      </trkpt>
      <trkpt lat="45.552693" lon="7.851667">
        <ele>915.27991</ele>
        <time>2024-10-15T11:33:57.000Z</time>
      </trkpt>
      <trkpt lat="45.552685" lon="7.851638">
        <ele>914.7749</ele>
        <time>2024-10-15T11:33:59.000Z</time>
      </trkpt>
      <trkpt lat="45.552673" lon="7.851605">
        <ele>914.2749</ele>
        <time>2024-10-15T11:34:03.000Z</time>
      </trkpt>
      <trkpt lat="45.552673" lon="7.851573">
        <ele>913.77997</ele>
        <time>2024-10-15T11:34:05.000Z</time>
      </trkpt>
      <trkpt lat="45.552683" lon="7.851552">
        <ele>913.25</ele>
        <time>2024-10-15T11:34:09.000Z</time>
      </trkpt>
      <trkpt lat="45.552695" lon="7.851532">
        <ele>912.65002</ele>
        <time>2024-10-15T11:34:11.000Z</time>
      </trkpt>
      <trkpt lat="45.552695" lon="7.851495">
        <ele>911.89502</ele>
        <time>2024-10-15T11:34:13.000Z</time>
      </trkpt>
      <trkpt lat="45.552688" lon="7.851457">
        <ele>911.08496</ele>
        <time>2024-10-15T11:34:15.000Z</time>
      </trkpt>
      <trkpt lat="45.552682" lon="7.851428">
        <ele>910.2699</ele>
        <time>2024-10-15T11:34:17.000Z</time>
      </trkpt>
      <trkpt lat="45.552687" lon="7.851403">
        <ele>909.42493</ele>
        <time>2024-10-15T11:34:19.000Z</time>
      </trkpt>
      <trkpt lat="45.552683" lon="7.851373">
        <ele>908.50995</ele>
        <time>2024-10-15T11:34:21.000Z</time>
      </trkpt>
      <trkpt lat="45.552698" lon="7.851342">
        <ele>907.55499</ele>
        <time>2024-10-15T11:34:24.000Z</time>
      </trkpt>
      <trkpt lat="45.552708" lon="7.851317">
        <ele>906.55499</ele>
        <time>2024-10-15T11:34:26.000Z</time>
      </trkpt>
      <trkpt lat="45.552718" lon="7.851288">
        <ele>905.48499</ele>
        <time>2024-10-15T11:34:28.000Z</time>
      </trkpt>
      <trkpt lat="45.55274" lon="7.851292">
        <ele>904.23993</ele>
        <time>2024-10-15T11:34:32.000Z</time>
      </trkpt>
      <trkpt lat="45.552758" lon="7.851303">
        <ele>902.8949</ele>
        <time>2024-10-15T11:34:35.000Z</time>
      </trkpt>
      <trkpt lat="45.55278" lon="7.85129">
        <ele>901.53986</ele>
        <time>2024-10-15T11:34:39.000Z</time>
      </trkpt>
      <trkpt lat="45.552803" lon="7.851278">
        <ele>900.18982</ele>
        <time>2024-10-15T11:34:41.000Z</time>
      </trkpt>
      <trkpt lat="45.552827" lon="7.851278">
        <ele>898.92987</ele>
        <time>2024-10-15T11:34:43.000Z</time>
      </trkpt>
      <trkpt lat="45.552848" lon="7.851292">
        <ele>897.87488</ele>
        <time>2024-10-15T11:34:45.000Z</time>
      </trkpt>
      <trkpt lat="45.552893" lon="7.85126">
        <ele>896.98993</ele>
        <time>2024-10-15T11:34:58.000Z</time>
      </trkpt>
      <trkpt lat="45.552825" lon="7.851362">
        <ele>896.23993</ele>
        <time>2024-10-15T11:35:28.000Z</time>
      </trkpt>
      <trkpt lat="45.552812" lon="7.851417">
        <ele>895.58496</ele>
        <time>2024-10-15T11:35:34.000Z</time>
      </trkpt>
      <trkpt lat="45.552815" lon="7.851447">
        <ele>894.95996</ele>
        <time>2024-10-15T11:35:39.000Z</time>
      </trkpt>
      <trkpt lat="45.552878" lon="7.851423">
        <ele>894.15002</ele>
        <time>2024-10-15T11:36:02.000Z</time>
      </trkpt>
      <trkpt lat="45.552847" lon="7.851392">
        <ele>893.22498</ele>
        <time>2024-10-15T11:36:22.000Z</time>
      </trkpt>
      <trkpt lat="45.552833" lon="7.851367">
        <ele>892.375</ele>
        <time>2024-10-15T11:36:26.000Z</time>
      </trkpt>
      <trkpt lat="45.552815" lon="7.85135">
        <ele>891.57996</ele>
        <time>2024-10-15T11:36:31.000Z</time>
      </trkpt>
      <trkpt lat="45.552833" lon="7.851327">
        <ele>890.80994</ele>
        <time>2024-10-15T11:36:34.000Z</time>
      </trkpt>
      <trkpt lat="45.552848" lon="7.8513">
        <ele>890.04999</ele>
        <time>2024-10-15T11:36:37.000Z</time>
      </trkpt>
      <trkpt lat="45.552862" lon="7.851272">
        <ele>889.32001</ele>
        <time>2024-10-15T11:36:40.000Z</time>
      </trkpt>
      <trkpt lat="45.552878" lon="7.851247">
        <ele>888.59003</ele>
        <time>2024-10-15T11:36:43.000Z</time>
      </trkpt>
      <trkpt lat="45.55289" lon="7.851225">
        <ele>887.82001</ele>
        <time>2024-10-15T11:36:46.000Z</time>
      </trkpt>
      <trkpt lat="45.55291" lon="7.851213">
        <ele>887.07001</ele>
        <time>2024-10-15T11:36:48.000Z</time>
      </trkpt>
      <trkpt lat="45.552928" lon="7.851208">
        <ele>886.44501</ele>
        <time>2024-10-15T11:36:50.000Z</time>
      </trkpt>
      <trkpt lat="45.552947" lon="7.851198">
        <ele>885.89001</ele>
        <time>2024-10-15T11:36:53.000Z</time>
      </trkpt>
      <trkpt lat="45.552947" lon="7.851165">
        <ele>885.34509</ele>
        <time>2024-10-15T11:36:59.000Z</time>
      </trkpt>
      <trkpt lat="45.552948" lon="7.851137">
        <ele>884.84015</ele>
        <time>2024-10-15T11:37:02.000Z</time>
      </trkpt>
      <trkpt lat="45.552955" lon="7.8511">
        <ele>884.37012</ele>
        <time>2024-10-15T11:37:05.000Z</time>
      </trkpt>
      <trkpt lat="45.552975" lon="7.851085">
        <ele>883.90509</ele>
        <time>2024-10-15T11:37:08.000Z</time>
      </trkpt>
      <trkpt lat="45.552977" lon="7.851058">
        <ele>883.37012</ele>
        <time>2024-10-15T11:37:11.000Z</time>
      </trkpt>
      <trkpt lat="45.552975" lon="7.851023">
        <ele>882.70508</ele>
        <time>2024-10-15T11:37:14.000Z</time>
      </trkpt>
      <trkpt lat="45.552973" lon="7.850985">
        <ele>881.98505</ele>
        <time>2024-10-15T11:37:16.000Z</time>
      </trkpt>
      <trkpt lat="45.552978" lon="7.85096">
        <ele>881.23505</ele>
        <time>2024-10-15T11:37:18.000Z</time>
      </trkpt>
      <trkpt lat="45.552978" lon="7.85093">
        <ele>880.67499</ele>
        <time>2024-10-15T11:37:22.000Z</time>
      </trkpt>
      <trkpt lat="45.552968" lon="7.850905">
        <ele>880.20001</ele>
        <time>2024-10-15T11:37:26.000Z</time>
      </trkpt>
      <trkpt lat="45.552962" lon="7.85086">
        <ele>879.64502</ele>
        <time>2024-10-15T11:37:29.000Z</time>
      </trkpt>
      <trkpt lat="45.552973" lon="7.850828">
        <ele>879.09003</ele>
        <time>2024-10-15T11:37:31.000Z</time>
      </trkpt>
      <trkpt lat="45.552987" lon="7.8508">
        <ele>878.53503</ele>
        <time>2024-10-15T11:37:34.000Z</time>
      </trkpt>
      <trkpt lat="45.552967" lon="7.850778">
        <ele>877.91003</ele>
        <time>2024-10-15T11:37:37.000Z</time>
      </trkpt>
      <trkpt lat="45.55297" lon="7.850752">
        <ele>877.06506</ele>
        <time>2024-10-15T11:37:41.000Z</time>
      </trkpt>
      <trkpt lat="45.552988" lon="7.85072">
        <ele>876.17004</ele>
        <time>2024-10-15T11:37:43.000Z</time>
      </trkpt>
      <trkpt lat="45.553013" lon="7.85069">
        <ele>875.40497</ele>
        <time>2024-10-15T11:37:45.000Z</time>
      </trkpt>
      <trkpt lat="45.553025" lon="7.850667">
        <ele>874.59503</ele>
        <time>2024-10-15T11:37:48.000Z</time>
      </trkpt>
      <trkpt lat="45.553042" lon="7.85064">
        <ele>873.79004</ele>
        <time>2024-10-15T11:37:51.000Z</time>
      </trkpt>
      <trkpt lat="45.553057" lon="7.850618">
        <ele>873.04504</ele>
        <time>2024-10-15T11:37:55.000Z</time>
      </trkpt>
      <trkpt lat="45.553038" lon="7.850618">
        <ele>872.45496</ele>
        <time>2024-10-15T11:38:00.000Z</time>
      </trkpt>
      <trkpt lat="45.553067" lon="7.850585">
        <ele>871.55499</ele>
        <time>2024-10-15T11:39:32.000Z</time>
      </trkpt>
      <trkpt lat="45.55309" lon="7.850558">
        <ele>870.67499</ele>
        <time>2024-10-15T11:39:34.000Z</time>
      </trkpt>
      <trkpt lat="45.553103" lon="7.850533">
        <ele>869.81506</ele>
        <time>2024-10-15T11:39:36.000Z</time>
      </trkpt>
      <trkpt lat="45.553112" lon="7.850497">
        <ele>868.94501</ele>
        <time>2024-10-15T11:39:38.000Z</time>
      </trkpt>
      <trkpt lat="45.553107" lon="7.850463">
        <ele>868.03009</ele>
        <time>2024-10-15T11:39:41.000Z</time>
      </trkpt>
      <trkpt lat="45.553102" lon="7.850428">
        <ele>867.08514</ele>
        <time>2024-10-15T11:39:44.000Z</time>
      </trkpt>
      <trkpt lat="45.553107" lon="7.850398">
        <ele>866.09509</ele>
        <time>2024-10-15T11:39:48.000Z</time>
      </trkpt>
      <trkpt lat="45.553123" lon="7.850382">
        <ele>865.14514</ele>
        <time>2024-10-15T11:39:50.000Z</time>
      </trkpt>
      <trkpt lat="45.553135" lon="7.850362">
        <ele>864.23016</ele>
        <time>2024-10-15T11:39:52.000Z</time>
      </trkpt>
      <trkpt lat="45.553138" lon="7.85033">
        <ele>863.28015</ele>
        <time>2024-10-15T11:39:55.000Z</time>
      </trkpt>
      <trkpt lat="45.553147" lon="7.850305">
        <ele>862.23517</ele>
        <time>2024-10-15T11:39:58.000Z</time>
      </trkpt>
      <trkpt lat="45.553163" lon="7.850283">
        <ele>861.13513</ele>
        <time>2024-10-15T11:40:01.000Z</time>
      </trkpt>
      <trkpt lat="45.553185" lon="7.8503">
        <ele>860.0752</ele>
        <time>2024-10-15T11:40:11.000Z</time>
      </trkpt>
      <trkpt lat="45.553202" lon="7.850312">
        <ele>859.23016</ele>
        <time>2024-10-15T11:40:14.000Z</time>
      </trkpt>
      <trkpt lat="45.553218" lon="7.850322">
        <ele>858.46014</ele>
        <time>2024-10-15T11:40:16.000Z</time>
      </trkpt>
      <trkpt lat="45.553233" lon="7.850343">
        <ele>857.56018</ele>
        <time>2024-10-15T11:40:19.000Z</time>
      </trkpt>
      <trkpt lat="45.553243" lon="7.850368">
        <ele>856.66516</ele>
        <time>2024-10-15T11:40:22.000Z</time>
      </trkpt>
      <trkpt lat="45.553248" lon="7.850393">
        <ele>855.78015</ele>
        <time>2024-10-15T11:40:25.000Z</time>
      </trkpt>
      <trkpt lat="45.553263" lon="7.850408">
        <ele>854.84509</ele>
        <time>2024-10-15T11:40:27.000Z</time>
      </trkpt>
      <trkpt lat="45.553278" lon="7.850433">
        <ele>853.81512</ele>
        <time>2024-10-15T11:40:29.000Z</time>
      </trkpt>
      <trkpt lat="45.553293" lon="7.850448">
        <ele>853.06018</ele>
        <time>2024-10-15T11:40:31.000Z</time>
      </trkpt>
      <trkpt lat="45.553313" lon="7.850465">
        <ele>852.21515</ele>
        <time>2024-10-15T11:40:34.000Z</time>
      </trkpt>
      <trkpt lat="45.553333" lon="7.850492">
        <ele>851.28516</ele>
        <time>2024-10-15T11:40:38.000Z</time>
      </trkpt>
      <trkpt lat="45.55335" lon="7.850512">
        <ele>850.36017</ele>
        <time>2024-10-15T11:40:40.000Z</time>
      </trkpt>
      <trkpt lat="45.553373" lon="7.850538">
        <ele>849.45007</ele>
        <time>2024-10-15T11:40:42.000Z</time>
      </trkpt>
      <trkpt lat="45.553392" lon="7.85056">
        <ele>848.56018</ele>
        <time>2024-10-15T11:40:44.000Z</time>
      </trkpt>
      <trkpt lat="45.553415" lon="7.85058">
        <ele>847.71014</ele>
        <time>2024-10-15T11:40:47.000Z</time>
      </trkpt>
      <trkpt lat="45.553433" lon="7.850605">
        <ele>846.85022</ele>
        <time>2024-10-15T11:40:51.000Z</time>
      </trkpt>
      <trkpt lat="45.553448" lon="7.85062">
        <ele>846.01514</ele>
        <time>2024-10-15T11:40:53.000Z</time>
      </trkpt>
      <trkpt lat="45.553468" lon="7.850643">
        <ele>845.26013</ele>
        <time>2024-10-15T11:40:55.000Z</time>
      </trkpt>
      <trkpt lat="45.55349" lon="7.850655">
        <ele>844.61017</ele>
        <time>2024-10-15T11:40:57.000Z</time>
      </trkpt>
      <trkpt lat="45.553487" lon="7.850627">
        <ele>844.00018</ele>
        <time>2024-10-15T11:41:03.000Z</time>
      </trkpt>
      <trkpt lat="45.553495" lon="7.8506">
        <ele>843.49023</ele>
        <time>2024-10-15T11:41:10.000Z</time>
      </trkpt>
      <trkpt lat="45.553488" lon="7.85057">
        <ele>842.99524</ele>
        <time>2024-10-15T11:41:14.000Z</time>
      </trkpt>
      <trkpt lat="45.55349" lon="7.85054">
        <ele>842.55518</ele>
        <time>2024-10-15T11:41:17.000Z</time>
      </trkpt>
      <trkpt lat="45.553492" lon="7.850507">
        <ele>842.21521</ele>
        <time>2024-10-15T11:41:20.000Z</time>
      </trkpt>
      <trkpt lat="45.553495" lon="7.85048">
        <ele>841.96521</ele>
        <time>2024-10-15T11:41:22.000Z</time>
      </trkpt>
      <trkpt lat="45.553495" lon="7.850453">
        <ele>841.75031</ele>
        <time>2024-10-15T11:41:24.000Z</time>
      </trkpt>
      <trkpt lat="45.55349" lon="7.850425">
        <ele>841.54529</ele>
        <time>2024-10-15T11:41:26.000Z</time>
      </trkpt>
      <trkpt lat="45.553487" lon="7.850397">
        <ele>841.31024</ele>
        <time>2024-10-15T11:41:29.000Z</time>
      </trkpt>
      <trkpt lat="45.553485" lon="7.85036">
        <ele>841.0752</ele>
        <time>2024-10-15T11:41:32.000Z</time>
      </trkpt>
      <trkpt lat="45.55349" lon="7.850325">
        <ele>840.89014</ele>
        <time>2024-10-15T11:41:35.000Z</time>
      </trkpt>
      <trkpt lat="45.553497" lon="7.850297">
        <ele>840.76514</ele>
        <time>2024-10-15T11:41:37.000Z</time>
      </trkpt>
      <trkpt lat="45.553508" lon="7.85027">
        <ele>840.62012</ele>
        <time>2024-10-15T11:41:40.000Z</time>
      </trkpt>
      <trkpt lat="45.553515" lon="7.850245">
        <ele>840.45508</ele>
        <time>2024-10-15T11:41:43.000Z</time>
      </trkpt>
      <trkpt lat="45.55353" lon="7.85021">
        <ele>840.26007</ele>
        <time>2024-10-15T11:41:46.000Z</time>
      </trkpt>
      <trkpt lat="45.553533" lon="7.850175">
        <ele>840.1051</ele>
        <time>2024-10-15T11:41:48.000Z</time>
      </trkpt>
      <trkpt lat="45.553552" lon="7.850153">
        <ele>840.00012</ele>
        <time>2024-10-15T11:41:51.000Z</time>
      </trkpt>
      <trkpt lat="45.553567" lon="7.85013">
        <ele>839.93005</ele>
        <time>2024-10-15T11:41:54.000Z</time>
      </trkpt>
      <trkpt lat="45.55358" lon="7.850108">
        <ele>839.90509</ele>
        <time>2024-10-15T11:41:56.000Z</time>
      </trkpt>
      <trkpt lat="45.553593" lon="7.850085">
        <ele>839.88007</ele>
        <time>2024-10-15T11:41:58.000Z</time>
      </trkpt>
      <trkpt lat="45.553602" lon="7.850058">
        <ele>839.89001</ele>
        <time>2024-10-15T11:42:00.000Z</time>
      </trkpt>
      <trkpt lat="45.553605" lon="7.850028">
        <ele>839.84503</ele>
        <time>2024-10-15T11:42:03.000Z</time>
      </trkpt>
      <trkpt lat="45.55362" lon="7.850002">
        <ele>839.7301</ele>
        <time>2024-10-15T11:42:06.000Z</time>
      </trkpt>
      <trkpt lat="45.553628" lon="7.849978">
        <ele>839.53503</ele>
        <time>2024-10-15T11:42:10.000Z</time>
      </trkpt>
      <trkpt lat="45.55361" lon="7.849975">
        <ele>839.14001</ele>
        <time>2024-10-15T11:42:20.000Z</time>
      </trkpt>
      <trkpt lat="45.553605" lon="7.849947">
        <ele>838.75507</ele>
        <time>2024-10-15T11:42:25.000Z</time>
      </trkpt>
      <trkpt lat="45.553612" lon="7.84991">
        <ele>838.37012</ele>
        <time>2024-10-15T11:42:28.000Z</time>
      </trkpt>
      <trkpt lat="45.553628" lon="7.849883">
        <ele>838.02509</ele>
        <time>2024-10-15T11:42:30.000Z</time>
      </trkpt>
      <trkpt lat="45.55364" lon="7.849858">
        <ele>837.73505</ele>
        <time>2024-10-15T11:42:32.000Z</time>
      </trkpt>
      <trkpt lat="45.553643" lon="7.849827">
        <ele>837.42499</ele>
        <time>2024-10-15T11:42:35.000Z</time>
      </trkpt>
      <trkpt lat="45.553637" lon="7.849788">
        <ele>837.11505</ele>
        <time>2024-10-15T11:42:38.000Z</time>
      </trkpt>
      <trkpt lat="45.553648" lon="7.849748">
        <ele>836.79999</ele>
        <time>2024-10-15T11:42:41.000Z</time>
      </trkpt>
      <trkpt lat="45.553647" lon="7.849717">
        <ele>836.505</ele>
        <time>2024-10-15T11:42:43.000Z</time>
      </trkpt>
      <trkpt lat="45.553648" lon="7.849687">
        <ele>836.21991</ele>
        <time>2024-10-15T11:42:46.000Z</time>
      </trkpt>
      <trkpt lat="45.553637" lon="7.849648">
        <ele>835.88495</ele>
        <time>2024-10-15T11:42:50.000Z</time>
      </trkpt>
      <trkpt lat="45.55363" lon="7.849623">
        <ele>835.47491</ele>
        <time>2024-10-15T11:42:52.000Z</time>
      </trkpt>
      <trkpt lat="45.553615" lon="7.849603">
        <ele>834.8999</ele>
        <time>2024-10-15T11:42:55.000Z</time>
      </trkpt>
      <trkpt lat="45.55361" lon="7.849573">
        <ele>834.13495</ele>
        <time>2024-10-15T11:42:59.000Z</time>
      </trkpt>
      <trkpt lat="45.553615" lon="7.849542">
        <ele>833.21497</ele>
        <time>2024-10-15T11:43:02.000Z</time>
      </trkpt>
      <trkpt lat="45.553622" lon="7.849508">
        <ele>832.24988</ele>
        <time>2024-10-15T11:43:05.000Z</time>
      </trkpt>
      <trkpt lat="45.553628" lon="7.849472">
        <ele>831.22986</ele>
        <time>2024-10-15T11:43:08.000Z</time>
      </trkpt>
      <trkpt lat="45.553637" lon="7.849445">
        <ele>830.13489</ele>
        <time>2024-10-15T11:43:11.000Z</time>
      </trkpt>
      <trkpt lat="45.553642" lon="7.84942">
        <ele>829.05487</ele>
        <time>2024-10-15T11:43:13.000Z</time>
      </trkpt>
      <trkpt lat="45.553637" lon="7.849385">
        <ele>827.96991</ele>
        <time>2024-10-15T11:43:16.000Z</time>
      </trkpt>
      <trkpt lat="45.55363" lon="7.849347">
        <ele>826.96991</ele>
        <time>2024-10-15T11:43:19.000Z</time>
      </trkpt>
      <trkpt lat="45.55363" lon="7.849318">
        <ele>825.90985</ele>
        <time>2024-10-15T11:43:21.000Z</time>
      </trkpt>
      <trkpt lat="45.553635" lon="7.84929">
        <ele>824.79993</ele>
        <time>2024-10-15T11:43:23.000Z</time>
      </trkpt>
      <trkpt lat="45.553643" lon="7.849263">
        <ele>823.61993</ele>
        <time>2024-10-15T11:43:25.000Z</time>
      </trkpt>
      <trkpt lat="45.553648" lon="7.849233">
        <ele>822.38995</ele>
        <time>2024-10-15T11:43:27.000Z</time>
      </trkpt>
      <trkpt lat="45.55365" lon="7.849198">
        <ele>821.16492</ele>
        <time>2024-10-15T11:43:30.000Z</time>
      </trkpt>
      <trkpt lat="45.553652" lon="7.849167">
        <ele>819.94989</ele>
        <time>2024-10-15T11:43:33.000Z</time>
      </trkpt>
      <trkpt lat="45.553672" lon="7.849162">
        <ele>818.80988</ele>
        <time>2024-10-15T11:43:40.000Z</time>
      </trkpt>
      <trkpt lat="45.55368" lon="7.84913">
        <ele>817.66492</ele>
        <time>2024-10-15T11:43:43.000Z</time>
      </trkpt>
      <trkpt lat="45.553722" lon="7.849133">
        <ele>816.53485</ele>
        <time>2024-10-15T11:43:53.000Z</time>
      </trkpt>
      <trkpt lat="45.553742" lon="7.849123">
        <ele>815.47986</ele>
        <time>2024-10-15T11:43:56.000Z</time>
      </trkpt>
      <trkpt lat="45.553762" lon="7.849127">
        <ele>814.46985</ele>
        <time>2024-10-15T11:43:58.000Z</time>
      </trkpt>
      <trkpt lat="45.55378" lon="7.849122">
        <ele>813.59979</ele>
        <time>2024-10-15T11:44:00.000Z</time>
      </trkpt>
      <trkpt lat="45.553803" lon="7.849127">
        <ele>812.90979</ele>
        <time>2024-10-15T11:44:02.000Z</time>
      </trkpt>
      <trkpt lat="45.553827" lon="7.849128">
        <ele>812.3598</ele>
        <time>2024-10-15T11:44:05.000Z</time>
      </trkpt>
      <trkpt lat="45.553847" lon="7.84913">
        <ele>811.88483</ele>
        <time>2024-10-15T11:44:11.000Z</time>
      </trkpt>
      <trkpt lat="45.553797" lon="7.849062">
        <ele>811.4848</ele>
        <time>2024-10-15T11:44:38.000Z</time>
      </trkpt>
      <trkpt lat="45.553778" lon="7.849047">
        <ele>811.15485</ele>
        <time>2024-10-15T11:44:41.000Z</time>
      </trkpt>
      <trkpt lat="45.553757" lon="7.84902">
        <ele>810.90485</ele>
        <time>2024-10-15T11:44:43.000Z</time>
      </trkpt>
      <trkpt lat="45.553737" lon="7.84899">
        <ele>810.73486</ele>
        <time>2024-10-15T11:44:45.000Z</time>
      </trkpt>
      <trkpt lat="45.553725" lon="7.848955">
        <ele>810.66486</ele>
        <time>2024-10-15T11:44:48.000Z</time>
      </trkpt>
      <trkpt lat="45.55372" lon="7.84893">
        <ele>810.63483</ele>
        <time>2024-10-15T11:44:51.000Z</time>
      </trkpt>
      <trkpt lat="45.553707" lon="7.84891">
        <ele>810.62976</ele>
        <time>2024-10-15T11:44:53.000Z</time>
      </trkpt>
      <trkpt lat="45.553692" lon="7.848888">
        <ele>810.62482</ele>
        <time>2024-10-15T11:44:56.000Z</time>
      </trkpt>
      <trkpt lat="45.553687" lon="7.848863">
        <ele>810.65485</ele>
        <time>2024-10-15T11:44:58.000Z</time>
      </trkpt>
      <trkpt lat="45.553673" lon="7.848833">
        <ele>810.67487</ele>
        <time>2024-10-15T11:45:01.000Z</time>
      </trkpt>
      <trkpt lat="45.553665" lon="7.84881">
        <ele>810.70984</ele>
        <time>2024-10-15T11:45:03.000Z</time>
      </trkpt>
      <trkpt lat="45.553653" lon="7.848785">
        <ele>810.69489</ele>
        <time>2024-10-15T11:45:05.000Z</time>
      </trkpt>
      <trkpt lat="45.553635" lon="7.848762">
        <ele>810.61987</ele>
        <time>2024-10-15T11:45:10.000Z</time>
      </trkpt>
      <trkpt lat="45.553622" lon="7.84874">
        <ele>810.57489</ele>
        <time>2024-10-15T11:45:12.000Z</time>
      </trkpt>
      <trkpt lat="45.553602" lon="7.848712">
        <ele>810.43494</ele>
        <time>2024-10-15T11:45:15.000Z</time>
      </trkpt>
      <trkpt lat="45.5536" lon="7.848685">
        <ele>810.22491</ele>
        <time>2024-10-15T11:45:18.000Z</time>
      </trkpt>
      <trkpt lat="45.55359" lon="7.848657">
        <ele>809.98987</ele>
        <time>2024-10-15T11:45:22.000Z</time>
      </trkpt>
      <trkpt lat="45.553573" lon="7.848632">
        <ele>809.67987</ele>
        <time>2024-10-15T11:45:26.000Z</time>
      </trkpt>
      <trkpt lat="45.553553" lon="7.84862">
        <ele>809.2699</ele>
        <time>2024-10-15T11:45:29.000Z</time>
      </trkpt>
      <trkpt lat="45.553535" lon="7.848608">
        <ele>808.7699</ele>
        <time>2024-10-15T11:45:31.000Z</time>
      </trkpt>
      <trkpt lat="45.55352" lon="7.848592">
        <ele>808.17487</ele>
        <time>2024-10-15T11:45:33.000Z</time>
      </trkpt>
      <trkpt lat="45.5535" lon="7.848572">
        <ele>807.51984</ele>
        <time>2024-10-15T11:45:36.000Z</time>
      </trkpt>
      <trkpt lat="45.55349" lon="7.84855">
        <ele>806.75983</ele>
        <time>2024-10-15T11:45:41.000Z</time>
      </trkpt>
      <trkpt lat="45.553467" lon="7.848548">
        <ele>805.94983</ele>
        <time>2024-10-15T11:45:47.000Z</time>
      </trkpt>
      <trkpt lat="45.553448" lon="7.848538">
        <ele>805.11981</ele>
        <time>2024-10-15T11:45:48.000Z</time>
      </trkpt>
      <trkpt lat="45.55343" lon="7.848535">
        <ele>804.26483</ele>
        <time>2024-10-15T11:45:49.000Z</time>
      </trkpt>
      <trkpt lat="45.553412" lon="7.848525">
        <ele>803.40985</ele>
        <time>2024-10-15T11:45:50.000Z</time>
      </trkpt>
      <trkpt lat="45.55339" lon="7.848517">
        <ele>802.58484</ele>
        <time>2024-10-15T11:45:51.000Z</time>
      </trkpt>
      <trkpt lat="45.553358" lon="7.8485">
        <ele>801.73987</ele>
        <time>2024-10-15T11:45:53.000Z</time>
      </trkpt>
      <trkpt lat="45.553333" lon="7.848498">
        <ele>800.95483</ele>
        <time>2024-10-15T11:45:55.000Z</time>
      </trkpt>
      <trkpt lat="45.553313" lon="7.848478">
        <ele>800.23981</ele>
        <time>2024-10-15T11:45:58.000Z</time>
      </trkpt>
      <trkpt lat="45.553293" lon="7.848475">
        <ele>799.52979</ele>
        <time>2024-10-15T11:46:01.000Z</time>
      </trkpt>
      <trkpt lat="45.553272" lon="7.848463">
        <ele>798.88477</ele>
        <time>2024-10-15T11:46:03.000Z</time>
      </trkpt>
      <trkpt lat="45.55325" lon="7.848438">
        <ele>798.19977</ele>
        <time>2024-10-15T11:46:05.000Z</time>
      </trkpt>
      <trkpt lat="45.553235" lon="7.848412">
        <ele>797.62976</ele>
        <time>2024-10-15T11:46:07.000Z</time>
      </trkpt>
      <trkpt lat="45.553222" lon="7.848392">
        <ele>797.10474</ele>
        <time>2024-10-15T11:46:10.000Z</time>
      </trkpt>
      <trkpt lat="45.553198" lon="7.84838">
        <ele>796.54974</ele>
        <time>2024-10-15T11:46:13.000Z</time>
      </trkpt>
      <trkpt lat="45.553177" lon="7.848378">
        <ele>795.99976</ele>
        <time>2024-10-15T11:46:16.000Z</time>
      </trkpt>
      <trkpt lat="45.553152" lon="7.848373">
        <ele>795.52979</ele>
        <time>2024-10-15T11:46:19.000Z</time>
      </trkpt>
      <trkpt lat="45.553128" lon="7.848383">
        <ele>795.1048</ele>
        <time>2024-10-15T11:46:22.000Z</time>
      </trkpt>
      <trkpt lat="45.553112" lon="7.848395">
        <ele>794.69983</ele>
        <time>2024-10-15T11:46:25.000Z</time>
      </trkpt>
      <trkpt lat="45.553092" lon="7.848407">
        <ele>794.30981</ele>
        <time>2024-10-15T11:46:30.000Z</time>
      </trkpt>
      <trkpt lat="45.553072" lon="7.848412">
        <ele>793.98981</ele>
        <time>2024-10-15T11:46:32.000Z</time>
      </trkpt>
      <trkpt lat="45.553047" lon="7.84842">
        <ele>793.65479</ele>
        <time>2024-10-15T11:46:35.000Z</time>
      </trkpt>
      <trkpt lat="45.553028" lon="7.848425">
        <ele>793.26978</ele>
        <time>2024-10-15T11:46:37.000Z</time>
      </trkpt>
      <trkpt lat="45.55301" lon="7.84844">
        <ele>792.83978</ele>
        <time>2024-10-15T11:46:39.000Z</time>
      </trkpt>
      <trkpt lat="45.55299" lon="7.848443">
        <ele>792.36975</ele>
        <time>2024-10-15T11:46:41.000Z</time>
      </trkpt>
      <trkpt lat="45.552963" lon="7.848443">
        <ele>791.88477</ele>
        <time>2024-10-15T11:46:43.000Z</time>
      </trkpt>
      <trkpt lat="45.552945" lon="7.848443">
        <ele>791.39978</ele>
        <time>2024-10-15T11:46:45.000Z</time>
      </trkpt>
      <trkpt lat="45.552913" lon="7.848453">
        <ele>790.82971</ele>
        <time>2024-10-15T11:46:48.000Z</time>
      </trkpt>
      <trkpt lat="45.552883" lon="7.848445">
        <ele>790.11475</ele>
        <time>2024-10-15T11:46:50.000Z</time>
      </trkpt>
      <trkpt lat="45.55286" lon="7.848447">
        <ele>789.36475</ele>
        <time>2024-10-15T11:46:53.000Z</time>
      </trkpt>
      <trkpt lat="45.552842" lon="7.848438">
        <ele>788.60974</ele>
        <time>2024-10-15T11:46:56.000Z</time>
      </trkpt>
      <trkpt lat="45.552822" lon="7.848432">
        <ele>787.86475</ele>
        <time>2024-10-15T11:47:00.000Z</time>
      </trkpt>
      <trkpt lat="45.55279" lon="7.848437">
        <ele>787.06976</ele>
        <time>2024-10-15T11:47:02.000Z</time>
      </trkpt>
      <trkpt lat="45.552765" lon="7.84844">
        <ele>786.26477</ele>
        <time>2024-10-15T11:47:04.000Z</time>
      </trkpt>
      <trkpt lat="45.55274" lon="7.84844">
        <ele>785.46478</ele>
        <time>2024-10-15T11:47:07.000Z</time>
      </trkpt>
      <trkpt lat="45.552712" lon="7.848433">
        <ele>784.6748</ele>
        <time>2024-10-15T11:47:09.000Z</time>
      </trkpt>
      <trkpt lat="45.552692" lon="7.848435">
        <ele>783.81976</ele>
        <time>2024-10-15T11:47:11.000Z</time>
      </trkpt>
      <trkpt lat="45.552673" lon="7.848427">
        <ele>782.95978</ele>
        <time>2024-10-15T11:47:15.000Z</time>
      </trkpt>
      <trkpt lat="45.552647" lon="7.848425">
        <ele>782.17474</ele>
        <time>2024-10-15T11:47:19.000Z</time>
      </trkpt>
      <trkpt lat="45.552623" lon="7.84843">
        <ele>781.41473</ele>
        <time>2024-10-15T11:47:21.000Z</time>
      </trkpt>
      <trkpt lat="45.552602" lon="7.848437">
        <ele>780.62476</ele>
        <time>2024-10-15T11:47:24.000Z</time>
      </trkpt>
      <trkpt lat="45.55258" lon="7.848432">
        <ele>779.83972</ele>
        <time>2024-10-15T11:47:26.000Z</time>
      </trkpt>
      <trkpt lat="45.552555" lon="7.848425">
        <ele>779.0697</ele>
        <time>2024-10-15T11:47:29.000Z</time>
      </trkpt>
      <trkpt lat="45.55255" lon="7.8484">
        <ele>778.30469</ele>
        <time>2024-10-15T11:47:33.000Z</time>
      </trkpt>
      <trkpt lat="45.552555" lon="7.848367">
        <ele>777.53967</ele>
        <time>2024-10-15T11:47:36.000Z</time>
      </trkpt>
      <trkpt lat="45.552568" lon="7.848342">
        <ele>776.77966</ele>
        <time>2024-10-15T11:47:38.000Z</time>
      </trkpt>
      <trkpt lat="45.552573" lon="7.848307">
        <ele>776.03473</ele>
        <time>2024-10-15T11:47:40.000Z</time>
      </trkpt>
      <trkpt lat="45.552587" lon="7.848267">
        <ele>775.36475</ele>
        <time>2024-10-15T11:47:42.000Z</time>
      </trkpt>
      <trkpt lat="45.552592" lon="7.848232">
        <ele>774.75977</ele>
        <time>2024-10-15T11:47:45.000Z</time>
      </trkpt>
      <trkpt lat="45.552602" lon="7.848205">
        <ele>774.19476</ele>
        <time>2024-10-15T11:47:47.000Z</time>
      </trkpt>
      <trkpt lat="45.55261" lon="7.848177">
        <ele>773.68976</ele>
        <time>2024-10-15T11:47:49.000Z</time>
      </trkpt>
      <trkpt lat="45.55261" lon="7.848142">
        <ele>773.21979</ele>
        <time>2024-10-15T11:47:52.000Z</time>
      </trkpt>
      <trkpt lat="45.552603" lon="7.848115">
        <ele>772.73975</ele>
        <time>2024-10-15T11:47:55.000Z</time>
      </trkpt>
      <trkpt lat="45.552585" lon="7.848105">
        <ele>772.28473</ele>
        <time>2024-10-15T11:47:57.000Z</time>
      </trkpt>
      <trkpt lat="45.552567" lon="7.8481">
        <ele>771.82971</ele>
        <time>2024-10-15T11:48:00.000Z</time>
      </trkpt>
      <trkpt lat="45.552542" lon="7.848092">
        <ele>771.36469</ele>
        <time>2024-10-15T11:48:04.000Z</time>
      </trkpt>
      <trkpt lat="45.552522" lon="7.84809">
        <ele>770.96973</ele>
        <time>2024-10-15T11:48:07.000Z</time>
      </trkpt>
      <trkpt lat="45.552503" lon="7.848083">
        <ele>770.59473</ele>
        <time>2024-10-15T11:48:09.000Z</time>
      </trkpt>
      <trkpt lat="45.552483" lon="7.848065">
        <ele>770.17468</ele>
        <time>2024-10-15T11:48:16.000Z</time>
      </trkpt>
      <trkpt lat="45.552467" lon="7.848045">
        <ele>769.73474</ele>
        <time>2024-10-15T11:48:19.000Z</time>
      </trkpt>
      <trkpt lat="45.552448" lon="7.848038">
        <ele>769.30475</ele>
        <time>2024-10-15T11:48:22.000Z</time>
      </trkpt>
      <trkpt lat="45.552428" lon="7.848038">
        <ele>768.85974</ele>
        <time>2024-10-15T11:48:25.000Z</time>
      </trkpt>
      <trkpt lat="45.552407" lon="7.848032">
        <ele>768.4198</ele>
        <time>2024-10-15T11:48:27.000Z</time>
      </trkpt>
      <trkpt lat="45.552383" lon="7.84803">
        <ele>767.87976</ele>
        <time>2024-10-15T11:48:35.000Z</time>
      </trkpt>
      <trkpt lat="45.552357" lon="7.848017">
        <ele>767.33478</ele>
        <time>2024-10-15T11:48:38.000Z</time>
      </trkpt>
      <trkpt lat="45.552337" lon="7.848005">
        <ele>766.76978</ele>
        <time>2024-10-15T11:48:40.000Z</time>
      </trkpt>
      <trkpt lat="45.55232" lon="7.847993">
        <ele>766.17975</ele>
        <time>2024-10-15T11:48:42.000Z</time>
      </trkpt>
      <trkpt lat="45.552302" lon="7.847982">
        <ele>765.55475</ele>
        <time>2024-10-15T11:48:44.000Z</time>
      </trkpt>
      <trkpt lat="45.552283" lon="7.847997">
        <ele>764.83972</ele>
        <time>2024-10-15T11:48:48.000Z</time>
      </trkpt>
      <trkpt lat="45.552263" lon="7.84799">
        <ele>764.08478</ele>
        <time>2024-10-15T11:48:50.000Z</time>
      </trkpt>
      <trkpt lat="45.552243" lon="7.847988">
        <ele>763.27979</ele>
        <time>2024-10-15T11:48:52.000Z</time>
      </trkpt>
      <trkpt lat="45.552227" lon="7.848007">
        <ele>762.46979</ele>
        <time>2024-10-15T11:48:54.000Z</time>
      </trkpt>
      <trkpt lat="45.552212" lon="7.84803">
        <ele>761.72479</ele>
        <time>2024-10-15T11:48:57.000Z</time>
      </trkpt>
      <trkpt lat="45.552198" lon="7.84805">
        <ele>760.99982</ele>
        <time>2024-10-15T11:49:00.000Z</time>
      </trkpt>
      <trkpt lat="45.552177" lon="7.848045">
        <ele>760.31482</ele>
        <time>2024-10-15T11:49:03.000Z</time>
      </trkpt>
      <trkpt lat="45.552153" lon="7.848038">
        <ele>759.66486</ele>
        <time>2024-10-15T11:49:06.000Z</time>
      </trkpt>
      <trkpt lat="45.552132" lon="7.848035">
        <ele>758.96985</ele>
        <time>2024-10-15T11:49:08.000Z</time>
      </trkpt>
      <trkpt lat="45.552113" lon="7.848042">
        <ele>758.22986</ele>
        <time>2024-10-15T11:49:12.000Z</time>
      </trkpt>
      <trkpt lat="45.552092" lon="7.848025">
        <ele>757.50989</ele>
        <time>2024-10-15T11:49:15.000Z</time>
      </trkpt>
      <trkpt lat="45.55207" lon="7.848035">
        <ele>756.79486</ele>
        <time>2024-10-15T11:49:19.000Z</time>
      </trkpt>
      <trkpt lat="45.552053" lon="7.84805">
        <ele>756.05487</ele>
        <time>2024-10-15T11:49:22.000Z</time>
      </trkpt>
      <trkpt lat="45.55203" lon="7.848058">
        <ele>755.33484</ele>
        <time>2024-10-15T11:49:24.000Z</time>
      </trkpt>
      <trkpt lat="45.552012" lon="7.848063">
        <ele>754.62488</ele>
        <time>2024-10-15T11:49:26.000Z</time>
      </trkpt>
      <trkpt lat="45.551993" lon="7.848063">
        <ele>754.05988</ele>
        <time>2024-10-15T11:49:28.000Z</time>
      </trkpt>
      <trkpt lat="45.551975" lon="7.848058">
        <ele>753.54993</ele>
        <time>2024-10-15T11:49:30.000Z</time>
      </trkpt>
      <trkpt lat="45.551955" lon="7.848062">
        <ele>753.06995</ele>
        <time>2024-10-15T11:49:33.000Z</time>
      </trkpt>
      <trkpt lat="45.551937" lon="7.848042">
        <ele>752.60999</ele>
        <time>2024-10-15T11:49:36.000Z</time>
      </trkpt>
      <trkpt lat="45.551922" lon="7.848013">
        <ele>752.19995</ele>
        <time>2024-10-15T11:49:41.000Z</time>
      </trkpt>
      <trkpt lat="45.551908" lon="7.847993">
        <ele>751.85992</ele>
        <time>2024-10-15T11:49:44.000Z</time>
      </trkpt>
      <trkpt lat="45.551893" lon="7.847965">
        <ele>751.55487</ele>
        <time>2024-10-15T11:49:46.000Z</time>
      </trkpt>
      <trkpt lat="45.551877" lon="7.847938">
        <ele>751.27991</ele>
        <time>2024-10-15T11:49:48.000Z</time>
      </trkpt>
      <trkpt lat="45.551862" lon="7.847888">
        <ele>751.0249</ele>
        <time>2024-10-15T11:49:51.000Z</time>
      </trkpt>
      <trkpt lat="45.55185" lon="7.84785">
        <ele>750.7749</ele>
        <time>2024-10-15T11:49:53.000Z</time>
      </trkpt>
      <trkpt lat="45.551847" lon="7.847813">
        <ele>750.53992</ele>
        <time>2024-10-15T11:49:55.000Z</time>
      </trkpt>
      <trkpt lat="45.551845" lon="7.847778">
        <ele>750.35492</ele>
        <time>2024-10-15T11:49:57.000Z</time>
      </trkpt>
      <trkpt lat="45.55186" lon="7.847748">
        <ele>750.17993</ele>
        <time>2024-10-15T11:49:59.000Z</time>
      </trkpt>
      <trkpt lat="45.551877" lon="7.847727">
        <ele>750.04492</ele>
        <time>2024-10-15T11:50:02.000Z</time>
      </trkpt>
      <trkpt lat="45.551892" lon="7.84771">
        <ele>749.91492</ele>
        <time>2024-10-15T11:50:09.000Z</time>
      </trkpt>
      <trkpt lat="45.551912" lon="7.847675">
        <ele>749.68988</ele>
        <time>2024-10-15T11:50:15.000Z</time>
      </trkpt>
      <trkpt lat="45.551932" lon="7.847665">
        <ele>749.44989</ele>
        <time>2024-10-15T11:50:17.000Z</time>
      </trkpt>
      <trkpt lat="45.551957" lon="7.847632">
        <ele>749.2049</ele>
        <time>2024-10-15T11:50:19.000Z</time>
      </trkpt>
      <trkpt lat="45.551972" lon="7.847613">
        <ele>748.88489</ele>
        <time>2024-10-15T11:50:24.000Z</time>
      </trkpt>
      <trkpt lat="45.551992" lon="7.847593">
        <ele>748.50989</ele>
        <time>2024-10-15T11:50:28.000Z</time>
      </trkpt>
      <trkpt lat="45.552012" lon="7.847583">
        <ele>748.10492</ele>
        <time>2024-10-15T11:50:30.000Z</time>
      </trkpt>
      <trkpt lat="45.552035" lon="7.847565">
        <ele>747.67993</ele>
        <time>2024-10-15T11:50:32.000Z</time>
      </trkpt>
      <trkpt lat="45.552058" lon="7.84755">
        <ele>747.23492</ele>
        <time>2024-10-15T11:50:34.000Z</time>
      </trkpt>
      <trkpt lat="45.552072" lon="7.84753">
        <ele>746.77991</ele>
        <time>2024-10-15T11:50:36.000Z</time>
      </trkpt>
      <trkpt lat="45.55209" lon="7.847505">
        <ele>746.23486</ele>
        <time>2024-10-15T11:50:39.000Z</time>
      </trkpt>
      <trkpt lat="45.5521" lon="7.847482">
        <ele>745.69989</ele>
        <time>2024-10-15T11:50:41.000Z</time>
      </trkpt>
      <trkpt lat="45.55211" lon="7.847457">
        <ele>745.12488</ele>
        <time>2024-10-15T11:50:44.000Z</time>
      </trkpt>
      <trkpt lat="45.552132" lon="7.847437">
        <ele>744.49988</ele>
        <time>2024-10-15T11:50:47.000Z</time>
      </trkpt>
      <trkpt lat="45.552147" lon="7.847418">
        <ele>743.7749</ele>
        <time>2024-10-15T11:50:51.000Z</time>
      </trkpt>
      <trkpt lat="45.552157" lon="7.847388">
        <ele>742.94989</ele>
        <time>2024-10-15T11:50:56.000Z</time>
      </trkpt>
      <trkpt lat="45.552142" lon="7.847373">
        <ele>742.05487</ele>
        <time>2024-10-15T11:50:58.000Z</time>
      </trkpt>
      <trkpt lat="45.552138" lon="7.8474">
        <ele>741.02991</ele>
        <time>2024-10-15T11:51:01.000Z</time>
      </trkpt>
      <trkpt lat="45.552127" lon="7.847423">
        <ele>739.97986</ele>
        <time>2024-10-15T11:51:04.000Z</time>
      </trkpt>
      <trkpt lat="45.55213" lon="7.847388">
        <ele>738.8949</ele>
        <time>2024-10-15T11:51:11.000Z</time>
      </trkpt>
      <trkpt lat="45.552133" lon="7.84736">
        <ele>737.79993</ele>
        <time>2024-10-15T11:51:13.000Z</time>
      </trkpt>
      <trkpt lat="45.55214" lon="7.847333">
        <ele>736.74988</ele>
        <time>2024-10-15T11:51:15.000Z</time>
      </trkpt>
      <trkpt lat="45.55215" lon="7.8473">
        <ele>735.74988</ele>
        <time>2024-10-15T11:51:17.000Z</time>
      </trkpt>
      <trkpt lat="45.552162" lon="7.847265">
        <ele>734.80994</ele>
        <time>2024-10-15T11:51:19.000Z</time>
      </trkpt>
      <trkpt lat="45.552177" lon="7.847245">
        <ele>733.94489</ele>
        <time>2024-10-15T11:51:23.000Z</time>
      </trkpt>
      <trkpt lat="45.552195" lon="7.847232">
        <ele>733.13989</ele>
        <time>2024-10-15T11:51:26.000Z</time>
      </trkpt>
      <trkpt lat="45.552198" lon="7.847188">
        <ele>732.37488</ele>
        <time>2024-10-15T11:51:29.000Z</time>
      </trkpt>
      <trkpt lat="45.552207" lon="7.847163">
        <ele>731.63983</ele>
        <time>2024-10-15T11:51:31.000Z</time>
      </trkpt>
      <trkpt lat="45.552218" lon="7.847132">
        <ele>730.94489</ele>
        <time>2024-10-15T11:51:34.000Z</time>
      </trkpt>
      <trkpt lat="45.552232" lon="7.847113">
        <ele>730.28485</ele>
        <time>2024-10-15T11:51:36.000Z</time>
      </trkpt>
      <trkpt lat="45.552243" lon="7.847075">
        <ele>729.68988</ele>
        <time>2024-10-15T11:51:39.000Z</time>
      </trkpt>
      <trkpt lat="45.552257" lon="7.847057">
        <ele>729.06488</ele>
        <time>2024-10-15T11:51:44.000Z</time>
      </trkpt>
      <trkpt lat="45.552262" lon="7.847028">
        <ele>728.43988</ele>
        <time>2024-10-15T11:51:47.000Z</time>
      </trkpt>
      <trkpt lat="45.55229" lon="7.84701">
        <ele>727.79486</ele>
        <time>2024-10-15T11:51:50.000Z</time>
      </trkpt>
      <trkpt lat="45.55231" lon="7.846997">
        <ele>727.18982</ele>
        <time>2024-10-15T11:51:52.000Z</time>
      </trkpt>
      <trkpt lat="45.552337" lon="7.846983">
        <ele>726.64484</ele>
        <time>2024-10-15T11:51:55.000Z</time>
      </trkpt>
      <trkpt lat="45.552355" lon="7.846958">
        <ele>726.12982</ele>
        <time>2024-10-15T11:51:58.000Z</time>
      </trkpt>
      <trkpt lat="45.552367" lon="7.846935">
        <ele>725.65979</ele>
        <time>2024-10-15T11:52:01.000Z</time>
      </trkpt>
      <trkpt lat="45.552387" lon="7.846955">
        <ele>725.12482</ele>
        <time>2024-10-15T11:52:05.000Z</time>
      </trkpt>
      <trkpt lat="45.552407" lon="7.846933">
        <ele>724.55481</ele>
        <time>2024-10-15T11:52:08.000Z</time>
      </trkpt>
      <trkpt lat="45.55242" lon="7.846913">
        <ele>723.97986</ele>
        <time>2024-10-15T11:52:10.000Z</time>
      </trkpt>
      <trkpt lat="45.55243" lon="7.846888">
        <ele>723.38483</ele>
        <time>2024-10-15T11:52:13.000Z</time>
      </trkpt>
      <trkpt lat="45.55247" lon="7.846877">
        <ele>722.62482</ele>
        <time>2024-10-15T11:53:02.000Z</time>
      </trkpt>
      <trkpt lat="45.552492" lon="7.846875">
        <ele>721.76477</ele>
        <time>2024-10-15T11:53:05.000Z</time>
      </trkpt>
      <trkpt lat="45.552517" lon="7.846872">
        <ele>720.85486</ele>
        <time>2024-10-15T11:53:07.000Z</time>
      </trkpt>
      <trkpt lat="45.552545" lon="7.846862">
        <ele>719.89484</ele>
        <time>2024-10-15T11:53:09.000Z</time>
      </trkpt>
      <trkpt lat="45.55257" lon="7.846848">
        <ele>718.89984</ele>
        <time>2024-10-15T11:53:11.000Z</time>
      </trkpt>
      <trkpt lat="45.552598" lon="7.846848">
        <ele>717.86487</ele>
        <time>2024-10-15T11:53:13.000Z</time>
      </trkpt>
      <trkpt lat="45.552628" lon="7.846853">
        <ele>716.73987</ele>
        <time>2024-10-15T11:53:15.000Z</time>
      </trkpt>
      <trkpt lat="45.552657" lon="7.846873">
        <ele>715.51483</ele>
        <time>2024-10-15T11:53:17.000Z</time>
      </trkpt>
      <trkpt lat="45.552688" lon="7.846863">
        <ele>714.24982</ele>
        <time>2024-10-15T11:53:19.000Z</time>
      </trkpt>
      <trkpt lat="45.552717" lon="7.846853">
        <ele>712.93982</ele>
        <time>2024-10-15T11:53:21.000Z</time>
      </trkpt>
      <trkpt lat="45.552735" lon="7.846848">
        <ele>711.65485</ele>
        <time>2024-10-15T11:53:22.000Z</time>
      </trkpt>
      <trkpt lat="45.552763" lon="7.846838">
        <ele>710.3949</ele>
        <time>2024-10-15T11:53:24.000Z</time>
      </trkpt>
      <trkpt lat="45.552782" lon="7.846835">
        <ele>709.13989</ele>
        <time>2024-10-15T11:53:25.000Z</time>
      </trkpt>
      <trkpt lat="45.552805" lon="7.846818">
        <ele>707.86993</ele>
        <time>2024-10-15T11:53:27.000Z</time>
      </trkpt>
      <trkpt lat="45.552823" lon="7.846795">
        <ele>706.61993</ele>
        <time>2024-10-15T11:53:29.000Z</time>
      </trkpt>
      <trkpt lat="45.552853" lon="7.84679">
        <ele>705.35992</ele>
        <time>2024-10-15T11:53:31.000Z</time>
      </trkpt>
      <trkpt lat="45.552878" lon="7.846775">
        <ele>704.19495</ele>
        <time>2024-10-15T11:53:33.000Z</time>
      </trkpt>
      <trkpt lat="45.55291" lon="7.846753">
        <ele>703.09491</ele>
        <time>2024-10-15T11:53:35.000Z</time>
      </trkpt>
      <trkpt lat="45.552927" lon="7.846732">
        <ele>702.03491</ele>
        <time>2024-10-15T11:53:36.000Z</time>
      </trkpt>
      <trkpt lat="45.552942" lon="7.846707">
        <ele>701.05493</ele>
        <time>2024-10-15T11:53:38.000Z</time>
      </trkpt>
      <trkpt lat="45.552958" lon="7.84669">
        <ele>700.25989</ele>
        <time>2024-10-15T11:53:40.000Z</time>
      </trkpt>
      <trkpt lat="45.55298" lon="7.846675">
        <ele>699.60992</ele>
        <time>2024-10-15T11:53:42.000Z</time>
      </trkpt>
      <trkpt lat="45.553008" lon="7.84668">
        <ele>699.06488</ele>
        <time>2024-10-15T11:53:44.000Z</time>
      </trkpt>
      <trkpt lat="45.553038" lon="7.84668">
        <ele>698.61987</ele>
        <time>2024-10-15T11:53:46.000Z</time>
      </trkpt>
      <trkpt lat="45.553063" lon="7.846675">
        <ele>698.21985</ele>
        <time>2024-10-15T11:53:48.000Z</time>
      </trkpt>
      <trkpt lat="45.553088" lon="7.846663">
        <ele>697.84985</ele>
        <time>2024-10-15T11:53:50.000Z</time>
      </trkpt>
      <trkpt lat="45.553112" lon="7.846647">
        <ele>697.56982</ele>
        <time>2024-10-15T11:53:52.000Z</time>
      </trkpt>
      <trkpt lat="45.55313" lon="7.846627">
        <ele>697.44482</ele>
        <time>2024-10-15T11:53:56.000Z</time>
      </trkpt>
      <trkpt lat="45.553155" lon="7.846615">
        <ele>697.31982</ele>
        <time>2024-10-15T11:53:59.000Z</time>
      </trkpt>
      <trkpt lat="45.553182" lon="7.846612">
        <ele>697.26477</ele>
        <time>2024-10-15T11:54:01.000Z</time>
      </trkpt>
      <trkpt lat="45.553197" lon="7.846593">
        <ele>697.15979</ele>
        <time>2024-10-15T11:54:03.000Z</time>
      </trkpt>
      <trkpt lat="45.553223" lon="7.846587">
        <ele>697.00977</ele>
        <time>2024-10-15T11:54:06.000Z</time>
      </trkpt>
      <trkpt lat="45.553247" lon="7.846583">
        <ele>696.86975</ele>
        <time>2024-10-15T11:54:08.000Z</time>
      </trkpt>
      <trkpt lat="45.553273" lon="7.846587">
        <ele>696.71472</ele>
        <time>2024-10-15T11:54:10.000Z</time>
      </trkpt>
      <trkpt lat="45.553292" lon="7.84658">
        <ele>696.51971</ele>
        <time>2024-10-15T11:54:12.000Z</time>
      </trkpt>
      <trkpt lat="45.553307" lon="7.846563">
        <ele>696.34973</ele>
        <time>2024-10-15T11:54:14.000Z</time>
      </trkpt>
      <trkpt lat="45.553328" lon="7.846555">
        <ele>696.15472</ele>
        <time>2024-10-15T11:54:18.000Z</time>
      </trkpt>
      <trkpt lat="45.553348" lon="7.846538">
        <ele>695.90472</ele>
        <time>2024-10-15T11:54:22.000Z</time>
      </trkpt>
      <trkpt lat="45.553367" lon="7.846523">
        <ele>695.54968</ele>
        <time>2024-10-15T11:54:25.000Z</time>
      </trkpt>
      <trkpt lat="45.55339" lon="7.84651">
        <ele>695.05969</ele>
        <time>2024-10-15T11:54:28.000Z</time>
      </trkpt>
      <trkpt lat="45.553408" lon="7.846493">
        <ele>694.46472</ele>
        <time>2024-10-15T11:54:30.000Z</time>
      </trkpt>
      <trkpt lat="45.553428" lon="7.846485">
        <ele>693.74475</ele>
        <time>2024-10-15T11:54:32.000Z</time>
      </trkpt>
      <trkpt lat="45.553447" lon="7.846473">
        <ele>692.97473</ele>
        <time>2024-10-15T11:54:34.000Z</time>
      </trkpt>
      <trkpt lat="45.553465" lon="7.846463">
        <ele>692.12976</ele>
        <time>2024-10-15T11:54:37.000Z</time>
      </trkpt>
      <trkpt lat="45.553482" lon="7.846442">
        <ele>691.22974</ele>
        <time>2024-10-15T11:54:41.000Z</time>
      </trkpt>
      <trkpt lat="45.5535" lon="7.846422">
        <ele>690.28973</ele>
        <time>2024-10-15T11:54:45.000Z</time>
      </trkpt>
      <trkpt lat="45.553513" lon="7.846398">
        <ele>689.31976</ele>
        <time>2024-10-15T11:54:47.000Z</time>
      </trkpt>
      <trkpt lat="45.553533" lon="7.846395">
        <ele>688.25983</ele>
        <time>2024-10-15T11:54:52.000Z</time>
      </trkpt>
      <trkpt lat="45.553547" lon="7.846373">
        <ele>687.30981</ele>
        <time>2024-10-15T11:54:59.000Z</time>
      </trkpt>
      <trkpt lat="45.553557" lon="7.846348">
        <ele>686.38483</ele>
        <time>2024-10-15T11:55:05.000Z</time>
      </trkpt>
      <trkpt lat="45.553573" lon="7.846328">
        <ele>685.53986</ele>
        <time>2024-10-15T11:55:07.000Z</time>
      </trkpt>
      <trkpt lat="45.553593" lon="7.846325">
        <ele>684.77478</ele>
        <time>2024-10-15T11:55:11.000Z</time>
      </trkpt>
      <trkpt lat="45.553567" lon="7.846342">
        <ele>683.86481</ele>
        <time>2024-10-15T11:55:30.000Z</time>
      </trkpt>
      <trkpt lat="45.553548" lon="7.846352">
        <ele>682.99982</ele>
        <time>2024-10-15T11:55:34.000Z</time>
      </trkpt>
      <trkpt lat="45.553547" lon="7.846325">
        <ele>682.28479</ele>
        <time>2024-10-15T11:55:41.000Z</time>
      </trkpt>
      <trkpt lat="45.553543" lon="7.846297">
        <ele>681.64484</ele>
        <time>2024-10-15T11:55:43.000Z</time>
      </trkpt>
      <trkpt lat="45.553538" lon="7.846267">
        <ele>681.15485</ele>
        <time>2024-10-15T11:55:47.000Z</time>
      </trkpt>
      <trkpt lat="45.553522" lon="7.846255">
        <ele>680.8598</ele>
        <time>2024-10-15T11:55:50.000Z</time>
      </trkpt>
      <trkpt lat="45.5535" lon="7.846245">
        <ele>680.68481</ele>
        <time>2024-10-15T11:55:52.000Z</time>
      </trkpt>
      <trkpt lat="45.553488" lon="7.846223">
        <ele>680.62482</ele>
        <time>2024-10-15T11:55:55.000Z</time>
      </trkpt>
      <trkpt lat="45.553487" lon="7.846195">
        <ele>680.6748</ele>
        <time>2024-10-15T11:55:57.000Z</time>
      </trkpt>
      <trkpt lat="45.553487" lon="7.846168">
        <ele>680.82483</ele>
        <time>2024-10-15T11:56:00.000Z</time>
      </trkpt>
      <trkpt lat="45.5535" lon="7.846138">
        <ele>681.00482</ele>
        <time>2024-10-15T11:56:04.000Z</time>
      </trkpt>
      <trkpt lat="45.553497" lon="7.846112">
        <ele>681.2348</ele>
        <time>2024-10-15T11:56:06.000Z</time>
      </trkpt>
      <trkpt lat="45.5535" lon="7.846085">
        <ele>681.51477</ele>
        <time>2024-10-15T11:56:09.000Z</time>
      </trkpt>
      <trkpt lat="45.553495" lon="7.846055">
        <ele>681.68481</ele>
        <time>2024-10-15T11:56:14.000Z</time>
      </trkpt>
      <trkpt lat="45.553482" lon="7.846028">
        <ele>681.69476</ele>
        <time>2024-10-15T11:56:18.000Z</time>
      </trkpt>
      <trkpt lat="45.553465" lon="7.846012">
        <ele>681.56476</ele>
        <time>2024-10-15T11:56:21.000Z</time>
      </trkpt>
      <trkpt lat="45.553458" lon="7.845982">
        <ele>681.30975</ele>
        <time>2024-10-15T11:56:25.000Z</time>
      </trkpt>
      <trkpt lat="45.553448" lon="7.845958">
        <ele>681.00476</ele>
        <time>2024-10-15T11:56:28.000Z</time>
      </trkpt>
      <trkpt lat="45.553425" lon="7.845952">
        <ele>680.61475</ele>
        <time>2024-10-15T11:56:31.000Z</time>
      </trkpt>
      <trkpt lat="45.553403" lon="7.845947">
        <ele>680.11975</ele>
        <time>2024-10-15T11:56:34.000Z</time>
      </trkpt>
      <trkpt lat="45.55338" lon="7.845937">
        <ele>679.76978</ele>
        <time>2024-10-15T11:56:37.000Z</time>
      </trkpt>
      <trkpt lat="45.553362" lon="7.845915">
        <ele>679.43982</ele>
        <time>2024-10-15T11:56:39.000Z</time>
      </trkpt>
      <trkpt lat="45.553352" lon="7.845893">
        <ele>679.02979</ele>
        <time>2024-10-15T11:56:41.000Z</time>
      </trkpt>
      <trkpt lat="45.553342" lon="7.845868">
        <ele>678.55975</ele>
        <time>2024-10-15T11:56:44.000Z</time>
      </trkpt>
      <trkpt lat="45.553337" lon="7.845837">
        <ele>677.96472</ele>
        <time>2024-10-15T11:56:48.000Z</time>
      </trkpt>
      <trkpt lat="45.553337" lon="7.845802">
        <ele>677.20978</ele>
        <time>2024-10-15T11:56:51.000Z</time>
      </trkpt>
      <trkpt lat="45.55334" lon="7.845762">
        <ele>676.36975</ele>
        <time>2024-10-15T11:56:54.000Z</time>
      </trkpt>
      <trkpt lat="45.553358" lon="7.845763">
        <ele>675.40479</ele>
        <time>2024-10-15T11:57:01.000Z</time>
      </trkpt>
      <trkpt lat="45.553365" lon="7.845733">
        <ele>674.46478</ele>
        <time>2024-10-15T11:57:21.000Z</time>
      </trkpt>
      <trkpt lat="45.553378" lon="7.845763">
        <ele>673.52985</ele>
        <time>2024-10-15T11:57:24.000Z</time>
      </trkpt>
      <trkpt lat="45.553382" lon="7.84579">
        <ele>672.55981</ele>
        <time>2024-10-15T11:57:26.000Z</time>
      </trkpt>
      <trkpt lat="45.55338" lon="7.845823">
        <ele>671.61487</ele>
        <time>2024-10-15T11:57:29.000Z</time>
      </trkpt>
      <trkpt lat="45.55338" lon="7.845853">
        <ele>670.68488</ele>
        <time>2024-10-15T11:57:31.000Z</time>
      </trkpt>
      <trkpt lat="45.553398" lon="7.845878">
        <ele>669.91986</ele>
        <time>2024-10-15T11:57:34.000Z</time>
      </trkpt>
      <trkpt lat="45.553415" lon="7.845902">
        <ele>669.29486</ele>
        <time>2024-10-15T11:57:36.000Z</time>
      </trkpt>
      <trkpt lat="45.553432" lon="7.845927">
        <ele>668.80988</ele>
        <time>2024-10-15T11:57:39.000Z</time>
      </trkpt>
      <trkpt lat="45.553447" lon="7.845947">
        <ele>668.35486</ele>
        <time>2024-10-15T11:57:41.000Z</time>
      </trkpt>
      <trkpt lat="45.553432" lon="7.845968">
        <ele>667.94489</ele>
        <time>2024-10-15T11:57:48.000Z</time>
      </trkpt>
      <trkpt lat="45.5534" lon="7.845963">
        <ele>667.71985</ele>
        <time>2024-10-15T11:58:05.000Z</time>
      </trkpt>
      <trkpt lat="45.553377" lon="7.845943">
        <ele>667.61487</ele>
        <time>2024-10-15T11:58:08.000Z</time>
      </trkpt>
      <trkpt lat="45.553357" lon="7.84592">
        <ele>667.6098</ele>
        <time>2024-10-15T11:58:10.000Z</time>
      </trkpt>
      <trkpt lat="45.553353" lon="7.845883">
        <ele>667.59479</ele>
        <time>2024-10-15T11:58:12.000Z</time>
      </trkpt>
      <trkpt lat="45.553357" lon="7.845857">
        <ele>667.56976</ele>
        <time>2024-10-15T11:58:14.000Z</time>
      </trkpt>
      <trkpt lat="45.55335" lon="7.845818">
        <ele>667.55481</ele>
        <time>2024-10-15T11:58:17.000Z</time>
      </trkpt>
      <trkpt lat="45.553342" lon="7.845787">
        <ele>667.5498</ele>
        <time>2024-10-15T11:58:20.000Z</time>
      </trkpt>
      <trkpt lat="45.553342" lon="7.845755">
        <ele>667.5448</ele>
        <time>2024-10-15T11:58:23.000Z</time>
      </trkpt>
      <trkpt lat="45.553332" lon="7.845733">
        <ele>667.57977</ele>
        <time>2024-10-15T11:58:25.000Z</time>
      </trkpt>
      <trkpt lat="45.553333" lon="7.845703">
        <ele>667.75977</ele>
        <time>2024-10-15T11:58:28.000Z</time>
      </trkpt>
      <trkpt lat="45.553338" lon="7.84567">
        <ele>667.84473</ele>
        <time>2024-10-15T11:58:30.000Z</time>
      </trkpt>
      <trkpt lat="45.553347" lon="7.845642">
        <ele>667.82971</ele>
        <time>2024-10-15T11:58:32.000Z</time>
      </trkpt>
      <trkpt lat="45.553358" lon="7.845615">
        <ele>667.78967</ele>
        <time>2024-10-15T11:58:34.000Z</time>
      </trkpt>
      <trkpt lat="45.553353" lon="7.845572">
        <ele>667.64966</ele>
        <time>2024-10-15T11:58:37.000Z</time>
      </trkpt>
      <trkpt lat="45.553343" lon="7.845547">
        <ele>667.4696</ele>
        <time>2024-10-15T11:58:39.000Z</time>
      </trkpt>
      <trkpt lat="45.55334" lon="7.845515">
        <ele>667.26459</ele>
        <time>2024-10-15T11:58:42.000Z</time>
      </trkpt>
      <trkpt lat="45.553335" lon="7.845482">
        <ele>667.10962</ele>
        <time>2024-10-15T11:58:45.000Z</time>
      </trkpt>
      <trkpt lat="45.553337" lon="7.845453">
        <ele>666.9696</ele>
        <time>2024-10-15T11:58:47.000Z</time>
      </trkpt>
      <trkpt lat="45.553345" lon="7.84543">
        <ele>666.86462</ele>
        <time>2024-10-15T11:58:49.000Z</time>
      </trkpt>
      <trkpt lat="45.553348" lon="7.845393">
        <ele>666.76965</ele>
        <time>2024-10-15T11:58:52.000Z</time>
      </trkpt>
      <trkpt lat="45.553348" lon="7.84536">
        <ele>666.56964</ele>
        <time>2024-10-15T11:58:54.000Z</time>
      </trkpt>
      <trkpt lat="45.55335" lon="7.84532">
        <ele>666.33466</ele>
        <time>2024-10-15T11:58:57.000Z</time>
      </trkpt>
      <trkpt lat="45.553358" lon="7.845282">
        <ele>666.03467</ele>
        <time>2024-10-15T11:58:59.000Z</time>
      </trkpt>
      <trkpt lat="45.553353" lon="7.845245">
        <ele>665.72968</ele>
        <time>2024-10-15T11:59:01.000Z</time>
      </trkpt>
      <trkpt lat="45.553358" lon="7.845217">
        <ele>665.40973</ele>
        <time>2024-10-15T11:59:03.000Z</time>
      </trkpt>
      <trkpt lat="45.55336" lon="7.845187">
        <ele>665.07471</ele>
        <time>2024-10-15T11:59:05.000Z</time>
      </trkpt>
      <trkpt lat="45.55336" lon="7.845152">
        <ele>664.72968</ele>
        <time>2024-10-15T11:59:07.000Z</time>
      </trkpt>
      <trkpt lat="45.553362" lon="7.845118">
        <ele>664.36469</ele>
        <time>2024-10-15T11:59:09.000Z</time>
      </trkpt>
      <trkpt lat="45.553367" lon="7.845088">
        <ele>663.98474</ele>
        <time>2024-10-15T11:59:11.000Z</time>
      </trkpt>
      <trkpt lat="45.553372" lon="7.845058">
        <ele>663.5697</ele>
        <time>2024-10-15T11:59:13.000Z</time>
      </trkpt>
      <trkpt lat="45.553382" lon="7.845037">
        <ele>663.21973</ele>
        <time>2024-10-15T11:59:14.000Z</time>
      </trkpt>
      <trkpt lat="45.553397" lon="7.84502">
        <ele>662.95471</ele>
        <time>2024-10-15T11:59:15.000Z</time>
      </trkpt>
      <trkpt lat="45.5534" lon="7.844992">
        <ele>662.68469</ele>
        <time>2024-10-15T11:59:17.000Z</time>
      </trkpt>
      <trkpt lat="45.553402" lon="7.844963">
        <ele>662.43976</ele>
        <time>2024-10-15T11:59:19.000Z</time>
      </trkpt>
      <trkpt lat="45.553412" lon="7.844933">
        <ele>662.18976</ele>
        <time>2024-10-15T11:59:21.000Z</time>
      </trkpt>
      <trkpt lat="45.553407" lon="7.84489">
        <ele>661.90979</ele>
        <time>2024-10-15T11:59:23.000Z</time>
      </trkpt>
      <trkpt lat="45.55341" lon="7.844855">
        <ele>661.54974</ele>
        <time>2024-10-15T11:59:25.000Z</time>
      </trkpt>
      <trkpt lat="45.553417" lon="7.84483">
        <ele>661.15979</ele>
        <time>2024-10-15T11:59:27.000Z</time>
      </trkpt>
      <trkpt lat="45.55344" lon="7.844817">
        <ele>660.7298</ele>
        <time>2024-10-15T11:59:29.000Z</time>
      </trkpt>
      <trkpt lat="45.55345" lon="7.844795">
        <ele>660.19476</ele>
        <time>2024-10-15T11:59:32.000Z</time>
      </trkpt>
      <trkpt lat="45.55345" lon="7.844762">
        <ele>659.58484</ele>
        <time>2024-10-15T11:59:36.000Z</time>
      </trkpt>
      <trkpt lat="45.553448" lon="7.844735">
        <ele>658.9798</ele>
        <time>2024-10-15T11:59:38.000Z</time>
      </trkpt>
      <trkpt lat="45.553443" lon="7.8447">
        <ele>658.31482</ele>
        <time>2024-10-15T11:59:41.000Z</time>
      </trkpt>
      <trkpt lat="45.55344" lon="7.84467">
        <ele>657.62482</ele>
        <time>2024-10-15T11:59:44.000Z</time>
      </trkpt>
      <trkpt lat="45.553448" lon="7.844645">
        <ele>656.94983</ele>
        <time>2024-10-15T11:59:47.000Z</time>
      </trkpt>
      <trkpt lat="45.553453" lon="7.844617">
        <ele>656.32483</ele>
        <time>2024-10-15T11:59:49.000Z</time>
      </trkpt>
      <trkpt lat="45.553455" lon="7.844578">
        <ele>655.70984</ele>
        <time>2024-10-15T11:59:52.000Z</time>
      </trkpt>
      <trkpt lat="45.553457" lon="7.844545">
        <ele>655.18481</ele>
        <time>2024-10-15T11:59:55.000Z</time>
      </trkpt>
      <trkpt lat="45.553457" lon="7.844507">
        <ele>654.72479</ele>
        <time>2024-10-15T11:59:58.000Z</time>
      </trkpt>
      <trkpt lat="45.55345" lon="7.844468">
        <ele>654.25983</ele>
        <time>2024-10-15T12:00:00.000Z</time>
      </trkpt>
      <trkpt lat="45.553442" lon="7.844432">
        <ele>653.73987</ele>
        <time>2024-10-15T12:00:02.000Z</time>
      </trkpt>
      <trkpt lat="45.553445" lon="7.844398">
        <ele>653.16986</ele>
        <time>2024-10-15T12:00:04.000Z</time>
      </trkpt>
      <trkpt lat="45.553453" lon="7.844368">
        <ele>652.61487</ele>
        <time>2024-10-15T12:00:07.000Z</time>
      </trkpt>
      <trkpt lat="45.553462" lon="7.844345">
        <ele>652.10486</ele>
        <time>2024-10-15T12:00:09.000Z</time>
      </trkpt>
      <trkpt lat="45.553468" lon="7.844315">
        <ele>651.60486</ele>
        <time>2024-10-15T12:00:12.000Z</time>
      </trkpt>
      <trkpt lat="45.553475" lon="7.84428">
        <ele>651.11987</ele>
        <time>2024-10-15T12:00:15.000Z</time>
      </trkpt>
      <trkpt lat="45.553483" lon="7.844243">
        <ele>650.66986</ele>
        <time>2024-10-15T12:00:18.000Z</time>
      </trkpt>
      <trkpt lat="45.553493" lon="7.84422">
        <ele>650.22485</ele>
        <time>2024-10-15T12:00:20.000Z</time>
      </trkpt>
      <trkpt lat="45.553502" lon="7.844187">
        <ele>649.77484</ele>
        <time>2024-10-15T12:00:22.000Z</time>
      </trkpt>
      <trkpt lat="45.553515" lon="7.844158">
        <ele>649.36487</ele>
        <time>2024-10-15T12:00:25.000Z</time>
      </trkpt>
      <trkpt lat="45.553515" lon="7.844127">
        <ele>648.96484</ele>
        <time>2024-10-15T12:00:28.000Z</time>
      </trkpt>
      <trkpt lat="45.55353" lon="7.844087">
        <ele>648.50989</ele>
        <time>2024-10-15T12:00:31.000Z</time>
      </trkpt>
      <trkpt lat="45.553522" lon="7.84406">
        <ele>648.07483</ele>
        <time>2024-10-15T12:00:33.000Z</time>
      </trkpt>
      <trkpt lat="45.553527" lon="7.844033">
        <ele>647.64984</ele>
        <time>2024-10-15T12:00:35.000Z</time>
      </trkpt>
      <trkpt lat="45.553537" lon="7.844003">
        <ele>647.19983</ele>
        <time>2024-10-15T12:00:37.000Z</time>
      </trkpt>
      <trkpt lat="45.553548" lon="7.843977">
        <ele>646.70483</ele>
        <time>2024-10-15T12:00:39.000Z</time>
      </trkpt>
      <trkpt lat="45.553557" lon="7.843953">
        <ele>646.19983</ele>
        <time>2024-10-15T12:00:41.000Z</time>
      </trkpt>
      <trkpt lat="45.553558" lon="7.843918">
        <ele>645.65491</ele>
        <time>2024-10-15T12:00:44.000Z</time>
      </trkpt>
      <trkpt lat="45.553577" lon="7.843902">
        <ele>645.07483</ele>
        <time>2024-10-15T12:00:47.000Z</time>
      </trkpt>
      <trkpt lat="45.553597" lon="7.843885">
        <ele>644.49481</ele>
        <time>2024-10-15T12:00:50.000Z</time>
      </trkpt>
      <trkpt lat="45.553597" lon="7.843855">
        <ele>643.9198</ele>
        <time>2024-10-15T12:00:53.000Z</time>
      </trkpt>
      <trkpt lat="45.553612" lon="7.843833">
        <ele>643.38483</ele>
        <time>2024-10-15T12:00:57.000Z</time>
      </trkpt>
      <trkpt lat="45.553622" lon="7.84381">
        <ele>642.88977</ele>
        <time>2024-10-15T12:01:01.000Z</time>
      </trkpt>
      <trkpt lat="45.55364" lon="7.843788">
        <ele>642.36975</ele>
        <time>2024-10-15T12:01:06.000Z</time>
      </trkpt>
      <trkpt lat="45.55367" lon="7.843777">
        <ele>641.75476</ele>
        <time>2024-10-15T12:01:15.000Z</time>
      </trkpt>
      <trkpt lat="45.553683" lon="7.843755">
        <ele>641.08478</ele>
        <time>2024-10-15T12:01:19.000Z</time>
      </trkpt>
      <trkpt lat="45.553697" lon="7.843732">
        <ele>640.31482</ele>
        <time>2024-10-15T12:01:23.000Z</time>
      </trkpt>
      <trkpt lat="45.55371" lon="7.84371">
        <ele>639.50983</ele>
        <time>2024-10-15T12:01:25.000Z</time>
      </trkpt>
      <trkpt lat="45.553723" lon="7.84369">
        <ele>638.64978</ele>
        <time>2024-10-15T12:01:27.000Z</time>
      </trkpt>
      <trkpt lat="45.55374" lon="7.84368">
        <ele>637.76477</ele>
        <time>2024-10-15T12:01:29.000Z</time>
      </trkpt>
      <trkpt lat="45.553753" lon="7.843647">
        <ele>636.88977</ele>
        <time>2024-10-15T12:01:34.000Z</time>
      </trkpt>
      <trkpt lat="45.553768" lon="7.843623">
        <ele>636.05481</ele>
        <time>2024-10-15T12:01:37.000Z</time>
      </trkpt>
      <trkpt lat="45.553785" lon="7.84361">
        <ele>635.21478</ele>
        <time>2024-10-15T12:01:40.000Z</time>
      </trkpt>
      <trkpt lat="45.5538" lon="7.843595">
        <ele>634.37482</ele>
        <time>2024-10-15T12:01:42.000Z</time>
      </trkpt>
      <trkpt lat="45.553818" lon="7.843567">
        <ele>633.50476</ele>
        <time>2024-10-15T12:01:45.000Z</time>
      </trkpt>
      <trkpt lat="45.553838" lon="7.843547">
        <ele>632.6098</ele>
        <time>2024-10-15T12:01:47.000Z</time>
      </trkpt>
      <trkpt lat="45.553862" lon="7.84353">
        <ele>631.6698</ele>
        <time>2024-10-15T12:01:49.000Z</time>
      </trkpt>
      <trkpt lat="45.553888" lon="7.843515">
        <ele>630.74976</ele>
        <time>2024-10-15T12:01:51.000Z</time>
      </trkpt>
      <trkpt lat="45.553915" lon="7.843503">
        <ele>629.87976</ele>
        <time>2024-10-15T12:01:54.000Z</time>
      </trkpt>
      <trkpt lat="45.55393" lon="7.843477">
        <ele>629.05481</ele>
        <time>2024-10-15T12:01:56.000Z</time>
      </trkpt>
      <trkpt lat="45.553945" lon="7.843462">
        <ele>628.25977</ele>
        <time>2024-10-15T12:01:58.000Z</time>
      </trkpt>
      <trkpt lat="45.553968" lon="7.843455">
        <ele>627.45471</ele>
        <time>2024-10-15T12:02:00.000Z</time>
      </trkpt>
      <trkpt lat="45.554003" lon="7.843312">
        <ele>626.65979</ele>
        <time>2024-10-15T12:02:39.000Z</time>
      </trkpt>
      <trkpt lat="45.55402" lon="7.843292">
        <ele>625.82977</ele>
        <time>2024-10-15T12:02:47.000Z</time>
      </trkpt>
      <trkpt lat="45.55404" lon="7.843288">
        <ele>625.12482</ele>
        <time>2024-10-15T12:02:49.000Z</time>
      </trkpt>
      <trkpt lat="45.554055" lon="7.84327">
        <ele>624.49982</ele>
        <time>2024-10-15T12:02:52.000Z</time>
      </trkpt>
      <trkpt lat="45.554065" lon="7.843243">
        <ele>623.98981</ele>
        <time>2024-10-15T12:02:55.000Z</time>
      </trkpt>
      <trkpt lat="45.554062" lon="7.843213">
        <ele>623.51978</ele>
        <time>2024-10-15T12:02:58.000Z</time>
      </trkpt>
      <trkpt lat="45.55406" lon="7.843185">
        <ele>623.13477</ele>
        <time>2024-10-15T12:03:01.000Z</time>
      </trkpt>
      <trkpt lat="45.554065" lon="7.843157">
        <ele>622.79974</ele>
        <time>2024-10-15T12:03:04.000Z</time>
      </trkpt>
      <trkpt lat="45.554075" lon="7.843128">
        <ele>622.49475</ele>
        <time>2024-10-15T12:03:07.000Z</time>
      </trkpt>
      <trkpt lat="45.55407" lon="7.843097">
        <ele>622.1947</ele>
        <time>2024-10-15T12:03:09.000Z</time>
      </trkpt>
      <trkpt lat="45.554065" lon="7.84306">
        <ele>621.91473</ele>
        <time>2024-10-15T12:03:11.000Z</time>
      </trkpt>
      <trkpt lat="45.554062" lon="7.843033">
        <ele>621.65472</ele>
        <time>2024-10-15T12:03:13.000Z</time>
      </trkpt>
      <trkpt lat="45.554057" lon="7.842998">
        <ele>621.43976</ele>
        <time>2024-10-15T12:03:15.000Z</time>
      </trkpt>
      <trkpt lat="45.554055" lon="7.842963">
        <ele>621.26477</ele>
        <time>2024-10-15T12:03:18.000Z</time>
      </trkpt>
      <trkpt lat="45.554048" lon="7.842928">
        <ele>621.16473</ele>
        <time>2024-10-15T12:03:21.000Z</time>
      </trkpt>
      <trkpt lat="45.554037" lon="7.842907">
        <ele>621.04474</ele>
        <time>2024-10-15T12:03:23.000Z</time>
      </trkpt>
      <trkpt lat="45.554045" lon="7.842875">
        <ele>620.87976</ele>
        <time>2024-10-15T12:03:26.000Z</time>
      </trkpt>
      <trkpt lat="45.554043" lon="7.842847">
        <ele>620.68475</ele>
        <time>2024-10-15T12:03:28.000Z</time>
      </trkpt>
      <trkpt lat="45.554043" lon="7.842808">
        <ele>620.48981</ele>
        <time>2024-10-15T12:03:30.000Z</time>
      </trkpt>
      <trkpt lat="45.554037" lon="7.842775">
        <ele>620.2948</ele>
        <time>2024-10-15T12:03:32.000Z</time>
      </trkpt>
      <trkpt lat="45.554018" lon="7.842742">
        <ele>620.06982</ele>
        <time>2024-10-15T12:03:35.000Z</time>
      </trkpt>
      <trkpt lat="45.554008" lon="7.842708">
        <ele>619.86981</ele>
        <time>2024-10-15T12:03:37.000Z</time>
      </trkpt>
      <trkpt lat="45.553995" lon="7.842675">
        <ele>619.61981</ele>
        <time>2024-10-15T12:03:40.000Z</time>
      </trkpt>
      <trkpt lat="45.553978" lon="7.842638">
        <ele>619.37982</ele>
        <time>2024-10-15T12:03:42.000Z</time>
      </trkpt>
      <trkpt lat="45.553962" lon="7.842627">
        <ele>619.14484</ele>
        <time>2024-10-15T12:03:44.000Z</time>
      </trkpt>
      <trkpt lat="45.553938" lon="7.84261">
        <ele>618.89984</ele>
        <time>2024-10-15T12:03:47.000Z</time>
      </trkpt>
      <trkpt lat="45.553923" lon="7.842588">
        <ele>618.48486</ele>
        <time>2024-10-15T12:03:53.000Z</time>
      </trkpt>
      <trkpt lat="45.553908" lon="7.842565">
        <ele>618.0249</ele>
        <time>2024-10-15T12:03:56.000Z</time>
      </trkpt>
      <trkpt lat="45.553895" lon="7.842547">
        <ele>617.5249</ele>
        <time>2024-10-15T12:03:59.000Z</time>
      </trkpt>
      <trkpt lat="45.553877" lon="7.842525">
        <ele>617.0249</ele>
        <time>2024-10-15T12:04:03.000Z</time>
      </trkpt>
      <trkpt lat="45.55386" lon="7.842515">
        <ele>616.52991</ele>
        <time>2024-10-15T12:04:05.000Z</time>
      </trkpt>
      <trkpt lat="45.553843" lon="7.842497">
        <ele>616.00488</ele>
        <time>2024-10-15T12:04:08.000Z</time>
      </trkpt>
      <trkpt lat="45.553828" lon="7.84248">
        <ele>615.44489</ele>
        <time>2024-10-15T12:04:10.000Z</time>
      </trkpt>
      <trkpt lat="45.553798" lon="7.842457">
        <ele>614.86987</ele>
        <time>2024-10-15T12:04:12.000Z</time>
      </trkpt>
      <trkpt lat="45.553787" lon="7.842425">
        <ele>614.29486</ele>
        <time>2024-10-15T12:04:15.000Z</time>
      </trkpt>
      <trkpt lat="45.553775" lon="7.8424">
        <ele>613.72986</ele>
        <time>2024-10-15T12:04:17.000Z</time>
      </trkpt>
      <trkpt lat="45.553778" lon="7.842365">
        <ele>613.1449</ele>
        <time>2024-10-15T12:04:20.000Z</time>
      </trkpt>
      <trkpt lat="45.553775" lon="7.84233">
        <ele>612.52484</ele>
        <time>2024-10-15T12:04:23.000Z</time>
      </trkpt>
      <trkpt lat="45.553767" lon="7.842303">
        <ele>611.88483</ele>
        <time>2024-10-15T12:04:25.000Z</time>
      </trkpt>
      <trkpt lat="45.553758" lon="7.842275">
        <ele>611.22479</ele>
        <time>2024-10-15T12:04:28.000Z</time>
      </trkpt>
      <trkpt lat="45.55374" lon="7.842255">
        <ele>610.56482</ele>
        <time>2024-10-15T12:04:30.000Z</time>
      </trkpt>
      <trkpt lat="45.553715" lon="7.84223">
        <ele>609.91479</ele>
        <time>2024-10-15T12:04:32.000Z</time>
      </trkpt>
      <trkpt lat="45.553702" lon="7.842212">
        <ele>609.27979</ele>
        <time>2024-10-15T12:04:34.000Z</time>
      </trkpt>
      <trkpt lat="45.55369" lon="7.842188">
        <ele>608.6098</ele>
        <time>2024-10-15T12:04:36.000Z</time>
      </trkpt>
      <trkpt lat="45.553683" lon="7.84216">
        <ele>607.90979</ele>
        <time>2024-10-15T12:04:38.000Z</time>
      </trkpt>
      <trkpt lat="45.553683" lon="7.842125">
        <ele>607.21985</ele>
        <time>2024-10-15T12:04:40.000Z</time>
      </trkpt>
      <trkpt lat="45.553682" lon="7.842092">
        <ele>606.69983</ele>
        <time>2024-10-15T12:04:42.000Z</time>
      </trkpt>
      <trkpt lat="45.55368" lon="7.842063">
        <ele>606.24475</ele>
        <time>2024-10-15T12:04:43.000Z</time>
      </trkpt>
      <trkpt lat="45.553683" lon="7.84202">
        <ele>605.80481</ele>
        <time>2024-10-15T12:04:45.000Z</time>
      </trkpt>
      <trkpt lat="45.553677" lon="7.841972">
        <ele>605.31976</ele>
        <time>2024-10-15T12:04:47.000Z</time>
      </trkpt>
      <trkpt lat="45.55369" lon="7.841945">
        <ele>604.86481</ele>
        <time>2024-10-15T12:04:50.000Z</time>
      </trkpt>
      <trkpt lat="45.553705" lon="7.84193">
        <ele>604.45978</ele>
        <time>2024-10-15T12:04:52.000Z</time>
      </trkpt>
      <trkpt lat="45.55371" lon="7.841895">
        <ele>604.13977</ele>
        <time>2024-10-15T12:04:54.000Z</time>
        <name>Settimo Trovinasse, Settimo Vittone</name>
        <extensions>
          <oa:locType>tourGap</oa:locType>
          <oa:address>{
  &quot;title&quot; : &quot;Settimo Trovinasse, Settimo Vittone&quot;
}</oa:address>
        </extensions>
      </trkpt>
      <trkpt lat="45.553735" lon="7.841898">
        <ele>603.93976</ele>
        <time>2024-10-15T12:11:34.000Z</time>
        <name>Settimo Trovinasse, Settimo Vittone</name>
        <extensions>
          <oa:address>{
  &quot;title&quot; : &quot;Settimo Trovinasse, Settimo Vittone&quot;
}</oa:address>
        </extensions>
      </trkpt>
      <trkpt lat="45.553745" lon="7.841962">
        <ele>603.0448</ele>
        <time>2024-10-15T12:15:42.000Z</time>
      </trkpt>
      <trkpt lat="45.553768" lon="7.841992">
        <ele>602.20978</ele>
        <time>2024-10-15T12:15:56.000Z</time>
      </trkpt>
      <trkpt lat="45.553767" lon="7.841943">
        <ele>601.4198</ele>
        <time>2024-10-15T12:15:59.000Z</time>
      </trkpt>
      <trkpt lat="45.55375" lon="7.841907">
        <ele>600.68475</ele>
        <time>2024-10-15T12:16:01.000Z</time>
      </trkpt>
      <trkpt lat="45.553738" lon="7.841872">
        <ele>599.97479</ele>
        <time>2024-10-15T12:16:03.000Z</time>
      </trkpt>
      <trkpt lat="45.55373" lon="7.841842">
        <ele>599.30481</ele>
        <time>2024-10-15T12:16:05.000Z</time>
      </trkpt>
      <trkpt lat="45.553728" lon="7.841803">
        <ele>598.6748</ele>
        <time>2024-10-15T12:16:07.000Z</time>
      </trkpt>
      <trkpt lat="45.553733" lon="7.841763">
        <ele>598.07977</ele>
        <time>2024-10-15T12:16:09.000Z</time>
      </trkpt>
      <trkpt lat="45.553743" lon="7.841722">
        <ele>597.52979</ele>
        <time>2024-10-15T12:16:11.000Z</time>
      </trkpt>
      <trkpt lat="45.55376" lon="7.841687">
        <ele>597.02979</ele>
        <time>2024-10-15T12:16:13.000Z</time>
      </trkpt>
      <trkpt lat="45.55377" lon="7.841658">
        <ele>596.5498</ele>
        <time>2024-10-15T12:16:15.000Z</time>
      </trkpt>
      <trkpt lat="45.553778" lon="7.841623">
        <ele>596.06976</ele>
        <time>2024-10-15T12:16:17.000Z</time>
      </trkpt>
      <trkpt lat="45.553797" lon="7.841607">
        <ele>595.59479</ele>
        <time>2024-10-15T12:16:20.000Z</time>
      </trkpt>
      <trkpt lat="45.553813" lon="7.841618">
        <ele>595.13977</ele>
        <time>2024-10-15T12:16:23.000Z</time>
      </trkpt>
      <trkpt lat="45.553832" lon="7.841637">
        <ele>594.7948</ele>
        <time>2024-10-15T12:16:41.000Z</time>
      </trkpt>
      <trkpt lat="45.55385" lon="7.841618">
        <ele>594.49475</ele>
        <time>2024-10-15T12:16:43.000Z</time>
      </trkpt>
      <trkpt lat="45.553855" lon="7.84159">
        <ele>594.18475</ele>
        <time>2024-10-15T12:16:46.000Z</time>
      </trkpt>
      <trkpt lat="45.55386" lon="7.841555">
        <ele>593.81976</ele>
        <time>2024-10-15T12:16:50.000Z</time>
      </trkpt>
      <trkpt lat="45.553863" lon="7.841528">
        <ele>593.34979</ele>
        <time>2024-10-15T12:16:54.000Z</time>
      </trkpt>
      <trkpt lat="45.553878" lon="7.841508">
        <ele>592.62482</ele>
        <time>2024-10-15T12:17:27.000Z</time>
      </trkpt>
      <trkpt lat="45.553862" lon="7.841447">
        <ele>592.52478</ele>
        <time>2024-10-15T12:18:02.000Z</time>
      </trkpt>
      <trkpt lat="45.553842" lon="7.841443">
        <ele>592.33484</ele>
        <time>2024-10-15T12:18:06.000Z</time>
      </trkpt>
      <trkpt lat="45.553823" lon="7.841442">
        <ele>592.09479</ele>
        <time>2024-10-15T12:18:09.000Z</time>
      </trkpt>
      <trkpt lat="45.5538" lon="7.841443">
        <ele>591.77478</ele>
        <time>2024-10-15T12:18:13.000Z</time>
      </trkpt>
      <trkpt lat="45.55378" lon="7.841435">
        <ele>591.39978</ele>
        <time>2024-10-15T12:18:16.000Z</time>
      </trkpt>
      <trkpt lat="45.55376" lon="7.841422">
        <ele>590.96484</ele>
        <time>2024-10-15T12:18:20.000Z</time>
      </trkpt>
      <trkpt lat="45.553742" lon="7.841423">
        <ele>590.47479</ele>
        <time>2024-10-15T12:18:22.000Z</time>
      </trkpt>
      <trkpt lat="45.553722" lon="7.841435">
        <ele>589.90485</ele>
        <time>2024-10-15T12:18:25.000Z</time>
      </trkpt>
      <trkpt lat="45.553702" lon="7.841445">
        <ele>589.28479</ele>
        <time>2024-10-15T12:18:29.000Z</time>
      </trkpt>
      <trkpt lat="45.553678" lon="7.841442">
        <ele>588.6048</ele>
        <time>2024-10-15T12:18:32.000Z</time>
      </trkpt>
      <trkpt lat="45.553658" lon="7.84145">
        <ele>587.94476</ele>
        <time>2024-10-15T12:18:34.000Z</time>
      </trkpt>
      <trkpt lat="45.553643" lon="7.841468">
        <ele>587.32977</ele>
        <time>2024-10-15T12:18:37.000Z</time>
      </trkpt>
      <trkpt lat="45.553625" lon="7.841457">
        <ele>586.76984</ele>
        <time>2024-10-15T12:18:40.000Z</time>
      </trkpt>
      <trkpt lat="45.553602" lon="7.84144">
        <ele>586.21985</ele>
        <time>2024-10-15T12:18:42.000Z</time>
      </trkpt>
      <trkpt lat="45.553583" lon="7.84144">
        <ele>585.58984</ele>
        <time>2024-10-15T12:18:44.000Z</time>
      </trkpt>
      <trkpt lat="45.553558" lon="7.841442">
        <ele>584.97485</ele>
        <time>2024-10-15T12:18:46.000Z</time>
      </trkpt>
      <trkpt lat="45.553533" lon="7.841425">
        <ele>584.32983</ele>
        <time>2024-10-15T12:18:49.000Z</time>
      </trkpt>
      <trkpt lat="45.553512" lon="7.841428">
        <ele>583.68488</ele>
        <time>2024-10-15T12:18:52.000Z</time>
      </trkpt>
      <trkpt lat="45.553497" lon="7.841412">
        <ele>583.02484</ele>
        <time>2024-10-15T12:18:55.000Z</time>
      </trkpt>
      <trkpt lat="45.553478" lon="7.841392">
        <ele>582.48486</ele>
        <time>2024-10-15T12:18:57.000Z</time>
      </trkpt>
      <trkpt lat="45.553452" lon="7.841373">
        <ele>581.94983</ele>
        <time>2024-10-15T12:18:59.000Z</time>
      </trkpt>
      <trkpt lat="45.553432" lon="7.841368">
        <ele>581.37488</ele>
        <time>2024-10-15T12:19:01.000Z</time>
      </trkpt>
      <trkpt lat="45.553405" lon="7.841363">
        <ele>580.79486</ele>
        <time>2024-10-15T12:19:03.000Z</time>
      </trkpt>
      <trkpt lat="45.55338" lon="7.841367">
        <ele>580.19983</ele>
        <time>2024-10-15T12:19:05.000Z</time>
      </trkpt>
      <trkpt lat="45.553362" lon="7.841348">
        <ele>579.63483</ele>
        <time>2024-10-15T12:19:07.000Z</time>
      </trkpt>
      <trkpt lat="45.553347" lon="7.841333">
        <ele>579.1048</ele>
        <time>2024-10-15T12:19:08.000Z</time>
      </trkpt>
      <trkpt lat="45.553332" lon="7.8413">
        <ele>578.57483</ele>
        <time>2024-10-15T12:19:10.000Z</time>
      </trkpt>
      <trkpt lat="45.553305" lon="7.841275">
        <ele>578.09479</ele>
        <time>2024-10-15T12:19:12.000Z</time>
      </trkpt>
      <trkpt lat="45.553282" lon="7.841245">
        <ele>577.64978</ele>
        <time>2024-10-15T12:19:14.000Z</time>
      </trkpt>
      <trkpt lat="45.55326" lon="7.84121">
        <ele>577.24982</ele>
        <time>2024-10-15T12:19:16.000Z</time>
      </trkpt>
      <trkpt lat="45.553253" lon="7.841183">
        <ele>576.84479</ele>
        <time>2024-10-15T12:19:17.000Z</time>
      </trkpt>
      <trkpt lat="45.553232" lon="7.841163">
        <ele>576.37476</ele>
        <time>2024-10-15T12:19:19.000Z</time>
      </trkpt>
      <trkpt lat="45.553213" lon="7.841158">
        <ele>575.85474</ele>
        <time>2024-10-15T12:19:20.000Z</time>
      </trkpt>
      <trkpt lat="45.553182" lon="7.84115">
        <ele>575.27472</ele>
        <time>2024-10-15T12:19:22.000Z</time>
      </trkpt>
      <trkpt lat="45.553165" lon="7.841137">
        <ele>574.71472</ele>
        <time>2024-10-15T12:19:24.000Z</time>
      </trkpt>
      <trkpt lat="45.553153" lon="7.841117">
        <ele>574.13971</ele>
        <time>2024-10-15T12:19:27.000Z</time>
      </trkpt>
      <trkpt lat="45.553145" lon="7.841088">
        <ele>573.51471</ele>
        <time>2024-10-15T12:19:30.000Z</time>
      </trkpt>
      <trkpt lat="45.553122" lon="7.841072">
        <ele>572.9447</ele>
        <time>2024-10-15T12:19:32.000Z</time>
      </trkpt>
      <trkpt lat="45.553103" lon="7.841055">
        <ele>572.4447</ele>
        <time>2024-10-15T12:19:34.000Z</time>
      </trkpt>
      <trkpt lat="45.553087" lon="7.84103">
        <ele>571.96967</ele>
        <time>2024-10-15T12:19:37.000Z</time>
      </trkpt>
      <trkpt lat="45.553087" lon="7.840997">
        <ele>571.52966</ele>
        <time>2024-10-15T12:19:41.000Z</time>
      </trkpt>
      <trkpt lat="45.553075" lon="7.840972">
        <ele>570.83472</ele>
        <time>2024-10-15T12:19:58.000Z</time>
      </trkpt>
      <trkpt lat="45.553062" lon="7.84095">
        <ele>570.17468</ele>
        <time>2024-10-15T12:20:01.000Z</time>
      </trkpt>
      <trkpt lat="45.553045" lon="7.840932">
        <ele>569.60974</ele>
        <time>2024-10-15T12:20:05.000Z</time>
      </trkpt>
      <trkpt lat="45.55304" lon="7.840905">
        <ele>569.02478</ele>
        <time>2024-10-15T12:20:09.000Z</time>
      </trkpt>
      <trkpt lat="45.553058" lon="7.84089">
        <ele>568.4198</ele>
        <time>2024-10-15T12:20:20.000Z</time>
      </trkpt>
      <trkpt lat="45.553045" lon="7.840857">
        <ele>568.03979</ele>
        <time>2024-10-15T12:20:34.000Z</time>
      </trkpt>
      <trkpt lat="45.553025" lon="7.840853">
        <ele>567.65485</ele>
        <time>2024-10-15T12:20:36.000Z</time>
      </trkpt>
      <trkpt lat="45.553002" lon="7.84084">
        <ele>567.24481</ele>
        <time>2024-10-15T12:20:39.000Z</time>
      </trkpt>
      <trkpt lat="45.552983" lon="7.840832">
        <ele>566.77484</ele>
        <time>2024-10-15T12:20:42.000Z</time>
      </trkpt>
      <trkpt lat="45.552957" lon="7.840818">
        <ele>566.23987</ele>
        <time>2024-10-15T12:20:46.000Z</time>
      </trkpt>
      <trkpt lat="45.552942" lon="7.840795">
        <ele>565.74493</ele>
        <time>2024-10-15T12:20:48.000Z</time>
      </trkpt>
      <trkpt lat="45.552947" lon="7.84077">
        <ele>565.2749</ele>
        <time>2024-10-15T12:20:53.000Z</time>
      </trkpt>
      <trkpt lat="45.552968" lon="7.84075">
        <ele>564.82996</ele>
        <time>2024-10-15T12:20:56.000Z</time>
      </trkpt>
      <trkpt lat="45.552985" lon="7.840735">
        <ele>564.36493</ele>
        <time>2024-10-15T12:20:58.000Z</time>
      </trkpt>
      <trkpt lat="45.553003" lon="7.840728">
        <ele>563.90491</ele>
        <time>2024-10-15T12:21:01.000Z</time>
      </trkpt>
      <trkpt lat="45.55302" lon="7.840708">
        <ele>563.51495</ele>
        <time>2024-10-15T12:21:04.000Z</time>
      </trkpt>
      <trkpt lat="45.553037" lon="7.840697">
        <ele>563.08997</ele>
        <time>2024-10-15T12:21:06.000Z</time>
      </trkpt>
      <trkpt lat="45.55306" lon="7.840695">
        <ele>562.65997</ele>
        <time>2024-10-15T12:21:09.000Z</time>
      </trkpt>
      <trkpt lat="45.553065" lon="7.840667">
        <ele>562.17493</ele>
        <time>2024-10-15T12:21:13.000Z</time>
      </trkpt>
      <trkpt lat="45.553083" lon="7.840652">
        <ele>561.63495</ele>
        <time>2024-10-15T12:21:16.000Z</time>
      </trkpt>
      <trkpt lat="45.553105" lon="7.840635">
        <ele>561.31494</ele>
        <time>2024-10-15T12:21:20.000Z</time>
      </trkpt>
      <trkpt lat="45.553123" lon="7.840625">
        <ele>560.91998</ele>
        <time>2024-10-15T12:21:23.000Z</time>
      </trkpt>
      <trkpt lat="45.553143" lon="7.840618">
        <ele>560.47498</ele>
        <time>2024-10-15T12:21:26.000Z</time>
      </trkpt>
      <trkpt lat="45.55316" lon="7.840605">
        <ele>560.02991</ele>
        <time>2024-10-15T12:21:28.000Z</time>
      </trkpt>
      <trkpt lat="45.553177" lon="7.840585">
        <ele>559.60492</ele>
        <time>2024-10-15T12:21:30.000Z</time>
      </trkpt>
      <trkpt lat="45.55319" lon="7.840565">
        <ele>558.9649</ele>
        <time>2024-10-15T12:21:32.000Z</time>
      </trkpt>
      <trkpt lat="45.553212" lon="7.840567">
        <ele>558.33484</ele>
        <time>2024-10-15T12:21:34.000Z</time>
      </trkpt>
      <trkpt lat="45.55323" lon="7.840562">
        <ele>557.73486</ele>
        <time>2024-10-15T12:21:37.000Z</time>
      </trkpt>
      <trkpt lat="45.553262" lon="7.840567">
        <ele>556.98486</ele>
        <time>2024-10-15T12:23:22.000Z</time>
      </trkpt>
      <trkpt lat="45.553247" lon="7.840543">
        <ele>556.53485</ele>
        <time>2024-10-15T12:23:40.000Z</time>
      </trkpt>
      <trkpt lat="45.553272" lon="7.840547">
        <ele>556.06482</ele>
        <time>2024-10-15T12:23:43.000Z</time>
      </trkpt>
      <trkpt lat="45.553288" lon="7.840535">
        <ele>555.5199</ele>
        <time>2024-10-15T12:23:45.000Z</time>
      </trkpt>
      <trkpt lat="45.553305" lon="7.840522">
        <ele>554.95984</ele>
        <time>2024-10-15T12:23:47.000Z</time>
      </trkpt>
      <trkpt lat="45.553323" lon="7.840517">
        <ele>554.36487</ele>
        <time>2024-10-15T12:23:49.000Z</time>
      </trkpt>
      <trkpt lat="45.553342" lon="7.840493">
        <ele>553.73987</ele>
        <time>2024-10-15T12:23:52.000Z</time>
      </trkpt>
      <trkpt lat="45.553363" lon="7.84049">
        <ele>553.00989</ele>
        <time>2024-10-15T12:23:57.000Z</time>
      </trkpt>
      <trkpt lat="45.553383" lon="7.840492">
        <ele>552.25488</ele>
        <time>2024-10-15T12:23:59.000Z</time>
      </trkpt>
      <trkpt lat="45.553405" lon="7.840487">
        <ele>551.47485</ele>
        <time>2024-10-15T12:24:01.000Z</time>
      </trkpt>
      <trkpt lat="45.553422" lon="7.840477">
        <ele>550.73486</ele>
        <time>2024-10-15T12:24:03.000Z</time>
      </trkpt>
      <trkpt lat="45.55343" lon="7.840452">
        <ele>549.99988</ele>
        <time>2024-10-15T12:24:05.000Z</time>
      </trkpt>
      <trkpt lat="45.553437" lon="7.840422">
        <ele>549.35486</ele>
        <time>2024-10-15T12:24:10.000Z</time>
      </trkpt>
      <trkpt lat="45.553445" lon="7.84039">
        <ele>548.74982</ele>
        <time>2024-10-15T12:24:14.000Z</time>
      </trkpt>
      <trkpt lat="45.553463" lon="7.840367">
        <ele>548.14978</ele>
        <time>2024-10-15T12:24:17.000Z</time>
      </trkpt>
      <trkpt lat="45.553478" lon="7.840348">
        <ele>547.57483</ele>
        <time>2024-10-15T12:24:20.000Z</time>
      </trkpt>
      <trkpt lat="45.553493" lon="7.840333">
        <ele>546.99982</ele>
        <time>2024-10-15T12:24:22.000Z</time>
      </trkpt>
      <trkpt lat="45.553513" lon="7.840322">
        <ele>546.43481</ele>
        <time>2024-10-15T12:24:24.000Z</time>
      </trkpt>
      <trkpt lat="45.553533" lon="7.84032">
        <ele>545.86981</ele>
        <time>2024-10-15T12:24:26.000Z</time>
      </trkpt>
      <trkpt lat="45.55355" lon="7.840305">
        <ele>545.26483</ele>
        <time>2024-10-15T12:24:28.000Z</time>
      </trkpt>
      <trkpt lat="45.553573" lon="7.84029">
        <ele>544.86981</ele>
        <time>2024-10-15T12:24:30.000Z</time>
      </trkpt>
      <trkpt lat="45.55359" lon="7.84027">
        <ele>544.2298</ele>
        <time>2024-10-15T12:24:32.000Z</time>
      </trkpt>
      <trkpt lat="45.553597" lon="7.840245">
        <ele>543.62976</ele>
        <time>2024-10-15T12:24:35.000Z</time>
      </trkpt>
      <trkpt lat="45.553615" lon="7.84024">
        <ele>543.05481</ele>
        <time>2024-10-15T12:24:43.000Z</time>
      </trkpt>
      <trkpt lat="45.553637" lon="7.840233">
        <ele>542.47479</ele>
        <time>2024-10-15T12:24:45.000Z</time>
      </trkpt>
      <trkpt lat="45.553655" lon="7.840228">
        <ele>541.87482</ele>
        <time>2024-10-15T12:24:47.000Z</time>
      </trkpt>
      <trkpt lat="45.55367" lon="7.840213">
        <ele>541.2348</ele>
        <time>2024-10-15T12:24:50.000Z</time>
      </trkpt>
      <trkpt lat="45.553687" lon="7.840203">
        <ele>540.64978</ele>
        <time>2024-10-15T12:24:52.000Z</time>
      </trkpt>
      <trkpt lat="45.553703" lon="7.840187">
        <ele>539.95978</ele>
        <time>2024-10-15T12:24:58.000Z</time>
      </trkpt>
      <trkpt lat="45.55372" lon="7.840163">
        <ele>539.28479</ele>
        <time>2024-10-15T12:25:01.000Z</time>
      </trkpt>
      <trkpt lat="45.55374" lon="7.840132">
        <ele>538.62476</ele>
        <time>2024-10-15T12:25:04.000Z</time>
      </trkpt>
      <trkpt lat="45.553748" lon="7.840105">
        <ele>538.00476</ele>
        <time>2024-10-15T12:25:07.000Z</time>
      </trkpt>
      <trkpt lat="45.553765" lon="7.84008">
        <ele>537.38977</ele>
        <time>2024-10-15T12:25:11.000Z</time>
      </trkpt>
      <trkpt lat="45.553775" lon="7.84005">
        <ele>536.82971</ele>
        <time>2024-10-15T12:25:14.000Z</time>
      </trkpt>
      <trkpt lat="45.553792" lon="7.840028">
        <ele>536.46973</ele>
        <time>2024-10-15T12:25:36.000Z</time>
      </trkpt>
      <trkpt lat="45.553777" lon="7.840002">
        <ele>536.15472</ele>
        <time>2024-10-15T12:25:39.000Z</time>
      </trkpt>
      <trkpt lat="45.55376" lon="7.839968">
        <ele>535.8847</ele>
        <time>2024-10-15T12:25:42.000Z</time>
      </trkpt>
      <trkpt lat="45.553757" lon="7.839942">
        <ele>535.66473</ele>
        <time>2024-10-15T12:25:44.000Z</time>
      </trkpt>
      <trkpt lat="45.553752" lon="7.839915">
        <ele>535.45978</ele>
        <time>2024-10-15T12:25:46.000Z</time>
      </trkpt>
      <trkpt lat="45.55374" lon="7.839888">
        <ele>535.27478</ele>
        <time>2024-10-15T12:25:48.000Z</time>
      </trkpt>
      <trkpt lat="45.55374" lon="7.839858">
        <ele>535.05475</ele>
        <time>2024-10-15T12:25:50.000Z</time>
      </trkpt>
      <trkpt lat="45.553735" lon="7.839833">
        <ele>534.80975</ele>
        <time>2024-10-15T12:25:52.000Z</time>
      </trkpt>
      <trkpt lat="45.553725" lon="7.839807">
        <ele>534.50476</ele>
        <time>2024-10-15T12:25:54.000Z</time>
      </trkpt>
      <trkpt lat="45.553715" lon="7.839773">
        <ele>534.15479</ele>
        <time>2024-10-15T12:25:56.000Z</time>
      </trkpt>
      <trkpt lat="45.553708" lon="7.839745">
        <ele>533.75977</ele>
        <time>2024-10-15T12:25:58.000Z</time>
      </trkpt>
      <trkpt lat="45.553712" lon="7.839712">
        <ele>533.32483</ele>
        <time>2024-10-15T12:26:01.000Z</time>
      </trkpt>
      <trkpt lat="45.553718" lon="7.839677">
        <ele>532.88977</ele>
        <time>2024-10-15T12:26:04.000Z</time>
      </trkpt>
      <trkpt lat="45.55372" lon="7.839647">
        <ele>532.44983</ele>
        <time>2024-10-15T12:26:06.000Z</time>
      </trkpt>
      <trkpt lat="45.55372" lon="7.839615">
        <ele>532.11487</ele>
        <time>2024-10-15T12:26:08.000Z</time>
      </trkpt>
      <trkpt lat="45.553712" lon="7.839588">
        <ele>531.75989</ele>
        <time>2024-10-15T12:26:10.000Z</time>
      </trkpt>
      <trkpt lat="45.553697" lon="7.839552">
        <ele>531.38983</ele>
        <time>2024-10-15T12:26:12.000Z</time>
      </trkpt>
      <trkpt lat="45.553682" lon="7.839523">
        <ele>531.0199</ele>
        <time>2024-10-15T12:26:14.000Z</time>
      </trkpt>
      <trkpt lat="45.553673" lon="7.839498">
        <ele>530.63489</ele>
        <time>2024-10-15T12:26:16.000Z</time>
      </trkpt>
      <trkpt lat="45.553665" lon="7.839472">
        <ele>530.17493</ele>
        <time>2024-10-15T12:26:18.000Z</time>
      </trkpt>
      <trkpt lat="45.553662" lon="7.839438">
        <ele>529.5199</ele>
        <time>2024-10-15T12:26:21.000Z</time>
      </trkpt>
      <trkpt lat="45.553648" lon="7.839398">
        <ele>528.84991</ele>
        <time>2024-10-15T12:26:23.000Z</time>
      </trkpt>
      <trkpt lat="45.553645" lon="7.839358">
        <ele>528.1449</ele>
        <time>2024-10-15T12:26:26.000Z</time>
      </trkpt>
      <trkpt lat="45.553635" lon="7.839332">
        <ele>527.3999</ele>
        <time>2024-10-15T12:26:28.000Z</time>
      </trkpt>
      <trkpt lat="45.553623" lon="7.839303">
        <ele>526.62488</ele>
        <time>2024-10-15T12:26:31.000Z</time>
      </trkpt>
      <trkpt lat="45.553613" lon="7.839272">
        <ele>525.85486</ele>
        <time>2024-10-15T12:26:33.000Z</time>
      </trkpt>
      <trkpt lat="45.553598" lon="7.839243">
        <ele>525.09491</ele>
        <time>2024-10-15T12:26:35.000Z</time>
      </trkpt>
      <trkpt lat="45.55358" lon="7.83923">
        <ele>524.34991</ele>
        <time>2024-10-15T12:26:37.000Z</time>
      </trkpt>
      <trkpt lat="45.553562" lon="7.839207">
        <ele>523.62488</ele>
        <time>2024-10-15T12:26:40.000Z</time>
      </trkpt>
      <trkpt lat="45.553547" lon="7.839182">
        <ele>522.94989</ele>
        <time>2024-10-15T12:26:42.000Z</time>
      </trkpt>
      <trkpt lat="45.55353" lon="7.839145">
        <ele>522.31488</ele>
        <time>2024-10-15T12:26:44.000Z</time>
      </trkpt>
      <trkpt lat="45.553518" lon="7.839118">
        <ele>521.73486</ele>
        <time>2024-10-15T12:26:46.000Z</time>
      </trkpt>
      <trkpt lat="45.553505" lon="7.839092">
        <ele>521.15985</ele>
        <time>2024-10-15T12:26:48.000Z</time>
      </trkpt>
      <trkpt lat="45.553487" lon="7.839062">
        <ele>520.55988</ele>
        <time>2024-10-15T12:26:50.000Z</time>
      </trkpt>
      <trkpt lat="45.553472" lon="7.839035">
        <ele>519.92981</ele>
        <time>2024-10-15T12:26:52.000Z</time>
      </trkpt>
      <trkpt lat="45.553465" lon="7.839007">
        <ele>519.28479</ele>
        <time>2024-10-15T12:26:55.000Z</time>
      </trkpt>
      <trkpt lat="45.553452" lon="7.838978">
        <ele>518.6098</ele>
        <time>2024-10-15T12:26:58.000Z</time>
      </trkpt>
      <trkpt lat="45.553437" lon="7.838948">
        <ele>517.89978</ele>
        <time>2024-10-15T12:27:00.000Z</time>
      </trkpt>
      <trkpt lat="45.55342" lon="7.83892">
        <ele>517.13483</ele>
        <time>2024-10-15T12:27:02.000Z</time>
      </trkpt>
      <trkpt lat="45.5534" lon="7.838892">
        <ele>516.40979</ele>
        <time>2024-10-15T12:27:04.000Z</time>
      </trkpt>
      <trkpt lat="45.553395" lon="7.838862">
        <ele>515.6748</ele>
        <time>2024-10-15T12:27:06.000Z</time>
      </trkpt>
      <trkpt lat="45.553398" lon="7.838827">
        <ele>514.88977</ele>
        <time>2024-10-15T12:27:08.000Z</time>
      </trkpt>
      <trkpt lat="45.553402" lon="7.838783">
        <ele>514.08478</ele>
        <time>2024-10-15T12:27:10.000Z</time>
      </trkpt>
      <trkpt lat="45.553403" lon="7.838757">
        <ele>513.27979</ele>
        <time>2024-10-15T12:27:11.000Z</time>
      </trkpt>
      <trkpt lat="45.553413" lon="7.83872">
        <ele>512.46979</ele>
        <time>2024-10-15T12:27:13.000Z</time>
      </trkpt>
      <trkpt lat="45.553427" lon="7.838693">
        <ele>511.62482</ele>
        <time>2024-10-15T12:27:15.000Z</time>
      </trkpt>
      <trkpt lat="45.553445" lon="7.838673">
        <ele>510.73477</ele>
        <time>2024-10-15T12:27:17.000Z</time>
      </trkpt>
      <trkpt lat="45.553465" lon="7.838657">
        <ele>509.81479</ele>
        <time>2024-10-15T12:27:19.000Z</time>
      </trkpt>
      <trkpt lat="45.553483" lon="7.838642">
        <ele>508.88477</ele>
        <time>2024-10-15T12:27:21.000Z</time>
      </trkpt>
      <trkpt lat="45.553508" lon="7.83863">
        <ele>507.95474</ele>
        <time>2024-10-15T12:27:23.000Z</time>
      </trkpt>
      <trkpt lat="45.553533" lon="7.838615">
        <ele>507.01971</ele>
        <time>2024-10-15T12:27:25.000Z</time>
      </trkpt>
      <trkpt lat="45.553552" lon="7.838618">
        <ele>506.07477</ele>
        <time>2024-10-15T12:27:28.000Z</time>
      </trkpt>
      <trkpt lat="45.553568" lon="7.838608">
        <ele>505.19977</ele>
        <time>2024-10-15T12:27:30.000Z</time>
      </trkpt>
      <trkpt lat="45.553587" lon="7.838588">
        <ele>504.39471</ele>
        <time>2024-10-15T12:27:32.000Z</time>
      </trkpt>
      <trkpt lat="45.553598" lon="7.838565">
        <ele>503.64975</ele>
        <time>2024-10-15T12:27:35.000Z</time>
      </trkpt>
      <trkpt lat="45.55362" lon="7.838572">
        <ele>503.02979</ele>
        <time>2024-10-15T12:27:46.000Z</time>
      </trkpt>
      <trkpt lat="45.553617" lon="7.838542">
        <ele>502.47479</ele>
        <time>2024-10-15T12:27:50.000Z</time>
      </trkpt>
      <trkpt lat="45.55364" lon="7.838542">
        <ele>501.95477</ele>
        <time>2024-10-15T12:27:54.000Z</time>
      </trkpt>
      <trkpt lat="45.553662" lon="7.838548">
        <ele>501.47479</ele>
        <time>2024-10-15T12:27:56.000Z</time>
      </trkpt>
      <trkpt lat="45.553685" lon="7.838557">
        <ele>500.96478</ele>
        <time>2024-10-15T12:27:58.000Z</time>
      </trkpt>
      <trkpt lat="45.553703" lon="7.838545">
        <ele>500.39484</ele>
        <time>2024-10-15T12:28:01.000Z</time>
      </trkpt>
      <trkpt lat="45.55371" lon="7.838517">
        <ele>499.83487</ele>
        <time>2024-10-15T12:28:03.000Z</time>
      </trkpt>
      <trkpt lat="45.55372" lon="7.838478">
        <ele>499.28485</ele>
        <time>2024-10-15T12:28:05.000Z</time>
      </trkpt>
      <trkpt lat="45.553732" lon="7.838457">
        <ele>498.73984</ele>
        <time>2024-10-15T12:28:07.000Z</time>
      </trkpt>
      <trkpt lat="45.553745" lon="7.838425">
        <ele>498.25983</ele>
        <time>2024-10-15T12:28:09.000Z</time>
      </trkpt>
      <trkpt lat="45.553757" lon="7.838398">
        <ele>497.83978</ele>
        <time>2024-10-15T12:28:11.000Z</time>
      </trkpt>
      <trkpt lat="45.553773" lon="7.838388">
        <ele>497.49982</ele>
        <time>2024-10-15T12:28:14.000Z</time>
      </trkpt>
      <trkpt lat="45.553793" lon="7.838388">
        <ele>497.1998</ele>
        <time>2024-10-15T12:28:19.000Z</time>
      </trkpt>
      <trkpt lat="45.553802" lon="7.838365">
        <ele>496.9248</ele>
        <time>2024-10-15T12:28:21.000Z</time>
      </trkpt>
      <trkpt lat="45.553805" lon="7.838332">
        <ele>496.65485</ele>
        <time>2024-10-15T12:28:23.000Z</time>
      </trkpt>
      <trkpt lat="45.553817" lon="7.838302">
        <ele>496.38983</ele>
        <time>2024-10-15T12:28:26.000Z</time>
      </trkpt>
      <trkpt lat="45.55383" lon="7.838277">
        <ele>496.16486</ele>
        <time>2024-10-15T12:28:29.000Z</time>
      </trkpt>
      <trkpt lat="45.553837" lon="7.838248">
        <ele>495.92984</ele>
        <time>2024-10-15T12:28:31.000Z</time>
      </trkpt>
      <trkpt lat="45.553848" lon="7.838228">
        <ele>495.67984</ele>
        <time>2024-10-15T12:28:33.000Z</time>
      </trkpt>
      <trkpt lat="45.553867" lon="7.83821">
        <ele>495.41479</ele>
        <time>2024-10-15T12:28:35.000Z</time>
      </trkpt>
      <trkpt lat="45.553883" lon="7.838197">
        <ele>495.04974</ele>
        <time>2024-10-15T12:28:37.000Z</time>
      </trkpt>
      <trkpt lat="45.5539" lon="7.838183">
        <ele>494.62973</ele>
        <time>2024-10-15T12:28:39.000Z</time>
      </trkpt>
      <trkpt lat="45.553922" lon="7.838167">
        <ele>494.18475</ele>
        <time>2024-10-15T12:28:41.000Z</time>
      </trkpt>
      <trkpt lat="45.553943" lon="7.838145">
        <ele>493.74478</ele>
        <time>2024-10-15T12:28:43.000Z</time>
      </trkpt>
      <trkpt lat="45.553955" lon="7.838122">
        <ele>493.34976</ele>
        <time>2024-10-15T12:28:45.000Z</time>
      </trkpt>
      <trkpt lat="45.55396" lon="7.83809">
        <ele>492.93472</ele>
        <time>2024-10-15T12:28:48.000Z</time>
      </trkpt>
      <trkpt lat="45.553947" lon="7.838065">
        <ele>492.44971</ele>
        <time>2024-10-15T12:28:50.000Z</time>
      </trkpt>
      <trkpt lat="45.55393" lon="7.83803">
        <ele>491.90472</ele>
        <time>2024-10-15T12:28:53.000Z</time>
      </trkpt>
      <trkpt lat="45.553913" lon="7.838007">
        <ele>491.33472</ele>
        <time>2024-10-15T12:28:55.000Z</time>
      </trkpt>
      <trkpt lat="45.553898" lon="7.83798">
        <ele>490.70972</ele>
        <time>2024-10-15T12:28:57.000Z</time>
      </trkpt>
      <trkpt lat="45.553887" lon="7.837953">
        <ele>490.02472</ele>
        <time>2024-10-15T12:28:59.000Z</time>
      </trkpt>
      <trkpt lat="45.553873" lon="7.837927">
        <ele>489.23471</ele>
        <time>2024-10-15T12:29:01.000Z</time>
      </trkpt>
      <trkpt lat="45.55386" lon="7.837907">
        <ele>488.3847</ele>
        <time>2024-10-15T12:29:03.000Z</time>
      </trkpt>
      <trkpt lat="45.553847" lon="7.83788">
        <ele>487.53973</ele>
        <time>2024-10-15T12:29:05.000Z</time>
      </trkpt>
      <trkpt lat="45.553847" lon="7.83784">
        <ele>486.64471</ele>
        <time>2024-10-15T12:29:08.000Z</time>
      </trkpt>
      <trkpt lat="45.553857" lon="7.837797">
        <ele>485.79474</ele>
        <time>2024-10-15T12:29:10.000Z</time>
      </trkpt>
      <trkpt lat="45.553882" lon="7.837768">
        <ele>484.9397</ele>
        <time>2024-10-15T12:29:12.000Z</time>
      </trkpt>
      <trkpt lat="45.553897" lon="7.837743">
        <ele>484.05972</ele>
        <time>2024-10-15T12:29:14.000Z</time>
      </trkpt>
      <trkpt lat="45.55391" lon="7.837722">
        <ele>483.19473</ele>
        <time>2024-10-15T12:29:16.000Z</time>
      </trkpt>
      <trkpt lat="45.553923" lon="7.837697">
        <ele>482.34473</ele>
        <time>2024-10-15T12:29:18.000Z</time>
      </trkpt>
      <trkpt lat="45.553918" lon="7.837667">
        <ele>481.51971</ele>
        <time>2024-10-15T12:29:20.000Z</time>
      </trkpt>
      <trkpt lat="45.553893" lon="7.837658">
        <ele>480.73975</ele>
        <time>2024-10-15T12:29:23.000Z</time>
      </trkpt>
      <trkpt lat="45.553873" lon="7.837652">
        <ele>479.97974</ele>
        <time>2024-10-15T12:29:26.000Z</time>
      </trkpt>
      <trkpt lat="45.553853" lon="7.837647">
        <ele>479.21973</ele>
        <time>2024-10-15T12:29:28.000Z</time>
      </trkpt>
      <trkpt lat="45.553833" lon="7.837632">
        <ele>478.3847</ele>
        <time>2024-10-15T12:29:31.000Z</time>
      </trkpt>
      <trkpt lat="45.553815" lon="7.837617">
        <ele>477.60474</ele>
        <time>2024-10-15T12:29:33.000Z</time>
      </trkpt>
      <trkpt lat="45.553795" lon="7.8376">
        <ele>476.8847</ele>
        <time>2024-10-15T12:29:35.000Z</time>
      </trkpt>
      <trkpt lat="45.55378" lon="7.837572">
        <ele>476.19473</ele>
        <time>2024-10-15T12:29:38.000Z</time>
      </trkpt>
      <trkpt lat="45.553767" lon="7.837552">
        <ele>475.49976</ele>
        <time>2024-10-15T12:29:40.000Z</time>
      </trkpt>
      <trkpt lat="45.553747" lon="7.837532">
        <ele>474.81976</ele>
        <time>2024-10-15T12:29:42.000Z</time>
      </trkpt>
      <trkpt lat="45.55373" lon="7.83752">
        <ele>474.19476</ele>
        <time>2024-10-15T12:29:48.000Z</time>
      </trkpt>
      <trkpt lat="45.553707" lon="7.837488">
        <ele>473.69476</ele>
        <time>2024-10-15T12:29:51.000Z</time>
      </trkpt>
      <trkpt lat="45.55369" lon="7.837468">
        <ele>473.31476</ele>
        <time>2024-10-15T12:29:53.000Z</time>
      </trkpt>
      <trkpt lat="45.553672" lon="7.83745">
        <ele>472.93976</ele>
        <time>2024-10-15T12:29:55.000Z</time>
      </trkpt>
      <trkpt lat="45.553647" lon="7.837435">
        <ele>472.63974</ele>
        <time>2024-10-15T12:29:58.000Z</time>
      </trkpt>
      <trkpt lat="45.553625" lon="7.837417">
        <ele>472.34976</ele>
        <time>2024-10-15T12:30:00.000Z</time>
      </trkpt>
      <trkpt lat="45.553613" lon="7.837397">
        <ele>472.16473</ele>
        <time>2024-10-15T12:30:04.000Z</time>
      </trkpt>
      <trkpt lat="45.553632" lon="7.837397">
        <ele>472.12476</ele>
        <time>2024-10-15T12:30:12.000Z</time>
      </trkpt>
      <trkpt lat="45.553657" lon="7.837355">
        <ele>471.94476</ele>
        <time>2024-10-15T12:30:35.000Z</time>
      </trkpt>
      <trkpt lat="45.55367" lon="7.837297">
        <ele>471.74982</ele>
        <time>2024-10-15T12:31:37.000Z</time>
      </trkpt>
      <trkpt lat="45.553657" lon="7.837268">
        <ele>471.55484</ele>
        <time>2024-10-15T12:31:39.000Z</time>
      </trkpt>
      <trkpt lat="45.553638" lon="7.83724">
        <ele>471.33984</ele>
        <time>2024-10-15T12:31:41.000Z</time>
      </trkpt>
      <trkpt lat="45.553615" lon="7.83723">
        <ele>471.17487</ele>
        <time>2024-10-15T12:31:43.000Z</time>
      </trkpt>
      <trkpt lat="45.553593" lon="7.8372">
        <ele>471.07983</ele>
        <time>2024-10-15T12:31:45.000Z</time>
      </trkpt>
      <trkpt lat="45.55358" lon="7.837168">
        <ele>471.05484</ele>
        <time>2024-10-15T12:31:47.000Z</time>
      </trkpt>
      <trkpt lat="45.553572" lon="7.837133">
        <ele>471.06485</ele>
        <time>2024-10-15T12:31:49.000Z</time>
      </trkpt>
      <trkpt lat="45.553557" lon="7.837093">
        <ele>471.10986</ele>
        <time>2024-10-15T12:31:51.000Z</time>
      </trkpt>
      <trkpt lat="45.553537" lon="7.837048">
        <ele>471.22983</ele>
        <time>2024-10-15T12:31:53.000Z</time>
      </trkpt>
      <trkpt lat="45.553525" lon="7.837025">
        <ele>471.40485</ele>
        <time>2024-10-15T12:31:54.000Z</time>
      </trkpt>
      <trkpt lat="45.553517" lon="7.837002">
        <ele>471.62485</ele>
        <time>2024-10-15T12:31:55.000Z</time>
      </trkpt>
      <trkpt lat="45.553512" lon="7.836963">
        <ele>471.86484</ele>
        <time>2024-10-15T12:31:57.000Z</time>
      </trkpt>
      <trkpt lat="45.553522" lon="7.83692">
        <ele>472.07983</ele>
        <time>2024-10-15T12:31:59.000Z</time>
      </trkpt>
      <trkpt lat="45.553537" lon="7.836883">
        <ele>472.21484</ele>
        <time>2024-10-15T12:32:01.000Z</time>
      </trkpt>
      <trkpt lat="45.55355" lon="7.836847">
        <ele>472.30484</ele>
        <time>2024-10-15T12:32:03.000Z</time>
      </trkpt>
      <trkpt lat="45.553562" lon="7.836815">
        <ele>472.34482</ele>
        <time>2024-10-15T12:32:05.000Z</time>
      </trkpt>
      <trkpt lat="45.553562" lon="7.836782">
        <ele>472.36981</ele>
        <time>2024-10-15T12:32:07.000Z</time>
      </trkpt>
      <trkpt lat="45.55356" lon="7.836745">
        <ele>472.26483</ele>
        <time>2024-10-15T12:32:09.000Z</time>
      </trkpt>
      <trkpt lat="45.553555" lon="7.836708">
        <ele>472.07486</ele>
        <time>2024-10-15T12:32:11.000Z</time>
      </trkpt>
      <trkpt lat="45.553555" lon="7.836675">
        <ele>472.04483</ele>
        <time>2024-10-15T12:32:13.000Z</time>
      </trkpt>
      <trkpt lat="45.553543" lon="7.836645">
        <ele>472.04483</ele>
        <time>2024-10-15T12:32:15.000Z</time>
      </trkpt>
      <trkpt lat="45.55353" lon="7.836608">
        <ele>472.02481</ele>
        <time>2024-10-15T12:32:17.000Z</time>
      </trkpt>
      <trkpt lat="45.553538" lon="7.836577">
        <ele>472.05478</ele>
        <time>2024-10-15T12:32:24.000Z</time>
      </trkpt>
      <trkpt lat="45.553543" lon="7.836552">
        <ele>472.04477</ele>
        <time>2024-10-15T12:32:28.000Z</time>
      </trkpt>
      <trkpt lat="45.553538" lon="7.836498">
        <ele>472.03476</ele>
        <time>2024-10-15T12:33:05.000Z</time>
      </trkpt>
      <trkpt lat="45.553528" lon="7.836465">
        <ele>472.01978</ele>
        <time>2024-10-15T12:33:07.000Z</time>
      </trkpt>
      <trkpt lat="45.553522" lon="7.83644">
        <ele>472.02475</ele>
        <time>2024-10-15T12:33:09.000Z</time>
      </trkpt>
      <trkpt lat="45.55351" lon="7.836418">
        <ele>472.02972</ele>
        <time>2024-10-15T12:33:11.000Z</time>
      </trkpt>
      <trkpt lat="45.553495" lon="7.836403">
        <ele>471.95978</ele>
        <time>2024-10-15T12:33:13.000Z</time>
      </trkpt>
      <trkpt lat="45.553482" lon="7.836383">
        <ele>471.82477</ele>
        <time>2024-10-15T12:33:15.000Z</time>
      </trkpt>
      <trkpt lat="45.553468" lon="7.836352">
        <ele>471.59473</ele>
        <time>2024-10-15T12:33:17.000Z</time>
      </trkpt>
      <trkpt lat="45.553448" lon="7.836333">
        <ele>471.27972</ele>
        <time>2024-10-15T12:33:19.000Z</time>
      </trkpt>
      <trkpt lat="45.553427" lon="7.836322">
        <ele>470.88974</ele>
        <time>2024-10-15T12:33:21.000Z</time>
      </trkpt>
      <trkpt lat="45.553412" lon="7.836305">
        <ele>470.48975</ele>
        <time>2024-10-15T12:33:23.000Z</time>
      </trkpt>
      <trkpt lat="45.553397" lon="7.83629">
        <ele>470.03476</ele>
        <time>2024-10-15T12:33:27.000Z</time>
      </trkpt>
      <trkpt lat="45.553372" lon="7.836285">
        <ele>469.5748</ele>
        <time>2024-10-15T12:33:29.000Z</time>
      </trkpt>
      <trkpt lat="45.553355" lon="7.836265">
        <ele>469.06479</ele>
        <time>2024-10-15T12:33:31.000Z</time>
      </trkpt>
      <trkpt lat="45.55334" lon="7.836243">
        <ele>468.58978</ele>
        <time>2024-10-15T12:33:33.000Z</time>
      </trkpt>
      <trkpt lat="45.553322" lon="7.83624">
        <ele>468.11481</ele>
        <time>2024-10-15T12:33:36.000Z</time>
      </trkpt>
      <trkpt lat="45.553307" lon="7.83622">
        <ele>467.67984</ele>
        <time>2024-10-15T12:34:21.000Z</time>
      </trkpt>
      <trkpt lat="45.553288" lon="7.836198">
        <ele>467.23984</ele>
        <time>2024-10-15T12:34:33.000Z</time>
      </trkpt>
      <trkpt lat="45.553267" lon="7.836178">
        <ele>466.77484</ele>
        <time>2024-10-15T12:34:35.000Z</time>
      </trkpt>
      <trkpt lat="45.553248" lon="7.836157">
        <ele>466.22983</ele>
        <time>2024-10-15T12:34:37.000Z</time>
      </trkpt>
      <trkpt lat="45.553225" lon="7.836135">
        <ele>465.69482</ele>
        <time>2024-10-15T12:34:39.000Z</time>
      </trkpt>
      <trkpt lat="45.553208" lon="7.836117">
        <ele>465.13983</ele>
        <time>2024-10-15T12:34:41.000Z</time>
      </trkpt>
      <trkpt lat="45.553183" lon="7.836108">
        <ele>464.58487</ele>
        <time>2024-10-15T12:34:43.000Z</time>
      </trkpt>
      <trkpt lat="45.553163" lon="7.83609">
        <ele>463.9899</ele>
        <time>2024-10-15T12:34:45.000Z</time>
      </trkpt>
      <trkpt lat="45.553143" lon="7.836072">
        <ele>463.39493</ele>
        <time>2024-10-15T12:34:47.000Z</time>
      </trkpt>
      <trkpt lat="45.553123" lon="7.836055">
        <ele>462.81992</ele>
        <time>2024-10-15T12:34:49.000Z</time>
      </trkpt>
      <trkpt lat="45.553107" lon="7.836045">
        <ele>462.13995</ele>
        <time>2024-10-15T12:34:59.000Z</time>
      </trkpt>
      <trkpt lat="45.553083" lon="7.836025">
        <ele>461.48993</ele>
        <time>2024-10-15T12:35:01.000Z</time>
      </trkpt>
      <trkpt lat="45.553062" lon="7.836005">
        <ele>460.88495</ele>
        <time>2024-10-15T12:35:03.000Z</time>
      </trkpt>
      <trkpt lat="45.553037" lon="7.835988">
        <ele>460.38995</ele>
        <time>2024-10-15T12:35:05.000Z</time>
      </trkpt>
      <trkpt lat="45.553012" lon="7.835952">
        <ele>459.98495</ele>
        <time>2024-10-15T12:35:07.000Z</time>
      </trkpt>
      <trkpt lat="45.552997" lon="7.83593">
        <ele>459.73495</ele>
        <time>2024-10-15T12:35:08.000Z</time>
      </trkpt>
      <trkpt lat="45.552978" lon="7.835915">
        <ele>459.60492</ele>
        <time>2024-10-15T12:35:10.000Z</time>
      </trkpt>
      <trkpt lat="45.552955" lon="7.835893">
        <ele>459.61993</ele>
        <time>2024-10-15T12:35:12.000Z</time>
      </trkpt>
      <trkpt lat="45.552932" lon="7.835863">
        <ele>459.66495</ele>
        <time>2024-10-15T12:35:14.000Z</time>
      </trkpt>
      <trkpt lat="45.55291" lon="7.835838">
        <ele>459.69492</ele>
        <time>2024-10-15T12:35:16.000Z</time>
      </trkpt>
      <trkpt lat="45.552892" lon="7.835825">
        <ele>459.63989</ele>
        <time>2024-10-15T12:35:18.000Z</time>
      </trkpt>
      <trkpt lat="45.552872" lon="7.83583">
        <ele>459.48486</ele>
        <time>2024-10-15T12:35:22.000Z</time>
      </trkpt>
      <trkpt lat="45.552833" lon="7.835803">
        <ele>459.16986</ele>
        <time>2024-10-15T12:35:49.000Z</time>
      </trkpt>
      <trkpt lat="45.552812" lon="7.835772">
        <ele>458.91489</ele>
        <time>2024-10-15T12:35:52.000Z</time>
      </trkpt>
      <trkpt lat="45.552795" lon="7.835732">
        <ele>458.60992</ele>
        <time>2024-10-15T12:35:54.000Z</time>
      </trkpt>
      <trkpt lat="45.552782" lon="7.835693">
        <ele>458.19989</ele>
        <time>2024-10-15T12:35:56.000Z</time>
      </trkpt>
      <trkpt lat="45.552765" lon="7.835675">
        <ele>457.71988</ele>
        <time>2024-10-15T12:35:58.000Z</time>
      </trkpt>
      <trkpt lat="45.552743" lon="7.835653">
        <ele>457.24487</ele>
        <time>2024-10-15T12:36:00.000Z</time>
      </trkpt>
      <trkpt lat="45.552725" lon="7.835645">
        <ele>456.73486</ele>
        <time>2024-10-15T12:36:02.000Z</time>
      </trkpt>
      <trkpt lat="45.55271" lon="7.835622">
        <ele>456.25482</ele>
        <time>2024-10-15T12:36:04.000Z</time>
      </trkpt>
      <trkpt lat="45.552707" lon="7.83559">
        <ele>455.9248</ele>
        <time>2024-10-15T12:36:06.000Z</time>
      </trkpt>
      <trkpt lat="45.552705" lon="7.83555">
        <ele>455.58978</ele>
        <time>2024-10-15T12:36:09.000Z</time>
      </trkpt>
      <trkpt lat="45.552708" lon="7.835523">
        <ele>455.22479</ele>
        <time>2024-10-15T12:36:12.000Z</time>
      </trkpt>
      <trkpt lat="45.552713" lon="7.835488">
        <ele>454.78986</ele>
        <time>2024-10-15T12:36:31.000Z</time>
      </trkpt>
      <trkpt lat="45.552707" lon="7.835463">
        <ele>454.30484</ele>
        <time>2024-10-15T12:36:33.000Z</time>
      </trkpt>
      <trkpt lat="45.552707" lon="7.835425">
        <ele>453.81982</ele>
        <time>2024-10-15T12:36:36.000Z</time>
      </trkpt>
      <trkpt lat="45.552712" lon="7.835395">
        <ele>453.30981</ele>
        <time>2024-10-15T12:36:39.000Z</time>
      </trkpt>
      <trkpt lat="45.5527" lon="7.835363">
        <ele>452.72983</ele>
        <time>2024-10-15T12:36:42.000Z</time>
      </trkpt>
      <trkpt lat="45.552682" lon="7.835342">
        <ele>452.12982</ele>
        <time>2024-10-15T12:36:43.000Z</time>
      </trkpt>
      <trkpt lat="45.552662" lon="7.835323">
        <ele>451.52985</ele>
        <time>2024-10-15T12:36:44.000Z</time>
      </trkpt>
      <trkpt lat="45.552642" lon="7.8353">
        <ele>450.97983</ele>
        <time>2024-10-15T12:36:45.000Z</time>
      </trkpt>
      <trkpt lat="45.552627" lon="7.835283">
        <ele>450.51984</ele>
        <time>2024-10-15T12:36:46.000Z</time>
      </trkpt>
      <trkpt lat="45.552602" lon="7.835265">
        <ele>450.23981</ele>
        <time>2024-10-15T12:36:48.000Z</time>
      </trkpt>
      <trkpt lat="45.552585" lon="7.83525">
        <ele>449.91479</ele>
        <time>2024-10-15T12:36:50.000Z</time>
      </trkpt>
      <trkpt lat="45.552565" lon="7.83523">
        <ele>449.62979</ele>
        <time>2024-10-15T12:36:52.000Z</time>
      </trkpt>
      <trkpt lat="45.552547" lon="7.835232">
        <ele>449.44476</ele>
        <time>2024-10-15T12:36:54.000Z</time>
      </trkpt>
      <trkpt lat="45.552523" lon="7.835198">
        <ele>449.30478</ele>
        <time>2024-10-15T12:36:56.000Z</time>
      </trkpt>
      <trkpt lat="45.552498" lon="7.835163">
        <ele>449.09479</ele>
        <time>2024-10-15T12:36:58.000Z</time>
      </trkpt>
      <trkpt lat="45.55248" lon="7.835152">
        <ele>448.87979</ele>
        <time>2024-10-15T12:36:59.000Z</time>
      </trkpt>
      <trkpt lat="45.552462" lon="7.835152">
        <ele>448.62979</ele>
        <time>2024-10-15T12:37:00.000Z</time>
      </trkpt>
      <trkpt lat="45.552442" lon="7.83514">
        <ele>448.36978</ele>
        <time>2024-10-15T12:37:01.000Z</time>
      </trkpt>
      <trkpt lat="45.55242" lon="7.835128">
        <ele>448.09979</ele>
        <time>2024-10-15T12:37:03.000Z</time>
      </trkpt>
      <trkpt lat="45.55241" lon="7.83515">
        <ele>447.86978</ele>
        <time>2024-10-15T12:37:08.000Z</time>
      </trkpt>
      <trkpt lat="45.552385" lon="7.835165">
        <ele>447.71979</ele>
        <time>2024-10-15T12:37:10.000Z</time>
      </trkpt>
      <trkpt lat="45.552362" lon="7.835187">
        <ele>447.61475</ele>
        <time>2024-10-15T12:37:12.000Z</time>
      </trkpt>
      <trkpt lat="45.552338" lon="7.835202">
        <ele>447.51971</ele>
        <time>2024-10-15T12:37:14.000Z</time>
      </trkpt>
      <trkpt lat="45.55232" lon="7.835205">
        <ele>447.42975</ele>
        <time>2024-10-15T12:37:16.000Z</time>
      </trkpt>
      <trkpt lat="45.5523" lon="7.835212">
        <ele>447.35971</ele>
        <time>2024-10-15T12:37:18.000Z</time>
      </trkpt>
      <trkpt lat="45.552278" lon="7.835225">
        <ele>447.32471</ele>
        <time>2024-10-15T12:37:20.000Z</time>
      </trkpt>
      <trkpt lat="45.552252" lon="7.835253">
        <ele>447.26971</ele>
        <time>2024-10-15T12:37:22.000Z</time>
      </trkpt>
      <trkpt lat="45.552225" lon="7.835275">
        <ele>447.18472</ele>
        <time>2024-10-15T12:37:24.000Z</time>
      </trkpt>
      <trkpt lat="45.552205" lon="7.835285">
        <ele>447.07974</ele>
        <time>2024-10-15T12:37:26.000Z</time>
      </trkpt>
      <trkpt lat="45.552177" lon="7.83531">
        <ele>446.94977</ele>
        <time>2024-10-15T12:37:28.000Z</time>
      </trkpt>
      <trkpt lat="45.552173" lon="7.835345">
        <ele>446.82974</ele>
        <time>2024-10-15T12:37:30.000Z</time>
      </trkpt>
      <trkpt lat="45.552155" lon="7.83537">
        <ele>446.69971</ele>
        <time>2024-10-15T12:37:32.000Z</time>
      </trkpt>
      <trkpt lat="45.552138" lon="7.835395">
        <ele>446.51971</ele>
        <time>2024-10-15T12:37:34.000Z</time>
      </trkpt>
      <trkpt lat="45.552112" lon="7.835413">
        <ele>446.35971</ele>
        <time>2024-10-15T12:37:36.000Z</time>
      </trkpt>
      <trkpt lat="45.552085" lon="7.835445">
        <ele>446.2897</ele>
        <time>2024-10-15T12:37:38.000Z</time>
      </trkpt>
      <trkpt lat="45.552063" lon="7.83546">
        <ele>446.25967</ele>
        <time>2024-10-15T12:37:40.000Z</time>
      </trkpt>
      <trkpt lat="45.552045" lon="7.835462">
        <ele>446.25967</ele>
        <time>2024-10-15T12:37:43.000Z</time>
      </trkpt>
      <trkpt lat="45.552027" lon="7.835467">
        <ele>446.2247</ele>
        <time>2024-10-15T12:37:46.000Z</time>
      </trkpt>
      <trkpt lat="45.552005" lon="7.835472">
        <ele>446.17969</ele>
        <time>2024-10-15T12:37:48.000Z</time>
      </trkpt>
      <trkpt lat="45.551985" lon="7.835475">
        <ele>446.04468</ele>
        <time>2024-10-15T12:37:51.000Z</time>
      </trkpt>
      <trkpt lat="45.551962" lon="7.835488">
        <ele>445.70966</ele>
        <time>2024-10-15T12:37:54.000Z</time>
      </trkpt>
      <trkpt lat="45.55194" lon="7.835507">
        <ele>445.19467</ele>
        <time>2024-10-15T12:37:56.000Z</time>
      </trkpt>
      <trkpt lat="45.551923" lon="7.835522">
        <ele>444.4747</ele>
        <time>2024-10-15T12:37:58.000Z</time>
      </trkpt>
      <trkpt lat="45.5519" lon="7.835533">
        <ele>443.52472</ele>
        <time>2024-10-15T12:38:01.000Z</time>
      </trkpt>
      <trkpt lat="45.551877" lon="7.835537">
        <ele>442.43976</ele>
        <time>2024-10-15T12:38:05.000Z</time>
      </trkpt>
      <trkpt lat="45.551853" lon="7.835543">
        <ele>441.29474</ele>
        <time>2024-10-15T12:38:07.000Z</time>
      </trkpt>
      <trkpt lat="45.551833" lon="7.83554">
        <ele>440.10971</ele>
        <time>2024-10-15T12:38:09.000Z</time>
      </trkpt>
      <trkpt lat="45.551808" lon="7.835537">
        <ele>438.87476</ele>
        <time>2024-10-15T12:38:11.000Z</time>
      </trkpt>
      <trkpt lat="45.551788" lon="7.835532">
        <ele>437.62973</ele>
        <time>2024-10-15T12:38:13.000Z</time>
      </trkpt>
      <trkpt lat="45.551767" lon="7.83552">
        <ele>436.37973</ele>
        <time>2024-10-15T12:38:15.000Z</time>
      </trkpt>
      <trkpt lat="45.55174" lon="7.835517">
        <ele>435.10474</ele>
        <time>2024-10-15T12:38:17.000Z</time>
      </trkpt>
      <trkpt lat="45.551718" lon="7.835522">
        <ele>433.79974</ele>
        <time>2024-10-15T12:38:19.000Z</time>
      </trkpt>
      <trkpt lat="45.551698" lon="7.83551">
        <ele>432.45474</ele>
        <time>2024-10-15T12:38:21.000Z</time>
      </trkpt>
      <trkpt lat="45.551678" lon="7.835505">
        <ele>431.11978</ele>
        <time>2024-10-15T12:38:23.000Z</time>
      </trkpt>
      <trkpt lat="45.551655" lon="7.835505">
        <ele>429.74982</ele>
        <time>2024-10-15T12:38:25.000Z</time>
      </trkpt>
      <trkpt lat="45.551633" lon="7.835495">
        <ele>428.31479</ele>
        <time>2024-10-15T12:38:27.000Z</time>
      </trkpt>
      <trkpt lat="45.5516" lon="7.835478">
        <ele>426.89484</ele>
        <time>2024-10-15T12:38:29.000Z</time>
      </trkpt>
      <trkpt lat="45.551588" lon="7.835452">
        <ele>425.52985</ele>
        <time>2024-10-15T12:38:31.000Z</time>
      </trkpt>
      <trkpt lat="45.551573" lon="7.835427">
        <ele>424.21982</ele>
        <time>2024-10-15T12:38:34.000Z</time>
      </trkpt>
      <trkpt lat="45.551548" lon="7.835445">
        <ele>423.05484</ele>
        <time>2024-10-15T12:38:37.000Z</time>
      </trkpt>
      <trkpt lat="45.551523" lon="7.835452">
        <ele>422.06982</ele>
        <time>2024-10-15T12:38:39.000Z</time>
      </trkpt>
      <trkpt lat="45.551497" lon="7.835452">
        <ele>421.20483</ele>
        <time>2024-10-15T12:38:41.000Z</time>
      </trkpt>
      <trkpt lat="45.551473" lon="7.835445">
        <ele>420.45987</ele>
        <time>2024-10-15T12:38:43.000Z</time>
      </trkpt>
      <trkpt lat="45.551448" lon="7.835425">
        <ele>419.88486</ele>
        <time>2024-10-15T12:38:45.000Z</time>
      </trkpt>
      <trkpt lat="45.55143" lon="7.835413">
        <ele>419.37988</ele>
        <time>2024-10-15T12:38:47.000Z</time>
      </trkpt>
      <trkpt lat="45.5514" lon="7.835403">
        <ele>418.91986</ele>
        <time>2024-10-15T12:38:49.000Z</time>
      </trkpt>
      <trkpt lat="45.551373" lon="7.835398">
        <ele>418.53986</ele>
        <time>2024-10-15T12:38:51.000Z</time>
      </trkpt>
      <trkpt lat="45.551347" lon="7.835402">
        <ele>418.25986</ele>
        <time>2024-10-15T12:38:53.000Z</time>
      </trkpt>
      <trkpt lat="45.55132" lon="7.8354">
        <ele>418.03485</ele>
        <time>2024-10-15T12:38:55.000Z</time>
      </trkpt>
      <trkpt lat="45.551297" lon="7.835397">
        <ele>417.86987</ele>
        <time>2024-10-15T12:38:57.000Z</time>
      </trkpt>
      <trkpt lat="45.551273" lon="7.835388">
        <ele>417.75986</ele>
        <time>2024-10-15T12:38:59.000Z</time>
      </trkpt>
      <trkpt lat="45.551245" lon="7.83539">
        <ele>417.69986</ele>
        <time>2024-10-15T12:39:01.000Z</time>
      </trkpt>
      <trkpt lat="45.551215" lon="7.835395">
        <ele>417.69986</ele>
        <time>2024-10-15T12:39:03.000Z</time>
      </trkpt>
      <trkpt lat="45.55119" lon="7.835402">
        <ele>417.67487</ele>
        <time>2024-10-15T12:39:05.000Z</time>
      </trkpt>
      <trkpt lat="45.55117" lon="7.835405">
        <ele>417.67987</ele>
        <time>2024-10-15T12:39:07.000Z</time>
      </trkpt>
      <trkpt lat="45.551142" lon="7.835395">
        <ele>417.74487</ele>
        <time>2024-10-15T12:39:10.000Z</time>
      </trkpt>
      <trkpt lat="45.551123" lon="7.83539">
        <ele>417.80487</ele>
        <time>2024-10-15T12:39:12.000Z</time>
      </trkpt>
      <trkpt lat="45.551097" lon="7.835385">
        <ele>417.85489</ele>
        <time>2024-10-15T12:39:14.000Z</time>
      </trkpt>
      <trkpt lat="45.551075" lon="7.835373">
        <ele>417.94989</ele>
        <time>2024-10-15T12:39:16.000Z</time>
      </trkpt>
      <trkpt lat="45.551068" lon="7.835337">
        <ele>417.99493</ele>
        <time>2024-10-15T12:39:19.000Z</time>
      </trkpt>
      <trkpt lat="45.551048" lon="7.835312">
        <ele>418.01495</ele>
        <time>2024-10-15T12:39:21.000Z</time>
      </trkpt>
      <trkpt lat="45.551028" lon="7.83529">
        <ele>418.05493</ele>
        <time>2024-10-15T12:39:23.000Z</time>
      </trkpt>
      <trkpt lat="45.551003" lon="7.835258">
        <ele>418.13492</ele>
        <time>2024-10-15T12:39:25.000Z</time>
      </trkpt>
      <trkpt lat="45.550992" lon="7.835235">
        <ele>418.23492</ele>
        <time>2024-10-15T12:39:26.000Z</time>
      </trkpt>
      <trkpt lat="45.550978" lon="7.835217">
        <ele>418.37491</ele>
        <time>2024-10-15T12:39:27.000Z</time>
      </trkpt>
      <trkpt lat="45.550962" lon="7.835197">
        <ele>418.51489</ele>
        <time>2024-10-15T12:39:29.000Z</time>
      </trkpt>
      <trkpt lat="45.550947" lon="7.835173">
        <ele>418.59488</ele>
        <time>2024-10-15T12:39:31.000Z</time>
      </trkpt>
      <trkpt lat="45.550927" lon="7.83515">
        <ele>418.56488</ele>
        <time>2024-10-15T12:39:33.000Z</time>
      </trkpt>
      <trkpt lat="45.550923" lon="7.83512">
        <ele>418.4549</ele>
        <time>2024-10-15T12:39:36.000Z</time>
      </trkpt>
      <trkpt lat="45.55091" lon="7.835097">
        <ele>418.24487</ele>
        <time>2024-10-15T12:39:39.000Z</time>
      </trkpt>
      <trkpt lat="45.550912" lon="7.83505">
        <ele>418.03989</ele>
        <time>2024-10-15T12:39:41.000Z</time>
      </trkpt>
      <trkpt lat="45.550907" lon="7.835022">
        <ele>417.87491</ele>
        <time>2024-10-15T12:39:44.000Z</time>
      </trkpt>
      <trkpt lat="45.550925" lon="7.835015">
        <ele>417.79492</ele>
        <time>2024-10-15T12:39:48.000Z</time>
      </trkpt>
      <trkpt lat="45.550893" lon="7.834988">
        <ele>417.83994</ele>
        <time>2024-10-15T12:40:17.000Z</time>
      </trkpt>
      <trkpt lat="45.550932" lon="7.835072">
        <ele>417.97495</ele>
        <time>2024-10-15T12:41:27.000Z</time>
      </trkpt>
      <trkpt lat="45.550947" lon="7.835048">
        <ele>418.17999</ele>
        <time>2024-10-15T12:41:30.000Z</time>
      </trkpt>
      <trkpt lat="45.550955" lon="7.835018">
        <ele>418.38495</ele>
        <time>2024-10-15T12:41:32.000Z</time>
      </trkpt>
      <trkpt lat="45.550962" lon="7.83499">
        <ele>418.61493</ele>
        <time>2024-10-15T12:41:35.000Z</time>
      </trkpt>
      <trkpt lat="45.550963" lon="7.834958">
        <ele>418.78497</ele>
        <time>2024-10-15T12:41:38.000Z</time>
      </trkpt>
      <trkpt lat="45.550957" lon="7.834925">
        <ele>418.94995</ele>
        <time>2024-10-15T12:41:40.000Z</time>
      </trkpt>
      <trkpt lat="45.550943" lon="7.834893">
        <ele>419.09497</ele>
        <time>2024-10-15T12:41:42.000Z</time>
      </trkpt>
      <trkpt lat="45.55093" lon="7.834863">
        <ele>419.21997</ele>
        <time>2024-10-15T12:41:44.000Z</time>
      </trkpt>
      <trkpt lat="45.550918" lon="7.83483">
        <ele>419.31494</ele>
        <time>2024-10-15T12:41:46.000Z</time>
      </trkpt>
      <trkpt lat="45.550887" lon="7.834805">
        <ele>419.34497</ele>
        <time>2024-10-15T12:41:49.000Z</time>
      </trkpt>
      <trkpt lat="45.550865" lon="7.834797">
        <ele>419.30499</ele>
        <time>2024-10-15T12:41:51.000Z</time>
      </trkpt>
      <trkpt lat="45.550863" lon="7.834762">
        <ele>419.17999</ele>
        <time>2024-10-15T12:41:55.000Z</time>
      </trkpt>
      <trkpt lat="45.55087" lon="7.834723">
        <ele>419.09497</ele>
        <time>2024-10-15T12:41:58.000Z</time>
      </trkpt>
      <trkpt lat="45.550867" lon="7.834688">
        <ele>419.10995</ele>
        <time>2024-10-15T12:42:00.000Z</time>
      </trkpt>
      <trkpt lat="45.550862" lon="7.834658">
        <ele>419.20996</ele>
        <time>2024-10-15T12:42:02.000Z</time>
      </trkpt>
      <trkpt lat="45.550842" lon="7.834642">
        <ele>419.40497</ele>
        <time>2024-10-15T12:42:04.000Z</time>
      </trkpt>
      <trkpt lat="45.550817" lon="7.83462">
        <ele>419.54498</ele>
        <time>2024-10-15T12:42:06.000Z</time>
      </trkpt>
      <trkpt lat="45.550798" lon="7.834587">
        <ele>419.60498</ele>
        <time>2024-10-15T12:42:08.000Z</time>
      </trkpt>
      <trkpt lat="45.55078" lon="7.834572">
        <ele>419.53497</ele>
        <time>2024-10-15T12:42:09.000Z</time>
      </trkpt>
      <trkpt lat="45.550795" lon="7.834537">
        <ele>419.35498</ele>
        <time>2024-10-15T12:42:12.000Z</time>
      </trkpt>
      <trkpt lat="45.550803" lon="7.834505">
        <ele>419.065</ele>
        <time>2024-10-15T12:42:14.000Z</time>
      </trkpt>
      <trkpt lat="45.550803" lon="7.834473">
        <ele>418.69</ele>
        <time>2024-10-15T12:42:16.000Z</time>
      </trkpt>
      <trkpt lat="45.550797" lon="7.834447">
        <ele>418.215</ele>
        <time>2024-10-15T12:42:19.000Z</time>
      </trkpt>
      <trkpt lat="45.550788" lon="7.834423">
        <ele>417.58496</ele>
        <time>2024-10-15T12:42:22.000Z</time>
      </trkpt>
      <trkpt lat="45.550783" lon="7.834397">
        <ele>416.91495</ele>
        <time>2024-10-15T12:42:25.000Z</time>
      </trkpt>
      <trkpt lat="45.550772" lon="7.834362">
        <ele>416.20493</ele>
        <time>2024-10-15T12:42:27.000Z</time>
      </trkpt>
      <trkpt lat="45.550757" lon="7.83432">
        <ele>415.46494</ele>
        <time>2024-10-15T12:42:29.000Z</time>
      </trkpt>
      <trkpt lat="45.550752" lon="7.834292">
        <ele>414.71494</ele>
        <time>2024-10-15T12:42:31.000Z</time>
      </trkpt>
      <trkpt lat="45.550745" lon="7.834255">
        <ele>413.91992</ele>
        <time>2024-10-15T12:42:33.000Z</time>
      </trkpt>
      <trkpt lat="45.550747" lon="7.83422">
        <ele>413.12491</ele>
        <time>2024-10-15T12:42:35.000Z</time>
      </trkpt>
      <trkpt lat="45.550758" lon="7.834195">
        <ele>412.35992</ele>
        <time>2024-10-15T12:42:37.000Z</time>
      </trkpt>
      <trkpt lat="45.550745" lon="7.834162">
        <ele>411.5849</ele>
        <time>2024-10-15T12:42:39.000Z</time>
      </trkpt>
      <trkpt lat="45.55073" lon="7.834142">
        <ele>410.7399</ele>
        <time>2024-10-15T12:42:41.000Z</time>
      </trkpt>
      <trkpt lat="45.550702" lon="7.834107">
        <ele>409.8649</ele>
        <time>2024-10-15T12:42:44.000Z</time>
      </trkpt>
      <trkpt lat="45.55068" lon="7.834088">
        <ele>409.00491</ele>
        <time>2024-10-15T12:42:46.000Z</time>
      </trkpt>
      <trkpt lat="45.550658" lon="7.834083">
        <ele>408.15491</ele>
        <time>2024-10-15T12:42:48.000Z</time>
      </trkpt>
      <trkpt lat="45.550635" lon="7.834067">
        <ele>407.3699</ele>
        <time>2024-10-15T12:42:50.000Z</time>
      </trkpt>
      <trkpt lat="45.550605" lon="7.834042">
        <ele>406.6449</ele>
        <time>2024-10-15T12:42:52.000Z</time>
      </trkpt>
      <trkpt lat="45.550582" lon="7.834015">
        <ele>405.9649</ele>
        <time>2024-10-15T12:42:54.000Z</time>
      </trkpt>
      <trkpt lat="45.550563" lon="7.833978">
        <ele>405.29987</ele>
        <time>2024-10-15T12:42:57.000Z</time>
      </trkpt>
      <trkpt lat="45.55055" lon="7.833952">
        <ele>404.65988</ele>
        <time>2024-10-15T12:42:59.000Z</time>
      </trkpt>
      <trkpt lat="45.550523" lon="7.833928">
        <ele>403.97488</ele>
        <time>2024-10-15T12:43:01.000Z</time>
      </trkpt>
      <trkpt lat="45.550508" lon="7.833902">
        <ele>403.30988</ele>
        <time>2024-10-15T12:43:03.000Z</time>
      </trkpt>
      <trkpt lat="45.550485" lon="7.833893">
        <ele>402.70486</ele>
        <time>2024-10-15T12:43:05.000Z</time>
      </trkpt>
      <trkpt lat="45.550467" lon="7.833878">
        <ele>402.11487</ele>
        <time>2024-10-15T12:43:07.000Z</time>
      </trkpt>
      <trkpt lat="45.550452" lon="7.833863">
        <ele>401.52988</ele>
        <time>2024-10-15T12:43:09.000Z</time>
      </trkpt>
      <trkpt lat="45.550425" lon="7.833863">
        <ele>400.97488</ele>
        <time>2024-10-15T12:43:11.000Z</time>
      </trkpt>
      <trkpt lat="45.550405" lon="7.83386">
        <ele>400.44989</ele>
        <time>2024-10-15T12:43:13.000Z</time>
      </trkpt>
      <trkpt lat="45.550383" lon="7.833838">
        <ele>399.9549</ele>
        <time>2024-10-15T12:43:16.000Z</time>
      </trkpt>
      <trkpt lat="45.550368" lon="7.833818">
        <ele>399.50989</ele>
        <time>2024-10-15T12:43:18.000Z</time>
      </trkpt>
      <trkpt lat="45.550348" lon="7.833802">
        <ele>399.05988</ele>
        <time>2024-10-15T12:43:20.000Z</time>
      </trkpt>
      <trkpt lat="45.550323" lon="7.833798">
        <ele>398.68988</ele>
        <time>2024-10-15T12:43:22.000Z</time>
      </trkpt>
      <trkpt lat="45.550302" lon="7.833767">
        <ele>398.41489</ele>
        <time>2024-10-15T12:43:24.000Z</time>
      </trkpt>
      <trkpt lat="45.550287" lon="7.833743">
        <ele>398.1449</ele>
        <time>2024-10-15T12:43:26.000Z</time>
      </trkpt>
      <trkpt lat="45.55027" lon="7.83372">
        <ele>397.85489</ele>
        <time>2024-10-15T12:43:28.000Z</time>
      </trkpt>
      <trkpt lat="45.550245" lon="7.833715">
        <ele>397.52487</ele>
        <time>2024-10-15T12:43:31.000Z</time>
      </trkpt>
      <trkpt lat="45.550225" lon="7.833693">
        <ele>397.11987</ele>
        <time>2024-10-15T12:43:34.000Z</time>
      </trkpt>
      <trkpt lat="45.550207" lon="7.833673">
        <ele>396.56989</ele>
        <time>2024-10-15T12:43:37.000Z</time>
      </trkpt>
      <trkpt lat="45.550193" lon="7.833655">
        <ele>396.01987</ele>
        <time>2024-10-15T12:43:39.000Z</time>
      </trkpt>
      <trkpt lat="45.550178" lon="7.833637">
        <ele>395.49487</ele>
        <time>2024-10-15T12:43:41.000Z</time>
      </trkpt>
      <trkpt lat="45.550167" lon="7.833607">
        <ele>394.92487</ele>
        <time>2024-10-15T12:43:44.000Z</time>
      </trkpt>
      <trkpt lat="45.550155" lon="7.833585">
        <ele>394.40488</ele>
        <time>2024-10-15T12:43:46.000Z</time>
      </trkpt>
      <trkpt lat="45.550135" lon="7.833567">
        <ele>393.9549</ele>
        <time>2024-10-15T12:43:48.000Z</time>
      </trkpt>
      <trkpt lat="45.550105" lon="7.833537">
        <ele>393.55988</ele>
        <time>2024-10-15T12:43:50.000Z</time>
      </trkpt>
      <trkpt lat="45.550087" lon="7.83352">
        <ele>393.2099</ele>
        <time>2024-10-15T12:43:51.000Z</time>
      </trkpt>
      <trkpt lat="45.550053" lon="7.833505">
        <ele>392.88489</ele>
        <time>2024-10-15T12:43:53.000Z</time>
      </trkpt>
      <trkpt lat="45.550033" lon="7.833495">
        <ele>392.53989</ele>
        <time>2024-10-15T12:43:55.000Z</time>
      </trkpt>
      <trkpt lat="45.550013" lon="7.833487">
        <ele>392.19489</ele>
        <time>2024-10-15T12:43:59.000Z</time>
      </trkpt>
      <trkpt lat="45.549995" lon="7.833473">
        <ele>391.85489</ele>
        <time>2024-10-15T12:44:01.000Z</time>
      </trkpt>
      <trkpt lat="45.549973" lon="7.833463">
        <ele>391.4549</ele>
        <time>2024-10-15T12:44:04.000Z</time>
      </trkpt>
      <trkpt lat="45.549947" lon="7.833457">
        <ele>391.01987</ele>
        <time>2024-10-15T12:44:06.000Z</time>
      </trkpt>
      <trkpt lat="45.549937" lon="7.833435">
        <ele>390.50986</ele>
        <time>2024-10-15T12:44:08.000Z</time>
      </trkpt>
      <trkpt lat="45.549923" lon="7.833408">
        <ele>389.90985</ele>
        <time>2024-10-15T12:44:10.000Z</time>
      </trkpt>
      <trkpt lat="45.549907" lon="7.833378">
        <ele>389.27484</ele>
        <time>2024-10-15T12:44:12.000Z</time>
      </trkpt>
      <trkpt lat="45.5499" lon="7.833352">
        <ele>388.59985</ele>
        <time>2024-10-15T12:44:14.000Z</time>
      </trkpt>
      <trkpt lat="45.549898" lon="7.83332">
        <ele>387.92987</ele>
        <time>2024-10-15T12:44:16.000Z</time>
      </trkpt>
      <trkpt lat="45.549883" lon="7.8333">
        <ele>387.30988</ele>
        <time>2024-10-15T12:44:18.000Z</time>
      </trkpt>
      <trkpt lat="45.549873" lon="7.833268">
        <ele>386.79486</ele>
        <time>2024-10-15T12:44:20.000Z</time>
      </trkpt>
      <trkpt lat="45.549857" lon="7.83325">
        <ele>386.25983</ele>
        <time>2024-10-15T12:44:22.000Z</time>
      </trkpt>
      <trkpt lat="45.549837" lon="7.833242">
        <ele>385.67984</ele>
        <time>2024-10-15T12:44:24.000Z</time>
      </trkpt>
      <trkpt lat="45.54982" lon="7.833217">
        <ele>385.13483</ele>
        <time>2024-10-15T12:44:26.000Z</time>
      </trkpt>
      <trkpt lat="45.549808" lon="7.833192">
        <ele>384.56982</ele>
        <time>2024-10-15T12:44:28.000Z</time>
      </trkpt>
      <trkpt lat="45.549793" lon="7.833157">
        <ele>383.96982</ele>
        <time>2024-10-15T12:44:30.000Z</time>
      </trkpt>
      <trkpt lat="45.549785" lon="7.833127">
        <ele>383.3598</ele>
        <time>2024-10-15T12:44:32.000Z</time>
      </trkpt>
      <trkpt lat="45.54979" lon="7.833102">
        <ele>382.7298</ele>
        <time>2024-10-15T12:44:34.000Z</time>
      </trkpt>
      <trkpt lat="45.549772" lon="7.833082">
        <ele>382.08481</ele>
        <time>2024-10-15T12:44:38.000Z</time>
      </trkpt>
      <trkpt lat="45.549755" lon="7.833062">
        <ele>381.45981</ele>
        <time>2024-10-15T12:44:40.000Z</time>
      </trkpt>
      <trkpt lat="45.549733" lon="7.833037">
        <ele>380.82483</ele>
        <time>2024-10-15T12:44:42.000Z</time>
      </trkpt>
      <trkpt lat="45.549718" lon="7.833003">
        <ele>380.26483</ele>
        <time>2024-10-15T12:44:45.000Z</time>
      </trkpt>
      <trkpt lat="45.549703" lon="7.832987">
        <ele>379.78986</ele>
        <time>2024-10-15T12:44:47.000Z</time>
      </trkpt>
      <trkpt lat="45.549685" lon="7.832988">
        <ele>379.42987</ele>
        <time>2024-10-15T12:44:50.000Z</time>
      </trkpt>
      <trkpt lat="45.549673" lon="7.832957">
        <ele>379.15485</ele>
        <time>2024-10-15T12:44:52.000Z</time>
      </trkpt>
      <trkpt lat="45.549663" lon="7.832923">
        <ele>378.92987</ele>
        <time>2024-10-15T12:44:54.000Z</time>
      </trkpt>
      <trkpt lat="45.549643" lon="7.832885">
        <ele>378.73987</ele>
        <time>2024-10-15T12:44:56.000Z</time>
      </trkpt>
      <trkpt lat="45.549627" lon="7.832868">
        <ele>378.58487</ele>
        <time>2024-10-15T12:44:57.000Z</time>
      </trkpt>
      <trkpt lat="45.549602" lon="7.832837">
        <ele>378.45486</ele>
        <time>2024-10-15T12:44:59.000Z</time>
      </trkpt>
      <trkpt lat="45.54958" lon="7.832807">
        <ele>378.29987</ele>
        <time>2024-10-15T12:45:01.000Z</time>
      </trkpt>
      <trkpt lat="45.549557" lon="7.832793">
        <ele>378.16486</ele>
        <time>2024-10-15T12:45:02.000Z</time>
      </trkpt>
      <trkpt lat="45.549522" lon="7.832795">
        <ele>378.10489</ele>
        <time>2024-10-15T12:45:03.000Z</time>
      </trkpt>
      <trkpt lat="45.549505" lon="7.832785">
        <ele>378.0899</ele>
        <time>2024-10-15T12:45:04.000Z</time>
      </trkpt>
      <trkpt lat="45.549482" lon="7.832788">
        <ele>378.13989</ele>
        <time>2024-10-15T12:45:05.000Z</time>
      </trkpt>
      <trkpt lat="45.549458" lon="7.832782">
        <ele>378.25989</ele>
        <time>2024-10-15T12:45:06.000Z</time>
      </trkpt>
      <trkpt lat="45.549422" lon="7.832765">
        <ele>378.52988</ele>
        <time>2024-10-15T12:45:08.000Z</time>
      </trkpt>
      <trkpt lat="45.5494" lon="7.83274">
        <ele>378.84491</ele>
        <time>2024-10-15T12:45:09.000Z</time>
      </trkpt>
      <trkpt lat="45.549378" lon="7.832708">
        <ele>379.1499</ele>
        <time>2024-10-15T12:45:11.000Z</time>
      </trkpt>
      <trkpt lat="45.549367" lon="7.832673">
        <ele>379.40988</ele>
        <time>2024-10-15T12:45:13.000Z</time>
      </trkpt>
      <trkpt lat="45.549355" lon="7.832648">
        <ele>379.53989</ele>
        <time>2024-10-15T12:45:18.000Z</time>
      </trkpt>
      <trkpt lat="45.549335" lon="7.832628">
        <ele>379.64487</ele>
        <time>2024-10-15T12:45:20.000Z</time>
      </trkpt>
      <trkpt lat="45.549317" lon="7.832612">
        <ele>379.68488</ele>
        <time>2024-10-15T12:45:22.000Z</time>
      </trkpt>
      <trkpt lat="45.549298" lon="7.832592">
        <ele>379.68988</ele>
        <time>2024-10-15T12:45:24.000Z</time>
      </trkpt>
      <trkpt lat="45.549287" lon="7.832562">
        <ele>379.61487</ele>
        <time>2024-10-15T12:45:26.000Z</time>
      </trkpt>
      <trkpt lat="45.549273" lon="7.83253">
        <ele>379.49487</ele>
        <time>2024-10-15T12:45:28.000Z</time>
      </trkpt>
      <trkpt lat="45.54925" lon="7.83249">
        <ele>379.31989</ele>
        <time>2024-10-15T12:45:30.000Z</time>
      </trkpt>
      <trkpt lat="45.549235" lon="7.832447">
        <ele>379.10986</ele>
        <time>2024-10-15T12:45:32.000Z</time>
      </trkpt>
      <trkpt lat="45.549227" lon="7.832408">
        <ele>378.87488</ele>
        <time>2024-10-15T12:45:34.000Z</time>
      </trkpt>
      <trkpt lat="45.549208" lon="7.83238">
        <ele>378.65988</ele>
        <time>2024-10-15T12:45:37.000Z</time>
      </trkpt>
      <trkpt lat="45.549193" lon="7.832353">
        <ele>378.50491</ele>
        <time>2024-10-15T12:45:40.000Z</time>
      </trkpt>
      <trkpt lat="45.549192" lon="7.832327">
        <ele>378.3399</ele>
        <time>2024-10-15T12:45:42.000Z</time>
      </trkpt>
      <trkpt lat="45.549178" lon="7.832297">
        <ele>378.13489</ele>
        <time>2024-10-15T12:45:44.000Z</time>
      </trkpt>
      <trkpt lat="45.549168" lon="7.832262">
        <ele>377.91989</ele>
        <time>2024-10-15T12:45:46.000Z</time>
      </trkpt>
      <trkpt lat="45.549147" lon="7.832228">
        <ele>377.68991</ele>
        <time>2024-10-15T12:45:48.000Z</time>
      </trkpt>
      <trkpt lat="45.549137" lon="7.832207">
        <ele>377.44492</ele>
        <time>2024-10-15T12:45:49.000Z</time>
      </trkpt>
      <trkpt lat="45.549123" lon="7.832188">
        <ele>377.09491</ele>
        <time>2024-10-15T12:45:50.000Z</time>
      </trkpt>
      <trkpt lat="45.549127" lon="7.83215">
        <ele>376.74991</ele>
        <time>2024-10-15T12:45:52.000Z</time>
      </trkpt>
      <trkpt lat="45.549135" lon="7.832122">
        <ele>376.4649</ele>
        <time>2024-10-15T12:45:54.000Z</time>
      </trkpt>
      <trkpt lat="45.549128" lon="7.832093">
        <ele>376.2749</ele>
        <time>2024-10-15T12:45:57.000Z</time>
      </trkpt>
      <trkpt lat="45.549105" lon="7.832082">
        <ele>376.2049</ele>
        <time>2024-10-15T12:45:59.000Z</time>
      </trkpt>
      <trkpt lat="45.549082" lon="7.83208">
        <ele>376.13492</ele>
        <time>2024-10-15T12:46:01.000Z</time>
      </trkpt>
      <trkpt lat="45.54906" lon="7.832062">
        <ele>376.0499</ele>
        <time>2024-10-15T12:46:04.000Z</time>
      </trkpt>
      <trkpt lat="45.549042" lon="7.832062">
        <ele>375.94989</ele>
        <time>2024-10-15T12:46:06.000Z</time>
      </trkpt>
      <trkpt lat="45.54903" lon="7.832087">
        <ele>375.8399</ele>
        <time>2024-10-15T12:46:09.000Z</time>
      </trkpt>
      <trkpt lat="45.54901" lon="7.8321">
        <ele>375.72992</ele>
        <time>2024-10-15T12:46:12.000Z</time>
      </trkpt>
      <trkpt lat="45.548992" lon="7.83211">
        <ele>375.6449</ele>
        <time>2024-10-15T12:46:14.000Z</time>
      </trkpt>
      <trkpt lat="45.548973" lon="7.83212">
        <ele>375.52991</ele>
        <time>2024-10-15T12:46:16.000Z</time>
      </trkpt>
      <trkpt lat="45.548947" lon="7.832117">
        <ele>375.4249</ele>
        <time>2024-10-15T12:46:18.000Z</time>
      </trkpt>
      <trkpt lat="45.54892" lon="7.832107">
        <ele>375.29489</ele>
        <time>2024-10-15T12:46:20.000Z</time>
      </trkpt>
      <trkpt lat="45.548903" lon="7.832097">
        <ele>375.1199</ele>
        <time>2024-10-15T12:46:21.000Z</time>
      </trkpt>
      <trkpt lat="45.548882" lon="7.832092">
        <ele>374.94489</ele>
        <time>2024-10-15T12:46:22.000Z</time>
      </trkpt>
      <trkpt lat="45.54885" lon="7.832092">
        <ele>374.74991</ele>
        <time>2024-10-15T12:46:24.000Z</time>
      </trkpt>
      <trkpt lat="45.548822" lon="7.832092">
        <ele>374.5199</ele>
        <time>2024-10-15T12:46:26.000Z</time>
      </trkpt>
      <trkpt lat="45.54879" lon="7.832085">
        <ele>374.22488</ele>
        <time>2024-10-15T12:46:28.000Z</time>
      </trkpt>
      <trkpt lat="45.548763" lon="7.832078">
        <ele>373.86487</ele>
        <time>2024-10-15T12:46:30.000Z</time>
      </trkpt>
      <trkpt lat="45.548748" lon="7.832048">
        <ele>373.37988</ele>
        <time>2024-10-15T12:46:35.000Z</time>
      </trkpt>
      <trkpt lat="45.548752" lon="7.83201">
        <ele>372.84491</ele>
        <time>2024-10-15T12:46:37.000Z</time>
      </trkpt>
      <trkpt lat="45.548738" lon="7.83198">
        <ele>372.24991</ele>
        <time>2024-10-15T12:46:39.000Z</time>
      </trkpt>
      <trkpt lat="45.548718" lon="7.831963">
        <ele>371.5849</ele>
        <time>2024-10-15T12:46:41.000Z</time>
      </trkpt>
      <trkpt lat="45.548698" lon="7.831948">
        <ele>370.92487</ele>
        <time>2024-10-15T12:46:42.000Z</time>
      </trkpt>
      <trkpt lat="45.548682" lon="7.831935">
        <ele>370.30487</ele>
        <time>2024-10-15T12:46:43.000Z</time>
      </trkpt>
      <trkpt lat="45.548662" lon="7.831915">
        <ele>369.72491</ele>
        <time>2024-10-15T12:46:44.000Z</time>
      </trkpt>
      <trkpt lat="45.548648" lon="7.831893">
        <ele>369.17987</ele>
        <time>2024-10-15T12:46:45.000Z</time>
      </trkpt>
      <trkpt lat="45.548618" lon="7.831883">
        <ele>368.6199</ele>
        <time>2024-10-15T12:46:47.000Z</time>
      </trkpt>
      <trkpt lat="45.548602" lon="7.831865">
        <ele>368.06488</ele>
        <time>2024-10-15T12:46:48.000Z</time>
      </trkpt>
      <trkpt lat="45.548587" lon="7.831835">
        <ele>367.52991</ele>
        <time>2024-10-15T12:46:50.000Z</time>
      </trkpt>
      <trkpt lat="45.548582" lon="7.831802">
        <ele>367.0549</ele>
        <time>2024-10-15T12:46:52.000Z</time>
      </trkpt>
      <trkpt lat="45.548568" lon="7.831763">
        <ele>366.57489</ele>
        <time>2024-10-15T12:46:54.000Z</time>
      </trkpt>
      <trkpt lat="45.548553" lon="7.831742">
        <ele>366.1199</ele>
        <time>2024-10-15T12:46:55.000Z</time>
      </trkpt>
      <trkpt lat="45.54854" lon="7.83172">
        <ele>365.66989</ele>
        <time>2024-10-15T12:46:56.000Z</time>
      </trkpt>
      <trkpt lat="45.548517" lon="7.831692">
        <ele>365.2399</ele>
        <time>2024-10-15T12:46:57.000Z</time>
      </trkpt>
      <trkpt lat="45.548503" lon="7.83167">
        <ele>364.8349</ele>
        <time>2024-10-15T12:46:59.000Z</time>
      </trkpt>
      <trkpt lat="45.548482" lon="7.831653">
        <ele>364.4549</ele>
        <time>2024-10-15T12:47:01.000Z</time>
      </trkpt>
      <trkpt lat="45.54845" lon="7.831655">
        <ele>364.0499</ele>
        <time>2024-10-15T12:47:04.000Z</time>
      </trkpt>
      <trkpt lat="45.54843" lon="7.831657">
        <ele>363.69489</ele>
        <time>2024-10-15T12:47:05.000Z</time>
      </trkpt>
      <trkpt lat="45.548407" lon="7.831697">
        <ele>363.47491</ele>
        <time>2024-10-15T12:47:07.000Z</time>
      </trkpt>
      <trkpt lat="45.548398" lon="7.831738">
        <ele>363.30988</ele>
        <time>2024-10-15T12:47:09.000Z</time>
      </trkpt>
      <trkpt lat="45.548375" lon="7.831773">
        <ele>363.19989</ele>
        <time>2024-10-15T12:47:11.000Z</time>
      </trkpt>
      <trkpt lat="45.54835" lon="7.831795">
        <ele>363.1199</ele>
        <time>2024-10-15T12:47:13.000Z</time>
      </trkpt>
      <trkpt lat="45.548318" lon="7.831803">
        <ele>363.06488</ele>
        <time>2024-10-15T12:47:15.000Z</time>
      </trkpt>
      <trkpt lat="45.548287" lon="7.8318">
        <ele>362.99991</ele>
        <time>2024-10-15T12:47:17.000Z</time>
      </trkpt>
      <trkpt lat="45.548267" lon="7.831833">
        <ele>362.87491</ele>
        <time>2024-10-15T12:47:19.000Z</time>
      </trkpt>
      <trkpt lat="45.54825" lon="7.831855">
        <ele>362.75992</ele>
        <time>2024-10-15T12:47:21.000Z</time>
      </trkpt>
      <trkpt lat="45.548235" lon="7.831875">
        <ele>362.72992</ele>
        <time>2024-10-15T12:47:22.000Z</time>
      </trkpt>
      <trkpt lat="45.548208" lon="7.83188">
        <ele>362.78491</ele>
        <time>2024-10-15T12:47:23.000Z</time>
      </trkpt>
      <trkpt lat="45.548192" lon="7.831897">
        <ele>362.88989</ele>
        <time>2024-10-15T12:47:24.000Z</time>
      </trkpt>
      <trkpt lat="45.548188" lon="7.83193">
        <ele>362.99988</ele>
        <time>2024-10-15T12:47:25.000Z</time>
      </trkpt>
      <trkpt lat="45.548178" lon="7.831968">
        <ele>363.07489</ele>
        <time>2024-10-15T12:47:27.000Z</time>
      </trkpt>
      <trkpt lat="45.548177" lon="7.832">
        <ele>363.1149</ele>
        <time>2024-10-15T12:47:29.000Z</time>
      </trkpt>
      <trkpt lat="45.548175" lon="7.832027">
        <ele>363.12988</ele>
        <time>2024-10-15T12:47:31.000Z</time>
      </trkpt>
      <trkpt lat="45.548165" lon="7.83205">
        <ele>363.0849</ele>
        <time>2024-10-15T12:47:33.000Z</time>
      </trkpt>
      <trkpt lat="45.548138" lon="7.832073">
        <ele>362.96991</ele>
        <time>2024-10-15T12:47:35.000Z</time>
      </trkpt>
      <trkpt lat="45.548123" lon="7.832088">
        <ele>362.8299</ele>
        <time>2024-10-15T12:47:36.000Z</time>
      </trkpt>
      <trkpt lat="45.548103" lon="7.832115">
        <ele>362.6799</ele>
        <time>2024-10-15T12:47:38.000Z</time>
      </trkpt>
      <trkpt lat="45.548087" lon="7.83215">
        <ele>362.44492</ele>
        <time>2024-10-15T12:47:40.000Z</time>
      </trkpt>
      <trkpt lat="45.548067" lon="7.832173">
        <ele>362.11493</ele>
        <time>2024-10-15T12:47:42.000Z</time>
      </trkpt>
      <trkpt lat="45.548037" lon="7.832208">
        <ele>361.70993</ele>
        <time>2024-10-15T12:47:44.000Z</time>
      </trkpt>
      <trkpt lat="45.54802" lon="7.832223">
        <ele>361.24994</ele>
        <time>2024-10-15T12:47:45.000Z</time>
      </trkpt>
      <trkpt lat="45.548005" lon="7.832238">
        <ele>360.76495</ele>
        <time>2024-10-15T12:47:46.000Z</time>
      </trkpt>
      <trkpt lat="45.547988" lon="7.832265">
        <ele>360.20993</ele>
        <time>2024-10-15T12:47:48.000Z</time>
      </trkpt>
      <trkpt lat="45.547977" lon="7.832288">
        <ele>359.57492</ele>
        <time>2024-10-15T12:47:50.000Z</time>
      </trkpt>
      <trkpt lat="45.54796" lon="7.832325">
        <ele>358.92493</ele>
        <time>2024-10-15T12:47:52.000Z</time>
      </trkpt>
      <trkpt lat="45.54794" lon="7.832362">
        <ele>358.19992</ele>
        <time>2024-10-15T12:47:54.000Z</time>
      </trkpt>
      <trkpt lat="45.547922" lon="7.832375">
        <ele>357.42493</ele>
        <time>2024-10-15T12:47:55.000Z</time>
      </trkpt>
      <trkpt lat="45.547898" lon="7.832402">
        <ele>356.5549</ele>
        <time>2024-10-15T12:47:57.000Z</time>
      </trkpt>
      <trkpt lat="45.547873" lon="7.832412">
        <ele>355.61493</ele>
        <time>2024-10-15T12:47:59.000Z</time>
      </trkpt>
      <trkpt lat="45.547842" lon="7.832413">
        <ele>354.62994</ele>
        <time>2024-10-15T12:48:01.000Z</time>
      </trkpt>
      <trkpt lat="45.547813" lon="7.832428">
        <ele>353.68494</ele>
        <time>2024-10-15T12:48:03.000Z</time>
      </trkpt>
      <trkpt lat="45.54779" lon="7.832448">
        <ele>352.76495</ele>
        <time>2024-10-15T12:48:05.000Z</time>
      </trkpt>
      <trkpt lat="45.547762" lon="7.832458">
        <ele>351.85992</ele>
        <time>2024-10-15T12:48:07.000Z</time>
      </trkpt>
      <trkpt lat="45.547733" lon="7.832468">
        <ele>351.01996</ele>
        <time>2024-10-15T12:48:09.000Z</time>
      </trkpt>
      <trkpt lat="45.547713" lon="7.832472">
        <ele>350.24994</ele>
        <time>2024-10-15T12:48:10.000Z</time>
      </trkpt>
      <trkpt lat="45.547682" lon="7.832488">
        <ele>349.53491</ele>
        <time>2024-10-15T12:48:12.000Z</time>
      </trkpt>
      <trkpt lat="45.547665" lon="7.8325">
        <ele>348.90991</ele>
        <time>2024-10-15T12:48:13.000Z</time>
      </trkpt>
      <trkpt lat="45.54764" lon="7.832512">
        <ele>348.35492</ele>
        <time>2024-10-15T12:48:15.000Z</time>
      </trkpt>
      <trkpt lat="45.547613" lon="7.83251">
        <ele>347.87491</ele>
        <time>2024-10-15T12:48:17.000Z</time>
      </trkpt>
      <trkpt lat="45.547595" lon="7.83251">
        <ele>347.42987</ele>
        <time>2024-10-15T12:48:18.000Z</time>
      </trkpt>
      <trkpt lat="45.547572" lon="7.832528">
        <ele>346.97989</ele>
        <time>2024-10-15T12:48:20.000Z</time>
      </trkpt>
      <trkpt lat="45.547552" lon="7.832535">
        <ele>346.53488</ele>
        <time>2024-10-15T12:48:21.000Z</time>
      </trkpt>
      <trkpt lat="45.547533" lon="7.832545">
        <ele>346.1149</ele>
        <time>2024-10-15T12:48:22.000Z</time>
      </trkpt>
      <trkpt lat="45.547517" lon="7.832563">
        <ele>345.79489</ele>
        <time>2024-10-15T12:48:23.000Z</time>
      </trkpt>
      <trkpt lat="45.547502" lon="7.832585">
        <ele>345.53989</ele>
        <time>2024-10-15T12:48:24.000Z</time>
      </trkpt>
      <trkpt lat="45.547477" lon="7.832612">
        <ele>345.3299</ele>
        <time>2024-10-15T12:48:26.000Z</time>
      </trkpt>
      <trkpt lat="45.547452" lon="7.832615">
        <ele>345.12988</ele>
        <time>2024-10-15T12:48:28.000Z</time>
      </trkpt>
      <trkpt lat="45.54743" lon="7.832622">
        <ele>344.9649</ele>
        <time>2024-10-15T12:48:30.000Z</time>
      </trkpt>
      <trkpt lat="45.54741" lon="7.832625">
        <ele>344.8349</ele>
        <time>2024-10-15T12:48:31.000Z</time>
      </trkpt>
      <trkpt lat="45.547388" lon="7.832633">
        <ele>344.76489</ele>
        <time>2024-10-15T12:48:32.000Z</time>
      </trkpt>
      <trkpt lat="45.547368" lon="7.832637">
        <ele>344.75989</ele>
        <time>2024-10-15T12:48:34.000Z</time>
      </trkpt>
      <trkpt lat="45.547342" lon="7.832662">
        <ele>344.84488</ele>
        <time>2024-10-15T12:48:37.000Z</time>
      </trkpt>
      <trkpt lat="45.547315" lon="7.832675">
        <ele>345.04486</ele>
        <time>2024-10-15T12:48:40.000Z</time>
      </trkpt>
      <trkpt lat="45.547298" lon="7.832692">
        <ele>345.26987</ele>
        <time>2024-10-15T12:48:42.000Z</time>
      </trkpt>
      <trkpt lat="45.547275" lon="7.832718">
        <ele>345.53488</ele>
        <time>2024-10-15T12:48:45.000Z</time>
      </trkpt>
      <trkpt lat="45.547247" lon="7.83274">
        <ele>345.81488</ele>
        <time>2024-10-15T12:48:47.000Z</time>
      </trkpt>
      <trkpt lat="45.547227" lon="7.832767">
        <ele>346.12488</ele>
        <time>2024-10-15T12:48:49.000Z</time>
      </trkpt>
      <trkpt lat="45.547205" lon="7.832782">
        <ele>346.47989</ele>
        <time>2024-10-15T12:48:51.000Z</time>
      </trkpt>
      <trkpt lat="45.547185" lon="7.83279">
        <ele>346.8349</ele>
        <time>2024-10-15T12:48:53.000Z</time>
      </trkpt>
      <trkpt lat="45.547162" lon="7.8328">
        <ele>347.22491</ele>
        <time>2024-10-15T12:48:56.000Z</time>
      </trkpt>
      <trkpt lat="45.547143" lon="7.832812">
        <ele>347.63489</ele>
        <time>2024-10-15T12:48:57.000Z</time>
      </trkpt>
      <trkpt lat="45.547117" lon="7.832832">
        <ele>348.02487</ele>
        <time>2024-10-15T12:48:59.000Z</time>
      </trkpt>
      <trkpt lat="45.54708" lon="7.83284">
        <ele>348.41489</ele>
        <time>2024-10-15T12:49:01.000Z</time>
      </trkpt>
      <trkpt lat="45.547052" lon="7.832847">
        <ele>348.75989</ele>
        <time>2024-10-15T12:49:03.000Z</time>
      </trkpt>
      <trkpt lat="45.547028" lon="7.83286">
        <ele>349.06989</ele>
        <time>2024-10-15T12:49:05.000Z</time>
      </trkpt>
      <trkpt lat="45.547005" lon="7.832873">
        <ele>349.35989</ele>
        <time>2024-10-15T12:49:07.000Z</time>
      </trkpt>
      <trkpt lat="45.546982" lon="7.832882">
        <ele>349.62988</ele>
        <time>2024-10-15T12:49:09.000Z</time>
      </trkpt>
      <trkpt lat="45.546948" lon="7.832897">
        <ele>349.8649</ele>
        <time>2024-10-15T12:49:11.000Z</time>
      </trkpt>
      <trkpt lat="45.54692" lon="7.832902">
        <ele>350.03488</ele>
        <time>2024-10-15T12:49:13.000Z</time>
      </trkpt>
      <trkpt lat="45.546902" lon="7.832928">
        <ele>350.14487</ele>
        <time>2024-10-15T12:49:15.000Z</time>
      </trkpt>
      <trkpt lat="45.546873" lon="7.832958">
        <ele>350.15488</ele>
        <time>2024-10-15T12:49:17.000Z</time>
      </trkpt>
      <trkpt lat="45.546858" lon="7.832977">
        <ele>350.01489</ele>
        <time>2024-10-15T12:49:18.000Z</time>
      </trkpt>
      <trkpt lat="45.546848" lon="7.833005">
        <ele>349.7449</ele>
        <time>2024-10-15T12:49:19.000Z</time>
      </trkpt>
      <trkpt lat="45.546838" lon="7.833027">
        <ele>349.43988</ele>
        <time>2024-10-15T12:49:20.000Z</time>
      </trkpt>
      <trkpt lat="45.54682" lon="7.833063">
        <ele>349.1199</ele>
        <time>2024-10-15T12:49:22.000Z</time>
      </trkpt>
      <trkpt lat="45.546803" lon="7.833087">
        <ele>348.7449</ele>
        <time>2024-10-15T12:49:24.000Z</time>
      </trkpt>
      <trkpt lat="45.546773" lon="7.83309">
        <ele>348.35992</ele>
        <time>2024-10-15T12:49:26.000Z</time>
      </trkpt>
      <trkpt lat="45.546745" lon="7.83309">
        <ele>347.93491</ele>
        <time>2024-10-15T12:49:28.000Z</time>
      </trkpt>
      <trkpt lat="45.546728" lon="7.8331">
        <ele>347.4949</ele>
        <time>2024-10-15T12:49:29.000Z</time>
      </trkpt>
      <trkpt lat="45.54671" lon="7.833112">
        <ele>347.02988</ele>
        <time>2024-10-15T12:49:30.000Z</time>
      </trkpt>
      <trkpt lat="45.546678" lon="7.83312">
        <ele>346.5899</ele>
        <time>2024-10-15T12:49:32.000Z</time>
      </trkpt>
      <trkpt lat="45.546655" lon="7.833138">
        <ele>346.2149</ele>
        <time>2024-10-15T12:49:34.000Z</time>
      </trkpt>
      <trkpt lat="45.54663" lon="7.833148">
        <ele>345.99487</ele>
        <time>2024-10-15T12:49:36.000Z</time>
      </trkpt>
      <trkpt lat="45.546612" lon="7.833142">
        <ele>345.85986</ele>
        <time>2024-10-15T12:49:37.000Z</time>
      </trkpt>
      <trkpt lat="45.546593" lon="7.833142">
        <ele>345.78986</ele>
        <time>2024-10-15T12:49:38.000Z</time>
      </trkpt>
      <trkpt lat="45.546572" lon="7.833143">
        <ele>345.76486</ele>
        <time>2024-10-15T12:49:39.000Z</time>
      </trkpt>
      <trkpt lat="45.546543" lon="7.833158">
        <ele>345.79486</ele>
        <time>2024-10-15T12:49:40.000Z</time>
      </trkpt>
      <trkpt lat="45.54652" lon="7.833175">
        <ele>345.88486</ele>
        <time>2024-10-15T12:49:41.000Z</time>
      </trkpt>
      <trkpt lat="45.546502" lon="7.833197">
        <ele>346.05487</ele>
        <time>2024-10-15T12:49:42.000Z</time>
      </trkpt>
      <trkpt lat="45.546482" lon="7.833215">
        <ele>346.28488</ele>
        <time>2024-10-15T12:49:44.000Z</time>
      </trkpt>
      <trkpt lat="45.546455" lon="7.833193">
        <ele>346.60989</ele>
        <time>2024-10-15T12:49:47.000Z</time>
      </trkpt>
      <trkpt lat="45.546442" lon="7.833215">
        <ele>346.99988</ele>
        <time>2024-10-15T12:49:50.000Z</time>
      </trkpt>
      <trkpt lat="45.546413" lon="7.833218">
        <ele>347.40988</ele>
        <time>2024-10-15T12:49:52.000Z</time>
      </trkpt>
      <trkpt lat="45.546388" lon="7.833243">
        <ele>347.81989</ele>
        <time>2024-10-15T12:49:54.000Z</time>
      </trkpt>
      <trkpt lat="45.546367" lon="7.833278">
        <ele>348.19489</ele>
        <time>2024-10-15T12:49:56.000Z</time>
      </trkpt>
      <trkpt lat="45.546352" lon="7.833297">
        <ele>348.56488</ele>
        <time>2024-10-15T12:49:57.000Z</time>
      </trkpt>
      <trkpt lat="45.546338" lon="7.833318">
        <ele>348.91489</ele>
        <time>2024-10-15T12:49:58.000Z</time>
      </trkpt>
      <trkpt lat="45.546313" lon="7.833335">
        <ele>349.2699</ele>
        <time>2024-10-15T12:50:00.000Z</time>
      </trkpt>
      <trkpt lat="45.54629" lon="7.833358">
        <ele>349.65491</ele>
        <time>2024-10-15T12:50:02.000Z</time>
      </trkpt>
      <trkpt lat="45.546277" lon="7.833377">
        <ele>350.04492</ele>
        <time>2024-10-15T12:50:03.000Z</time>
      </trkpt>
      <trkpt lat="45.546267" lon="7.833403">
        <ele>350.41492</ele>
        <time>2024-10-15T12:50:04.000Z</time>
      </trkpt>
      <trkpt lat="45.546257" lon="7.83343">
        <ele>350.73993</ele>
        <time>2024-10-15T12:50:05.000Z</time>
      </trkpt>
      <trkpt lat="45.546247" lon="7.833465">
        <ele>350.87994</ele>
        <time>2024-10-15T12:50:07.000Z</time>
      </trkpt>
      <trkpt lat="45.546228" lon="7.833493">
        <ele>350.90494</ele>
        <time>2024-10-15T12:50:09.000Z</time>
      </trkpt>
      <trkpt lat="45.546217" lon="7.833538">
        <ele>350.80493</ele>
        <time>2024-10-15T12:50:11.000Z</time>
      </trkpt>
      <trkpt lat="45.546205" lon="7.833572">
        <ele>350.57492</ele>
        <time>2024-10-15T12:50:13.000Z</time>
      </trkpt>
      <trkpt lat="45.546192" lon="7.833605">
        <ele>350.30991</ele>
        <time>2024-10-15T12:50:15.000Z</time>
      </trkpt>
      <trkpt lat="45.546177" lon="7.833633">
        <ele>349.9649</ele>
        <time>2024-10-15T12:50:17.000Z</time>
      </trkpt>
    </trkseg>
  </trk>
</gpx>